<?xml version="1.0" encoding="UTF-8"?>
<gpx xmlns="http://www.topografix.com/GPX/1/1"
     creator="GpsDump 4.73"
     version="1.1"
     xmlns:xsi="http://www.w3.org/2001/XMLSchema-instance"
     xsi:schemaLocation="http://www.topografix.com/GPX/1/1 http://www.topografix.com/GPX/1/1/gpx.xsd">
  <metadata>
    <link href="http://www.gethome.no/stein.sorensen/">
      <text>GPS dump for www.flightlog.org</text>
    </link>
    <time>2013-09-08T14:46:59Z</time>
    <bounds minlat="40.003283" minlon="-5.117850" maxlat="40.252467" maxlon="-4.856000"/>
  </metadata>
  <trk>
    <name>Track 001</name>
    <trkseg>
      <trkpt lat="40.252500" lon="-4.887383">
        <ele>1021.0</ele>
        <time>2013-07-06T12:23:13Z</time>
      </trkpt>
      <trkpt lat="40.252483" lon="-4.887350">
        <ele>1021.0</ele>
        <time>2013-07-06T12:23:14Z</time>
      </trkpt>
      <trkpt lat="40.252467" lon="-4.887283">
        <ele>1020.0</ele>
        <time>2013-07-06T12:23:15Z</time>
      </trkpt>
      <trkpt lat="40.252467" lon="-4.887200">
        <ele>1019.0</ele>
        <time>2013-07-06T12:23:16Z</time>
      </trkpt>
      <trkpt lat="40.252450" lon="-4.887150">
        <ele>1018.0</ele>
        <time>2013-07-06T12:23:17Z</time>
      </trkpt>
      <trkpt lat="40.252450" lon="-4.887100">
        <ele>1018.0</ele>
        <time>2013-07-06T12:23:18Z</time>
      </trkpt>
      <trkpt lat="40.252433" lon="-4.887067">
        <ele>1018.0</ele>
        <time>2013-07-06T12:23:19Z</time>
      </trkpt>
      <trkpt lat="40.252433" lon="-4.887017">
        <ele>1018.0</ele>
        <time>2013-07-06T12:23:20Z</time>
      </trkpt>
      <trkpt lat="40.252417" lon="-4.886967">
        <ele>1018.0</ele>
        <time>2013-07-06T12:23:21Z</time>
      </trkpt>
      <trkpt lat="40.252417" lon="-4.886900">
        <ele>1017.0</ele>
        <time>2013-07-06T12:23:22Z</time>
      </trkpt>
      <trkpt lat="40.252417" lon="-4.886817">
        <ele>1015.0</ele>
        <time>2013-07-06T12:23:23Z</time>
      </trkpt>
      <trkpt lat="40.252433" lon="-4.886750">
        <ele>1015.0</ele>
        <time>2013-07-06T12:23:24Z</time>
      </trkpt>
      <trkpt lat="40.252450" lon="-4.886683">
        <ele>1015.0</ele>
        <time>2013-07-06T12:23:25Z</time>
      </trkpt>
      <trkpt lat="40.252467" lon="-4.886600">
        <ele>1014.0</ele>
        <time>2013-07-06T12:23:26Z</time>
      </trkpt>
      <trkpt lat="40.252467" lon="-4.886533">
        <ele>1015.0</ele>
        <time>2013-07-06T12:23:27Z</time>
      </trkpt>
      <trkpt lat="40.252467" lon="-4.886467">
        <ele>1015.0</ele>
        <time>2013-07-06T12:23:28Z</time>
      </trkpt>
      <trkpt lat="40.252450" lon="-4.886417">
        <ele>1014.0</ele>
        <time>2013-07-06T12:23:29Z</time>
      </trkpt>
      <trkpt lat="40.252450" lon="-4.886367">
        <ele>1014.0</ele>
        <time>2013-07-06T12:23:30Z</time>
      </trkpt>
      <trkpt lat="40.252450" lon="-4.886300">
        <ele>1011.0</ele>
        <time>2013-07-06T12:23:31Z</time>
      </trkpt>
      <trkpt lat="40.252450" lon="-4.886217">
        <ele>1009.0</ele>
        <time>2013-07-06T12:23:32Z</time>
      </trkpt>
      <trkpt lat="40.252433" lon="-4.886133">
        <ele>1007.0</ele>
        <time>2013-07-06T12:23:33Z</time>
      </trkpt>
      <trkpt lat="40.252417" lon="-4.886067">
        <ele>1006.0</ele>
        <time>2013-07-06T12:23:34Z</time>
      </trkpt>
      <trkpt lat="40.252417" lon="-4.886017">
        <ele>1006.0</ele>
        <time>2013-07-06T12:23:35Z</time>
      </trkpt>
      <trkpt lat="40.252400" lon="-4.885983">
        <ele>1009.0</ele>
        <time>2013-07-06T12:23:36Z</time>
      </trkpt>
      <trkpt lat="40.252383" lon="-4.885950">
        <ele>1010.0</ele>
        <time>2013-07-06T12:23:37Z</time>
      </trkpt>
      <trkpt lat="40.252383" lon="-4.885900">
        <ele>1010.0</ele>
        <time>2013-07-06T12:23:38Z</time>
      </trkpt>
      <trkpt lat="40.252383" lon="-4.885833">
        <ele>1010.0</ele>
        <time>2013-07-06T12:23:39Z</time>
      </trkpt>
      <trkpt lat="40.252400" lon="-4.885767">
        <ele>1011.0</ele>
        <time>2013-07-06T12:23:40Z</time>
      </trkpt>
      <trkpt lat="40.252400" lon="-4.885700">
        <ele>1011.0</ele>
        <time>2013-07-06T12:23:41Z</time>
      </trkpt>
      <trkpt lat="40.252400" lon="-4.885650">
        <ele>1012.0</ele>
        <time>2013-07-06T12:23:42Z</time>
      </trkpt>
      <trkpt lat="40.252383" lon="-4.885583">
        <ele>1011.0</ele>
        <time>2013-07-06T12:23:43Z</time>
      </trkpt>
      <trkpt lat="40.252367" lon="-4.885517">
        <ele>1010.0</ele>
        <time>2013-07-06T12:23:44Z</time>
      </trkpt>
      <trkpt lat="40.252333" lon="-4.885450">
        <ele>1008.0</ele>
        <time>2013-07-06T12:23:45Z</time>
      </trkpt>
      <trkpt lat="40.252300" lon="-4.885400">
        <ele>1008.0</ele>
        <time>2013-07-06T12:23:46Z</time>
      </trkpt>
      <trkpt lat="40.252267" lon="-4.885350">
        <ele>1007.0</ele>
        <time>2013-07-06T12:23:47Z</time>
      </trkpt>
      <trkpt lat="40.252233" lon="-4.885300">
        <ele>1006.0</ele>
        <time>2013-07-06T12:23:48Z</time>
      </trkpt>
      <trkpt lat="40.252183" lon="-4.885250">
        <ele>1005.0</ele>
        <time>2013-07-06T12:23:49Z</time>
      </trkpt>
      <trkpt lat="40.252133" lon="-4.885200">
        <ele>1005.0</ele>
        <time>2013-07-06T12:23:50Z</time>
      </trkpt>
      <trkpt lat="40.252100" lon="-4.885150">
        <ele>1006.0</ele>
        <time>2013-07-06T12:23:51Z</time>
      </trkpt>
      <trkpt lat="40.252067" lon="-4.885117">
        <ele>1007.0</ele>
        <time>2013-07-06T12:23:52Z</time>
      </trkpt>
      <trkpt lat="40.252033" lon="-4.885100">
        <ele>1007.0</ele>
        <time>2013-07-06T12:23:53Z</time>
      </trkpt>
      <trkpt lat="40.252000" lon="-4.885067">
        <ele>1007.0</ele>
        <time>2013-07-06T12:23:54Z</time>
      </trkpt>
      <trkpt lat="40.251950" lon="-4.885017">
        <ele>1006.0</ele>
        <time>2013-07-06T12:23:55Z</time>
      </trkpt>
      <trkpt lat="40.251917" lon="-4.884983">
        <ele>1006.0</ele>
        <time>2013-07-06T12:23:56Z</time>
      </trkpt>
      <trkpt lat="40.251867" lon="-4.884967">
        <ele>1006.0</ele>
        <time>2013-07-06T12:23:57Z</time>
      </trkpt>
      <trkpt lat="40.251833" lon="-4.884950">
        <ele>1006.0</ele>
        <time>2013-07-06T12:23:58Z</time>
      </trkpt>
      <trkpt lat="40.251783" lon="-4.884933">
        <ele>1006.0</ele>
        <time>2013-07-06T12:23:59Z</time>
      </trkpt>
      <trkpt lat="40.251733" lon="-4.884917">
        <ele>1006.0</ele>
        <time>2013-07-06T12:24:00Z</time>
      </trkpt>
      <trkpt lat="40.251683" lon="-4.884900">
        <ele>1006.0</ele>
        <time>2013-07-06T12:24:01Z</time>
      </trkpt>
      <trkpt lat="40.251633" lon="-4.884883">
        <ele>1006.0</ele>
        <time>2013-07-06T12:24:02Z</time>
      </trkpt>
      <trkpt lat="40.251583" lon="-4.884867">
        <ele>1006.0</ele>
        <time>2013-07-06T12:24:03Z</time>
      </trkpt>
      <trkpt lat="40.251550" lon="-4.884850">
        <ele>1006.0</ele>
        <time>2013-07-06T12:24:04Z</time>
      </trkpt>
      <trkpt lat="40.251500" lon="-4.884833">
        <ele>1005.0</ele>
        <time>2013-07-06T12:24:05Z</time>
      </trkpt>
      <trkpt lat="40.251450" lon="-4.884833">
        <ele>1004.0</ele>
        <time>2013-07-06T12:24:06Z</time>
      </trkpt>
      <trkpt lat="40.251400" lon="-4.884817">
        <ele>1004.0</ele>
        <time>2013-07-06T12:24:07Z</time>
      </trkpt>
      <trkpt lat="40.251350" lon="-4.884800">
        <ele>1004.0</ele>
        <time>2013-07-06T12:24:08Z</time>
      </trkpt>
      <trkpt lat="40.251317" lon="-4.884783">
        <ele>1004.0</ele>
        <time>2013-07-06T12:24:09Z</time>
      </trkpt>
      <trkpt lat="40.251267" lon="-4.884767">
        <ele>1004.0</ele>
        <time>2013-07-06T12:24:10Z</time>
      </trkpt>
      <trkpt lat="40.251217" lon="-4.884750">
        <ele>1005.0</ele>
        <time>2013-07-06T12:24:11Z</time>
      </trkpt>
      <trkpt lat="40.251167" lon="-4.884733">
        <ele>1004.0</ele>
        <time>2013-07-06T12:24:12Z</time>
      </trkpt>
      <trkpt lat="40.251100" lon="-4.884717">
        <ele>1004.0</ele>
        <time>2013-07-06T12:24:13Z</time>
      </trkpt>
      <trkpt lat="40.251050" lon="-4.884667">
        <ele>1005.0</ele>
        <time>2013-07-06T12:24:14Z</time>
      </trkpt>
      <trkpt lat="40.251000" lon="-4.884633">
        <ele>1007.0</ele>
        <time>2013-07-06T12:24:15Z</time>
      </trkpt>
      <trkpt lat="40.250950" lon="-4.884600">
        <ele>1009.0</ele>
        <time>2013-07-06T12:24:16Z</time>
      </trkpt>
      <trkpt lat="40.250917" lon="-4.884567">
        <ele>1011.0</ele>
        <time>2013-07-06T12:24:17Z</time>
      </trkpt>
      <trkpt lat="40.250883" lon="-4.884517">
        <ele>1012.0</ele>
        <time>2013-07-06T12:24:18Z</time>
      </trkpt>
      <trkpt lat="40.250850" lon="-4.884467">
        <ele>1012.0</ele>
        <time>2013-07-06T12:24:19Z</time>
      </trkpt>
      <trkpt lat="40.250817" lon="-4.884400">
        <ele>1012.0</ele>
        <time>2013-07-06T12:24:20Z</time>
      </trkpt>
      <trkpt lat="40.250783" lon="-4.884350">
        <ele>1013.0</ele>
        <time>2013-07-06T12:24:21Z</time>
      </trkpt>
      <trkpt lat="40.250767" lon="-4.884317">
        <ele>1014.0</ele>
        <time>2013-07-06T12:24:22Z</time>
      </trkpt>
      <trkpt lat="40.250733" lon="-4.884283">
        <ele>1015.0</ele>
        <time>2013-07-06T12:24:23Z</time>
      </trkpt>
      <trkpt lat="40.250700" lon="-4.884250">
        <ele>1015.0</ele>
        <time>2013-07-06T12:24:24Z</time>
      </trkpt>
      <trkpt lat="40.250633" lon="-4.884233">
        <ele>1016.0</ele>
        <time>2013-07-06T12:24:25Z</time>
      </trkpt>
      <trkpt lat="40.250567" lon="-4.884233">
        <ele>1016.0</ele>
        <time>2013-07-06T12:24:26Z</time>
      </trkpt>
      <trkpt lat="40.250500" lon="-4.884283">
        <ele>1016.0</ele>
        <time>2013-07-06T12:24:27Z</time>
      </trkpt>
      <trkpt lat="40.250433" lon="-4.884350">
        <ele>1016.0</ele>
        <time>2013-07-06T12:24:28Z</time>
      </trkpt>
      <trkpt lat="40.250383" lon="-4.884450">
        <ele>1016.0</ele>
        <time>2013-07-06T12:24:29Z</time>
      </trkpt>
      <trkpt lat="40.250333" lon="-4.884533">
        <ele>1016.0</ele>
        <time>2013-07-06T12:24:30Z</time>
      </trkpt>
      <trkpt lat="40.250267" lon="-4.884600">
        <ele>1016.0</ele>
        <time>2013-07-06T12:24:31Z</time>
      </trkpt>
      <trkpt lat="40.250200" lon="-4.884633">
        <ele>1014.0</ele>
        <time>2013-07-06T12:24:32Z</time>
      </trkpt>
      <trkpt lat="40.250117" lon="-4.884650">
        <ele>1013.0</ele>
        <time>2013-07-06T12:24:33Z</time>
      </trkpt>
      <trkpt lat="40.250033" lon="-4.884667">
        <ele>1011.0</ele>
        <time>2013-07-06T12:24:34Z</time>
      </trkpt>
      <trkpt lat="40.249950" lon="-4.884667">
        <ele>1010.0</ele>
        <time>2013-07-06T12:24:35Z</time>
      </trkpt>
      <trkpt lat="40.249883" lon="-4.884667">
        <ele>1010.0</ele>
        <time>2013-07-06T12:24:36Z</time>
      </trkpt>
      <trkpt lat="40.249817" lon="-4.884633">
        <ele>1009.0</ele>
        <time>2013-07-06T12:24:37Z</time>
      </trkpt>
      <trkpt lat="40.249783" lon="-4.884567">
        <ele>1008.0</ele>
        <time>2013-07-06T12:24:38Z</time>
      </trkpt>
      <trkpt lat="40.249767" lon="-4.884483">
        <ele>1005.0</ele>
        <time>2013-07-06T12:24:39Z</time>
      </trkpt>
      <trkpt lat="40.249767" lon="-4.884400">
        <ele>1004.0</ele>
        <time>2013-07-06T12:24:40Z</time>
      </trkpt>
      <trkpt lat="40.249800" lon="-4.884317">
        <ele>1003.0</ele>
        <time>2013-07-06T12:24:41Z</time>
      </trkpt>
      <trkpt lat="40.249850" lon="-4.884250">
        <ele>1001.0</ele>
        <time>2013-07-06T12:24:42Z</time>
      </trkpt>
      <trkpt lat="40.249933" lon="-4.884217">
        <ele>999.0</ele>
        <time>2013-07-06T12:24:43Z</time>
      </trkpt>
      <trkpt lat="40.250017" lon="-4.884183">
        <ele>998.0</ele>
        <time>2013-07-06T12:24:44Z</time>
      </trkpt>
      <trkpt lat="40.250100" lon="-4.884183">
        <ele>996.0</ele>
        <time>2013-07-06T12:24:45Z</time>
      </trkpt>
      <trkpt lat="40.250183" lon="-4.884167">
        <ele>995.0</ele>
        <time>2013-07-06T12:24:46Z</time>
      </trkpt>
      <trkpt lat="40.250267" lon="-4.884183">
        <ele>993.0</ele>
        <time>2013-07-06T12:24:47Z</time>
      </trkpt>
      <trkpt lat="40.250350" lon="-4.884183">
        <ele>991.0</ele>
        <time>2013-07-06T12:24:48Z</time>
      </trkpt>
      <trkpt lat="40.250450" lon="-4.884183">
        <ele>988.0</ele>
        <time>2013-07-06T12:24:49Z</time>
      </trkpt>
      <trkpt lat="40.250533" lon="-4.884183">
        <ele>986.0</ele>
        <time>2013-07-06T12:24:50Z</time>
      </trkpt>
      <trkpt lat="40.250633" lon="-4.884183">
        <ele>984.0</ele>
        <time>2013-07-06T12:24:51Z</time>
      </trkpt>
      <trkpt lat="40.250717" lon="-4.884200">
        <ele>983.0</ele>
        <time>2013-07-06T12:24:52Z</time>
      </trkpt>
      <trkpt lat="40.250800" lon="-4.884200">
        <ele>981.0</ele>
        <time>2013-07-06T12:24:53Z</time>
      </trkpt>
      <trkpt lat="40.250900" lon="-4.884217">
        <ele>979.0</ele>
        <time>2013-07-06T12:24:54Z</time>
      </trkpt>
      <trkpt lat="40.251017" lon="-4.884217">
        <ele>977.0</ele>
        <time>2013-07-06T12:24:55Z</time>
      </trkpt>
      <trkpt lat="40.251117" lon="-4.884233">
        <ele>976.0</ele>
        <time>2013-07-06T12:24:56Z</time>
      </trkpt>
      <trkpt lat="40.251233" lon="-4.884217">
        <ele>976.0</ele>
        <time>2013-07-06T12:24:57Z</time>
      </trkpt>
      <trkpt lat="40.251350" lon="-4.884200">
        <ele>978.0</ele>
        <time>2013-07-06T12:24:58Z</time>
      </trkpt>
      <trkpt lat="40.251450" lon="-4.884183">
        <ele>980.0</ele>
        <time>2013-07-06T12:24:59Z</time>
      </trkpt>
      <trkpt lat="40.251533" lon="-4.884183">
        <ele>981.0</ele>
        <time>2013-07-06T12:25:00Z</time>
      </trkpt>
      <trkpt lat="40.251617" lon="-4.884183">
        <ele>981.0</ele>
        <time>2013-07-06T12:25:01Z</time>
      </trkpt>
      <trkpt lat="40.251700" lon="-4.884167">
        <ele>980.0</ele>
        <time>2013-07-06T12:25:02Z</time>
      </trkpt>
      <trkpt lat="40.251783" lon="-4.884150">
        <ele>980.0</ele>
        <time>2013-07-06T12:25:03Z</time>
      </trkpt>
      <trkpt lat="40.251867" lon="-4.884117">
        <ele>978.0</ele>
        <time>2013-07-06T12:25:04Z</time>
      </trkpt>
      <trkpt lat="40.251950" lon="-4.884100">
        <ele>977.0</ele>
        <time>2013-07-06T12:25:05Z</time>
      </trkpt>
      <trkpt lat="40.252017" lon="-4.884067">
        <ele>977.0</ele>
        <time>2013-07-06T12:25:06Z</time>
      </trkpt>
      <trkpt lat="40.252067" lon="-4.884017">
        <ele>977.0</ele>
        <time>2013-07-06T12:25:07Z</time>
      </trkpt>
      <trkpt lat="40.252100" lon="-4.883967">
        <ele>977.0</ele>
        <time>2013-07-06T12:25:08Z</time>
      </trkpt>
      <trkpt lat="40.252117" lon="-4.883917">
        <ele>977.0</ele>
        <time>2013-07-06T12:25:09Z</time>
      </trkpt>
      <trkpt lat="40.252117" lon="-4.883867">
        <ele>976.0</ele>
        <time>2013-07-06T12:25:10Z</time>
      </trkpt>
      <trkpt lat="40.252083" lon="-4.883833">
        <ele>975.0</ele>
        <time>2013-07-06T12:25:11Z</time>
      </trkpt>
      <trkpt lat="40.252050" lon="-4.883817">
        <ele>974.0</ele>
        <time>2013-07-06T12:25:12Z</time>
      </trkpt>
      <trkpt lat="40.252000" lon="-4.883783">
        <ele>972.0</ele>
        <time>2013-07-06T12:25:13Z</time>
      </trkpt>
      <trkpt lat="40.251950" lon="-4.883783">
        <ele>971.0</ele>
        <time>2013-07-06T12:25:14Z</time>
      </trkpt>
      <trkpt lat="40.251883" lon="-4.883800">
        <ele>970.0</ele>
        <time>2013-07-06T12:25:15Z</time>
      </trkpt>
      <trkpt lat="40.251833" lon="-4.883817">
        <ele>968.0</ele>
        <time>2013-07-06T12:25:16Z</time>
      </trkpt>
      <trkpt lat="40.251767" lon="-4.883817">
        <ele>967.0</ele>
        <time>2013-07-06T12:25:17Z</time>
      </trkpt>
      <trkpt lat="40.251700" lon="-4.883817">
        <ele>966.0</ele>
        <time>2013-07-06T12:25:18Z</time>
      </trkpt>
      <trkpt lat="40.251650" lon="-4.883817">
        <ele>967.0</ele>
        <time>2013-07-06T12:25:19Z</time>
      </trkpt>
      <trkpt lat="40.251617" lon="-4.883817">
        <ele>969.0</ele>
        <time>2013-07-06T12:25:20Z</time>
      </trkpt>
      <trkpt lat="40.251583" lon="-4.883800">
        <ele>970.0</ele>
        <time>2013-07-06T12:25:21Z</time>
      </trkpt>
      <trkpt lat="40.251550" lon="-4.883783">
        <ele>969.0</ele>
        <time>2013-07-06T12:25:22Z</time>
      </trkpt>
      <trkpt lat="40.251517" lon="-4.883750">
        <ele>968.0</ele>
        <time>2013-07-06T12:25:23Z</time>
      </trkpt>
      <trkpt lat="40.251467" lon="-4.883717">
        <ele>965.0</ele>
        <time>2013-07-06T12:25:24Z</time>
      </trkpt>
      <trkpt lat="40.251417" lon="-4.883683">
        <ele>963.0</ele>
        <time>2013-07-06T12:25:25Z</time>
      </trkpt>
      <trkpt lat="40.251383" lon="-4.883633">
        <ele>962.0</ele>
        <time>2013-07-06T12:25:26Z</time>
      </trkpt>
      <trkpt lat="40.251367" lon="-4.883567">
        <ele>960.0</ele>
        <time>2013-07-06T12:25:27Z</time>
      </trkpt>
      <trkpt lat="40.251333" lon="-4.883500">
        <ele>958.0</ele>
        <time>2013-07-06T12:25:28Z</time>
      </trkpt>
      <trkpt lat="40.251317" lon="-4.883433">
        <ele>956.0</ele>
        <time>2013-07-06T12:25:29Z</time>
      </trkpt>
      <trkpt lat="40.251267" lon="-4.883383">
        <ele>955.0</ele>
        <time>2013-07-06T12:25:30Z</time>
      </trkpt>
      <trkpt lat="40.251217" lon="-4.883350">
        <ele>953.0</ele>
        <time>2013-07-06T12:25:31Z</time>
      </trkpt>
      <trkpt lat="40.251167" lon="-4.883317">
        <ele>951.0</ele>
        <time>2013-07-06T12:25:32Z</time>
      </trkpt>
      <trkpt lat="40.251100" lon="-4.883300">
        <ele>949.0</ele>
        <time>2013-07-06T12:25:33Z</time>
      </trkpt>
      <trkpt lat="40.251017" lon="-4.883283">
        <ele>948.0</ele>
        <time>2013-07-06T12:25:34Z</time>
      </trkpt>
      <trkpt lat="40.250933" lon="-4.883283">
        <ele>946.0</ele>
        <time>2013-07-06T12:25:35Z</time>
      </trkpt>
      <trkpt lat="40.250850" lon="-4.883300">
        <ele>945.0</ele>
        <time>2013-07-06T12:25:36Z</time>
      </trkpt>
      <trkpt lat="40.250767" lon="-4.883317">
        <ele>944.0</ele>
        <time>2013-07-06T12:25:37Z</time>
      </trkpt>
      <trkpt lat="40.250700" lon="-4.883350">
        <ele>944.0</ele>
        <time>2013-07-06T12:25:38Z</time>
      </trkpt>
      <trkpt lat="40.250617" lon="-4.883383">
        <ele>943.0</ele>
        <time>2013-07-06T12:25:39Z</time>
      </trkpt>
      <trkpt lat="40.250533" lon="-4.883417">
        <ele>943.0</ele>
        <time>2013-07-06T12:25:40Z</time>
      </trkpt>
      <trkpt lat="40.250450" lon="-4.883450">
        <ele>942.0</ele>
        <time>2013-07-06T12:25:41Z</time>
      </trkpt>
      <trkpt lat="40.250383" lon="-4.883483">
        <ele>942.0</ele>
        <time>2013-07-06T12:25:42Z</time>
      </trkpt>
      <trkpt lat="40.250300" lon="-4.883500">
        <ele>944.0</ele>
        <time>2013-07-06T12:25:43Z</time>
      </trkpt>
      <trkpt lat="40.250250" lon="-4.883517">
        <ele>945.0</ele>
        <time>2013-07-06T12:25:44Z</time>
      </trkpt>
      <trkpt lat="40.250183" lon="-4.883533">
        <ele>946.0</ele>
        <time>2013-07-06T12:25:45Z</time>
      </trkpt>
      <trkpt lat="40.250117" lon="-4.883533">
        <ele>945.0</ele>
        <time>2013-07-06T12:25:46Z</time>
      </trkpt>
      <trkpt lat="40.250033" lon="-4.883533">
        <ele>946.0</ele>
        <time>2013-07-06T12:25:47Z</time>
      </trkpt>
      <trkpt lat="40.249967" lon="-4.883517">
        <ele>946.0</ele>
        <time>2013-07-06T12:25:48Z</time>
      </trkpt>
      <trkpt lat="40.249883" lon="-4.883500">
        <ele>948.0</ele>
        <time>2013-07-06T12:25:49Z</time>
      </trkpt>
      <trkpt lat="40.249833" lon="-4.883483">
        <ele>951.0</ele>
        <time>2013-07-06T12:25:50Z</time>
      </trkpt>
      <trkpt lat="40.249767" lon="-4.883450">
        <ele>952.0</ele>
        <time>2013-07-06T12:25:51Z</time>
      </trkpt>
      <trkpt lat="40.249717" lon="-4.883400">
        <ele>951.0</ele>
        <time>2013-07-06T12:25:52Z</time>
      </trkpt>
      <trkpt lat="40.249650" lon="-4.883350">
        <ele>951.0</ele>
        <time>2013-07-06T12:25:53Z</time>
      </trkpt>
      <trkpt lat="40.249583" lon="-4.883300">
        <ele>952.0</ele>
        <time>2013-07-06T12:25:54Z</time>
      </trkpt>
      <trkpt lat="40.249533" lon="-4.883267">
        <ele>954.0</ele>
        <time>2013-07-06T12:25:55Z</time>
      </trkpt>
      <trkpt lat="40.249483" lon="-4.883233">
        <ele>956.0</ele>
        <time>2013-07-06T12:25:56Z</time>
      </trkpt>
      <trkpt lat="40.249450" lon="-4.883183">
        <ele>957.0</ele>
        <time>2013-07-06T12:25:57Z</time>
      </trkpt>
      <trkpt lat="40.249400" lon="-4.883133">
        <ele>958.0</ele>
        <time>2013-07-06T12:25:58Z</time>
      </trkpt>
      <trkpt lat="40.249350" lon="-4.883100">
        <ele>958.0</ele>
        <time>2013-07-06T12:25:59Z</time>
      </trkpt>
      <trkpt lat="40.249300" lon="-4.883083">
        <ele>959.0</ele>
        <time>2013-07-06T12:26:00Z</time>
      </trkpt>
      <trkpt lat="40.249217" lon="-4.883083">
        <ele>959.0</ele>
        <time>2013-07-06T12:26:01Z</time>
      </trkpt>
      <trkpt lat="40.249150" lon="-4.883133">
        <ele>959.0</ele>
        <time>2013-07-06T12:26:02Z</time>
      </trkpt>
      <trkpt lat="40.249067" lon="-4.883183">
        <ele>959.0</ele>
        <time>2013-07-06T12:26:03Z</time>
      </trkpt>
      <trkpt lat="40.248983" lon="-4.883267">
        <ele>959.0</ele>
        <time>2013-07-06T12:26:04Z</time>
      </trkpt>
      <trkpt lat="40.248917" lon="-4.883333">
        <ele>959.0</ele>
        <time>2013-07-06T12:26:05Z</time>
      </trkpt>
      <trkpt lat="40.248833" lon="-4.883417">
        <ele>958.0</ele>
        <time>2013-07-06T12:26:06Z</time>
      </trkpt>
      <trkpt lat="40.248767" lon="-4.883483">
        <ele>959.0</ele>
        <time>2013-07-06T12:26:07Z</time>
      </trkpt>
      <trkpt lat="40.248683" lon="-4.883533">
        <ele>960.0</ele>
        <time>2013-07-06T12:26:08Z</time>
      </trkpt>
      <trkpt lat="40.248617" lon="-4.883550">
        <ele>960.0</ele>
        <time>2013-07-06T12:26:09Z</time>
      </trkpt>
      <trkpt lat="40.248533" lon="-4.883533">
        <ele>961.0</ele>
        <time>2013-07-06T12:26:10Z</time>
      </trkpt>
      <trkpt lat="40.248450" lon="-4.883517">
        <ele>964.0</ele>
        <time>2013-07-06T12:26:11Z</time>
      </trkpt>
      <trkpt lat="40.248400" lon="-4.883467">
        <ele>966.0</ele>
        <time>2013-07-06T12:26:12Z</time>
      </trkpt>
      <trkpt lat="40.248350" lon="-4.883433">
        <ele>970.0</ele>
        <time>2013-07-06T12:26:13Z</time>
      </trkpt>
      <trkpt lat="40.248317" lon="-4.883367">
        <ele>972.0</ele>
        <time>2013-07-06T12:26:14Z</time>
      </trkpt>
      <trkpt lat="40.248283" lon="-4.883300">
        <ele>973.0</ele>
        <time>2013-07-06T12:26:15Z</time>
      </trkpt>
      <trkpt lat="40.248250" lon="-4.883250">
        <ele>974.0</ele>
        <time>2013-07-06T12:26:16Z</time>
      </trkpt>
      <trkpt lat="40.248183" lon="-4.883233">
        <ele>975.0</ele>
        <time>2013-07-06T12:26:17Z</time>
      </trkpt>
      <trkpt lat="40.248100" lon="-4.883267">
        <ele>976.0</ele>
        <time>2013-07-06T12:26:18Z</time>
      </trkpt>
      <trkpt lat="40.248033" lon="-4.883367">
        <ele>977.0</ele>
        <time>2013-07-06T12:26:19Z</time>
      </trkpt>
      <trkpt lat="40.248000" lon="-4.883483">
        <ele>979.0</ele>
        <time>2013-07-06T12:26:20Z</time>
      </trkpt>
      <trkpt lat="40.247983" lon="-4.883600">
        <ele>980.0</ele>
        <time>2013-07-06T12:26:21Z</time>
      </trkpt>
      <trkpt lat="40.248000" lon="-4.883733">
        <ele>982.0</ele>
        <time>2013-07-06T12:26:22Z</time>
      </trkpt>
      <trkpt lat="40.248033" lon="-4.883850">
        <ele>983.0</ele>
        <time>2013-07-06T12:26:23Z</time>
      </trkpt>
      <trkpt lat="40.248100" lon="-4.883967">
        <ele>983.0</ele>
        <time>2013-07-06T12:26:24Z</time>
      </trkpt>
      <trkpt lat="40.248167" lon="-4.884067">
        <ele>983.0</ele>
        <time>2013-07-06T12:26:25Z</time>
      </trkpt>
      <trkpt lat="40.248250" lon="-4.884133">
        <ele>983.0</ele>
        <time>2013-07-06T12:26:26Z</time>
      </trkpt>
      <trkpt lat="40.248350" lon="-4.884183">
        <ele>985.0</ele>
        <time>2013-07-06T12:26:27Z</time>
      </trkpt>
      <trkpt lat="40.248433" lon="-4.884200">
        <ele>986.0</ele>
        <time>2013-07-06T12:26:28Z</time>
      </trkpt>
      <trkpt lat="40.248517" lon="-4.884200">
        <ele>990.0</ele>
        <time>2013-07-06T12:26:29Z</time>
      </trkpt>
      <trkpt lat="40.248583" lon="-4.884200">
        <ele>993.0</ele>
        <time>2013-07-06T12:26:30Z</time>
      </trkpt>
      <trkpt lat="40.248633" lon="-4.884200">
        <ele>996.0</ele>
        <time>2013-07-06T12:26:31Z</time>
      </trkpt>
      <trkpt lat="40.248700" lon="-4.884183">
        <ele>999.0</ele>
        <time>2013-07-06T12:26:32Z</time>
      </trkpt>
      <trkpt lat="40.248750" lon="-4.884167">
        <ele>1001.0</ele>
        <time>2013-07-06T12:26:33Z</time>
      </trkpt>
      <trkpt lat="40.248800" lon="-4.884117">
        <ele>1002.0</ele>
        <time>2013-07-06T12:26:34Z</time>
      </trkpt>
      <trkpt lat="40.248850" lon="-4.884050">
        <ele>1002.0</ele>
        <time>2013-07-06T12:26:35Z</time>
      </trkpt>
      <trkpt lat="40.248883" lon="-4.883967">
        <ele>1003.0</ele>
        <time>2013-07-06T12:26:36Z</time>
      </trkpt>
      <trkpt lat="40.248900" lon="-4.883883">
        <ele>1004.0</ele>
        <time>2013-07-06T12:26:37Z</time>
      </trkpt>
      <trkpt lat="40.248917" lon="-4.883817">
        <ele>1006.0</ele>
        <time>2013-07-06T12:26:38Z</time>
      </trkpt>
      <trkpt lat="40.248933" lon="-4.883750">
        <ele>1008.0</ele>
        <time>2013-07-06T12:26:39Z</time>
      </trkpt>
      <trkpt lat="40.248917" lon="-4.883700">
        <ele>1010.0</ele>
        <time>2013-07-06T12:26:40Z</time>
      </trkpt>
      <trkpt lat="40.248917" lon="-4.883667">
        <ele>1013.0</ele>
        <time>2013-07-06T12:26:41Z</time>
      </trkpt>
      <trkpt lat="40.248883" lon="-4.883617">
        <ele>1013.0</ele>
        <time>2013-07-06T12:26:42Z</time>
      </trkpt>
      <trkpt lat="40.248817" lon="-4.883567">
        <ele>1014.0</ele>
        <time>2013-07-06T12:26:43Z</time>
      </trkpt>
      <trkpt lat="40.248717" lon="-4.883567">
        <ele>1015.0</ele>
        <time>2013-07-06T12:26:44Z</time>
      </trkpt>
      <trkpt lat="40.248633" lon="-4.883600">
        <ele>1017.0</ele>
        <time>2013-07-06T12:26:45Z</time>
      </trkpt>
      <trkpt lat="40.248567" lon="-4.883667">
        <ele>1020.0</ele>
        <time>2013-07-06T12:26:46Z</time>
      </trkpt>
      <trkpt lat="40.248533" lon="-4.883700">
        <ele>1024.0</ele>
        <time>2013-07-06T12:26:47Z</time>
      </trkpt>
      <trkpt lat="40.248500" lon="-4.883733">
        <ele>1028.0</ele>
        <time>2013-07-06T12:26:48Z</time>
      </trkpt>
      <trkpt lat="40.248450" lon="-4.883750">
        <ele>1030.0</ele>
        <time>2013-07-06T12:26:49Z</time>
      </trkpt>
      <trkpt lat="40.248367" lon="-4.883767">
        <ele>1032.0</ele>
        <time>2013-07-06T12:26:50Z</time>
      </trkpt>
      <trkpt lat="40.248267" lon="-4.883783">
        <ele>1034.0</ele>
        <time>2013-07-06T12:26:51Z</time>
      </trkpt>
      <trkpt lat="40.248167" lon="-4.883833">
        <ele>1037.0</ele>
        <time>2013-07-06T12:26:52Z</time>
      </trkpt>
      <trkpt lat="40.248100" lon="-4.883883">
        <ele>1040.0</ele>
        <time>2013-07-06T12:26:53Z</time>
      </trkpt>
      <trkpt lat="40.248033" lon="-4.883933">
        <ele>1046.0</ele>
        <time>2013-07-06T12:26:54Z</time>
      </trkpt>
      <trkpt lat="40.247983" lon="-4.883967">
        <ele>1050.0</ele>
        <time>2013-07-06T12:26:55Z</time>
      </trkpt>
      <trkpt lat="40.247933" lon="-4.883967">
        <ele>1052.0</ele>
        <time>2013-07-06T12:26:56Z</time>
      </trkpt>
      <trkpt lat="40.247867" lon="-4.883967">
        <ele>1053.0</ele>
        <time>2013-07-06T12:26:57Z</time>
      </trkpt>
      <trkpt lat="40.247783" lon="-4.883983">
        <ele>1054.0</ele>
        <time>2013-07-06T12:26:58Z</time>
      </trkpt>
      <trkpt lat="40.247717" lon="-4.884067">
        <ele>1056.0</ele>
        <time>2013-07-06T12:26:59Z</time>
      </trkpt>
      <trkpt lat="40.247683" lon="-4.884200">
        <ele>1055.0</ele>
        <time>2013-07-06T12:27:00Z</time>
      </trkpt>
      <trkpt lat="40.247683" lon="-4.884350">
        <ele>1053.0</ele>
        <time>2013-07-06T12:27:01Z</time>
      </trkpt>
      <trkpt lat="40.247717" lon="-4.884500">
        <ele>1054.0</ele>
        <time>2013-07-06T12:27:02Z</time>
      </trkpt>
      <trkpt lat="40.247783" lon="-4.884600">
        <ele>1056.0</ele>
        <time>2013-07-06T12:27:03Z</time>
      </trkpt>
      <trkpt lat="40.247850" lon="-4.884683">
        <ele>1058.0</ele>
        <time>2013-07-06T12:27:04Z</time>
      </trkpt>
      <trkpt lat="40.247917" lon="-4.884750">
        <ele>1060.0</ele>
        <time>2013-07-06T12:27:05Z</time>
      </trkpt>
      <trkpt lat="40.248000" lon="-4.884800">
        <ele>1061.0</ele>
        <time>2013-07-06T12:27:06Z</time>
      </trkpt>
      <trkpt lat="40.248083" lon="-4.884850">
        <ele>1063.0</ele>
        <time>2013-07-06T12:27:07Z</time>
      </trkpt>
      <trkpt lat="40.248167" lon="-4.884867">
        <ele>1065.0</ele>
        <time>2013-07-06T12:27:08Z</time>
      </trkpt>
      <trkpt lat="40.248250" lon="-4.884867">
        <ele>1067.0</ele>
        <time>2013-07-06T12:27:09Z</time>
      </trkpt>
      <trkpt lat="40.248317" lon="-4.884850">
        <ele>1070.0</ele>
        <time>2013-07-06T12:27:10Z</time>
      </trkpt>
      <trkpt lat="40.248383" lon="-4.884833">
        <ele>1073.0</ele>
        <time>2013-07-06T12:27:11Z</time>
      </trkpt>
      <trkpt lat="40.248450" lon="-4.884833">
        <ele>1076.0</ele>
        <time>2013-07-06T12:27:12Z</time>
      </trkpt>
      <trkpt lat="40.248500" lon="-4.884817">
        <ele>1080.0</ele>
        <time>2013-07-06T12:27:13Z</time>
      </trkpt>
      <trkpt lat="40.248583" lon="-4.884800">
        <ele>1082.0</ele>
        <time>2013-07-06T12:27:14Z</time>
      </trkpt>
      <trkpt lat="40.248650" lon="-4.884783">
        <ele>1085.0</ele>
        <time>2013-07-06T12:27:15Z</time>
      </trkpt>
      <trkpt lat="40.248700" lon="-4.884767">
        <ele>1088.0</ele>
        <time>2013-07-06T12:27:16Z</time>
      </trkpt>
      <trkpt lat="40.248750" lon="-4.884750">
        <ele>1091.0</ele>
        <time>2013-07-06T12:27:17Z</time>
      </trkpt>
      <trkpt lat="40.248783" lon="-4.884700">
        <ele>1094.0</ele>
        <time>2013-07-06T12:27:18Z</time>
      </trkpt>
      <trkpt lat="40.248783" lon="-4.884617">
        <ele>1096.0</ele>
        <time>2013-07-06T12:27:19Z</time>
      </trkpt>
      <trkpt lat="40.248767" lon="-4.884550">
        <ele>1097.0</ele>
        <time>2013-07-06T12:27:20Z</time>
      </trkpt>
      <trkpt lat="40.248733" lon="-4.884483">
        <ele>1099.0</ele>
        <time>2013-07-06T12:27:21Z</time>
      </trkpt>
      <trkpt lat="40.248700" lon="-4.884433">
        <ele>1101.0</ele>
        <time>2013-07-06T12:27:22Z</time>
      </trkpt>
      <trkpt lat="40.248650" lon="-4.884383">
        <ele>1103.0</ele>
        <time>2013-07-06T12:27:23Z</time>
      </trkpt>
      <trkpt lat="40.248600" lon="-4.884350">
        <ele>1104.0</ele>
        <time>2013-07-06T12:27:24Z</time>
      </trkpt>
      <trkpt lat="40.248533" lon="-4.884350">
        <ele>1106.0</ele>
        <time>2013-07-06T12:27:25Z</time>
      </trkpt>
      <trkpt lat="40.248483" lon="-4.884333">
        <ele>1107.0</ele>
        <time>2013-07-06T12:27:26Z</time>
      </trkpt>
      <trkpt lat="40.248433" lon="-4.884317">
        <ele>1106.0</ele>
        <time>2013-07-06T12:27:27Z</time>
      </trkpt>
      <trkpt lat="40.248400" lon="-4.884233">
        <ele>1105.0</ele>
        <time>2013-07-06T12:27:28Z</time>
      </trkpt>
      <trkpt lat="40.248400" lon="-4.884133">
        <ele>1104.0</ele>
        <time>2013-07-06T12:27:29Z</time>
      </trkpt>
      <trkpt lat="40.248417" lon="-4.884050">
        <ele>1104.0</ele>
        <time>2013-07-06T12:27:30Z</time>
      </trkpt>
      <trkpt lat="40.248450" lon="-4.884000">
        <ele>1106.0</ele>
        <time>2013-07-06T12:27:31Z</time>
      </trkpt>
      <trkpt lat="40.248450" lon="-4.883983">
        <ele>1108.0</ele>
        <time>2013-07-06T12:27:32Z</time>
      </trkpt>
      <trkpt lat="40.248433" lon="-4.883967">
        <ele>1109.0</ele>
        <time>2013-07-06T12:27:33Z</time>
      </trkpt>
      <trkpt lat="40.248417" lon="-4.883950">
        <ele>1109.0</ele>
        <time>2013-07-06T12:27:34Z</time>
      </trkpt>
      <trkpt lat="40.248383" lon="-4.883883">
        <ele>1107.0</ele>
        <time>2013-07-06T12:27:35Z</time>
      </trkpt>
      <trkpt lat="40.248333" lon="-4.883833">
        <ele>1106.0</ele>
        <time>2013-07-06T12:27:36Z</time>
      </trkpt>
      <trkpt lat="40.248267" lon="-4.883800">
        <ele>1106.0</ele>
        <time>2013-07-06T12:27:37Z</time>
      </trkpt>
      <trkpt lat="40.248200" lon="-4.883833">
        <ele>1106.0</ele>
        <time>2013-07-06T12:27:38Z</time>
      </trkpt>
      <trkpt lat="40.248133" lon="-4.883900">
        <ele>1105.0</ele>
        <time>2013-07-06T12:27:39Z</time>
      </trkpt>
      <trkpt lat="40.248067" lon="-4.883983">
        <ele>1105.0</ele>
        <time>2013-07-06T12:27:40Z</time>
      </trkpt>
      <trkpt lat="40.248000" lon="-4.884100">
        <ele>1104.0</ele>
        <time>2013-07-06T12:27:41Z</time>
      </trkpt>
      <trkpt lat="40.247917" lon="-4.884233">
        <ele>1106.0</ele>
        <time>2013-07-06T12:27:42Z</time>
      </trkpt>
      <trkpt lat="40.247833" lon="-4.884333">
        <ele>1108.0</ele>
        <time>2013-07-06T12:27:43Z</time>
      </trkpt>
      <trkpt lat="40.247783" lon="-4.884383">
        <ele>1111.0</ele>
        <time>2013-07-06T12:27:44Z</time>
      </trkpt>
      <trkpt lat="40.247733" lon="-4.884433">
        <ele>1115.0</ele>
        <time>2013-07-06T12:27:45Z</time>
      </trkpt>
      <trkpt lat="40.247683" lon="-4.884483">
        <ele>1118.0</ele>
        <time>2013-07-06T12:27:46Z</time>
      </trkpt>
      <trkpt lat="40.247633" lon="-4.884533">
        <ele>1120.0</ele>
        <time>2013-07-06T12:27:47Z</time>
      </trkpt>
      <trkpt lat="40.247567" lon="-4.884617">
        <ele>1120.0</ele>
        <time>2013-07-06T12:27:48Z</time>
      </trkpt>
      <trkpt lat="40.247483" lon="-4.884717">
        <ele>1122.0</ele>
        <time>2013-07-06T12:27:49Z</time>
      </trkpt>
      <trkpt lat="40.247400" lon="-4.884783">
        <ele>1124.0</ele>
        <time>2013-07-06T12:27:50Z</time>
      </trkpt>
      <trkpt lat="40.247333" lon="-4.884833">
        <ele>1127.0</ele>
        <time>2013-07-06T12:27:51Z</time>
      </trkpt>
      <trkpt lat="40.247267" lon="-4.884883">
        <ele>1129.0</ele>
        <time>2013-07-06T12:27:52Z</time>
      </trkpt>
      <trkpt lat="40.247200" lon="-4.884917">
        <ele>1132.0</ele>
        <time>2013-07-06T12:27:53Z</time>
      </trkpt>
      <trkpt lat="40.247133" lon="-4.884967">
        <ele>1134.0</ele>
        <time>2013-07-06T12:27:54Z</time>
      </trkpt>
      <trkpt lat="40.247033" lon="-4.885050">
        <ele>1135.0</ele>
        <time>2013-07-06T12:27:55Z</time>
      </trkpt>
      <trkpt lat="40.246950" lon="-4.885167">
        <ele>1137.0</ele>
        <time>2013-07-06T12:27:56Z</time>
      </trkpt>
      <trkpt lat="40.246917" lon="-4.885333">
        <ele>1138.0</ele>
        <time>2013-07-06T12:27:57Z</time>
      </trkpt>
      <trkpt lat="40.246917" lon="-4.885483">
        <ele>1139.0</ele>
        <time>2013-07-06T12:27:58Z</time>
      </trkpt>
      <trkpt lat="40.246967" lon="-4.885617">
        <ele>1139.0</ele>
        <time>2013-07-06T12:27:59Z</time>
      </trkpt>
      <trkpt lat="40.247017" lon="-4.885733">
        <ele>1141.0</ele>
        <time>2013-07-06T12:28:00Z</time>
      </trkpt>
      <trkpt lat="40.247067" lon="-4.885817">
        <ele>1143.0</ele>
        <time>2013-07-06T12:28:01Z</time>
      </trkpt>
      <trkpt lat="40.247133" lon="-4.885883">
        <ele>1145.0</ele>
        <time>2013-07-06T12:28:02Z</time>
      </trkpt>
      <trkpt lat="40.247200" lon="-4.885933">
        <ele>1147.0</ele>
        <time>2013-07-06T12:28:03Z</time>
      </trkpt>
      <trkpt lat="40.247300" lon="-4.885950">
        <ele>1146.0</ele>
        <time>2013-07-06T12:28:04Z</time>
      </trkpt>
      <trkpt lat="40.247383" lon="-4.885933">
        <ele>1147.0</ele>
        <time>2013-07-06T12:28:05Z</time>
      </trkpt>
      <trkpt lat="40.247467" lon="-4.885900">
        <ele>1147.0</ele>
        <time>2013-07-06T12:28:06Z</time>
      </trkpt>
      <trkpt lat="40.247517" lon="-4.885850">
        <ele>1149.0</ele>
        <time>2013-07-06T12:28:07Z</time>
      </trkpt>
      <trkpt lat="40.247583" lon="-4.885817">
        <ele>1150.0</ele>
        <time>2013-07-06T12:28:08Z</time>
      </trkpt>
      <trkpt lat="40.247633" lon="-4.885750">
        <ele>1151.0</ele>
        <time>2013-07-06T12:28:09Z</time>
      </trkpt>
      <trkpt lat="40.247700" lon="-4.885700">
        <ele>1152.0</ele>
        <time>2013-07-06T12:28:10Z</time>
      </trkpt>
      <trkpt lat="40.247750" lon="-4.885633">
        <ele>1154.0</ele>
        <time>2013-07-06T12:28:11Z</time>
      </trkpt>
      <trkpt lat="40.247783" lon="-4.885567">
        <ele>1157.0</ele>
        <time>2013-07-06T12:28:12Z</time>
      </trkpt>
      <trkpt lat="40.247800" lon="-4.885500">
        <ele>1160.0</ele>
        <time>2013-07-06T12:28:13Z</time>
      </trkpt>
      <trkpt lat="40.247817" lon="-4.885417">
        <ele>1162.0</ele>
        <time>2013-07-06T12:28:14Z</time>
      </trkpt>
      <trkpt lat="40.247817" lon="-4.885317">
        <ele>1164.0</ele>
        <time>2013-07-06T12:28:15Z</time>
      </trkpt>
      <trkpt lat="40.247783" lon="-4.885233">
        <ele>1166.0</ele>
        <time>2013-07-06T12:28:16Z</time>
      </trkpt>
      <trkpt lat="40.247750" lon="-4.885133">
        <ele>1169.0</ele>
        <time>2013-07-06T12:28:17Z</time>
      </trkpt>
      <trkpt lat="40.247700" lon="-4.885067">
        <ele>1172.0</ele>
        <time>2013-07-06T12:28:18Z</time>
      </trkpt>
      <trkpt lat="40.247633" lon="-4.885000">
        <ele>1174.0</ele>
        <time>2013-07-06T12:28:19Z</time>
      </trkpt>
      <trkpt lat="40.247567" lon="-4.884950">
        <ele>1177.0</ele>
        <time>2013-07-06T12:28:20Z</time>
      </trkpt>
      <trkpt lat="40.247500" lon="-4.884917">
        <ele>1179.0</ele>
        <time>2013-07-06T12:28:21Z</time>
      </trkpt>
      <trkpt lat="40.247433" lon="-4.884900">
        <ele>1180.0</ele>
        <time>2013-07-06T12:28:22Z</time>
      </trkpt>
      <trkpt lat="40.247350" lon="-4.884900">
        <ele>1181.0</ele>
        <time>2013-07-06T12:28:23Z</time>
      </trkpt>
      <trkpt lat="40.247267" lon="-4.884900">
        <ele>1181.0</ele>
        <time>2013-07-06T12:28:24Z</time>
      </trkpt>
      <trkpt lat="40.247183" lon="-4.884917">
        <ele>1181.0</ele>
        <time>2013-07-06T12:28:25Z</time>
      </trkpt>
      <trkpt lat="40.247100" lon="-4.884933">
        <ele>1182.0</ele>
        <time>2013-07-06T12:28:26Z</time>
      </trkpt>
      <trkpt lat="40.247017" lon="-4.884983">
        <ele>1183.0</ele>
        <time>2013-07-06T12:28:27Z</time>
      </trkpt>
      <trkpt lat="40.246950" lon="-4.885067">
        <ele>1183.0</ele>
        <time>2013-07-06T12:28:28Z</time>
      </trkpt>
      <trkpt lat="40.246883" lon="-4.885167">
        <ele>1183.0</ele>
        <time>2013-07-06T12:28:29Z</time>
      </trkpt>
      <trkpt lat="40.246817" lon="-4.885267">
        <ele>1182.0</ele>
        <time>2013-07-06T12:28:30Z</time>
      </trkpt>
      <trkpt lat="40.246733" lon="-4.885333">
        <ele>1182.0</ele>
        <time>2013-07-06T12:28:31Z</time>
      </trkpt>
      <trkpt lat="40.246650" lon="-4.885367">
        <ele>1181.0</ele>
        <time>2013-07-06T12:28:32Z</time>
      </trkpt>
      <trkpt lat="40.246567" lon="-4.885383">
        <ele>1180.0</ele>
        <time>2013-07-06T12:28:33Z</time>
      </trkpt>
      <trkpt lat="40.246483" lon="-4.885383">
        <ele>1179.0</ele>
        <time>2013-07-06T12:28:34Z</time>
      </trkpt>
      <trkpt lat="40.246417" lon="-4.885367">
        <ele>1177.0</ele>
        <time>2013-07-06T12:28:35Z</time>
      </trkpt>
      <trkpt lat="40.246383" lon="-4.885333">
        <ele>1176.0</ele>
        <time>2013-07-06T12:28:36Z</time>
      </trkpt>
      <trkpt lat="40.246367" lon="-4.885283">
        <ele>1174.0</ele>
        <time>2013-07-06T12:28:37Z</time>
      </trkpt>
      <trkpt lat="40.246383" lon="-4.885217">
        <ele>1171.0</ele>
        <time>2013-07-06T12:28:38Z</time>
      </trkpt>
      <trkpt lat="40.246417" lon="-4.885167">
        <ele>1168.0</ele>
        <time>2013-07-06T12:28:39Z</time>
      </trkpt>
      <trkpt lat="40.246483" lon="-4.885117">
        <ele>1165.0</ele>
        <time>2013-07-06T12:28:40Z</time>
      </trkpt>
      <trkpt lat="40.246550" lon="-4.885117">
        <ele>1163.0</ele>
        <time>2013-07-06T12:28:41Z</time>
      </trkpt>
      <trkpt lat="40.246617" lon="-4.885117">
        <ele>1160.0</ele>
        <time>2013-07-06T12:28:42Z</time>
      </trkpt>
      <trkpt lat="40.246683" lon="-4.885133">
        <ele>1157.0</ele>
        <time>2013-07-06T12:28:43Z</time>
      </trkpt>
      <trkpt lat="40.246767" lon="-4.885150">
        <ele>1155.0</ele>
        <time>2013-07-06T12:28:44Z</time>
      </trkpt>
      <trkpt lat="40.246833" lon="-4.885167">
        <ele>1154.0</ele>
        <time>2013-07-06T12:28:45Z</time>
      </trkpt>
      <trkpt lat="40.246917" lon="-4.885200">
        <ele>1154.0</ele>
        <time>2013-07-06T12:28:46Z</time>
      </trkpt>
      <trkpt lat="40.246983" lon="-4.885250">
        <ele>1154.0</ele>
        <time>2013-07-06T12:28:47Z</time>
      </trkpt>
      <trkpt lat="40.247050" lon="-4.885300">
        <ele>1154.0</ele>
        <time>2013-07-06T12:28:48Z</time>
      </trkpt>
      <trkpt lat="40.247117" lon="-4.885367">
        <ele>1154.0</ele>
        <time>2013-07-06T12:28:49Z</time>
      </trkpt>
      <trkpt lat="40.247200" lon="-4.885433">
        <ele>1153.0</ele>
        <time>2013-07-06T12:28:50Z</time>
      </trkpt>
      <trkpt lat="40.247283" lon="-4.885517">
        <ele>1153.0</ele>
        <time>2013-07-06T12:28:51Z</time>
      </trkpt>
      <trkpt lat="40.247367" lon="-4.885583">
        <ele>1153.0</ele>
        <time>2013-07-06T12:28:52Z</time>
      </trkpt>
      <trkpt lat="40.247450" lon="-4.885633">
        <ele>1153.0</ele>
        <time>2013-07-06T12:28:53Z</time>
      </trkpt>
      <trkpt lat="40.247517" lon="-4.885667">
        <ele>1154.0</ele>
        <time>2013-07-06T12:28:54Z</time>
      </trkpt>
      <trkpt lat="40.247567" lon="-4.885717">
        <ele>1154.0</ele>
        <time>2013-07-06T12:28:55Z</time>
      </trkpt>
      <trkpt lat="40.247633" lon="-4.885783">
        <ele>1154.0</ele>
        <time>2013-07-06T12:28:56Z</time>
      </trkpt>
      <trkpt lat="40.247683" lon="-4.885867">
        <ele>1153.0</ele>
        <time>2013-07-06T12:28:57Z</time>
      </trkpt>
      <trkpt lat="40.247750" lon="-4.885950">
        <ele>1152.0</ele>
        <time>2013-07-06T12:28:58Z</time>
      </trkpt>
      <trkpt lat="40.247800" lon="-4.886033">
        <ele>1152.0</ele>
        <time>2013-07-06T12:28:59Z</time>
      </trkpt>
      <trkpt lat="40.247850" lon="-4.886100">
        <ele>1152.0</ele>
        <time>2013-07-06T12:29:00Z</time>
      </trkpt>
      <trkpt lat="40.247900" lon="-4.886167">
        <ele>1151.0</ele>
        <time>2013-07-06T12:29:01Z</time>
      </trkpt>
      <trkpt lat="40.247967" lon="-4.886217">
        <ele>1151.0</ele>
        <time>2013-07-06T12:29:02Z</time>
      </trkpt>
      <trkpt lat="40.248017" lon="-4.886283">
        <ele>1150.0</ele>
        <time>2013-07-06T12:29:03Z</time>
      </trkpt>
      <trkpt lat="40.248083" lon="-4.886333">
        <ele>1148.0</ele>
        <time>2013-07-06T12:29:04Z</time>
      </trkpt>
      <trkpt lat="40.248150" lon="-4.886367">
        <ele>1147.0</ele>
        <time>2013-07-06T12:29:05Z</time>
      </trkpt>
      <trkpt lat="40.248200" lon="-4.886383">
        <ele>1147.0</ele>
        <time>2013-07-06T12:29:06Z</time>
      </trkpt>
      <trkpt lat="40.248250" lon="-4.886383">
        <ele>1148.0</ele>
        <time>2013-07-06T12:29:07Z</time>
      </trkpt>
      <trkpt lat="40.248300" lon="-4.886400">
        <ele>1148.0</ele>
        <time>2013-07-06T12:29:08Z</time>
      </trkpt>
      <trkpt lat="40.248333" lon="-4.886400">
        <ele>1149.0</ele>
        <time>2013-07-06T12:29:09Z</time>
      </trkpt>
      <trkpt lat="40.248367" lon="-4.886400">
        <ele>1150.0</ele>
        <time>2013-07-06T12:29:10Z</time>
      </trkpt>
      <trkpt lat="40.248417" lon="-4.886383">
        <ele>1149.0</ele>
        <time>2013-07-06T12:29:11Z</time>
      </trkpt>
      <trkpt lat="40.248483" lon="-4.886383">
        <ele>1148.0</ele>
        <time>2013-07-06T12:29:12Z</time>
      </trkpt>
      <trkpt lat="40.248550" lon="-4.886383">
        <ele>1147.0</ele>
        <time>2013-07-06T12:29:13Z</time>
      </trkpt>
      <trkpt lat="40.248600" lon="-4.886383">
        <ele>1147.0</ele>
        <time>2013-07-06T12:29:14Z</time>
      </trkpt>
      <trkpt lat="40.248650" lon="-4.886383">
        <ele>1147.0</ele>
        <time>2013-07-06T12:29:15Z</time>
      </trkpt>
      <trkpt lat="40.248683" lon="-4.886367">
        <ele>1147.0</ele>
        <time>2013-07-06T12:29:16Z</time>
      </trkpt>
      <trkpt lat="40.248733" lon="-4.886350">
        <ele>1146.0</ele>
        <time>2013-07-06T12:29:17Z</time>
      </trkpt>
      <trkpt lat="40.248783" lon="-4.886317">
        <ele>1144.0</ele>
        <time>2013-07-06T12:29:18Z</time>
      </trkpt>
      <trkpt lat="40.248817" lon="-4.886267">
        <ele>1142.0</ele>
        <time>2013-07-06T12:29:19Z</time>
      </trkpt>
      <trkpt lat="40.248833" lon="-4.886200">
        <ele>1141.0</ele>
        <time>2013-07-06T12:29:20Z</time>
      </trkpt>
      <trkpt lat="40.248833" lon="-4.886117">
        <ele>1139.0</ele>
        <time>2013-07-06T12:29:21Z</time>
      </trkpt>
      <trkpt lat="40.248800" lon="-4.886033">
        <ele>1138.0</ele>
        <time>2013-07-06T12:29:22Z</time>
      </trkpt>
      <trkpt lat="40.248733" lon="-4.885950">
        <ele>1137.0</ele>
        <time>2013-07-06T12:29:23Z</time>
      </trkpt>
      <trkpt lat="40.248667" lon="-4.885867">
        <ele>1137.0</ele>
        <time>2013-07-06T12:29:24Z</time>
      </trkpt>
      <trkpt lat="40.248583" lon="-4.885817">
        <ele>1137.0</ele>
        <time>2013-07-06T12:29:25Z</time>
      </trkpt>
      <trkpt lat="40.248533" lon="-4.885767">
        <ele>1137.0</ele>
        <time>2013-07-06T12:29:26Z</time>
      </trkpt>
      <trkpt lat="40.248450" lon="-4.885733">
        <ele>1137.0</ele>
        <time>2013-07-06T12:29:27Z</time>
      </trkpt>
      <trkpt lat="40.248383" lon="-4.885700">
        <ele>1136.0</ele>
        <time>2013-07-06T12:29:28Z</time>
      </trkpt>
      <trkpt lat="40.248283" lon="-4.885667">
        <ele>1134.0</ele>
        <time>2013-07-06T12:29:29Z</time>
      </trkpt>
      <trkpt lat="40.248183" lon="-4.885650">
        <ele>1133.0</ele>
        <time>2013-07-06T12:29:30Z</time>
      </trkpt>
      <trkpt lat="40.248083" lon="-4.885667">
        <ele>1132.0</ele>
        <time>2013-07-06T12:29:31Z</time>
      </trkpt>
      <trkpt lat="40.248000" lon="-4.885683">
        <ele>1132.0</ele>
        <time>2013-07-06T12:29:32Z</time>
      </trkpt>
      <trkpt lat="40.247917" lon="-4.885700">
        <ele>1132.0</ele>
        <time>2013-07-06T12:29:33Z</time>
      </trkpt>
      <trkpt lat="40.247833" lon="-4.885733">
        <ele>1132.0</ele>
        <time>2013-07-06T12:29:34Z</time>
      </trkpt>
      <trkpt lat="40.247750" lon="-4.885750">
        <ele>1130.0</ele>
        <time>2013-07-06T12:29:35Z</time>
      </trkpt>
      <trkpt lat="40.247650" lon="-4.885783">
        <ele>1129.0</ele>
        <time>2013-07-06T12:29:36Z</time>
      </trkpt>
      <trkpt lat="40.247533" lon="-4.885817">
        <ele>1129.0</ele>
        <time>2013-07-06T12:29:37Z</time>
      </trkpt>
      <trkpt lat="40.247450" lon="-4.885850">
        <ele>1128.0</ele>
        <time>2013-07-06T12:29:38Z</time>
      </trkpt>
      <trkpt lat="40.247350" lon="-4.885883">
        <ele>1127.0</ele>
        <time>2013-07-06T12:29:39Z</time>
      </trkpt>
      <trkpt lat="40.247267" lon="-4.885917">
        <ele>1125.0</ele>
        <time>2013-07-06T12:29:40Z</time>
      </trkpt>
      <trkpt lat="40.247183" lon="-4.885967">
        <ele>1123.0</ele>
        <time>2013-07-06T12:29:41Z</time>
      </trkpt>
      <trkpt lat="40.247083" lon="-4.886033">
        <ele>1120.0</ele>
        <time>2013-07-06T12:29:42Z</time>
      </trkpt>
      <trkpt lat="40.246967" lon="-4.886100">
        <ele>1117.0</ele>
        <time>2013-07-06T12:29:43Z</time>
      </trkpt>
      <trkpt lat="40.246867" lon="-4.886183">
        <ele>1114.0</ele>
        <time>2013-07-06T12:29:44Z</time>
      </trkpt>
      <trkpt lat="40.246783" lon="-4.886267">
        <ele>1113.0</ele>
        <time>2013-07-06T12:29:45Z</time>
      </trkpt>
      <trkpt lat="40.246717" lon="-4.886333">
        <ele>1112.0</ele>
        <time>2013-07-06T12:29:46Z</time>
      </trkpt>
      <trkpt lat="40.246650" lon="-4.886400">
        <ele>1110.0</ele>
        <time>2013-07-06T12:29:47Z</time>
      </trkpt>
      <trkpt lat="40.246583" lon="-4.886467">
        <ele>1108.0</ele>
        <time>2013-07-06T12:29:48Z</time>
      </trkpt>
      <trkpt lat="40.246500" lon="-4.886533">
        <ele>1106.0</ele>
        <time>2013-07-06T12:29:49Z</time>
      </trkpt>
      <trkpt lat="40.246400" lon="-4.886617">
        <ele>1103.0</ele>
        <time>2013-07-06T12:29:50Z</time>
      </trkpt>
      <trkpt lat="40.246317" lon="-4.886717">
        <ele>1100.0</ele>
        <time>2013-07-06T12:29:51Z</time>
      </trkpt>
      <trkpt lat="40.246217" lon="-4.886783">
        <ele>1099.0</ele>
        <time>2013-07-06T12:29:52Z</time>
      </trkpt>
      <trkpt lat="40.246150" lon="-4.886850">
        <ele>1099.0</ele>
        <time>2013-07-06T12:29:53Z</time>
      </trkpt>
      <trkpt lat="40.246100" lon="-4.886917">
        <ele>1099.0</ele>
        <time>2013-07-06T12:29:54Z</time>
      </trkpt>
      <trkpt lat="40.246033" lon="-4.886967">
        <ele>1098.0</ele>
        <time>2013-07-06T12:29:55Z</time>
      </trkpt>
      <trkpt lat="40.245900" lon="-4.887117">
        <ele>1093.0</ele>
        <time>2013-07-06T12:29:57Z</time>
      </trkpt>
      <trkpt lat="40.245817" lon="-4.887200">
        <ele>1091.0</ele>
        <time>2013-07-06T12:29:58Z</time>
      </trkpt>
      <trkpt lat="40.245767" lon="-4.887283">
        <ele>1090.0</ele>
        <time>2013-07-06T12:29:59Z</time>
      </trkpt>
      <trkpt lat="40.245717" lon="-4.887367">
        <ele>1089.0</ele>
        <time>2013-07-06T12:30:00Z</time>
      </trkpt>
      <trkpt lat="40.245667" lon="-4.887450">
        <ele>1087.0</ele>
        <time>2013-07-06T12:30:01Z</time>
      </trkpt>
      <trkpt lat="40.245600" lon="-4.887533">
        <ele>1085.0</ele>
        <time>2013-07-06T12:30:02Z</time>
      </trkpt>
      <trkpt lat="40.245533" lon="-4.887600">
        <ele>1082.0</ele>
        <time>2013-07-06T12:30:03Z</time>
      </trkpt>
      <trkpt lat="40.245450" lon="-4.887617">
        <ele>1079.0</ele>
        <time>2013-07-06T12:30:04Z</time>
      </trkpt>
      <trkpt lat="40.245367" lon="-4.887567">
        <ele>1076.0</ele>
        <time>2013-07-06T12:30:05Z</time>
      </trkpt>
      <trkpt lat="40.245333" lon="-4.887450">
        <ele>1074.0</ele>
        <time>2013-07-06T12:30:06Z</time>
      </trkpt>
      <trkpt lat="40.245350" lon="-4.887350">
        <ele>1072.0</ele>
        <time>2013-07-06T12:30:07Z</time>
      </trkpt>
      <trkpt lat="40.245483" lon="-4.887217">
        <ele>1069.0</ele>
        <time>2013-07-06T12:30:09Z</time>
      </trkpt>
      <trkpt lat="40.245533" lon="-4.887200">
        <ele>1068.0</ele>
        <time>2013-07-06T12:30:10Z</time>
      </trkpt>
      <trkpt lat="40.245600" lon="-4.887183">
        <ele>1068.0</ele>
        <time>2013-07-06T12:30:11Z</time>
      </trkpt>
      <trkpt lat="40.245667" lon="-4.887150">
        <ele>1065.0</ele>
        <time>2013-07-06T12:30:12Z</time>
      </trkpt>
      <trkpt lat="40.245750" lon="-4.887133">
        <ele>1062.0</ele>
        <time>2013-07-06T12:30:13Z</time>
      </trkpt>
      <trkpt lat="40.245917" lon="-4.887117">
        <ele>1056.0</ele>
        <time>2013-07-06T12:30:15Z</time>
      </trkpt>
      <trkpt lat="40.245983" lon="-4.887117">
        <ele>1054.0</ele>
        <time>2013-07-06T12:30:16Z</time>
      </trkpt>
      <trkpt lat="40.246050" lon="-4.887100">
        <ele>1052.0</ele>
        <time>2013-07-06T12:30:17Z</time>
      </trkpt>
      <trkpt lat="40.246117" lon="-4.887083">
        <ele>1049.0</ele>
        <time>2013-07-06T12:30:18Z</time>
      </trkpt>
      <trkpt lat="40.246367" lon="-4.887033">
        <ele>1042.0</ele>
        <time>2013-07-06T12:30:21Z</time>
      </trkpt>
      <trkpt lat="40.246433" lon="-4.887000">
        <ele>1041.0</ele>
        <time>2013-07-06T12:30:22Z</time>
      </trkpt>
      <trkpt lat="40.246483" lon="-4.886983">
        <ele>1040.0</ele>
        <time>2013-07-06T12:30:23Z</time>
      </trkpt>
      <trkpt lat="40.246550" lon="-4.886950">
        <ele>1038.0</ele>
        <time>2013-07-06T12:30:24Z</time>
      </trkpt>
      <trkpt lat="40.246667" lon="-4.886867">
        <ele>1032.0</ele>
        <time>2013-07-06T12:30:26Z</time>
      </trkpt>
      <trkpt lat="40.246733" lon="-4.886817">
        <ele>1029.0</ele>
        <time>2013-07-06T12:30:27Z</time>
      </trkpt>
      <trkpt lat="40.246783" lon="-4.886767">
        <ele>1026.0</ele>
        <time>2013-07-06T12:30:28Z</time>
      </trkpt>
      <trkpt lat="40.246833" lon="-4.886717">
        <ele>1024.0</ele>
        <time>2013-07-06T12:30:29Z</time>
      </trkpt>
      <trkpt lat="40.246867" lon="-4.886667">
        <ele>1021.0</ele>
        <time>2013-07-06T12:30:30Z</time>
      </trkpt>
      <trkpt lat="40.246917" lon="-4.886600">
        <ele>1018.0</ele>
        <time>2013-07-06T12:30:31Z</time>
      </trkpt>
      <trkpt lat="40.246967" lon="-4.886550">
        <ele>1015.0</ele>
        <time>2013-07-06T12:30:32Z</time>
      </trkpt>
      <trkpt lat="40.247017" lon="-4.886483">
        <ele>1012.0</ele>
        <time>2013-07-06T12:30:33Z</time>
      </trkpt>
      <trkpt lat="40.247050" lon="-4.886400">
        <ele>1010.0</ele>
        <time>2013-07-06T12:30:34Z</time>
      </trkpt>
      <trkpt lat="40.247083" lon="-4.886300">
        <ele>1008.0</ele>
        <time>2013-07-06T12:30:35Z</time>
      </trkpt>
      <trkpt lat="40.247117" lon="-4.886217">
        <ele>1008.0</ele>
        <time>2013-07-06T12:30:36Z</time>
      </trkpt>
      <trkpt lat="40.247150" lon="-4.886150">
        <ele>1007.0</ele>
        <time>2013-07-06T12:30:37Z</time>
      </trkpt>
      <trkpt lat="40.247183" lon="-4.886067">
        <ele>1006.0</ele>
        <time>2013-07-06T12:30:38Z</time>
      </trkpt>
      <trkpt lat="40.247233" lon="-4.886000">
        <ele>1005.0</ele>
        <time>2013-07-06T12:30:39Z</time>
      </trkpt>
      <trkpt lat="40.247283" lon="-4.885933">
        <ele>1005.0</ele>
        <time>2013-07-06T12:30:40Z</time>
      </trkpt>
      <trkpt lat="40.247317" lon="-4.885850">
        <ele>1005.0</ele>
        <time>2013-07-06T12:30:41Z</time>
      </trkpt>
      <trkpt lat="40.247350" lon="-4.885783">
        <ele>1005.0</ele>
        <time>2013-07-06T12:30:42Z</time>
      </trkpt>
      <trkpt lat="40.247400" lon="-4.885717">
        <ele>1005.0</ele>
        <time>2013-07-06T12:30:43Z</time>
      </trkpt>
      <trkpt lat="40.247433" lon="-4.885650">
        <ele>1005.0</ele>
        <time>2013-07-06T12:30:44Z</time>
      </trkpt>
      <trkpt lat="40.247467" lon="-4.885583">
        <ele>1004.0</ele>
        <time>2013-07-06T12:30:45Z</time>
      </trkpt>
      <trkpt lat="40.247517" lon="-4.885517">
        <ele>1004.0</ele>
        <time>2013-07-06T12:30:46Z</time>
      </trkpt>
      <trkpt lat="40.247567" lon="-4.885450">
        <ele>1003.0</ele>
        <time>2013-07-06T12:30:47Z</time>
      </trkpt>
      <trkpt lat="40.247617" lon="-4.885400">
        <ele>1003.0</ele>
        <time>2013-07-06T12:30:48Z</time>
      </trkpt>
      <trkpt lat="40.247667" lon="-4.885350">
        <ele>1002.0</ele>
        <time>2013-07-06T12:30:49Z</time>
      </trkpt>
      <trkpt lat="40.247717" lon="-4.885283">
        <ele>1000.0</ele>
        <time>2013-07-06T12:30:50Z</time>
      </trkpt>
      <trkpt lat="40.247767" lon="-4.885217">
        <ele>998.0</ele>
        <time>2013-07-06T12:30:51Z</time>
      </trkpt>
      <trkpt lat="40.247833" lon="-4.885133">
        <ele>997.0</ele>
        <time>2013-07-06T12:30:52Z</time>
      </trkpt>
      <trkpt lat="40.247900" lon="-4.885067">
        <ele>997.0</ele>
        <time>2013-07-06T12:30:53Z</time>
      </trkpt>
      <trkpt lat="40.247950" lon="-4.885017">
        <ele>997.0</ele>
        <time>2013-07-06T12:30:54Z</time>
      </trkpt>
      <trkpt lat="40.248000" lon="-4.884967">
        <ele>997.0</ele>
        <time>2013-07-06T12:30:55Z</time>
      </trkpt>
      <trkpt lat="40.248050" lon="-4.884933">
        <ele>997.0</ele>
        <time>2013-07-06T12:30:56Z</time>
      </trkpt>
      <trkpt lat="40.248117" lon="-4.884883">
        <ele>996.0</ele>
        <time>2013-07-06T12:30:57Z</time>
      </trkpt>
      <trkpt lat="40.248183" lon="-4.884817">
        <ele>994.0</ele>
        <time>2013-07-06T12:30:58Z</time>
      </trkpt>
      <trkpt lat="40.248250" lon="-4.884750">
        <ele>993.0</ele>
        <time>2013-07-06T12:30:59Z</time>
      </trkpt>
      <trkpt lat="40.248317" lon="-4.884717">
        <ele>993.0</ele>
        <time>2013-07-06T12:31:00Z</time>
      </trkpt>
      <trkpt lat="40.248383" lon="-4.884667">
        <ele>993.0</ele>
        <time>2013-07-06T12:31:01Z</time>
      </trkpt>
      <trkpt lat="40.248433" lon="-4.884617">
        <ele>992.0</ele>
        <time>2013-07-06T12:31:02Z</time>
      </trkpt>
      <trkpt lat="40.248500" lon="-4.884567">
        <ele>991.0</ele>
        <time>2013-07-06T12:31:03Z</time>
      </trkpt>
      <trkpt lat="40.248567" lon="-4.884517">
        <ele>990.0</ele>
        <time>2013-07-06T12:31:04Z</time>
      </trkpt>
      <trkpt lat="40.248617" lon="-4.884483">
        <ele>988.0</ele>
        <time>2013-07-06T12:31:05Z</time>
      </trkpt>
      <trkpt lat="40.248683" lon="-4.884433">
        <ele>987.0</ele>
        <time>2013-07-06T12:31:06Z</time>
      </trkpt>
      <trkpt lat="40.248750" lon="-4.884383">
        <ele>986.0</ele>
        <time>2013-07-06T12:31:07Z</time>
      </trkpt>
      <trkpt lat="40.248817" lon="-4.884333">
        <ele>984.0</ele>
        <time>2013-07-06T12:31:08Z</time>
      </trkpt>
      <trkpt lat="40.248883" lon="-4.884267">
        <ele>981.0</ele>
        <time>2013-07-06T12:31:09Z</time>
      </trkpt>
      <trkpt lat="40.248950" lon="-4.884200">
        <ele>979.0</ele>
        <time>2013-07-06T12:31:10Z</time>
      </trkpt>
      <trkpt lat="40.249033" lon="-4.884150">
        <ele>979.0</ele>
        <time>2013-07-06T12:31:11Z</time>
      </trkpt>
      <trkpt lat="40.249083" lon="-4.884117">
        <ele>980.0</ele>
        <time>2013-07-06T12:31:12Z</time>
      </trkpt>
      <trkpt lat="40.249150" lon="-4.884083">
        <ele>981.0</ele>
        <time>2013-07-06T12:31:13Z</time>
      </trkpt>
      <trkpt lat="40.249200" lon="-4.884050">
        <ele>981.0</ele>
        <time>2013-07-06T12:31:14Z</time>
      </trkpt>
      <trkpt lat="40.249267" lon="-4.884017">
        <ele>981.0</ele>
        <time>2013-07-06T12:31:15Z</time>
      </trkpt>
      <trkpt lat="40.249317" lon="-4.883967">
        <ele>981.0</ele>
        <time>2013-07-06T12:31:16Z</time>
      </trkpt>
      <trkpt lat="40.249400" lon="-4.883933">
        <ele>980.0</ele>
        <time>2013-07-06T12:31:17Z</time>
      </trkpt>
      <trkpt lat="40.249450" lon="-4.883883">
        <ele>980.0</ele>
        <time>2013-07-06T12:31:18Z</time>
      </trkpt>
      <trkpt lat="40.249517" lon="-4.883850">
        <ele>982.0</ele>
        <time>2013-07-06T12:31:19Z</time>
      </trkpt>
      <trkpt lat="40.249583" lon="-4.883817">
        <ele>983.0</ele>
        <time>2013-07-06T12:31:20Z</time>
      </trkpt>
      <trkpt lat="40.249633" lon="-4.883783">
        <ele>983.0</ele>
        <time>2013-07-06T12:31:21Z</time>
      </trkpt>
      <trkpt lat="40.249717" lon="-4.883767">
        <ele>983.0</ele>
        <time>2013-07-06T12:31:22Z</time>
      </trkpt>
      <trkpt lat="40.249800" lon="-4.883733">
        <ele>982.0</ele>
        <time>2013-07-06T12:31:23Z</time>
      </trkpt>
      <trkpt lat="40.249883" lon="-4.883717">
        <ele>983.0</ele>
        <time>2013-07-06T12:31:24Z</time>
      </trkpt>
      <trkpt lat="40.250100" lon="-4.883700">
        <ele>988.0</ele>
        <time>2013-07-06T12:31:27Z</time>
      </trkpt>
      <trkpt lat="40.250167" lon="-4.883717">
        <ele>991.0</ele>
        <time>2013-07-06T12:31:28Z</time>
      </trkpt>
      <trkpt lat="40.250233" lon="-4.883717">
        <ele>993.0</ele>
        <time>2013-07-06T12:31:29Z</time>
      </trkpt>
      <trkpt lat="40.250317" lon="-4.883700">
        <ele>995.0</ele>
        <time>2013-07-06T12:31:30Z</time>
      </trkpt>
      <trkpt lat="40.250383" lon="-4.883667">
        <ele>997.0</ele>
        <time>2013-07-06T12:31:31Z</time>
      </trkpt>
      <trkpt lat="40.250433" lon="-4.883617">
        <ele>999.0</ele>
        <time>2013-07-06T12:31:32Z</time>
      </trkpt>
      <trkpt lat="40.250500" lon="-4.883567">
        <ele>1002.0</ele>
        <time>2013-07-06T12:31:33Z</time>
      </trkpt>
      <trkpt lat="40.250550" lon="-4.883517">
        <ele>1005.0</ele>
        <time>2013-07-06T12:31:34Z</time>
      </trkpt>
      <trkpt lat="40.250583" lon="-4.883483">
        <ele>1007.0</ele>
        <time>2013-07-06T12:31:35Z</time>
      </trkpt>
      <trkpt lat="40.250633" lon="-4.883417">
        <ele>1009.0</ele>
        <time>2013-07-06T12:31:36Z</time>
      </trkpt>
      <trkpt lat="40.250667" lon="-4.883350">
        <ele>1010.0</ele>
        <time>2013-07-06T12:31:37Z</time>
      </trkpt>
      <trkpt lat="40.250700" lon="-4.883150">
        <ele>1012.0</ele>
        <time>2013-07-06T12:31:39Z</time>
      </trkpt>
      <trkpt lat="40.250700" lon="-4.883067">
        <ele>1014.0</ele>
        <time>2013-07-06T12:31:40Z</time>
      </trkpt>
      <trkpt lat="40.250683" lon="-4.883000">
        <ele>1016.0</ele>
        <time>2013-07-06T12:31:41Z</time>
      </trkpt>
      <trkpt lat="40.250650" lon="-4.882917">
        <ele>1019.0</ele>
        <time>2013-07-06T12:31:42Z</time>
      </trkpt>
      <trkpt lat="40.250617" lon="-4.882850">
        <ele>1022.0</ele>
        <time>2013-07-06T12:31:43Z</time>
      </trkpt>
      <trkpt lat="40.250567" lon="-4.882800">
        <ele>1025.0</ele>
        <time>2013-07-06T12:31:44Z</time>
      </trkpt>
      <trkpt lat="40.250517" lon="-4.882767">
        <ele>1028.0</ele>
        <time>2013-07-06T12:31:45Z</time>
      </trkpt>
      <trkpt lat="40.250467" lon="-4.882750">
        <ele>1031.0</ele>
        <time>2013-07-06T12:31:46Z</time>
      </trkpt>
      <trkpt lat="40.250417" lon="-4.882733">
        <ele>1034.0</ele>
        <time>2013-07-06T12:31:47Z</time>
      </trkpt>
      <trkpt lat="40.250350" lon="-4.882717">
        <ele>1037.0</ele>
        <time>2013-07-06T12:31:48Z</time>
      </trkpt>
      <trkpt lat="40.250283" lon="-4.882717">
        <ele>1040.0</ele>
        <time>2013-07-06T12:31:49Z</time>
      </trkpt>
      <trkpt lat="40.250217" lon="-4.882767">
        <ele>1043.0</ele>
        <time>2013-07-06T12:31:50Z</time>
      </trkpt>
      <trkpt lat="40.250150" lon="-4.882833">
        <ele>1046.0</ele>
        <time>2013-07-06T12:31:51Z</time>
      </trkpt>
      <trkpt lat="40.250117" lon="-4.882950">
        <ele>1047.0</ele>
        <time>2013-07-06T12:31:52Z</time>
      </trkpt>
      <trkpt lat="40.250100" lon="-4.883067">
        <ele>1048.0</ele>
        <time>2013-07-06T12:31:53Z</time>
      </trkpt>
      <trkpt lat="40.250100" lon="-4.883183">
        <ele>1050.0</ele>
        <time>2013-07-06T12:31:54Z</time>
      </trkpt>
      <trkpt lat="40.250117" lon="-4.883300">
        <ele>1051.0</ele>
        <time>2013-07-06T12:31:55Z</time>
      </trkpt>
      <trkpt lat="40.250150" lon="-4.883417">
        <ele>1052.0</ele>
        <time>2013-07-06T12:31:56Z</time>
      </trkpt>
      <trkpt lat="40.250200" lon="-4.883533">
        <ele>1053.0</ele>
        <time>2013-07-06T12:31:57Z</time>
      </trkpt>
      <trkpt lat="40.250233" lon="-4.883650">
        <ele>1056.0</ele>
        <time>2013-07-06T12:31:58Z</time>
      </trkpt>
      <trkpt lat="40.250267" lon="-4.883750">
        <ele>1059.0</ele>
        <time>2013-07-06T12:31:59Z</time>
      </trkpt>
      <trkpt lat="40.250300" lon="-4.883833">
        <ele>1063.0</ele>
        <time>2013-07-06T12:32:00Z</time>
      </trkpt>
      <trkpt lat="40.250350" lon="-4.883917">
        <ele>1065.0</ele>
        <time>2013-07-06T12:32:01Z</time>
      </trkpt>
      <trkpt lat="40.250417" lon="-4.884000">
        <ele>1067.0</ele>
        <time>2013-07-06T12:32:02Z</time>
      </trkpt>
      <trkpt lat="40.250483" lon="-4.884067">
        <ele>1069.0</ele>
        <time>2013-07-06T12:32:03Z</time>
      </trkpt>
      <trkpt lat="40.250550" lon="-4.884100">
        <ele>1071.0</ele>
        <time>2013-07-06T12:32:04Z</time>
      </trkpt>
      <trkpt lat="40.250617" lon="-4.884133">
        <ele>1073.0</ele>
        <time>2013-07-06T12:32:05Z</time>
      </trkpt>
      <trkpt lat="40.250700" lon="-4.884150">
        <ele>1075.0</ele>
        <time>2013-07-06T12:32:06Z</time>
      </trkpt>
      <trkpt lat="40.250917" lon="-4.884117">
        <ele>1078.0</ele>
        <time>2013-07-06T12:32:09Z</time>
      </trkpt>
      <trkpt lat="40.250950" lon="-4.883950">
        <ele>1079.0</ele>
        <time>2013-07-06T12:32:11Z</time>
      </trkpt>
      <trkpt lat="40.250950" lon="-4.883883">
        <ele>1081.0</ele>
        <time>2013-07-06T12:32:12Z</time>
      </trkpt>
      <trkpt lat="40.250917" lon="-4.883817">
        <ele>1082.0</ele>
        <time>2013-07-06T12:32:13Z</time>
      </trkpt>
      <trkpt lat="40.250883" lon="-4.883750">
        <ele>1084.0</ele>
        <time>2013-07-06T12:32:14Z</time>
      </trkpt>
      <trkpt lat="40.250850" lon="-4.883717">
        <ele>1087.0</ele>
        <time>2013-07-06T12:32:15Z</time>
      </trkpt>
      <trkpt lat="40.250800" lon="-4.883667">
        <ele>1089.0</ele>
        <time>2013-07-06T12:32:16Z</time>
      </trkpt>
      <trkpt lat="40.250733" lon="-4.883617">
        <ele>1091.0</ele>
        <time>2013-07-06T12:32:17Z</time>
      </trkpt>
      <trkpt lat="40.250667" lon="-4.883583">
        <ele>1094.0</ele>
        <time>2013-07-06T12:32:18Z</time>
      </trkpt>
      <trkpt lat="40.250583" lon="-4.883567">
        <ele>1096.0</ele>
        <time>2013-07-06T12:32:19Z</time>
      </trkpt>
      <trkpt lat="40.250500" lon="-4.883583">
        <ele>1098.0</ele>
        <time>2013-07-06T12:32:20Z</time>
      </trkpt>
      <trkpt lat="40.250417" lon="-4.883600">
        <ele>1101.0</ele>
        <time>2013-07-06T12:32:21Z</time>
      </trkpt>
      <trkpt lat="40.250350" lon="-4.883617">
        <ele>1106.0</ele>
        <time>2013-07-06T12:32:22Z</time>
      </trkpt>
      <trkpt lat="40.250283" lon="-4.883633">
        <ele>1111.0</ele>
        <time>2013-07-06T12:32:23Z</time>
      </trkpt>
      <trkpt lat="40.250233" lon="-4.883667">
        <ele>1115.0</ele>
        <time>2013-07-06T12:32:24Z</time>
      </trkpt>
      <trkpt lat="40.250183" lon="-4.883717">
        <ele>1118.0</ele>
        <time>2013-07-06T12:32:25Z</time>
      </trkpt>
      <trkpt lat="40.250133" lon="-4.883800">
        <ele>1121.0</ele>
        <time>2013-07-06T12:32:26Z</time>
      </trkpt>
      <trkpt lat="40.250083" lon="-4.883917">
        <ele>1122.0</ele>
        <time>2013-07-06T12:32:27Z</time>
      </trkpt>
      <trkpt lat="40.250050" lon="-4.884017">
        <ele>1123.0</ele>
        <time>2013-07-06T12:32:28Z</time>
      </trkpt>
      <trkpt lat="40.250033" lon="-4.884133">
        <ele>1127.0</ele>
        <time>2013-07-06T12:32:29Z</time>
      </trkpt>
      <trkpt lat="40.250017" lon="-4.884250">
        <ele>1130.0</ele>
        <time>2013-07-06T12:32:30Z</time>
      </trkpt>
      <trkpt lat="40.250033" lon="-4.884367">
        <ele>1133.0</ele>
        <time>2013-07-06T12:32:31Z</time>
      </trkpt>
      <trkpt lat="40.250067" lon="-4.884483">
        <ele>1134.0</ele>
        <time>2013-07-06T12:32:32Z</time>
      </trkpt>
      <trkpt lat="40.250117" lon="-4.884583">
        <ele>1137.0</ele>
        <time>2013-07-06T12:32:33Z</time>
      </trkpt>
      <trkpt lat="40.250233" lon="-4.884700">
        <ele>1143.0</ele>
        <time>2013-07-06T12:32:35Z</time>
      </trkpt>
      <trkpt lat="40.250300" lon="-4.884717">
        <ele>1145.0</ele>
        <time>2013-07-06T12:32:36Z</time>
      </trkpt>
      <trkpt lat="40.250383" lon="-4.884733">
        <ele>1147.0</ele>
        <time>2013-07-06T12:32:37Z</time>
      </trkpt>
      <trkpt lat="40.250450" lon="-4.884733">
        <ele>1148.0</ele>
        <time>2013-07-06T12:32:38Z</time>
      </trkpt>
      <trkpt lat="40.250517" lon="-4.884733">
        <ele>1150.0</ele>
        <time>2013-07-06T12:32:39Z</time>
      </trkpt>
      <trkpt lat="40.250583" lon="-4.884733">
        <ele>1152.0</ele>
        <time>2013-07-06T12:32:40Z</time>
      </trkpt>
      <trkpt lat="40.250650" lon="-4.884700">
        <ele>1153.0</ele>
        <time>2013-07-06T12:32:41Z</time>
      </trkpt>
      <trkpt lat="40.250700" lon="-4.884650">
        <ele>1154.0</ele>
        <time>2013-07-06T12:32:42Z</time>
      </trkpt>
      <trkpt lat="40.250733" lon="-4.884583">
        <ele>1155.0</ele>
        <time>2013-07-06T12:32:43Z</time>
      </trkpt>
      <trkpt lat="40.250767" lon="-4.884500">
        <ele>1156.0</ele>
        <time>2013-07-06T12:32:44Z</time>
      </trkpt>
      <trkpt lat="40.250783" lon="-4.884417">
        <ele>1157.0</ele>
        <time>2013-07-06T12:32:45Z</time>
      </trkpt>
      <trkpt lat="40.250800" lon="-4.884350">
        <ele>1159.0</ele>
        <time>2013-07-06T12:32:46Z</time>
      </trkpt>
      <trkpt lat="40.250800" lon="-4.884267">
        <ele>1161.0</ele>
        <time>2013-07-06T12:32:47Z</time>
      </trkpt>
      <trkpt lat="40.250767" lon="-4.884200">
        <ele>1163.0</ele>
        <time>2013-07-06T12:32:48Z</time>
      </trkpt>
      <trkpt lat="40.250733" lon="-4.884150">
        <ele>1166.0</ele>
        <time>2013-07-06T12:32:49Z</time>
      </trkpt>
      <trkpt lat="40.250700" lon="-4.884100">
        <ele>1170.0</ele>
        <time>2013-07-06T12:32:50Z</time>
      </trkpt>
      <trkpt lat="40.250667" lon="-4.884050">
        <ele>1174.0</ele>
        <time>2013-07-06T12:32:51Z</time>
      </trkpt>
      <trkpt lat="40.250633" lon="-4.884017">
        <ele>1179.0</ele>
        <time>2013-07-06T12:32:52Z</time>
      </trkpt>
      <trkpt lat="40.250567" lon="-4.883983">
        <ele>1183.0</ele>
        <time>2013-07-06T12:32:53Z</time>
      </trkpt>
      <trkpt lat="40.250500" lon="-4.883967">
        <ele>1187.0</ele>
        <time>2013-07-06T12:32:54Z</time>
      </trkpt>
      <trkpt lat="40.250433" lon="-4.883983">
        <ele>1190.0</ele>
        <time>2013-07-06T12:32:55Z</time>
      </trkpt>
      <trkpt lat="40.250350" lon="-4.884017">
        <ele>1194.0</ele>
        <time>2013-07-06T12:32:56Z</time>
      </trkpt>
      <trkpt lat="40.250250" lon="-4.884067">
        <ele>1197.0</ele>
        <time>2013-07-06T12:32:57Z</time>
      </trkpt>
      <trkpt lat="40.250183" lon="-4.884117">
        <ele>1201.0</ele>
        <time>2013-07-06T12:32:58Z</time>
      </trkpt>
      <trkpt lat="40.250100" lon="-4.884167">
        <ele>1206.0</ele>
        <time>2013-07-06T12:32:59Z</time>
      </trkpt>
      <trkpt lat="40.250033" lon="-4.884217">
        <ele>1210.0</ele>
        <time>2013-07-06T12:33:00Z</time>
      </trkpt>
      <trkpt lat="40.249967" lon="-4.884283">
        <ele>1214.0</ele>
        <time>2013-07-06T12:33:01Z</time>
      </trkpt>
      <trkpt lat="40.249917" lon="-4.884367">
        <ele>1216.0</ele>
        <time>2013-07-06T12:33:02Z</time>
      </trkpt>
      <trkpt lat="40.249867" lon="-4.884467">
        <ele>1219.0</ele>
        <time>2013-07-06T12:33:03Z</time>
      </trkpt>
      <trkpt lat="40.249850" lon="-4.884583">
        <ele>1223.0</ele>
        <time>2013-07-06T12:33:04Z</time>
      </trkpt>
      <trkpt lat="40.249867" lon="-4.884700">
        <ele>1226.0</ele>
        <time>2013-07-06T12:33:05Z</time>
      </trkpt>
      <trkpt lat="40.249917" lon="-4.884800">
        <ele>1229.0</ele>
        <time>2013-07-06T12:33:06Z</time>
      </trkpt>
      <trkpt lat="40.249967" lon="-4.884883">
        <ele>1233.0</ele>
        <time>2013-07-06T12:33:07Z</time>
      </trkpt>
      <trkpt lat="40.250017" lon="-4.884933">
        <ele>1237.0</ele>
        <time>2013-07-06T12:33:08Z</time>
      </trkpt>
      <trkpt lat="40.250150" lon="-4.885000">
        <ele>1243.0</ele>
        <time>2013-07-06T12:33:10Z</time>
      </trkpt>
      <trkpt lat="40.250283" lon="-4.885067">
        <ele>1248.0</ele>
        <time>2013-07-06T12:33:12Z</time>
      </trkpt>
      <trkpt lat="40.250367" lon="-4.885067">
        <ele>1250.0</ele>
        <time>2013-07-06T12:33:13Z</time>
      </trkpt>
      <trkpt lat="40.250433" lon="-4.885067">
        <ele>1252.0</ele>
        <time>2013-07-06T12:33:14Z</time>
      </trkpt>
      <trkpt lat="40.250517" lon="-4.885050">
        <ele>1253.0</ele>
        <time>2013-07-06T12:33:15Z</time>
      </trkpt>
      <trkpt lat="40.250583" lon="-4.884983">
        <ele>1254.0</ele>
        <time>2013-07-06T12:33:16Z</time>
      </trkpt>
      <trkpt lat="40.250650" lon="-4.884933">
        <ele>1256.0</ele>
        <time>2013-07-06T12:33:17Z</time>
      </trkpt>
      <trkpt lat="40.250700" lon="-4.884867">
        <ele>1258.0</ele>
        <time>2013-07-06T12:33:18Z</time>
      </trkpt>
      <trkpt lat="40.250717" lon="-4.884800">
        <ele>1262.0</ele>
        <time>2013-07-06T12:33:19Z</time>
      </trkpt>
      <trkpt lat="40.250700" lon="-4.884717">
        <ele>1269.0</ele>
        <time>2013-07-06T12:33:21Z</time>
      </trkpt>
      <trkpt lat="40.250683" lon="-4.884650">
        <ele>1272.0</ele>
        <time>2013-07-06T12:33:22Z</time>
      </trkpt>
      <trkpt lat="40.250683" lon="-4.884567">
        <ele>1275.0</ele>
        <time>2013-07-06T12:33:23Z</time>
      </trkpt>
      <trkpt lat="40.250667" lon="-4.884483">
        <ele>1278.0</ele>
        <time>2013-07-06T12:33:24Z</time>
      </trkpt>
      <trkpt lat="40.250650" lon="-4.884417">
        <ele>1282.0</ele>
        <time>2013-07-06T12:33:25Z</time>
      </trkpt>
      <trkpt lat="40.250633" lon="-4.884383">
        <ele>1287.0</ele>
        <time>2013-07-06T12:33:26Z</time>
      </trkpt>
      <trkpt lat="40.250617" lon="-4.884350">
        <ele>1292.0</ele>
        <time>2013-07-06T12:33:27Z</time>
      </trkpt>
      <trkpt lat="40.250583" lon="-4.884300">
        <ele>1296.0</ele>
        <time>2013-07-06T12:33:28Z</time>
      </trkpt>
      <trkpt lat="40.250550" lon="-4.884233">
        <ele>1299.0</ele>
        <time>2013-07-06T12:33:29Z</time>
      </trkpt>
      <trkpt lat="40.250500" lon="-4.884133">
        <ele>1302.0</ele>
        <time>2013-07-06T12:33:30Z</time>
      </trkpt>
      <trkpt lat="40.250450" lon="-4.884067">
        <ele>1307.0</ele>
        <time>2013-07-06T12:33:31Z</time>
      </trkpt>
      <trkpt lat="40.250400" lon="-4.884017">
        <ele>1313.0</ele>
        <time>2013-07-06T12:33:32Z</time>
      </trkpt>
      <trkpt lat="40.250333" lon="-4.884000">
        <ele>1318.0</ele>
        <time>2013-07-06T12:33:33Z</time>
      </trkpt>
      <trkpt lat="40.250283" lon="-4.884017">
        <ele>1323.0</ele>
        <time>2013-07-06T12:33:34Z</time>
      </trkpt>
      <trkpt lat="40.250200" lon="-4.884017">
        <ele>1328.0</ele>
        <time>2013-07-06T12:33:35Z</time>
      </trkpt>
      <trkpt lat="40.250117" lon="-4.884033">
        <ele>1332.0</ele>
        <time>2013-07-06T12:33:36Z</time>
      </trkpt>
      <trkpt lat="40.250033" lon="-4.884067">
        <ele>1337.0</ele>
        <time>2013-07-06T12:33:37Z</time>
      </trkpt>
      <trkpt lat="40.249967" lon="-4.884117">
        <ele>1341.0</ele>
        <time>2013-07-06T12:33:38Z</time>
      </trkpt>
      <trkpt lat="40.249900" lon="-4.884183">
        <ele>1346.0</ele>
        <time>2013-07-06T12:33:39Z</time>
      </trkpt>
      <trkpt lat="40.249867" lon="-4.884283">
        <ele>1351.0</ele>
        <time>2013-07-06T12:33:40Z</time>
      </trkpt>
      <trkpt lat="40.249833" lon="-4.884400">
        <ele>1352.0</ele>
        <time>2013-07-06T12:33:41Z</time>
      </trkpt>
      <trkpt lat="40.249817" lon="-4.884517">
        <ele>1355.0</ele>
        <time>2013-07-06T12:33:42Z</time>
      </trkpt>
      <trkpt lat="40.249817" lon="-4.884633">
        <ele>1360.0</ele>
        <time>2013-07-06T12:33:43Z</time>
      </trkpt>
      <trkpt lat="40.249850" lon="-4.884733">
        <ele>1365.0</ele>
        <time>2013-07-06T12:33:44Z</time>
      </trkpt>
      <trkpt lat="40.249883" lon="-4.884833">
        <ele>1369.0</ele>
        <time>2013-07-06T12:33:45Z</time>
      </trkpt>
      <trkpt lat="40.249933" lon="-4.884917">
        <ele>1373.0</ele>
        <time>2013-07-06T12:33:46Z</time>
      </trkpt>
      <trkpt lat="40.250000" lon="-4.884983">
        <ele>1376.0</ele>
        <time>2013-07-06T12:33:47Z</time>
      </trkpt>
      <trkpt lat="40.250067" lon="-4.885050">
        <ele>1380.0</ele>
        <time>2013-07-06T12:33:48Z</time>
      </trkpt>
      <trkpt lat="40.250133" lon="-4.885100">
        <ele>1383.0</ele>
        <time>2013-07-06T12:33:49Z</time>
      </trkpt>
      <trkpt lat="40.250217" lon="-4.885133">
        <ele>1386.0</ele>
        <time>2013-07-06T12:33:50Z</time>
      </trkpt>
      <trkpt lat="40.250300" lon="-4.885150">
        <ele>1391.0</ele>
        <time>2013-07-06T12:33:51Z</time>
      </trkpt>
      <trkpt lat="40.250367" lon="-4.885167">
        <ele>1395.0</ele>
        <time>2013-07-06T12:33:52Z</time>
      </trkpt>
      <trkpt lat="40.250450" lon="-4.885183">
        <ele>1400.0</ele>
        <time>2013-07-06T12:33:53Z</time>
      </trkpt>
      <trkpt lat="40.250533" lon="-4.885167">
        <ele>1403.0</ele>
        <time>2013-07-06T12:33:54Z</time>
      </trkpt>
      <trkpt lat="40.250600" lon="-4.885167">
        <ele>1407.0</ele>
        <time>2013-07-06T12:33:55Z</time>
      </trkpt>
      <trkpt lat="40.250667" lon="-4.885150">
        <ele>1411.0</ele>
        <time>2013-07-06T12:33:56Z</time>
      </trkpt>
      <trkpt lat="40.250800" lon="-4.885117">
        <ele>1417.0</ele>
        <time>2013-07-06T12:33:58Z</time>
      </trkpt>
      <trkpt lat="40.250850" lon="-4.885083">
        <ele>1419.0</ele>
        <time>2013-07-06T12:33:59Z</time>
      </trkpt>
      <trkpt lat="40.250917" lon="-4.885050">
        <ele>1419.0</ele>
        <time>2013-07-06T12:34:00Z</time>
      </trkpt>
      <trkpt lat="40.251033" lon="-4.884717">
        <ele>1423.0</ele>
        <time>2013-07-06T12:34:05Z</time>
      </trkpt>
      <trkpt lat="40.251017" lon="-4.884667">
        <ele>1424.0</ele>
        <time>2013-07-06T12:34:06Z</time>
      </trkpt>
      <trkpt lat="40.250983" lon="-4.884617">
        <ele>1425.0</ele>
        <time>2013-07-06T12:34:07Z</time>
      </trkpt>
      <trkpt lat="40.250950" lon="-4.884567">
        <ele>1427.0</ele>
        <time>2013-07-06T12:34:08Z</time>
      </trkpt>
      <trkpt lat="40.250917" lon="-4.884533">
        <ele>1428.0</ele>
        <time>2013-07-06T12:34:09Z</time>
      </trkpt>
      <trkpt lat="40.250867" lon="-4.884483">
        <ele>1431.0</ele>
        <time>2013-07-06T12:34:10Z</time>
      </trkpt>
      <trkpt lat="40.250833" lon="-4.884450">
        <ele>1434.0</ele>
        <time>2013-07-06T12:34:11Z</time>
      </trkpt>
      <trkpt lat="40.250783" lon="-4.884417">
        <ele>1437.0</ele>
        <time>2013-07-06T12:34:12Z</time>
      </trkpt>
      <trkpt lat="40.250750" lon="-4.884400">
        <ele>1441.0</ele>
        <time>2013-07-06T12:34:13Z</time>
      </trkpt>
      <trkpt lat="40.250700" lon="-4.884383">
        <ele>1443.0</ele>
        <time>2013-07-06T12:34:14Z</time>
      </trkpt>
      <trkpt lat="40.250650" lon="-4.884383">
        <ele>1446.0</ele>
        <time>2013-07-06T12:34:15Z</time>
      </trkpt>
      <trkpt lat="40.250567" lon="-4.884367">
        <ele>1448.0</ele>
        <time>2013-07-06T12:34:16Z</time>
      </trkpt>
      <trkpt lat="40.250467" lon="-4.884383">
        <ele>1449.0</ele>
        <time>2013-07-06T12:34:17Z</time>
      </trkpt>
      <trkpt lat="40.250367" lon="-4.884400">
        <ele>1452.0</ele>
        <time>2013-07-06T12:34:18Z</time>
      </trkpt>
      <trkpt lat="40.250283" lon="-4.884433">
        <ele>1454.0</ele>
        <time>2013-07-06T12:34:19Z</time>
      </trkpt>
      <trkpt lat="40.250200" lon="-4.884483">
        <ele>1458.0</ele>
        <time>2013-07-06T12:34:20Z</time>
      </trkpt>
      <trkpt lat="40.250133" lon="-4.884533">
        <ele>1462.0</ele>
        <time>2013-07-06T12:34:21Z</time>
      </trkpt>
      <trkpt lat="40.250067" lon="-4.884600">
        <ele>1465.0</ele>
        <time>2013-07-06T12:34:22Z</time>
      </trkpt>
      <trkpt lat="40.249983" lon="-4.884667">
        <ele>1469.0</ele>
        <time>2013-07-06T12:34:23Z</time>
      </trkpt>
      <trkpt lat="40.249900" lon="-4.884750">
        <ele>1473.0</ele>
        <time>2013-07-06T12:34:24Z</time>
      </trkpt>
      <trkpt lat="40.249833" lon="-4.884817">
        <ele>1477.0</ele>
        <time>2013-07-06T12:34:25Z</time>
      </trkpt>
      <trkpt lat="40.249767" lon="-4.884883">
        <ele>1482.0</ele>
        <time>2013-07-06T12:34:26Z</time>
      </trkpt>
      <trkpt lat="40.249717" lon="-4.884950">
        <ele>1487.0</ele>
        <time>2013-07-06T12:34:27Z</time>
      </trkpt>
      <trkpt lat="40.249667" lon="-4.885050">
        <ele>1491.0</ele>
        <time>2013-07-06T12:34:28Z</time>
      </trkpt>
      <trkpt lat="40.249617" lon="-4.885150">
        <ele>1495.0</ele>
        <time>2013-07-06T12:34:29Z</time>
      </trkpt>
      <trkpt lat="40.249567" lon="-4.885267">
        <ele>1498.0</ele>
        <time>2013-07-06T12:34:30Z</time>
      </trkpt>
      <trkpt lat="40.249533" lon="-4.885383">
        <ele>1503.0</ele>
        <time>2013-07-06T12:34:31Z</time>
      </trkpt>
      <trkpt lat="40.249533" lon="-4.885500">
        <ele>1508.0</ele>
        <time>2013-07-06T12:34:32Z</time>
      </trkpt>
      <trkpt lat="40.249533" lon="-4.885633">
        <ele>1512.0</ele>
        <time>2013-07-06T12:34:33Z</time>
      </trkpt>
      <trkpt lat="40.249583" lon="-4.885767">
        <ele>1515.0</ele>
        <time>2013-07-06T12:34:34Z</time>
      </trkpt>
      <trkpt lat="40.249617" lon="-4.885900">
        <ele>1519.0</ele>
        <time>2013-07-06T12:34:35Z</time>
      </trkpt>
      <trkpt lat="40.249650" lon="-4.886017">
        <ele>1524.0</ele>
        <time>2013-07-06T12:34:36Z</time>
      </trkpt>
      <trkpt lat="40.249683" lon="-4.886100">
        <ele>1529.0</ele>
        <time>2013-07-06T12:34:37Z</time>
      </trkpt>
      <trkpt lat="40.249733" lon="-4.886167">
        <ele>1534.0</ele>
        <time>2013-07-06T12:34:38Z</time>
      </trkpt>
      <trkpt lat="40.249783" lon="-4.886250">
        <ele>1538.0</ele>
        <time>2013-07-06T12:34:39Z</time>
      </trkpt>
      <trkpt lat="40.249850" lon="-4.886333">
        <ele>1541.0</ele>
        <time>2013-07-06T12:34:40Z</time>
      </trkpt>
      <trkpt lat="40.249933" lon="-4.886433">
        <ele>1543.0</ele>
        <time>2013-07-06T12:34:41Z</time>
      </trkpt>
      <trkpt lat="40.250017" lon="-4.886500">
        <ele>1545.0</ele>
        <time>2013-07-06T12:34:42Z</time>
      </trkpt>
      <trkpt lat="40.250100" lon="-4.886550">
        <ele>1549.0</ele>
        <time>2013-07-06T12:34:43Z</time>
      </trkpt>
      <trkpt lat="40.250167" lon="-4.886567">
        <ele>1554.0</ele>
        <time>2013-07-06T12:34:44Z</time>
      </trkpt>
      <trkpt lat="40.250217" lon="-4.886567">
        <ele>1558.0</ele>
        <time>2013-07-06T12:34:45Z</time>
      </trkpt>
      <trkpt lat="40.250267" lon="-4.886550">
        <ele>1561.0</ele>
        <time>2013-07-06T12:34:46Z</time>
      </trkpt>
      <trkpt lat="40.250333" lon="-4.886533">
        <ele>1563.0</ele>
        <time>2013-07-06T12:34:47Z</time>
      </trkpt>
      <trkpt lat="40.250450" lon="-4.886450">
        <ele>1566.0</ele>
        <time>2013-07-06T12:34:49Z</time>
      </trkpt>
      <trkpt lat="40.250533" lon="-4.886433">
        <ele>1568.0</ele>
        <time>2013-07-06T12:34:50Z</time>
      </trkpt>
      <trkpt lat="40.250617" lon="-4.886433">
        <ele>1569.0</ele>
        <time>2013-07-06T12:34:51Z</time>
      </trkpt>
      <trkpt lat="40.250717" lon="-4.886467">
        <ele>1572.0</ele>
        <time>2013-07-06T12:34:52Z</time>
      </trkpt>
      <trkpt lat="40.250783" lon="-4.886500">
        <ele>1574.0</ele>
        <time>2013-07-06T12:34:53Z</time>
      </trkpt>
      <trkpt lat="40.250850" lon="-4.886517">
        <ele>1577.0</ele>
        <time>2013-07-06T12:34:54Z</time>
      </trkpt>
      <trkpt lat="40.250933" lon="-4.886517">
        <ele>1579.0</ele>
        <time>2013-07-06T12:34:55Z</time>
      </trkpt>
      <trkpt lat="40.251017" lon="-4.886483">
        <ele>1580.0</ele>
        <time>2013-07-06T12:34:56Z</time>
      </trkpt>
      <trkpt lat="40.251100" lon="-4.886450">
        <ele>1581.0</ele>
        <time>2013-07-06T12:34:57Z</time>
      </trkpt>
      <trkpt lat="40.251150" lon="-4.886450">
        <ele>1585.0</ele>
        <time>2013-07-06T12:34:58Z</time>
      </trkpt>
      <trkpt lat="40.251217" lon="-4.886433">
        <ele>1589.0</ele>
        <time>2013-07-06T12:34:59Z</time>
      </trkpt>
      <trkpt lat="40.251250" lon="-4.886417">
        <ele>1592.0</ele>
        <time>2013-07-06T12:35:00Z</time>
      </trkpt>
      <trkpt lat="40.251267" lon="-4.886367">
        <ele>1594.0</ele>
        <time>2013-07-06T12:35:01Z</time>
      </trkpt>
      <trkpt lat="40.251300" lon="-4.886317">
        <ele>1595.0</ele>
        <time>2013-07-06T12:35:02Z</time>
      </trkpt>
      <trkpt lat="40.251317" lon="-4.886233">
        <ele>1592.0</ele>
        <time>2013-07-06T12:35:03Z</time>
      </trkpt>
      <trkpt lat="40.251333" lon="-4.886167">
        <ele>1591.0</ele>
        <time>2013-07-06T12:35:04Z</time>
      </trkpt>
      <trkpt lat="40.251350" lon="-4.886083">
        <ele>1589.0</ele>
        <time>2013-07-06T12:35:05Z</time>
      </trkpt>
      <trkpt lat="40.251367" lon="-4.886017">
        <ele>1587.0</ele>
        <time>2013-07-06T12:35:06Z</time>
      </trkpt>
      <trkpt lat="40.251350" lon="-4.885917">
        <ele>1586.0</ele>
        <time>2013-07-06T12:35:07Z</time>
      </trkpt>
      <trkpt lat="40.251317" lon="-4.885833">
        <ele>1584.0</ele>
        <time>2013-07-06T12:35:08Z</time>
      </trkpt>
      <trkpt lat="40.251250" lon="-4.885767">
        <ele>1582.0</ele>
        <time>2013-07-06T12:35:09Z</time>
      </trkpt>
      <trkpt lat="40.251183" lon="-4.885717">
        <ele>1581.0</ele>
        <time>2013-07-06T12:35:10Z</time>
      </trkpt>
      <trkpt lat="40.251100" lon="-4.885700">
        <ele>1581.0</ele>
        <time>2013-07-06T12:35:11Z</time>
      </trkpt>
      <trkpt lat="40.251033" lon="-4.885700">
        <ele>1580.0</ele>
        <time>2013-07-06T12:35:12Z</time>
      </trkpt>
      <trkpt lat="40.250950" lon="-4.885683">
        <ele>1580.0</ele>
        <time>2013-07-06T12:35:13Z</time>
      </trkpt>
      <trkpt lat="40.250850" lon="-4.885650">
        <ele>1580.0</ele>
        <time>2013-07-06T12:35:14Z</time>
      </trkpt>
      <trkpt lat="40.250750" lon="-4.885633">
        <ele>1580.0</ele>
        <time>2013-07-06T12:35:15Z</time>
      </trkpt>
      <trkpt lat="40.250667" lon="-4.885617">
        <ele>1583.0</ele>
        <time>2013-07-06T12:35:16Z</time>
      </trkpt>
      <trkpt lat="40.250583" lon="-4.885617">
        <ele>1586.0</ele>
        <time>2013-07-06T12:35:17Z</time>
      </trkpt>
      <trkpt lat="40.250517" lon="-4.885600">
        <ele>1590.0</ele>
        <time>2013-07-06T12:35:18Z</time>
      </trkpt>
      <trkpt lat="40.250433" lon="-4.885567">
        <ele>1592.0</ele>
        <time>2013-07-06T12:35:19Z</time>
      </trkpt>
      <trkpt lat="40.250350" lon="-4.885533">
        <ele>1594.0</ele>
        <time>2013-07-06T12:35:20Z</time>
      </trkpt>
      <trkpt lat="40.250250" lon="-4.885517">
        <ele>1597.0</ele>
        <time>2013-07-06T12:35:21Z</time>
      </trkpt>
      <trkpt lat="40.250167" lon="-4.885517">
        <ele>1601.0</ele>
        <time>2013-07-06T12:35:22Z</time>
      </trkpt>
      <trkpt lat="40.250083" lon="-4.885533">
        <ele>1605.0</ele>
        <time>2013-07-06T12:35:23Z</time>
      </trkpt>
      <trkpt lat="40.250000" lon="-4.885533">
        <ele>1608.0</ele>
        <time>2013-07-06T12:35:24Z</time>
      </trkpt>
      <trkpt lat="40.249933" lon="-4.885567">
        <ele>1611.0</ele>
        <time>2013-07-06T12:35:25Z</time>
      </trkpt>
      <trkpt lat="40.249850" lon="-4.885617">
        <ele>1613.0</ele>
        <time>2013-07-06T12:35:26Z</time>
      </trkpt>
      <trkpt lat="40.249767" lon="-4.885700">
        <ele>1616.0</ele>
        <time>2013-07-06T12:35:27Z</time>
      </trkpt>
      <trkpt lat="40.249700" lon="-4.885767">
        <ele>1619.0</ele>
        <time>2013-07-06T12:35:28Z</time>
      </trkpt>
      <trkpt lat="40.249650" lon="-4.885850">
        <ele>1623.0</ele>
        <time>2013-07-06T12:35:29Z</time>
      </trkpt>
      <trkpt lat="40.249600" lon="-4.885917">
        <ele>1627.0</ele>
        <time>2013-07-06T12:35:30Z</time>
      </trkpt>
      <trkpt lat="40.249550" lon="-4.885983">
        <ele>1629.0</ele>
        <time>2013-07-06T12:35:31Z</time>
      </trkpt>
      <trkpt lat="40.249500" lon="-4.886083">
        <ele>1628.0</ele>
        <time>2013-07-06T12:35:32Z</time>
      </trkpt>
      <trkpt lat="40.249450" lon="-4.886200">
        <ele>1626.0</ele>
        <time>2013-07-06T12:35:33Z</time>
      </trkpt>
      <trkpt lat="40.249400" lon="-4.886317">
        <ele>1626.0</ele>
        <time>2013-07-06T12:35:34Z</time>
      </trkpt>
      <trkpt lat="40.249350" lon="-4.886433">
        <ele>1627.0</ele>
        <time>2013-07-06T12:35:35Z</time>
      </trkpt>
      <trkpt lat="40.249317" lon="-4.886550">
        <ele>1630.0</ele>
        <time>2013-07-06T12:35:36Z</time>
      </trkpt>
      <trkpt lat="40.249283" lon="-4.886650">
        <ele>1632.0</ele>
        <time>2013-07-06T12:35:37Z</time>
      </trkpt>
      <trkpt lat="40.249250" lon="-4.886783">
        <ele>1633.0</ele>
        <time>2013-07-06T12:35:38Z</time>
      </trkpt>
      <trkpt lat="40.249233" lon="-4.886917">
        <ele>1634.0</ele>
        <time>2013-07-06T12:35:39Z</time>
      </trkpt>
      <trkpt lat="40.249217" lon="-4.887083">
        <ele>1634.0</ele>
        <time>2013-07-06T12:35:40Z</time>
      </trkpt>
      <trkpt lat="40.249217" lon="-4.887233">
        <ele>1636.0</ele>
        <time>2013-07-06T12:35:41Z</time>
      </trkpt>
      <trkpt lat="40.249233" lon="-4.887367">
        <ele>1639.0</ele>
        <time>2013-07-06T12:35:42Z</time>
      </trkpt>
      <trkpt lat="40.249250" lon="-4.887483">
        <ele>1643.0</ele>
        <time>2013-07-06T12:35:43Z</time>
      </trkpt>
      <trkpt lat="40.249300" lon="-4.887683">
        <ele>1649.0</ele>
        <time>2013-07-06T12:35:45Z</time>
      </trkpt>
      <trkpt lat="40.249417" lon="-4.887900">
        <ele>1650.0</ele>
        <time>2013-07-06T12:35:47Z</time>
      </trkpt>
      <trkpt lat="40.249550" lon="-4.888083">
        <ele>1652.0</ele>
        <time>2013-07-06T12:35:49Z</time>
      </trkpt>
      <trkpt lat="40.249700" lon="-4.888200">
        <ele>1657.0</ele>
        <time>2013-07-06T12:35:51Z</time>
      </trkpt>
      <trkpt lat="40.249783" lon="-4.888250">
        <ele>1658.0</ele>
        <time>2013-07-06T12:35:52Z</time>
      </trkpt>
      <trkpt lat="40.249883" lon="-4.888283">
        <ele>1658.0</ele>
        <time>2013-07-06T12:35:53Z</time>
      </trkpt>
      <trkpt lat="40.249967" lon="-4.888317">
        <ele>1659.0</ele>
        <time>2013-07-06T12:35:54Z</time>
      </trkpt>
      <trkpt lat="40.250050" lon="-4.888333">
        <ele>1661.0</ele>
        <time>2013-07-06T12:35:55Z</time>
      </trkpt>
      <trkpt lat="40.250117" lon="-4.888333">
        <ele>1664.0</ele>
        <time>2013-07-06T12:35:56Z</time>
      </trkpt>
      <trkpt lat="40.250183" lon="-4.888317">
        <ele>1667.0</ele>
        <time>2013-07-06T12:35:57Z</time>
      </trkpt>
      <trkpt lat="40.250233" lon="-4.888300">
        <ele>1669.0</ele>
        <time>2013-07-06T12:35:58Z</time>
      </trkpt>
      <trkpt lat="40.250283" lon="-4.888283">
        <ele>1672.0</ele>
        <time>2013-07-06T12:35:59Z</time>
      </trkpt>
      <trkpt lat="40.250317" lon="-4.888267">
        <ele>1675.0</ele>
        <time>2013-07-06T12:36:00Z</time>
      </trkpt>
      <trkpt lat="40.250367" lon="-4.888200">
        <ele>1680.0</ele>
        <time>2013-07-06T12:36:02Z</time>
      </trkpt>
      <trkpt lat="40.250400" lon="-4.888167">
        <ele>1682.0</ele>
        <time>2013-07-06T12:36:03Z</time>
      </trkpt>
      <trkpt lat="40.250433" lon="-4.888117">
        <ele>1684.0</ele>
        <time>2013-07-06T12:36:04Z</time>
      </trkpt>
      <trkpt lat="40.250450" lon="-4.888017">
        <ele>1688.0</ele>
        <time>2013-07-06T12:36:06Z</time>
      </trkpt>
      <trkpt lat="40.250433" lon="-4.887950">
        <ele>1690.0</ele>
        <time>2013-07-06T12:36:07Z</time>
      </trkpt>
      <trkpt lat="40.250400" lon="-4.887867">
        <ele>1691.0</ele>
        <time>2013-07-06T12:36:08Z</time>
      </trkpt>
      <trkpt lat="40.250333" lon="-4.887783">
        <ele>1692.0</ele>
        <time>2013-07-06T12:36:09Z</time>
      </trkpt>
      <trkpt lat="40.250267" lon="-4.887733">
        <ele>1694.0</ele>
        <time>2013-07-06T12:36:10Z</time>
      </trkpt>
      <trkpt lat="40.250200" lon="-4.887700">
        <ele>1697.0</ele>
        <time>2013-07-06T12:36:11Z</time>
      </trkpt>
      <trkpt lat="40.250133" lon="-4.887700">
        <ele>1699.0</ele>
        <time>2013-07-06T12:36:12Z</time>
      </trkpt>
      <trkpt lat="40.250050" lon="-4.887700">
        <ele>1702.0</ele>
        <time>2013-07-06T12:36:13Z</time>
      </trkpt>
      <trkpt lat="40.249950" lon="-4.887700">
        <ele>1705.0</ele>
        <time>2013-07-06T12:36:14Z</time>
      </trkpt>
      <trkpt lat="40.249850" lon="-4.887683">
        <ele>1707.0</ele>
        <time>2013-07-06T12:36:15Z</time>
      </trkpt>
      <trkpt lat="40.249767" lon="-4.887700">
        <ele>1710.0</ele>
        <time>2013-07-06T12:36:16Z</time>
      </trkpt>
      <trkpt lat="40.249667" lon="-4.887750">
        <ele>1713.0</ele>
        <time>2013-07-06T12:36:17Z</time>
      </trkpt>
      <trkpt lat="40.249583" lon="-4.887833">
        <ele>1715.0</ele>
        <time>2013-07-06T12:36:18Z</time>
      </trkpt>
      <trkpt lat="40.249517" lon="-4.887933">
        <ele>1716.0</ele>
        <time>2013-07-06T12:36:19Z</time>
      </trkpt>
      <trkpt lat="40.249450" lon="-4.888050">
        <ele>1717.0</ele>
        <time>2013-07-06T12:36:20Z</time>
      </trkpt>
      <trkpt lat="40.249400" lon="-4.888167">
        <ele>1721.0</ele>
        <time>2013-07-06T12:36:21Z</time>
      </trkpt>
      <trkpt lat="40.249367" lon="-4.888283">
        <ele>1726.0</ele>
        <time>2013-07-06T12:36:22Z</time>
      </trkpt>
      <trkpt lat="40.249367" lon="-4.888383">
        <ele>1730.0</ele>
        <time>2013-07-06T12:36:23Z</time>
      </trkpt>
      <trkpt lat="40.249367" lon="-4.888500">
        <ele>1733.0</ele>
        <time>2013-07-06T12:36:24Z</time>
      </trkpt>
      <trkpt lat="40.249383" lon="-4.888633">
        <ele>1736.0</ele>
        <time>2013-07-06T12:36:25Z</time>
      </trkpt>
      <trkpt lat="40.249417" lon="-4.888783">
        <ele>1739.0</ele>
        <time>2013-07-06T12:36:26Z</time>
      </trkpt>
      <trkpt lat="40.249450" lon="-4.888917">
        <ele>1742.0</ele>
        <time>2013-07-06T12:36:27Z</time>
      </trkpt>
      <trkpt lat="40.249517" lon="-4.889167">
        <ele>1749.0</ele>
        <time>2013-07-06T12:36:29Z</time>
      </trkpt>
      <trkpt lat="40.249567" lon="-4.889267">
        <ele>1753.0</ele>
        <time>2013-07-06T12:36:30Z</time>
      </trkpt>
      <trkpt lat="40.249633" lon="-4.889333">
        <ele>1755.0</ele>
        <time>2013-07-06T12:36:31Z</time>
      </trkpt>
      <trkpt lat="40.249717" lon="-4.889400">
        <ele>1754.0</ele>
        <time>2013-07-06T12:36:32Z</time>
      </trkpt>
      <trkpt lat="40.249800" lon="-4.889450">
        <ele>1755.0</ele>
        <time>2013-07-06T12:36:33Z</time>
      </trkpt>
      <trkpt lat="40.249883" lon="-4.889483">
        <ele>1756.0</ele>
        <time>2013-07-06T12:36:34Z</time>
      </trkpt>
      <trkpt lat="40.249950" lon="-4.889500">
        <ele>1758.0</ele>
        <time>2013-07-06T12:36:35Z</time>
      </trkpt>
      <trkpt lat="40.250017" lon="-4.889500">
        <ele>1761.0</ele>
        <time>2013-07-06T12:36:36Z</time>
      </trkpt>
      <trkpt lat="40.250067" lon="-4.889500">
        <ele>1764.0</ele>
        <time>2013-07-06T12:36:37Z</time>
      </trkpt>
      <trkpt lat="40.250183" lon="-4.889467">
        <ele>1769.0</ele>
        <time>2013-07-06T12:36:39Z</time>
      </trkpt>
      <trkpt lat="40.250217" lon="-4.889433">
        <ele>1770.0</ele>
        <time>2013-07-06T12:36:40Z</time>
      </trkpt>
      <trkpt lat="40.250250" lon="-4.889383">
        <ele>1772.0</ele>
        <time>2013-07-06T12:36:41Z</time>
      </trkpt>
      <trkpt lat="40.250283" lon="-4.889317">
        <ele>1774.0</ele>
        <time>2013-07-06T12:36:42Z</time>
      </trkpt>
      <trkpt lat="40.250317" lon="-4.889250">
        <ele>1776.0</ele>
        <time>2013-07-06T12:36:43Z</time>
      </trkpt>
      <trkpt lat="40.250333" lon="-4.889200">
        <ele>1778.0</ele>
        <time>2013-07-06T12:36:44Z</time>
      </trkpt>
      <trkpt lat="40.250317" lon="-4.889133">
        <ele>1781.0</ele>
        <time>2013-07-06T12:36:45Z</time>
      </trkpt>
      <trkpt lat="40.250317" lon="-4.889067">
        <ele>1783.0</ele>
        <time>2013-07-06T12:36:46Z</time>
      </trkpt>
      <trkpt lat="40.250283" lon="-4.888983">
        <ele>1784.0</ele>
        <time>2013-07-06T12:36:47Z</time>
      </trkpt>
      <trkpt lat="40.250250" lon="-4.888883">
        <ele>1783.0</ele>
        <time>2013-07-06T12:36:48Z</time>
      </trkpt>
      <trkpt lat="40.250233" lon="-4.888800">
        <ele>1784.0</ele>
        <time>2013-07-06T12:36:49Z</time>
      </trkpt>
      <trkpt lat="40.250200" lon="-4.888733">
        <ele>1785.0</ele>
        <time>2013-07-06T12:36:50Z</time>
      </trkpt>
      <trkpt lat="40.250167" lon="-4.888700">
        <ele>1787.0</ele>
        <time>2013-07-06T12:36:51Z</time>
      </trkpt>
      <trkpt lat="40.250117" lon="-4.888683">
        <ele>1788.0</ele>
        <time>2013-07-06T12:36:52Z</time>
      </trkpt>
      <trkpt lat="40.250067" lon="-4.888683">
        <ele>1787.0</ele>
        <time>2013-07-06T12:36:53Z</time>
      </trkpt>
      <trkpt lat="40.250000" lon="-4.888650">
        <ele>1786.0</ele>
        <time>2013-07-06T12:36:54Z</time>
      </trkpt>
      <trkpt lat="40.249917" lon="-4.888600">
        <ele>1785.0</ele>
        <time>2013-07-06T12:36:55Z</time>
      </trkpt>
      <trkpt lat="40.249833" lon="-4.888550">
        <ele>1784.0</ele>
        <time>2013-07-06T12:36:56Z</time>
      </trkpt>
      <trkpt lat="40.249767" lon="-4.888517">
        <ele>1786.0</ele>
        <time>2013-07-06T12:36:57Z</time>
      </trkpt>
      <trkpt lat="40.249700" lon="-4.888483">
        <ele>1787.0</ele>
        <time>2013-07-06T12:36:58Z</time>
      </trkpt>
      <trkpt lat="40.249650" lon="-4.888433">
        <ele>1788.0</ele>
        <time>2013-07-06T12:36:59Z</time>
      </trkpt>
      <trkpt lat="40.249567" lon="-4.888400">
        <ele>1789.0</ele>
        <time>2013-07-06T12:37:00Z</time>
      </trkpt>
      <trkpt lat="40.249367" lon="-4.888367">
        <ele>1791.0</ele>
        <time>2013-07-06T12:37:02Z</time>
      </trkpt>
      <trkpt lat="40.249267" lon="-4.888367">
        <ele>1792.0</ele>
        <time>2013-07-06T12:37:03Z</time>
      </trkpt>
      <trkpt lat="40.249183" lon="-4.888367">
        <ele>1795.0</ele>
        <time>2013-07-06T12:37:04Z</time>
      </trkpt>
      <trkpt lat="40.249100" lon="-4.888383">
        <ele>1798.0</ele>
        <time>2013-07-06T12:37:05Z</time>
      </trkpt>
      <trkpt lat="40.249000" lon="-4.888417">
        <ele>1800.0</ele>
        <time>2013-07-06T12:37:06Z</time>
      </trkpt>
      <trkpt lat="40.248900" lon="-4.888450">
        <ele>1801.0</ele>
        <time>2013-07-06T12:37:07Z</time>
      </trkpt>
      <trkpt lat="40.248783" lon="-4.888517">
        <ele>1802.0</ele>
        <time>2013-07-06T12:37:08Z</time>
      </trkpt>
      <trkpt lat="40.248683" lon="-4.888583">
        <ele>1803.0</ele>
        <time>2013-07-06T12:37:09Z</time>
      </trkpt>
      <trkpt lat="40.248600" lon="-4.888683">
        <ele>1804.0</ele>
        <time>2013-07-06T12:37:10Z</time>
      </trkpt>
      <trkpt lat="40.248533" lon="-4.888767">
        <ele>1805.0</ele>
        <time>2013-07-06T12:37:11Z</time>
      </trkpt>
      <trkpt lat="40.248467" lon="-4.888867">
        <ele>1806.0</ele>
        <time>2013-07-06T12:37:12Z</time>
      </trkpt>
      <trkpt lat="40.248417" lon="-4.888967">
        <ele>1806.0</ele>
        <time>2013-07-06T12:37:13Z</time>
      </trkpt>
      <trkpt lat="40.248350" lon="-4.889100">
        <ele>1806.0</ele>
        <time>2013-07-06T12:37:14Z</time>
      </trkpt>
      <trkpt lat="40.248300" lon="-4.889217">
        <ele>1806.0</ele>
        <time>2013-07-06T12:37:15Z</time>
      </trkpt>
      <trkpt lat="40.248283" lon="-4.889350">
        <ele>1808.0</ele>
        <time>2013-07-06T12:37:16Z</time>
      </trkpt>
      <trkpt lat="40.248267" lon="-4.889467">
        <ele>1809.0</ele>
        <time>2013-07-06T12:37:17Z</time>
      </trkpt>
      <trkpt lat="40.248250" lon="-4.889600">
        <ele>1810.0</ele>
        <time>2013-07-06T12:37:18Z</time>
      </trkpt>
      <trkpt lat="40.248250" lon="-4.889733">
        <ele>1812.0</ele>
        <time>2013-07-06T12:37:19Z</time>
      </trkpt>
      <trkpt lat="40.248267" lon="-4.889850">
        <ele>1813.0</ele>
        <time>2013-07-06T12:37:20Z</time>
      </trkpt>
      <trkpt lat="40.248283" lon="-4.889983">
        <ele>1814.0</ele>
        <time>2013-07-06T12:37:21Z</time>
      </trkpt>
      <trkpt lat="40.248333" lon="-4.890083">
        <ele>1815.0</ele>
        <time>2013-07-06T12:37:22Z</time>
      </trkpt>
      <trkpt lat="40.248383" lon="-4.890150">
        <ele>1817.0</ele>
        <time>2013-07-06T12:37:23Z</time>
      </trkpt>
      <trkpt lat="40.248433" lon="-4.890200">
        <ele>1818.0</ele>
        <time>2013-07-06T12:37:24Z</time>
      </trkpt>
      <trkpt lat="40.248500" lon="-4.890233">
        <ele>1819.0</ele>
        <time>2013-07-06T12:37:25Z</time>
      </trkpt>
      <trkpt lat="40.248567" lon="-4.890250">
        <ele>1820.0</ele>
        <time>2013-07-06T12:37:26Z</time>
      </trkpt>
      <trkpt lat="40.248667" lon="-4.890250">
        <ele>1820.0</ele>
        <time>2013-07-06T12:37:27Z</time>
      </trkpt>
      <trkpt lat="40.248750" lon="-4.890233">
        <ele>1822.0</ele>
        <time>2013-07-06T12:37:28Z</time>
      </trkpt>
      <trkpt lat="40.248817" lon="-4.890233">
        <ele>1825.0</ele>
        <time>2013-07-06T12:37:29Z</time>
      </trkpt>
      <trkpt lat="40.248850" lon="-4.890217">
        <ele>1829.0</ele>
        <time>2013-07-06T12:37:30Z</time>
      </trkpt>
      <trkpt lat="40.248933" lon="-4.890133">
        <ele>1833.0</ele>
        <time>2013-07-06T12:37:32Z</time>
      </trkpt>
      <trkpt lat="40.248983" lon="-4.890083">
        <ele>1835.0</ele>
        <time>2013-07-06T12:37:33Z</time>
      </trkpt>
      <trkpt lat="40.249033" lon="-4.890000">
        <ele>1836.0</ele>
        <time>2013-07-06T12:37:34Z</time>
      </trkpt>
      <trkpt lat="40.249083" lon="-4.889933">
        <ele>1837.0</ele>
        <time>2013-07-06T12:37:35Z</time>
      </trkpt>
      <trkpt lat="40.249100" lon="-4.889867">
        <ele>1840.0</ele>
        <time>2013-07-06T12:37:36Z</time>
      </trkpt>
      <trkpt lat="40.249100" lon="-4.889733">
        <ele>1847.0</ele>
        <time>2013-07-06T12:37:38Z</time>
      </trkpt>
      <trkpt lat="40.249083" lon="-4.889667">
        <ele>1851.0</ele>
        <time>2013-07-06T12:37:39Z</time>
      </trkpt>
      <trkpt lat="40.249050" lon="-4.889600">
        <ele>1853.0</ele>
        <time>2013-07-06T12:37:40Z</time>
      </trkpt>
      <trkpt lat="40.248983" lon="-4.889533">
        <ele>1855.0</ele>
        <time>2013-07-06T12:37:41Z</time>
      </trkpt>
      <trkpt lat="40.248917" lon="-4.889467">
        <ele>1856.0</ele>
        <time>2013-07-06T12:37:42Z</time>
      </trkpt>
      <trkpt lat="40.248833" lon="-4.889417">
        <ele>1857.0</ele>
        <time>2013-07-06T12:37:43Z</time>
      </trkpt>
      <trkpt lat="40.248750" lon="-4.889367">
        <ele>1859.0</ele>
        <time>2013-07-06T12:37:44Z</time>
      </trkpt>
      <trkpt lat="40.248667" lon="-4.889333">
        <ele>1861.0</ele>
        <time>2013-07-06T12:37:45Z</time>
      </trkpt>
      <trkpt lat="40.248583" lon="-4.889300">
        <ele>1864.0</ele>
        <time>2013-07-06T12:37:46Z</time>
      </trkpt>
      <trkpt lat="40.248483" lon="-4.889300">
        <ele>1867.0</ele>
        <time>2013-07-06T12:37:47Z</time>
      </trkpt>
      <trkpt lat="40.248367" lon="-4.889333">
        <ele>1870.0</ele>
        <time>2013-07-06T12:37:48Z</time>
      </trkpt>
      <trkpt lat="40.248283" lon="-4.889367">
        <ele>1872.0</ele>
        <time>2013-07-06T12:37:49Z</time>
      </trkpt>
      <trkpt lat="40.248200" lon="-4.889433">
        <ele>1874.0</ele>
        <time>2013-07-06T12:37:50Z</time>
      </trkpt>
      <trkpt lat="40.248117" lon="-4.889500">
        <ele>1875.0</ele>
        <time>2013-07-06T12:37:51Z</time>
      </trkpt>
      <trkpt lat="40.248033" lon="-4.889583">
        <ele>1876.0</ele>
        <time>2013-07-06T12:37:52Z</time>
      </trkpt>
      <trkpt lat="40.247950" lon="-4.889683">
        <ele>1876.0</ele>
        <time>2013-07-06T12:37:53Z</time>
      </trkpt>
      <trkpt lat="40.247883" lon="-4.889817">
        <ele>1877.0</ele>
        <time>2013-07-06T12:37:54Z</time>
      </trkpt>
      <trkpt lat="40.247850" lon="-4.889950">
        <ele>1877.0</ele>
        <time>2013-07-06T12:37:55Z</time>
      </trkpt>
      <trkpt lat="40.247850" lon="-4.890100">
        <ele>1877.0</ele>
        <time>2013-07-06T12:37:56Z</time>
      </trkpt>
      <trkpt lat="40.247867" lon="-4.890217">
        <ele>1876.0</ele>
        <time>2013-07-06T12:37:57Z</time>
      </trkpt>
      <trkpt lat="40.247900" lon="-4.890333">
        <ele>1877.0</ele>
        <time>2013-07-06T12:37:58Z</time>
      </trkpt>
      <trkpt lat="40.247933" lon="-4.890450">
        <ele>1877.0</ele>
        <time>2013-07-06T12:37:59Z</time>
      </trkpt>
      <trkpt lat="40.247950" lon="-4.890567">
        <ele>1877.0</ele>
        <time>2013-07-06T12:38:00Z</time>
      </trkpt>
      <trkpt lat="40.247983" lon="-4.890683">
        <ele>1877.0</ele>
        <time>2013-07-06T12:38:01Z</time>
      </trkpt>
      <trkpt lat="40.248050" lon="-4.890783">
        <ele>1875.0</ele>
        <time>2013-07-06T12:38:02Z</time>
      </trkpt>
      <trkpt lat="40.248117" lon="-4.890867">
        <ele>1875.0</ele>
        <time>2013-07-06T12:38:03Z</time>
      </trkpt>
      <trkpt lat="40.248200" lon="-4.890917">
        <ele>1875.0</ele>
        <time>2013-07-06T12:38:04Z</time>
      </trkpt>
      <trkpt lat="40.248300" lon="-4.890950">
        <ele>1877.0</ele>
        <time>2013-07-06T12:38:05Z</time>
      </trkpt>
      <trkpt lat="40.248367" lon="-4.890950">
        <ele>1880.0</ele>
        <time>2013-07-06T12:38:06Z</time>
      </trkpt>
      <trkpt lat="40.248433" lon="-4.890950">
        <ele>1882.0</ele>
        <time>2013-07-06T12:38:07Z</time>
      </trkpt>
      <trkpt lat="40.248550" lon="-4.890867">
        <ele>1885.0</ele>
        <time>2013-07-06T12:38:09Z</time>
      </trkpt>
      <trkpt lat="40.248617" lon="-4.890833">
        <ele>1886.0</ele>
        <time>2013-07-06T12:38:10Z</time>
      </trkpt>
      <trkpt lat="40.248650" lon="-4.890783">
        <ele>1888.0</ele>
        <time>2013-07-06T12:38:11Z</time>
      </trkpt>
      <trkpt lat="40.248683" lon="-4.890750">
        <ele>1890.0</ele>
        <time>2013-07-06T12:38:12Z</time>
      </trkpt>
      <trkpt lat="40.248683" lon="-4.890683">
        <ele>1892.0</ele>
        <time>2013-07-06T12:38:13Z</time>
      </trkpt>
      <trkpt lat="40.248667" lon="-4.890617">
        <ele>1893.0</ele>
        <time>2013-07-06T12:38:14Z</time>
      </trkpt>
      <trkpt lat="40.248650" lon="-4.890533">
        <ele>1893.0</ele>
        <time>2013-07-06T12:38:15Z</time>
      </trkpt>
      <trkpt lat="40.248617" lon="-4.890450">
        <ele>1893.0</ele>
        <time>2013-07-06T12:38:16Z</time>
      </trkpt>
      <trkpt lat="40.248567" lon="-4.890383">
        <ele>1893.0</ele>
        <time>2013-07-06T12:38:17Z</time>
      </trkpt>
      <trkpt lat="40.248500" lon="-4.890333">
        <ele>1894.0</ele>
        <time>2013-07-06T12:38:18Z</time>
      </trkpt>
      <trkpt lat="40.248417" lon="-4.890300">
        <ele>1895.0</ele>
        <time>2013-07-06T12:38:19Z</time>
      </trkpt>
      <trkpt lat="40.248317" lon="-4.890267">
        <ele>1896.0</ele>
        <time>2013-07-06T12:38:20Z</time>
      </trkpt>
      <trkpt lat="40.248217" lon="-4.890250">
        <ele>1896.0</ele>
        <time>2013-07-06T12:38:21Z</time>
      </trkpt>
      <trkpt lat="40.248117" lon="-4.890250">
        <ele>1897.0</ele>
        <time>2013-07-06T12:38:22Z</time>
      </trkpt>
      <trkpt lat="40.248017" lon="-4.890267">
        <ele>1898.0</ele>
        <time>2013-07-06T12:38:23Z</time>
      </trkpt>
      <trkpt lat="40.247950" lon="-4.890283">
        <ele>1900.0</ele>
        <time>2013-07-06T12:38:24Z</time>
      </trkpt>
      <trkpt lat="40.247867" lon="-4.890317">
        <ele>1901.0</ele>
        <time>2013-07-06T12:38:25Z</time>
      </trkpt>
      <trkpt lat="40.247783" lon="-4.890350">
        <ele>1902.0</ele>
        <time>2013-07-06T12:38:26Z</time>
      </trkpt>
      <trkpt lat="40.247700" lon="-4.890400">
        <ele>1901.0</ele>
        <time>2013-07-06T12:38:27Z</time>
      </trkpt>
      <trkpt lat="40.247600" lon="-4.890467">
        <ele>1900.0</ele>
        <time>2013-07-06T12:38:28Z</time>
      </trkpt>
      <trkpt lat="40.247450" lon="-4.890650">
        <ele>1900.0</ele>
        <time>2013-07-06T12:38:30Z</time>
      </trkpt>
      <trkpt lat="40.247400" lon="-4.890767">
        <ele>1900.0</ele>
        <time>2013-07-06T12:38:31Z</time>
      </trkpt>
      <trkpt lat="40.247383" lon="-4.890900">
        <ele>1900.0</ele>
        <time>2013-07-06T12:38:32Z</time>
      </trkpt>
      <trkpt lat="40.247350" lon="-4.891033">
        <ele>1901.0</ele>
        <time>2013-07-06T12:38:33Z</time>
      </trkpt>
      <trkpt lat="40.247317" lon="-4.891167">
        <ele>1901.0</ele>
        <time>2013-07-06T12:38:34Z</time>
      </trkpt>
      <trkpt lat="40.247283" lon="-4.891283">
        <ele>1902.0</ele>
        <time>2013-07-06T12:38:35Z</time>
      </trkpt>
      <trkpt lat="40.247267" lon="-4.891400">
        <ele>1903.0</ele>
        <time>2013-07-06T12:38:36Z</time>
      </trkpt>
      <trkpt lat="40.247250" lon="-4.891517">
        <ele>1904.0</ele>
        <time>2013-07-06T12:38:37Z</time>
      </trkpt>
      <trkpt lat="40.247233" lon="-4.891650">
        <ele>1904.0</ele>
        <time>2013-07-06T12:38:38Z</time>
      </trkpt>
      <trkpt lat="40.247233" lon="-4.891767">
        <ele>1904.0</ele>
        <time>2013-07-06T12:38:39Z</time>
      </trkpt>
      <trkpt lat="40.247233" lon="-4.891883">
        <ele>1905.0</ele>
        <time>2013-07-06T12:38:40Z</time>
      </trkpt>
      <trkpt lat="40.247250" lon="-4.892000">
        <ele>1905.0</ele>
        <time>2013-07-06T12:38:41Z</time>
      </trkpt>
      <trkpt lat="40.247283" lon="-4.892100">
        <ele>1905.0</ele>
        <time>2013-07-06T12:38:42Z</time>
      </trkpt>
      <trkpt lat="40.247350" lon="-4.892200">
        <ele>1905.0</ele>
        <time>2013-07-06T12:38:43Z</time>
      </trkpt>
      <trkpt lat="40.247400" lon="-4.892283">
        <ele>1904.0</ele>
        <time>2013-07-06T12:38:44Z</time>
      </trkpt>
      <trkpt lat="40.247483" lon="-4.892350">
        <ele>1904.0</ele>
        <time>2013-07-06T12:38:45Z</time>
      </trkpt>
      <trkpt lat="40.247550" lon="-4.892400">
        <ele>1904.0</ele>
        <time>2013-07-06T12:38:46Z</time>
      </trkpt>
      <trkpt lat="40.247617" lon="-4.892433">
        <ele>1904.0</ele>
        <time>2013-07-06T12:38:47Z</time>
      </trkpt>
      <trkpt lat="40.247700" lon="-4.892483">
        <ele>1904.0</ele>
        <time>2013-07-06T12:38:48Z</time>
      </trkpt>
      <trkpt lat="40.247767" lon="-4.892517">
        <ele>1903.0</ele>
        <time>2013-07-06T12:38:49Z</time>
      </trkpt>
      <trkpt lat="40.247850" lon="-4.892550">
        <ele>1903.0</ele>
        <time>2013-07-06T12:38:50Z</time>
      </trkpt>
      <trkpt lat="40.247917" lon="-4.892567">
        <ele>1902.0</ele>
        <time>2013-07-06T12:38:51Z</time>
      </trkpt>
      <trkpt lat="40.248000" lon="-4.892583">
        <ele>1901.0</ele>
        <time>2013-07-06T12:38:52Z</time>
      </trkpt>
      <trkpt lat="40.248067" lon="-4.892567">
        <ele>1901.0</ele>
        <time>2013-07-06T12:38:53Z</time>
      </trkpt>
      <trkpt lat="40.248133" lon="-4.892550">
        <ele>1901.0</ele>
        <time>2013-07-06T12:38:54Z</time>
      </trkpt>
      <trkpt lat="40.248183" lon="-4.892517">
        <ele>1900.0</ele>
        <time>2013-07-06T12:38:55Z</time>
      </trkpt>
      <trkpt lat="40.248233" lon="-4.892483">
        <ele>1900.0</ele>
        <time>2013-07-06T12:38:56Z</time>
      </trkpt>
      <trkpt lat="40.248283" lon="-4.892433">
        <ele>1899.0</ele>
        <time>2013-07-06T12:38:57Z</time>
      </trkpt>
      <trkpt lat="40.248317" lon="-4.892400">
        <ele>1899.0</ele>
        <time>2013-07-06T12:38:58Z</time>
      </trkpt>
      <trkpt lat="40.248317" lon="-4.892350">
        <ele>1899.0</ele>
        <time>2013-07-06T12:38:59Z</time>
      </trkpt>
      <trkpt lat="40.248317" lon="-4.892300">
        <ele>1898.0</ele>
        <time>2013-07-06T12:39:00Z</time>
      </trkpt>
      <trkpt lat="40.248283" lon="-4.892233">
        <ele>1898.0</ele>
        <time>2013-07-06T12:39:01Z</time>
      </trkpt>
      <trkpt lat="40.248233" lon="-4.892183">
        <ele>1898.0</ele>
        <time>2013-07-06T12:39:02Z</time>
      </trkpt>
      <trkpt lat="40.248183" lon="-4.892117">
        <ele>1898.0</ele>
        <time>2013-07-06T12:39:03Z</time>
      </trkpt>
      <trkpt lat="40.248133" lon="-4.892067">
        <ele>1898.0</ele>
        <time>2013-07-06T12:39:04Z</time>
      </trkpt>
      <trkpt lat="40.248067" lon="-4.892017">
        <ele>1898.0</ele>
        <time>2013-07-06T12:39:05Z</time>
      </trkpt>
      <trkpt lat="40.248000" lon="-4.891983">
        <ele>1898.0</ele>
        <time>2013-07-06T12:39:06Z</time>
      </trkpt>
      <trkpt lat="40.247917" lon="-4.891967">
        <ele>1897.0</ele>
        <time>2013-07-06T12:39:07Z</time>
      </trkpt>
      <trkpt lat="40.247817" lon="-4.891967">
        <ele>1897.0</ele>
        <time>2013-07-06T12:39:08Z</time>
      </trkpt>
      <trkpt lat="40.247733" lon="-4.891983">
        <ele>1896.0</ele>
        <time>2013-07-06T12:39:09Z</time>
      </trkpt>
      <trkpt lat="40.247633" lon="-4.891983">
        <ele>1895.0</ele>
        <time>2013-07-06T12:39:10Z</time>
      </trkpt>
      <trkpt lat="40.247550" lon="-4.891967">
        <ele>1895.0</ele>
        <time>2013-07-06T12:39:11Z</time>
      </trkpt>
      <trkpt lat="40.247483" lon="-4.891933">
        <ele>1894.0</ele>
        <time>2013-07-06T12:39:12Z</time>
      </trkpt>
      <trkpt lat="40.247417" lon="-4.891883">
        <ele>1894.0</ele>
        <time>2013-07-06T12:39:13Z</time>
      </trkpt>
      <trkpt lat="40.247367" lon="-4.891817">
        <ele>1894.0</ele>
        <time>2013-07-06T12:39:14Z</time>
      </trkpt>
      <trkpt lat="40.247350" lon="-4.891733">
        <ele>1894.0</ele>
        <time>2013-07-06T12:39:15Z</time>
      </trkpt>
      <trkpt lat="40.247333" lon="-4.891650">
        <ele>1894.0</ele>
        <time>2013-07-06T12:39:16Z</time>
      </trkpt>
      <trkpt lat="40.247333" lon="-4.891583">
        <ele>1894.0</ele>
        <time>2013-07-06T12:39:17Z</time>
      </trkpt>
      <trkpt lat="40.247333" lon="-4.891517">
        <ele>1894.0</ele>
        <time>2013-07-06T12:39:18Z</time>
      </trkpt>
      <trkpt lat="40.247333" lon="-4.891450">
        <ele>1894.0</ele>
        <time>2013-07-06T12:39:19Z</time>
      </trkpt>
      <trkpt lat="40.247333" lon="-4.891367">
        <ele>1893.0</ele>
        <time>2013-07-06T12:39:20Z</time>
      </trkpt>
      <trkpt lat="40.247333" lon="-4.891283">
        <ele>1891.0</ele>
        <time>2013-07-06T12:39:21Z</time>
      </trkpt>
      <trkpt lat="40.247350" lon="-4.891200">
        <ele>1889.0</ele>
        <time>2013-07-06T12:39:22Z</time>
      </trkpt>
      <trkpt lat="40.247383" lon="-4.891117">
        <ele>1887.0</ele>
        <time>2013-07-06T12:39:23Z</time>
      </trkpt>
      <trkpt lat="40.247417" lon="-4.891017">
        <ele>1887.0</ele>
        <time>2013-07-06T12:39:24Z</time>
      </trkpt>
      <trkpt lat="40.247450" lon="-4.890950">
        <ele>1887.0</ele>
        <time>2013-07-06T12:39:25Z</time>
      </trkpt>
      <trkpt lat="40.247483" lon="-4.890883">
        <ele>1888.0</ele>
        <time>2013-07-06T12:39:26Z</time>
      </trkpt>
      <trkpt lat="40.247500" lon="-4.890817">
        <ele>1889.0</ele>
        <time>2013-07-06T12:39:27Z</time>
      </trkpt>
      <trkpt lat="40.247517" lon="-4.890767">
        <ele>1890.0</ele>
        <time>2013-07-06T12:39:28Z</time>
      </trkpt>
      <trkpt lat="40.247533" lon="-4.890700">
        <ele>1889.0</ele>
        <time>2013-07-06T12:39:29Z</time>
      </trkpt>
      <trkpt lat="40.247567" lon="-4.890617">
        <ele>1888.0</ele>
        <time>2013-07-06T12:39:30Z</time>
      </trkpt>
      <trkpt lat="40.247583" lon="-4.890550">
        <ele>1888.0</ele>
        <time>2013-07-06T12:39:31Z</time>
      </trkpt>
      <trkpt lat="40.247600" lon="-4.890483">
        <ele>1888.0</ele>
        <time>2013-07-06T12:39:32Z</time>
      </trkpt>
      <trkpt lat="40.247600" lon="-4.890417">
        <ele>1890.0</ele>
        <time>2013-07-06T12:39:33Z</time>
      </trkpt>
      <trkpt lat="40.247583" lon="-4.890333">
        <ele>1890.0</ele>
        <time>2013-07-06T12:39:34Z</time>
      </trkpt>
      <trkpt lat="40.247550" lon="-4.890267">
        <ele>1889.0</ele>
        <time>2013-07-06T12:39:35Z</time>
      </trkpt>
      <trkpt lat="40.247517" lon="-4.890167">
        <ele>1887.0</ele>
        <time>2013-07-06T12:39:36Z</time>
      </trkpt>
      <trkpt lat="40.247483" lon="-4.890067">
        <ele>1885.0</ele>
        <time>2013-07-06T12:39:37Z</time>
      </trkpt>
      <trkpt lat="40.247467" lon="-4.889950">
        <ele>1884.0</ele>
        <time>2013-07-06T12:39:38Z</time>
      </trkpt>
      <trkpt lat="40.247433" lon="-4.889833">
        <ele>1883.0</ele>
        <time>2013-07-06T12:39:39Z</time>
      </trkpt>
      <trkpt lat="40.247383" lon="-4.889750">
        <ele>1883.0</ele>
        <time>2013-07-06T12:39:40Z</time>
      </trkpt>
      <trkpt lat="40.247317" lon="-4.889700">
        <ele>1883.0</ele>
        <time>2013-07-06T12:39:41Z</time>
      </trkpt>
      <trkpt lat="40.247233" lon="-4.889667">
        <ele>1882.0</ele>
        <time>2013-07-06T12:39:42Z</time>
      </trkpt>
      <trkpt lat="40.247167" lon="-4.889617">
        <ele>1882.0</ele>
        <time>2013-07-06T12:39:43Z</time>
      </trkpt>
      <trkpt lat="40.247083" lon="-4.889567">
        <ele>1881.0</ele>
        <time>2013-07-06T12:39:44Z</time>
      </trkpt>
      <trkpt lat="40.246967" lon="-4.889517">
        <ele>1879.0</ele>
        <time>2013-07-06T12:39:45Z</time>
      </trkpt>
      <trkpt lat="40.246850" lon="-4.889483">
        <ele>1877.0</ele>
        <time>2013-07-06T12:39:46Z</time>
      </trkpt>
      <trkpt lat="40.246733" lon="-4.889483">
        <ele>1876.0</ele>
        <time>2013-07-06T12:39:47Z</time>
      </trkpt>
      <trkpt lat="40.246650" lon="-4.889517">
        <ele>1875.0</ele>
        <time>2013-07-06T12:39:48Z</time>
      </trkpt>
      <trkpt lat="40.246550" lon="-4.889567">
        <ele>1874.0</ele>
        <time>2013-07-06T12:39:49Z</time>
      </trkpt>
      <trkpt lat="40.246450" lon="-4.889633">
        <ele>1874.0</ele>
        <time>2013-07-06T12:39:50Z</time>
      </trkpt>
      <trkpt lat="40.246350" lon="-4.889700">
        <ele>1873.0</ele>
        <time>2013-07-06T12:39:51Z</time>
      </trkpt>
      <trkpt lat="40.246250" lon="-4.889783">
        <ele>1873.0</ele>
        <time>2013-07-06T12:39:52Z</time>
      </trkpt>
      <trkpt lat="40.246167" lon="-4.889867">
        <ele>1872.0</ele>
        <time>2013-07-06T12:39:53Z</time>
      </trkpt>
      <trkpt lat="40.246117" lon="-4.889950">
        <ele>1871.0</ele>
        <time>2013-07-06T12:39:54Z</time>
      </trkpt>
      <trkpt lat="40.246067" lon="-4.890050">
        <ele>1874.0</ele>
        <time>2013-07-06T12:39:55Z</time>
      </trkpt>
      <trkpt lat="40.246050" lon="-4.890150">
        <ele>1873.0</ele>
        <time>2013-07-06T12:39:56Z</time>
      </trkpt>
      <trkpt lat="40.246033" lon="-4.890250">
        <ele>1872.0</ele>
        <time>2013-07-06T12:39:57Z</time>
      </trkpt>
      <trkpt lat="40.246033" lon="-4.890367">
        <ele>1871.0</ele>
        <time>2013-07-06T12:39:58Z</time>
      </trkpt>
      <trkpt lat="40.246050" lon="-4.890450">
        <ele>1870.0</ele>
        <time>2013-07-06T12:39:59Z</time>
      </trkpt>
      <trkpt lat="40.246100" lon="-4.890533">
        <ele>1869.0</ele>
        <time>2013-07-06T12:40:00Z</time>
      </trkpt>
      <trkpt lat="40.246150" lon="-4.890600">
        <ele>1869.0</ele>
        <time>2013-07-06T12:40:01Z</time>
      </trkpt>
      <trkpt lat="40.246200" lon="-4.890650">
        <ele>1868.0</ele>
        <time>2013-07-06T12:40:02Z</time>
      </trkpt>
      <trkpt lat="40.246350" lon="-4.890717">
        <ele>1866.0</ele>
        <time>2013-07-06T12:40:04Z</time>
      </trkpt>
      <trkpt lat="40.246417" lon="-4.890733">
        <ele>1866.0</ele>
        <time>2013-07-06T12:40:05Z</time>
      </trkpt>
      <trkpt lat="40.246483" lon="-4.890750">
        <ele>1867.0</ele>
        <time>2013-07-06T12:40:06Z</time>
      </trkpt>
      <trkpt lat="40.246533" lon="-4.890750">
        <ele>1868.0</ele>
        <time>2013-07-06T12:40:07Z</time>
      </trkpt>
      <trkpt lat="40.246583" lon="-4.890750">
        <ele>1869.0</ele>
        <time>2013-07-06T12:40:08Z</time>
      </trkpt>
      <trkpt lat="40.246650" lon="-4.890733">
        <ele>1868.0</ele>
        <time>2013-07-06T12:40:09Z</time>
      </trkpt>
      <trkpt lat="40.246717" lon="-4.890700">
        <ele>1868.0</ele>
        <time>2013-07-06T12:40:10Z</time>
      </trkpt>
      <trkpt lat="40.246767" lon="-4.890650">
        <ele>1869.0</ele>
        <time>2013-07-06T12:40:11Z</time>
      </trkpt>
      <trkpt lat="40.246833" lon="-4.890550">
        <ele>1870.0</ele>
        <time>2013-07-06T12:40:13Z</time>
      </trkpt>
      <trkpt lat="40.246867" lon="-4.890483">
        <ele>1870.0</ele>
        <time>2013-07-06T12:40:14Z</time>
      </trkpt>
      <trkpt lat="40.246883" lon="-4.890383">
        <ele>1870.0</ele>
        <time>2013-07-06T12:40:15Z</time>
      </trkpt>
      <trkpt lat="40.246900" lon="-4.890283">
        <ele>1870.0</ele>
        <time>2013-07-06T12:40:16Z</time>
      </trkpt>
      <trkpt lat="40.246883" lon="-4.890167">
        <ele>1870.0</ele>
        <time>2013-07-06T12:40:17Z</time>
      </trkpt>
      <trkpt lat="40.246850" lon="-4.890083">
        <ele>1870.0</ele>
        <time>2013-07-06T12:40:18Z</time>
      </trkpt>
      <trkpt lat="40.246817" lon="-4.890000">
        <ele>1870.0</ele>
        <time>2013-07-06T12:40:19Z</time>
      </trkpt>
      <trkpt lat="40.246750" lon="-4.889933">
        <ele>1871.0</ele>
        <time>2013-07-06T12:40:20Z</time>
      </trkpt>
      <trkpt lat="40.246700" lon="-4.889867">
        <ele>1869.0</ele>
        <time>2013-07-06T12:40:21Z</time>
      </trkpt>
      <trkpt lat="40.246617" lon="-4.889783">
        <ele>1866.0</ele>
        <time>2013-07-06T12:40:22Z</time>
      </trkpt>
      <trkpt lat="40.246550" lon="-4.889683">
        <ele>1864.0</ele>
        <time>2013-07-06T12:40:23Z</time>
      </trkpt>
      <trkpt lat="40.246467" lon="-4.889600">
        <ele>1863.0</ele>
        <time>2013-07-06T12:40:24Z</time>
      </trkpt>
      <trkpt lat="40.246400" lon="-4.889500">
        <ele>1863.0</ele>
        <time>2013-07-06T12:40:25Z</time>
      </trkpt>
      <trkpt lat="40.246333" lon="-4.889417">
        <ele>1861.0</ele>
        <time>2013-07-06T12:40:26Z</time>
      </trkpt>
      <trkpt lat="40.246250" lon="-4.889333">
        <ele>1860.0</ele>
        <time>2013-07-06T12:40:27Z</time>
      </trkpt>
      <trkpt lat="40.246167" lon="-4.889267">
        <ele>1859.0</ele>
        <time>2013-07-06T12:40:28Z</time>
      </trkpt>
      <trkpt lat="40.246083" lon="-4.889200">
        <ele>1858.0</ele>
        <time>2013-07-06T12:40:29Z</time>
      </trkpt>
      <trkpt lat="40.246000" lon="-4.889133">
        <ele>1860.0</ele>
        <time>2013-07-06T12:40:30Z</time>
      </trkpt>
      <trkpt lat="40.245917" lon="-4.889100">
        <ele>1861.0</ele>
        <time>2013-07-06T12:40:31Z</time>
      </trkpt>
      <trkpt lat="40.245817" lon="-4.889083">
        <ele>1861.0</ele>
        <time>2013-07-06T12:40:32Z</time>
      </trkpt>
      <trkpt lat="40.245633" lon="-4.889083">
        <ele>1860.0</ele>
        <time>2013-07-06T12:40:34Z</time>
      </trkpt>
      <trkpt lat="40.245517" lon="-4.889117">
        <ele>1860.0</ele>
        <time>2013-07-06T12:40:35Z</time>
      </trkpt>
      <trkpt lat="40.245417" lon="-4.889167">
        <ele>1859.0</ele>
        <time>2013-07-06T12:40:36Z</time>
      </trkpt>
      <trkpt lat="40.245317" lon="-4.889233">
        <ele>1857.0</ele>
        <time>2013-07-06T12:40:37Z</time>
      </trkpt>
      <trkpt lat="40.245250" lon="-4.889317">
        <ele>1855.0</ele>
        <time>2013-07-06T12:40:38Z</time>
      </trkpt>
      <trkpt lat="40.245183" lon="-4.889400">
        <ele>1854.0</ele>
        <time>2013-07-06T12:40:39Z</time>
      </trkpt>
      <trkpt lat="40.245133" lon="-4.889483">
        <ele>1853.0</ele>
        <time>2013-07-06T12:40:40Z</time>
      </trkpt>
      <trkpt lat="40.245100" lon="-4.889583">
        <ele>1851.0</ele>
        <time>2013-07-06T12:40:41Z</time>
      </trkpt>
      <trkpt lat="40.245050" lon="-4.889683">
        <ele>1849.0</ele>
        <time>2013-07-06T12:40:42Z</time>
      </trkpt>
      <trkpt lat="40.245033" lon="-4.889800">
        <ele>1847.0</ele>
        <time>2013-07-06T12:40:43Z</time>
      </trkpt>
      <trkpt lat="40.245033" lon="-4.889900">
        <ele>1845.0</ele>
        <time>2013-07-06T12:40:44Z</time>
      </trkpt>
      <trkpt lat="40.245067" lon="-4.890000">
        <ele>1843.0</ele>
        <time>2013-07-06T12:40:45Z</time>
      </trkpt>
      <trkpt lat="40.245117" lon="-4.890067">
        <ele>1840.0</ele>
        <time>2013-07-06T12:40:46Z</time>
      </trkpt>
      <trkpt lat="40.245267" lon="-4.890167">
        <ele>1838.0</ele>
        <time>2013-07-06T12:40:49Z</time>
      </trkpt>
      <trkpt lat="40.245383" lon="-4.890167">
        <ele>1835.0</ele>
        <time>2013-07-06T12:40:51Z</time>
      </trkpt>
      <trkpt lat="40.245450" lon="-4.890150">
        <ele>1834.0</ele>
        <time>2013-07-06T12:40:52Z</time>
      </trkpt>
      <trkpt lat="40.245517" lon="-4.890133">
        <ele>1833.0</ele>
        <time>2013-07-06T12:40:53Z</time>
      </trkpt>
      <trkpt lat="40.245567" lon="-4.890117">
        <ele>1833.0</ele>
        <time>2013-07-06T12:40:54Z</time>
      </trkpt>
      <trkpt lat="40.245617" lon="-4.890083">
        <ele>1832.0</ele>
        <time>2013-07-06T12:40:55Z</time>
      </trkpt>
      <trkpt lat="40.245667" lon="-4.890033">
        <ele>1830.0</ele>
        <time>2013-07-06T12:40:56Z</time>
      </trkpt>
      <trkpt lat="40.245717" lon="-4.889967">
        <ele>1828.0</ele>
        <time>2013-07-06T12:40:57Z</time>
      </trkpt>
      <trkpt lat="40.245767" lon="-4.889900">
        <ele>1826.0</ele>
        <time>2013-07-06T12:40:58Z</time>
      </trkpt>
      <trkpt lat="40.245800" lon="-4.889800">
        <ele>1824.0</ele>
        <time>2013-07-06T12:40:59Z</time>
      </trkpt>
      <trkpt lat="40.245800" lon="-4.889717">
        <ele>1823.0</ele>
        <time>2013-07-06T12:41:00Z</time>
      </trkpt>
      <trkpt lat="40.245783" lon="-4.889617">
        <ele>1821.0</ele>
        <time>2013-07-06T12:41:01Z</time>
      </trkpt>
      <trkpt lat="40.245750" lon="-4.889517">
        <ele>1819.0</ele>
        <time>2013-07-06T12:41:02Z</time>
      </trkpt>
      <trkpt lat="40.245717" lon="-4.889400">
        <ele>1817.0</ele>
        <time>2013-07-06T12:41:03Z</time>
      </trkpt>
      <trkpt lat="40.245683" lon="-4.889300">
        <ele>1815.0</ele>
        <time>2013-07-06T12:41:04Z</time>
      </trkpt>
      <trkpt lat="40.245650" lon="-4.889200">
        <ele>1814.0</ele>
        <time>2013-07-06T12:41:05Z</time>
      </trkpt>
      <trkpt lat="40.245600" lon="-4.889133">
        <ele>1813.0</ele>
        <time>2013-07-06T12:41:06Z</time>
      </trkpt>
      <trkpt lat="40.245567" lon="-4.889083">
        <ele>1813.0</ele>
        <time>2013-07-06T12:41:07Z</time>
      </trkpt>
      <trkpt lat="40.245517" lon="-4.889017">
        <ele>1811.0</ele>
        <time>2013-07-06T12:41:08Z</time>
      </trkpt>
      <trkpt lat="40.245467" lon="-4.888950">
        <ele>1809.0</ele>
        <time>2013-07-06T12:41:09Z</time>
      </trkpt>
      <trkpt lat="40.245383" lon="-4.888883">
        <ele>1807.0</ele>
        <time>2013-07-06T12:41:10Z</time>
      </trkpt>
      <trkpt lat="40.245317" lon="-4.888817">
        <ele>1805.0</ele>
        <time>2013-07-06T12:41:11Z</time>
      </trkpt>
      <trkpt lat="40.245250" lon="-4.888750">
        <ele>1805.0</ele>
        <time>2013-07-06T12:41:12Z</time>
      </trkpt>
      <trkpt lat="40.245200" lon="-4.888700">
        <ele>1804.0</ele>
        <time>2013-07-06T12:41:13Z</time>
      </trkpt>
      <trkpt lat="40.245133" lon="-4.888650">
        <ele>1802.0</ele>
        <time>2013-07-06T12:41:14Z</time>
      </trkpt>
      <trkpt lat="40.245050" lon="-4.888583">
        <ele>1800.0</ele>
        <time>2013-07-06T12:41:15Z</time>
      </trkpt>
      <trkpt lat="40.244967" lon="-4.888517">
        <ele>1798.0</ele>
        <time>2013-07-06T12:41:16Z</time>
      </trkpt>
      <trkpt lat="40.244900" lon="-4.888467">
        <ele>1797.0</ele>
        <time>2013-07-06T12:41:17Z</time>
      </trkpt>
      <trkpt lat="40.244833" lon="-4.888433">
        <ele>1797.0</ele>
        <time>2013-07-06T12:41:18Z</time>
      </trkpt>
      <trkpt lat="40.244767" lon="-4.888400">
        <ele>1797.0</ele>
        <time>2013-07-06T12:41:19Z</time>
      </trkpt>
      <trkpt lat="40.244700" lon="-4.888350">
        <ele>1796.0</ele>
        <time>2013-07-06T12:41:20Z</time>
      </trkpt>
      <trkpt lat="40.244617" lon="-4.888300">
        <ele>1794.0</ele>
        <time>2013-07-06T12:41:21Z</time>
      </trkpt>
      <trkpt lat="40.244517" lon="-4.888250">
        <ele>1793.0</ele>
        <time>2013-07-06T12:41:22Z</time>
      </trkpt>
      <trkpt lat="40.244433" lon="-4.888183">
        <ele>1792.0</ele>
        <time>2013-07-06T12:41:23Z</time>
      </trkpt>
      <trkpt lat="40.244367" lon="-4.888133">
        <ele>1791.0</ele>
        <time>2013-07-06T12:41:24Z</time>
      </trkpt>
      <trkpt lat="40.244300" lon="-4.888083">
        <ele>1790.0</ele>
        <time>2013-07-06T12:41:25Z</time>
      </trkpt>
      <trkpt lat="40.244233" lon="-4.888033">
        <ele>1789.0</ele>
        <time>2013-07-06T12:41:26Z</time>
      </trkpt>
      <trkpt lat="40.244167" lon="-4.887983">
        <ele>1787.0</ele>
        <time>2013-07-06T12:41:27Z</time>
      </trkpt>
      <trkpt lat="40.244083" lon="-4.887917">
        <ele>1785.0</ele>
        <time>2013-07-06T12:41:28Z</time>
      </trkpt>
      <trkpt lat="40.243983" lon="-4.887850">
        <ele>1783.0</ele>
        <time>2013-07-06T12:41:29Z</time>
      </trkpt>
      <trkpt lat="40.243900" lon="-4.887783">
        <ele>1781.0</ele>
        <time>2013-07-06T12:41:30Z</time>
      </trkpt>
      <trkpt lat="40.243800" lon="-4.887733">
        <ele>1780.0</ele>
        <time>2013-07-06T12:41:31Z</time>
      </trkpt>
      <trkpt lat="40.243733" lon="-4.887683">
        <ele>1779.0</ele>
        <time>2013-07-06T12:41:32Z</time>
      </trkpt>
      <trkpt lat="40.243633" lon="-4.887633">
        <ele>1778.0</ele>
        <time>2013-07-06T12:41:33Z</time>
      </trkpt>
      <trkpt lat="40.243550" lon="-4.887583">
        <ele>1776.0</ele>
        <time>2013-07-06T12:41:34Z</time>
      </trkpt>
      <trkpt lat="40.243467" lon="-4.887533">
        <ele>1775.0</ele>
        <time>2013-07-06T12:41:35Z</time>
      </trkpt>
      <trkpt lat="40.243367" lon="-4.887483">
        <ele>1773.0</ele>
        <time>2013-07-06T12:41:36Z</time>
      </trkpt>
      <trkpt lat="40.243283" lon="-4.887450">
        <ele>1771.0</ele>
        <time>2013-07-06T12:41:37Z</time>
      </trkpt>
      <trkpt lat="40.243183" lon="-4.887400">
        <ele>1770.0</ele>
        <time>2013-07-06T12:41:38Z</time>
      </trkpt>
      <trkpt lat="40.243100" lon="-4.887367">
        <ele>1769.0</ele>
        <time>2013-07-06T12:41:39Z</time>
      </trkpt>
      <trkpt lat="40.243017" lon="-4.887333">
        <ele>1769.0</ele>
        <time>2013-07-06T12:41:40Z</time>
      </trkpt>
      <trkpt lat="40.242933" lon="-4.887300">
        <ele>1770.0</ele>
        <time>2013-07-06T12:41:41Z</time>
      </trkpt>
      <trkpt lat="40.242867" lon="-4.887267">
        <ele>1769.0</ele>
        <time>2013-07-06T12:41:42Z</time>
      </trkpt>
      <trkpt lat="40.242800" lon="-4.887233">
        <ele>1769.0</ele>
        <time>2013-07-06T12:41:43Z</time>
      </trkpt>
      <trkpt lat="40.242717" lon="-4.887200">
        <ele>1768.0</ele>
        <time>2013-07-06T12:41:44Z</time>
      </trkpt>
      <trkpt lat="40.242633" lon="-4.887167">
        <ele>1767.0</ele>
        <time>2013-07-06T12:41:45Z</time>
      </trkpt>
      <trkpt lat="40.242533" lon="-4.887133">
        <ele>1767.0</ele>
        <time>2013-07-06T12:41:46Z</time>
      </trkpt>
      <trkpt lat="40.242467" lon="-4.887117">
        <ele>1766.0</ele>
        <time>2013-07-06T12:41:47Z</time>
      </trkpt>
      <trkpt lat="40.242383" lon="-4.887100">
        <ele>1766.0</ele>
        <time>2013-07-06T12:41:48Z</time>
      </trkpt>
      <trkpt lat="40.242300" lon="-4.887067">
        <ele>1765.0</ele>
        <time>2013-07-06T12:41:49Z</time>
      </trkpt>
      <trkpt lat="40.242200" lon="-4.887033">
        <ele>1764.0</ele>
        <time>2013-07-06T12:41:50Z</time>
      </trkpt>
      <trkpt lat="40.242117" lon="-4.887000">
        <ele>1764.0</ele>
        <time>2013-07-06T12:41:51Z</time>
      </trkpt>
      <trkpt lat="40.242017" lon="-4.886967">
        <ele>1763.0</ele>
        <time>2013-07-06T12:41:52Z</time>
      </trkpt>
      <trkpt lat="40.241917" lon="-4.886933">
        <ele>1763.0</ele>
        <time>2013-07-06T12:41:53Z</time>
      </trkpt>
      <trkpt lat="40.241817" lon="-4.886917">
        <ele>1763.0</ele>
        <time>2013-07-06T12:41:54Z</time>
      </trkpt>
      <trkpt lat="40.241733" lon="-4.886867">
        <ele>1763.0</ele>
        <time>2013-07-06T12:41:55Z</time>
      </trkpt>
      <trkpt lat="40.241650" lon="-4.886833">
        <ele>1763.0</ele>
        <time>2013-07-06T12:41:56Z</time>
      </trkpt>
      <trkpt lat="40.241567" lon="-4.886800">
        <ele>1764.0</ele>
        <time>2013-07-06T12:41:57Z</time>
      </trkpt>
      <trkpt lat="40.241500" lon="-4.886767">
        <ele>1764.0</ele>
        <time>2013-07-06T12:41:58Z</time>
      </trkpt>
      <trkpt lat="40.241417" lon="-4.886733">
        <ele>1764.0</ele>
        <time>2013-07-06T12:41:59Z</time>
      </trkpt>
      <trkpt lat="40.241333" lon="-4.886700">
        <ele>1763.0</ele>
        <time>2013-07-06T12:42:00Z</time>
      </trkpt>
      <trkpt lat="40.241250" lon="-4.886650">
        <ele>1762.0</ele>
        <time>2013-07-06T12:42:01Z</time>
      </trkpt>
      <trkpt lat="40.241167" lon="-4.886600">
        <ele>1761.0</ele>
        <time>2013-07-06T12:42:02Z</time>
      </trkpt>
      <trkpt lat="40.241100" lon="-4.886567">
        <ele>1760.0</ele>
        <time>2013-07-06T12:42:03Z</time>
      </trkpt>
      <trkpt lat="40.241017" lon="-4.886550">
        <ele>1758.0</ele>
        <time>2013-07-06T12:42:04Z</time>
      </trkpt>
      <trkpt lat="40.240933" lon="-4.886533">
        <ele>1757.0</ele>
        <time>2013-07-06T12:42:05Z</time>
      </trkpt>
      <trkpt lat="40.240867" lon="-4.886517">
        <ele>1757.0</ele>
        <time>2013-07-06T12:42:06Z</time>
      </trkpt>
      <trkpt lat="40.240800" lon="-4.886517">
        <ele>1758.0</ele>
        <time>2013-07-06T12:42:07Z</time>
      </trkpt>
      <trkpt lat="40.240733" lon="-4.886500">
        <ele>1758.0</ele>
        <time>2013-07-06T12:42:08Z</time>
      </trkpt>
      <trkpt lat="40.240683" lon="-4.886500">
        <ele>1758.0</ele>
        <time>2013-07-06T12:42:09Z</time>
      </trkpt>
      <trkpt lat="40.240617" lon="-4.886500">
        <ele>1758.0</ele>
        <time>2013-07-06T12:42:10Z</time>
      </trkpt>
      <trkpt lat="40.240533" lon="-4.886500">
        <ele>1757.0</ele>
        <time>2013-07-06T12:42:11Z</time>
      </trkpt>
      <trkpt lat="40.240450" lon="-4.886500">
        <ele>1756.0</ele>
        <time>2013-07-06T12:42:12Z</time>
      </trkpt>
      <trkpt lat="40.240367" lon="-4.886500">
        <ele>1755.0</ele>
        <time>2013-07-06T12:42:13Z</time>
      </trkpt>
      <trkpt lat="40.240283" lon="-4.886500">
        <ele>1754.0</ele>
        <time>2013-07-06T12:42:14Z</time>
      </trkpt>
      <trkpt lat="40.240200" lon="-4.886500">
        <ele>1753.0</ele>
        <time>2013-07-06T12:42:15Z</time>
      </trkpt>
      <trkpt lat="40.240100" lon="-4.886483">
        <ele>1752.0</ele>
        <time>2013-07-06T12:42:16Z</time>
      </trkpt>
      <trkpt lat="40.240017" lon="-4.886467">
        <ele>1751.0</ele>
        <time>2013-07-06T12:42:17Z</time>
      </trkpt>
      <trkpt lat="40.239933" lon="-4.886467">
        <ele>1751.0</ele>
        <time>2013-07-06T12:42:18Z</time>
      </trkpt>
      <trkpt lat="40.239850" lon="-4.886450">
        <ele>1751.0</ele>
        <time>2013-07-06T12:42:19Z</time>
      </trkpt>
      <trkpt lat="40.239783" lon="-4.886450">
        <ele>1750.0</ele>
        <time>2013-07-06T12:42:20Z</time>
      </trkpt>
      <trkpt lat="40.239700" lon="-4.886433">
        <ele>1749.0</ele>
        <time>2013-07-06T12:42:21Z</time>
      </trkpt>
      <trkpt lat="40.239617" lon="-4.886417">
        <ele>1747.0</ele>
        <time>2013-07-06T12:42:22Z</time>
      </trkpt>
      <trkpt lat="40.239533" lon="-4.886400">
        <ele>1745.0</ele>
        <time>2013-07-06T12:42:23Z</time>
      </trkpt>
      <trkpt lat="40.239450" lon="-4.886400">
        <ele>1743.0</ele>
        <time>2013-07-06T12:42:24Z</time>
      </trkpt>
      <trkpt lat="40.239367" lon="-4.886383">
        <ele>1742.0</ele>
        <time>2013-07-06T12:42:25Z</time>
      </trkpt>
      <trkpt lat="40.239283" lon="-4.886383">
        <ele>1740.0</ele>
        <time>2013-07-06T12:42:26Z</time>
      </trkpt>
      <trkpt lat="40.239217" lon="-4.886367">
        <ele>1738.0</ele>
        <time>2013-07-06T12:42:27Z</time>
      </trkpt>
      <trkpt lat="40.239150" lon="-4.886350">
        <ele>1736.0</ele>
        <time>2013-07-06T12:42:28Z</time>
      </trkpt>
      <trkpt lat="40.239083" lon="-4.886350">
        <ele>1735.0</ele>
        <time>2013-07-06T12:42:29Z</time>
      </trkpt>
      <trkpt lat="40.239000" lon="-4.886317">
        <ele>1732.0</ele>
        <time>2013-07-06T12:42:30Z</time>
      </trkpt>
      <trkpt lat="40.238917" lon="-4.886300">
        <ele>1730.0</ele>
        <time>2013-07-06T12:42:31Z</time>
      </trkpt>
      <trkpt lat="40.238833" lon="-4.886267">
        <ele>1728.0</ele>
        <time>2013-07-06T12:42:32Z</time>
      </trkpt>
      <trkpt lat="40.238750" lon="-4.886233">
        <ele>1727.0</ele>
        <time>2013-07-06T12:42:33Z</time>
      </trkpt>
      <trkpt lat="40.238683" lon="-4.886200">
        <ele>1728.0</ele>
        <time>2013-07-06T12:42:34Z</time>
      </trkpt>
      <trkpt lat="40.238633" lon="-4.886183">
        <ele>1729.0</ele>
        <time>2013-07-06T12:42:35Z</time>
      </trkpt>
      <trkpt lat="40.238583" lon="-4.886150">
        <ele>1727.0</ele>
        <time>2013-07-06T12:42:36Z</time>
      </trkpt>
      <trkpt lat="40.238533" lon="-4.886100">
        <ele>1724.0</ele>
        <time>2013-07-06T12:42:37Z</time>
      </trkpt>
      <trkpt lat="40.238467" lon="-4.886067">
        <ele>1722.0</ele>
        <time>2013-07-06T12:42:38Z</time>
      </trkpt>
      <trkpt lat="40.238417" lon="-4.886017">
        <ele>1720.0</ele>
        <time>2013-07-06T12:42:39Z</time>
      </trkpt>
      <trkpt lat="40.238350" lon="-4.885983">
        <ele>1717.0</ele>
        <time>2013-07-06T12:42:40Z</time>
      </trkpt>
      <trkpt lat="40.238300" lon="-4.885950">
        <ele>1714.0</ele>
        <time>2013-07-06T12:42:41Z</time>
      </trkpt>
      <trkpt lat="40.238250" lon="-4.885917">
        <ele>1711.0</ele>
        <time>2013-07-06T12:42:42Z</time>
      </trkpt>
      <trkpt lat="40.238183" lon="-4.885883">
        <ele>1708.0</ele>
        <time>2013-07-06T12:42:43Z</time>
      </trkpt>
      <trkpt lat="40.238117" lon="-4.885850">
        <ele>1705.0</ele>
        <time>2013-07-06T12:42:44Z</time>
      </trkpt>
      <trkpt lat="40.238050" lon="-4.885817">
        <ele>1702.0</ele>
        <time>2013-07-06T12:42:45Z</time>
      </trkpt>
      <trkpt lat="40.237983" lon="-4.885783">
        <ele>1700.0</ele>
        <time>2013-07-06T12:42:46Z</time>
      </trkpt>
      <trkpt lat="40.237900" lon="-4.885767">
        <ele>1698.0</ele>
        <time>2013-07-06T12:42:47Z</time>
      </trkpt>
      <trkpt lat="40.237833" lon="-4.885750">
        <ele>1697.0</ele>
        <time>2013-07-06T12:42:48Z</time>
      </trkpt>
      <trkpt lat="40.237767" lon="-4.885750">
        <ele>1697.0</ele>
        <time>2013-07-06T12:42:49Z</time>
      </trkpt>
      <trkpt lat="40.237700" lon="-4.885733">
        <ele>1696.0</ele>
        <time>2013-07-06T12:42:50Z</time>
      </trkpt>
      <trkpt lat="40.237650" lon="-4.885717">
        <ele>1696.0</ele>
        <time>2013-07-06T12:42:51Z</time>
      </trkpt>
      <trkpt lat="40.237583" lon="-4.885700">
        <ele>1695.0</ele>
        <time>2013-07-06T12:42:52Z</time>
      </trkpt>
      <trkpt lat="40.237400" lon="-4.885650">
        <ele>1693.0</ele>
        <time>2013-07-06T12:42:54Z</time>
      </trkpt>
      <trkpt lat="40.237317" lon="-4.885633">
        <ele>1693.0</ele>
        <time>2013-07-06T12:42:55Z</time>
      </trkpt>
      <trkpt lat="40.237250" lon="-4.885617">
        <ele>1693.0</ele>
        <time>2013-07-06T12:42:56Z</time>
      </trkpt>
      <trkpt lat="40.237200" lon="-4.885617">
        <ele>1694.0</ele>
        <time>2013-07-06T12:42:57Z</time>
      </trkpt>
      <trkpt lat="40.237133" lon="-4.885600">
        <ele>1693.0</ele>
        <time>2013-07-06T12:42:58Z</time>
      </trkpt>
      <trkpt lat="40.237050" lon="-4.885583">
        <ele>1693.0</ele>
        <time>2013-07-06T12:42:59Z</time>
      </trkpt>
      <trkpt lat="40.236967" lon="-4.885567">
        <ele>1692.0</ele>
        <time>2013-07-06T12:43:00Z</time>
      </trkpt>
      <trkpt lat="40.236883" lon="-4.885550">
        <ele>1692.0</ele>
        <time>2013-07-06T12:43:01Z</time>
      </trkpt>
      <trkpt lat="40.236800" lon="-4.885517">
        <ele>1692.0</ele>
        <time>2013-07-06T12:43:02Z</time>
      </trkpt>
      <trkpt lat="40.236700" lon="-4.885517">
        <ele>1693.0</ele>
        <time>2013-07-06T12:43:03Z</time>
      </trkpt>
      <trkpt lat="40.236617" lon="-4.885500">
        <ele>1694.0</ele>
        <time>2013-07-06T12:43:04Z</time>
      </trkpt>
      <trkpt lat="40.236550" lon="-4.885500">
        <ele>1695.0</ele>
        <time>2013-07-06T12:43:05Z</time>
      </trkpt>
      <trkpt lat="40.236450" lon="-4.885500">
        <ele>1695.0</ele>
        <time>2013-07-06T12:43:06Z</time>
      </trkpt>
      <trkpt lat="40.236367" lon="-4.885483">
        <ele>1695.0</ele>
        <time>2013-07-06T12:43:07Z</time>
      </trkpt>
      <trkpt lat="40.236267" lon="-4.885467">
        <ele>1696.0</ele>
        <time>2013-07-06T12:43:08Z</time>
      </trkpt>
      <trkpt lat="40.236183" lon="-4.885467">
        <ele>1697.0</ele>
        <time>2013-07-06T12:43:09Z</time>
      </trkpt>
      <trkpt lat="40.236100" lon="-4.885450">
        <ele>1698.0</ele>
        <time>2013-07-06T12:43:10Z</time>
      </trkpt>
      <trkpt lat="40.236017" lon="-4.885417">
        <ele>1699.0</ele>
        <time>2013-07-06T12:43:11Z</time>
      </trkpt>
      <trkpt lat="40.235933" lon="-4.885383">
        <ele>1701.0</ele>
        <time>2013-07-06T12:43:12Z</time>
      </trkpt>
      <trkpt lat="40.235850" lon="-4.885350">
        <ele>1701.0</ele>
        <time>2013-07-06T12:43:13Z</time>
      </trkpt>
      <trkpt lat="40.235750" lon="-4.885317">
        <ele>1702.0</ele>
        <time>2013-07-06T12:43:14Z</time>
      </trkpt>
      <trkpt lat="40.235667" lon="-4.885250">
        <ele>1702.0</ele>
        <time>2013-07-06T12:43:15Z</time>
      </trkpt>
      <trkpt lat="40.235617" lon="-4.885183">
        <ele>1703.0</ele>
        <time>2013-07-06T12:43:16Z</time>
      </trkpt>
      <trkpt lat="40.235600" lon="-4.885100">
        <ele>1704.0</ele>
        <time>2013-07-06T12:43:17Z</time>
      </trkpt>
      <trkpt lat="40.235633" lon="-4.885033">
        <ele>1704.0</ele>
        <time>2013-07-06T12:43:18Z</time>
      </trkpt>
      <trkpt lat="40.235700" lon="-4.884983">
        <ele>1703.0</ele>
        <time>2013-07-06T12:43:19Z</time>
      </trkpt>
      <trkpt lat="40.235767" lon="-4.884950">
        <ele>1703.0</ele>
        <time>2013-07-06T12:43:20Z</time>
      </trkpt>
      <trkpt lat="40.235850" lon="-4.884950">
        <ele>1704.0</ele>
        <time>2013-07-06T12:43:21Z</time>
      </trkpt>
      <trkpt lat="40.235917" lon="-4.884967">
        <ele>1704.0</ele>
        <time>2013-07-06T12:43:22Z</time>
      </trkpt>
      <trkpt lat="40.236000" lon="-4.885000">
        <ele>1703.0</ele>
        <time>2013-07-06T12:43:23Z</time>
      </trkpt>
      <trkpt lat="40.236100" lon="-4.885067">
        <ele>1702.0</ele>
        <time>2013-07-06T12:43:24Z</time>
      </trkpt>
      <trkpt lat="40.236183" lon="-4.885150">
        <ele>1700.0</ele>
        <time>2013-07-06T12:43:25Z</time>
      </trkpt>
      <trkpt lat="40.236250" lon="-4.885267">
        <ele>1700.0</ele>
        <time>2013-07-06T12:43:26Z</time>
      </trkpt>
      <trkpt lat="40.236283" lon="-4.885400">
        <ele>1699.0</ele>
        <time>2013-07-06T12:43:27Z</time>
      </trkpt>
      <trkpt lat="40.236300" lon="-4.885533">
        <ele>1700.0</ele>
        <time>2013-07-06T12:43:28Z</time>
      </trkpt>
      <trkpt lat="40.236317" lon="-4.885667">
        <ele>1701.0</ele>
        <time>2013-07-06T12:43:29Z</time>
      </trkpt>
      <trkpt lat="40.236333" lon="-4.885800">
        <ele>1703.0</ele>
        <time>2013-07-06T12:43:30Z</time>
      </trkpt>
      <trkpt lat="40.236350" lon="-4.885917">
        <ele>1704.0</ele>
        <time>2013-07-06T12:43:31Z</time>
      </trkpt>
      <trkpt lat="40.236317" lon="-4.886200">
        <ele>1704.0</ele>
        <time>2013-07-06T12:43:33Z</time>
      </trkpt>
      <trkpt lat="40.236267" lon="-4.886333">
        <ele>1704.0</ele>
        <time>2013-07-06T12:43:34Z</time>
      </trkpt>
      <trkpt lat="40.236200" lon="-4.886450">
        <ele>1706.0</ele>
        <time>2013-07-06T12:43:35Z</time>
      </trkpt>
      <trkpt lat="40.236150" lon="-4.886550">
        <ele>1708.0</ele>
        <time>2013-07-06T12:43:36Z</time>
      </trkpt>
      <trkpt lat="40.236083" lon="-4.886633">
        <ele>1710.0</ele>
        <time>2013-07-06T12:43:37Z</time>
      </trkpt>
      <trkpt lat="40.236000" lon="-4.886717">
        <ele>1712.0</ele>
        <time>2013-07-06T12:43:38Z</time>
      </trkpt>
      <trkpt lat="40.235933" lon="-4.886783">
        <ele>1713.0</ele>
        <time>2013-07-06T12:43:39Z</time>
      </trkpt>
      <trkpt lat="40.235833" lon="-4.886850">
        <ele>1713.0</ele>
        <time>2013-07-06T12:43:40Z</time>
      </trkpt>
      <trkpt lat="40.235750" lon="-4.886900">
        <ele>1714.0</ele>
        <time>2013-07-06T12:43:41Z</time>
      </trkpt>
      <trkpt lat="40.235650" lon="-4.886950">
        <ele>1715.0</ele>
        <time>2013-07-06T12:43:42Z</time>
      </trkpt>
      <trkpt lat="40.235550" lon="-4.886967">
        <ele>1715.0</ele>
        <time>2013-07-06T12:43:43Z</time>
      </trkpt>
      <trkpt lat="40.235467" lon="-4.886967">
        <ele>1716.0</ele>
        <time>2013-07-06T12:43:44Z</time>
      </trkpt>
      <trkpt lat="40.235383" lon="-4.886950">
        <ele>1716.0</ele>
        <time>2013-07-06T12:43:45Z</time>
      </trkpt>
      <trkpt lat="40.235283" lon="-4.886933">
        <ele>1715.0</ele>
        <time>2013-07-06T12:43:46Z</time>
      </trkpt>
      <trkpt lat="40.235200" lon="-4.886900">
        <ele>1714.0</ele>
        <time>2013-07-06T12:43:47Z</time>
      </trkpt>
      <trkpt lat="40.235117" lon="-4.886867">
        <ele>1713.0</ele>
        <time>2013-07-06T12:43:48Z</time>
      </trkpt>
      <trkpt lat="40.235050" lon="-4.886817">
        <ele>1711.0</ele>
        <time>2013-07-06T12:43:49Z</time>
      </trkpt>
      <trkpt lat="40.234983" lon="-4.886750">
        <ele>1710.0</ele>
        <time>2013-07-06T12:43:50Z</time>
      </trkpt>
      <trkpt lat="40.234950" lon="-4.886683">
        <ele>1706.0</ele>
        <time>2013-07-06T12:43:51Z</time>
      </trkpt>
      <trkpt lat="40.234917" lon="-4.886617">
        <ele>1703.0</ele>
        <time>2013-07-06T12:43:52Z</time>
      </trkpt>
      <trkpt lat="40.234883" lon="-4.886517">
        <ele>1699.0</ele>
        <time>2013-07-06T12:43:53Z</time>
      </trkpt>
      <trkpt lat="40.234850" lon="-4.886400">
        <ele>1696.0</ele>
        <time>2013-07-06T12:43:54Z</time>
      </trkpt>
      <trkpt lat="40.234817" lon="-4.886283">
        <ele>1694.0</ele>
        <time>2013-07-06T12:43:55Z</time>
      </trkpt>
      <trkpt lat="40.234817" lon="-4.886200">
        <ele>1693.0</ele>
        <time>2013-07-06T12:43:56Z</time>
      </trkpt>
      <trkpt lat="40.234817" lon="-4.886133">
        <ele>1694.0</ele>
        <time>2013-07-06T12:43:57Z</time>
      </trkpt>
      <trkpt lat="40.234833" lon="-4.886083">
        <ele>1692.0</ele>
        <time>2013-07-06T12:43:58Z</time>
      </trkpt>
      <trkpt lat="40.234867" lon="-4.886017">
        <ele>1690.0</ele>
        <time>2013-07-06T12:43:59Z</time>
      </trkpt>
      <trkpt lat="40.234917" lon="-4.885933">
        <ele>1686.0</ele>
        <time>2013-07-06T12:44:00Z</time>
      </trkpt>
      <trkpt lat="40.234967" lon="-4.885850">
        <ele>1684.0</ele>
        <time>2013-07-06T12:44:01Z</time>
      </trkpt>
      <trkpt lat="40.235033" lon="-4.885800">
        <ele>1683.0</ele>
        <time>2013-07-06T12:44:02Z</time>
      </trkpt>
      <trkpt lat="40.235083" lon="-4.885767">
        <ele>1683.0</ele>
        <time>2013-07-06T12:44:03Z</time>
      </trkpt>
      <trkpt lat="40.235167" lon="-4.885783">
        <ele>1681.0</ele>
        <time>2013-07-06T12:44:04Z</time>
      </trkpt>
      <trkpt lat="40.235233" lon="-4.885817">
        <ele>1677.0</ele>
        <time>2013-07-06T12:44:05Z</time>
      </trkpt>
      <trkpt lat="40.235317" lon="-4.885883">
        <ele>1673.0</ele>
        <time>2013-07-06T12:44:06Z</time>
      </trkpt>
      <trkpt lat="40.235417" lon="-4.885950">
        <ele>1670.0</ele>
        <time>2013-07-06T12:44:07Z</time>
      </trkpt>
      <trkpt lat="40.235500" lon="-4.886050">
        <ele>1667.0</ele>
        <time>2013-07-06T12:44:08Z</time>
      </trkpt>
      <trkpt lat="40.235550" lon="-4.886167">
        <ele>1665.0</ele>
        <time>2013-07-06T12:44:09Z</time>
      </trkpt>
      <trkpt lat="40.235583" lon="-4.886283">
        <ele>1665.0</ele>
        <time>2013-07-06T12:44:10Z</time>
      </trkpt>
      <trkpt lat="40.235600" lon="-4.886400">
        <ele>1665.0</ele>
        <time>2013-07-06T12:44:11Z</time>
      </trkpt>
      <trkpt lat="40.235600" lon="-4.886517">
        <ele>1665.0</ele>
        <time>2013-07-06T12:44:12Z</time>
      </trkpt>
      <trkpt lat="40.235700" lon="-4.886717">
        <ele>1662.0</ele>
        <time>2013-07-06T12:44:14Z</time>
      </trkpt>
      <trkpt lat="40.235767" lon="-4.886800">
        <ele>1659.0</ele>
        <time>2013-07-06T12:44:15Z</time>
      </trkpt>
      <trkpt lat="40.235850" lon="-4.886867">
        <ele>1656.0</ele>
        <time>2013-07-06T12:44:16Z</time>
      </trkpt>
      <trkpt lat="40.235933" lon="-4.886883">
        <ele>1655.0</ele>
        <time>2013-07-06T12:44:17Z</time>
      </trkpt>
      <trkpt lat="40.236000" lon="-4.886867">
        <ele>1656.0</ele>
        <time>2013-07-06T12:44:18Z</time>
      </trkpt>
      <trkpt lat="40.236067" lon="-4.886800">
        <ele>1658.0</ele>
        <time>2013-07-06T12:44:20Z</time>
      </trkpt>
      <trkpt lat="40.236150" lon="-4.886667">
        <ele>1654.0</ele>
        <time>2013-07-06T12:44:23Z</time>
      </trkpt>
      <trkpt lat="40.236200" lon="-4.886533">
        <ele>1652.0</ele>
        <time>2013-07-06T12:44:25Z</time>
      </trkpt>
      <trkpt lat="40.236200" lon="-4.886400">
        <ele>1652.0</ele>
        <time>2013-07-06T12:44:27Z</time>
      </trkpt>
      <trkpt lat="40.236183" lon="-4.886333">
        <ele>1652.0</ele>
        <time>2013-07-06T12:44:28Z</time>
      </trkpt>
      <trkpt lat="40.236183" lon="-4.886267">
        <ele>1652.0</ele>
        <time>2013-07-06T12:44:29Z</time>
      </trkpt>
      <trkpt lat="40.236183" lon="-4.886200">
        <ele>1651.0</ele>
        <time>2013-07-06T12:44:30Z</time>
      </trkpt>
      <trkpt lat="40.236150" lon="-4.886150">
        <ele>1651.0</ele>
        <time>2013-07-06T12:44:31Z</time>
      </trkpt>
      <trkpt lat="40.236133" lon="-4.886083">
        <ele>1650.0</ele>
        <time>2013-07-06T12:44:32Z</time>
      </trkpt>
      <trkpt lat="40.236117" lon="-4.886017">
        <ele>1650.0</ele>
        <time>2013-07-06T12:44:33Z</time>
      </trkpt>
      <trkpt lat="40.236083" lon="-4.885950">
        <ele>1649.0</ele>
        <time>2013-07-06T12:44:34Z</time>
      </trkpt>
      <trkpt lat="40.236050" lon="-4.885900">
        <ele>1648.0</ele>
        <time>2013-07-06T12:44:35Z</time>
      </trkpt>
      <trkpt lat="40.236017" lon="-4.885833">
        <ele>1648.0</ele>
        <time>2013-07-06T12:44:36Z</time>
      </trkpt>
      <trkpt lat="40.235967" lon="-4.885783">
        <ele>1648.0</ele>
        <time>2013-07-06T12:44:37Z</time>
      </trkpt>
      <trkpt lat="40.235917" lon="-4.885733">
        <ele>1647.0</ele>
        <time>2013-07-06T12:44:38Z</time>
      </trkpt>
      <trkpt lat="40.235850" lon="-4.885683">
        <ele>1646.0</ele>
        <time>2013-07-06T12:44:39Z</time>
      </trkpt>
      <trkpt lat="40.235800" lon="-4.885617">
        <ele>1646.0</ele>
        <time>2013-07-06T12:44:40Z</time>
      </trkpt>
      <trkpt lat="40.235750" lon="-4.885583">
        <ele>1647.0</ele>
        <time>2013-07-06T12:44:41Z</time>
      </trkpt>
      <trkpt lat="40.235683" lon="-4.885550">
        <ele>1647.0</ele>
        <time>2013-07-06T12:44:42Z</time>
      </trkpt>
      <trkpt lat="40.235633" lon="-4.885517">
        <ele>1647.0</ele>
        <time>2013-07-06T12:44:43Z</time>
      </trkpt>
      <trkpt lat="40.235567" lon="-4.885483">
        <ele>1646.0</ele>
        <time>2013-07-06T12:44:44Z</time>
      </trkpt>
      <trkpt lat="40.235500" lon="-4.885433">
        <ele>1644.0</ele>
        <time>2013-07-06T12:44:45Z</time>
      </trkpt>
      <trkpt lat="40.235417" lon="-4.885383">
        <ele>1642.0</ele>
        <time>2013-07-06T12:44:46Z</time>
      </trkpt>
      <trkpt lat="40.235350" lon="-4.885333">
        <ele>1642.0</ele>
        <time>2013-07-06T12:44:47Z</time>
      </trkpt>
      <trkpt lat="40.235283" lon="-4.885300">
        <ele>1643.0</ele>
        <time>2013-07-06T12:44:48Z</time>
      </trkpt>
      <trkpt lat="40.235217" lon="-4.885283">
        <ele>1643.0</ele>
        <time>2013-07-06T12:44:49Z</time>
      </trkpt>
      <trkpt lat="40.235150" lon="-4.885267">
        <ele>1642.0</ele>
        <time>2013-07-06T12:44:50Z</time>
      </trkpt>
      <trkpt lat="40.235083" lon="-4.885250">
        <ele>1641.0</ele>
        <time>2013-07-06T12:44:51Z</time>
      </trkpt>
      <trkpt lat="40.235000" lon="-4.885233">
        <ele>1640.0</ele>
        <time>2013-07-06T12:44:52Z</time>
      </trkpt>
      <trkpt lat="40.234933" lon="-4.885233">
        <ele>1638.0</ele>
        <time>2013-07-06T12:44:53Z</time>
      </trkpt>
      <trkpt lat="40.234850" lon="-4.885217">
        <ele>1637.0</ele>
        <time>2013-07-06T12:44:54Z</time>
      </trkpt>
      <trkpt lat="40.234767" lon="-4.885217">
        <ele>1636.0</ele>
        <time>2013-07-06T12:44:55Z</time>
      </trkpt>
      <trkpt lat="40.234683" lon="-4.885217">
        <ele>1636.0</ele>
        <time>2013-07-06T12:44:56Z</time>
      </trkpt>
      <trkpt lat="40.234617" lon="-4.885217">
        <ele>1635.0</ele>
        <time>2013-07-06T12:44:57Z</time>
      </trkpt>
      <trkpt lat="40.234517" lon="-4.885233">
        <ele>1634.0</ele>
        <time>2013-07-06T12:44:58Z</time>
      </trkpt>
      <trkpt lat="40.234433" lon="-4.885250">
        <ele>1633.0</ele>
        <time>2013-07-06T12:44:59Z</time>
      </trkpt>
      <trkpt lat="40.234350" lon="-4.885267">
        <ele>1633.0</ele>
        <time>2013-07-06T12:45:00Z</time>
      </trkpt>
      <trkpt lat="40.234250" lon="-4.885267">
        <ele>1632.0</ele>
        <time>2013-07-06T12:45:01Z</time>
      </trkpt>
      <trkpt lat="40.234167" lon="-4.885283">
        <ele>1632.0</ele>
        <time>2013-07-06T12:45:02Z</time>
      </trkpt>
      <trkpt lat="40.234067" lon="-4.885267">
        <ele>1632.0</ele>
        <time>2013-07-06T12:45:03Z</time>
      </trkpt>
      <trkpt lat="40.233983" lon="-4.885250">
        <ele>1631.0</ele>
        <time>2013-07-06T12:45:04Z</time>
      </trkpt>
      <trkpt lat="40.233917" lon="-4.885233">
        <ele>1631.0</ele>
        <time>2013-07-06T12:45:05Z</time>
      </trkpt>
      <trkpt lat="40.233833" lon="-4.885200">
        <ele>1630.0</ele>
        <time>2013-07-06T12:45:06Z</time>
      </trkpt>
      <trkpt lat="40.233750" lon="-4.885183">
        <ele>1629.0</ele>
        <time>2013-07-06T12:45:07Z</time>
      </trkpt>
      <trkpt lat="40.233667" lon="-4.885150">
        <ele>1628.0</ele>
        <time>2013-07-06T12:45:08Z</time>
      </trkpt>
      <trkpt lat="40.233583" lon="-4.885117">
        <ele>1627.0</ele>
        <time>2013-07-06T12:45:09Z</time>
      </trkpt>
      <trkpt lat="40.233500" lon="-4.885083">
        <ele>1625.0</ele>
        <time>2013-07-06T12:45:10Z</time>
      </trkpt>
      <trkpt lat="40.233400" lon="-4.885050">
        <ele>1624.0</ele>
        <time>2013-07-06T12:45:11Z</time>
      </trkpt>
      <trkpt lat="40.233317" lon="-4.885017">
        <ele>1623.0</ele>
        <time>2013-07-06T12:45:12Z</time>
      </trkpt>
      <trkpt lat="40.233233" lon="-4.885000">
        <ele>1622.0</ele>
        <time>2013-07-06T12:45:13Z</time>
      </trkpt>
      <trkpt lat="40.233150" lon="-4.884967">
        <ele>1621.0</ele>
        <time>2013-07-06T12:45:14Z</time>
      </trkpt>
      <trkpt lat="40.233067" lon="-4.884933">
        <ele>1620.0</ele>
        <time>2013-07-06T12:45:15Z</time>
      </trkpt>
      <trkpt lat="40.232983" lon="-4.884900">
        <ele>1618.0</ele>
        <time>2013-07-06T12:45:16Z</time>
      </trkpt>
      <trkpt lat="40.232883" lon="-4.884867">
        <ele>1615.0</ele>
        <time>2013-07-06T12:45:17Z</time>
      </trkpt>
      <trkpt lat="40.232783" lon="-4.884817">
        <ele>1613.0</ele>
        <time>2013-07-06T12:45:18Z</time>
      </trkpt>
      <trkpt lat="40.232700" lon="-4.884767">
        <ele>1611.0</ele>
        <time>2013-07-06T12:45:19Z</time>
      </trkpt>
      <trkpt lat="40.232600" lon="-4.884733">
        <ele>1610.0</ele>
        <time>2013-07-06T12:45:20Z</time>
      </trkpt>
      <trkpt lat="40.232517" lon="-4.884700">
        <ele>1608.0</ele>
        <time>2013-07-06T12:45:21Z</time>
      </trkpt>
      <trkpt lat="40.232433" lon="-4.884667">
        <ele>1606.0</ele>
        <time>2013-07-06T12:45:22Z</time>
      </trkpt>
      <trkpt lat="40.232350" lon="-4.884617">
        <ele>1604.0</ele>
        <time>2013-07-06T12:45:23Z</time>
      </trkpt>
      <trkpt lat="40.232267" lon="-4.884583">
        <ele>1602.0</ele>
        <time>2013-07-06T12:45:24Z</time>
      </trkpt>
      <trkpt lat="40.232183" lon="-4.884533">
        <ele>1599.0</ele>
        <time>2013-07-06T12:45:25Z</time>
      </trkpt>
      <trkpt lat="40.232083" lon="-4.884500">
        <ele>1597.0</ele>
        <time>2013-07-06T12:45:26Z</time>
      </trkpt>
      <trkpt lat="40.232000" lon="-4.884450">
        <ele>1594.0</ele>
        <time>2013-07-06T12:45:27Z</time>
      </trkpt>
      <trkpt lat="40.231917" lon="-4.884417">
        <ele>1592.0</ele>
        <time>2013-07-06T12:45:28Z</time>
      </trkpt>
      <trkpt lat="40.231833" lon="-4.884383">
        <ele>1590.0</ele>
        <time>2013-07-06T12:45:29Z</time>
      </trkpt>
      <trkpt lat="40.231750" lon="-4.884333">
        <ele>1587.0</ele>
        <time>2013-07-06T12:45:30Z</time>
      </trkpt>
      <trkpt lat="40.231667" lon="-4.884267">
        <ele>1584.0</ele>
        <time>2013-07-06T12:45:31Z</time>
      </trkpt>
      <trkpt lat="40.231600" lon="-4.884217">
        <ele>1582.0</ele>
        <time>2013-07-06T12:45:32Z</time>
      </trkpt>
      <trkpt lat="40.231550" lon="-4.884150">
        <ele>1580.0</ele>
        <time>2013-07-06T12:45:33Z</time>
      </trkpt>
      <trkpt lat="40.231467" lon="-4.884100">
        <ele>1578.0</ele>
        <time>2013-07-06T12:45:34Z</time>
      </trkpt>
      <trkpt lat="40.231400" lon="-4.884050">
        <ele>1575.0</ele>
        <time>2013-07-06T12:45:35Z</time>
      </trkpt>
      <trkpt lat="40.231317" lon="-4.884000">
        <ele>1573.0</ele>
        <time>2013-07-06T12:45:36Z</time>
      </trkpt>
      <trkpt lat="40.231250" lon="-4.883967">
        <ele>1571.0</ele>
        <time>2013-07-06T12:45:37Z</time>
      </trkpt>
      <trkpt lat="40.231167" lon="-4.883917">
        <ele>1569.0</ele>
        <time>2013-07-06T12:45:38Z</time>
      </trkpt>
      <trkpt lat="40.231083" lon="-4.883883">
        <ele>1566.0</ele>
        <time>2013-07-06T12:45:39Z</time>
      </trkpt>
      <trkpt lat="40.231017" lon="-4.883833">
        <ele>1563.0</ele>
        <time>2013-07-06T12:45:40Z</time>
      </trkpt>
      <trkpt lat="40.230933" lon="-4.883783">
        <ele>1559.0</ele>
        <time>2013-07-06T12:45:41Z</time>
      </trkpt>
      <trkpt lat="40.230867" lon="-4.883733">
        <ele>1555.0</ele>
        <time>2013-07-06T12:45:42Z</time>
      </trkpt>
      <trkpt lat="40.230800" lon="-4.883667">
        <ele>1552.0</ele>
        <time>2013-07-06T12:45:43Z</time>
      </trkpt>
      <trkpt lat="40.230733" lon="-4.883600">
        <ele>1549.0</ele>
        <time>2013-07-06T12:45:44Z</time>
      </trkpt>
      <trkpt lat="40.230683" lon="-4.883533">
        <ele>1547.0</ele>
        <time>2013-07-06T12:45:45Z</time>
      </trkpt>
      <trkpt lat="40.230633" lon="-4.883467">
        <ele>1544.0</ele>
        <time>2013-07-06T12:45:46Z</time>
      </trkpt>
      <trkpt lat="40.230567" lon="-4.883400">
        <ele>1541.0</ele>
        <time>2013-07-06T12:45:47Z</time>
      </trkpt>
      <trkpt lat="40.230500" lon="-4.883333">
        <ele>1539.0</ele>
        <time>2013-07-06T12:45:48Z</time>
      </trkpt>
      <trkpt lat="40.230433" lon="-4.883267">
        <ele>1536.0</ele>
        <time>2013-07-06T12:45:49Z</time>
      </trkpt>
      <trkpt lat="40.230367" lon="-4.883200">
        <ele>1535.0</ele>
        <time>2013-07-06T12:45:50Z</time>
      </trkpt>
      <trkpt lat="40.230300" lon="-4.883150">
        <ele>1533.0</ele>
        <time>2013-07-06T12:45:51Z</time>
      </trkpt>
      <trkpt lat="40.230233" lon="-4.883083">
        <ele>1531.0</ele>
        <time>2013-07-06T12:45:52Z</time>
      </trkpt>
      <trkpt lat="40.230167" lon="-4.883017">
        <ele>1529.0</ele>
        <time>2013-07-06T12:45:53Z</time>
      </trkpt>
      <trkpt lat="40.230083" lon="-4.882967">
        <ele>1527.0</ele>
        <time>2013-07-06T12:45:54Z</time>
      </trkpt>
      <trkpt lat="40.230000" lon="-4.882900">
        <ele>1525.0</ele>
        <time>2013-07-06T12:45:55Z</time>
      </trkpt>
      <trkpt lat="40.229917" lon="-4.882850">
        <ele>1523.0</ele>
        <time>2013-07-06T12:45:56Z</time>
      </trkpt>
      <trkpt lat="40.229850" lon="-4.882800">
        <ele>1522.0</ele>
        <time>2013-07-06T12:45:57Z</time>
      </trkpt>
      <trkpt lat="40.229783" lon="-4.882767">
        <ele>1520.0</ele>
        <time>2013-07-06T12:45:58Z</time>
      </trkpt>
      <trkpt lat="40.229717" lon="-4.882717">
        <ele>1519.0</ele>
        <time>2013-07-06T12:45:59Z</time>
      </trkpt>
      <trkpt lat="40.229650" lon="-4.882683">
        <ele>1517.0</ele>
        <time>2013-07-06T12:46:00Z</time>
      </trkpt>
      <trkpt lat="40.229567" lon="-4.882617">
        <ele>1515.0</ele>
        <time>2013-07-06T12:46:01Z</time>
      </trkpt>
      <trkpt lat="40.229500" lon="-4.882550">
        <ele>1512.0</ele>
        <time>2013-07-06T12:46:02Z</time>
      </trkpt>
      <trkpt lat="40.229433" lon="-4.882483">
        <ele>1510.0</ele>
        <time>2013-07-06T12:46:03Z</time>
      </trkpt>
      <trkpt lat="40.229367" lon="-4.882417">
        <ele>1508.0</ele>
        <time>2013-07-06T12:46:04Z</time>
      </trkpt>
      <trkpt lat="40.229300" lon="-4.882367">
        <ele>1506.0</ele>
        <time>2013-07-06T12:46:05Z</time>
      </trkpt>
      <trkpt lat="40.229217" lon="-4.882317">
        <ele>1504.0</ele>
        <time>2013-07-06T12:46:06Z</time>
      </trkpt>
      <trkpt lat="40.229150" lon="-4.882250">
        <ele>1502.0</ele>
        <time>2013-07-06T12:46:07Z</time>
      </trkpt>
      <trkpt lat="40.229083" lon="-4.882200">
        <ele>1499.0</ele>
        <time>2013-07-06T12:46:08Z</time>
      </trkpt>
      <trkpt lat="40.229017" lon="-4.882133">
        <ele>1496.0</ele>
        <time>2013-07-06T12:46:09Z</time>
      </trkpt>
      <trkpt lat="40.228950" lon="-4.882083">
        <ele>1493.0</ele>
        <time>2013-07-06T12:46:10Z</time>
      </trkpt>
      <trkpt lat="40.228883" lon="-4.882033">
        <ele>1490.0</ele>
        <time>2013-07-06T12:46:11Z</time>
      </trkpt>
      <trkpt lat="40.228800" lon="-4.881983">
        <ele>1487.0</ele>
        <time>2013-07-06T12:46:12Z</time>
      </trkpt>
      <trkpt lat="40.228733" lon="-4.881917">
        <ele>1484.0</ele>
        <time>2013-07-06T12:46:13Z</time>
      </trkpt>
      <trkpt lat="40.228650" lon="-4.881867">
        <ele>1481.0</ele>
        <time>2013-07-06T12:46:14Z</time>
      </trkpt>
      <trkpt lat="40.228567" lon="-4.881817">
        <ele>1478.0</ele>
        <time>2013-07-06T12:46:15Z</time>
      </trkpt>
      <trkpt lat="40.228483" lon="-4.881767">
        <ele>1476.0</ele>
        <time>2013-07-06T12:46:16Z</time>
      </trkpt>
      <trkpt lat="40.228417" lon="-4.881700">
        <ele>1473.0</ele>
        <time>2013-07-06T12:46:17Z</time>
      </trkpt>
      <trkpt lat="40.228333" lon="-4.881650">
        <ele>1471.0</ele>
        <time>2013-07-06T12:46:18Z</time>
      </trkpt>
      <trkpt lat="40.228167" lon="-4.881533">
        <ele>1465.0</ele>
        <time>2013-07-06T12:46:20Z</time>
      </trkpt>
      <trkpt lat="40.228100" lon="-4.881483">
        <ele>1464.0</ele>
        <time>2013-07-06T12:46:21Z</time>
      </trkpt>
      <trkpt lat="40.228017" lon="-4.881433">
        <ele>1462.0</ele>
        <time>2013-07-06T12:46:22Z</time>
      </trkpt>
      <trkpt lat="40.227950" lon="-4.881367">
        <ele>1459.0</ele>
        <time>2013-07-06T12:46:23Z</time>
      </trkpt>
      <trkpt lat="40.227867" lon="-4.881317">
        <ele>1456.0</ele>
        <time>2013-07-06T12:46:24Z</time>
      </trkpt>
      <trkpt lat="40.227783" lon="-4.881267">
        <ele>1453.0</ele>
        <time>2013-07-06T12:46:25Z</time>
      </trkpt>
      <trkpt lat="40.227717" lon="-4.881217">
        <ele>1451.0</ele>
        <time>2013-07-06T12:46:26Z</time>
      </trkpt>
      <trkpt lat="40.227650" lon="-4.881183">
        <ele>1449.0</ele>
        <time>2013-07-06T12:46:27Z</time>
      </trkpt>
      <trkpt lat="40.227583" lon="-4.881133">
        <ele>1448.0</ele>
        <time>2013-07-06T12:46:28Z</time>
      </trkpt>
      <trkpt lat="40.227517" lon="-4.881100">
        <ele>1446.0</ele>
        <time>2013-07-06T12:46:29Z</time>
      </trkpt>
      <trkpt lat="40.227450" lon="-4.881050">
        <ele>1444.0</ele>
        <time>2013-07-06T12:46:30Z</time>
      </trkpt>
      <trkpt lat="40.227400" lon="-4.881000">
        <ele>1442.0</ele>
        <time>2013-07-06T12:46:31Z</time>
      </trkpt>
      <trkpt lat="40.227333" lon="-4.880933">
        <ele>1439.0</ele>
        <time>2013-07-06T12:46:32Z</time>
      </trkpt>
      <trkpt lat="40.227267" lon="-4.880883">
        <ele>1437.0</ele>
        <time>2013-07-06T12:46:33Z</time>
      </trkpt>
      <trkpt lat="40.227200" lon="-4.880817">
        <ele>1435.0</ele>
        <time>2013-07-06T12:46:34Z</time>
      </trkpt>
      <trkpt lat="40.227133" lon="-4.880767">
        <ele>1432.0</ele>
        <time>2013-07-06T12:46:35Z</time>
      </trkpt>
      <trkpt lat="40.227067" lon="-4.880717">
        <ele>1430.0</ele>
        <time>2013-07-06T12:46:36Z</time>
      </trkpt>
      <trkpt lat="40.227000" lon="-4.880667">
        <ele>1428.0</ele>
        <time>2013-07-06T12:46:37Z</time>
      </trkpt>
      <trkpt lat="40.226950" lon="-4.880617">
        <ele>1426.0</ele>
        <time>2013-07-06T12:46:38Z</time>
      </trkpt>
      <trkpt lat="40.226883" lon="-4.880567">
        <ele>1424.0</ele>
        <time>2013-07-06T12:46:39Z</time>
      </trkpt>
      <trkpt lat="40.226817" lon="-4.880517">
        <ele>1422.0</ele>
        <time>2013-07-06T12:46:40Z</time>
      </trkpt>
      <trkpt lat="40.226750" lon="-4.880483">
        <ele>1421.0</ele>
        <time>2013-07-06T12:46:41Z</time>
      </trkpt>
      <trkpt lat="40.226700" lon="-4.880433">
        <ele>1420.0</ele>
        <time>2013-07-06T12:46:42Z</time>
      </trkpt>
      <trkpt lat="40.226633" lon="-4.880400">
        <ele>1419.0</ele>
        <time>2013-07-06T12:46:43Z</time>
      </trkpt>
      <trkpt lat="40.226567" lon="-4.880350">
        <ele>1418.0</ele>
        <time>2013-07-06T12:46:44Z</time>
      </trkpt>
      <trkpt lat="40.226500" lon="-4.880317">
        <ele>1417.0</ele>
        <time>2013-07-06T12:46:45Z</time>
      </trkpt>
      <trkpt lat="40.226433" lon="-4.880283">
        <ele>1417.0</ele>
        <time>2013-07-06T12:46:46Z</time>
      </trkpt>
      <trkpt lat="40.226383" lon="-4.880233">
        <ele>1416.0</ele>
        <time>2013-07-06T12:46:47Z</time>
      </trkpt>
      <trkpt lat="40.226317" lon="-4.880217">
        <ele>1415.0</ele>
        <time>2013-07-06T12:46:48Z</time>
      </trkpt>
      <trkpt lat="40.226267" lon="-4.880183">
        <ele>1413.0</ele>
        <time>2013-07-06T12:46:49Z</time>
      </trkpt>
      <trkpt lat="40.226217" lon="-4.880150">
        <ele>1411.0</ele>
        <time>2013-07-06T12:46:50Z</time>
      </trkpt>
      <trkpt lat="40.226150" lon="-4.880117">
        <ele>1409.0</ele>
        <time>2013-07-06T12:46:51Z</time>
      </trkpt>
      <trkpt lat="40.226100" lon="-4.880067">
        <ele>1408.0</ele>
        <time>2013-07-06T12:46:52Z</time>
      </trkpt>
      <trkpt lat="40.226050" lon="-4.880050">
        <ele>1406.0</ele>
        <time>2013-07-06T12:46:53Z</time>
      </trkpt>
      <trkpt lat="40.226000" lon="-4.880033">
        <ele>1405.0</ele>
        <time>2013-07-06T12:46:54Z</time>
      </trkpt>
      <trkpt lat="40.225950" lon="-4.880017">
        <ele>1403.0</ele>
        <time>2013-07-06T12:46:55Z</time>
      </trkpt>
      <trkpt lat="40.225883" lon="-4.880000">
        <ele>1402.0</ele>
        <time>2013-07-06T12:46:56Z</time>
      </trkpt>
      <trkpt lat="40.225800" lon="-4.879967">
        <ele>1400.0</ele>
        <time>2013-07-06T12:46:57Z</time>
      </trkpt>
      <trkpt lat="40.225717" lon="-4.879933">
        <ele>1398.0</ele>
        <time>2013-07-06T12:46:58Z</time>
      </trkpt>
      <trkpt lat="40.225650" lon="-4.879917">
        <ele>1397.0</ele>
        <time>2013-07-06T12:46:59Z</time>
      </trkpt>
      <trkpt lat="40.225583" lon="-4.879900">
        <ele>1398.0</ele>
        <time>2013-07-06T12:47:00Z</time>
      </trkpt>
      <trkpt lat="40.225533" lon="-4.879883">
        <ele>1397.0</ele>
        <time>2013-07-06T12:47:01Z</time>
      </trkpt>
      <trkpt lat="40.225467" lon="-4.879867">
        <ele>1396.0</ele>
        <time>2013-07-06T12:47:02Z</time>
      </trkpt>
      <trkpt lat="40.225400" lon="-4.879850">
        <ele>1395.0</ele>
        <time>2013-07-06T12:47:03Z</time>
      </trkpt>
      <trkpt lat="40.225317" lon="-4.879833">
        <ele>1392.0</ele>
        <time>2013-07-06T12:47:04Z</time>
      </trkpt>
      <trkpt lat="40.225233" lon="-4.879800">
        <ele>1390.0</ele>
        <time>2013-07-06T12:47:05Z</time>
      </trkpt>
      <trkpt lat="40.225167" lon="-4.879783">
        <ele>1389.0</ele>
        <time>2013-07-06T12:47:06Z</time>
      </trkpt>
      <trkpt lat="40.225117" lon="-4.879767">
        <ele>1387.0</ele>
        <time>2013-07-06T12:47:07Z</time>
      </trkpt>
      <trkpt lat="40.225050" lon="-4.879750">
        <ele>1386.0</ele>
        <time>2013-07-06T12:47:08Z</time>
      </trkpt>
      <trkpt lat="40.224983" lon="-4.879717">
        <ele>1384.0</ele>
        <time>2013-07-06T12:47:09Z</time>
      </trkpt>
      <trkpt lat="40.224917" lon="-4.879683">
        <ele>1382.0</ele>
        <time>2013-07-06T12:47:10Z</time>
      </trkpt>
      <trkpt lat="40.224833" lon="-4.879667">
        <ele>1379.0</ele>
        <time>2013-07-06T12:47:11Z</time>
      </trkpt>
      <trkpt lat="40.224750" lon="-4.879650">
        <ele>1378.0</ele>
        <time>2013-07-06T12:47:12Z</time>
      </trkpt>
      <trkpt lat="40.224683" lon="-4.879633">
        <ele>1376.0</ele>
        <time>2013-07-06T12:47:13Z</time>
      </trkpt>
      <trkpt lat="40.224600" lon="-4.879617">
        <ele>1374.0</ele>
        <time>2013-07-06T12:47:14Z</time>
      </trkpt>
      <trkpt lat="40.224533" lon="-4.879600">
        <ele>1372.0</ele>
        <time>2013-07-06T12:47:15Z</time>
      </trkpt>
      <trkpt lat="40.224450" lon="-4.879567">
        <ele>1370.0</ele>
        <time>2013-07-06T12:47:16Z</time>
      </trkpt>
      <trkpt lat="40.224367" lon="-4.879550">
        <ele>1367.0</ele>
        <time>2013-07-06T12:47:17Z</time>
      </trkpt>
      <trkpt lat="40.224283" lon="-4.879533">
        <ele>1366.0</ele>
        <time>2013-07-06T12:47:18Z</time>
      </trkpt>
      <trkpt lat="40.224200" lon="-4.879517">
        <ele>1364.0</ele>
        <time>2013-07-06T12:47:19Z</time>
      </trkpt>
      <trkpt lat="40.224117" lon="-4.879500">
        <ele>1363.0</ele>
        <time>2013-07-06T12:47:20Z</time>
      </trkpt>
      <trkpt lat="40.224033" lon="-4.879500">
        <ele>1362.0</ele>
        <time>2013-07-06T12:47:21Z</time>
      </trkpt>
      <trkpt lat="40.223967" lon="-4.879483">
        <ele>1360.0</ele>
        <time>2013-07-06T12:47:22Z</time>
      </trkpt>
      <trkpt lat="40.223883" lon="-4.879467">
        <ele>1359.0</ele>
        <time>2013-07-06T12:47:23Z</time>
      </trkpt>
      <trkpt lat="40.223800" lon="-4.879467">
        <ele>1356.0</ele>
        <time>2013-07-06T12:47:24Z</time>
      </trkpt>
      <trkpt lat="40.223733" lon="-4.879450">
        <ele>1355.0</ele>
        <time>2013-07-06T12:47:25Z</time>
      </trkpt>
      <trkpt lat="40.223650" lon="-4.879450">
        <ele>1353.0</ele>
        <time>2013-07-06T12:47:26Z</time>
      </trkpt>
      <trkpt lat="40.223567" lon="-4.879433">
        <ele>1351.0</ele>
        <time>2013-07-06T12:47:27Z</time>
      </trkpt>
      <trkpt lat="40.223500" lon="-4.879433">
        <ele>1350.0</ele>
        <time>2013-07-06T12:47:28Z</time>
      </trkpt>
      <trkpt lat="40.223433" lon="-4.879433">
        <ele>1347.0</ele>
        <time>2013-07-06T12:47:29Z</time>
      </trkpt>
      <trkpt lat="40.223350" lon="-4.879417">
        <ele>1345.0</ele>
        <time>2013-07-06T12:47:30Z</time>
      </trkpt>
      <trkpt lat="40.223283" lon="-4.879383">
        <ele>1343.0</ele>
        <time>2013-07-06T12:47:31Z</time>
      </trkpt>
      <trkpt lat="40.223200" lon="-4.879350">
        <ele>1341.0</ele>
        <time>2013-07-06T12:47:32Z</time>
      </trkpt>
      <trkpt lat="40.223133" lon="-4.879333">
        <ele>1338.0</ele>
        <time>2013-07-06T12:47:33Z</time>
      </trkpt>
      <trkpt lat="40.223050" lon="-4.879300">
        <ele>1335.0</ele>
        <time>2013-07-06T12:47:34Z</time>
      </trkpt>
      <trkpt lat="40.222967" lon="-4.879267">
        <ele>1333.0</ele>
        <time>2013-07-06T12:47:35Z</time>
      </trkpt>
      <trkpt lat="40.222883" lon="-4.879233">
        <ele>1330.0</ele>
        <time>2013-07-06T12:47:36Z</time>
      </trkpt>
      <trkpt lat="40.222750" lon="-4.879183">
        <ele>1327.0</ele>
        <time>2013-07-06T12:47:38Z</time>
      </trkpt>
      <trkpt lat="40.222683" lon="-4.879167">
        <ele>1325.0</ele>
        <time>2013-07-06T12:47:39Z</time>
      </trkpt>
      <trkpt lat="40.222600" lon="-4.879150">
        <ele>1322.0</ele>
        <time>2013-07-06T12:47:40Z</time>
      </trkpt>
      <trkpt lat="40.222517" lon="-4.879133">
        <ele>1320.0</ele>
        <time>2013-07-06T12:47:41Z</time>
      </trkpt>
      <trkpt lat="40.222433" lon="-4.879117">
        <ele>1317.0</ele>
        <time>2013-07-06T12:47:42Z</time>
      </trkpt>
      <trkpt lat="40.222367" lon="-4.879117">
        <ele>1314.0</ele>
        <time>2013-07-06T12:47:43Z</time>
      </trkpt>
      <trkpt lat="40.222283" lon="-4.879117">
        <ele>1312.0</ele>
        <time>2013-07-06T12:47:44Z</time>
      </trkpt>
      <trkpt lat="40.222217" lon="-4.879117">
        <ele>1309.0</ele>
        <time>2013-07-06T12:47:45Z</time>
      </trkpt>
      <trkpt lat="40.222133" lon="-4.879117">
        <ele>1307.0</ele>
        <time>2013-07-06T12:47:46Z</time>
      </trkpt>
      <trkpt lat="40.222067" lon="-4.879117">
        <ele>1304.0</ele>
        <time>2013-07-06T12:47:47Z</time>
      </trkpt>
      <trkpt lat="40.222000" lon="-4.879100">
        <ele>1301.0</ele>
        <time>2013-07-06T12:47:48Z</time>
      </trkpt>
      <trkpt lat="40.221917" lon="-4.879100">
        <ele>1298.0</ele>
        <time>2013-07-06T12:47:49Z</time>
      </trkpt>
      <trkpt lat="40.221850" lon="-4.879083">
        <ele>1295.0</ele>
        <time>2013-07-06T12:47:50Z</time>
      </trkpt>
      <trkpt lat="40.221767" lon="-4.879083">
        <ele>1292.0</ele>
        <time>2013-07-06T12:47:51Z</time>
      </trkpt>
      <trkpt lat="40.221700" lon="-4.879067">
        <ele>1290.0</ele>
        <time>2013-07-06T12:47:52Z</time>
      </trkpt>
      <trkpt lat="40.221633" lon="-4.879050">
        <ele>1287.0</ele>
        <time>2013-07-06T12:47:53Z</time>
      </trkpt>
      <trkpt lat="40.221567" lon="-4.879033">
        <ele>1284.0</ele>
        <time>2013-07-06T12:47:54Z</time>
      </trkpt>
      <trkpt lat="40.221500" lon="-4.879017">
        <ele>1281.0</ele>
        <time>2013-07-06T12:47:55Z</time>
      </trkpt>
      <trkpt lat="40.221417" lon="-4.879000">
        <ele>1279.0</ele>
        <time>2013-07-06T12:47:56Z</time>
      </trkpt>
      <trkpt lat="40.221350" lon="-4.879000">
        <ele>1276.0</ele>
        <time>2013-07-06T12:47:57Z</time>
      </trkpt>
      <trkpt lat="40.221283" lon="-4.878983">
        <ele>1273.0</ele>
        <time>2013-07-06T12:47:58Z</time>
      </trkpt>
      <trkpt lat="40.221217" lon="-4.878967">
        <ele>1271.0</ele>
        <time>2013-07-06T12:47:59Z</time>
      </trkpt>
      <trkpt lat="40.221133" lon="-4.878950">
        <ele>1268.0</ele>
        <time>2013-07-06T12:48:00Z</time>
      </trkpt>
      <trkpt lat="40.221067" lon="-4.878933">
        <ele>1265.0</ele>
        <time>2013-07-06T12:48:01Z</time>
      </trkpt>
      <trkpt lat="40.221017" lon="-4.878900">
        <ele>1263.0</ele>
        <time>2013-07-06T12:48:02Z</time>
      </trkpt>
      <trkpt lat="40.220950" lon="-4.878883">
        <ele>1261.0</ele>
        <time>2013-07-06T12:48:03Z</time>
      </trkpt>
      <trkpt lat="40.220900" lon="-4.878867">
        <ele>1258.0</ele>
        <time>2013-07-06T12:48:04Z</time>
      </trkpt>
      <trkpt lat="40.220817" lon="-4.878850">
        <ele>1256.0</ele>
        <time>2013-07-06T12:48:05Z</time>
      </trkpt>
      <trkpt lat="40.220733" lon="-4.878833">
        <ele>1254.0</ele>
        <time>2013-07-06T12:48:06Z</time>
      </trkpt>
      <trkpt lat="40.220567" lon="-4.878817">
        <ele>1252.0</ele>
        <time>2013-07-06T12:48:08Z</time>
      </trkpt>
      <trkpt lat="40.220500" lon="-4.878817">
        <ele>1251.0</ele>
        <time>2013-07-06T12:48:09Z</time>
      </trkpt>
      <trkpt lat="40.220433" lon="-4.878817">
        <ele>1252.0</ele>
        <time>2013-07-06T12:48:10Z</time>
      </trkpt>
      <trkpt lat="40.220350" lon="-4.878833">
        <ele>1251.0</ele>
        <time>2013-07-06T12:48:11Z</time>
      </trkpt>
      <trkpt lat="40.220183" lon="-4.878883">
        <ele>1250.0</ele>
        <time>2013-07-06T12:48:13Z</time>
      </trkpt>
      <trkpt lat="40.220100" lon="-4.878917">
        <ele>1249.0</ele>
        <time>2013-07-06T12:48:14Z</time>
      </trkpt>
      <trkpt lat="40.220017" lon="-4.878950">
        <ele>1249.0</ele>
        <time>2013-07-06T12:48:15Z</time>
      </trkpt>
      <trkpt lat="40.219967" lon="-4.878967">
        <ele>1251.0</ele>
        <time>2013-07-06T12:48:16Z</time>
      </trkpt>
      <trkpt lat="40.219900" lon="-4.878983">
        <ele>1252.0</ele>
        <time>2013-07-06T12:48:17Z</time>
      </trkpt>
      <trkpt lat="40.219833" lon="-4.879000">
        <ele>1252.0</ele>
        <time>2013-07-06T12:48:18Z</time>
      </trkpt>
      <trkpt lat="40.219750" lon="-4.879017">
        <ele>1252.0</ele>
        <time>2013-07-06T12:48:19Z</time>
      </trkpt>
      <trkpt lat="40.219683" lon="-4.879050">
        <ele>1253.0</ele>
        <time>2013-07-06T12:48:20Z</time>
      </trkpt>
      <trkpt lat="40.219600" lon="-4.879083">
        <ele>1253.0</ele>
        <time>2013-07-06T12:48:21Z</time>
      </trkpt>
      <trkpt lat="40.219533" lon="-4.879117">
        <ele>1257.0</ele>
        <time>2013-07-06T12:48:22Z</time>
      </trkpt>
      <trkpt lat="40.219483" lon="-4.879133">
        <ele>1258.0</ele>
        <time>2013-07-06T12:48:23Z</time>
      </trkpt>
      <trkpt lat="40.219417" lon="-4.879167">
        <ele>1260.0</ele>
        <time>2013-07-06T12:48:24Z</time>
      </trkpt>
      <trkpt lat="40.219350" lon="-4.879200">
        <ele>1261.0</ele>
        <time>2013-07-06T12:48:25Z</time>
      </trkpt>
      <trkpt lat="40.219283" lon="-4.879217">
        <ele>1262.0</ele>
        <time>2013-07-06T12:48:26Z</time>
      </trkpt>
      <trkpt lat="40.219217" lon="-4.879250">
        <ele>1264.0</ele>
        <time>2013-07-06T12:48:27Z</time>
      </trkpt>
      <trkpt lat="40.219150" lon="-4.879267">
        <ele>1266.0</ele>
        <time>2013-07-06T12:48:28Z</time>
      </trkpt>
      <trkpt lat="40.219100" lon="-4.879300">
        <ele>1268.0</ele>
        <time>2013-07-06T12:48:29Z</time>
      </trkpt>
      <trkpt lat="40.219033" lon="-4.879333">
        <ele>1269.0</ele>
        <time>2013-07-06T12:48:30Z</time>
      </trkpt>
      <trkpt lat="40.218967" lon="-4.879333">
        <ele>1270.0</ele>
        <time>2013-07-06T12:48:31Z</time>
      </trkpt>
      <trkpt lat="40.218883" lon="-4.879133">
        <ele>1271.0</ele>
        <time>2013-07-06T12:48:34Z</time>
      </trkpt>
      <trkpt lat="40.218900" lon="-4.879050">
        <ele>1271.0</ele>
        <time>2013-07-06T12:48:35Z</time>
      </trkpt>
      <trkpt lat="40.218933" lon="-4.878967">
        <ele>1272.0</ele>
        <time>2013-07-06T12:48:36Z</time>
      </trkpt>
      <trkpt lat="40.218933" lon="-4.878883">
        <ele>1273.0</ele>
        <time>2013-07-06T12:48:37Z</time>
      </trkpt>
      <trkpt lat="40.218917" lon="-4.878800">
        <ele>1273.0</ele>
        <time>2013-07-06T12:48:38Z</time>
      </trkpt>
      <trkpt lat="40.218883" lon="-4.878733">
        <ele>1273.0</ele>
        <time>2013-07-06T12:48:39Z</time>
      </trkpt>
      <trkpt lat="40.218817" lon="-4.878667">
        <ele>1273.0</ele>
        <time>2013-07-06T12:48:40Z</time>
      </trkpt>
      <trkpt lat="40.218767" lon="-4.878633">
        <ele>1273.0</ele>
        <time>2013-07-06T12:48:41Z</time>
      </trkpt>
      <trkpt lat="40.218733" lon="-4.878583">
        <ele>1274.0</ele>
        <time>2013-07-06T12:48:42Z</time>
      </trkpt>
      <trkpt lat="40.218683" lon="-4.878550">
        <ele>1275.0</ele>
        <time>2013-07-06T12:48:43Z</time>
      </trkpt>
      <trkpt lat="40.218633" lon="-4.878517">
        <ele>1274.0</ele>
        <time>2013-07-06T12:48:44Z</time>
      </trkpt>
      <trkpt lat="40.218583" lon="-4.878467">
        <ele>1274.0</ele>
        <time>2013-07-06T12:48:45Z</time>
      </trkpt>
      <trkpt lat="40.218533" lon="-4.878400">
        <ele>1273.0</ele>
        <time>2013-07-06T12:48:46Z</time>
      </trkpt>
      <trkpt lat="40.218467" lon="-4.878317">
        <ele>1273.0</ele>
        <time>2013-07-06T12:48:47Z</time>
      </trkpt>
      <trkpt lat="40.218417" lon="-4.878250">
        <ele>1273.0</ele>
        <time>2013-07-06T12:48:48Z</time>
      </trkpt>
      <trkpt lat="40.218383" lon="-4.878150">
        <ele>1273.0</ele>
        <time>2013-07-06T12:48:49Z</time>
      </trkpt>
      <trkpt lat="40.218350" lon="-4.878067">
        <ele>1274.0</ele>
        <time>2013-07-06T12:48:50Z</time>
      </trkpt>
      <trkpt lat="40.218317" lon="-4.877983">
        <ele>1276.0</ele>
        <time>2013-07-06T12:48:51Z</time>
      </trkpt>
      <trkpt lat="40.218300" lon="-4.877900">
        <ele>1277.0</ele>
        <time>2013-07-06T12:48:52Z</time>
      </trkpt>
      <trkpt lat="40.218283" lon="-4.877817">
        <ele>1278.0</ele>
        <time>2013-07-06T12:48:53Z</time>
      </trkpt>
      <trkpt lat="40.218267" lon="-4.877750">
        <ele>1281.0</ele>
        <time>2013-07-06T12:48:54Z</time>
      </trkpt>
      <trkpt lat="40.218283" lon="-4.877700">
        <ele>1285.0</ele>
        <time>2013-07-06T12:48:55Z</time>
      </trkpt>
      <trkpt lat="40.218283" lon="-4.877650">
        <ele>1287.0</ele>
        <time>2013-07-06T12:48:56Z</time>
      </trkpt>
      <trkpt lat="40.218300" lon="-4.877583">
        <ele>1289.0</ele>
        <time>2013-07-06T12:48:57Z</time>
      </trkpt>
      <trkpt lat="40.218300" lon="-4.877517">
        <ele>1290.0</ele>
        <time>2013-07-06T12:48:58Z</time>
      </trkpt>
      <trkpt lat="40.218283" lon="-4.877417">
        <ele>1292.0</ele>
        <time>2013-07-06T12:48:59Z</time>
      </trkpt>
      <trkpt lat="40.218283" lon="-4.877333">
        <ele>1296.0</ele>
        <time>2013-07-06T12:49:00Z</time>
      </trkpt>
      <trkpt lat="40.218267" lon="-4.877267">
        <ele>1300.0</ele>
        <time>2013-07-06T12:49:01Z</time>
      </trkpt>
      <trkpt lat="40.218283" lon="-4.877217">
        <ele>1305.0</ele>
        <time>2013-07-06T12:49:02Z</time>
      </trkpt>
      <trkpt lat="40.218300" lon="-4.877150">
        <ele>1309.0</ele>
        <time>2013-07-06T12:49:03Z</time>
      </trkpt>
      <trkpt lat="40.218300" lon="-4.877000">
        <ele>1315.0</ele>
        <time>2013-07-06T12:49:05Z</time>
      </trkpt>
      <trkpt lat="40.218300" lon="-4.876900">
        <ele>1318.0</ele>
        <time>2013-07-06T12:49:06Z</time>
      </trkpt>
      <trkpt lat="40.218283" lon="-4.876833">
        <ele>1323.0</ele>
        <time>2013-07-06T12:49:07Z</time>
      </trkpt>
      <trkpt lat="40.218267" lon="-4.876767">
        <ele>1329.0</ele>
        <time>2013-07-06T12:49:08Z</time>
      </trkpt>
      <trkpt lat="40.218283" lon="-4.876717">
        <ele>1334.0</ele>
        <time>2013-07-06T12:49:09Z</time>
      </trkpt>
      <trkpt lat="40.218300" lon="-4.876633">
        <ele>1338.0</ele>
        <time>2013-07-06T12:49:10Z</time>
      </trkpt>
      <trkpt lat="40.218400" lon="-4.876450">
        <ele>1346.0</ele>
        <time>2013-07-06T12:49:12Z</time>
      </trkpt>
      <trkpt lat="40.218467" lon="-4.876400">
        <ele>1351.0</ele>
        <time>2013-07-06T12:49:13Z</time>
      </trkpt>
      <trkpt lat="40.218550" lon="-4.876383">
        <ele>1355.0</ele>
        <time>2013-07-06T12:49:14Z</time>
      </trkpt>
      <trkpt lat="40.218633" lon="-4.876400">
        <ele>1358.0</ele>
        <time>2013-07-06T12:49:15Z</time>
      </trkpt>
      <trkpt lat="40.218733" lon="-4.876417">
        <ele>1360.0</ele>
        <time>2013-07-06T12:49:16Z</time>
      </trkpt>
      <trkpt lat="40.218817" lon="-4.876450">
        <ele>1362.0</ele>
        <time>2013-07-06T12:49:17Z</time>
      </trkpt>
      <trkpt lat="40.218900" lon="-4.876500">
        <ele>1364.0</ele>
        <time>2013-07-06T12:49:18Z</time>
      </trkpt>
      <trkpt lat="40.218967" lon="-4.876583">
        <ele>1367.0</ele>
        <time>2013-07-06T12:49:19Z</time>
      </trkpt>
      <trkpt lat="40.219033" lon="-4.876833">
        <ele>1369.0</ele>
        <time>2013-07-06T12:49:21Z</time>
      </trkpt>
      <trkpt lat="40.219033" lon="-4.876950">
        <ele>1369.0</ele>
        <time>2013-07-06T12:49:22Z</time>
      </trkpt>
      <trkpt lat="40.219017" lon="-4.877083">
        <ele>1369.0</ele>
        <time>2013-07-06T12:49:23Z</time>
      </trkpt>
      <trkpt lat="40.218917" lon="-4.877300">
        <ele>1370.0</ele>
        <time>2013-07-06T12:49:25Z</time>
      </trkpt>
      <trkpt lat="40.218867" lon="-4.877400">
        <ele>1372.0</ele>
        <time>2013-07-06T12:49:26Z</time>
      </trkpt>
      <trkpt lat="40.218783" lon="-4.877617">
        <ele>1377.0</ele>
        <time>2013-07-06T12:49:28Z</time>
      </trkpt>
      <trkpt lat="40.218750" lon="-4.877700">
        <ele>1380.0</ele>
        <time>2013-07-06T12:49:29Z</time>
      </trkpt>
      <trkpt lat="40.218683" lon="-4.877783">
        <ele>1383.0</ele>
        <time>2013-07-06T12:49:30Z</time>
      </trkpt>
      <trkpt lat="40.218633" lon="-4.877817">
        <ele>1386.0</ele>
        <time>2013-07-06T12:49:31Z</time>
      </trkpt>
      <trkpt lat="40.218583" lon="-4.877850">
        <ele>1389.0</ele>
        <time>2013-07-06T12:49:32Z</time>
      </trkpt>
      <trkpt lat="40.218533" lon="-4.877867">
        <ele>1392.0</ele>
        <time>2013-07-06T12:49:33Z</time>
      </trkpt>
      <trkpt lat="40.218467" lon="-4.877850">
        <ele>1394.0</ele>
        <time>2013-07-06T12:49:34Z</time>
      </trkpt>
      <trkpt lat="40.218417" lon="-4.877800">
        <ele>1397.0</ele>
        <time>2013-07-06T12:49:35Z</time>
      </trkpt>
      <trkpt lat="40.218367" lon="-4.877733">
        <ele>1399.0</ele>
        <time>2013-07-06T12:49:36Z</time>
      </trkpt>
      <trkpt lat="40.218317" lon="-4.877667">
        <ele>1402.0</ele>
        <time>2013-07-06T12:49:37Z</time>
      </trkpt>
      <trkpt lat="40.218300" lon="-4.877617">
        <ele>1406.0</ele>
        <time>2013-07-06T12:49:38Z</time>
      </trkpt>
      <trkpt lat="40.218300" lon="-4.877550">
        <ele>1410.0</ele>
        <time>2013-07-06T12:49:39Z</time>
      </trkpt>
      <trkpt lat="40.218283" lon="-4.877467">
        <ele>1413.0</ele>
        <time>2013-07-06T12:49:40Z</time>
      </trkpt>
      <trkpt lat="40.218300" lon="-4.877267">
        <ele>1418.0</ele>
        <time>2013-07-06T12:49:42Z</time>
      </trkpt>
      <trkpt lat="40.218333" lon="-4.877183">
        <ele>1420.0</ele>
        <time>2013-07-06T12:49:43Z</time>
      </trkpt>
      <trkpt lat="40.218400" lon="-4.877117">
        <ele>1423.0</ele>
        <time>2013-07-06T12:49:44Z</time>
      </trkpt>
      <trkpt lat="40.218467" lon="-4.877050">
        <ele>1425.0</ele>
        <time>2013-07-06T12:49:45Z</time>
      </trkpt>
      <trkpt lat="40.218550" lon="-4.877000">
        <ele>1427.0</ele>
        <time>2013-07-06T12:49:46Z</time>
      </trkpt>
      <trkpt lat="40.218633" lon="-4.876967">
        <ele>1429.0</ele>
        <time>2013-07-06T12:49:47Z</time>
      </trkpt>
      <trkpt lat="40.218733" lon="-4.876933">
        <ele>1432.0</ele>
        <time>2013-07-06T12:49:48Z</time>
      </trkpt>
      <trkpt lat="40.218833" lon="-4.876933">
        <ele>1435.0</ele>
        <time>2013-07-06T12:49:49Z</time>
      </trkpt>
      <trkpt lat="40.218917" lon="-4.876950">
        <ele>1438.0</ele>
        <time>2013-07-06T12:49:50Z</time>
      </trkpt>
      <trkpt lat="40.219000" lon="-4.876983">
        <ele>1441.0</ele>
        <time>2013-07-06T12:49:51Z</time>
      </trkpt>
      <trkpt lat="40.219100" lon="-4.877000">
        <ele>1444.0</ele>
        <time>2013-07-06T12:49:52Z</time>
      </trkpt>
      <trkpt lat="40.219183" lon="-4.877017">
        <ele>1447.0</ele>
        <time>2013-07-06T12:49:53Z</time>
      </trkpt>
      <trkpt lat="40.219250" lon="-4.877050">
        <ele>1449.0</ele>
        <time>2013-07-06T12:49:54Z</time>
      </trkpt>
      <trkpt lat="40.219333" lon="-4.877100">
        <ele>1451.0</ele>
        <time>2013-07-06T12:49:55Z</time>
      </trkpt>
      <trkpt lat="40.219400" lon="-4.877183">
        <ele>1452.0</ele>
        <time>2013-07-06T12:49:56Z</time>
      </trkpt>
      <trkpt lat="40.219467" lon="-4.877283">
        <ele>1452.0</ele>
        <time>2013-07-06T12:49:57Z</time>
      </trkpt>
      <trkpt lat="40.219533" lon="-4.877400">
        <ele>1451.0</ele>
        <time>2013-07-06T12:49:58Z</time>
      </trkpt>
      <trkpt lat="40.219567" lon="-4.877517">
        <ele>1451.0</ele>
        <time>2013-07-06T12:49:59Z</time>
      </trkpt>
      <trkpt lat="40.219617" lon="-4.877633">
        <ele>1451.0</ele>
        <time>2013-07-06T12:50:00Z</time>
      </trkpt>
      <trkpt lat="40.219650" lon="-4.877750">
        <ele>1451.0</ele>
        <time>2013-07-06T12:50:01Z</time>
      </trkpt>
      <trkpt lat="40.219683" lon="-4.877883">
        <ele>1451.0</ele>
        <time>2013-07-06T12:50:02Z</time>
      </trkpt>
      <trkpt lat="40.219683" lon="-4.878017">
        <ele>1450.0</ele>
        <time>2013-07-06T12:50:03Z</time>
      </trkpt>
      <trkpt lat="40.219683" lon="-4.878150">
        <ele>1450.0</ele>
        <time>2013-07-06T12:50:04Z</time>
      </trkpt>
      <trkpt lat="40.219667" lon="-4.878300">
        <ele>1450.0</ele>
        <time>2013-07-06T12:50:05Z</time>
      </trkpt>
      <trkpt lat="40.219650" lon="-4.878417">
        <ele>1451.0</ele>
        <time>2013-07-06T12:50:06Z</time>
      </trkpt>
      <trkpt lat="40.219633" lon="-4.878533">
        <ele>1453.0</ele>
        <time>2013-07-06T12:50:07Z</time>
      </trkpt>
      <trkpt lat="40.219600" lon="-4.878633">
        <ele>1455.0</ele>
        <time>2013-07-06T12:50:08Z</time>
      </trkpt>
      <trkpt lat="40.219550" lon="-4.878883">
        <ele>1459.0</ele>
        <time>2013-07-06T12:50:10Z</time>
      </trkpt>
      <trkpt lat="40.219550" lon="-4.879000">
        <ele>1461.0</ele>
        <time>2013-07-06T12:50:11Z</time>
      </trkpt>
      <trkpt lat="40.219517" lon="-4.879117">
        <ele>1465.0</ele>
        <time>2013-07-06T12:50:12Z</time>
      </trkpt>
      <trkpt lat="40.219483" lon="-4.879217">
        <ele>1467.0</ele>
        <time>2013-07-06T12:50:13Z</time>
      </trkpt>
      <trkpt lat="40.219383" lon="-4.879400">
        <ele>1472.0</ele>
        <time>2013-07-06T12:50:15Z</time>
      </trkpt>
      <trkpt lat="40.219217" lon="-4.879567">
        <ele>1479.0</ele>
        <time>2013-07-06T12:50:18Z</time>
      </trkpt>
      <trkpt lat="40.219133" lon="-4.879583">
        <ele>1480.0</ele>
        <time>2013-07-06T12:50:19Z</time>
      </trkpt>
      <trkpt lat="40.219067" lon="-4.879583">
        <ele>1481.0</ele>
        <time>2013-07-06T12:50:20Z</time>
      </trkpt>
      <trkpt lat="40.218983" lon="-4.879567">
        <ele>1482.0</ele>
        <time>2013-07-06T12:50:21Z</time>
      </trkpt>
      <trkpt lat="40.218933" lon="-4.879533">
        <ele>1483.0</ele>
        <time>2013-07-06T12:50:22Z</time>
      </trkpt>
      <trkpt lat="40.218883" lon="-4.879483">
        <ele>1486.0</ele>
        <time>2013-07-06T12:50:23Z</time>
      </trkpt>
      <trkpt lat="40.218833" lon="-4.879450">
        <ele>1487.0</ele>
        <time>2013-07-06T12:50:24Z</time>
      </trkpt>
      <trkpt lat="40.218783" lon="-4.879400">
        <ele>1488.0</ele>
        <time>2013-07-06T12:50:25Z</time>
      </trkpt>
      <trkpt lat="40.218733" lon="-4.879333">
        <ele>1489.0</ele>
        <time>2013-07-06T12:50:26Z</time>
      </trkpt>
      <trkpt lat="40.218700" lon="-4.879250">
        <ele>1490.0</ele>
        <time>2013-07-06T12:50:27Z</time>
      </trkpt>
      <trkpt lat="40.218683" lon="-4.879167">
        <ele>1490.0</ele>
        <time>2013-07-06T12:50:28Z</time>
      </trkpt>
      <trkpt lat="40.218683" lon="-4.879050">
        <ele>1492.0</ele>
        <time>2013-07-06T12:50:29Z</time>
      </trkpt>
      <trkpt lat="40.218717" lon="-4.878950">
        <ele>1493.0</ele>
        <time>2013-07-06T12:50:30Z</time>
      </trkpt>
      <trkpt lat="40.218750" lon="-4.878867">
        <ele>1494.0</ele>
        <time>2013-07-06T12:50:31Z</time>
      </trkpt>
      <trkpt lat="40.218800" lon="-4.878800">
        <ele>1497.0</ele>
        <time>2013-07-06T12:50:32Z</time>
      </trkpt>
      <trkpt lat="40.218850" lon="-4.878733">
        <ele>1500.0</ele>
        <time>2013-07-06T12:50:33Z</time>
      </trkpt>
      <trkpt lat="40.218883" lon="-4.878650">
        <ele>1503.0</ele>
        <time>2013-07-06T12:50:34Z</time>
      </trkpt>
      <trkpt lat="40.218917" lon="-4.878583">
        <ele>1505.0</ele>
        <time>2013-07-06T12:50:35Z</time>
      </trkpt>
      <trkpt lat="40.218967" lon="-4.878517">
        <ele>1507.0</ele>
        <time>2013-07-06T12:50:36Z</time>
      </trkpt>
      <trkpt lat="40.219050" lon="-4.878467">
        <ele>1509.0</ele>
        <time>2013-07-06T12:50:37Z</time>
      </trkpt>
      <trkpt lat="40.219133" lon="-4.878433">
        <ele>1511.0</ele>
        <time>2013-07-06T12:50:38Z</time>
      </trkpt>
      <trkpt lat="40.219233" lon="-4.878400">
        <ele>1513.0</ele>
        <time>2013-07-06T12:50:39Z</time>
      </trkpt>
      <trkpt lat="40.219317" lon="-4.878383">
        <ele>1516.0</ele>
        <time>2013-07-06T12:50:40Z</time>
      </trkpt>
      <trkpt lat="40.219417" lon="-4.878383">
        <ele>1520.0</ele>
        <time>2013-07-06T12:50:41Z</time>
      </trkpt>
      <trkpt lat="40.219500" lon="-4.878400">
        <ele>1524.0</ele>
        <time>2013-07-06T12:50:42Z</time>
      </trkpt>
      <trkpt lat="40.219567" lon="-4.878450">
        <ele>1527.0</ele>
        <time>2013-07-06T12:50:43Z</time>
      </trkpt>
      <trkpt lat="40.219617" lon="-4.878517">
        <ele>1529.0</ele>
        <time>2013-07-06T12:50:44Z</time>
      </trkpt>
      <trkpt lat="40.219683" lon="-4.878583">
        <ele>1531.0</ele>
        <time>2013-07-06T12:50:45Z</time>
      </trkpt>
      <trkpt lat="40.219750" lon="-4.878633">
        <ele>1531.0</ele>
        <time>2013-07-06T12:50:46Z</time>
      </trkpt>
      <trkpt lat="40.219817" lon="-4.878717">
        <ele>1531.0</ele>
        <time>2013-07-06T12:50:47Z</time>
      </trkpt>
      <trkpt lat="40.219867" lon="-4.878817">
        <ele>1531.0</ele>
        <time>2013-07-06T12:50:48Z</time>
      </trkpt>
      <trkpt lat="40.219883" lon="-4.878983">
        <ele>1530.0</ele>
        <time>2013-07-06T12:50:49Z</time>
      </trkpt>
      <trkpt lat="40.219883" lon="-4.879133">
        <ele>1528.0</ele>
        <time>2013-07-06T12:50:50Z</time>
      </trkpt>
      <trkpt lat="40.219867" lon="-4.879267">
        <ele>1530.0</ele>
        <time>2013-07-06T12:50:51Z</time>
      </trkpt>
      <trkpt lat="40.219850" lon="-4.879400">
        <ele>1533.0</ele>
        <time>2013-07-06T12:50:52Z</time>
      </trkpt>
      <trkpt lat="40.219817" lon="-4.879517">
        <ele>1535.0</ele>
        <time>2013-07-06T12:50:53Z</time>
      </trkpt>
      <trkpt lat="40.219767" lon="-4.879633">
        <ele>1537.0</ele>
        <time>2013-07-06T12:50:54Z</time>
      </trkpt>
      <trkpt lat="40.219633" lon="-4.879817">
        <ele>1539.0</ele>
        <time>2013-07-06T12:50:56Z</time>
      </trkpt>
      <trkpt lat="40.219483" lon="-4.879883">
        <ele>1542.0</ele>
        <time>2013-07-06T12:50:58Z</time>
      </trkpt>
      <trkpt lat="40.219417" lon="-4.879883">
        <ele>1544.0</ele>
        <time>2013-07-06T12:50:59Z</time>
      </trkpt>
      <trkpt lat="40.219350" lon="-4.879850">
        <ele>1545.0</ele>
        <time>2013-07-06T12:51:00Z</time>
      </trkpt>
      <trkpt lat="40.219283" lon="-4.879817">
        <ele>1546.0</ele>
        <time>2013-07-06T12:51:01Z</time>
      </trkpt>
      <trkpt lat="40.219217" lon="-4.879767">
        <ele>1548.0</ele>
        <time>2013-07-06T12:51:02Z</time>
      </trkpt>
      <trkpt lat="40.219150" lon="-4.879700">
        <ele>1550.0</ele>
        <time>2013-07-06T12:51:03Z</time>
      </trkpt>
      <trkpt lat="40.219100" lon="-4.879633">
        <ele>1552.0</ele>
        <time>2013-07-06T12:51:04Z</time>
      </trkpt>
      <trkpt lat="40.219067" lon="-4.879567">
        <ele>1555.0</ele>
        <time>2013-07-06T12:51:05Z</time>
      </trkpt>
      <trkpt lat="40.219033" lon="-4.879483">
        <ele>1556.0</ele>
        <time>2013-07-06T12:51:06Z</time>
      </trkpt>
      <trkpt lat="40.219017" lon="-4.879383">
        <ele>1557.0</ele>
        <time>2013-07-06T12:51:07Z</time>
      </trkpt>
      <trkpt lat="40.219000" lon="-4.879283">
        <ele>1558.0</ele>
        <time>2013-07-06T12:51:08Z</time>
      </trkpt>
      <trkpt lat="40.219000" lon="-4.879183">
        <ele>1557.0</ele>
        <time>2013-07-06T12:51:09Z</time>
      </trkpt>
      <trkpt lat="40.219017" lon="-4.879067">
        <ele>1558.0</ele>
        <time>2013-07-06T12:51:10Z</time>
      </trkpt>
      <trkpt lat="40.219033" lon="-4.878967">
        <ele>1560.0</ele>
        <time>2013-07-06T12:51:11Z</time>
      </trkpt>
      <trkpt lat="40.219067" lon="-4.878867">
        <ele>1560.0</ele>
        <time>2013-07-06T12:51:12Z</time>
      </trkpt>
      <trkpt lat="40.219100" lon="-4.878767">
        <ele>1562.0</ele>
        <time>2013-07-06T12:51:13Z</time>
      </trkpt>
      <trkpt lat="40.219167" lon="-4.878683">
        <ele>1563.0</ele>
        <time>2013-07-06T12:51:14Z</time>
      </trkpt>
      <trkpt lat="40.219217" lon="-4.878600">
        <ele>1565.0</ele>
        <time>2013-07-06T12:51:15Z</time>
      </trkpt>
      <trkpt lat="40.219300" lon="-4.878533">
        <ele>1568.0</ele>
        <time>2013-07-06T12:51:16Z</time>
      </trkpt>
      <trkpt lat="40.219383" lon="-4.878500">
        <ele>1571.0</ele>
        <time>2013-07-06T12:51:17Z</time>
      </trkpt>
      <trkpt lat="40.219467" lon="-4.878483">
        <ele>1574.0</ele>
        <time>2013-07-06T12:51:18Z</time>
      </trkpt>
      <trkpt lat="40.219567" lon="-4.878500">
        <ele>1576.0</ele>
        <time>2013-07-06T12:51:19Z</time>
      </trkpt>
      <trkpt lat="40.219650" lon="-4.878500">
        <ele>1579.0</ele>
        <time>2013-07-06T12:51:20Z</time>
      </trkpt>
      <trkpt lat="40.219733" lon="-4.878533">
        <ele>1581.0</ele>
        <time>2013-07-06T12:51:21Z</time>
      </trkpt>
      <trkpt lat="40.219800" lon="-4.878567">
        <ele>1584.0</ele>
        <time>2013-07-06T12:51:22Z</time>
      </trkpt>
      <trkpt lat="40.219867" lon="-4.878633">
        <ele>1586.0</ele>
        <time>2013-07-06T12:51:23Z</time>
      </trkpt>
      <trkpt lat="40.219933" lon="-4.878683">
        <ele>1588.0</ele>
        <time>2013-07-06T12:51:24Z</time>
      </trkpt>
      <trkpt lat="40.219983" lon="-4.878767">
        <ele>1588.0</ele>
        <time>2013-07-06T12:51:25Z</time>
      </trkpt>
      <trkpt lat="40.220050" lon="-4.878867">
        <ele>1589.0</ele>
        <time>2013-07-06T12:51:26Z</time>
      </trkpt>
      <trkpt lat="40.220083" lon="-4.878983">
        <ele>1589.0</ele>
        <time>2013-07-06T12:51:27Z</time>
      </trkpt>
      <trkpt lat="40.220133" lon="-4.879117">
        <ele>1588.0</ele>
        <time>2013-07-06T12:51:28Z</time>
      </trkpt>
      <trkpt lat="40.220150" lon="-4.879250">
        <ele>1587.0</ele>
        <time>2013-07-06T12:51:29Z</time>
      </trkpt>
      <trkpt lat="40.220167" lon="-4.879367">
        <ele>1587.0</ele>
        <time>2013-07-06T12:51:30Z</time>
      </trkpt>
      <trkpt lat="40.220150" lon="-4.879483">
        <ele>1587.0</ele>
        <time>2013-07-06T12:51:31Z</time>
      </trkpt>
      <trkpt lat="40.220117" lon="-4.879617">
        <ele>1586.0</ele>
        <time>2013-07-06T12:51:32Z</time>
      </trkpt>
      <trkpt lat="40.220083" lon="-4.879717">
        <ele>1586.0</ele>
        <time>2013-07-06T12:51:33Z</time>
      </trkpt>
      <trkpt lat="40.220033" lon="-4.879833">
        <ele>1586.0</ele>
        <time>2013-07-06T12:51:34Z</time>
      </trkpt>
      <trkpt lat="40.219967" lon="-4.879933">
        <ele>1586.0</ele>
        <time>2013-07-06T12:51:35Z</time>
      </trkpt>
      <trkpt lat="40.219883" lon="-4.880000">
        <ele>1586.0</ele>
        <time>2013-07-06T12:51:36Z</time>
      </trkpt>
      <trkpt lat="40.219800" lon="-4.880050">
        <ele>1586.0</ele>
        <time>2013-07-06T12:51:37Z</time>
      </trkpt>
      <trkpt lat="40.219650" lon="-4.880100">
        <ele>1587.0</ele>
        <time>2013-07-06T12:51:39Z</time>
      </trkpt>
      <trkpt lat="40.219583" lon="-4.880117">
        <ele>1587.0</ele>
        <time>2013-07-06T12:51:40Z</time>
      </trkpt>
      <trkpt lat="40.219500" lon="-4.880117">
        <ele>1588.0</ele>
        <time>2013-07-06T12:51:41Z</time>
      </trkpt>
      <trkpt lat="40.219417" lon="-4.880100">
        <ele>1589.0</ele>
        <time>2013-07-06T12:51:42Z</time>
      </trkpt>
      <trkpt lat="40.219333" lon="-4.880067">
        <ele>1589.0</ele>
        <time>2013-07-06T12:51:43Z</time>
      </trkpt>
      <trkpt lat="40.219267" lon="-4.880033">
        <ele>1590.0</ele>
        <time>2013-07-06T12:51:44Z</time>
      </trkpt>
      <trkpt lat="40.219200" lon="-4.880000">
        <ele>1591.0</ele>
        <time>2013-07-06T12:51:45Z</time>
      </trkpt>
      <trkpt lat="40.219150" lon="-4.879950">
        <ele>1594.0</ele>
        <time>2013-07-06T12:51:46Z</time>
      </trkpt>
      <trkpt lat="40.219083" lon="-4.879883">
        <ele>1596.0</ele>
        <time>2013-07-06T12:51:47Z</time>
      </trkpt>
      <trkpt lat="40.219033" lon="-4.879817">
        <ele>1597.0</ele>
        <time>2013-07-06T12:51:48Z</time>
      </trkpt>
      <trkpt lat="40.218983" lon="-4.879750">
        <ele>1598.0</ele>
        <time>2013-07-06T12:51:49Z</time>
      </trkpt>
      <trkpt lat="40.218933" lon="-4.879683">
        <ele>1598.0</ele>
        <time>2013-07-06T12:51:50Z</time>
      </trkpt>
      <trkpt lat="40.218883" lon="-4.879617">
        <ele>1600.0</ele>
        <time>2013-07-06T12:51:51Z</time>
      </trkpt>
      <trkpt lat="40.218850" lon="-4.879550">
        <ele>1602.0</ele>
        <time>2013-07-06T12:51:52Z</time>
      </trkpt>
      <trkpt lat="40.218817" lon="-4.879483">
        <ele>1604.0</ele>
        <time>2013-07-06T12:51:53Z</time>
      </trkpt>
      <trkpt lat="40.218800" lon="-4.879417">
        <ele>1605.0</ele>
        <time>2013-07-06T12:51:54Z</time>
      </trkpt>
      <trkpt lat="40.218800" lon="-4.879333">
        <ele>1605.0</ele>
        <time>2013-07-06T12:51:55Z</time>
      </trkpt>
      <trkpt lat="40.218800" lon="-4.879233">
        <ele>1606.0</ele>
        <time>2013-07-06T12:51:56Z</time>
      </trkpt>
      <trkpt lat="40.218800" lon="-4.879133">
        <ele>1606.0</ele>
        <time>2013-07-06T12:51:57Z</time>
      </trkpt>
      <trkpt lat="40.218817" lon="-4.879033">
        <ele>1607.0</ele>
        <time>2013-07-06T12:51:58Z</time>
      </trkpt>
      <trkpt lat="40.218833" lon="-4.878950">
        <ele>1608.0</ele>
        <time>2013-07-06T12:51:59Z</time>
      </trkpt>
      <trkpt lat="40.218883" lon="-4.878867">
        <ele>1608.0</ele>
        <time>2013-07-06T12:52:00Z</time>
      </trkpt>
      <trkpt lat="40.218933" lon="-4.878800">
        <ele>1609.0</ele>
        <time>2013-07-06T12:52:01Z</time>
      </trkpt>
      <trkpt lat="40.219000" lon="-4.878733">
        <ele>1609.0</ele>
        <time>2013-07-06T12:52:02Z</time>
      </trkpt>
      <trkpt lat="40.219083" lon="-4.878683">
        <ele>1609.0</ele>
        <time>2013-07-06T12:52:03Z</time>
      </trkpt>
      <trkpt lat="40.219150" lon="-4.878617">
        <ele>1608.0</ele>
        <time>2013-07-06T12:52:04Z</time>
      </trkpt>
      <trkpt lat="40.219233" lon="-4.878583">
        <ele>1608.0</ele>
        <time>2013-07-06T12:52:05Z</time>
      </trkpt>
      <trkpt lat="40.219317" lon="-4.878550">
        <ele>1608.0</ele>
        <time>2013-07-06T12:52:06Z</time>
      </trkpt>
      <trkpt lat="40.219417" lon="-4.878550">
        <ele>1608.0</ele>
        <time>2013-07-06T12:52:07Z</time>
      </trkpt>
      <trkpt lat="40.219500" lon="-4.878567">
        <ele>1609.0</ele>
        <time>2013-07-06T12:52:08Z</time>
      </trkpt>
      <trkpt lat="40.219600" lon="-4.878600">
        <ele>1610.0</ele>
        <time>2013-07-06T12:52:09Z</time>
      </trkpt>
      <trkpt lat="40.219683" lon="-4.878650">
        <ele>1610.0</ele>
        <time>2013-07-06T12:52:10Z</time>
      </trkpt>
      <trkpt lat="40.219767" lon="-4.878700">
        <ele>1611.0</ele>
        <time>2013-07-06T12:52:11Z</time>
      </trkpt>
      <trkpt lat="40.219850" lon="-4.878783">
        <ele>1611.0</ele>
        <time>2013-07-06T12:52:12Z</time>
      </trkpt>
      <trkpt lat="40.219917" lon="-4.878850">
        <ele>1612.0</ele>
        <time>2013-07-06T12:52:13Z</time>
      </trkpt>
      <trkpt lat="40.219983" lon="-4.878933">
        <ele>1613.0</ele>
        <time>2013-07-06T12:52:14Z</time>
      </trkpt>
      <trkpt lat="40.220033" lon="-4.879050">
        <ele>1614.0</ele>
        <time>2013-07-06T12:52:15Z</time>
      </trkpt>
      <trkpt lat="40.220083" lon="-4.879167">
        <ele>1613.0</ele>
        <time>2013-07-06T12:52:16Z</time>
      </trkpt>
      <trkpt lat="40.220117" lon="-4.879283">
        <ele>1613.0</ele>
        <time>2013-07-06T12:52:17Z</time>
      </trkpt>
      <trkpt lat="40.220133" lon="-4.879417">
        <ele>1614.0</ele>
        <time>2013-07-06T12:52:18Z</time>
      </trkpt>
      <trkpt lat="40.220150" lon="-4.879533">
        <ele>1614.0</ele>
        <time>2013-07-06T12:52:19Z</time>
      </trkpt>
      <trkpt lat="40.220150" lon="-4.879650">
        <ele>1616.0</ele>
        <time>2013-07-06T12:52:20Z</time>
      </trkpt>
      <trkpt lat="40.220133" lon="-4.879750">
        <ele>1617.0</ele>
        <time>2013-07-06T12:52:21Z</time>
      </trkpt>
      <trkpt lat="40.220100" lon="-4.879850">
        <ele>1617.0</ele>
        <time>2013-07-06T12:52:22Z</time>
      </trkpt>
      <trkpt lat="40.220050" lon="-4.879950">
        <ele>1616.0</ele>
        <time>2013-07-06T12:52:23Z</time>
      </trkpt>
      <trkpt lat="40.219983" lon="-4.880033">
        <ele>1616.0</ele>
        <time>2013-07-06T12:52:24Z</time>
      </trkpt>
      <trkpt lat="40.219900" lon="-4.880083">
        <ele>1616.0</ele>
        <time>2013-07-06T12:52:25Z</time>
      </trkpt>
      <trkpt lat="40.219833" lon="-4.880133">
        <ele>1615.0</ele>
        <time>2013-07-06T12:52:26Z</time>
      </trkpt>
      <trkpt lat="40.219750" lon="-4.880150">
        <ele>1615.0</ele>
        <time>2013-07-06T12:52:27Z</time>
      </trkpt>
      <trkpt lat="40.219667" lon="-4.880167">
        <ele>1616.0</ele>
        <time>2013-07-06T12:52:28Z</time>
      </trkpt>
      <trkpt lat="40.219600" lon="-4.880167">
        <ele>1616.0</ele>
        <time>2013-07-06T12:52:29Z</time>
      </trkpt>
      <trkpt lat="40.219533" lon="-4.880183">
        <ele>1616.0</ele>
        <time>2013-07-06T12:52:30Z</time>
      </trkpt>
      <trkpt lat="40.219450" lon="-4.880183">
        <ele>1615.0</ele>
        <time>2013-07-06T12:52:31Z</time>
      </trkpt>
      <trkpt lat="40.219383" lon="-4.880167">
        <ele>1615.0</ele>
        <time>2013-07-06T12:52:32Z</time>
      </trkpt>
      <trkpt lat="40.219317" lon="-4.880133">
        <ele>1615.0</ele>
        <time>2013-07-06T12:52:33Z</time>
      </trkpt>
      <trkpt lat="40.219250" lon="-4.880083">
        <ele>1616.0</ele>
        <time>2013-07-06T12:52:34Z</time>
      </trkpt>
      <trkpt lat="40.219217" lon="-4.880033">
        <ele>1617.0</ele>
        <time>2013-07-06T12:52:35Z</time>
      </trkpt>
      <trkpt lat="40.219167" lon="-4.879983">
        <ele>1618.0</ele>
        <time>2013-07-06T12:52:36Z</time>
      </trkpt>
      <trkpt lat="40.219117" lon="-4.879933">
        <ele>1618.0</ele>
        <time>2013-07-06T12:52:37Z</time>
      </trkpt>
      <trkpt lat="40.219067" lon="-4.879850">
        <ele>1618.0</ele>
        <time>2013-07-06T12:52:38Z</time>
      </trkpt>
      <trkpt lat="40.219033" lon="-4.879783">
        <ele>1618.0</ele>
        <time>2013-07-06T12:52:39Z</time>
      </trkpt>
      <trkpt lat="40.219000" lon="-4.879700">
        <ele>1619.0</ele>
        <time>2013-07-06T12:52:40Z</time>
      </trkpt>
      <trkpt lat="40.218983" lon="-4.879617">
        <ele>1619.0</ele>
        <time>2013-07-06T12:52:41Z</time>
      </trkpt>
      <trkpt lat="40.218950" lon="-4.879533">
        <ele>1619.0</ele>
        <time>2013-07-06T12:52:42Z</time>
      </trkpt>
      <trkpt lat="40.218917" lon="-4.879450">
        <ele>1618.0</ele>
        <time>2013-07-06T12:52:43Z</time>
      </trkpt>
      <trkpt lat="40.218883" lon="-4.879367">
        <ele>1617.0</ele>
        <time>2013-07-06T12:52:44Z</time>
      </trkpt>
      <trkpt lat="40.218850" lon="-4.879283">
        <ele>1617.0</ele>
        <time>2013-07-06T12:52:45Z</time>
      </trkpt>
      <trkpt lat="40.218817" lon="-4.879200">
        <ele>1616.0</ele>
        <time>2013-07-06T12:52:46Z</time>
      </trkpt>
      <trkpt lat="40.218783" lon="-4.879117">
        <ele>1616.0</ele>
        <time>2013-07-06T12:52:47Z</time>
      </trkpt>
      <trkpt lat="40.218767" lon="-4.879033">
        <ele>1616.0</ele>
        <time>2013-07-06T12:52:48Z</time>
      </trkpt>
      <trkpt lat="40.218733" lon="-4.878933">
        <ele>1615.0</ele>
        <time>2013-07-06T12:52:49Z</time>
      </trkpt>
      <trkpt lat="40.218700" lon="-4.878833">
        <ele>1614.0</ele>
        <time>2013-07-06T12:52:50Z</time>
      </trkpt>
      <trkpt lat="40.218667" lon="-4.878750">
        <ele>1613.0</ele>
        <time>2013-07-06T12:52:51Z</time>
      </trkpt>
      <trkpt lat="40.218650" lon="-4.878667">
        <ele>1614.0</ele>
        <time>2013-07-06T12:52:52Z</time>
      </trkpt>
      <trkpt lat="40.218650" lon="-4.878567">
        <ele>1615.0</ele>
        <time>2013-07-06T12:52:53Z</time>
      </trkpt>
      <trkpt lat="40.218650" lon="-4.878467">
        <ele>1614.0</ele>
        <time>2013-07-06T12:52:54Z</time>
      </trkpt>
      <trkpt lat="40.218633" lon="-4.878367">
        <ele>1614.0</ele>
        <time>2013-07-06T12:52:55Z</time>
      </trkpt>
      <trkpt lat="40.218617" lon="-4.878267">
        <ele>1613.0</ele>
        <time>2013-07-06T12:52:56Z</time>
      </trkpt>
      <trkpt lat="40.218600" lon="-4.878167">
        <ele>1613.0</ele>
        <time>2013-07-06T12:52:57Z</time>
      </trkpt>
      <trkpt lat="40.218583" lon="-4.878067">
        <ele>1613.0</ele>
        <time>2013-07-06T12:52:58Z</time>
      </trkpt>
      <trkpt lat="40.218550" lon="-4.877950">
        <ele>1614.0</ele>
        <time>2013-07-06T12:52:59Z</time>
      </trkpt>
      <trkpt lat="40.218517" lon="-4.877850">
        <ele>1615.0</ele>
        <time>2013-07-06T12:53:00Z</time>
      </trkpt>
      <trkpt lat="40.218483" lon="-4.877767">
        <ele>1617.0</ele>
        <time>2013-07-06T12:53:01Z</time>
      </trkpt>
      <trkpt lat="40.218450" lon="-4.877700">
        <ele>1620.0</ele>
        <time>2013-07-06T12:53:02Z</time>
      </trkpt>
      <trkpt lat="40.218400" lon="-4.877633">
        <ele>1622.0</ele>
        <time>2013-07-06T12:53:03Z</time>
      </trkpt>
      <trkpt lat="40.218350" lon="-4.877567">
        <ele>1624.0</ele>
        <time>2013-07-06T12:53:04Z</time>
      </trkpt>
      <trkpt lat="40.218283" lon="-4.877500">
        <ele>1626.0</ele>
        <time>2013-07-06T12:53:05Z</time>
      </trkpt>
      <trkpt lat="40.218217" lon="-4.877433">
        <ele>1628.0</ele>
        <time>2013-07-06T12:53:06Z</time>
      </trkpt>
      <trkpt lat="40.218167" lon="-4.877383">
        <ele>1633.0</ele>
        <time>2013-07-06T12:53:07Z</time>
      </trkpt>
      <trkpt lat="40.218133" lon="-4.877317">
        <ele>1638.0</ele>
        <time>2013-07-06T12:53:08Z</time>
      </trkpt>
      <trkpt lat="40.218117" lon="-4.877250">
        <ele>1642.0</ele>
        <time>2013-07-06T12:53:09Z</time>
      </trkpt>
      <trkpt lat="40.218100" lon="-4.877150">
        <ele>1644.0</ele>
        <time>2013-07-06T12:53:10Z</time>
      </trkpt>
      <trkpt lat="40.218117" lon="-4.877033">
        <ele>1647.0</ele>
        <time>2013-07-06T12:53:11Z</time>
      </trkpt>
      <trkpt lat="40.218133" lon="-4.876917">
        <ele>1650.0</ele>
        <time>2013-07-06T12:53:12Z</time>
      </trkpt>
      <trkpt lat="40.218183" lon="-4.876833">
        <ele>1653.0</ele>
        <time>2013-07-06T12:53:13Z</time>
      </trkpt>
      <trkpt lat="40.218250" lon="-4.876750">
        <ele>1656.0</ele>
        <time>2013-07-06T12:53:14Z</time>
      </trkpt>
      <trkpt lat="40.218333" lon="-4.876717">
        <ele>1659.0</ele>
        <time>2013-07-06T12:53:15Z</time>
      </trkpt>
      <trkpt lat="40.218417" lon="-4.876700">
        <ele>1661.0</ele>
        <time>2013-07-06T12:53:16Z</time>
      </trkpt>
      <trkpt lat="40.218483" lon="-4.876700">
        <ele>1661.0</ele>
        <time>2013-07-06T12:53:17Z</time>
      </trkpt>
      <trkpt lat="40.218617" lon="-4.876667">
        <ele>1662.0</ele>
        <time>2013-07-06T12:53:19Z</time>
      </trkpt>
      <trkpt lat="40.218700" lon="-4.876633">
        <ele>1663.0</ele>
        <time>2013-07-06T12:53:20Z</time>
      </trkpt>
      <trkpt lat="40.218800" lon="-4.876600">
        <ele>1661.0</ele>
        <time>2013-07-06T12:53:21Z</time>
      </trkpt>
      <trkpt lat="40.218883" lon="-4.876600">
        <ele>1660.0</ele>
        <time>2013-07-06T12:53:22Z</time>
      </trkpt>
      <trkpt lat="40.218983" lon="-4.876633">
        <ele>1659.0</ele>
        <time>2013-07-06T12:53:23Z</time>
      </trkpt>
      <trkpt lat="40.219050" lon="-4.876700">
        <ele>1659.0</ele>
        <time>2013-07-06T12:53:24Z</time>
      </trkpt>
      <trkpt lat="40.219100" lon="-4.876767">
        <ele>1659.0</ele>
        <time>2013-07-06T12:53:25Z</time>
      </trkpt>
      <trkpt lat="40.219150" lon="-4.876850">
        <ele>1659.0</ele>
        <time>2013-07-06T12:53:26Z</time>
      </trkpt>
      <trkpt lat="40.219200" lon="-4.876950">
        <ele>1658.0</ele>
        <time>2013-07-06T12:53:27Z</time>
      </trkpt>
      <trkpt lat="40.219233" lon="-4.877067">
        <ele>1657.0</ele>
        <time>2013-07-06T12:53:28Z</time>
      </trkpt>
      <trkpt lat="40.219267" lon="-4.877183">
        <ele>1656.0</ele>
        <time>2013-07-06T12:53:29Z</time>
      </trkpt>
      <trkpt lat="40.219267" lon="-4.877300">
        <ele>1656.0</ele>
        <time>2013-07-06T12:53:30Z</time>
      </trkpt>
      <trkpt lat="40.219267" lon="-4.877417">
        <ele>1656.0</ele>
        <time>2013-07-06T12:53:31Z</time>
      </trkpt>
      <trkpt lat="40.219250" lon="-4.877667">
        <ele>1657.0</ele>
        <time>2013-07-06T12:53:33Z</time>
      </trkpt>
      <trkpt lat="40.219233" lon="-4.877767">
        <ele>1658.0</ele>
        <time>2013-07-06T12:53:34Z</time>
      </trkpt>
      <trkpt lat="40.219133" lon="-4.877950">
        <ele>1659.0</ele>
        <time>2013-07-06T12:53:36Z</time>
      </trkpt>
      <trkpt lat="40.219083" lon="-4.878017">
        <ele>1659.0</ele>
        <time>2013-07-06T12:53:37Z</time>
      </trkpt>
      <trkpt lat="40.219033" lon="-4.878050">
        <ele>1660.0</ele>
        <time>2013-07-06T12:53:38Z</time>
      </trkpt>
      <trkpt lat="40.218967" lon="-4.878083">
        <ele>1661.0</ele>
        <time>2013-07-06T12:53:39Z</time>
      </trkpt>
      <trkpt lat="40.218917" lon="-4.878117">
        <ele>1661.0</ele>
        <time>2013-07-06T12:53:40Z</time>
      </trkpt>
      <trkpt lat="40.218850" lon="-4.878167">
        <ele>1662.0</ele>
        <time>2013-07-06T12:53:41Z</time>
      </trkpt>
      <trkpt lat="40.218767" lon="-4.878200">
        <ele>1663.0</ele>
        <time>2013-07-06T12:53:42Z</time>
      </trkpt>
      <trkpt lat="40.218683" lon="-4.878233">
        <ele>1664.0</ele>
        <time>2013-07-06T12:53:43Z</time>
      </trkpt>
      <trkpt lat="40.218600" lon="-4.878267">
        <ele>1664.0</ele>
        <time>2013-07-06T12:53:44Z</time>
      </trkpt>
      <trkpt lat="40.218517" lon="-4.878283">
        <ele>1666.0</ele>
        <time>2013-07-06T12:53:45Z</time>
      </trkpt>
      <trkpt lat="40.218433" lon="-4.878283">
        <ele>1666.0</ele>
        <time>2013-07-06T12:53:46Z</time>
      </trkpt>
      <trkpt lat="40.218350" lon="-4.878283">
        <ele>1667.0</ele>
        <time>2013-07-06T12:53:47Z</time>
      </trkpt>
      <trkpt lat="40.218267" lon="-4.878267">
        <ele>1667.0</ele>
        <time>2013-07-06T12:53:48Z</time>
      </trkpt>
      <trkpt lat="40.218167" lon="-4.878267">
        <ele>1668.0</ele>
        <time>2013-07-06T12:53:49Z</time>
      </trkpt>
      <trkpt lat="40.218083" lon="-4.878250">
        <ele>1670.0</ele>
        <time>2013-07-06T12:53:50Z</time>
      </trkpt>
      <trkpt lat="40.218000" lon="-4.878217">
        <ele>1673.0</ele>
        <time>2013-07-06T12:53:51Z</time>
      </trkpt>
      <trkpt lat="40.217950" lon="-4.878183">
        <ele>1675.0</ele>
        <time>2013-07-06T12:53:52Z</time>
      </trkpt>
      <trkpt lat="40.217883" lon="-4.878150">
        <ele>1676.0</ele>
        <time>2013-07-06T12:53:53Z</time>
      </trkpt>
      <trkpt lat="40.217800" lon="-4.878100">
        <ele>1678.0</ele>
        <time>2013-07-06T12:53:54Z</time>
      </trkpt>
      <trkpt lat="40.217717" lon="-4.878050">
        <ele>1679.0</ele>
        <time>2013-07-06T12:53:55Z</time>
      </trkpt>
      <trkpt lat="40.217667" lon="-4.877983">
        <ele>1681.0</ele>
        <time>2013-07-06T12:53:56Z</time>
      </trkpt>
      <trkpt lat="40.217617" lon="-4.877900">
        <ele>1686.0</ele>
        <time>2013-07-06T12:53:57Z</time>
      </trkpt>
      <trkpt lat="40.217583" lon="-4.877800">
        <ele>1692.0</ele>
        <time>2013-07-06T12:53:58Z</time>
      </trkpt>
      <trkpt lat="40.217567" lon="-4.877683">
        <ele>1695.0</ele>
        <time>2013-07-06T12:53:59Z</time>
      </trkpt>
      <trkpt lat="40.217550" lon="-4.877583">
        <ele>1699.0</ele>
        <time>2013-07-06T12:54:00Z</time>
      </trkpt>
      <trkpt lat="40.217550" lon="-4.877467">
        <ele>1703.0</ele>
        <time>2013-07-06T12:54:01Z</time>
      </trkpt>
      <trkpt lat="40.217567" lon="-4.877350">
        <ele>1705.0</ele>
        <time>2013-07-06T12:54:02Z</time>
      </trkpt>
      <trkpt lat="40.217617" lon="-4.877233">
        <ele>1707.0</ele>
        <time>2013-07-06T12:54:03Z</time>
      </trkpt>
      <trkpt lat="40.217667" lon="-4.877133">
        <ele>1709.0</ele>
        <time>2013-07-06T12:54:04Z</time>
      </trkpt>
      <trkpt lat="40.217717" lon="-4.877050">
        <ele>1709.0</ele>
        <time>2013-07-06T12:54:05Z</time>
      </trkpt>
      <trkpt lat="40.217800" lon="-4.876967">
        <ele>1710.0</ele>
        <time>2013-07-06T12:54:06Z</time>
      </trkpt>
      <trkpt lat="40.217883" lon="-4.876900">
        <ele>1711.0</ele>
        <time>2013-07-06T12:54:07Z</time>
      </trkpt>
      <trkpt lat="40.217967" lon="-4.876850">
        <ele>1712.0</ele>
        <time>2013-07-06T12:54:08Z</time>
      </trkpt>
      <trkpt lat="40.218067" lon="-4.876817">
        <ele>1713.0</ele>
        <time>2013-07-06T12:54:09Z</time>
      </trkpt>
      <trkpt lat="40.218150" lon="-4.876800">
        <ele>1715.0</ele>
        <time>2013-07-06T12:54:10Z</time>
      </trkpt>
      <trkpt lat="40.218233" lon="-4.876800">
        <ele>1717.0</ele>
        <time>2013-07-06T12:54:11Z</time>
      </trkpt>
      <trkpt lat="40.218317" lon="-4.876833">
        <ele>1717.0</ele>
        <time>2013-07-06T12:54:12Z</time>
      </trkpt>
      <trkpt lat="40.218400" lon="-4.876850">
        <ele>1716.0</ele>
        <time>2013-07-06T12:54:13Z</time>
      </trkpt>
      <trkpt lat="40.218500" lon="-4.876917">
        <ele>1716.0</ele>
        <time>2013-07-06T12:54:14Z</time>
      </trkpt>
      <trkpt lat="40.218583" lon="-4.876983">
        <ele>1715.0</ele>
        <time>2013-07-06T12:54:15Z</time>
      </trkpt>
      <trkpt lat="40.218633" lon="-4.877067">
        <ele>1716.0</ele>
        <time>2013-07-06T12:54:16Z</time>
      </trkpt>
      <trkpt lat="40.218683" lon="-4.877167">
        <ele>1716.0</ele>
        <time>2013-07-06T12:54:17Z</time>
      </trkpt>
      <trkpt lat="40.218717" lon="-4.877267">
        <ele>1715.0</ele>
        <time>2013-07-06T12:54:18Z</time>
      </trkpt>
      <trkpt lat="40.218750" lon="-4.877400">
        <ele>1714.0</ele>
        <time>2013-07-06T12:54:19Z</time>
      </trkpt>
      <trkpt lat="40.218750" lon="-4.877533">
        <ele>1713.0</ele>
        <time>2013-07-06T12:54:20Z</time>
      </trkpt>
      <trkpt lat="40.218733" lon="-4.877667">
        <ele>1713.0</ele>
        <time>2013-07-06T12:54:21Z</time>
      </trkpt>
      <trkpt lat="40.218700" lon="-4.877783">
        <ele>1713.0</ele>
        <time>2013-07-06T12:54:22Z</time>
      </trkpt>
      <trkpt lat="40.218650" lon="-4.877850">
        <ele>1713.0</ele>
        <time>2013-07-06T12:54:23Z</time>
      </trkpt>
      <trkpt lat="40.218600" lon="-4.877883">
        <ele>1712.0</ele>
        <time>2013-07-06T12:54:24Z</time>
      </trkpt>
      <trkpt lat="40.218550" lon="-4.877933">
        <ele>1712.0</ele>
        <time>2013-07-06T12:54:25Z</time>
      </trkpt>
      <trkpt lat="40.218483" lon="-4.877967">
        <ele>1711.0</ele>
        <time>2013-07-06T12:54:26Z</time>
      </trkpt>
      <trkpt lat="40.218400" lon="-4.878000">
        <ele>1710.0</ele>
        <time>2013-07-06T12:54:27Z</time>
      </trkpt>
      <trkpt lat="40.218300" lon="-4.878033">
        <ele>1710.0</ele>
        <time>2013-07-06T12:54:28Z</time>
      </trkpt>
      <trkpt lat="40.218200" lon="-4.878050">
        <ele>1709.0</ele>
        <time>2013-07-06T12:54:29Z</time>
      </trkpt>
      <trkpt lat="40.218133" lon="-4.878067">
        <ele>1709.0</ele>
        <time>2013-07-06T12:54:30Z</time>
      </trkpt>
      <trkpt lat="40.218067" lon="-4.878067">
        <ele>1709.0</ele>
        <time>2013-07-06T12:54:31Z</time>
      </trkpt>
      <trkpt lat="40.217983" lon="-4.878067">
        <ele>1709.0</ele>
        <time>2013-07-06T12:54:32Z</time>
      </trkpt>
      <trkpt lat="40.217917" lon="-4.878050">
        <ele>1709.0</ele>
        <time>2013-07-06T12:54:33Z</time>
      </trkpt>
      <trkpt lat="40.217833" lon="-4.878033">
        <ele>1708.0</ele>
        <time>2013-07-06T12:54:34Z</time>
      </trkpt>
      <trkpt lat="40.217767" lon="-4.878017">
        <ele>1707.0</ele>
        <time>2013-07-06T12:54:35Z</time>
      </trkpt>
      <trkpt lat="40.217700" lon="-4.878000">
        <ele>1707.0</ele>
        <time>2013-07-06T12:54:36Z</time>
      </trkpt>
      <trkpt lat="40.217633" lon="-4.877950">
        <ele>1708.0</ele>
        <time>2013-07-06T12:54:37Z</time>
      </trkpt>
      <trkpt lat="40.217583" lon="-4.877917">
        <ele>1710.0</ele>
        <time>2013-07-06T12:54:38Z</time>
      </trkpt>
      <trkpt lat="40.217517" lon="-4.877850">
        <ele>1711.0</ele>
        <time>2013-07-06T12:54:39Z</time>
      </trkpt>
      <trkpt lat="40.217467" lon="-4.877783">
        <ele>1712.0</ele>
        <time>2013-07-06T12:54:40Z</time>
      </trkpt>
      <trkpt lat="40.217433" lon="-4.877700">
        <ele>1713.0</ele>
        <time>2013-07-06T12:54:41Z</time>
      </trkpt>
      <trkpt lat="40.217383" lon="-4.877617">
        <ele>1714.0</ele>
        <time>2013-07-06T12:54:42Z</time>
      </trkpt>
      <trkpt lat="40.217350" lon="-4.877533">
        <ele>1715.0</ele>
        <time>2013-07-06T12:54:43Z</time>
      </trkpt>
      <trkpt lat="40.217333" lon="-4.877450">
        <ele>1716.0</ele>
        <time>2013-07-06T12:54:44Z</time>
      </trkpt>
      <trkpt lat="40.217300" lon="-4.877333">
        <ele>1717.0</ele>
        <time>2013-07-06T12:54:45Z</time>
      </trkpt>
      <trkpt lat="40.217267" lon="-4.877217">
        <ele>1718.0</ele>
        <time>2013-07-06T12:54:46Z</time>
      </trkpt>
      <trkpt lat="40.217250" lon="-4.877100">
        <ele>1719.0</ele>
        <time>2013-07-06T12:54:47Z</time>
      </trkpt>
      <trkpt lat="40.217233" lon="-4.877000">
        <ele>1722.0</ele>
        <time>2013-07-06T12:54:48Z</time>
      </trkpt>
      <trkpt lat="40.217217" lon="-4.876917">
        <ele>1724.0</ele>
        <time>2013-07-06T12:54:49Z</time>
      </trkpt>
      <trkpt lat="40.217200" lon="-4.876833">
        <ele>1725.0</ele>
        <time>2013-07-06T12:54:50Z</time>
      </trkpt>
      <trkpt lat="40.217183" lon="-4.876767">
        <ele>1726.0</ele>
        <time>2013-07-06T12:54:51Z</time>
      </trkpt>
      <trkpt lat="40.217150" lon="-4.876683">
        <ele>1725.0</ele>
        <time>2013-07-06T12:54:52Z</time>
      </trkpt>
      <trkpt lat="40.217133" lon="-4.876583">
        <ele>1723.0</ele>
        <time>2013-07-06T12:54:53Z</time>
      </trkpt>
      <trkpt lat="40.217117" lon="-4.876483">
        <ele>1723.0</ele>
        <time>2013-07-06T12:54:54Z</time>
      </trkpt>
      <trkpt lat="40.217117" lon="-4.876383">
        <ele>1724.0</ele>
        <time>2013-07-06T12:54:55Z</time>
      </trkpt>
      <trkpt lat="40.217100" lon="-4.876283">
        <ele>1724.0</ele>
        <time>2013-07-06T12:54:56Z</time>
      </trkpt>
      <trkpt lat="40.217083" lon="-4.876200">
        <ele>1723.0</ele>
        <time>2013-07-06T12:54:57Z</time>
      </trkpt>
      <trkpt lat="40.217067" lon="-4.876117">
        <ele>1722.0</ele>
        <time>2013-07-06T12:54:58Z</time>
      </trkpt>
      <trkpt lat="40.217017" lon="-4.876017">
        <ele>1719.0</ele>
        <time>2013-07-06T12:54:59Z</time>
      </trkpt>
      <trkpt lat="40.216950" lon="-4.875917">
        <ele>1716.0</ele>
        <time>2013-07-06T12:55:00Z</time>
      </trkpt>
      <trkpt lat="40.216900" lon="-4.875817">
        <ele>1714.0</ele>
        <time>2013-07-06T12:55:01Z</time>
      </trkpt>
      <trkpt lat="40.216850" lon="-4.875750">
        <ele>1714.0</ele>
        <time>2013-07-06T12:55:02Z</time>
      </trkpt>
      <trkpt lat="40.216783" lon="-4.875700">
        <ele>1714.0</ele>
        <time>2013-07-06T12:55:03Z</time>
      </trkpt>
      <trkpt lat="40.216700" lon="-4.875633">
        <ele>1713.0</ele>
        <time>2013-07-06T12:55:04Z</time>
      </trkpt>
      <trkpt lat="40.216617" lon="-4.875583">
        <ele>1713.0</ele>
        <time>2013-07-06T12:55:05Z</time>
      </trkpt>
      <trkpt lat="40.216533" lon="-4.875517">
        <ele>1712.0</ele>
        <time>2013-07-06T12:55:06Z</time>
      </trkpt>
      <trkpt lat="40.216450" lon="-4.875450">
        <ele>1711.0</ele>
        <time>2013-07-06T12:55:07Z</time>
      </trkpt>
      <trkpt lat="40.216367" lon="-4.875383">
        <ele>1712.0</ele>
        <time>2013-07-06T12:55:08Z</time>
      </trkpt>
      <trkpt lat="40.216300" lon="-4.875317">
        <ele>1712.0</ele>
        <time>2013-07-06T12:55:09Z</time>
      </trkpt>
      <trkpt lat="40.216233" lon="-4.875267">
        <ele>1713.0</ele>
        <time>2013-07-06T12:55:10Z</time>
      </trkpt>
      <trkpt lat="40.216183" lon="-4.875233">
        <ele>1713.0</ele>
        <time>2013-07-06T12:55:11Z</time>
      </trkpt>
      <trkpt lat="40.216100" lon="-4.875183">
        <ele>1712.0</ele>
        <time>2013-07-06T12:55:12Z</time>
      </trkpt>
      <trkpt lat="40.216033" lon="-4.875150">
        <ele>1711.0</ele>
        <time>2013-07-06T12:55:13Z</time>
      </trkpt>
      <trkpt lat="40.215950" lon="-4.875100">
        <ele>1710.0</ele>
        <time>2013-07-06T12:55:14Z</time>
      </trkpt>
      <trkpt lat="40.215850" lon="-4.875050">
        <ele>1708.0</ele>
        <time>2013-07-06T12:55:15Z</time>
      </trkpt>
      <trkpt lat="40.215767" lon="-4.875000">
        <ele>1706.0</ele>
        <time>2013-07-06T12:55:16Z</time>
      </trkpt>
      <trkpt lat="40.215683" lon="-4.874967">
        <ele>1705.0</ele>
        <time>2013-07-06T12:55:17Z</time>
      </trkpt>
      <trkpt lat="40.215600" lon="-4.874917">
        <ele>1704.0</ele>
        <time>2013-07-06T12:55:18Z</time>
      </trkpt>
      <trkpt lat="40.215533" lon="-4.874883">
        <ele>1703.0</ele>
        <time>2013-07-06T12:55:19Z</time>
      </trkpt>
      <trkpt lat="40.215450" lon="-4.874833">
        <ele>1701.0</ele>
        <time>2013-07-06T12:55:20Z</time>
      </trkpt>
      <trkpt lat="40.215367" lon="-4.874800">
        <ele>1699.0</ele>
        <time>2013-07-06T12:55:21Z</time>
      </trkpt>
      <trkpt lat="40.215283" lon="-4.874750">
        <ele>1696.0</ele>
        <time>2013-07-06T12:55:22Z</time>
      </trkpt>
      <trkpt lat="40.215200" lon="-4.874700">
        <ele>1693.0</ele>
        <time>2013-07-06T12:55:23Z</time>
      </trkpt>
      <trkpt lat="40.215133" lon="-4.874617">
        <ele>1691.0</ele>
        <time>2013-07-06T12:55:24Z</time>
      </trkpt>
      <trkpt lat="40.215050" lon="-4.874550">
        <ele>1689.0</ele>
        <time>2013-07-06T12:55:25Z</time>
      </trkpt>
      <trkpt lat="40.215000" lon="-4.874467">
        <ele>1688.0</ele>
        <time>2013-07-06T12:55:26Z</time>
      </trkpt>
      <trkpt lat="40.214933" lon="-4.874400">
        <ele>1688.0</ele>
        <time>2013-07-06T12:55:27Z</time>
      </trkpt>
      <trkpt lat="40.214883" lon="-4.874333">
        <ele>1686.0</ele>
        <time>2013-07-06T12:55:28Z</time>
      </trkpt>
      <trkpt lat="40.214833" lon="-4.874267">
        <ele>1685.0</ele>
        <time>2013-07-06T12:55:29Z</time>
      </trkpt>
      <trkpt lat="40.214750" lon="-4.874183">
        <ele>1683.0</ele>
        <time>2013-07-06T12:55:30Z</time>
      </trkpt>
      <trkpt lat="40.214683" lon="-4.874117">
        <ele>1681.0</ele>
        <time>2013-07-06T12:55:31Z</time>
      </trkpt>
      <trkpt lat="40.214600" lon="-4.874050">
        <ele>1679.0</ele>
        <time>2013-07-06T12:55:32Z</time>
      </trkpt>
      <trkpt lat="40.214550" lon="-4.873983">
        <ele>1677.0</ele>
        <time>2013-07-06T12:55:33Z</time>
      </trkpt>
      <trkpt lat="40.214483" lon="-4.873917">
        <ele>1676.0</ele>
        <time>2013-07-06T12:55:34Z</time>
      </trkpt>
      <trkpt lat="40.214433" lon="-4.873850">
        <ele>1672.0</ele>
        <time>2013-07-06T12:55:35Z</time>
      </trkpt>
      <trkpt lat="40.214367" lon="-4.873767">
        <ele>1669.0</ele>
        <time>2013-07-06T12:55:36Z</time>
      </trkpt>
      <trkpt lat="40.214300" lon="-4.873683">
        <ele>1665.0</ele>
        <time>2013-07-06T12:55:37Z</time>
      </trkpt>
      <trkpt lat="40.214217" lon="-4.873600">
        <ele>1662.0</ele>
        <time>2013-07-06T12:55:38Z</time>
      </trkpt>
      <trkpt lat="40.214150" lon="-4.873533">
        <ele>1660.0</ele>
        <time>2013-07-06T12:55:39Z</time>
      </trkpt>
      <trkpt lat="40.214100" lon="-4.873450">
        <ele>1659.0</ele>
        <time>2013-07-06T12:55:40Z</time>
      </trkpt>
      <trkpt lat="40.214033" lon="-4.873400">
        <ele>1657.0</ele>
        <time>2013-07-06T12:55:41Z</time>
      </trkpt>
      <trkpt lat="40.213983" lon="-4.873333">
        <ele>1654.0</ele>
        <time>2013-07-06T12:55:42Z</time>
      </trkpt>
      <trkpt lat="40.213917" lon="-4.873267">
        <ele>1651.0</ele>
        <time>2013-07-06T12:55:43Z</time>
      </trkpt>
      <trkpt lat="40.213850" lon="-4.873200">
        <ele>1648.0</ele>
        <time>2013-07-06T12:55:44Z</time>
      </trkpt>
      <trkpt lat="40.213783" lon="-4.873133">
        <ele>1645.0</ele>
        <time>2013-07-06T12:55:45Z</time>
      </trkpt>
      <trkpt lat="40.213717" lon="-4.873083">
        <ele>1642.0</ele>
        <time>2013-07-06T12:55:46Z</time>
      </trkpt>
      <trkpt lat="40.213650" lon="-4.873033">
        <ele>1640.0</ele>
        <time>2013-07-06T12:55:47Z</time>
      </trkpt>
      <trkpt lat="40.213583" lon="-4.872967">
        <ele>1636.0</ele>
        <time>2013-07-06T12:55:48Z</time>
      </trkpt>
      <trkpt lat="40.213517" lon="-4.872917">
        <ele>1633.0</ele>
        <time>2013-07-06T12:55:49Z</time>
      </trkpt>
      <trkpt lat="40.213450" lon="-4.872850">
        <ele>1629.0</ele>
        <time>2013-07-06T12:55:50Z</time>
      </trkpt>
      <trkpt lat="40.213383" lon="-4.872800">
        <ele>1626.0</ele>
        <time>2013-07-06T12:55:51Z</time>
      </trkpt>
      <trkpt lat="40.213317" lon="-4.872733">
        <ele>1625.0</ele>
        <time>2013-07-06T12:55:52Z</time>
      </trkpt>
      <trkpt lat="40.213267" lon="-4.872683">
        <ele>1625.0</ele>
        <time>2013-07-06T12:55:53Z</time>
      </trkpt>
      <trkpt lat="40.213217" lon="-4.872650">
        <ele>1624.0</ele>
        <time>2013-07-06T12:55:54Z</time>
      </trkpt>
      <trkpt lat="40.213167" lon="-4.872600">
        <ele>1622.0</ele>
        <time>2013-07-06T12:55:55Z</time>
      </trkpt>
      <trkpt lat="40.213100" lon="-4.872550">
        <ele>1619.0</ele>
        <time>2013-07-06T12:55:56Z</time>
      </trkpt>
      <trkpt lat="40.213033" lon="-4.872500">
        <ele>1617.0</ele>
        <time>2013-07-06T12:55:57Z</time>
      </trkpt>
      <trkpt lat="40.212950" lon="-4.872467">
        <ele>1615.0</ele>
        <time>2013-07-06T12:55:58Z</time>
      </trkpt>
      <trkpt lat="40.212883" lon="-4.872417">
        <ele>1613.0</ele>
        <time>2013-07-06T12:55:59Z</time>
      </trkpt>
      <trkpt lat="40.212817" lon="-4.872400">
        <ele>1612.0</ele>
        <time>2013-07-06T12:56:00Z</time>
      </trkpt>
      <trkpt lat="40.212750" lon="-4.872367">
        <ele>1610.0</ele>
        <time>2013-07-06T12:56:01Z</time>
      </trkpt>
      <trkpt lat="40.212683" lon="-4.872317">
        <ele>1608.0</ele>
        <time>2013-07-06T12:56:02Z</time>
      </trkpt>
      <trkpt lat="40.212617" lon="-4.872250">
        <ele>1605.0</ele>
        <time>2013-07-06T12:56:03Z</time>
      </trkpt>
      <trkpt lat="40.212550" lon="-4.872200">
        <ele>1603.0</ele>
        <time>2013-07-06T12:56:04Z</time>
      </trkpt>
      <trkpt lat="40.212483" lon="-4.872150">
        <ele>1601.0</ele>
        <time>2013-07-06T12:56:05Z</time>
      </trkpt>
      <trkpt lat="40.212417" lon="-4.872117">
        <ele>1600.0</ele>
        <time>2013-07-06T12:56:06Z</time>
      </trkpt>
      <trkpt lat="40.212350" lon="-4.872067">
        <ele>1598.0</ele>
        <time>2013-07-06T12:56:07Z</time>
      </trkpt>
      <trkpt lat="40.212283" lon="-4.872033">
        <ele>1596.0</ele>
        <time>2013-07-06T12:56:08Z</time>
      </trkpt>
      <trkpt lat="40.212217" lon="-4.871983">
        <ele>1594.0</ele>
        <time>2013-07-06T12:56:09Z</time>
      </trkpt>
      <trkpt lat="40.212050" lon="-4.871900">
        <ele>1591.0</ele>
        <time>2013-07-06T12:56:11Z</time>
      </trkpt>
      <trkpt lat="40.211983" lon="-4.871867">
        <ele>1591.0</ele>
        <time>2013-07-06T12:56:12Z</time>
      </trkpt>
      <trkpt lat="40.211933" lon="-4.871850">
        <ele>1591.0</ele>
        <time>2013-07-06T12:56:13Z</time>
      </trkpt>
      <trkpt lat="40.211850" lon="-4.871817">
        <ele>1589.0</ele>
        <time>2013-07-06T12:56:14Z</time>
      </trkpt>
      <trkpt lat="40.211783" lon="-4.871783">
        <ele>1587.0</ele>
        <time>2013-07-06T12:56:15Z</time>
      </trkpt>
      <trkpt lat="40.211700" lon="-4.871750">
        <ele>1585.0</ele>
        <time>2013-07-06T12:56:16Z</time>
      </trkpt>
      <trkpt lat="40.211617" lon="-4.871717">
        <ele>1583.0</ele>
        <time>2013-07-06T12:56:17Z</time>
      </trkpt>
      <trkpt lat="40.211533" lon="-4.871700">
        <ele>1581.0</ele>
        <time>2013-07-06T12:56:18Z</time>
      </trkpt>
      <trkpt lat="40.211467" lon="-4.871667">
        <ele>1579.0</ele>
        <time>2013-07-06T12:56:19Z</time>
      </trkpt>
      <trkpt lat="40.211400" lon="-4.871650">
        <ele>1578.0</ele>
        <time>2013-07-06T12:56:20Z</time>
      </trkpt>
      <trkpt lat="40.211333" lon="-4.871650">
        <ele>1577.0</ele>
        <time>2013-07-06T12:56:21Z</time>
      </trkpt>
      <trkpt lat="40.211250" lon="-4.871633">
        <ele>1575.0</ele>
        <time>2013-07-06T12:56:22Z</time>
      </trkpt>
      <trkpt lat="40.211183" lon="-4.871617">
        <ele>1573.0</ele>
        <time>2013-07-06T12:56:23Z</time>
      </trkpt>
      <trkpt lat="40.211100" lon="-4.871617">
        <ele>1570.0</ele>
        <time>2013-07-06T12:56:24Z</time>
      </trkpt>
      <trkpt lat="40.211017" lon="-4.871600">
        <ele>1568.0</ele>
        <time>2013-07-06T12:56:25Z</time>
      </trkpt>
      <trkpt lat="40.210933" lon="-4.871583">
        <ele>1566.0</ele>
        <time>2013-07-06T12:56:26Z</time>
      </trkpt>
      <trkpt lat="40.210867" lon="-4.871583">
        <ele>1565.0</ele>
        <time>2013-07-06T12:56:27Z</time>
      </trkpt>
      <trkpt lat="40.210783" lon="-4.871567">
        <ele>1564.0</ele>
        <time>2013-07-06T12:56:28Z</time>
      </trkpt>
      <trkpt lat="40.210717" lon="-4.871567">
        <ele>1563.0</ele>
        <time>2013-07-06T12:56:29Z</time>
      </trkpt>
      <trkpt lat="40.210633" lon="-4.871550">
        <ele>1561.0</ele>
        <time>2013-07-06T12:56:30Z</time>
      </trkpt>
      <trkpt lat="40.210550" lon="-4.871533">
        <ele>1560.0</ele>
        <time>2013-07-06T12:56:31Z</time>
      </trkpt>
      <trkpt lat="40.210467" lon="-4.871533">
        <ele>1559.0</ele>
        <time>2013-07-06T12:56:32Z</time>
      </trkpt>
      <trkpt lat="40.210400" lon="-4.871517">
        <ele>1558.0</ele>
        <time>2013-07-06T12:56:33Z</time>
      </trkpt>
      <trkpt lat="40.210317" lon="-4.871517">
        <ele>1556.0</ele>
        <time>2013-07-06T12:56:34Z</time>
      </trkpt>
      <trkpt lat="40.210250" lon="-4.871500">
        <ele>1555.0</ele>
        <time>2013-07-06T12:56:35Z</time>
      </trkpt>
      <trkpt lat="40.210167" lon="-4.871467">
        <ele>1554.0</ele>
        <time>2013-07-06T12:56:36Z</time>
      </trkpt>
      <trkpt lat="40.210100" lon="-4.871450">
        <ele>1552.0</ele>
        <time>2013-07-06T12:56:37Z</time>
      </trkpt>
      <trkpt lat="40.210017" lon="-4.871417">
        <ele>1550.0</ele>
        <time>2013-07-06T12:56:38Z</time>
      </trkpt>
      <trkpt lat="40.209933" lon="-4.871400">
        <ele>1548.0</ele>
        <time>2013-07-06T12:56:39Z</time>
      </trkpt>
      <trkpt lat="40.209850" lon="-4.871367">
        <ele>1546.0</ele>
        <time>2013-07-06T12:56:40Z</time>
      </trkpt>
      <trkpt lat="40.209767" lon="-4.871350">
        <ele>1545.0</ele>
        <time>2013-07-06T12:56:41Z</time>
      </trkpt>
      <trkpt lat="40.209683" lon="-4.871333">
        <ele>1544.0</ele>
        <time>2013-07-06T12:56:42Z</time>
      </trkpt>
      <trkpt lat="40.209600" lon="-4.871300">
        <ele>1543.0</ele>
        <time>2013-07-06T12:56:43Z</time>
      </trkpt>
      <trkpt lat="40.209517" lon="-4.871283">
        <ele>1541.0</ele>
        <time>2013-07-06T12:56:44Z</time>
      </trkpt>
      <trkpt lat="40.209433" lon="-4.871250">
        <ele>1538.0</ele>
        <time>2013-07-06T12:56:45Z</time>
      </trkpt>
      <trkpt lat="40.209350" lon="-4.871217">
        <ele>1537.0</ele>
        <time>2013-07-06T12:56:46Z</time>
      </trkpt>
      <trkpt lat="40.209283" lon="-4.871183">
        <ele>1536.0</ele>
        <time>2013-07-06T12:56:47Z</time>
      </trkpt>
      <trkpt lat="40.209200" lon="-4.871150">
        <ele>1534.0</ele>
        <time>2013-07-06T12:56:48Z</time>
      </trkpt>
      <trkpt lat="40.209117" lon="-4.871133">
        <ele>1533.0</ele>
        <time>2013-07-06T12:56:49Z</time>
      </trkpt>
      <trkpt lat="40.209050" lon="-4.871100">
        <ele>1531.0</ele>
        <time>2013-07-06T12:56:50Z</time>
      </trkpt>
      <trkpt lat="40.208983" lon="-4.871083">
        <ele>1529.0</ele>
        <time>2013-07-06T12:56:51Z</time>
      </trkpt>
      <trkpt lat="40.208917" lon="-4.871067">
        <ele>1527.0</ele>
        <time>2013-07-06T12:56:52Z</time>
      </trkpt>
      <trkpt lat="40.208867" lon="-4.871050">
        <ele>1526.0</ele>
        <time>2013-07-06T12:56:53Z</time>
      </trkpt>
      <trkpt lat="40.208800" lon="-4.871033">
        <ele>1523.0</ele>
        <time>2013-07-06T12:56:54Z</time>
      </trkpt>
      <trkpt lat="40.208733" lon="-4.871000">
        <ele>1521.0</ele>
        <time>2013-07-06T12:56:55Z</time>
      </trkpt>
      <trkpt lat="40.208667" lon="-4.870983">
        <ele>1518.0</ele>
        <time>2013-07-06T12:56:56Z</time>
      </trkpt>
      <trkpt lat="40.208583" lon="-4.870983">
        <ele>1515.0</ele>
        <time>2013-07-06T12:56:57Z</time>
      </trkpt>
      <trkpt lat="40.208517" lon="-4.870967">
        <ele>1512.0</ele>
        <time>2013-07-06T12:56:58Z</time>
      </trkpt>
      <trkpt lat="40.208450" lon="-4.870967">
        <ele>1509.0</ele>
        <time>2013-07-06T12:56:59Z</time>
      </trkpt>
      <trkpt lat="40.208383" lon="-4.870950">
        <ele>1507.0</ele>
        <time>2013-07-06T12:57:00Z</time>
      </trkpt>
      <trkpt lat="40.208333" lon="-4.870933">
        <ele>1505.0</ele>
        <time>2013-07-06T12:57:01Z</time>
      </trkpt>
      <trkpt lat="40.208283" lon="-4.870933">
        <ele>1503.0</ele>
        <time>2013-07-06T12:57:02Z</time>
      </trkpt>
      <trkpt lat="40.208217" lon="-4.870917">
        <ele>1501.0</ele>
        <time>2013-07-06T12:57:03Z</time>
      </trkpt>
      <trkpt lat="40.208167" lon="-4.870900">
        <ele>1498.0</ele>
        <time>2013-07-06T12:57:04Z</time>
      </trkpt>
      <trkpt lat="40.208100" lon="-4.870900">
        <ele>1495.0</ele>
        <time>2013-07-06T12:57:05Z</time>
      </trkpt>
      <trkpt lat="40.208050" lon="-4.870900">
        <ele>1492.0</ele>
        <time>2013-07-06T12:57:06Z</time>
      </trkpt>
      <trkpt lat="40.207967" lon="-4.870917">
        <ele>1487.0</ele>
        <time>2013-07-06T12:57:08Z</time>
      </trkpt>
      <trkpt lat="40.207917" lon="-4.870917">
        <ele>1483.0</ele>
        <time>2013-07-06T12:57:09Z</time>
      </trkpt>
      <trkpt lat="40.207867" lon="-4.870917">
        <ele>1479.0</ele>
        <time>2013-07-06T12:57:10Z</time>
      </trkpt>
      <trkpt lat="40.207817" lon="-4.870917">
        <ele>1475.0</ele>
        <time>2013-07-06T12:57:11Z</time>
      </trkpt>
      <trkpt lat="40.207750" lon="-4.870933">
        <ele>1470.0</ele>
        <time>2013-07-06T12:57:12Z</time>
      </trkpt>
      <trkpt lat="40.207700" lon="-4.870950">
        <ele>1466.0</ele>
        <time>2013-07-06T12:57:13Z</time>
      </trkpt>
      <trkpt lat="40.207633" lon="-4.870950">
        <ele>1463.0</ele>
        <time>2013-07-06T12:57:14Z</time>
      </trkpt>
      <trkpt lat="40.207583" lon="-4.870950">
        <ele>1459.0</ele>
        <time>2013-07-06T12:57:15Z</time>
      </trkpt>
      <trkpt lat="40.207517" lon="-4.870950">
        <ele>1455.0</ele>
        <time>2013-07-06T12:57:16Z</time>
      </trkpt>
      <trkpt lat="40.207450" lon="-4.870950">
        <ele>1451.0</ele>
        <time>2013-07-06T12:57:17Z</time>
      </trkpt>
      <trkpt lat="40.207400" lon="-4.870950">
        <ele>1448.0</ele>
        <time>2013-07-06T12:57:18Z</time>
      </trkpt>
      <trkpt lat="40.207333" lon="-4.870950">
        <ele>1444.0</ele>
        <time>2013-07-06T12:57:19Z</time>
      </trkpt>
      <trkpt lat="40.207267" lon="-4.870950">
        <ele>1441.0</ele>
        <time>2013-07-06T12:57:20Z</time>
      </trkpt>
      <trkpt lat="40.207200" lon="-4.870950">
        <ele>1438.0</ele>
        <time>2013-07-06T12:57:21Z</time>
      </trkpt>
      <trkpt lat="40.207133" lon="-4.870933">
        <ele>1435.0</ele>
        <time>2013-07-06T12:57:22Z</time>
      </trkpt>
      <trkpt lat="40.207067" lon="-4.870917">
        <ele>1432.0</ele>
        <time>2013-07-06T12:57:23Z</time>
      </trkpt>
      <trkpt lat="40.207000" lon="-4.870883">
        <ele>1430.0</ele>
        <time>2013-07-06T12:57:24Z</time>
      </trkpt>
      <trkpt lat="40.206950" lon="-4.870867">
        <ele>1428.0</ele>
        <time>2013-07-06T12:57:25Z</time>
      </trkpt>
      <trkpt lat="40.206883" lon="-4.870850">
        <ele>1426.0</ele>
        <time>2013-07-06T12:57:26Z</time>
      </trkpt>
      <trkpt lat="40.206833" lon="-4.870833">
        <ele>1424.0</ele>
        <time>2013-07-06T12:57:27Z</time>
      </trkpt>
      <trkpt lat="40.206767" lon="-4.870833">
        <ele>1422.0</ele>
        <time>2013-07-06T12:57:28Z</time>
      </trkpt>
      <trkpt lat="40.206700" lon="-4.870817">
        <ele>1420.0</ele>
        <time>2013-07-06T12:57:29Z</time>
      </trkpt>
      <trkpt lat="40.206650" lon="-4.870783">
        <ele>1417.0</ele>
        <time>2013-07-06T12:57:30Z</time>
      </trkpt>
      <trkpt lat="40.206600" lon="-4.870767">
        <ele>1416.0</ele>
        <time>2013-07-06T12:57:31Z</time>
      </trkpt>
      <trkpt lat="40.206550" lon="-4.870750">
        <ele>1415.0</ele>
        <time>2013-07-06T12:57:32Z</time>
      </trkpt>
      <trkpt lat="40.206500" lon="-4.870717">
        <ele>1414.0</ele>
        <time>2013-07-06T12:57:33Z</time>
      </trkpt>
      <trkpt lat="40.206450" lon="-4.870700">
        <ele>1413.0</ele>
        <time>2013-07-06T12:57:34Z</time>
      </trkpt>
      <trkpt lat="40.206400" lon="-4.870667">
        <ele>1411.0</ele>
        <time>2013-07-06T12:57:35Z</time>
      </trkpt>
      <trkpt lat="40.206350" lon="-4.870650">
        <ele>1410.0</ele>
        <time>2013-07-06T12:57:36Z</time>
      </trkpt>
      <trkpt lat="40.206300" lon="-4.870633">
        <ele>1410.0</ele>
        <time>2013-07-06T12:57:37Z</time>
      </trkpt>
      <trkpt lat="40.206267" lon="-4.870617">
        <ele>1409.0</ele>
        <time>2013-07-06T12:57:38Z</time>
      </trkpt>
      <trkpt lat="40.206167" lon="-4.870600">
        <ele>1408.0</ele>
        <time>2013-07-06T12:57:40Z</time>
      </trkpt>
      <trkpt lat="40.206117" lon="-4.870567">
        <ele>1406.0</ele>
        <time>2013-07-06T12:57:41Z</time>
      </trkpt>
      <trkpt lat="40.206067" lon="-4.870533">
        <ele>1405.0</ele>
        <time>2013-07-06T12:57:42Z</time>
      </trkpt>
      <trkpt lat="40.206017" lon="-4.870517">
        <ele>1405.0</ele>
        <time>2013-07-06T12:57:43Z</time>
      </trkpt>
      <trkpt lat="40.205983" lon="-4.870500">
        <ele>1404.0</ele>
        <time>2013-07-06T12:57:44Z</time>
      </trkpt>
      <trkpt lat="40.205933" lon="-4.870483">
        <ele>1404.0</ele>
        <time>2013-07-06T12:57:45Z</time>
      </trkpt>
      <trkpt lat="40.205900" lon="-4.870467">
        <ele>1403.0</ele>
        <time>2013-07-06T12:57:46Z</time>
      </trkpt>
      <trkpt lat="40.205833" lon="-4.870450">
        <ele>1401.0</ele>
        <time>2013-07-06T12:57:47Z</time>
      </trkpt>
      <trkpt lat="40.205783" lon="-4.870417">
        <ele>1399.0</ele>
        <time>2013-07-06T12:57:48Z</time>
      </trkpt>
      <trkpt lat="40.205717" lon="-4.870400">
        <ele>1399.0</ele>
        <time>2013-07-06T12:57:49Z</time>
      </trkpt>
      <trkpt lat="40.205667" lon="-4.870367">
        <ele>1399.0</ele>
        <time>2013-07-06T12:57:50Z</time>
      </trkpt>
      <trkpt lat="40.205633" lon="-4.870350">
        <ele>1399.0</ele>
        <time>2013-07-06T12:57:51Z</time>
      </trkpt>
      <trkpt lat="40.205600" lon="-4.870333">
        <ele>1399.0</ele>
        <time>2013-07-06T12:57:52Z</time>
      </trkpt>
      <trkpt lat="40.205550" lon="-4.870300">
        <ele>1399.0</ele>
        <time>2013-07-06T12:57:53Z</time>
      </trkpt>
      <trkpt lat="40.205500" lon="-4.870267">
        <ele>1397.0</ele>
        <time>2013-07-06T12:57:54Z</time>
      </trkpt>
      <trkpt lat="40.205450" lon="-4.870233">
        <ele>1396.0</ele>
        <time>2013-07-06T12:57:55Z</time>
      </trkpt>
      <trkpt lat="40.205383" lon="-4.870200">
        <ele>1396.0</ele>
        <time>2013-07-06T12:57:56Z</time>
      </trkpt>
      <trkpt lat="40.205333" lon="-4.870183">
        <ele>1396.0</ele>
        <time>2013-07-06T12:57:57Z</time>
      </trkpt>
      <trkpt lat="40.205300" lon="-4.870150">
        <ele>1396.0</ele>
        <time>2013-07-06T12:57:58Z</time>
      </trkpt>
      <trkpt lat="40.205250" lon="-4.870133">
        <ele>1395.0</ele>
        <time>2013-07-06T12:57:59Z</time>
      </trkpt>
      <trkpt lat="40.205217" lon="-4.870117">
        <ele>1394.0</ele>
        <time>2013-07-06T12:58:00Z</time>
      </trkpt>
      <trkpt lat="40.205167" lon="-4.870100">
        <ele>1393.0</ele>
        <time>2013-07-06T12:58:01Z</time>
      </trkpt>
      <trkpt lat="40.205133" lon="-4.870067">
        <ele>1391.0</ele>
        <time>2013-07-06T12:58:02Z</time>
      </trkpt>
      <trkpt lat="40.205067" lon="-4.870050">
        <ele>1389.0</ele>
        <time>2013-07-06T12:58:03Z</time>
      </trkpt>
      <trkpt lat="40.205000" lon="-4.870017">
        <ele>1387.0</ele>
        <time>2013-07-06T12:58:04Z</time>
      </trkpt>
      <trkpt lat="40.204950" lon="-4.870000">
        <ele>1386.0</ele>
        <time>2013-07-06T12:58:05Z</time>
      </trkpt>
      <trkpt lat="40.204883" lon="-4.869983">
        <ele>1384.0</ele>
        <time>2013-07-06T12:58:06Z</time>
      </trkpt>
      <trkpt lat="40.204833" lon="-4.869950">
        <ele>1382.0</ele>
        <time>2013-07-06T12:58:07Z</time>
      </trkpt>
      <trkpt lat="40.204783" lon="-4.869933">
        <ele>1380.0</ele>
        <time>2013-07-06T12:58:08Z</time>
      </trkpt>
      <trkpt lat="40.204717" lon="-4.869900">
        <ele>1377.0</ele>
        <time>2013-07-06T12:58:09Z</time>
      </trkpt>
      <trkpt lat="40.204650" lon="-4.869883">
        <ele>1375.0</ele>
        <time>2013-07-06T12:58:10Z</time>
      </trkpt>
      <trkpt lat="40.204583" lon="-4.869867">
        <ele>1373.0</ele>
        <time>2013-07-06T12:58:11Z</time>
      </trkpt>
      <trkpt lat="40.204533" lon="-4.869850">
        <ele>1372.0</ele>
        <time>2013-07-06T12:58:12Z</time>
      </trkpt>
      <trkpt lat="40.204467" lon="-4.869850">
        <ele>1370.0</ele>
        <time>2013-07-06T12:58:13Z</time>
      </trkpt>
      <trkpt lat="40.204417" lon="-4.869833">
        <ele>1368.0</ele>
        <time>2013-07-06T12:58:14Z</time>
      </trkpt>
      <trkpt lat="40.204350" lon="-4.869817">
        <ele>1365.0</ele>
        <time>2013-07-06T12:58:15Z</time>
      </trkpt>
      <trkpt lat="40.204217" lon="-4.869800">
        <ele>1362.0</ele>
        <time>2013-07-06T12:58:17Z</time>
      </trkpt>
      <trkpt lat="40.204150" lon="-4.869783">
        <ele>1361.0</ele>
        <time>2013-07-06T12:58:18Z</time>
      </trkpt>
      <trkpt lat="40.204083" lon="-4.869767">
        <ele>1359.0</ele>
        <time>2013-07-06T12:58:19Z</time>
      </trkpt>
      <trkpt lat="40.204017" lon="-4.869733">
        <ele>1358.0</ele>
        <time>2013-07-06T12:58:20Z</time>
      </trkpt>
      <trkpt lat="40.203950" lon="-4.869700">
        <ele>1358.0</ele>
        <time>2013-07-06T12:58:21Z</time>
      </trkpt>
      <trkpt lat="40.203867" lon="-4.869683">
        <ele>1357.0</ele>
        <time>2013-07-06T12:58:22Z</time>
      </trkpt>
      <trkpt lat="40.203800" lon="-4.869650">
        <ele>1356.0</ele>
        <time>2013-07-06T12:58:23Z</time>
      </trkpt>
      <trkpt lat="40.203733" lon="-4.869617">
        <ele>1356.0</ele>
        <time>2013-07-06T12:58:24Z</time>
      </trkpt>
      <trkpt lat="40.203667" lon="-4.869600">
        <ele>1357.0</ele>
        <time>2013-07-06T12:58:25Z</time>
      </trkpt>
      <trkpt lat="40.203600" lon="-4.869567">
        <ele>1358.0</ele>
        <time>2013-07-06T12:58:26Z</time>
      </trkpt>
      <trkpt lat="40.203533" lon="-4.869533">
        <ele>1358.0</ele>
        <time>2013-07-06T12:58:27Z</time>
      </trkpt>
      <trkpt lat="40.203467" lon="-4.869517">
        <ele>1358.0</ele>
        <time>2013-07-06T12:58:28Z</time>
      </trkpt>
      <trkpt lat="40.203400" lon="-4.869483">
        <ele>1359.0</ele>
        <time>2013-07-06T12:58:29Z</time>
      </trkpt>
      <trkpt lat="40.203350" lon="-4.869467">
        <ele>1360.0</ele>
        <time>2013-07-06T12:58:30Z</time>
      </trkpt>
      <trkpt lat="40.203317" lon="-4.869433">
        <ele>1362.0</ele>
        <time>2013-07-06T12:58:31Z</time>
      </trkpt>
      <trkpt lat="40.203283" lon="-4.869383">
        <ele>1363.0</ele>
        <time>2013-07-06T12:58:32Z</time>
      </trkpt>
      <trkpt lat="40.203233" lon="-4.869317">
        <ele>1363.0</ele>
        <time>2013-07-06T12:58:33Z</time>
      </trkpt>
      <trkpt lat="40.203167" lon="-4.869250">
        <ele>1363.0</ele>
        <time>2013-07-06T12:58:34Z</time>
      </trkpt>
      <trkpt lat="40.203117" lon="-4.869217">
        <ele>1366.0</ele>
        <time>2013-07-06T12:58:35Z</time>
      </trkpt>
      <trkpt lat="40.203083" lon="-4.869200">
        <ele>1369.0</ele>
        <time>2013-07-06T12:58:36Z</time>
      </trkpt>
      <trkpt lat="40.203050" lon="-4.869183">
        <ele>1372.0</ele>
        <time>2013-07-06T12:58:37Z</time>
      </trkpt>
      <trkpt lat="40.203000" lon="-4.869150">
        <ele>1374.0</ele>
        <time>2013-07-06T12:58:38Z</time>
      </trkpt>
      <trkpt lat="40.202950" lon="-4.869133">
        <ele>1375.0</ele>
        <time>2013-07-06T12:58:39Z</time>
      </trkpt>
      <trkpt lat="40.202917" lon="-4.869083">
        <ele>1375.0</ele>
        <time>2013-07-06T12:58:40Z</time>
      </trkpt>
      <trkpt lat="40.202867" lon="-4.869050">
        <ele>1375.0</ele>
        <time>2013-07-06T12:58:41Z</time>
      </trkpt>
      <trkpt lat="40.202817" lon="-4.869017">
        <ele>1376.0</ele>
        <time>2013-07-06T12:58:42Z</time>
      </trkpt>
      <trkpt lat="40.202767" lon="-4.868983">
        <ele>1376.0</ele>
        <time>2013-07-06T12:58:43Z</time>
      </trkpt>
      <trkpt lat="40.202717" lon="-4.868983">
        <ele>1375.0</ele>
        <time>2013-07-06T12:58:44Z</time>
      </trkpt>
      <trkpt lat="40.202650" lon="-4.868967">
        <ele>1374.0</ele>
        <time>2013-07-06T12:58:45Z</time>
      </trkpt>
      <trkpt lat="40.202600" lon="-4.868933">
        <ele>1373.0</ele>
        <time>2013-07-06T12:58:46Z</time>
      </trkpt>
      <trkpt lat="40.202567" lon="-4.868883">
        <ele>1373.0</ele>
        <time>2013-07-06T12:58:47Z</time>
      </trkpt>
      <trkpt lat="40.202550" lon="-4.868817">
        <ele>1372.0</ele>
        <time>2013-07-06T12:58:48Z</time>
      </trkpt>
      <trkpt lat="40.202533" lon="-4.868733">
        <ele>1370.0</ele>
        <time>2013-07-06T12:58:49Z</time>
      </trkpt>
      <trkpt lat="40.202533" lon="-4.868650">
        <ele>1370.0</ele>
        <time>2013-07-06T12:58:50Z</time>
      </trkpt>
      <trkpt lat="40.202550" lon="-4.868550">
        <ele>1370.0</ele>
        <time>2013-07-06T12:58:51Z</time>
      </trkpt>
      <trkpt lat="40.202583" lon="-4.868467">
        <ele>1370.0</ele>
        <time>2013-07-06T12:58:52Z</time>
      </trkpt>
      <trkpt lat="40.202650" lon="-4.868400">
        <ele>1370.0</ele>
        <time>2013-07-06T12:58:53Z</time>
      </trkpt>
      <trkpt lat="40.202717" lon="-4.868350">
        <ele>1370.0</ele>
        <time>2013-07-06T12:58:54Z</time>
      </trkpt>
      <trkpt lat="40.202800" lon="-4.868317">
        <ele>1371.0</ele>
        <time>2013-07-06T12:58:55Z</time>
      </trkpt>
      <trkpt lat="40.202883" lon="-4.868317">
        <ele>1372.0</ele>
        <time>2013-07-06T12:58:56Z</time>
      </trkpt>
      <trkpt lat="40.202967" lon="-4.868333">
        <ele>1372.0</ele>
        <time>2013-07-06T12:58:57Z</time>
      </trkpt>
      <trkpt lat="40.203050" lon="-4.868367">
        <ele>1373.0</ele>
        <time>2013-07-06T12:58:58Z</time>
      </trkpt>
      <trkpt lat="40.203133" lon="-4.868417">
        <ele>1373.0</ele>
        <time>2013-07-06T12:58:59Z</time>
      </trkpt>
      <trkpt lat="40.203217" lon="-4.868467">
        <ele>1372.0</ele>
        <time>2013-07-06T12:59:00Z</time>
      </trkpt>
      <trkpt lat="40.203300" lon="-4.868533">
        <ele>1371.0</ele>
        <time>2013-07-06T12:59:01Z</time>
      </trkpt>
      <trkpt lat="40.203383" lon="-4.868633">
        <ele>1370.0</ele>
        <time>2013-07-06T12:59:02Z</time>
      </trkpt>
      <trkpt lat="40.203450" lon="-4.868750">
        <ele>1370.0</ele>
        <time>2013-07-06T12:59:03Z</time>
      </trkpt>
      <trkpt lat="40.203517" lon="-4.868883">
        <ele>1371.0</ele>
        <time>2013-07-06T12:59:04Z</time>
      </trkpt>
      <trkpt lat="40.203550" lon="-4.869000">
        <ele>1373.0</ele>
        <time>2013-07-06T12:59:05Z</time>
      </trkpt>
      <trkpt lat="40.203583" lon="-4.869133">
        <ele>1374.0</ele>
        <time>2013-07-06T12:59:06Z</time>
      </trkpt>
      <trkpt lat="40.203650" lon="-4.869417">
        <ele>1377.0</ele>
        <time>2013-07-06T12:59:08Z</time>
      </trkpt>
      <trkpt lat="40.203667" lon="-4.869567">
        <ele>1377.0</ele>
        <time>2013-07-06T12:59:09Z</time>
      </trkpt>
      <trkpt lat="40.203650" lon="-4.869717">
        <ele>1376.0</ele>
        <time>2013-07-06T12:59:10Z</time>
      </trkpt>
      <trkpt lat="40.203567" lon="-4.869950">
        <ele>1375.0</ele>
        <time>2013-07-06T12:59:12Z</time>
      </trkpt>
      <trkpt lat="40.203500" lon="-4.870050">
        <ele>1374.0</ele>
        <time>2013-07-06T12:59:13Z</time>
      </trkpt>
      <trkpt lat="40.203367" lon="-4.870217">
        <ele>1374.0</ele>
        <time>2013-07-06T12:59:15Z</time>
      </trkpt>
      <trkpt lat="40.203300" lon="-4.870267">
        <ele>1373.0</ele>
        <time>2013-07-06T12:59:16Z</time>
      </trkpt>
      <trkpt lat="40.203233" lon="-4.870317">
        <ele>1373.0</ele>
        <time>2013-07-06T12:59:17Z</time>
      </trkpt>
      <trkpt lat="40.203167" lon="-4.870350">
        <ele>1372.0</ele>
        <time>2013-07-06T12:59:18Z</time>
      </trkpt>
      <trkpt lat="40.203100" lon="-4.870383">
        <ele>1372.0</ele>
        <time>2013-07-06T12:59:19Z</time>
      </trkpt>
      <trkpt lat="40.203050" lon="-4.870400">
        <ele>1371.0</ele>
        <time>2013-07-06T12:59:20Z</time>
      </trkpt>
      <trkpt lat="40.202983" lon="-4.870417">
        <ele>1371.0</ele>
        <time>2013-07-06T12:59:21Z</time>
      </trkpt>
      <trkpt lat="40.202900" lon="-4.870433">
        <ele>1369.0</ele>
        <time>2013-07-06T12:59:22Z</time>
      </trkpt>
      <trkpt lat="40.202833" lon="-4.870450">
        <ele>1368.0</ele>
        <time>2013-07-06T12:59:23Z</time>
      </trkpt>
      <trkpt lat="40.202767" lon="-4.870450">
        <ele>1367.0</ele>
        <time>2013-07-06T12:59:24Z</time>
      </trkpt>
      <trkpt lat="40.202717" lon="-4.870433">
        <ele>1366.0</ele>
        <time>2013-07-06T12:59:25Z</time>
      </trkpt>
      <trkpt lat="40.202667" lon="-4.870417">
        <ele>1364.0</ele>
        <time>2013-07-06T12:59:26Z</time>
      </trkpt>
      <trkpt lat="40.202617" lon="-4.870383">
        <ele>1362.0</ele>
        <time>2013-07-06T12:59:27Z</time>
      </trkpt>
      <trkpt lat="40.202533" lon="-4.870367">
        <ele>1359.0</ele>
        <time>2013-07-06T12:59:28Z</time>
      </trkpt>
      <trkpt lat="40.202450" lon="-4.870333">
        <ele>1356.0</ele>
        <time>2013-07-06T12:59:29Z</time>
      </trkpt>
      <trkpt lat="40.202367" lon="-4.870300">
        <ele>1354.0</ele>
        <time>2013-07-06T12:59:30Z</time>
      </trkpt>
      <trkpt lat="40.202300" lon="-4.870267">
        <ele>1353.0</ele>
        <time>2013-07-06T12:59:31Z</time>
      </trkpt>
      <trkpt lat="40.202250" lon="-4.870233">
        <ele>1353.0</ele>
        <time>2013-07-06T12:59:32Z</time>
      </trkpt>
      <trkpt lat="40.202200" lon="-4.870200">
        <ele>1353.0</ele>
        <time>2013-07-06T12:59:33Z</time>
      </trkpt>
      <trkpt lat="40.202133" lon="-4.870167">
        <ele>1351.0</ele>
        <time>2013-07-06T12:59:34Z</time>
      </trkpt>
      <trkpt lat="40.202050" lon="-4.870100">
        <ele>1350.0</ele>
        <time>2013-07-06T12:59:35Z</time>
      </trkpt>
      <trkpt lat="40.201983" lon="-4.870050">
        <ele>1350.0</ele>
        <time>2013-07-06T12:59:36Z</time>
      </trkpt>
      <trkpt lat="40.201933" lon="-4.870000">
        <ele>1352.0</ele>
        <time>2013-07-06T12:59:37Z</time>
      </trkpt>
      <trkpt lat="40.201883" lon="-4.869967">
        <ele>1355.0</ele>
        <time>2013-07-06T12:59:38Z</time>
      </trkpt>
      <trkpt lat="40.201833" lon="-4.869933">
        <ele>1356.0</ele>
        <time>2013-07-06T12:59:39Z</time>
      </trkpt>
      <trkpt lat="40.201783" lon="-4.869883">
        <ele>1357.0</ele>
        <time>2013-07-06T12:59:40Z</time>
      </trkpt>
      <trkpt lat="40.201733" lon="-4.869850">
        <ele>1357.0</ele>
        <time>2013-07-06T12:59:41Z</time>
      </trkpt>
      <trkpt lat="40.201667" lon="-4.869800">
        <ele>1357.0</ele>
        <time>2013-07-06T12:59:42Z</time>
      </trkpt>
      <trkpt lat="40.201600" lon="-4.869767">
        <ele>1358.0</ele>
        <time>2013-07-06T12:59:43Z</time>
      </trkpt>
      <trkpt lat="40.201533" lon="-4.869733">
        <ele>1358.0</ele>
        <time>2013-07-06T12:59:44Z</time>
      </trkpt>
      <trkpt lat="40.201467" lon="-4.869717">
        <ele>1360.0</ele>
        <time>2013-07-06T12:59:45Z</time>
      </trkpt>
      <trkpt lat="40.201400" lon="-4.869683">
        <ele>1362.0</ele>
        <time>2013-07-06T12:59:46Z</time>
      </trkpt>
      <trkpt lat="40.201350" lon="-4.869650">
        <ele>1364.0</ele>
        <time>2013-07-06T12:59:47Z</time>
      </trkpt>
      <trkpt lat="40.201283" lon="-4.869617">
        <ele>1365.0</ele>
        <time>2013-07-06T12:59:48Z</time>
      </trkpt>
      <trkpt lat="40.201217" lon="-4.869583">
        <ele>1366.0</ele>
        <time>2013-07-06T12:59:49Z</time>
      </trkpt>
      <trkpt lat="40.201150" lon="-4.869533">
        <ele>1367.0</ele>
        <time>2013-07-06T12:59:50Z</time>
      </trkpt>
      <trkpt lat="40.201067" lon="-4.869517">
        <ele>1367.0</ele>
        <time>2013-07-06T12:59:51Z</time>
      </trkpt>
      <trkpt lat="40.200983" lon="-4.869483">
        <ele>1368.0</ele>
        <time>2013-07-06T12:59:52Z</time>
      </trkpt>
      <trkpt lat="40.200917" lon="-4.869450">
        <ele>1369.0</ele>
        <time>2013-07-06T12:59:53Z</time>
      </trkpt>
      <trkpt lat="40.200833" lon="-4.869450">
        <ele>1369.0</ele>
        <time>2013-07-06T12:59:54Z</time>
      </trkpt>
      <trkpt lat="40.200767" lon="-4.869450">
        <ele>1369.0</ele>
        <time>2013-07-06T12:59:55Z</time>
      </trkpt>
      <trkpt lat="40.200717" lon="-4.869450">
        <ele>1369.0</ele>
        <time>2013-07-06T12:59:56Z</time>
      </trkpt>
      <trkpt lat="40.200650" lon="-4.869433">
        <ele>1369.0</ele>
        <time>2013-07-06T12:59:57Z</time>
      </trkpt>
      <trkpt lat="40.200583" lon="-4.869433">
        <ele>1369.0</ele>
        <time>2013-07-06T12:59:58Z</time>
      </trkpt>
      <trkpt lat="40.200517" lon="-4.869433">
        <ele>1369.0</ele>
        <time>2013-07-06T12:59:59Z</time>
      </trkpt>
      <trkpt lat="40.200450" lon="-4.869433">
        <ele>1369.0</ele>
        <time>2013-07-06T13:00:00Z</time>
      </trkpt>
      <trkpt lat="40.200383" lon="-4.869433">
        <ele>1369.0</ele>
        <time>2013-07-06T13:00:01Z</time>
      </trkpt>
      <trkpt lat="40.200317" lon="-4.869433">
        <ele>1369.0</ele>
        <time>2013-07-06T13:00:02Z</time>
      </trkpt>
      <trkpt lat="40.200250" lon="-4.869417">
        <ele>1369.0</ele>
        <time>2013-07-06T13:00:03Z</time>
      </trkpt>
      <trkpt lat="40.200200" lon="-4.869417">
        <ele>1369.0</ele>
        <time>2013-07-06T13:00:04Z</time>
      </trkpt>
      <trkpt lat="40.200133" lon="-4.869400">
        <ele>1368.0</ele>
        <time>2013-07-06T13:00:05Z</time>
      </trkpt>
      <trkpt lat="40.200067" lon="-4.869400">
        <ele>1368.0</ele>
        <time>2013-07-06T13:00:06Z</time>
      </trkpt>
      <trkpt lat="40.199983" lon="-4.869383">
        <ele>1367.0</ele>
        <time>2013-07-06T13:00:07Z</time>
      </trkpt>
      <trkpt lat="40.199917" lon="-4.869367">
        <ele>1368.0</ele>
        <time>2013-07-06T13:00:08Z</time>
      </trkpt>
      <trkpt lat="40.199850" lon="-4.869367">
        <ele>1369.0</ele>
        <time>2013-07-06T13:00:09Z</time>
      </trkpt>
      <trkpt lat="40.199800" lon="-4.869367">
        <ele>1371.0</ele>
        <time>2013-07-06T13:00:10Z</time>
      </trkpt>
      <trkpt lat="40.199733" lon="-4.869350">
        <ele>1372.0</ele>
        <time>2013-07-06T13:00:11Z</time>
      </trkpt>
      <trkpt lat="40.199667" lon="-4.869333">
        <ele>1372.0</ele>
        <time>2013-07-06T13:00:12Z</time>
      </trkpt>
      <trkpt lat="40.199600" lon="-4.869317">
        <ele>1373.0</ele>
        <time>2013-07-06T13:00:13Z</time>
      </trkpt>
      <trkpt lat="40.199533" lon="-4.869317">
        <ele>1374.0</ele>
        <time>2013-07-06T13:00:14Z</time>
      </trkpt>
      <trkpt lat="40.199467" lon="-4.869300">
        <ele>1374.0</ele>
        <time>2013-07-06T13:00:15Z</time>
      </trkpt>
      <trkpt lat="40.199400" lon="-4.869300">
        <ele>1375.0</ele>
        <time>2013-07-06T13:00:16Z</time>
      </trkpt>
      <trkpt lat="40.199333" lon="-4.869300">
        <ele>1376.0</ele>
        <time>2013-07-06T13:00:17Z</time>
      </trkpt>
      <trkpt lat="40.199267" lon="-4.869300">
        <ele>1377.0</ele>
        <time>2013-07-06T13:00:18Z</time>
      </trkpt>
      <trkpt lat="40.199183" lon="-4.869333">
        <ele>1378.0</ele>
        <time>2013-07-06T13:00:19Z</time>
      </trkpt>
      <trkpt lat="40.199117" lon="-4.869350">
        <ele>1377.0</ele>
        <time>2013-07-06T13:00:20Z</time>
      </trkpt>
      <trkpt lat="40.199033" lon="-4.869400">
        <ele>1377.0</ele>
        <time>2013-07-06T13:00:21Z</time>
      </trkpt>
      <trkpt lat="40.198967" lon="-4.869467">
        <ele>1377.0</ele>
        <time>2013-07-06T13:00:22Z</time>
      </trkpt>
      <trkpt lat="40.198900" lon="-4.869550">
        <ele>1375.0</ele>
        <time>2013-07-06T13:00:23Z</time>
      </trkpt>
      <trkpt lat="40.198650" lon="-4.869767">
        <ele>1374.0</ele>
        <time>2013-07-06T13:00:26Z</time>
      </trkpt>
      <trkpt lat="40.198550" lon="-4.869800">
        <ele>1373.0</ele>
        <time>2013-07-06T13:00:27Z</time>
      </trkpt>
      <trkpt lat="40.198467" lon="-4.869817">
        <ele>1373.0</ele>
        <time>2013-07-06T13:00:28Z</time>
      </trkpt>
      <trkpt lat="40.198367" lon="-4.869850">
        <ele>1373.0</ele>
        <time>2013-07-06T13:00:29Z</time>
      </trkpt>
      <trkpt lat="40.198283" lon="-4.869867">
        <ele>1373.0</ele>
        <time>2013-07-06T13:00:30Z</time>
      </trkpt>
      <trkpt lat="40.198217" lon="-4.869867">
        <ele>1373.0</ele>
        <time>2013-07-06T13:00:31Z</time>
      </trkpt>
      <trkpt lat="40.198133" lon="-4.869850">
        <ele>1372.0</ele>
        <time>2013-07-06T13:00:32Z</time>
      </trkpt>
      <trkpt lat="40.198050" lon="-4.869833">
        <ele>1371.0</ele>
        <time>2013-07-06T13:00:33Z</time>
      </trkpt>
      <trkpt lat="40.197983" lon="-4.869817">
        <ele>1371.0</ele>
        <time>2013-07-06T13:00:34Z</time>
      </trkpt>
      <trkpt lat="40.197900" lon="-4.869783">
        <ele>1370.0</ele>
        <time>2013-07-06T13:00:35Z</time>
      </trkpt>
      <trkpt lat="40.197833" lon="-4.869767">
        <ele>1370.0</ele>
        <time>2013-07-06T13:00:36Z</time>
      </trkpt>
      <trkpt lat="40.197767" lon="-4.869750">
        <ele>1371.0</ele>
        <time>2013-07-06T13:00:37Z</time>
      </trkpt>
      <trkpt lat="40.197717" lon="-4.869717">
        <ele>1371.0</ele>
        <time>2013-07-06T13:00:38Z</time>
      </trkpt>
      <trkpt lat="40.197650" lon="-4.869683">
        <ele>1371.0</ele>
        <time>2013-07-06T13:00:39Z</time>
      </trkpt>
      <trkpt lat="40.197567" lon="-4.869633">
        <ele>1369.0</ele>
        <time>2013-07-06T13:00:40Z</time>
      </trkpt>
      <trkpt lat="40.197500" lon="-4.869600">
        <ele>1368.0</ele>
        <time>2013-07-06T13:00:41Z</time>
      </trkpt>
      <trkpt lat="40.197417" lon="-4.869567">
        <ele>1367.0</ele>
        <time>2013-07-06T13:00:42Z</time>
      </trkpt>
      <trkpt lat="40.197333" lon="-4.869533">
        <ele>1366.0</ele>
        <time>2013-07-06T13:00:43Z</time>
      </trkpt>
      <trkpt lat="40.197267" lon="-4.869517">
        <ele>1366.0</ele>
        <time>2013-07-06T13:00:44Z</time>
      </trkpt>
      <trkpt lat="40.197217" lon="-4.869500">
        <ele>1365.0</ele>
        <time>2013-07-06T13:00:45Z</time>
      </trkpt>
      <trkpt lat="40.197167" lon="-4.869483">
        <ele>1364.0</ele>
        <time>2013-07-06T13:00:46Z</time>
      </trkpt>
      <trkpt lat="40.197100" lon="-4.869450">
        <ele>1362.0</ele>
        <time>2013-07-06T13:00:47Z</time>
      </trkpt>
      <trkpt lat="40.197017" lon="-4.869417">
        <ele>1359.0</ele>
        <time>2013-07-06T13:00:48Z</time>
      </trkpt>
      <trkpt lat="40.196950" lon="-4.869383">
        <ele>1356.0</ele>
        <time>2013-07-06T13:00:49Z</time>
      </trkpt>
      <trkpt lat="40.196867" lon="-4.869350">
        <ele>1353.0</ele>
        <time>2013-07-06T13:00:50Z</time>
      </trkpt>
      <trkpt lat="40.196800" lon="-4.869333">
        <ele>1350.0</ele>
        <time>2013-07-06T13:00:51Z</time>
      </trkpt>
      <trkpt lat="40.196750" lon="-4.869300">
        <ele>1347.0</ele>
        <time>2013-07-06T13:00:52Z</time>
      </trkpt>
      <trkpt lat="40.196667" lon="-4.869267">
        <ele>1344.0</ele>
        <time>2013-07-06T13:00:53Z</time>
      </trkpt>
      <trkpt lat="40.196600" lon="-4.869217">
        <ele>1340.0</ele>
        <time>2013-07-06T13:00:54Z</time>
      </trkpt>
      <trkpt lat="40.196517" lon="-4.869183">
        <ele>1337.0</ele>
        <time>2013-07-06T13:00:55Z</time>
      </trkpt>
      <trkpt lat="40.196450" lon="-4.869133">
        <ele>1334.0</ele>
        <time>2013-07-06T13:00:56Z</time>
      </trkpt>
      <trkpt lat="40.196383" lon="-4.869100">
        <ele>1332.0</ele>
        <time>2013-07-06T13:00:57Z</time>
      </trkpt>
      <trkpt lat="40.196317" lon="-4.869067">
        <ele>1330.0</ele>
        <time>2013-07-06T13:00:58Z</time>
      </trkpt>
      <trkpt lat="40.196250" lon="-4.869000">
        <ele>1326.0</ele>
        <time>2013-07-06T13:00:59Z</time>
      </trkpt>
      <trkpt lat="40.196200" lon="-4.868950">
        <ele>1323.0</ele>
        <time>2013-07-06T13:01:00Z</time>
      </trkpt>
      <trkpt lat="40.196133" lon="-4.868883">
        <ele>1319.0</ele>
        <time>2013-07-06T13:01:01Z</time>
      </trkpt>
      <trkpt lat="40.196067" lon="-4.868833">
        <ele>1316.0</ele>
        <time>2013-07-06T13:01:02Z</time>
      </trkpt>
      <trkpt lat="40.196017" lon="-4.868767">
        <ele>1313.0</ele>
        <time>2013-07-06T13:01:03Z</time>
      </trkpt>
      <trkpt lat="40.195967" lon="-4.868700">
        <ele>1311.0</ele>
        <time>2013-07-06T13:01:04Z</time>
      </trkpt>
      <trkpt lat="40.195917" lon="-4.868633">
        <ele>1308.0</ele>
        <time>2013-07-06T13:01:05Z</time>
      </trkpt>
      <trkpt lat="40.195850" lon="-4.868567">
        <ele>1306.0</ele>
        <time>2013-07-06T13:01:06Z</time>
      </trkpt>
      <trkpt lat="40.195783" lon="-4.868500">
        <ele>1303.0</ele>
        <time>2013-07-06T13:01:07Z</time>
      </trkpt>
      <trkpt lat="40.195717" lon="-4.868433">
        <ele>1301.0</ele>
        <time>2013-07-06T13:01:08Z</time>
      </trkpt>
      <trkpt lat="40.195650" lon="-4.868383">
        <ele>1299.0</ele>
        <time>2013-07-06T13:01:09Z</time>
      </trkpt>
      <trkpt lat="40.195583" lon="-4.868333">
        <ele>1297.0</ele>
        <time>2013-07-06T13:01:10Z</time>
      </trkpt>
      <trkpt lat="40.195533" lon="-4.868300">
        <ele>1295.0</ele>
        <time>2013-07-06T13:01:11Z</time>
      </trkpt>
      <trkpt lat="40.195467" lon="-4.868250">
        <ele>1293.0</ele>
        <time>2013-07-06T13:01:12Z</time>
      </trkpt>
      <trkpt lat="40.195417" lon="-4.868183">
        <ele>1290.0</ele>
        <time>2013-07-06T13:01:13Z</time>
      </trkpt>
      <trkpt lat="40.195333" lon="-4.868133">
        <ele>1288.0</ele>
        <time>2013-07-06T13:01:14Z</time>
      </trkpt>
      <trkpt lat="40.195267" lon="-4.868083">
        <ele>1286.0</ele>
        <time>2013-07-06T13:01:15Z</time>
      </trkpt>
      <trkpt lat="40.195217" lon="-4.868050">
        <ele>1285.0</ele>
        <time>2013-07-06T13:01:16Z</time>
      </trkpt>
      <trkpt lat="40.195150" lon="-4.868000">
        <ele>1283.0</ele>
        <time>2013-07-06T13:01:17Z</time>
      </trkpt>
      <trkpt lat="40.195100" lon="-4.867967">
        <ele>1281.0</ele>
        <time>2013-07-06T13:01:18Z</time>
      </trkpt>
      <trkpt lat="40.194967" lon="-4.867867">
        <ele>1276.0</ele>
        <time>2013-07-06T13:01:20Z</time>
      </trkpt>
      <trkpt lat="40.194883" lon="-4.867817">
        <ele>1274.0</ele>
        <time>2013-07-06T13:01:21Z</time>
      </trkpt>
      <trkpt lat="40.194817" lon="-4.867783">
        <ele>1272.0</ele>
        <time>2013-07-06T13:01:22Z</time>
      </trkpt>
      <trkpt lat="40.194750" lon="-4.867750">
        <ele>1271.0</ele>
        <time>2013-07-06T13:01:23Z</time>
      </trkpt>
      <trkpt lat="40.194700" lon="-4.867717">
        <ele>1269.0</ele>
        <time>2013-07-06T13:01:24Z</time>
      </trkpt>
      <trkpt lat="40.194633" lon="-4.867667">
        <ele>1267.0</ele>
        <time>2013-07-06T13:01:25Z</time>
      </trkpt>
      <trkpt lat="40.194517" lon="-4.867583">
        <ele>1262.0</ele>
        <time>2013-07-06T13:01:27Z</time>
      </trkpt>
      <trkpt lat="40.194450" lon="-4.867533">
        <ele>1260.0</ele>
        <time>2013-07-06T13:01:28Z</time>
      </trkpt>
      <trkpt lat="40.194383" lon="-4.867483">
        <ele>1257.0</ele>
        <time>2013-07-06T13:01:29Z</time>
      </trkpt>
      <trkpt lat="40.194333" lon="-4.867433">
        <ele>1255.0</ele>
        <time>2013-07-06T13:01:30Z</time>
      </trkpt>
      <trkpt lat="40.194267" lon="-4.867400">
        <ele>1253.0</ele>
        <time>2013-07-06T13:01:31Z</time>
      </trkpt>
      <trkpt lat="40.194200" lon="-4.867350">
        <ele>1251.0</ele>
        <time>2013-07-06T13:01:32Z</time>
      </trkpt>
      <trkpt lat="40.194083" lon="-4.867250">
        <ele>1247.0</ele>
        <time>2013-07-06T13:01:34Z</time>
      </trkpt>
      <trkpt lat="40.194017" lon="-4.867183">
        <ele>1245.0</ele>
        <time>2013-07-06T13:01:35Z</time>
      </trkpt>
      <trkpt lat="40.193950" lon="-4.867117">
        <ele>1242.0</ele>
        <time>2013-07-06T13:01:36Z</time>
      </trkpt>
      <trkpt lat="40.193883" lon="-4.867050">
        <ele>1240.0</ele>
        <time>2013-07-06T13:01:37Z</time>
      </trkpt>
      <trkpt lat="40.193833" lon="-4.867000">
        <ele>1238.0</ele>
        <time>2013-07-06T13:01:38Z</time>
      </trkpt>
      <trkpt lat="40.193767" lon="-4.866933">
        <ele>1237.0</ele>
        <time>2013-07-06T13:01:39Z</time>
      </trkpt>
      <trkpt lat="40.193717" lon="-4.866883">
        <ele>1235.0</ele>
        <time>2013-07-06T13:01:40Z</time>
      </trkpt>
      <trkpt lat="40.193650" lon="-4.866833">
        <ele>1233.0</ele>
        <time>2013-07-06T13:01:41Z</time>
      </trkpt>
      <trkpt lat="40.193600" lon="-4.866767">
        <ele>1230.0</ele>
        <time>2013-07-06T13:01:42Z</time>
      </trkpt>
      <trkpt lat="40.193533" lon="-4.866700">
        <ele>1228.0</ele>
        <time>2013-07-06T13:01:43Z</time>
      </trkpt>
      <trkpt lat="40.193467" lon="-4.866633">
        <ele>1226.0</ele>
        <time>2013-07-06T13:01:44Z</time>
      </trkpt>
      <trkpt lat="40.193400" lon="-4.866583">
        <ele>1224.0</ele>
        <time>2013-07-06T13:01:45Z</time>
      </trkpt>
      <trkpt lat="40.193333" lon="-4.866533">
        <ele>1223.0</ele>
        <time>2013-07-06T13:01:46Z</time>
      </trkpt>
      <trkpt lat="40.193267" lon="-4.866483">
        <ele>1221.0</ele>
        <time>2013-07-06T13:01:47Z</time>
      </trkpt>
      <trkpt lat="40.193183" lon="-4.866433">
        <ele>1220.0</ele>
        <time>2013-07-06T13:01:48Z</time>
      </trkpt>
      <trkpt lat="40.193117" lon="-4.866400">
        <ele>1219.0</ele>
        <time>2013-07-06T13:01:49Z</time>
      </trkpt>
      <trkpt lat="40.193067" lon="-4.866350">
        <ele>1218.0</ele>
        <time>2013-07-06T13:01:50Z</time>
      </trkpt>
      <trkpt lat="40.193000" lon="-4.866317">
        <ele>1218.0</ele>
        <time>2013-07-06T13:01:51Z</time>
      </trkpt>
      <trkpt lat="40.192950" lon="-4.866267">
        <ele>1217.0</ele>
        <time>2013-07-06T13:01:52Z</time>
      </trkpt>
      <trkpt lat="40.192883" lon="-4.866217">
        <ele>1216.0</ele>
        <time>2013-07-06T13:01:53Z</time>
      </trkpt>
      <trkpt lat="40.192817" lon="-4.866167">
        <ele>1215.0</ele>
        <time>2013-07-06T13:01:54Z</time>
      </trkpt>
      <trkpt lat="40.192750" lon="-4.866117">
        <ele>1214.0</ele>
        <time>2013-07-06T13:01:55Z</time>
      </trkpt>
      <trkpt lat="40.192683" lon="-4.866067">
        <ele>1212.0</ele>
        <time>2013-07-06T13:01:56Z</time>
      </trkpt>
      <trkpt lat="40.192617" lon="-4.866017">
        <ele>1212.0</ele>
        <time>2013-07-06T13:01:57Z</time>
      </trkpt>
      <trkpt lat="40.192550" lon="-4.865950">
        <ele>1211.0</ele>
        <time>2013-07-06T13:01:58Z</time>
      </trkpt>
      <trkpt lat="40.192483" lon="-4.865900">
        <ele>1210.0</ele>
        <time>2013-07-06T13:01:59Z</time>
      </trkpt>
      <trkpt lat="40.192433" lon="-4.865850">
        <ele>1209.0</ele>
        <time>2013-07-06T13:02:00Z</time>
      </trkpt>
      <trkpt lat="40.192367" lon="-4.865800">
        <ele>1208.0</ele>
        <time>2013-07-06T13:02:01Z</time>
      </trkpt>
      <trkpt lat="40.192300" lon="-4.865750">
        <ele>1207.0</ele>
        <time>2013-07-06T13:02:02Z</time>
      </trkpt>
      <trkpt lat="40.192217" lon="-4.865700">
        <ele>1206.0</ele>
        <time>2013-07-06T13:02:03Z</time>
      </trkpt>
      <trkpt lat="40.192150" lon="-4.865650">
        <ele>1205.0</ele>
        <time>2013-07-06T13:02:04Z</time>
      </trkpt>
      <trkpt lat="40.192083" lon="-4.865600">
        <ele>1205.0</ele>
        <time>2013-07-06T13:02:05Z</time>
      </trkpt>
      <trkpt lat="40.192017" lon="-4.865550">
        <ele>1204.0</ele>
        <time>2013-07-06T13:02:06Z</time>
      </trkpt>
      <trkpt lat="40.191950" lon="-4.865500">
        <ele>1203.0</ele>
        <time>2013-07-06T13:02:07Z</time>
      </trkpt>
      <trkpt lat="40.191867" lon="-4.865433">
        <ele>1202.0</ele>
        <time>2013-07-06T13:02:08Z</time>
      </trkpt>
      <trkpt lat="40.191800" lon="-4.865383">
        <ele>1201.0</ele>
        <time>2013-07-06T13:02:09Z</time>
      </trkpt>
      <trkpt lat="40.191717" lon="-4.865333">
        <ele>1200.0</ele>
        <time>2013-07-06T13:02:10Z</time>
      </trkpt>
      <trkpt lat="40.191650" lon="-4.865300">
        <ele>1199.0</ele>
        <time>2013-07-06T13:02:11Z</time>
      </trkpt>
      <trkpt lat="40.191583" lon="-4.865250">
        <ele>1198.0</ele>
        <time>2013-07-06T13:02:12Z</time>
      </trkpt>
      <trkpt lat="40.191417" lon="-4.865167">
        <ele>1196.0</ele>
        <time>2013-07-06T13:02:14Z</time>
      </trkpt>
      <trkpt lat="40.191350" lon="-4.865117">
        <ele>1195.0</ele>
        <time>2013-07-06T13:02:15Z</time>
      </trkpt>
      <trkpt lat="40.191267" lon="-4.865067">
        <ele>1195.0</ele>
        <time>2013-07-06T13:02:16Z</time>
      </trkpt>
      <trkpt lat="40.191200" lon="-4.865033">
        <ele>1195.0</ele>
        <time>2013-07-06T13:02:17Z</time>
      </trkpt>
      <trkpt lat="40.191117" lon="-4.864983">
        <ele>1194.0</ele>
        <time>2013-07-06T13:02:18Z</time>
      </trkpt>
      <trkpt lat="40.191050" lon="-4.864950">
        <ele>1193.0</ele>
        <time>2013-07-06T13:02:19Z</time>
      </trkpt>
      <trkpt lat="40.190967" lon="-4.864900">
        <ele>1192.0</ele>
        <time>2013-07-06T13:02:20Z</time>
      </trkpt>
      <trkpt lat="40.190900" lon="-4.864867">
        <ele>1191.0</ele>
        <time>2013-07-06T13:02:21Z</time>
      </trkpt>
      <trkpt lat="40.190817" lon="-4.864817">
        <ele>1191.0</ele>
        <time>2013-07-06T13:02:22Z</time>
      </trkpt>
      <trkpt lat="40.190733" lon="-4.864783">
        <ele>1190.0</ele>
        <time>2013-07-06T13:02:23Z</time>
      </trkpt>
      <trkpt lat="40.190667" lon="-4.864750">
        <ele>1189.0</ele>
        <time>2013-07-06T13:02:24Z</time>
      </trkpt>
      <trkpt lat="40.190600" lon="-4.864700">
        <ele>1188.0</ele>
        <time>2013-07-06T13:02:25Z</time>
      </trkpt>
      <trkpt lat="40.190533" lon="-4.864650">
        <ele>1187.0</ele>
        <time>2013-07-06T13:02:26Z</time>
      </trkpt>
      <trkpt lat="40.190467" lon="-4.864617">
        <ele>1186.0</ele>
        <time>2013-07-06T13:02:27Z</time>
      </trkpt>
      <trkpt lat="40.190383" lon="-4.864567">
        <ele>1185.0</ele>
        <time>2013-07-06T13:02:28Z</time>
      </trkpt>
      <trkpt lat="40.190317" lon="-4.864533">
        <ele>1184.0</ele>
        <time>2013-07-06T13:02:29Z</time>
      </trkpt>
      <trkpt lat="40.190250" lon="-4.864500">
        <ele>1183.0</ele>
        <time>2013-07-06T13:02:30Z</time>
      </trkpt>
      <trkpt lat="40.190167" lon="-4.864450">
        <ele>1182.0</ele>
        <time>2013-07-06T13:02:31Z</time>
      </trkpt>
      <trkpt lat="40.190100" lon="-4.864417">
        <ele>1181.0</ele>
        <time>2013-07-06T13:02:32Z</time>
      </trkpt>
      <trkpt lat="40.190017" lon="-4.864383">
        <ele>1179.0</ele>
        <time>2013-07-06T13:02:33Z</time>
      </trkpt>
      <trkpt lat="40.189933" lon="-4.864350">
        <ele>1178.0</ele>
        <time>2013-07-06T13:02:34Z</time>
      </trkpt>
      <trkpt lat="40.189850" lon="-4.864300">
        <ele>1177.0</ele>
        <time>2013-07-06T13:02:35Z</time>
      </trkpt>
      <trkpt lat="40.189767" lon="-4.864250">
        <ele>1175.0</ele>
        <time>2013-07-06T13:02:36Z</time>
      </trkpt>
      <trkpt lat="40.189700" lon="-4.864217">
        <ele>1174.0</ele>
        <time>2013-07-06T13:02:37Z</time>
      </trkpt>
      <trkpt lat="40.189617" lon="-4.864167">
        <ele>1173.0</ele>
        <time>2013-07-06T13:02:38Z</time>
      </trkpt>
      <trkpt lat="40.189550" lon="-4.864117">
        <ele>1172.0</ele>
        <time>2013-07-06T13:02:39Z</time>
      </trkpt>
      <trkpt lat="40.189467" lon="-4.864083">
        <ele>1171.0</ele>
        <time>2013-07-06T13:02:40Z</time>
      </trkpt>
      <trkpt lat="40.189400" lon="-4.864050">
        <ele>1170.0</ele>
        <time>2013-07-06T13:02:41Z</time>
      </trkpt>
      <trkpt lat="40.189333" lon="-4.864017">
        <ele>1168.0</ele>
        <time>2013-07-06T13:02:42Z</time>
      </trkpt>
      <trkpt lat="40.189250" lon="-4.863967">
        <ele>1167.0</ele>
        <time>2013-07-06T13:02:43Z</time>
      </trkpt>
      <trkpt lat="40.189167" lon="-4.863917">
        <ele>1165.0</ele>
        <time>2013-07-06T13:02:44Z</time>
      </trkpt>
      <trkpt lat="40.189100" lon="-4.863883">
        <ele>1165.0</ele>
        <time>2013-07-06T13:02:45Z</time>
      </trkpt>
      <trkpt lat="40.189017" lon="-4.863850">
        <ele>1164.0</ele>
        <time>2013-07-06T13:02:46Z</time>
      </trkpt>
      <trkpt lat="40.188933" lon="-4.863833">
        <ele>1163.0</ele>
        <time>2013-07-06T13:02:47Z</time>
      </trkpt>
      <trkpt lat="40.188867" lon="-4.863800">
        <ele>1163.0</ele>
        <time>2013-07-06T13:02:48Z</time>
      </trkpt>
      <trkpt lat="40.188800" lon="-4.863767">
        <ele>1162.0</ele>
        <time>2013-07-06T13:02:49Z</time>
      </trkpt>
      <trkpt lat="40.188717" lon="-4.863733">
        <ele>1161.0</ele>
        <time>2013-07-06T13:02:50Z</time>
      </trkpt>
      <trkpt lat="40.188650" lon="-4.863700">
        <ele>1160.0</ele>
        <time>2013-07-06T13:02:51Z</time>
      </trkpt>
      <trkpt lat="40.188567" lon="-4.863667">
        <ele>1160.0</ele>
        <time>2013-07-06T13:02:52Z</time>
      </trkpt>
      <trkpt lat="40.188483" lon="-4.863633">
        <ele>1159.0</ele>
        <time>2013-07-06T13:02:53Z</time>
      </trkpt>
      <trkpt lat="40.188417" lon="-4.863617">
        <ele>1159.0</ele>
        <time>2013-07-06T13:02:54Z</time>
      </trkpt>
      <trkpt lat="40.188350" lon="-4.863600">
        <ele>1159.0</ele>
        <time>2013-07-06T13:02:55Z</time>
      </trkpt>
      <trkpt lat="40.188267" lon="-4.863567">
        <ele>1158.0</ele>
        <time>2013-07-06T13:02:56Z</time>
      </trkpt>
      <trkpt lat="40.188183" lon="-4.863550">
        <ele>1157.0</ele>
        <time>2013-07-06T13:02:57Z</time>
      </trkpt>
      <trkpt lat="40.188100" lon="-4.863517">
        <ele>1156.0</ele>
        <time>2013-07-06T13:02:58Z</time>
      </trkpt>
      <trkpt lat="40.188017" lon="-4.863500">
        <ele>1156.0</ele>
        <time>2013-07-06T13:02:59Z</time>
      </trkpt>
      <trkpt lat="40.187933" lon="-4.863483">
        <ele>1155.0</ele>
        <time>2013-07-06T13:03:00Z</time>
      </trkpt>
      <trkpt lat="40.187867" lon="-4.863467">
        <ele>1154.0</ele>
        <time>2013-07-06T13:03:01Z</time>
      </trkpt>
      <trkpt lat="40.187783" lon="-4.863450">
        <ele>1153.0</ele>
        <time>2013-07-06T13:03:02Z</time>
      </trkpt>
      <trkpt lat="40.187700" lon="-4.863433">
        <ele>1152.0</ele>
        <time>2013-07-06T13:03:03Z</time>
      </trkpt>
      <trkpt lat="40.187617" lon="-4.863433">
        <ele>1150.0</ele>
        <time>2013-07-06T13:03:04Z</time>
      </trkpt>
      <trkpt lat="40.187533" lon="-4.863433">
        <ele>1148.0</ele>
        <time>2013-07-06T13:03:05Z</time>
      </trkpt>
      <trkpt lat="40.187450" lon="-4.863417">
        <ele>1147.0</ele>
        <time>2013-07-06T13:03:06Z</time>
      </trkpt>
      <trkpt lat="40.187367" lon="-4.863400">
        <ele>1146.0</ele>
        <time>2013-07-06T13:03:07Z</time>
      </trkpt>
      <trkpt lat="40.187283" lon="-4.863383">
        <ele>1144.0</ele>
        <time>2013-07-06T13:03:08Z</time>
      </trkpt>
      <trkpt lat="40.187200" lon="-4.863367">
        <ele>1143.0</ele>
        <time>2013-07-06T13:03:09Z</time>
      </trkpt>
      <trkpt lat="40.187117" lon="-4.863350">
        <ele>1141.0</ele>
        <time>2013-07-06T13:03:10Z</time>
      </trkpt>
      <trkpt lat="40.187033" lon="-4.863333">
        <ele>1140.0</ele>
        <time>2013-07-06T13:03:11Z</time>
      </trkpt>
      <trkpt lat="40.186950" lon="-4.863317">
        <ele>1139.0</ele>
        <time>2013-07-06T13:03:12Z</time>
      </trkpt>
      <trkpt lat="40.186867" lon="-4.863300">
        <ele>1139.0</ele>
        <time>2013-07-06T13:03:13Z</time>
      </trkpt>
      <trkpt lat="40.186800" lon="-4.863300">
        <ele>1139.0</ele>
        <time>2013-07-06T13:03:14Z</time>
      </trkpt>
      <trkpt lat="40.186733" lon="-4.863283">
        <ele>1138.0</ele>
        <time>2013-07-06T13:03:15Z</time>
      </trkpt>
      <trkpt lat="40.186650" lon="-4.863267">
        <ele>1138.0</ele>
        <time>2013-07-06T13:03:16Z</time>
      </trkpt>
      <trkpt lat="40.186567" lon="-4.863233">
        <ele>1137.0</ele>
        <time>2013-07-06T13:03:17Z</time>
      </trkpt>
      <trkpt lat="40.186483" lon="-4.863217">
        <ele>1137.0</ele>
        <time>2013-07-06T13:03:18Z</time>
      </trkpt>
      <trkpt lat="40.186417" lon="-4.863200">
        <ele>1137.0</ele>
        <time>2013-07-06T13:03:19Z</time>
      </trkpt>
      <trkpt lat="40.186350" lon="-4.863167">
        <ele>1137.0</ele>
        <time>2013-07-06T13:03:20Z</time>
      </trkpt>
      <trkpt lat="40.186283" lon="-4.863133">
        <ele>1138.0</ele>
        <time>2013-07-06T13:03:21Z</time>
      </trkpt>
      <trkpt lat="40.186217" lon="-4.863100">
        <ele>1137.0</ele>
        <time>2013-07-06T13:03:22Z</time>
      </trkpt>
      <trkpt lat="40.186150" lon="-4.863083">
        <ele>1137.0</ele>
        <time>2013-07-06T13:03:23Z</time>
      </trkpt>
      <trkpt lat="40.186083" lon="-4.863050">
        <ele>1137.0</ele>
        <time>2013-07-06T13:03:24Z</time>
      </trkpt>
      <trkpt lat="40.186017" lon="-4.863033">
        <ele>1137.0</ele>
        <time>2013-07-06T13:03:25Z</time>
      </trkpt>
      <trkpt lat="40.185967" lon="-4.863017">
        <ele>1137.0</ele>
        <time>2013-07-06T13:03:26Z</time>
      </trkpt>
      <trkpt lat="40.185900" lon="-4.863017">
        <ele>1136.0</ele>
        <time>2013-07-06T13:03:27Z</time>
      </trkpt>
      <trkpt lat="40.185850" lon="-4.862983">
        <ele>1136.0</ele>
        <time>2013-07-06T13:03:28Z</time>
      </trkpt>
      <trkpt lat="40.185800" lon="-4.862967">
        <ele>1136.0</ele>
        <time>2013-07-06T13:03:29Z</time>
      </trkpt>
      <trkpt lat="40.185733" lon="-4.862933">
        <ele>1134.0</ele>
        <time>2013-07-06T13:03:30Z</time>
      </trkpt>
      <trkpt lat="40.185667" lon="-4.862900">
        <ele>1133.0</ele>
        <time>2013-07-06T13:03:31Z</time>
      </trkpt>
      <trkpt lat="40.185600" lon="-4.862883">
        <ele>1132.0</ele>
        <time>2013-07-06T13:03:32Z</time>
      </trkpt>
      <trkpt lat="40.185533" lon="-4.862850">
        <ele>1131.0</ele>
        <time>2013-07-06T13:03:33Z</time>
      </trkpt>
      <trkpt lat="40.185467" lon="-4.862833">
        <ele>1131.0</ele>
        <time>2013-07-06T13:03:34Z</time>
      </trkpt>
      <trkpt lat="40.185417" lon="-4.862800">
        <ele>1130.0</ele>
        <time>2013-07-06T13:03:35Z</time>
      </trkpt>
      <trkpt lat="40.185333" lon="-4.862783">
        <ele>1129.0</ele>
        <time>2013-07-06T13:03:36Z</time>
      </trkpt>
      <trkpt lat="40.185267" lon="-4.862767">
        <ele>1128.0</ele>
        <time>2013-07-06T13:03:37Z</time>
      </trkpt>
      <trkpt lat="40.185200" lon="-4.862767">
        <ele>1128.0</ele>
        <time>2013-07-06T13:03:38Z</time>
      </trkpt>
      <trkpt lat="40.185133" lon="-4.862750">
        <ele>1127.0</ele>
        <time>2013-07-06T13:03:39Z</time>
      </trkpt>
      <trkpt lat="40.185067" lon="-4.862750">
        <ele>1127.0</ele>
        <time>2013-07-06T13:03:40Z</time>
      </trkpt>
      <trkpt lat="40.185017" lon="-4.862767">
        <ele>1126.0</ele>
        <time>2013-07-06T13:03:41Z</time>
      </trkpt>
      <trkpt lat="40.184950" lon="-4.862783">
        <ele>1125.0</ele>
        <time>2013-07-06T13:03:42Z</time>
      </trkpt>
      <trkpt lat="40.184900" lon="-4.862800">
        <ele>1124.0</ele>
        <time>2013-07-06T13:03:43Z</time>
      </trkpt>
      <trkpt lat="40.184833" lon="-4.862833">
        <ele>1123.0</ele>
        <time>2013-07-06T13:03:44Z</time>
      </trkpt>
      <trkpt lat="40.184783" lon="-4.862867">
        <ele>1122.0</ele>
        <time>2013-07-06T13:03:45Z</time>
      </trkpt>
      <trkpt lat="40.184717" lon="-4.862900">
        <ele>1120.0</ele>
        <time>2013-07-06T13:03:46Z</time>
      </trkpt>
      <trkpt lat="40.184650" lon="-4.862950">
        <ele>1117.0</ele>
        <time>2013-07-06T13:03:47Z</time>
      </trkpt>
      <trkpt lat="40.184600" lon="-4.863000">
        <ele>1115.0</ele>
        <time>2013-07-06T13:03:48Z</time>
      </trkpt>
      <trkpt lat="40.184533" lon="-4.863033">
        <ele>1113.0</ele>
        <time>2013-07-06T13:03:49Z</time>
      </trkpt>
      <trkpt lat="40.184483" lon="-4.863083">
        <ele>1110.0</ele>
        <time>2013-07-06T13:03:50Z</time>
      </trkpt>
      <trkpt lat="40.184417" lon="-4.863117">
        <ele>1108.0</ele>
        <time>2013-07-06T13:03:51Z</time>
      </trkpt>
      <trkpt lat="40.184367" lon="-4.863167">
        <ele>1104.0</ele>
        <time>2013-07-06T13:03:52Z</time>
      </trkpt>
      <trkpt lat="40.184300" lon="-4.863200">
        <ele>1102.0</ele>
        <time>2013-07-06T13:03:53Z</time>
      </trkpt>
      <trkpt lat="40.184233" lon="-4.863250">
        <ele>1099.0</ele>
        <time>2013-07-06T13:03:54Z</time>
      </trkpt>
      <trkpt lat="40.184183" lon="-4.863300">
        <ele>1097.0</ele>
        <time>2013-07-06T13:03:55Z</time>
      </trkpt>
      <trkpt lat="40.184133" lon="-4.863350">
        <ele>1095.0</ele>
        <time>2013-07-06T13:03:56Z</time>
      </trkpt>
      <trkpt lat="40.184067" lon="-4.863400">
        <ele>1093.0</ele>
        <time>2013-07-06T13:03:57Z</time>
      </trkpt>
      <trkpt lat="40.184000" lon="-4.863467">
        <ele>1091.0</ele>
        <time>2013-07-06T13:03:58Z</time>
      </trkpt>
      <trkpt lat="40.183917" lon="-4.863517">
        <ele>1088.0</ele>
        <time>2013-07-06T13:03:59Z</time>
      </trkpt>
      <trkpt lat="40.183833" lon="-4.863583">
        <ele>1086.0</ele>
        <time>2013-07-06T13:04:00Z</time>
      </trkpt>
      <trkpt lat="40.183750" lon="-4.863633">
        <ele>1084.0</ele>
        <time>2013-07-06T13:04:01Z</time>
      </trkpt>
      <trkpt lat="40.183683" lon="-4.863683">
        <ele>1083.0</ele>
        <time>2013-07-06T13:04:02Z</time>
      </trkpt>
      <trkpt lat="40.183600" lon="-4.863733">
        <ele>1081.0</ele>
        <time>2013-07-06T13:04:03Z</time>
      </trkpt>
      <trkpt lat="40.183533" lon="-4.863800">
        <ele>1080.0</ele>
        <time>2013-07-06T13:04:04Z</time>
      </trkpt>
      <trkpt lat="40.183450" lon="-4.863850">
        <ele>1078.0</ele>
        <time>2013-07-06T13:04:05Z</time>
      </trkpt>
      <trkpt lat="40.183367" lon="-4.863917">
        <ele>1077.0</ele>
        <time>2013-07-06T13:04:06Z</time>
      </trkpt>
      <trkpt lat="40.183283" lon="-4.863967">
        <ele>1075.0</ele>
        <time>2013-07-06T13:04:07Z</time>
      </trkpt>
      <trkpt lat="40.183200" lon="-4.864017">
        <ele>1074.0</ele>
        <time>2013-07-06T13:04:08Z</time>
      </trkpt>
      <trkpt lat="40.183050" lon="-4.864150">
        <ele>1074.0</ele>
        <time>2013-07-06T13:04:10Z</time>
      </trkpt>
      <trkpt lat="40.182950" lon="-4.864250">
        <ele>1074.0</ele>
        <time>2013-07-06T13:04:12Z</time>
      </trkpt>
      <trkpt lat="40.182883" lon="-4.864283">
        <ele>1072.0</ele>
        <time>2013-07-06T13:04:13Z</time>
      </trkpt>
      <trkpt lat="40.182817" lon="-4.864317">
        <ele>1070.0</ele>
        <time>2013-07-06T13:04:14Z</time>
      </trkpt>
      <trkpt lat="40.182750" lon="-4.864317">
        <ele>1067.0</ele>
        <time>2013-07-06T13:04:15Z</time>
      </trkpt>
      <trkpt lat="40.182667" lon="-4.864300">
        <ele>1064.0</ele>
        <time>2013-07-06T13:04:17Z</time>
      </trkpt>
      <trkpt lat="40.182633" lon="-4.864283">
        <ele>1061.0</ele>
        <time>2013-07-06T13:04:18Z</time>
      </trkpt>
      <trkpt lat="40.182583" lon="-4.864267">
        <ele>1058.0</ele>
        <time>2013-07-06T13:04:19Z</time>
      </trkpt>
      <trkpt lat="40.182500" lon="-4.864267">
        <ele>1055.0</ele>
        <time>2013-07-06T13:04:20Z</time>
      </trkpt>
      <trkpt lat="40.182433" lon="-4.864283">
        <ele>1053.0</ele>
        <time>2013-07-06T13:04:21Z</time>
      </trkpt>
      <trkpt lat="40.182367" lon="-4.864300">
        <ele>1051.0</ele>
        <time>2013-07-06T13:04:22Z</time>
      </trkpt>
      <trkpt lat="40.182317" lon="-4.864317">
        <ele>1049.0</ele>
        <time>2013-07-06T13:04:23Z</time>
      </trkpt>
      <trkpt lat="40.182250" lon="-4.864333">
        <ele>1047.0</ele>
        <time>2013-07-06T13:04:24Z</time>
      </trkpt>
      <trkpt lat="40.182117" lon="-4.864383">
        <ele>1042.0</ele>
        <time>2013-07-06T13:04:26Z</time>
      </trkpt>
      <trkpt lat="40.182033" lon="-4.864417">
        <ele>1039.0</ele>
        <time>2013-07-06T13:04:27Z</time>
      </trkpt>
      <trkpt lat="40.181967" lon="-4.864467">
        <ele>1037.0</ele>
        <time>2013-07-06T13:04:28Z</time>
      </trkpt>
      <trkpt lat="40.181900" lon="-4.864517">
        <ele>1034.0</ele>
        <time>2013-07-06T13:04:29Z</time>
      </trkpt>
      <trkpt lat="40.181833" lon="-4.864550">
        <ele>1032.0</ele>
        <time>2013-07-06T13:04:30Z</time>
      </trkpt>
      <trkpt lat="40.181700" lon="-4.864600">
        <ele>1026.0</ele>
        <time>2013-07-06T13:04:32Z</time>
      </trkpt>
      <trkpt lat="40.181617" lon="-4.864600">
        <ele>1023.0</ele>
        <time>2013-07-06T13:04:33Z</time>
      </trkpt>
      <trkpt lat="40.181550" lon="-4.864600">
        <ele>1020.0</ele>
        <time>2013-07-06T13:04:34Z</time>
      </trkpt>
      <trkpt lat="40.181467" lon="-4.864600">
        <ele>1017.0</ele>
        <time>2013-07-06T13:04:35Z</time>
      </trkpt>
      <trkpt lat="40.181417" lon="-4.864600">
        <ele>1015.0</ele>
        <time>2013-07-06T13:04:36Z</time>
      </trkpt>
      <trkpt lat="40.181350" lon="-4.864600">
        <ele>1012.0</ele>
        <time>2013-07-06T13:04:37Z</time>
      </trkpt>
      <trkpt lat="40.181300" lon="-4.864567">
        <ele>1007.0</ele>
        <time>2013-07-06T13:04:38Z</time>
      </trkpt>
      <trkpt lat="40.181267" lon="-4.864533">
        <ele>1003.0</ele>
        <time>2013-07-06T13:04:39Z</time>
      </trkpt>
      <trkpt lat="40.181217" lon="-4.864483">
        <ele>999.0</ele>
        <time>2013-07-06T13:04:40Z</time>
      </trkpt>
      <trkpt lat="40.181167" lon="-4.864450">
        <ele>998.0</ele>
        <time>2013-07-06T13:04:41Z</time>
      </trkpt>
      <trkpt lat="40.181133" lon="-4.864433">
        <ele>997.0</ele>
        <time>2013-07-06T13:04:42Z</time>
      </trkpt>
      <trkpt lat="40.181083" lon="-4.864433">
        <ele>996.0</ele>
        <time>2013-07-06T13:04:43Z</time>
      </trkpt>
      <trkpt lat="40.181050" lon="-4.864417">
        <ele>994.0</ele>
        <time>2013-07-06T13:04:44Z</time>
      </trkpt>
      <trkpt lat="40.181000" lon="-4.864417">
        <ele>992.0</ele>
        <time>2013-07-06T13:04:45Z</time>
      </trkpt>
      <trkpt lat="40.180950" lon="-4.864400">
        <ele>989.0</ele>
        <time>2013-07-06T13:04:46Z</time>
      </trkpt>
      <trkpt lat="40.180900" lon="-4.864383">
        <ele>987.0</ele>
        <time>2013-07-06T13:04:47Z</time>
      </trkpt>
      <trkpt lat="40.180850" lon="-4.864367">
        <ele>985.0</ele>
        <time>2013-07-06T13:04:48Z</time>
      </trkpt>
      <trkpt lat="40.180800" lon="-4.864367">
        <ele>984.0</ele>
        <time>2013-07-06T13:04:49Z</time>
      </trkpt>
      <trkpt lat="40.180750" lon="-4.864367">
        <ele>982.0</ele>
        <time>2013-07-06T13:04:50Z</time>
      </trkpt>
      <trkpt lat="40.180683" lon="-4.864367">
        <ele>980.0</ele>
        <time>2013-07-06T13:04:51Z</time>
      </trkpt>
      <trkpt lat="40.180633" lon="-4.864350">
        <ele>978.0</ele>
        <time>2013-07-06T13:04:52Z</time>
      </trkpt>
      <trkpt lat="40.180583" lon="-4.864350">
        <ele>977.0</ele>
        <time>2013-07-06T13:04:53Z</time>
      </trkpt>
      <trkpt lat="40.180517" lon="-4.864333">
        <ele>975.0</ele>
        <time>2013-07-06T13:04:54Z</time>
      </trkpt>
      <trkpt lat="40.180450" lon="-4.864333">
        <ele>973.0</ele>
        <time>2013-07-06T13:04:55Z</time>
      </trkpt>
      <trkpt lat="40.180367" lon="-4.864367">
        <ele>971.0</ele>
        <time>2013-07-06T13:04:56Z</time>
      </trkpt>
      <trkpt lat="40.180283" lon="-4.864383">
        <ele>970.0</ele>
        <time>2013-07-06T13:04:57Z</time>
      </trkpt>
      <trkpt lat="40.180200" lon="-4.864417">
        <ele>969.0</ele>
        <time>2013-07-06T13:04:58Z</time>
      </trkpt>
      <trkpt lat="40.180117" lon="-4.864433">
        <ele>967.0</ele>
        <time>2013-07-06T13:04:59Z</time>
      </trkpt>
      <trkpt lat="40.180017" lon="-4.864450">
        <ele>966.0</ele>
        <time>2013-07-06T13:05:00Z</time>
      </trkpt>
      <trkpt lat="40.179933" lon="-4.864467">
        <ele>965.0</ele>
        <time>2013-07-06T13:05:01Z</time>
      </trkpt>
      <trkpt lat="40.179850" lon="-4.864483">
        <ele>963.0</ele>
        <time>2013-07-06T13:05:02Z</time>
      </trkpt>
      <trkpt lat="40.179750" lon="-4.864517">
        <ele>960.0</ele>
        <time>2013-07-06T13:05:03Z</time>
      </trkpt>
      <trkpt lat="40.179650" lon="-4.864533">
        <ele>957.0</ele>
        <time>2013-07-06T13:05:04Z</time>
      </trkpt>
      <trkpt lat="40.179567" lon="-4.864550">
        <ele>955.0</ele>
        <time>2013-07-06T13:05:05Z</time>
      </trkpt>
      <trkpt lat="40.179483" lon="-4.864567">
        <ele>953.0</ele>
        <time>2013-07-06T13:05:06Z</time>
      </trkpt>
      <trkpt lat="40.179400" lon="-4.864583">
        <ele>951.0</ele>
        <time>2013-07-06T13:05:07Z</time>
      </trkpt>
      <trkpt lat="40.179317" lon="-4.864617">
        <ele>949.0</ele>
        <time>2013-07-06T13:05:08Z</time>
      </trkpt>
      <trkpt lat="40.179233" lon="-4.864633">
        <ele>946.0</ele>
        <time>2013-07-06T13:05:09Z</time>
      </trkpt>
      <trkpt lat="40.179133" lon="-4.864650">
        <ele>944.0</ele>
        <time>2013-07-06T13:05:10Z</time>
      </trkpt>
      <trkpt lat="40.179067" lon="-4.864667">
        <ele>941.0</ele>
        <time>2013-07-06T13:05:11Z</time>
      </trkpt>
      <trkpt lat="40.179000" lon="-4.864683">
        <ele>939.0</ele>
        <time>2013-07-06T13:05:12Z</time>
      </trkpt>
      <trkpt lat="40.178933" lon="-4.864700">
        <ele>936.0</ele>
        <time>2013-07-06T13:05:13Z</time>
      </trkpt>
      <trkpt lat="40.178850" lon="-4.864717">
        <ele>934.0</ele>
        <time>2013-07-06T13:05:14Z</time>
      </trkpt>
      <trkpt lat="40.178783" lon="-4.864700">
        <ele>931.0</ele>
        <time>2013-07-06T13:05:15Z</time>
      </trkpt>
      <trkpt lat="40.178700" lon="-4.864700">
        <ele>928.0</ele>
        <time>2013-07-06T13:05:16Z</time>
      </trkpt>
      <trkpt lat="40.178633" lon="-4.864700">
        <ele>925.0</ele>
        <time>2013-07-06T13:05:17Z</time>
      </trkpt>
      <trkpt lat="40.178567" lon="-4.864683">
        <ele>922.0</ele>
        <time>2013-07-06T13:05:18Z</time>
      </trkpt>
      <trkpt lat="40.178500" lon="-4.864667">
        <ele>919.0</ele>
        <time>2013-07-06T13:05:19Z</time>
      </trkpt>
      <trkpt lat="40.178417" lon="-4.864667">
        <ele>916.0</ele>
        <time>2013-07-06T13:05:20Z</time>
      </trkpt>
      <trkpt lat="40.178333" lon="-4.864650">
        <ele>913.0</ele>
        <time>2013-07-06T13:05:21Z</time>
      </trkpt>
      <trkpt lat="40.178250" lon="-4.864650">
        <ele>911.0</ele>
        <time>2013-07-06T13:05:22Z</time>
      </trkpt>
      <trkpt lat="40.178167" lon="-4.864633">
        <ele>908.0</ele>
        <time>2013-07-06T13:05:23Z</time>
      </trkpt>
      <trkpt lat="40.178100" lon="-4.864617">
        <ele>906.0</ele>
        <time>2013-07-06T13:05:24Z</time>
      </trkpt>
      <trkpt lat="40.178033" lon="-4.864617">
        <ele>903.0</ele>
        <time>2013-07-06T13:05:25Z</time>
      </trkpt>
      <trkpt lat="40.177967" lon="-4.864617">
        <ele>901.0</ele>
        <time>2013-07-06T13:05:26Z</time>
      </trkpt>
      <trkpt lat="40.177900" lon="-4.864617">
        <ele>897.0</ele>
        <time>2013-07-06T13:05:27Z</time>
      </trkpt>
      <trkpt lat="40.177817" lon="-4.864600">
        <ele>895.0</ele>
        <time>2013-07-06T13:05:28Z</time>
      </trkpt>
      <trkpt lat="40.177750" lon="-4.864600">
        <ele>892.0</ele>
        <time>2013-07-06T13:05:29Z</time>
      </trkpt>
      <trkpt lat="40.177667" lon="-4.864583">
        <ele>889.0</ele>
        <time>2013-07-06T13:05:30Z</time>
      </trkpt>
      <trkpt lat="40.177600" lon="-4.864567">
        <ele>885.0</ele>
        <time>2013-07-06T13:05:31Z</time>
      </trkpt>
      <trkpt lat="40.177533" lon="-4.864550">
        <ele>882.0</ele>
        <time>2013-07-06T13:05:32Z</time>
      </trkpt>
      <trkpt lat="40.177483" lon="-4.864517">
        <ele>879.0</ele>
        <time>2013-07-06T13:05:33Z</time>
      </trkpt>
      <trkpt lat="40.177433" lon="-4.864483">
        <ele>876.0</ele>
        <time>2013-07-06T13:05:34Z</time>
      </trkpt>
      <trkpt lat="40.177400" lon="-4.864450">
        <ele>873.0</ele>
        <time>2013-07-06T13:05:35Z</time>
      </trkpt>
      <trkpt lat="40.177350" lon="-4.864417">
        <ele>870.0</ele>
        <time>2013-07-06T13:05:36Z</time>
      </trkpt>
      <trkpt lat="40.177317" lon="-4.864383">
        <ele>868.0</ele>
        <time>2013-07-06T13:05:37Z</time>
      </trkpt>
      <trkpt lat="40.177283" lon="-4.864350">
        <ele>866.0</ele>
        <time>2013-07-06T13:05:38Z</time>
      </trkpt>
      <trkpt lat="40.177267" lon="-4.864300">
        <ele>863.0</ele>
        <time>2013-07-06T13:05:39Z</time>
      </trkpt>
      <trkpt lat="40.177250" lon="-4.864250">
        <ele>861.0</ele>
        <time>2013-07-06T13:05:40Z</time>
      </trkpt>
      <trkpt lat="40.177217" lon="-4.864183">
        <ele>859.0</ele>
        <time>2013-07-06T13:05:41Z</time>
      </trkpt>
      <trkpt lat="40.177200" lon="-4.864133">
        <ele>857.0</ele>
        <time>2013-07-06T13:05:42Z</time>
      </trkpt>
      <trkpt lat="40.177183" lon="-4.864083">
        <ele>855.0</ele>
        <time>2013-07-06T13:05:43Z</time>
      </trkpt>
      <trkpt lat="40.177167" lon="-4.864017">
        <ele>852.0</ele>
        <time>2013-07-06T13:05:44Z</time>
      </trkpt>
      <trkpt lat="40.177150" lon="-4.863950">
        <ele>850.0</ele>
        <time>2013-07-06T13:05:45Z</time>
      </trkpt>
      <trkpt lat="40.177133" lon="-4.863867">
        <ele>848.0</ele>
        <time>2013-07-06T13:05:46Z</time>
      </trkpt>
      <trkpt lat="40.177117" lon="-4.863817">
        <ele>847.0</ele>
        <time>2013-07-06T13:05:47Z</time>
      </trkpt>
      <trkpt lat="40.177100" lon="-4.863767">
        <ele>846.0</ele>
        <time>2013-07-06T13:05:48Z</time>
      </trkpt>
      <trkpt lat="40.177083" lon="-4.863700">
        <ele>847.0</ele>
        <time>2013-07-06T13:05:49Z</time>
      </trkpt>
      <trkpt lat="40.177050" lon="-4.863650">
        <ele>846.0</ele>
        <time>2013-07-06T13:05:50Z</time>
      </trkpt>
      <trkpt lat="40.177017" lon="-4.863567">
        <ele>846.0</ele>
        <time>2013-07-06T13:05:51Z</time>
      </trkpt>
      <trkpt lat="40.176983" lon="-4.863483">
        <ele>845.0</ele>
        <time>2013-07-06T13:05:52Z</time>
      </trkpt>
      <trkpt lat="40.176950" lon="-4.863417">
        <ele>846.0</ele>
        <time>2013-07-06T13:05:53Z</time>
      </trkpt>
      <trkpt lat="40.176933" lon="-4.863367">
        <ele>847.0</ele>
        <time>2013-07-06T13:05:54Z</time>
      </trkpt>
      <trkpt lat="40.176900" lon="-4.863300">
        <ele>847.0</ele>
        <time>2013-07-06T13:05:55Z</time>
      </trkpt>
      <trkpt lat="40.176883" lon="-4.863250">
        <ele>847.0</ele>
        <time>2013-07-06T13:05:56Z</time>
      </trkpt>
      <trkpt lat="40.176850" lon="-4.863183">
        <ele>845.0</ele>
        <time>2013-07-06T13:05:57Z</time>
      </trkpt>
      <trkpt lat="40.176817" lon="-4.863117">
        <ele>844.0</ele>
        <time>2013-07-06T13:05:58Z</time>
      </trkpt>
      <trkpt lat="40.176783" lon="-4.863033">
        <ele>843.0</ele>
        <time>2013-07-06T13:05:59Z</time>
      </trkpt>
      <trkpt lat="40.176750" lon="-4.862967">
        <ele>843.0</ele>
        <time>2013-07-06T13:06:00Z</time>
      </trkpt>
      <trkpt lat="40.176717" lon="-4.862917">
        <ele>842.0</ele>
        <time>2013-07-06T13:06:01Z</time>
      </trkpt>
      <trkpt lat="40.176700" lon="-4.862850">
        <ele>842.0</ele>
        <time>2013-07-06T13:06:02Z</time>
      </trkpt>
      <trkpt lat="40.176667" lon="-4.862767">
        <ele>840.0</ele>
        <time>2013-07-06T13:06:03Z</time>
      </trkpt>
      <trkpt lat="40.176633" lon="-4.862683">
        <ele>839.0</ele>
        <time>2013-07-06T13:06:04Z</time>
      </trkpt>
      <trkpt lat="40.176617" lon="-4.862617">
        <ele>839.0</ele>
        <time>2013-07-06T13:06:05Z</time>
      </trkpt>
      <trkpt lat="40.176583" lon="-4.862567">
        <ele>840.0</ele>
        <time>2013-07-06T13:06:06Z</time>
      </trkpt>
      <trkpt lat="40.176567" lon="-4.862517">
        <ele>840.0</ele>
        <time>2013-07-06T13:06:07Z</time>
      </trkpt>
      <trkpt lat="40.176533" lon="-4.862483">
        <ele>840.0</ele>
        <time>2013-07-06T13:06:08Z</time>
      </trkpt>
      <trkpt lat="40.176500" lon="-4.862417">
        <ele>838.0</ele>
        <time>2013-07-06T13:06:09Z</time>
      </trkpt>
      <trkpt lat="40.176467" lon="-4.862350">
        <ele>835.0</ele>
        <time>2013-07-06T13:06:10Z</time>
      </trkpt>
      <trkpt lat="40.176433" lon="-4.862250">
        <ele>834.0</ele>
        <time>2013-07-06T13:06:11Z</time>
      </trkpt>
      <trkpt lat="40.176417" lon="-4.862183">
        <ele>833.0</ele>
        <time>2013-07-06T13:06:12Z</time>
      </trkpt>
      <trkpt lat="40.176400" lon="-4.862117">
        <ele>834.0</ele>
        <time>2013-07-06T13:06:13Z</time>
      </trkpt>
      <trkpt lat="40.176383" lon="-4.862067">
        <ele>834.0</ele>
        <time>2013-07-06T13:06:14Z</time>
      </trkpt>
      <trkpt lat="40.176367" lon="-4.862000">
        <ele>833.0</ele>
        <time>2013-07-06T13:06:15Z</time>
      </trkpt>
      <trkpt lat="40.176350" lon="-4.861917">
        <ele>832.0</ele>
        <time>2013-07-06T13:06:16Z</time>
      </trkpt>
      <trkpt lat="40.176333" lon="-4.861833">
        <ele>829.0</ele>
        <time>2013-07-06T13:06:17Z</time>
      </trkpt>
      <trkpt lat="40.176317" lon="-4.861733">
        <ele>828.0</ele>
        <time>2013-07-06T13:06:18Z</time>
      </trkpt>
      <trkpt lat="40.176300" lon="-4.861650">
        <ele>828.0</ele>
        <time>2013-07-06T13:06:19Z</time>
      </trkpt>
      <trkpt lat="40.176300" lon="-4.861583">
        <ele>827.0</ele>
        <time>2013-07-06T13:06:20Z</time>
      </trkpt>
      <trkpt lat="40.176283" lon="-4.861500">
        <ele>828.0</ele>
        <time>2013-07-06T13:06:21Z</time>
      </trkpt>
      <trkpt lat="40.176267" lon="-4.861433">
        <ele>828.0</ele>
        <time>2013-07-06T13:06:22Z</time>
      </trkpt>
      <trkpt lat="40.176267" lon="-4.861367">
        <ele>828.0</ele>
        <time>2013-07-06T13:06:23Z</time>
      </trkpt>
      <trkpt lat="40.176267" lon="-4.861300">
        <ele>828.0</ele>
        <time>2013-07-06T13:06:24Z</time>
      </trkpt>
      <trkpt lat="40.176267" lon="-4.861233">
        <ele>828.0</ele>
        <time>2013-07-06T13:06:25Z</time>
      </trkpt>
      <trkpt lat="40.176267" lon="-4.861150">
        <ele>828.0</ele>
        <time>2013-07-06T13:06:26Z</time>
      </trkpt>
      <trkpt lat="40.176250" lon="-4.861050">
        <ele>828.0</ele>
        <time>2013-07-06T13:06:27Z</time>
      </trkpt>
      <trkpt lat="40.176250" lon="-4.860967">
        <ele>828.0</ele>
        <time>2013-07-06T13:06:28Z</time>
      </trkpt>
      <trkpt lat="40.176233" lon="-4.860883">
        <ele>828.0</ele>
        <time>2013-07-06T13:06:29Z</time>
      </trkpt>
      <trkpt lat="40.176217" lon="-4.860800">
        <ele>829.0</ele>
        <time>2013-07-06T13:06:30Z</time>
      </trkpt>
      <trkpt lat="40.176200" lon="-4.860717">
        <ele>829.0</ele>
        <time>2013-07-06T13:06:31Z</time>
      </trkpt>
      <trkpt lat="40.176183" lon="-4.860633">
        <ele>829.0</ele>
        <time>2013-07-06T13:06:32Z</time>
      </trkpt>
      <trkpt lat="40.176167" lon="-4.860550">
        <ele>829.0</ele>
        <time>2013-07-06T13:06:33Z</time>
      </trkpt>
      <trkpt lat="40.176150" lon="-4.860467">
        <ele>829.0</ele>
        <time>2013-07-06T13:06:34Z</time>
      </trkpt>
      <trkpt lat="40.176133" lon="-4.860383">
        <ele>829.0</ele>
        <time>2013-07-06T13:06:35Z</time>
      </trkpt>
      <trkpt lat="40.176100" lon="-4.860300">
        <ele>829.0</ele>
        <time>2013-07-06T13:06:36Z</time>
      </trkpt>
      <trkpt lat="40.176083" lon="-4.860217">
        <ele>829.0</ele>
        <time>2013-07-06T13:06:37Z</time>
      </trkpt>
      <trkpt lat="40.176067" lon="-4.860133">
        <ele>828.0</ele>
        <time>2013-07-06T13:06:38Z</time>
      </trkpt>
      <trkpt lat="40.176050" lon="-4.860050">
        <ele>828.0</ele>
        <time>2013-07-06T13:06:39Z</time>
      </trkpt>
      <trkpt lat="40.176033" lon="-4.859967">
        <ele>826.0</ele>
        <time>2013-07-06T13:06:40Z</time>
      </trkpt>
      <trkpt lat="40.176017" lon="-4.859883">
        <ele>826.0</ele>
        <time>2013-07-06T13:06:41Z</time>
      </trkpt>
      <trkpt lat="40.176017" lon="-4.859817">
        <ele>825.0</ele>
        <time>2013-07-06T13:06:42Z</time>
      </trkpt>
      <trkpt lat="40.176000" lon="-4.859733">
        <ele>825.0</ele>
        <time>2013-07-06T13:06:43Z</time>
      </trkpt>
      <trkpt lat="40.176000" lon="-4.859667">
        <ele>826.0</ele>
        <time>2013-07-06T13:06:44Z</time>
      </trkpt>
      <trkpt lat="40.176000" lon="-4.859617">
        <ele>826.0</ele>
        <time>2013-07-06T13:06:45Z</time>
      </trkpt>
      <trkpt lat="40.176000" lon="-4.859550">
        <ele>825.0</ele>
        <time>2013-07-06T13:06:46Z</time>
      </trkpt>
      <trkpt lat="40.175983" lon="-4.859467">
        <ele>824.0</ele>
        <time>2013-07-06T13:06:47Z</time>
      </trkpt>
      <trkpt lat="40.175967" lon="-4.859400">
        <ele>823.0</ele>
        <time>2013-07-06T13:06:48Z</time>
      </trkpt>
      <trkpt lat="40.175967" lon="-4.859300">
        <ele>822.0</ele>
        <time>2013-07-06T13:06:49Z</time>
      </trkpt>
      <trkpt lat="40.175967" lon="-4.859233">
        <ele>821.0</ele>
        <time>2013-07-06T13:06:50Z</time>
      </trkpt>
      <trkpt lat="40.175983" lon="-4.859150">
        <ele>819.0</ele>
        <time>2013-07-06T13:06:51Z</time>
      </trkpt>
      <trkpt lat="40.176000" lon="-4.859067">
        <ele>818.0</ele>
        <time>2013-07-06T13:06:52Z</time>
      </trkpt>
      <trkpt lat="40.176000" lon="-4.858883">
        <ele>815.0</ele>
        <time>2013-07-06T13:06:54Z</time>
      </trkpt>
      <trkpt lat="40.175983" lon="-4.858767">
        <ele>813.0</ele>
        <time>2013-07-06T13:06:55Z</time>
      </trkpt>
      <trkpt lat="40.175967" lon="-4.858650">
        <ele>812.0</ele>
        <time>2013-07-06T13:06:56Z</time>
      </trkpt>
      <trkpt lat="40.175950" lon="-4.858550">
        <ele>814.0</ele>
        <time>2013-07-06T13:06:57Z</time>
      </trkpt>
      <trkpt lat="40.175933" lon="-4.858483">
        <ele>816.0</ele>
        <time>2013-07-06T13:06:58Z</time>
      </trkpt>
      <trkpt lat="40.175917" lon="-4.858417">
        <ele>818.0</ele>
        <time>2013-07-06T13:06:59Z</time>
      </trkpt>
      <trkpt lat="40.175900" lon="-4.858350">
        <ele>820.0</ele>
        <time>2013-07-06T13:07:00Z</time>
      </trkpt>
      <trkpt lat="40.175883" lon="-4.858267">
        <ele>822.0</ele>
        <time>2013-07-06T13:07:01Z</time>
      </trkpt>
      <trkpt lat="40.175850" lon="-4.858183">
        <ele>824.0</ele>
        <time>2013-07-06T13:07:02Z</time>
      </trkpt>
      <trkpt lat="40.175817" lon="-4.858083">
        <ele>826.0</ele>
        <time>2013-07-06T13:07:03Z</time>
      </trkpt>
      <trkpt lat="40.175783" lon="-4.857983">
        <ele>829.0</ele>
        <time>2013-07-06T13:07:04Z</time>
      </trkpt>
      <trkpt lat="40.175750" lon="-4.857900">
        <ele>833.0</ele>
        <time>2013-07-06T13:07:05Z</time>
      </trkpt>
      <trkpt lat="40.175717" lon="-4.857833">
        <ele>837.0</ele>
        <time>2013-07-06T13:07:06Z</time>
      </trkpt>
      <trkpt lat="40.175700" lon="-4.857750">
        <ele>840.0</ele>
        <time>2013-07-06T13:07:07Z</time>
      </trkpt>
      <trkpt lat="40.175683" lon="-4.857683">
        <ele>842.0</ele>
        <time>2013-07-06T13:07:08Z</time>
      </trkpt>
      <trkpt lat="40.175667" lon="-4.857583">
        <ele>843.0</ele>
        <time>2013-07-06T13:07:09Z</time>
      </trkpt>
      <trkpt lat="40.175667" lon="-4.857483">
        <ele>844.0</ele>
        <time>2013-07-06T13:07:10Z</time>
      </trkpt>
      <trkpt lat="40.175650" lon="-4.857400">
        <ele>845.0</ele>
        <time>2013-07-06T13:07:11Z</time>
      </trkpt>
      <trkpt lat="40.175650" lon="-4.857333">
        <ele>847.0</ele>
        <time>2013-07-06T13:07:12Z</time>
      </trkpt>
      <trkpt lat="40.175650" lon="-4.857250">
        <ele>849.0</ele>
        <time>2013-07-06T13:07:13Z</time>
      </trkpt>
      <trkpt lat="40.175650" lon="-4.857183">
        <ele>852.0</ele>
        <time>2013-07-06T13:07:14Z</time>
      </trkpt>
      <trkpt lat="40.175633" lon="-4.857100">
        <ele>854.0</ele>
        <time>2013-07-06T13:07:15Z</time>
      </trkpt>
      <trkpt lat="40.175633" lon="-4.857033">
        <ele>856.0</ele>
        <time>2013-07-06T13:07:16Z</time>
      </trkpt>
      <trkpt lat="40.175617" lon="-4.856933">
        <ele>859.0</ele>
        <time>2013-07-06T13:07:17Z</time>
      </trkpt>
      <trkpt lat="40.175633" lon="-4.856850">
        <ele>861.0</ele>
        <time>2013-07-06T13:07:18Z</time>
      </trkpt>
      <trkpt lat="40.175667" lon="-4.856767">
        <ele>863.0</ele>
        <time>2013-07-06T13:07:19Z</time>
      </trkpt>
      <trkpt lat="40.175700" lon="-4.856700">
        <ele>866.0</ele>
        <time>2013-07-06T13:07:20Z</time>
      </trkpt>
      <trkpt lat="40.175733" lon="-4.856650">
        <ele>868.0</ele>
        <time>2013-07-06T13:07:21Z</time>
      </trkpt>
      <trkpt lat="40.175750" lon="-4.856583">
        <ele>871.0</ele>
        <time>2013-07-06T13:07:22Z</time>
      </trkpt>
      <trkpt lat="40.175783" lon="-4.856517">
        <ele>873.0</ele>
        <time>2013-07-06T13:07:23Z</time>
      </trkpt>
      <trkpt lat="40.175817" lon="-4.856467">
        <ele>874.0</ele>
        <time>2013-07-06T13:07:24Z</time>
      </trkpt>
      <trkpt lat="40.175850" lon="-4.856400">
        <ele>875.0</ele>
        <time>2013-07-06T13:07:25Z</time>
      </trkpt>
      <trkpt lat="40.175900" lon="-4.856333">
        <ele>877.0</ele>
        <time>2013-07-06T13:07:26Z</time>
      </trkpt>
      <trkpt lat="40.175933" lon="-4.856283">
        <ele>880.0</ele>
        <time>2013-07-06T13:07:27Z</time>
      </trkpt>
      <trkpt lat="40.176000" lon="-4.856250">
        <ele>883.0</ele>
        <time>2013-07-06T13:07:28Z</time>
      </trkpt>
      <trkpt lat="40.176067" lon="-4.856217">
        <ele>885.0</ele>
        <time>2013-07-06T13:07:29Z</time>
      </trkpt>
      <trkpt lat="40.176167" lon="-4.856200">
        <ele>887.0</ele>
        <time>2013-07-06T13:07:30Z</time>
      </trkpt>
      <trkpt lat="40.176250" lon="-4.856233">
        <ele>889.0</ele>
        <time>2013-07-06T13:07:31Z</time>
      </trkpt>
      <trkpt lat="40.176350" lon="-4.856283">
        <ele>891.0</ele>
        <time>2013-07-06T13:07:32Z</time>
      </trkpt>
      <trkpt lat="40.176417" lon="-4.856350">
        <ele>893.0</ele>
        <time>2013-07-06T13:07:33Z</time>
      </trkpt>
      <trkpt lat="40.176483" lon="-4.856450">
        <ele>895.0</ele>
        <time>2013-07-06T13:07:34Z</time>
      </trkpt>
      <trkpt lat="40.176550" lon="-4.856567">
        <ele>897.0</ele>
        <time>2013-07-06T13:07:35Z</time>
      </trkpt>
      <trkpt lat="40.176583" lon="-4.856700">
        <ele>899.0</ele>
        <time>2013-07-06T13:07:36Z</time>
      </trkpt>
      <trkpt lat="40.176600" lon="-4.856833">
        <ele>899.0</ele>
        <time>2013-07-06T13:07:37Z</time>
      </trkpt>
      <trkpt lat="40.176583" lon="-4.856967">
        <ele>902.0</ele>
        <time>2013-07-06T13:07:38Z</time>
      </trkpt>
      <trkpt lat="40.176533" lon="-4.857167">
        <ele>910.0</ele>
        <time>2013-07-06T13:07:40Z</time>
      </trkpt>
      <trkpt lat="40.176483" lon="-4.857233">
        <ele>914.0</ele>
        <time>2013-07-06T13:07:41Z</time>
      </trkpt>
      <trkpt lat="40.176417" lon="-4.857317">
        <ele>917.0</ele>
        <time>2013-07-06T13:07:42Z</time>
      </trkpt>
      <trkpt lat="40.176350" lon="-4.857367">
        <ele>920.0</ele>
        <time>2013-07-06T13:07:43Z</time>
      </trkpt>
      <trkpt lat="40.176267" lon="-4.857400">
        <ele>924.0</ele>
        <time>2013-07-06T13:07:44Z</time>
      </trkpt>
      <trkpt lat="40.176133" lon="-4.857400">
        <ele>933.0</ele>
        <time>2013-07-06T13:07:46Z</time>
      </trkpt>
      <trkpt lat="40.176067" lon="-4.857367">
        <ele>936.0</ele>
        <time>2013-07-06T13:07:47Z</time>
      </trkpt>
      <trkpt lat="40.176000" lon="-4.857333">
        <ele>940.0</ele>
        <time>2013-07-06T13:07:48Z</time>
      </trkpt>
      <trkpt lat="40.175917" lon="-4.857283">
        <ele>943.0</ele>
        <time>2013-07-06T13:07:49Z</time>
      </trkpt>
      <trkpt lat="40.175867" lon="-4.857217">
        <ele>946.0</ele>
        <time>2013-07-06T13:07:50Z</time>
      </trkpt>
      <trkpt lat="40.175833" lon="-4.857150">
        <ele>949.0</ele>
        <time>2013-07-06T13:07:51Z</time>
      </trkpt>
      <trkpt lat="40.175817" lon="-4.857083">
        <ele>952.0</ele>
        <time>2013-07-06T13:07:52Z</time>
      </trkpt>
      <trkpt lat="40.175800" lon="-4.857033">
        <ele>954.0</ele>
        <time>2013-07-06T13:07:53Z</time>
      </trkpt>
      <trkpt lat="40.175783" lon="-4.856967">
        <ele>956.0</ele>
        <time>2013-07-06T13:07:54Z</time>
      </trkpt>
      <trkpt lat="40.175767" lon="-4.856900">
        <ele>957.0</ele>
        <time>2013-07-06T13:07:55Z</time>
      </trkpt>
      <trkpt lat="40.175750" lon="-4.856833">
        <ele>959.0</ele>
        <time>2013-07-06T13:07:56Z</time>
      </trkpt>
      <trkpt lat="40.175767" lon="-4.856767">
        <ele>962.0</ele>
        <time>2013-07-06T13:07:57Z</time>
      </trkpt>
      <trkpt lat="40.175783" lon="-4.856700">
        <ele>964.0</ele>
        <time>2013-07-06T13:07:58Z</time>
      </trkpt>
      <trkpt lat="40.175767" lon="-4.856650">
        <ele>968.0</ele>
        <time>2013-07-06T13:07:59Z</time>
      </trkpt>
      <trkpt lat="40.175733" lon="-4.856617">
        <ele>970.0</ele>
        <time>2013-07-06T13:08:00Z</time>
      </trkpt>
      <trkpt lat="40.175683" lon="-4.856600">
        <ele>972.0</ele>
        <time>2013-07-06T13:08:01Z</time>
      </trkpt>
      <trkpt lat="40.175617" lon="-4.856550">
        <ele>973.0</ele>
        <time>2013-07-06T13:08:02Z</time>
      </trkpt>
      <trkpt lat="40.175600" lon="-4.856467">
        <ele>974.0</ele>
        <time>2013-07-06T13:08:03Z</time>
      </trkpt>
      <trkpt lat="40.175600" lon="-4.856317">
        <ele>976.0</ele>
        <time>2013-07-06T13:08:05Z</time>
      </trkpt>
      <trkpt lat="40.175600" lon="-4.856250">
        <ele>977.0</ele>
        <time>2013-07-06T13:08:06Z</time>
      </trkpt>
      <trkpt lat="40.175633" lon="-4.856083">
        <ele>977.0</ele>
        <time>2013-07-06T13:08:08Z</time>
      </trkpt>
      <trkpt lat="40.175683" lon="-4.856033">
        <ele>976.0</ele>
        <time>2013-07-06T13:08:09Z</time>
      </trkpt>
      <trkpt lat="40.175750" lon="-4.856000">
        <ele>975.0</ele>
        <time>2013-07-06T13:08:10Z</time>
      </trkpt>
      <trkpt lat="40.175817" lon="-4.856000">
        <ele>972.0</ele>
        <time>2013-07-06T13:08:11Z</time>
      </trkpt>
      <trkpt lat="40.175883" lon="-4.856000">
        <ele>971.0</ele>
        <time>2013-07-06T13:08:12Z</time>
      </trkpt>
      <trkpt lat="40.175967" lon="-4.856017">
        <ele>969.0</ele>
        <time>2013-07-06T13:08:13Z</time>
      </trkpt>
      <trkpt lat="40.176017" lon="-4.856067">
        <ele>969.0</ele>
        <time>2013-07-06T13:08:14Z</time>
      </trkpt>
      <trkpt lat="40.176083" lon="-4.856117">
        <ele>969.0</ele>
        <time>2013-07-06T13:08:15Z</time>
      </trkpt>
      <trkpt lat="40.176133" lon="-4.856200">
        <ele>968.0</ele>
        <time>2013-07-06T13:08:16Z</time>
      </trkpt>
      <trkpt lat="40.176200" lon="-4.856283">
        <ele>967.0</ele>
        <time>2013-07-06T13:08:17Z</time>
      </trkpt>
      <trkpt lat="40.176250" lon="-4.856383">
        <ele>966.0</ele>
        <time>2013-07-06T13:08:18Z</time>
      </trkpt>
      <trkpt lat="40.176317" lon="-4.856500">
        <ele>964.0</ele>
        <time>2013-07-06T13:08:19Z</time>
      </trkpt>
      <trkpt lat="40.176350" lon="-4.856633">
        <ele>963.0</ele>
        <time>2013-07-06T13:08:20Z</time>
      </trkpt>
      <trkpt lat="40.176383" lon="-4.856767">
        <ele>963.0</ele>
        <time>2013-07-06T13:08:21Z</time>
      </trkpt>
      <trkpt lat="40.176417" lon="-4.856883">
        <ele>963.0</ele>
        <time>2013-07-06T13:08:22Z</time>
      </trkpt>
      <trkpt lat="40.176450" lon="-4.857017">
        <ele>963.0</ele>
        <time>2013-07-06T13:08:23Z</time>
      </trkpt>
      <trkpt lat="40.176467" lon="-4.857150">
        <ele>963.0</ele>
        <time>2013-07-06T13:08:24Z</time>
      </trkpt>
      <trkpt lat="40.176500" lon="-4.857283">
        <ele>964.0</ele>
        <time>2013-07-06T13:08:25Z</time>
      </trkpt>
      <trkpt lat="40.176533" lon="-4.857450">
        <ele>964.0</ele>
        <time>2013-07-06T13:08:26Z</time>
      </trkpt>
      <trkpt lat="40.176550" lon="-4.857600">
        <ele>966.0</ele>
        <time>2013-07-06T13:08:27Z</time>
      </trkpt>
      <trkpt lat="40.176583" lon="-4.857733">
        <ele>970.0</ele>
        <time>2013-07-06T13:08:28Z</time>
      </trkpt>
      <trkpt lat="40.176583" lon="-4.857850">
        <ele>974.0</ele>
        <time>2013-07-06T13:08:29Z</time>
      </trkpt>
      <trkpt lat="40.176617" lon="-4.857967">
        <ele>977.0</ele>
        <time>2013-07-06T13:08:30Z</time>
      </trkpt>
      <trkpt lat="40.176650" lon="-4.858050">
        <ele>980.0</ele>
        <time>2013-07-06T13:08:31Z</time>
      </trkpt>
      <trkpt lat="40.176700" lon="-4.858133">
        <ele>982.0</ele>
        <time>2013-07-06T13:08:32Z</time>
      </trkpt>
      <trkpt lat="40.176783" lon="-4.858200">
        <ele>983.0</ele>
        <time>2013-07-06T13:08:33Z</time>
      </trkpt>
      <trkpt lat="40.176867" lon="-4.858267">
        <ele>985.0</ele>
        <time>2013-07-06T13:08:34Z</time>
      </trkpt>
      <trkpt lat="40.176950" lon="-4.858283">
        <ele>989.0</ele>
        <time>2013-07-06T13:08:35Z</time>
      </trkpt>
      <trkpt lat="40.177017" lon="-4.858300">
        <ele>991.0</ele>
        <time>2013-07-06T13:08:36Z</time>
      </trkpt>
      <trkpt lat="40.177200" lon="-4.858267">
        <ele>994.0</ele>
        <time>2013-07-06T13:08:38Z</time>
      </trkpt>
      <trkpt lat="40.177283" lon="-4.858217">
        <ele>995.0</ele>
        <time>2013-07-06T13:08:39Z</time>
      </trkpt>
      <trkpt lat="40.177333" lon="-4.858133">
        <ele>998.0</ele>
        <time>2013-07-06T13:08:40Z</time>
      </trkpt>
      <trkpt lat="40.177350" lon="-4.858083">
        <ele>1001.0</ele>
        <time>2013-07-06T13:08:41Z</time>
      </trkpt>
      <trkpt lat="40.177383" lon="-4.857983">
        <ele>1006.0</ele>
        <time>2013-07-06T13:08:43Z</time>
      </trkpt>
      <trkpt lat="40.177383" lon="-4.857917">
        <ele>1008.0</ele>
        <time>2013-07-06T13:08:44Z</time>
      </trkpt>
      <trkpt lat="40.177383" lon="-4.857850">
        <ele>1010.0</ele>
        <time>2013-07-06T13:08:45Z</time>
      </trkpt>
      <trkpt lat="40.177383" lon="-4.857783">
        <ele>1011.0</ele>
        <time>2013-07-06T13:08:46Z</time>
      </trkpt>
      <trkpt lat="40.177383" lon="-4.857717">
        <ele>1012.0</ele>
        <time>2013-07-06T13:08:47Z</time>
      </trkpt>
      <trkpt lat="40.177383" lon="-4.857650">
        <ele>1013.0</ele>
        <time>2013-07-06T13:08:48Z</time>
      </trkpt>
      <trkpt lat="40.177367" lon="-4.857583">
        <ele>1014.0</ele>
        <time>2013-07-06T13:08:49Z</time>
      </trkpt>
      <trkpt lat="40.177333" lon="-4.857550">
        <ele>1016.0</ele>
        <time>2013-07-06T13:08:50Z</time>
      </trkpt>
      <trkpt lat="40.177300" lon="-4.857517">
        <ele>1017.0</ele>
        <time>2013-07-06T13:08:51Z</time>
      </trkpt>
      <trkpt lat="40.177250" lon="-4.857500">
        <ele>1018.0</ele>
        <time>2013-07-06T13:08:52Z</time>
      </trkpt>
      <trkpt lat="40.177183" lon="-4.857467">
        <ele>1019.0</ele>
        <time>2013-07-06T13:08:53Z</time>
      </trkpt>
      <trkpt lat="40.177117" lon="-4.857433">
        <ele>1019.0</ele>
        <time>2013-07-06T13:08:54Z</time>
      </trkpt>
      <trkpt lat="40.177050" lon="-4.857383">
        <ele>1020.0</ele>
        <time>2013-07-06T13:08:55Z</time>
      </trkpt>
      <trkpt lat="40.177000" lon="-4.857367">
        <ele>1022.0</ele>
        <time>2013-07-06T13:08:56Z</time>
      </trkpt>
      <trkpt lat="40.176917" lon="-4.857367">
        <ele>1022.0</ele>
        <time>2013-07-06T13:08:57Z</time>
      </trkpt>
      <trkpt lat="40.176850" lon="-4.857367">
        <ele>1023.0</ele>
        <time>2013-07-06T13:08:58Z</time>
      </trkpt>
      <trkpt lat="40.176750" lon="-4.857383">
        <ele>1022.0</ele>
        <time>2013-07-06T13:08:59Z</time>
      </trkpt>
      <trkpt lat="40.176667" lon="-4.857433">
        <ele>1022.0</ele>
        <time>2013-07-06T13:09:00Z</time>
      </trkpt>
      <trkpt lat="40.176583" lon="-4.857500">
        <ele>1022.0</ele>
        <time>2013-07-06T13:09:01Z</time>
      </trkpt>
      <trkpt lat="40.176517" lon="-4.857567">
        <ele>1023.0</ele>
        <time>2013-07-06T13:09:02Z</time>
      </trkpt>
      <trkpt lat="40.176450" lon="-4.857667">
        <ele>1023.0</ele>
        <time>2013-07-06T13:09:03Z</time>
      </trkpt>
      <trkpt lat="40.176400" lon="-4.857783">
        <ele>1023.0</ele>
        <time>2013-07-06T13:09:04Z</time>
      </trkpt>
      <trkpt lat="40.176367" lon="-4.857917">
        <ele>1023.0</ele>
        <time>2013-07-06T13:09:05Z</time>
      </trkpt>
      <trkpt lat="40.176350" lon="-4.858033">
        <ele>1024.0</ele>
        <time>2013-07-06T13:09:06Z</time>
      </trkpt>
      <trkpt lat="40.176350" lon="-4.858167">
        <ele>1024.0</ele>
        <time>2013-07-06T13:09:07Z</time>
      </trkpt>
      <trkpt lat="40.176350" lon="-4.858300">
        <ele>1024.0</ele>
        <time>2013-07-06T13:09:08Z</time>
      </trkpt>
      <trkpt lat="40.176383" lon="-4.858433">
        <ele>1026.0</ele>
        <time>2013-07-06T13:09:09Z</time>
      </trkpt>
      <trkpt lat="40.176433" lon="-4.858533">
        <ele>1028.0</ele>
        <time>2013-07-06T13:09:10Z</time>
      </trkpt>
      <trkpt lat="40.176483" lon="-4.858633">
        <ele>1031.0</ele>
        <time>2013-07-06T13:09:11Z</time>
      </trkpt>
      <trkpt lat="40.176550" lon="-4.858700">
        <ele>1034.0</ele>
        <time>2013-07-06T13:09:12Z</time>
      </trkpt>
      <trkpt lat="40.176617" lon="-4.858750">
        <ele>1036.0</ele>
        <time>2013-07-06T13:09:13Z</time>
      </trkpt>
      <trkpt lat="40.176700" lon="-4.858767">
        <ele>1038.0</ele>
        <time>2013-07-06T13:09:14Z</time>
      </trkpt>
      <trkpt lat="40.176783" lon="-4.858767">
        <ele>1040.0</ele>
        <time>2013-07-06T13:09:15Z</time>
      </trkpt>
      <trkpt lat="40.176867" lon="-4.858733">
        <ele>1042.0</ele>
        <time>2013-07-06T13:09:16Z</time>
      </trkpt>
      <trkpt lat="40.176933" lon="-4.858683">
        <ele>1044.0</ele>
        <time>2013-07-06T13:09:17Z</time>
      </trkpt>
      <trkpt lat="40.176983" lon="-4.858533">
        <ele>1047.0</ele>
        <time>2013-07-06T13:09:19Z</time>
      </trkpt>
      <trkpt lat="40.176983" lon="-4.858467">
        <ele>1049.0</ele>
        <time>2013-07-06T13:09:20Z</time>
      </trkpt>
      <trkpt lat="40.177000" lon="-4.858400">
        <ele>1052.0</ele>
        <time>2013-07-06T13:09:21Z</time>
      </trkpt>
      <trkpt lat="40.177000" lon="-4.858333">
        <ele>1054.0</ele>
        <time>2013-07-06T13:09:22Z</time>
      </trkpt>
      <trkpt lat="40.176983" lon="-4.858267">
        <ele>1057.0</ele>
        <time>2013-07-06T13:09:23Z</time>
      </trkpt>
      <trkpt lat="40.176950" lon="-4.858200">
        <ele>1059.0</ele>
        <time>2013-07-06T13:09:24Z</time>
      </trkpt>
      <trkpt lat="40.176933" lon="-4.858150">
        <ele>1061.0</ele>
        <time>2013-07-06T13:09:25Z</time>
      </trkpt>
      <trkpt lat="40.176900" lon="-4.858100">
        <ele>1063.0</ele>
        <time>2013-07-06T13:09:26Z</time>
      </trkpt>
      <trkpt lat="40.176850" lon="-4.858050">
        <ele>1064.0</ele>
        <time>2013-07-06T13:09:27Z</time>
      </trkpt>
      <trkpt lat="40.176783" lon="-4.858000">
        <ele>1065.0</ele>
        <time>2013-07-06T13:09:28Z</time>
      </trkpt>
      <trkpt lat="40.176717" lon="-4.857967">
        <ele>1066.0</ele>
        <time>2013-07-06T13:09:29Z</time>
      </trkpt>
      <trkpt lat="40.176650" lon="-4.857950">
        <ele>1067.0</ele>
        <time>2013-07-06T13:09:30Z</time>
      </trkpt>
      <trkpt lat="40.176583" lon="-4.857933">
        <ele>1069.0</ele>
        <time>2013-07-06T13:09:31Z</time>
      </trkpt>
      <trkpt lat="40.176500" lon="-4.857933">
        <ele>1070.0</ele>
        <time>2013-07-06T13:09:32Z</time>
      </trkpt>
      <trkpt lat="40.176433" lon="-4.857933">
        <ele>1071.0</ele>
        <time>2013-07-06T13:09:33Z</time>
      </trkpt>
      <trkpt lat="40.176350" lon="-4.857933">
        <ele>1072.0</ele>
        <time>2013-07-06T13:09:34Z</time>
      </trkpt>
      <trkpt lat="40.176267" lon="-4.857950">
        <ele>1073.0</ele>
        <time>2013-07-06T13:09:35Z</time>
      </trkpt>
      <trkpt lat="40.176183" lon="-4.857933">
        <ele>1073.0</ele>
        <time>2013-07-06T13:09:36Z</time>
      </trkpt>
      <trkpt lat="40.176083" lon="-4.857933">
        <ele>1074.0</ele>
        <time>2013-07-06T13:09:37Z</time>
      </trkpt>
      <trkpt lat="40.176017" lon="-4.857917">
        <ele>1074.0</ele>
        <time>2013-07-06T13:09:38Z</time>
      </trkpt>
      <trkpt lat="40.175950" lon="-4.857933">
        <ele>1075.0</ele>
        <time>2013-07-06T13:09:39Z</time>
      </trkpt>
      <trkpt lat="40.175867" lon="-4.857933">
        <ele>1076.0</ele>
        <time>2013-07-06T13:09:40Z</time>
      </trkpt>
      <trkpt lat="40.175800" lon="-4.857950">
        <ele>1075.0</ele>
        <time>2013-07-06T13:09:41Z</time>
      </trkpt>
      <trkpt lat="40.175733" lon="-4.857983">
        <ele>1075.0</ele>
        <time>2013-07-06T13:09:42Z</time>
      </trkpt>
      <trkpt lat="40.175667" lon="-4.858017">
        <ele>1074.0</ele>
        <time>2013-07-06T13:09:43Z</time>
      </trkpt>
      <trkpt lat="40.175583" lon="-4.858083">
        <ele>1072.0</ele>
        <time>2013-07-06T13:09:44Z</time>
      </trkpt>
      <trkpt lat="40.175500" lon="-4.858133">
        <ele>1069.0</ele>
        <time>2013-07-06T13:09:45Z</time>
      </trkpt>
      <trkpt lat="40.175400" lon="-4.858200">
        <ele>1067.0</ele>
        <time>2013-07-06T13:09:46Z</time>
      </trkpt>
      <trkpt lat="40.175300" lon="-4.858233">
        <ele>1065.0</ele>
        <time>2013-07-06T13:09:47Z</time>
      </trkpt>
      <trkpt lat="40.175183" lon="-4.858250">
        <ele>1065.0</ele>
        <time>2013-07-06T13:09:48Z</time>
      </trkpt>
      <trkpt lat="40.175100" lon="-4.858267">
        <ele>1065.0</ele>
        <time>2013-07-06T13:09:49Z</time>
      </trkpt>
      <trkpt lat="40.175017" lon="-4.858267">
        <ele>1064.0</ele>
        <time>2013-07-06T13:09:50Z</time>
      </trkpt>
      <trkpt lat="40.174933" lon="-4.858250">
        <ele>1064.0</ele>
        <time>2013-07-06T13:09:51Z</time>
      </trkpt>
      <trkpt lat="40.174867" lon="-4.858233">
        <ele>1064.0</ele>
        <time>2013-07-06T13:09:52Z</time>
      </trkpt>
      <trkpt lat="40.174783" lon="-4.858200">
        <ele>1065.0</ele>
        <time>2013-07-06T13:09:53Z</time>
      </trkpt>
      <trkpt lat="40.174717" lon="-4.858183">
        <ele>1065.0</ele>
        <time>2013-07-06T13:09:54Z</time>
      </trkpt>
      <trkpt lat="40.174650" lon="-4.858133">
        <ele>1065.0</ele>
        <time>2013-07-06T13:09:55Z</time>
      </trkpt>
      <trkpt lat="40.174583" lon="-4.858100">
        <ele>1066.0</ele>
        <time>2013-07-06T13:09:56Z</time>
      </trkpt>
      <trkpt lat="40.174533" lon="-4.858033">
        <ele>1067.0</ele>
        <time>2013-07-06T13:09:57Z</time>
      </trkpt>
      <trkpt lat="40.174483" lon="-4.857967">
        <ele>1068.0</ele>
        <time>2013-07-06T13:09:58Z</time>
      </trkpt>
      <trkpt lat="40.174467" lon="-4.857917">
        <ele>1069.0</ele>
        <time>2013-07-06T13:09:59Z</time>
      </trkpt>
      <trkpt lat="40.174450" lon="-4.857850">
        <ele>1069.0</ele>
        <time>2013-07-06T13:10:00Z</time>
      </trkpt>
      <trkpt lat="40.174450" lon="-4.857800">
        <ele>1070.0</ele>
        <time>2013-07-06T13:10:01Z</time>
      </trkpt>
      <trkpt lat="40.174433" lon="-4.857733">
        <ele>1069.0</ele>
        <time>2013-07-06T13:10:02Z</time>
      </trkpt>
      <trkpt lat="40.174433" lon="-4.857650">
        <ele>1067.0</ele>
        <time>2013-07-06T13:10:03Z</time>
      </trkpt>
      <trkpt lat="40.174433" lon="-4.857583">
        <ele>1065.0</ele>
        <time>2013-07-06T13:10:04Z</time>
      </trkpt>
      <trkpt lat="40.174467" lon="-4.857533">
        <ele>1063.0</ele>
        <time>2013-07-06T13:10:05Z</time>
      </trkpt>
      <trkpt lat="40.174500" lon="-4.857467">
        <ele>1060.0</ele>
        <time>2013-07-06T13:10:06Z</time>
      </trkpt>
      <trkpt lat="40.174567" lon="-4.857433">
        <ele>1057.0</ele>
        <time>2013-07-06T13:10:07Z</time>
      </trkpt>
      <trkpt lat="40.174650" lon="-4.857417">
        <ele>1053.0</ele>
        <time>2013-07-06T13:10:08Z</time>
      </trkpt>
      <trkpt lat="40.174717" lon="-4.857400">
        <ele>1050.0</ele>
        <time>2013-07-06T13:10:09Z</time>
      </trkpt>
      <trkpt lat="40.174783" lon="-4.857417">
        <ele>1048.0</ele>
        <time>2013-07-06T13:10:10Z</time>
      </trkpt>
      <trkpt lat="40.174850" lon="-4.857417">
        <ele>1047.0</ele>
        <time>2013-07-06T13:10:11Z</time>
      </trkpt>
      <trkpt lat="40.174917" lon="-4.857433">
        <ele>1045.0</ele>
        <time>2013-07-06T13:10:12Z</time>
      </trkpt>
      <trkpt lat="40.175000" lon="-4.857467">
        <ele>1043.0</ele>
        <time>2013-07-06T13:10:13Z</time>
      </trkpt>
      <trkpt lat="40.175083" lon="-4.857517">
        <ele>1040.0</ele>
        <time>2013-07-06T13:10:14Z</time>
      </trkpt>
      <trkpt lat="40.175150" lon="-4.857583">
        <ele>1038.0</ele>
        <time>2013-07-06T13:10:15Z</time>
      </trkpt>
      <trkpt lat="40.175217" lon="-4.857600">
        <ele>1036.0</ele>
        <time>2013-07-06T13:10:16Z</time>
      </trkpt>
      <trkpt lat="40.175267" lon="-4.857600">
        <ele>1034.0</ele>
        <time>2013-07-06T13:10:17Z</time>
      </trkpt>
      <trkpt lat="40.175333" lon="-4.857600">
        <ele>1032.0</ele>
        <time>2013-07-06T13:10:18Z</time>
      </trkpt>
      <trkpt lat="40.175400" lon="-4.857600">
        <ele>1030.0</ele>
        <time>2013-07-06T13:10:19Z</time>
      </trkpt>
      <trkpt lat="40.175483" lon="-4.857617">
        <ele>1029.0</ele>
        <time>2013-07-06T13:10:20Z</time>
      </trkpt>
      <trkpt lat="40.175550" lon="-4.857650">
        <ele>1029.0</ele>
        <time>2013-07-06T13:10:21Z</time>
      </trkpt>
      <trkpt lat="40.175617" lon="-4.857700">
        <ele>1029.0</ele>
        <time>2013-07-06T13:10:22Z</time>
      </trkpt>
      <trkpt lat="40.175667" lon="-4.857767">
        <ele>1029.0</ele>
        <time>2013-07-06T13:10:23Z</time>
      </trkpt>
      <trkpt lat="40.175700" lon="-4.857833">
        <ele>1029.0</ele>
        <time>2013-07-06T13:10:24Z</time>
      </trkpt>
      <trkpt lat="40.175767" lon="-4.857933">
        <ele>1029.0</ele>
        <time>2013-07-06T13:10:25Z</time>
      </trkpt>
      <trkpt lat="40.175817" lon="-4.858050">
        <ele>1028.0</ele>
        <time>2013-07-06T13:10:26Z</time>
      </trkpt>
      <trkpt lat="40.175900" lon="-4.858667">
        <ele>1026.0</ele>
        <time>2013-07-06T13:10:31Z</time>
      </trkpt>
      <trkpt lat="40.175900" lon="-4.858783">
        <ele>1025.0</ele>
        <time>2013-07-06T13:10:32Z</time>
      </trkpt>
      <trkpt lat="40.175900" lon="-4.858917">
        <ele>1025.0</ele>
        <time>2013-07-06T13:10:33Z</time>
      </trkpt>
      <trkpt lat="40.175900" lon="-4.859017">
        <ele>1025.0</ele>
        <time>2013-07-06T13:10:34Z</time>
      </trkpt>
      <trkpt lat="40.175883" lon="-4.859133">
        <ele>1026.0</ele>
        <time>2013-07-06T13:10:35Z</time>
      </trkpt>
      <trkpt lat="40.175883" lon="-4.859233">
        <ele>1027.0</ele>
        <time>2013-07-06T13:10:36Z</time>
      </trkpt>
      <trkpt lat="40.175867" lon="-4.859333">
        <ele>1028.0</ele>
        <time>2013-07-06T13:10:37Z</time>
      </trkpt>
      <trkpt lat="40.175867" lon="-4.859417">
        <ele>1028.0</ele>
        <time>2013-07-06T13:10:38Z</time>
      </trkpt>
      <trkpt lat="40.175867" lon="-4.859517">
        <ele>1028.0</ele>
        <time>2013-07-06T13:10:39Z</time>
      </trkpt>
      <trkpt lat="40.175867" lon="-4.859617">
        <ele>1029.0</ele>
        <time>2013-07-06T13:10:40Z</time>
      </trkpt>
      <trkpt lat="40.175883" lon="-4.859717">
        <ele>1028.0</ele>
        <time>2013-07-06T13:10:41Z</time>
      </trkpt>
      <trkpt lat="40.175900" lon="-4.859817">
        <ele>1028.0</ele>
        <time>2013-07-06T13:10:42Z</time>
      </trkpt>
      <trkpt lat="40.175917" lon="-4.859917">
        <ele>1029.0</ele>
        <time>2013-07-06T13:10:43Z</time>
      </trkpt>
      <trkpt lat="40.175933" lon="-4.860050">
        <ele>1029.0</ele>
        <time>2013-07-06T13:10:44Z</time>
      </trkpt>
      <trkpt lat="40.175933" lon="-4.860183">
        <ele>1030.0</ele>
        <time>2013-07-06T13:10:45Z</time>
      </trkpt>
      <trkpt lat="40.175933" lon="-4.860317">
        <ele>1030.0</ele>
        <time>2013-07-06T13:10:46Z</time>
      </trkpt>
      <trkpt lat="40.175933" lon="-4.860467">
        <ele>1032.0</ele>
        <time>2013-07-06T13:10:47Z</time>
      </trkpt>
      <trkpt lat="40.175933" lon="-4.860617">
        <ele>1033.0</ele>
        <time>2013-07-06T13:10:48Z</time>
      </trkpt>
      <trkpt lat="40.175933" lon="-4.860750">
        <ele>1035.0</ele>
        <time>2013-07-06T13:10:49Z</time>
      </trkpt>
      <trkpt lat="40.175900" lon="-4.860883">
        <ele>1037.0</ele>
        <time>2013-07-06T13:10:50Z</time>
      </trkpt>
      <trkpt lat="40.175867" lon="-4.861033">
        <ele>1039.0</ele>
        <time>2013-07-06T13:10:51Z</time>
      </trkpt>
      <trkpt lat="40.175850" lon="-4.861167">
        <ele>1041.0</ele>
        <time>2013-07-06T13:10:52Z</time>
      </trkpt>
      <trkpt lat="40.175850" lon="-4.861300">
        <ele>1045.0</ele>
        <time>2013-07-06T13:10:53Z</time>
      </trkpt>
      <trkpt lat="40.175867" lon="-4.861433">
        <ele>1048.0</ele>
        <time>2013-07-06T13:10:54Z</time>
      </trkpt>
      <trkpt lat="40.175900" lon="-4.861567">
        <ele>1051.0</ele>
        <time>2013-07-06T13:10:55Z</time>
      </trkpt>
      <trkpt lat="40.175950" lon="-4.861683">
        <ele>1054.0</ele>
        <time>2013-07-06T13:10:56Z</time>
      </trkpt>
      <trkpt lat="40.176100" lon="-4.861900">
        <ele>1058.0</ele>
        <time>2013-07-06T13:10:58Z</time>
      </trkpt>
      <trkpt lat="40.176200" lon="-4.861967">
        <ele>1060.0</ele>
        <time>2013-07-06T13:10:59Z</time>
      </trkpt>
      <trkpt lat="40.176283" lon="-4.862000">
        <ele>1062.0</ele>
        <time>2013-07-06T13:11:00Z</time>
      </trkpt>
      <trkpt lat="40.176367" lon="-4.862000">
        <ele>1064.0</ele>
        <time>2013-07-06T13:11:01Z</time>
      </trkpt>
      <trkpt lat="40.176433" lon="-4.861983">
        <ele>1066.0</ele>
        <time>2013-07-06T13:11:02Z</time>
      </trkpt>
      <trkpt lat="40.176500" lon="-4.861950">
        <ele>1069.0</ele>
        <time>2013-07-06T13:11:03Z</time>
      </trkpt>
      <trkpt lat="40.176533" lon="-4.861900">
        <ele>1072.0</ele>
        <time>2013-07-06T13:11:04Z</time>
      </trkpt>
      <trkpt lat="40.176567" lon="-4.861850">
        <ele>1074.0</ele>
        <time>2013-07-06T13:11:05Z</time>
      </trkpt>
      <trkpt lat="40.176583" lon="-4.861783">
        <ele>1076.0</ele>
        <time>2013-07-06T13:11:06Z</time>
      </trkpt>
      <trkpt lat="40.176583" lon="-4.861683">
        <ele>1077.0</ele>
        <time>2013-07-06T13:11:07Z</time>
      </trkpt>
      <trkpt lat="40.176583" lon="-4.861600">
        <ele>1078.0</ele>
        <time>2013-07-06T13:11:08Z</time>
      </trkpt>
      <trkpt lat="40.176550" lon="-4.861533">
        <ele>1080.0</ele>
        <time>2013-07-06T13:11:09Z</time>
      </trkpt>
      <trkpt lat="40.176517" lon="-4.861483">
        <ele>1081.0</ele>
        <time>2013-07-06T13:11:10Z</time>
      </trkpt>
      <trkpt lat="40.176467" lon="-4.861433">
        <ele>1082.0</ele>
        <time>2013-07-06T13:11:11Z</time>
      </trkpt>
      <trkpt lat="40.176400" lon="-4.861383">
        <ele>1082.0</ele>
        <time>2013-07-06T13:11:12Z</time>
      </trkpt>
      <trkpt lat="40.176333" lon="-4.861333">
        <ele>1082.0</ele>
        <time>2013-07-06T13:11:13Z</time>
      </trkpt>
      <trkpt lat="40.176250" lon="-4.861283">
        <ele>1083.0</ele>
        <time>2013-07-06T13:11:14Z</time>
      </trkpt>
      <trkpt lat="40.176183" lon="-4.861250">
        <ele>1084.0</ele>
        <time>2013-07-06T13:11:15Z</time>
      </trkpt>
      <trkpt lat="40.176117" lon="-4.861217">
        <ele>1085.0</ele>
        <time>2013-07-06T13:11:16Z</time>
      </trkpt>
      <trkpt lat="40.176033" lon="-4.861183">
        <ele>1086.0</ele>
        <time>2013-07-06T13:11:17Z</time>
      </trkpt>
      <trkpt lat="40.175967" lon="-4.861133">
        <ele>1086.0</ele>
        <time>2013-07-06T13:11:18Z</time>
      </trkpt>
      <trkpt lat="40.175867" lon="-4.861083">
        <ele>1087.0</ele>
        <time>2013-07-06T13:11:19Z</time>
      </trkpt>
      <trkpt lat="40.175783" lon="-4.861067">
        <ele>1088.0</ele>
        <time>2013-07-06T13:11:20Z</time>
      </trkpt>
      <trkpt lat="40.175683" lon="-4.861050">
        <ele>1088.0</ele>
        <time>2013-07-06T13:11:21Z</time>
      </trkpt>
      <trkpt lat="40.175600" lon="-4.861067">
        <ele>1090.0</ele>
        <time>2013-07-06T13:11:22Z</time>
      </trkpt>
      <trkpt lat="40.175500" lon="-4.861100">
        <ele>1091.0</ele>
        <time>2013-07-06T13:11:23Z</time>
      </trkpt>
      <trkpt lat="40.175417" lon="-4.861133">
        <ele>1092.0</ele>
        <time>2013-07-06T13:11:24Z</time>
      </trkpt>
      <trkpt lat="40.175333" lon="-4.861167">
        <ele>1094.0</ele>
        <time>2013-07-06T13:11:25Z</time>
      </trkpt>
      <trkpt lat="40.175250" lon="-4.861217">
        <ele>1096.0</ele>
        <time>2013-07-06T13:11:26Z</time>
      </trkpt>
      <trkpt lat="40.175167" lon="-4.861300">
        <ele>1097.0</ele>
        <time>2013-07-06T13:11:27Z</time>
      </trkpt>
      <trkpt lat="40.175100" lon="-4.861367">
        <ele>1097.0</ele>
        <time>2013-07-06T13:11:28Z</time>
      </trkpt>
      <trkpt lat="40.175017" lon="-4.861450">
        <ele>1098.0</ele>
        <time>2013-07-06T13:11:29Z</time>
      </trkpt>
      <trkpt lat="40.174933" lon="-4.861517">
        <ele>1098.0</ele>
        <time>2013-07-06T13:11:30Z</time>
      </trkpt>
      <trkpt lat="40.174867" lon="-4.861583">
        <ele>1099.0</ele>
        <time>2013-07-06T13:11:31Z</time>
      </trkpt>
      <trkpt lat="40.174783" lon="-4.861633">
        <ele>1101.0</ele>
        <time>2013-07-06T13:11:32Z</time>
      </trkpt>
      <trkpt lat="40.174717" lon="-4.861683">
        <ele>1102.0</ele>
        <time>2013-07-06T13:11:33Z</time>
      </trkpt>
      <trkpt lat="40.174650" lon="-4.861717">
        <ele>1103.0</ele>
        <time>2013-07-06T13:11:34Z</time>
      </trkpt>
      <trkpt lat="40.174567" lon="-4.861733">
        <ele>1103.0</ele>
        <time>2013-07-06T13:11:35Z</time>
      </trkpt>
      <trkpt lat="40.174467" lon="-4.861750">
        <ele>1103.0</ele>
        <time>2013-07-06T13:11:36Z</time>
      </trkpt>
      <trkpt lat="40.174383" lon="-4.861750">
        <ele>1104.0</ele>
        <time>2013-07-06T13:11:37Z</time>
      </trkpt>
      <trkpt lat="40.174300" lon="-4.861767">
        <ele>1106.0</ele>
        <time>2013-07-06T13:11:38Z</time>
      </trkpt>
      <trkpt lat="40.174233" lon="-4.861750">
        <ele>1108.0</ele>
        <time>2013-07-06T13:11:39Z</time>
      </trkpt>
      <trkpt lat="40.174167" lon="-4.861700">
        <ele>1109.0</ele>
        <time>2013-07-06T13:11:40Z</time>
      </trkpt>
      <trkpt lat="40.174100" lon="-4.861633">
        <ele>1110.0</ele>
        <time>2013-07-06T13:11:41Z</time>
      </trkpt>
      <trkpt lat="40.174033" lon="-4.861550">
        <ele>1112.0</ele>
        <time>2013-07-06T13:11:42Z</time>
      </trkpt>
      <trkpt lat="40.173983" lon="-4.861483">
        <ele>1114.0</ele>
        <time>2013-07-06T13:11:43Z</time>
      </trkpt>
      <trkpt lat="40.173933" lon="-4.861417">
        <ele>1117.0</ele>
        <time>2013-07-06T13:11:44Z</time>
      </trkpt>
      <trkpt lat="40.173900" lon="-4.861350">
        <ele>1119.0</ele>
        <time>2013-07-06T13:11:45Z</time>
      </trkpt>
      <trkpt lat="40.173867" lon="-4.861283">
        <ele>1120.0</ele>
        <time>2013-07-06T13:11:46Z</time>
      </trkpt>
      <trkpt lat="40.173833" lon="-4.861200">
        <ele>1120.0</ele>
        <time>2013-07-06T13:11:47Z</time>
      </trkpt>
      <trkpt lat="40.173817" lon="-4.861100">
        <ele>1119.0</ele>
        <time>2013-07-06T13:11:48Z</time>
      </trkpt>
      <trkpt lat="40.173800" lon="-4.861000">
        <ele>1120.0</ele>
        <time>2013-07-06T13:11:49Z</time>
      </trkpt>
      <trkpt lat="40.173783" lon="-4.860917">
        <ele>1121.0</ele>
        <time>2013-07-06T13:11:50Z</time>
      </trkpt>
      <trkpt lat="40.173767" lon="-4.860850">
        <ele>1123.0</ele>
        <time>2013-07-06T13:11:51Z</time>
      </trkpt>
      <trkpt lat="40.173767" lon="-4.860767">
        <ele>1123.0</ele>
        <time>2013-07-06T13:11:52Z</time>
      </trkpt>
      <trkpt lat="40.173783" lon="-4.860683">
        <ele>1124.0</ele>
        <time>2013-07-06T13:11:53Z</time>
      </trkpt>
      <trkpt lat="40.173800" lon="-4.860600">
        <ele>1124.0</ele>
        <time>2013-07-06T13:11:54Z</time>
      </trkpt>
      <trkpt lat="40.173833" lon="-4.860533">
        <ele>1124.0</ele>
        <time>2013-07-06T13:11:55Z</time>
      </trkpt>
      <trkpt lat="40.173867" lon="-4.860500">
        <ele>1126.0</ele>
        <time>2013-07-06T13:11:56Z</time>
      </trkpt>
      <trkpt lat="40.173900" lon="-4.860483">
        <ele>1126.0</ele>
        <time>2013-07-06T13:11:57Z</time>
      </trkpt>
      <trkpt lat="40.173950" lon="-4.860467">
        <ele>1126.0</ele>
        <time>2013-07-06T13:11:58Z</time>
      </trkpt>
      <trkpt lat="40.174017" lon="-4.860450">
        <ele>1125.0</ele>
        <time>2013-07-06T13:11:59Z</time>
      </trkpt>
      <trkpt lat="40.174083" lon="-4.860433">
        <ele>1125.0</ele>
        <time>2013-07-06T13:12:00Z</time>
      </trkpt>
      <trkpt lat="40.174150" lon="-4.860450">
        <ele>1124.0</ele>
        <time>2013-07-06T13:12:01Z</time>
      </trkpt>
      <trkpt lat="40.174200" lon="-4.860467">
        <ele>1124.0</ele>
        <time>2013-07-06T13:12:02Z</time>
      </trkpt>
      <trkpt lat="40.174250" lon="-4.860517">
        <ele>1125.0</ele>
        <time>2013-07-06T13:12:03Z</time>
      </trkpt>
      <trkpt lat="40.174317" lon="-4.860583">
        <ele>1125.0</ele>
        <time>2013-07-06T13:12:04Z</time>
      </trkpt>
      <trkpt lat="40.174367" lon="-4.860633">
        <ele>1125.0</ele>
        <time>2013-07-06T13:12:05Z</time>
      </trkpt>
      <trkpt lat="40.174417" lon="-4.860700">
        <ele>1125.0</ele>
        <time>2013-07-06T13:12:06Z</time>
      </trkpt>
      <trkpt lat="40.174467" lon="-4.860767">
        <ele>1126.0</ele>
        <time>2013-07-06T13:12:07Z</time>
      </trkpt>
      <trkpt lat="40.174517" lon="-4.860833">
        <ele>1128.0</ele>
        <time>2013-07-06T13:12:08Z</time>
      </trkpt>
      <trkpt lat="40.174567" lon="-4.860883">
        <ele>1130.0</ele>
        <time>2013-07-06T13:12:09Z</time>
      </trkpt>
      <trkpt lat="40.174617" lon="-4.860917">
        <ele>1132.0</ele>
        <time>2013-07-06T13:12:10Z</time>
      </trkpt>
      <trkpt lat="40.174683" lon="-4.860917">
        <ele>1132.0</ele>
        <time>2013-07-06T13:12:11Z</time>
      </trkpt>
      <trkpt lat="40.174767" lon="-4.860933">
        <ele>1132.0</ele>
        <time>2013-07-06T13:12:12Z</time>
      </trkpt>
      <trkpt lat="40.174833" lon="-4.860917">
        <ele>1132.0</ele>
        <time>2013-07-06T13:12:13Z</time>
      </trkpt>
      <trkpt lat="40.174883" lon="-4.860900">
        <ele>1132.0</ele>
        <time>2013-07-06T13:12:14Z</time>
      </trkpt>
      <trkpt lat="40.174933" lon="-4.860850">
        <ele>1132.0</ele>
        <time>2013-07-06T13:12:15Z</time>
      </trkpt>
      <trkpt lat="40.174967" lon="-4.860783">
        <ele>1131.0</ele>
        <time>2013-07-06T13:12:16Z</time>
      </trkpt>
      <trkpt lat="40.175000" lon="-4.860700">
        <ele>1130.0</ele>
        <time>2013-07-06T13:12:17Z</time>
      </trkpt>
      <trkpt lat="40.174983" lon="-4.860617">
        <ele>1130.0</ele>
        <time>2013-07-06T13:12:18Z</time>
      </trkpt>
      <trkpt lat="40.174967" lon="-4.860550">
        <ele>1129.0</ele>
        <time>2013-07-06T13:12:19Z</time>
      </trkpt>
      <trkpt lat="40.174917" lon="-4.860467">
        <ele>1128.0</ele>
        <time>2013-07-06T13:12:20Z</time>
      </trkpt>
      <trkpt lat="40.174867" lon="-4.860400">
        <ele>1127.0</ele>
        <time>2013-07-06T13:12:21Z</time>
      </trkpt>
      <trkpt lat="40.174817" lon="-4.860333">
        <ele>1126.0</ele>
        <time>2013-07-06T13:12:22Z</time>
      </trkpt>
      <trkpt lat="40.174750" lon="-4.860283">
        <ele>1125.0</ele>
        <time>2013-07-06T13:12:23Z</time>
      </trkpt>
      <trkpt lat="40.174650" lon="-4.860233">
        <ele>1125.0</ele>
        <time>2013-07-06T13:12:24Z</time>
      </trkpt>
      <trkpt lat="40.174567" lon="-4.860200">
        <ele>1124.0</ele>
        <time>2013-07-06T13:12:25Z</time>
      </trkpt>
      <trkpt lat="40.174483" lon="-4.860183">
        <ele>1123.0</ele>
        <time>2013-07-06T13:12:26Z</time>
      </trkpt>
      <trkpt lat="40.174417" lon="-4.860183">
        <ele>1123.0</ele>
        <time>2013-07-06T13:12:27Z</time>
      </trkpt>
      <trkpt lat="40.174333" lon="-4.860183">
        <ele>1122.0</ele>
        <time>2013-07-06T13:12:28Z</time>
      </trkpt>
      <trkpt lat="40.174250" lon="-4.860200">
        <ele>1120.0</ele>
        <time>2013-07-06T13:12:29Z</time>
      </trkpt>
      <trkpt lat="40.174150" lon="-4.860217">
        <ele>1118.0</ele>
        <time>2013-07-06T13:12:30Z</time>
      </trkpt>
      <trkpt lat="40.174050" lon="-4.860267">
        <ele>1117.0</ele>
        <time>2013-07-06T13:12:31Z</time>
      </trkpt>
      <trkpt lat="40.173967" lon="-4.860333">
        <ele>1118.0</ele>
        <time>2013-07-06T13:12:32Z</time>
      </trkpt>
      <trkpt lat="40.173900" lon="-4.860400">
        <ele>1119.0</ele>
        <time>2013-07-06T13:12:33Z</time>
      </trkpt>
      <trkpt lat="40.173833" lon="-4.860467">
        <ele>1119.0</ele>
        <time>2013-07-06T13:12:34Z</time>
      </trkpt>
      <trkpt lat="40.173767" lon="-4.860550">
        <ele>1119.0</ele>
        <time>2013-07-06T13:12:35Z</time>
      </trkpt>
      <trkpt lat="40.173700" lon="-4.860617">
        <ele>1118.0</ele>
        <time>2013-07-06T13:12:36Z</time>
      </trkpt>
      <trkpt lat="40.173617" lon="-4.860700">
        <ele>1117.0</ele>
        <time>2013-07-06T13:12:37Z</time>
      </trkpt>
      <trkpt lat="40.173550" lon="-4.860783">
        <ele>1117.0</ele>
        <time>2013-07-06T13:12:38Z</time>
      </trkpt>
      <trkpt lat="40.173483" lon="-4.860883">
        <ele>1116.0</ele>
        <time>2013-07-06T13:12:39Z</time>
      </trkpt>
      <trkpt lat="40.173433" lon="-4.860983">
        <ele>1116.0</ele>
        <time>2013-07-06T13:12:40Z</time>
      </trkpt>
      <trkpt lat="40.173383" lon="-4.861100">
        <ele>1115.0</ele>
        <time>2013-07-06T13:12:41Z</time>
      </trkpt>
      <trkpt lat="40.173350" lon="-4.861217">
        <ele>1114.0</ele>
        <time>2013-07-06T13:12:42Z</time>
      </trkpt>
      <trkpt lat="40.173300" lon="-4.861350">
        <ele>1113.0</ele>
        <time>2013-07-06T13:12:43Z</time>
      </trkpt>
      <trkpt lat="40.173250" lon="-4.861483">
        <ele>1112.0</ele>
        <time>2013-07-06T13:12:44Z</time>
      </trkpt>
      <trkpt lat="40.173200" lon="-4.861600">
        <ele>1112.0</ele>
        <time>2013-07-06T13:12:45Z</time>
      </trkpt>
      <trkpt lat="40.173150" lon="-4.861717">
        <ele>1112.0</ele>
        <time>2013-07-06T13:12:46Z</time>
      </trkpt>
      <trkpt lat="40.173100" lon="-4.861817">
        <ele>1112.0</ele>
        <time>2013-07-06T13:12:47Z</time>
      </trkpt>
      <trkpt lat="40.173067" lon="-4.861917">
        <ele>1112.0</ele>
        <time>2013-07-06T13:12:48Z</time>
      </trkpt>
      <trkpt lat="40.173017" lon="-4.862050">
        <ele>1111.0</ele>
        <time>2013-07-06T13:12:49Z</time>
      </trkpt>
      <trkpt lat="40.172967" lon="-4.862167">
        <ele>1110.0</ele>
        <time>2013-07-06T13:12:50Z</time>
      </trkpt>
      <trkpt lat="40.172917" lon="-4.862300">
        <ele>1110.0</ele>
        <time>2013-07-06T13:12:51Z</time>
      </trkpt>
      <trkpt lat="40.172867" lon="-4.862417">
        <ele>1110.0</ele>
        <time>2013-07-06T13:12:52Z</time>
      </trkpt>
      <trkpt lat="40.172817" lon="-4.862517">
        <ele>1110.0</ele>
        <time>2013-07-06T13:12:53Z</time>
      </trkpt>
      <trkpt lat="40.172767" lon="-4.862617">
        <ele>1110.0</ele>
        <time>2013-07-06T13:12:54Z</time>
      </trkpt>
      <trkpt lat="40.172750" lon="-4.862717">
        <ele>1111.0</ele>
        <time>2013-07-06T13:12:55Z</time>
      </trkpt>
      <trkpt lat="40.172733" lon="-4.862800">
        <ele>1114.0</ele>
        <time>2013-07-06T13:12:56Z</time>
      </trkpt>
      <trkpt lat="40.172717" lon="-4.862883">
        <ele>1116.0</ele>
        <time>2013-07-06T13:12:57Z</time>
      </trkpt>
      <trkpt lat="40.172700" lon="-4.862983">
        <ele>1117.0</ele>
        <time>2013-07-06T13:12:58Z</time>
      </trkpt>
      <trkpt lat="40.172683" lon="-4.863083">
        <ele>1118.0</ele>
        <time>2013-07-06T13:12:59Z</time>
      </trkpt>
      <trkpt lat="40.172667" lon="-4.863200">
        <ele>1119.0</ele>
        <time>2013-07-06T13:13:00Z</time>
      </trkpt>
      <trkpt lat="40.172650" lon="-4.863450">
        <ele>1121.0</ele>
        <time>2013-07-06T13:13:02Z</time>
      </trkpt>
      <trkpt lat="40.172683" lon="-4.863550">
        <ele>1124.0</ele>
        <time>2013-07-06T13:13:03Z</time>
      </trkpt>
      <trkpt lat="40.172733" lon="-4.863633">
        <ele>1127.0</ele>
        <time>2013-07-06T13:13:04Z</time>
      </trkpt>
      <trkpt lat="40.172783" lon="-4.863700">
        <ele>1129.0</ele>
        <time>2013-07-06T13:13:05Z</time>
      </trkpt>
      <trkpt lat="40.172850" lon="-4.863767">
        <ele>1132.0</ele>
        <time>2013-07-06T13:13:06Z</time>
      </trkpt>
      <trkpt lat="40.172917" lon="-4.863833">
        <ele>1135.0</ele>
        <time>2013-07-06T13:13:07Z</time>
      </trkpt>
      <trkpt lat="40.173000" lon="-4.863867">
        <ele>1138.0</ele>
        <time>2013-07-06T13:13:08Z</time>
      </trkpt>
      <trkpt lat="40.173150" lon="-4.863867">
        <ele>1142.0</ele>
        <time>2013-07-06T13:13:10Z</time>
      </trkpt>
      <trkpt lat="40.173233" lon="-4.863817">
        <ele>1143.0</ele>
        <time>2013-07-06T13:13:11Z</time>
      </trkpt>
      <trkpt lat="40.173300" lon="-4.863767">
        <ele>1145.0</ele>
        <time>2013-07-06T13:13:12Z</time>
      </trkpt>
      <trkpt lat="40.173350" lon="-4.863683">
        <ele>1147.0</ele>
        <time>2013-07-06T13:13:13Z</time>
      </trkpt>
      <trkpt lat="40.173383" lon="-4.863600">
        <ele>1149.0</ele>
        <time>2013-07-06T13:13:14Z</time>
      </trkpt>
      <trkpt lat="40.173400" lon="-4.863500">
        <ele>1151.0</ele>
        <time>2013-07-06T13:13:15Z</time>
      </trkpt>
      <trkpt lat="40.173417" lon="-4.863400">
        <ele>1153.0</ele>
        <time>2013-07-06T13:13:16Z</time>
      </trkpt>
      <trkpt lat="40.173417" lon="-4.863300">
        <ele>1155.0</ele>
        <time>2013-07-06T13:13:17Z</time>
      </trkpt>
      <trkpt lat="40.173417" lon="-4.863183">
        <ele>1157.0</ele>
        <time>2013-07-06T13:13:18Z</time>
      </trkpt>
      <trkpt lat="40.173417" lon="-4.863083">
        <ele>1158.0</ele>
        <time>2013-07-06T13:13:19Z</time>
      </trkpt>
      <trkpt lat="40.173383" lon="-4.862983">
        <ele>1160.0</ele>
        <time>2013-07-06T13:13:20Z</time>
      </trkpt>
      <trkpt lat="40.173333" lon="-4.862900">
        <ele>1161.0</ele>
        <time>2013-07-06T13:13:21Z</time>
      </trkpt>
      <trkpt lat="40.173283" lon="-4.862817">
        <ele>1161.0</ele>
        <time>2013-07-06T13:13:22Z</time>
      </trkpt>
      <trkpt lat="40.173217" lon="-4.862733">
        <ele>1161.0</ele>
        <time>2013-07-06T13:13:23Z</time>
      </trkpt>
      <trkpt lat="40.173133" lon="-4.862650">
        <ele>1161.0</ele>
        <time>2013-07-06T13:13:24Z</time>
      </trkpt>
      <trkpt lat="40.172933" lon="-4.862567">
        <ele>1162.0</ele>
        <time>2013-07-06T13:13:26Z</time>
      </trkpt>
      <trkpt lat="40.172833" lon="-4.862550">
        <ele>1163.0</ele>
        <time>2013-07-06T13:13:27Z</time>
      </trkpt>
      <trkpt lat="40.172750" lon="-4.862533">
        <ele>1164.0</ele>
        <time>2013-07-06T13:13:28Z</time>
      </trkpt>
      <trkpt lat="40.172683" lon="-4.862517">
        <ele>1166.0</ele>
        <time>2013-07-06T13:13:29Z</time>
      </trkpt>
      <trkpt lat="40.172600" lon="-4.862500">
        <ele>1166.0</ele>
        <time>2013-07-06T13:13:30Z</time>
      </trkpt>
      <trkpt lat="40.172483" lon="-4.862500">
        <ele>1165.0</ele>
        <time>2013-07-06T13:13:31Z</time>
      </trkpt>
      <trkpt lat="40.172383" lon="-4.862500">
        <ele>1163.0</ele>
        <time>2013-07-06T13:13:32Z</time>
      </trkpt>
      <trkpt lat="40.172267" lon="-4.862533">
        <ele>1162.0</ele>
        <time>2013-07-06T13:13:33Z</time>
      </trkpt>
      <trkpt lat="40.172167" lon="-4.862583">
        <ele>1163.0</ele>
        <time>2013-07-06T13:13:34Z</time>
      </trkpt>
      <trkpt lat="40.172083" lon="-4.862633">
        <ele>1164.0</ele>
        <time>2013-07-06T13:13:35Z</time>
      </trkpt>
      <trkpt lat="40.172000" lon="-4.862683">
        <ele>1164.0</ele>
        <time>2013-07-06T13:13:36Z</time>
      </trkpt>
      <trkpt lat="40.171917" lon="-4.862733">
        <ele>1164.0</ele>
        <time>2013-07-06T13:13:37Z</time>
      </trkpt>
      <trkpt lat="40.171833" lon="-4.862817">
        <ele>1163.0</ele>
        <time>2013-07-06T13:13:38Z</time>
      </trkpt>
      <trkpt lat="40.171750" lon="-4.862883">
        <ele>1163.0</ele>
        <time>2013-07-06T13:13:39Z</time>
      </trkpt>
      <trkpt lat="40.171667" lon="-4.862933">
        <ele>1164.0</ele>
        <time>2013-07-06T13:13:40Z</time>
      </trkpt>
      <trkpt lat="40.171617" lon="-4.863000">
        <ele>1164.0</ele>
        <time>2013-07-06T13:13:41Z</time>
      </trkpt>
      <trkpt lat="40.171550" lon="-4.863067">
        <ele>1166.0</ele>
        <time>2013-07-06T13:13:42Z</time>
      </trkpt>
      <trkpt lat="40.171500" lon="-4.863150">
        <ele>1166.0</ele>
        <time>2013-07-06T13:13:43Z</time>
      </trkpt>
      <trkpt lat="40.171467" lon="-4.863217">
        <ele>1165.0</ele>
        <time>2013-07-06T13:13:44Z</time>
      </trkpt>
      <trkpt lat="40.171417" lon="-4.863317">
        <ele>1165.0</ele>
        <time>2013-07-06T13:13:45Z</time>
      </trkpt>
      <trkpt lat="40.171383" lon="-4.863417">
        <ele>1164.0</ele>
        <time>2013-07-06T13:13:46Z</time>
      </trkpt>
      <trkpt lat="40.171333" lon="-4.863517">
        <ele>1162.0</ele>
        <time>2013-07-06T13:13:47Z</time>
      </trkpt>
      <trkpt lat="40.171283" lon="-4.863633">
        <ele>1161.0</ele>
        <time>2013-07-06T13:13:48Z</time>
      </trkpt>
      <trkpt lat="40.171250" lon="-4.863750">
        <ele>1160.0</ele>
        <time>2013-07-06T13:13:49Z</time>
      </trkpt>
      <trkpt lat="40.171217" lon="-4.863833">
        <ele>1160.0</ele>
        <time>2013-07-06T13:13:50Z</time>
      </trkpt>
      <trkpt lat="40.171183" lon="-4.863917">
        <ele>1160.0</ele>
        <time>2013-07-06T13:13:51Z</time>
      </trkpt>
      <trkpt lat="40.171150" lon="-4.864000">
        <ele>1159.0</ele>
        <time>2013-07-06T13:13:52Z</time>
      </trkpt>
      <trkpt lat="40.171117" lon="-4.864100">
        <ele>1158.0</ele>
        <time>2013-07-06T13:13:53Z</time>
      </trkpt>
      <trkpt lat="40.171100" lon="-4.864200">
        <ele>1156.0</ele>
        <time>2013-07-06T13:13:54Z</time>
      </trkpt>
      <trkpt lat="40.171083" lon="-4.864300">
        <ele>1153.0</ele>
        <time>2013-07-06T13:13:55Z</time>
      </trkpt>
      <trkpt lat="40.171050" lon="-4.864417">
        <ele>1152.0</ele>
        <time>2013-07-06T13:13:56Z</time>
      </trkpt>
      <trkpt lat="40.171017" lon="-4.864517">
        <ele>1151.0</ele>
        <time>2013-07-06T13:13:57Z</time>
      </trkpt>
      <trkpt lat="40.170983" lon="-4.864617">
        <ele>1150.0</ele>
        <time>2013-07-06T13:13:58Z</time>
      </trkpt>
      <trkpt lat="40.170967" lon="-4.864733">
        <ele>1149.0</ele>
        <time>2013-07-06T13:13:59Z</time>
      </trkpt>
      <trkpt lat="40.170967" lon="-4.864967">
        <ele>1147.0</ele>
        <time>2013-07-06T13:14:01Z</time>
      </trkpt>
      <trkpt lat="40.170950" lon="-4.865083">
        <ele>1146.0</ele>
        <time>2013-07-06T13:14:02Z</time>
      </trkpt>
      <trkpt lat="40.170950" lon="-4.865200">
        <ele>1145.0</ele>
        <time>2013-07-06T13:14:03Z</time>
      </trkpt>
      <trkpt lat="40.170933" lon="-4.865317">
        <ele>1145.0</ele>
        <time>2013-07-06T13:14:04Z</time>
      </trkpt>
      <trkpt lat="40.170917" lon="-4.865433">
        <ele>1145.0</ele>
        <time>2013-07-06T13:14:05Z</time>
      </trkpt>
      <trkpt lat="40.170900" lon="-4.865550">
        <ele>1145.0</ele>
        <time>2013-07-06T13:14:06Z</time>
      </trkpt>
      <trkpt lat="40.170883" lon="-4.865650">
        <ele>1145.0</ele>
        <time>2013-07-06T13:14:07Z</time>
      </trkpt>
      <trkpt lat="40.170867" lon="-4.865750">
        <ele>1145.0</ele>
        <time>2013-07-06T13:14:08Z</time>
      </trkpt>
      <trkpt lat="40.170850" lon="-4.865850">
        <ele>1145.0</ele>
        <time>2013-07-06T13:14:09Z</time>
      </trkpt>
      <trkpt lat="40.170850" lon="-4.866100">
        <ele>1144.0</ele>
        <time>2013-07-06T13:14:11Z</time>
      </trkpt>
      <trkpt lat="40.170867" lon="-4.866217">
        <ele>1144.0</ele>
        <time>2013-07-06T13:14:12Z</time>
      </trkpt>
      <trkpt lat="40.170883" lon="-4.866317">
        <ele>1145.0</ele>
        <time>2013-07-06T13:14:13Z</time>
      </trkpt>
      <trkpt lat="40.170917" lon="-4.866433">
        <ele>1146.0</ele>
        <time>2013-07-06T13:14:14Z</time>
      </trkpt>
      <trkpt lat="40.170950" lon="-4.866533">
        <ele>1147.0</ele>
        <time>2013-07-06T13:14:15Z</time>
      </trkpt>
      <trkpt lat="40.170983" lon="-4.866633">
        <ele>1148.0</ele>
        <time>2013-07-06T13:14:16Z</time>
      </trkpt>
      <trkpt lat="40.171000" lon="-4.866733">
        <ele>1150.0</ele>
        <time>2013-07-06T13:14:17Z</time>
      </trkpt>
      <trkpt lat="40.171033" lon="-4.866833">
        <ele>1152.0</ele>
        <time>2013-07-06T13:14:18Z</time>
      </trkpt>
      <trkpt lat="40.171050" lon="-4.866933">
        <ele>1154.0</ele>
        <time>2013-07-06T13:14:19Z</time>
      </trkpt>
      <trkpt lat="40.171083" lon="-4.867017">
        <ele>1156.0</ele>
        <time>2013-07-06T13:14:20Z</time>
      </trkpt>
      <trkpt lat="40.171100" lon="-4.867100">
        <ele>1159.0</ele>
        <time>2013-07-06T13:14:21Z</time>
      </trkpt>
      <trkpt lat="40.171133" lon="-4.867167">
        <ele>1161.0</ele>
        <time>2013-07-06T13:14:22Z</time>
      </trkpt>
      <trkpt lat="40.171167" lon="-4.867250">
        <ele>1162.0</ele>
        <time>2013-07-06T13:14:23Z</time>
      </trkpt>
      <trkpt lat="40.171217" lon="-4.867350">
        <ele>1163.0</ele>
        <time>2013-07-06T13:14:24Z</time>
      </trkpt>
      <trkpt lat="40.171250" lon="-4.867450">
        <ele>1165.0</ele>
        <time>2013-07-06T13:14:25Z</time>
      </trkpt>
      <trkpt lat="40.171283" lon="-4.867533">
        <ele>1167.0</ele>
        <time>2013-07-06T13:14:26Z</time>
      </trkpt>
      <trkpt lat="40.171317" lon="-4.867617">
        <ele>1170.0</ele>
        <time>2013-07-06T13:14:27Z</time>
      </trkpt>
      <trkpt lat="40.171350" lon="-4.867683">
        <ele>1173.0</ele>
        <time>2013-07-06T13:14:28Z</time>
      </trkpt>
      <trkpt lat="40.171417" lon="-4.867750">
        <ele>1174.0</ele>
        <time>2013-07-06T13:14:29Z</time>
      </trkpt>
      <trkpt lat="40.171483" lon="-4.867800">
        <ele>1175.0</ele>
        <time>2013-07-06T13:14:30Z</time>
      </trkpt>
      <trkpt lat="40.171550" lon="-4.867833">
        <ele>1178.0</ele>
        <time>2013-07-06T13:14:31Z</time>
      </trkpt>
      <trkpt lat="40.171600" lon="-4.867833">
        <ele>1181.0</ele>
        <time>2013-07-06T13:14:32Z</time>
      </trkpt>
      <trkpt lat="40.171650" lon="-4.867800">
        <ele>1185.0</ele>
        <time>2013-07-06T13:14:33Z</time>
      </trkpt>
      <trkpt lat="40.171683" lon="-4.867750">
        <ele>1187.0</ele>
        <time>2013-07-06T13:14:34Z</time>
      </trkpt>
      <trkpt lat="40.171717" lon="-4.867700">
        <ele>1190.0</ele>
        <time>2013-07-06T13:14:35Z</time>
      </trkpt>
      <trkpt lat="40.171750" lon="-4.867633">
        <ele>1193.0</ele>
        <time>2013-07-06T13:14:36Z</time>
      </trkpt>
      <trkpt lat="40.171750" lon="-4.867550">
        <ele>1195.0</ele>
        <time>2013-07-06T13:14:37Z</time>
      </trkpt>
      <trkpt lat="40.171717" lon="-4.867467">
        <ele>1197.0</ele>
        <time>2013-07-06T13:14:38Z</time>
      </trkpt>
      <trkpt lat="40.171683" lon="-4.867383">
        <ele>1199.0</ele>
        <time>2013-07-06T13:14:39Z</time>
      </trkpt>
      <trkpt lat="40.171633" lon="-4.867300">
        <ele>1201.0</ele>
        <time>2013-07-06T13:14:40Z</time>
      </trkpt>
      <trkpt lat="40.171567" lon="-4.867233">
        <ele>1203.0</ele>
        <time>2013-07-06T13:14:41Z</time>
      </trkpt>
      <trkpt lat="40.171517" lon="-4.867167">
        <ele>1206.0</ele>
        <time>2013-07-06T13:14:42Z</time>
      </trkpt>
      <trkpt lat="40.171450" lon="-4.867133">
        <ele>1208.0</ele>
        <time>2013-07-06T13:14:43Z</time>
      </trkpt>
      <trkpt lat="40.171383" lon="-4.867117">
        <ele>1210.0</ele>
        <time>2013-07-06T13:14:44Z</time>
      </trkpt>
      <trkpt lat="40.171283" lon="-4.867083">
        <ele>1212.0</ele>
        <time>2013-07-06T13:14:45Z</time>
      </trkpt>
      <trkpt lat="40.171200" lon="-4.867083">
        <ele>1214.0</ele>
        <time>2013-07-06T13:14:46Z</time>
      </trkpt>
      <trkpt lat="40.171100" lon="-4.867067">
        <ele>1216.0</ele>
        <time>2013-07-06T13:14:47Z</time>
      </trkpt>
      <trkpt lat="40.171033" lon="-4.867083">
        <ele>1218.0</ele>
        <time>2013-07-06T13:14:48Z</time>
      </trkpt>
      <trkpt lat="40.170983" lon="-4.867117">
        <ele>1221.0</ele>
        <time>2013-07-06T13:14:49Z</time>
      </trkpt>
      <trkpt lat="40.170917" lon="-4.867183">
        <ele>1222.0</ele>
        <time>2013-07-06T13:14:50Z</time>
      </trkpt>
      <trkpt lat="40.170867" lon="-4.867250">
        <ele>1224.0</ele>
        <time>2013-07-06T13:14:51Z</time>
      </trkpt>
      <trkpt lat="40.170817" lon="-4.867333">
        <ele>1224.0</ele>
        <time>2013-07-06T13:14:52Z</time>
      </trkpt>
      <trkpt lat="40.170767" lon="-4.867417">
        <ele>1226.0</ele>
        <time>2013-07-06T13:14:53Z</time>
      </trkpt>
      <trkpt lat="40.170717" lon="-4.867500">
        <ele>1228.0</ele>
        <time>2013-07-06T13:14:54Z</time>
      </trkpt>
      <trkpt lat="40.170683" lon="-4.867583">
        <ele>1229.0</ele>
        <time>2013-07-06T13:14:55Z</time>
      </trkpt>
      <trkpt lat="40.170667" lon="-4.867667">
        <ele>1230.0</ele>
        <time>2013-07-06T13:14:56Z</time>
      </trkpt>
      <trkpt lat="40.170650" lon="-4.867750">
        <ele>1232.0</ele>
        <time>2013-07-06T13:14:57Z</time>
      </trkpt>
      <trkpt lat="40.170650" lon="-4.867867">
        <ele>1232.0</ele>
        <time>2013-07-06T13:14:58Z</time>
      </trkpt>
      <trkpt lat="40.170633" lon="-4.867967">
        <ele>1233.0</ele>
        <time>2013-07-06T13:14:59Z</time>
      </trkpt>
      <trkpt lat="40.170667" lon="-4.868167">
        <ele>1234.0</ele>
        <time>2013-07-06T13:15:01Z</time>
      </trkpt>
      <trkpt lat="40.170700" lon="-4.868250">
        <ele>1235.0</ele>
        <time>2013-07-06T13:15:02Z</time>
      </trkpt>
      <trkpt lat="40.170750" lon="-4.868350">
        <ele>1235.0</ele>
        <time>2013-07-06T13:15:03Z</time>
      </trkpt>
      <trkpt lat="40.170800" lon="-4.868433">
        <ele>1235.0</ele>
        <time>2013-07-06T13:15:04Z</time>
      </trkpt>
      <trkpt lat="40.170883" lon="-4.868500">
        <ele>1236.0</ele>
        <time>2013-07-06T13:15:05Z</time>
      </trkpt>
      <trkpt lat="40.170967" lon="-4.868533">
        <ele>1236.0</ele>
        <time>2013-07-06T13:15:06Z</time>
      </trkpt>
      <trkpt lat="40.171100" lon="-4.868567">
        <ele>1238.0</ele>
        <time>2013-07-06T13:15:08Z</time>
      </trkpt>
      <trkpt lat="40.171283" lon="-4.868467">
        <ele>1247.0</ele>
        <time>2013-07-06T13:15:12Z</time>
      </trkpt>
      <trkpt lat="40.171317" lon="-4.868400">
        <ele>1249.0</ele>
        <time>2013-07-06T13:15:13Z</time>
      </trkpt>
      <trkpt lat="40.171333" lon="-4.868333">
        <ele>1250.0</ele>
        <time>2013-07-06T13:15:14Z</time>
      </trkpt>
      <trkpt lat="40.171333" lon="-4.868250">
        <ele>1252.0</ele>
        <time>2013-07-06T13:15:15Z</time>
      </trkpt>
      <trkpt lat="40.171317" lon="-4.868183">
        <ele>1254.0</ele>
        <time>2013-07-06T13:15:16Z</time>
      </trkpt>
      <trkpt lat="40.171300" lon="-4.868100">
        <ele>1256.0</ele>
        <time>2013-07-06T13:15:17Z</time>
      </trkpt>
      <trkpt lat="40.171267" lon="-4.868033">
        <ele>1258.0</ele>
        <time>2013-07-06T13:15:18Z</time>
      </trkpt>
      <trkpt lat="40.171233" lon="-4.867967">
        <ele>1260.0</ele>
        <time>2013-07-06T13:15:19Z</time>
      </trkpt>
      <trkpt lat="40.171183" lon="-4.867917">
        <ele>1261.0</ele>
        <time>2013-07-06T13:15:20Z</time>
      </trkpt>
      <trkpt lat="40.171117" lon="-4.867867">
        <ele>1263.0</ele>
        <time>2013-07-06T13:15:21Z</time>
      </trkpt>
      <trkpt lat="40.171033" lon="-4.867833">
        <ele>1264.0</ele>
        <time>2013-07-06T13:15:22Z</time>
      </trkpt>
      <trkpt lat="40.170967" lon="-4.867817">
        <ele>1265.0</ele>
        <time>2013-07-06T13:15:23Z</time>
      </trkpt>
      <trkpt lat="40.170883" lon="-4.867800">
        <ele>1266.0</ele>
        <time>2013-07-06T13:15:24Z</time>
      </trkpt>
      <trkpt lat="40.170800" lon="-4.867800">
        <ele>1266.0</ele>
        <time>2013-07-06T13:15:25Z</time>
      </trkpt>
      <trkpt lat="40.170717" lon="-4.867817">
        <ele>1267.0</ele>
        <time>2013-07-06T13:15:26Z</time>
      </trkpt>
      <trkpt lat="40.170650" lon="-4.867833">
        <ele>1268.0</ele>
        <time>2013-07-06T13:15:27Z</time>
      </trkpt>
      <trkpt lat="40.170583" lon="-4.867867">
        <ele>1268.0</ele>
        <time>2013-07-06T13:15:28Z</time>
      </trkpt>
      <trkpt lat="40.170517" lon="-4.867900">
        <ele>1267.0</ele>
        <time>2013-07-06T13:15:29Z</time>
      </trkpt>
      <trkpt lat="40.170450" lon="-4.867950">
        <ele>1266.0</ele>
        <time>2013-07-06T13:15:30Z</time>
      </trkpt>
      <trkpt lat="40.170367" lon="-4.868017">
        <ele>1264.0</ele>
        <time>2013-07-06T13:15:31Z</time>
      </trkpt>
      <trkpt lat="40.170317" lon="-4.868117">
        <ele>1263.0</ele>
        <time>2013-07-06T13:15:32Z</time>
      </trkpt>
      <trkpt lat="40.170267" lon="-4.868217">
        <ele>1264.0</ele>
        <time>2013-07-06T13:15:33Z</time>
      </trkpt>
      <trkpt lat="40.170217" lon="-4.868300">
        <ele>1265.0</ele>
        <time>2013-07-06T13:15:34Z</time>
      </trkpt>
      <trkpt lat="40.170167" lon="-4.868383">
        <ele>1267.0</ele>
        <time>2013-07-06T13:15:35Z</time>
      </trkpt>
      <trkpt lat="40.170133" lon="-4.868467">
        <ele>1268.0</ele>
        <time>2013-07-06T13:15:36Z</time>
      </trkpt>
      <trkpt lat="40.170100" lon="-4.868550">
        <ele>1269.0</ele>
        <time>2013-07-06T13:15:37Z</time>
      </trkpt>
      <trkpt lat="40.170067" lon="-4.868633">
        <ele>1270.0</ele>
        <time>2013-07-06T13:15:38Z</time>
      </trkpt>
      <trkpt lat="40.170050" lon="-4.868733">
        <ele>1270.0</ele>
        <time>2013-07-06T13:15:39Z</time>
      </trkpt>
      <trkpt lat="40.170017" lon="-4.868850">
        <ele>1270.0</ele>
        <time>2013-07-06T13:15:40Z</time>
      </trkpt>
      <trkpt lat="40.169983" lon="-4.868983">
        <ele>1271.0</ele>
        <time>2013-07-06T13:15:41Z</time>
      </trkpt>
      <trkpt lat="40.169950" lon="-4.869100">
        <ele>1272.0</ele>
        <time>2013-07-06T13:15:42Z</time>
      </trkpt>
      <trkpt lat="40.169933" lon="-4.869183">
        <ele>1273.0</ele>
        <time>2013-07-06T13:15:43Z</time>
      </trkpt>
      <trkpt lat="40.169917" lon="-4.869283">
        <ele>1275.0</ele>
        <time>2013-07-06T13:15:44Z</time>
      </trkpt>
      <trkpt lat="40.169883" lon="-4.869367">
        <ele>1276.0</ele>
        <time>2013-07-06T13:15:45Z</time>
      </trkpt>
      <trkpt lat="40.169867" lon="-4.869483">
        <ele>1278.0</ele>
        <time>2013-07-06T13:15:46Z</time>
      </trkpt>
      <trkpt lat="40.169833" lon="-4.869600">
        <ele>1279.0</ele>
        <time>2013-07-06T13:15:47Z</time>
      </trkpt>
      <trkpt lat="40.169833" lon="-4.869717">
        <ele>1281.0</ele>
        <time>2013-07-06T13:15:48Z</time>
      </trkpt>
      <trkpt lat="40.169850" lon="-4.869817">
        <ele>1283.0</ele>
        <time>2013-07-06T13:15:49Z</time>
      </trkpt>
      <trkpt lat="40.169900" lon="-4.869917">
        <ele>1285.0</ele>
        <time>2013-07-06T13:15:50Z</time>
      </trkpt>
      <trkpt lat="40.169950" lon="-4.870000">
        <ele>1287.0</ele>
        <time>2013-07-06T13:15:51Z</time>
      </trkpt>
      <trkpt lat="40.170017" lon="-4.870050">
        <ele>1290.0</ele>
        <time>2013-07-06T13:15:52Z</time>
      </trkpt>
      <trkpt lat="40.170083" lon="-4.870083">
        <ele>1293.0</ele>
        <time>2013-07-06T13:15:53Z</time>
      </trkpt>
      <trkpt lat="40.170133" lon="-4.870100">
        <ele>1294.0</ele>
        <time>2013-07-06T13:15:54Z</time>
      </trkpt>
      <trkpt lat="40.170183" lon="-4.870100">
        <ele>1296.0</ele>
        <time>2013-07-06T13:15:55Z</time>
      </trkpt>
      <trkpt lat="40.170250" lon="-4.870100">
        <ele>1296.0</ele>
        <time>2013-07-06T13:15:56Z</time>
      </trkpt>
      <trkpt lat="40.170317" lon="-4.870067">
        <ele>1296.0</ele>
        <time>2013-07-06T13:15:57Z</time>
      </trkpt>
      <trkpt lat="40.170367" lon="-4.870017">
        <ele>1297.0</ele>
        <time>2013-07-06T13:15:58Z</time>
      </trkpt>
      <trkpt lat="40.170383" lon="-4.869950">
        <ele>1299.0</ele>
        <time>2013-07-06T13:15:59Z</time>
      </trkpt>
      <trkpt lat="40.170383" lon="-4.869883">
        <ele>1302.0</ele>
        <time>2013-07-06T13:16:00Z</time>
      </trkpt>
      <trkpt lat="40.170367" lon="-4.869817">
        <ele>1305.0</ele>
        <time>2013-07-06T13:16:01Z</time>
      </trkpt>
      <trkpt lat="40.170350" lon="-4.869750">
        <ele>1307.0</ele>
        <time>2013-07-06T13:16:02Z</time>
      </trkpt>
      <trkpt lat="40.170333" lon="-4.869683">
        <ele>1309.0</ele>
        <time>2013-07-06T13:16:03Z</time>
      </trkpt>
      <trkpt lat="40.170283" lon="-4.869617">
        <ele>1311.0</ele>
        <time>2013-07-06T13:16:04Z</time>
      </trkpt>
      <trkpt lat="40.170217" lon="-4.869550">
        <ele>1313.0</ele>
        <time>2013-07-06T13:16:05Z</time>
      </trkpt>
      <trkpt lat="40.170167" lon="-4.869500">
        <ele>1316.0</ele>
        <time>2013-07-06T13:16:06Z</time>
      </trkpt>
      <trkpt lat="40.170083" lon="-4.869450">
        <ele>1317.0</ele>
        <time>2013-07-06T13:16:07Z</time>
      </trkpt>
      <trkpt lat="40.170017" lon="-4.869400">
        <ele>1319.0</ele>
        <time>2013-07-06T13:16:08Z</time>
      </trkpt>
      <trkpt lat="40.169950" lon="-4.869367">
        <ele>1321.0</ele>
        <time>2013-07-06T13:16:09Z</time>
      </trkpt>
      <trkpt lat="40.169867" lon="-4.869350">
        <ele>1322.0</ele>
        <time>2013-07-06T13:16:10Z</time>
      </trkpt>
      <trkpt lat="40.169800" lon="-4.869333">
        <ele>1323.0</ele>
        <time>2013-07-06T13:16:11Z</time>
      </trkpt>
      <trkpt lat="40.169733" lon="-4.869350">
        <ele>1324.0</ele>
        <time>2013-07-06T13:16:12Z</time>
      </trkpt>
      <trkpt lat="40.169650" lon="-4.869383">
        <ele>1324.0</ele>
        <time>2013-07-06T13:16:13Z</time>
      </trkpt>
      <trkpt lat="40.169583" lon="-4.869417">
        <ele>1324.0</ele>
        <time>2013-07-06T13:16:14Z</time>
      </trkpt>
      <trkpt lat="40.169500" lon="-4.869467">
        <ele>1324.0</ele>
        <time>2013-07-06T13:16:15Z</time>
      </trkpt>
      <trkpt lat="40.169433" lon="-4.869517">
        <ele>1324.0</ele>
        <time>2013-07-06T13:16:16Z</time>
      </trkpt>
      <trkpt lat="40.169350" lon="-4.869583">
        <ele>1323.0</ele>
        <time>2013-07-06T13:16:17Z</time>
      </trkpt>
      <trkpt lat="40.169283" lon="-4.869650">
        <ele>1322.0</ele>
        <time>2013-07-06T13:16:18Z</time>
      </trkpt>
      <trkpt lat="40.169217" lon="-4.869750">
        <ele>1322.0</ele>
        <time>2013-07-06T13:16:19Z</time>
      </trkpt>
      <trkpt lat="40.169150" lon="-4.869850">
        <ele>1322.0</ele>
        <time>2013-07-06T13:16:20Z</time>
      </trkpt>
      <trkpt lat="40.169050" lon="-4.870033">
        <ele>1324.0</ele>
        <time>2013-07-06T13:16:22Z</time>
      </trkpt>
      <trkpt lat="40.169017" lon="-4.870117">
        <ele>1325.0</ele>
        <time>2013-07-06T13:16:23Z</time>
      </trkpt>
      <trkpt lat="40.168983" lon="-4.870233">
        <ele>1326.0</ele>
        <time>2013-07-06T13:16:24Z</time>
      </trkpt>
      <trkpt lat="40.168967" lon="-4.870333">
        <ele>1327.0</ele>
        <time>2013-07-06T13:16:25Z</time>
      </trkpt>
      <trkpt lat="40.168933" lon="-4.870450">
        <ele>1328.0</ele>
        <time>2013-07-06T13:16:26Z</time>
      </trkpt>
      <trkpt lat="40.168917" lon="-4.870550">
        <ele>1330.0</ele>
        <time>2013-07-06T13:16:27Z</time>
      </trkpt>
      <trkpt lat="40.168900" lon="-4.870650">
        <ele>1333.0</ele>
        <time>2013-07-06T13:16:28Z</time>
      </trkpt>
      <trkpt lat="40.168900" lon="-4.870733">
        <ele>1337.0</ele>
        <time>2013-07-06T13:16:29Z</time>
      </trkpt>
      <trkpt lat="40.168900" lon="-4.870817">
        <ele>1339.0</ele>
        <time>2013-07-06T13:16:30Z</time>
      </trkpt>
      <trkpt lat="40.168917" lon="-4.870933">
        <ele>1341.0</ele>
        <time>2013-07-06T13:16:31Z</time>
      </trkpt>
      <trkpt lat="40.168950" lon="-4.871050">
        <ele>1342.0</ele>
        <time>2013-07-06T13:16:32Z</time>
      </trkpt>
      <trkpt lat="40.168983" lon="-4.871167">
        <ele>1344.0</ele>
        <time>2013-07-06T13:16:33Z</time>
      </trkpt>
      <trkpt lat="40.169017" lon="-4.871267">
        <ele>1347.0</ele>
        <time>2013-07-06T13:16:34Z</time>
      </trkpt>
      <trkpt lat="40.169050" lon="-4.871333">
        <ele>1350.0</ele>
        <time>2013-07-06T13:16:35Z</time>
      </trkpt>
      <trkpt lat="40.169100" lon="-4.871400">
        <ele>1350.0</ele>
        <time>2013-07-06T13:16:36Z</time>
      </trkpt>
      <trkpt lat="40.169167" lon="-4.871450">
        <ele>1351.0</ele>
        <time>2013-07-06T13:16:37Z</time>
      </trkpt>
      <trkpt lat="40.169233" lon="-4.871467">
        <ele>1353.0</ele>
        <time>2013-07-06T13:16:38Z</time>
      </trkpt>
      <trkpt lat="40.169283" lon="-4.871483">
        <ele>1355.0</ele>
        <time>2013-07-06T13:16:39Z</time>
      </trkpt>
      <trkpt lat="40.169483" lon="-4.871450">
        <ele>1357.0</ele>
        <time>2013-07-06T13:16:42Z</time>
      </trkpt>
      <trkpt lat="40.169550" lon="-4.871400">
        <ele>1356.0</ele>
        <time>2013-07-06T13:16:43Z</time>
      </trkpt>
      <trkpt lat="40.169600" lon="-4.871333">
        <ele>1356.0</ele>
        <time>2013-07-06T13:16:44Z</time>
      </trkpt>
      <trkpt lat="40.169633" lon="-4.871267">
        <ele>1356.0</ele>
        <time>2013-07-06T13:16:45Z</time>
      </trkpt>
      <trkpt lat="40.169650" lon="-4.871183">
        <ele>1357.0</ele>
        <time>2013-07-06T13:16:46Z</time>
      </trkpt>
      <trkpt lat="40.169667" lon="-4.871117">
        <ele>1358.0</ele>
        <time>2013-07-06T13:16:47Z</time>
      </trkpt>
      <trkpt lat="40.169667" lon="-4.871050">
        <ele>1359.0</ele>
        <time>2013-07-06T13:16:48Z</time>
      </trkpt>
      <trkpt lat="40.169683" lon="-4.870967">
        <ele>1360.0</ele>
        <time>2013-07-06T13:16:49Z</time>
      </trkpt>
      <trkpt lat="40.169683" lon="-4.870883">
        <ele>1361.0</ele>
        <time>2013-07-06T13:16:50Z</time>
      </trkpt>
      <trkpt lat="40.169667" lon="-4.870800">
        <ele>1362.0</ele>
        <time>2013-07-06T13:16:51Z</time>
      </trkpt>
      <trkpt lat="40.169633" lon="-4.870717">
        <ele>1364.0</ele>
        <time>2013-07-06T13:16:52Z</time>
      </trkpt>
      <trkpt lat="40.169600" lon="-4.870617">
        <ele>1365.0</ele>
        <time>2013-07-06T13:16:53Z</time>
      </trkpt>
      <trkpt lat="40.169550" lon="-4.870533">
        <ele>1367.0</ele>
        <time>2013-07-06T13:16:54Z</time>
      </trkpt>
      <trkpt lat="40.169483" lon="-4.870450">
        <ele>1369.0</ele>
        <time>2013-07-06T13:16:55Z</time>
      </trkpt>
      <trkpt lat="40.169417" lon="-4.870383">
        <ele>1371.0</ele>
        <time>2013-07-06T13:16:56Z</time>
      </trkpt>
      <trkpt lat="40.169350" lon="-4.870333">
        <ele>1374.0</ele>
        <time>2013-07-06T13:16:57Z</time>
      </trkpt>
      <trkpt lat="40.169283" lon="-4.870283">
        <ele>1376.0</ele>
        <time>2013-07-06T13:16:58Z</time>
      </trkpt>
      <trkpt lat="40.169217" lon="-4.870250">
        <ele>1377.0</ele>
        <time>2013-07-06T13:16:59Z</time>
      </trkpt>
      <trkpt lat="40.169150" lon="-4.870217">
        <ele>1379.0</ele>
        <time>2013-07-06T13:17:00Z</time>
      </trkpt>
      <trkpt lat="40.169067" lon="-4.870200">
        <ele>1379.0</ele>
        <time>2013-07-06T13:17:01Z</time>
      </trkpt>
      <trkpt lat="40.168983" lon="-4.870183">
        <ele>1379.0</ele>
        <time>2013-07-06T13:17:02Z</time>
      </trkpt>
      <trkpt lat="40.168883" lon="-4.870183">
        <ele>1379.0</ele>
        <time>2013-07-06T13:17:03Z</time>
      </trkpt>
      <trkpt lat="40.168800" lon="-4.870200">
        <ele>1379.0</ele>
        <time>2013-07-06T13:17:04Z</time>
      </trkpt>
      <trkpt lat="40.168717" lon="-4.870233">
        <ele>1380.0</ele>
        <time>2013-07-06T13:17:05Z</time>
      </trkpt>
      <trkpt lat="40.168650" lon="-4.870283">
        <ele>1381.0</ele>
        <time>2013-07-06T13:17:06Z</time>
      </trkpt>
      <trkpt lat="40.168583" lon="-4.870350">
        <ele>1382.0</ele>
        <time>2013-07-06T13:17:07Z</time>
      </trkpt>
      <trkpt lat="40.168533" lon="-4.870433">
        <ele>1382.0</ele>
        <time>2013-07-06T13:17:08Z</time>
      </trkpt>
      <trkpt lat="40.168467" lon="-4.870500">
        <ele>1383.0</ele>
        <time>2013-07-06T13:17:09Z</time>
      </trkpt>
      <trkpt lat="40.168417" lon="-4.870583">
        <ele>1383.0</ele>
        <time>2013-07-06T13:17:10Z</time>
      </trkpt>
      <trkpt lat="40.168367" lon="-4.870667">
        <ele>1384.0</ele>
        <time>2013-07-06T13:17:11Z</time>
      </trkpt>
      <trkpt lat="40.168317" lon="-4.870750">
        <ele>1385.0</ele>
        <time>2013-07-06T13:17:12Z</time>
      </trkpt>
      <trkpt lat="40.168283" lon="-4.870833">
        <ele>1387.0</ele>
        <time>2013-07-06T13:17:13Z</time>
      </trkpt>
      <trkpt lat="40.168233" lon="-4.870900">
        <ele>1388.0</ele>
        <time>2013-07-06T13:17:14Z</time>
      </trkpt>
      <trkpt lat="40.168200" lon="-4.870983">
        <ele>1390.0</ele>
        <time>2013-07-06T13:17:15Z</time>
      </trkpt>
      <trkpt lat="40.168150" lon="-4.871067">
        <ele>1391.0</ele>
        <time>2013-07-06T13:17:16Z</time>
      </trkpt>
      <trkpt lat="40.168117" lon="-4.871167">
        <ele>1392.0</ele>
        <time>2013-07-06T13:17:17Z</time>
      </trkpt>
      <trkpt lat="40.168100" lon="-4.871267">
        <ele>1393.0</ele>
        <time>2013-07-06T13:17:18Z</time>
      </trkpt>
      <trkpt lat="40.168100" lon="-4.871383">
        <ele>1394.0</ele>
        <time>2013-07-06T13:17:19Z</time>
      </trkpt>
      <trkpt lat="40.168100" lon="-4.871483">
        <ele>1395.0</ele>
        <time>2013-07-06T13:17:20Z</time>
      </trkpt>
      <trkpt lat="40.168133" lon="-4.871600">
        <ele>1395.0</ele>
        <time>2013-07-06T13:17:21Z</time>
      </trkpt>
      <trkpt lat="40.168150" lon="-4.871717">
        <ele>1396.0</ele>
        <time>2013-07-06T13:17:22Z</time>
      </trkpt>
      <trkpt lat="40.168183" lon="-4.871833">
        <ele>1397.0</ele>
        <time>2013-07-06T13:17:23Z</time>
      </trkpt>
      <trkpt lat="40.168200" lon="-4.871933">
        <ele>1400.0</ele>
        <time>2013-07-06T13:17:24Z</time>
      </trkpt>
      <trkpt lat="40.168217" lon="-4.872033">
        <ele>1402.0</ele>
        <time>2013-07-06T13:17:25Z</time>
      </trkpt>
      <trkpt lat="40.168250" lon="-4.872117">
        <ele>1403.0</ele>
        <time>2013-07-06T13:17:26Z</time>
      </trkpt>
      <trkpt lat="40.168300" lon="-4.872200">
        <ele>1404.0</ele>
        <time>2013-07-06T13:17:27Z</time>
      </trkpt>
      <trkpt lat="40.168350" lon="-4.872267">
        <ele>1403.0</ele>
        <time>2013-07-06T13:17:28Z</time>
      </trkpt>
      <trkpt lat="40.168417" lon="-4.872317">
        <ele>1403.0</ele>
        <time>2013-07-06T13:17:29Z</time>
      </trkpt>
      <trkpt lat="40.168500" lon="-4.872333">
        <ele>1403.0</ele>
        <time>2013-07-06T13:17:30Z</time>
      </trkpt>
      <trkpt lat="40.168567" lon="-4.872317">
        <ele>1404.0</ele>
        <time>2013-07-06T13:17:31Z</time>
      </trkpt>
      <trkpt lat="40.168617" lon="-4.872283">
        <ele>1405.0</ele>
        <time>2013-07-06T13:17:32Z</time>
      </trkpt>
      <trkpt lat="40.168667" lon="-4.872233">
        <ele>1405.0</ele>
        <time>2013-07-06T13:17:33Z</time>
      </trkpt>
      <trkpt lat="40.168700" lon="-4.872150">
        <ele>1406.0</ele>
        <time>2013-07-06T13:17:34Z</time>
      </trkpt>
      <trkpt lat="40.168717" lon="-4.872067">
        <ele>1406.0</ele>
        <time>2013-07-06T13:17:35Z</time>
      </trkpt>
      <trkpt lat="40.168733" lon="-4.871967">
        <ele>1406.0</ele>
        <time>2013-07-06T13:17:36Z</time>
      </trkpt>
      <trkpt lat="40.168733" lon="-4.871883">
        <ele>1407.0</ele>
        <time>2013-07-06T13:17:37Z</time>
      </trkpt>
      <trkpt lat="40.168717" lon="-4.871800">
        <ele>1407.0</ele>
        <time>2013-07-06T13:17:38Z</time>
      </trkpt>
      <trkpt lat="40.168683" lon="-4.871717">
        <ele>1408.0</ele>
        <time>2013-07-06T13:17:39Z</time>
      </trkpt>
      <trkpt lat="40.168633" lon="-4.871617">
        <ele>1408.0</ele>
        <time>2013-07-06T13:17:40Z</time>
      </trkpt>
      <trkpt lat="40.168567" lon="-4.871533">
        <ele>1408.0</ele>
        <time>2013-07-06T13:17:41Z</time>
      </trkpt>
      <trkpt lat="40.168483" lon="-4.871467">
        <ele>1408.0</ele>
        <time>2013-07-06T13:17:42Z</time>
      </trkpt>
      <trkpt lat="40.168383" lon="-4.871417">
        <ele>1408.0</ele>
        <time>2013-07-06T13:17:43Z</time>
      </trkpt>
      <trkpt lat="40.168283" lon="-4.871400">
        <ele>1409.0</ele>
        <time>2013-07-06T13:17:44Z</time>
      </trkpt>
      <trkpt lat="40.168183" lon="-4.871383">
        <ele>1410.0</ele>
        <time>2013-07-06T13:17:45Z</time>
      </trkpt>
      <trkpt lat="40.168033" lon="-4.871400">
        <ele>1412.0</ele>
        <time>2013-07-06T13:17:47Z</time>
      </trkpt>
      <trkpt lat="40.167967" lon="-4.871417">
        <ele>1413.0</ele>
        <time>2013-07-06T13:17:48Z</time>
      </trkpt>
      <trkpt lat="40.167883" lon="-4.871450">
        <ele>1413.0</ele>
        <time>2013-07-06T13:17:49Z</time>
      </trkpt>
      <trkpt lat="40.167800" lon="-4.871483">
        <ele>1413.0</ele>
        <time>2013-07-06T13:17:50Z</time>
      </trkpt>
      <trkpt lat="40.167733" lon="-4.871517">
        <ele>1413.0</ele>
        <time>2013-07-06T13:17:51Z</time>
      </trkpt>
      <trkpt lat="40.167650" lon="-4.871567">
        <ele>1413.0</ele>
        <time>2013-07-06T13:17:52Z</time>
      </trkpt>
      <trkpt lat="40.167567" lon="-4.871617">
        <ele>1413.0</ele>
        <time>2013-07-06T13:17:53Z</time>
      </trkpt>
      <trkpt lat="40.167517" lon="-4.871700">
        <ele>1414.0</ele>
        <time>2013-07-06T13:17:54Z</time>
      </trkpt>
      <trkpt lat="40.167450" lon="-4.871767">
        <ele>1414.0</ele>
        <time>2013-07-06T13:17:55Z</time>
      </trkpt>
      <trkpt lat="40.167400" lon="-4.871850">
        <ele>1414.0</ele>
        <time>2013-07-06T13:17:56Z</time>
      </trkpt>
      <trkpt lat="40.167350" lon="-4.871950">
        <ele>1414.0</ele>
        <time>2013-07-06T13:17:57Z</time>
      </trkpt>
      <trkpt lat="40.167283" lon="-4.872050">
        <ele>1414.0</ele>
        <time>2013-07-06T13:17:58Z</time>
      </trkpt>
      <trkpt lat="40.167233" lon="-4.872183">
        <ele>1414.0</ele>
        <time>2013-07-06T13:17:59Z</time>
      </trkpt>
      <trkpt lat="40.167217" lon="-4.872300">
        <ele>1414.0</ele>
        <time>2013-07-06T13:18:00Z</time>
      </trkpt>
      <trkpt lat="40.167200" lon="-4.872417">
        <ele>1415.0</ele>
        <time>2013-07-06T13:18:01Z</time>
      </trkpt>
      <trkpt lat="40.167183" lon="-4.872517">
        <ele>1416.0</ele>
        <time>2013-07-06T13:18:02Z</time>
      </trkpt>
      <trkpt lat="40.167200" lon="-4.872633">
        <ele>1417.0</ele>
        <time>2013-07-06T13:18:03Z</time>
      </trkpt>
      <trkpt lat="40.167200" lon="-4.872733">
        <ele>1418.0</ele>
        <time>2013-07-06T13:18:04Z</time>
      </trkpt>
      <trkpt lat="40.167217" lon="-4.872850">
        <ele>1419.0</ele>
        <time>2013-07-06T13:18:05Z</time>
      </trkpt>
      <trkpt lat="40.167267" lon="-4.872950">
        <ele>1421.0</ele>
        <time>2013-07-06T13:18:06Z</time>
      </trkpt>
      <trkpt lat="40.167300" lon="-4.873050">
        <ele>1423.0</ele>
        <time>2013-07-06T13:18:07Z</time>
      </trkpt>
      <trkpt lat="40.167350" lon="-4.873133">
        <ele>1425.0</ele>
        <time>2013-07-06T13:18:08Z</time>
      </trkpt>
      <trkpt lat="40.167400" lon="-4.873183">
        <ele>1429.0</ele>
        <time>2013-07-06T13:18:09Z</time>
      </trkpt>
      <trkpt lat="40.167450" lon="-4.873233">
        <ele>1431.0</ele>
        <time>2013-07-06T13:18:10Z</time>
      </trkpt>
      <trkpt lat="40.167583" lon="-4.873267">
        <ele>1433.0</ele>
        <time>2013-07-06T13:18:12Z</time>
      </trkpt>
      <trkpt lat="40.167717" lon="-4.873250">
        <ele>1437.0</ele>
        <time>2013-07-06T13:18:14Z</time>
      </trkpt>
      <trkpt lat="40.167783" lon="-4.873233">
        <ele>1438.0</ele>
        <time>2013-07-06T13:18:15Z</time>
      </trkpt>
      <trkpt lat="40.167833" lon="-4.873183">
        <ele>1439.0</ele>
        <time>2013-07-06T13:18:16Z</time>
      </trkpt>
      <trkpt lat="40.167883" lon="-4.873133">
        <ele>1440.0</ele>
        <time>2013-07-06T13:18:17Z</time>
      </trkpt>
      <trkpt lat="40.167950" lon="-4.873033">
        <ele>1443.0</ele>
        <time>2013-07-06T13:18:19Z</time>
      </trkpt>
      <trkpt lat="40.167983" lon="-4.872983">
        <ele>1444.0</ele>
        <time>2013-07-06T13:18:20Z</time>
      </trkpt>
      <trkpt lat="40.168017" lon="-4.872817">
        <ele>1445.0</ele>
        <time>2013-07-06T13:18:22Z</time>
      </trkpt>
      <trkpt lat="40.168033" lon="-4.872733">
        <ele>1446.0</ele>
        <time>2013-07-06T13:18:23Z</time>
      </trkpt>
      <trkpt lat="40.168033" lon="-4.872667">
        <ele>1447.0</ele>
        <time>2013-07-06T13:18:24Z</time>
      </trkpt>
      <trkpt lat="40.168017" lon="-4.872483">
        <ele>1449.0</ele>
        <time>2013-07-06T13:18:26Z</time>
      </trkpt>
      <trkpt lat="40.168000" lon="-4.872383">
        <ele>1449.0</ele>
        <time>2013-07-06T13:18:27Z</time>
      </trkpt>
      <trkpt lat="40.167983" lon="-4.872267">
        <ele>1449.0</ele>
        <time>2013-07-06T13:18:28Z</time>
      </trkpt>
      <trkpt lat="40.167967" lon="-4.872167">
        <ele>1449.0</ele>
        <time>2013-07-06T13:18:29Z</time>
      </trkpt>
      <trkpt lat="40.167917" lon="-4.872083">
        <ele>1449.0</ele>
        <time>2013-07-06T13:18:30Z</time>
      </trkpt>
      <trkpt lat="40.167867" lon="-4.872000">
        <ele>1449.0</ele>
        <time>2013-07-06T13:18:31Z</time>
      </trkpt>
      <trkpt lat="40.167800" lon="-4.871950">
        <ele>1449.0</ele>
        <time>2013-07-06T13:18:32Z</time>
      </trkpt>
      <trkpt lat="40.167733" lon="-4.871917">
        <ele>1449.0</ele>
        <time>2013-07-06T13:18:33Z</time>
      </trkpt>
      <trkpt lat="40.167667" lon="-4.871900">
        <ele>1449.0</ele>
        <time>2013-07-06T13:18:34Z</time>
      </trkpt>
      <trkpt lat="40.167600" lon="-4.871883">
        <ele>1448.0</ele>
        <time>2013-07-06T13:18:35Z</time>
      </trkpt>
      <trkpt lat="40.167517" lon="-4.871867">
        <ele>1448.0</ele>
        <time>2013-07-06T13:18:36Z</time>
      </trkpt>
      <trkpt lat="40.167433" lon="-4.871867">
        <ele>1447.0</ele>
        <time>2013-07-06T13:18:37Z</time>
      </trkpt>
      <trkpt lat="40.167367" lon="-4.871883">
        <ele>1446.0</ele>
        <time>2013-07-06T13:18:38Z</time>
      </trkpt>
      <trkpt lat="40.167300" lon="-4.871900">
        <ele>1446.0</ele>
        <time>2013-07-06T13:18:39Z</time>
      </trkpt>
      <trkpt lat="40.167217" lon="-4.871950">
        <ele>1444.0</ele>
        <time>2013-07-06T13:18:40Z</time>
      </trkpt>
      <trkpt lat="40.167150" lon="-4.872000">
        <ele>1444.0</ele>
        <time>2013-07-06T13:18:41Z</time>
      </trkpt>
      <trkpt lat="40.167083" lon="-4.872067">
        <ele>1443.0</ele>
        <time>2013-07-06T13:18:42Z</time>
      </trkpt>
      <trkpt lat="40.167017" lon="-4.872150">
        <ele>1444.0</ele>
        <time>2013-07-06T13:18:43Z</time>
      </trkpt>
      <trkpt lat="40.166983" lon="-4.872233">
        <ele>1445.0</ele>
        <time>2013-07-06T13:18:44Z</time>
      </trkpt>
      <trkpt lat="40.166933" lon="-4.872333">
        <ele>1445.0</ele>
        <time>2013-07-06T13:18:45Z</time>
      </trkpt>
      <trkpt lat="40.166900" lon="-4.872433">
        <ele>1445.0</ele>
        <time>2013-07-06T13:18:46Z</time>
      </trkpt>
      <trkpt lat="40.166850" lon="-4.872550">
        <ele>1445.0</ele>
        <time>2013-07-06T13:18:47Z</time>
      </trkpt>
      <trkpt lat="40.166817" lon="-4.872667">
        <ele>1445.0</ele>
        <time>2013-07-06T13:18:48Z</time>
      </trkpt>
      <trkpt lat="40.166783" lon="-4.872800">
        <ele>1445.0</ele>
        <time>2013-07-06T13:18:49Z</time>
      </trkpt>
      <trkpt lat="40.166767" lon="-4.872917">
        <ele>1445.0</ele>
        <time>2013-07-06T13:18:50Z</time>
      </trkpt>
      <trkpt lat="40.166733" lon="-4.873033">
        <ele>1446.0</ele>
        <time>2013-07-06T13:18:51Z</time>
      </trkpt>
      <trkpt lat="40.166717" lon="-4.873150">
        <ele>1446.0</ele>
        <time>2013-07-06T13:18:52Z</time>
      </trkpt>
      <trkpt lat="40.166683" lon="-4.873267">
        <ele>1447.0</ele>
        <time>2013-07-06T13:18:53Z</time>
      </trkpt>
      <trkpt lat="40.166650" lon="-4.873383">
        <ele>1447.0</ele>
        <time>2013-07-06T13:18:54Z</time>
      </trkpt>
      <trkpt lat="40.166617" lon="-4.873500">
        <ele>1448.0</ele>
        <time>2013-07-06T13:18:55Z</time>
      </trkpt>
      <trkpt lat="40.166600" lon="-4.873617">
        <ele>1449.0</ele>
        <time>2013-07-06T13:18:56Z</time>
      </trkpt>
      <trkpt lat="40.166567" lon="-4.873717">
        <ele>1451.0</ele>
        <time>2013-07-06T13:18:57Z</time>
      </trkpt>
      <trkpt lat="40.166533" lon="-4.873850">
        <ele>1451.0</ele>
        <time>2013-07-06T13:18:58Z</time>
      </trkpt>
      <trkpt lat="40.166500" lon="-4.873983">
        <ele>1452.0</ele>
        <time>2013-07-06T13:18:59Z</time>
      </trkpt>
      <trkpt lat="40.166467" lon="-4.874117">
        <ele>1452.0</ele>
        <time>2013-07-06T13:19:00Z</time>
      </trkpt>
      <trkpt lat="40.166450" lon="-4.874250">
        <ele>1453.0</ele>
        <time>2013-07-06T13:19:01Z</time>
      </trkpt>
      <trkpt lat="40.166433" lon="-4.874367">
        <ele>1455.0</ele>
        <time>2013-07-06T13:19:02Z</time>
      </trkpt>
      <trkpt lat="40.166417" lon="-4.874500">
        <ele>1457.0</ele>
        <time>2013-07-06T13:19:03Z</time>
      </trkpt>
      <trkpt lat="40.166433" lon="-4.874633">
        <ele>1458.0</ele>
        <time>2013-07-06T13:19:04Z</time>
      </trkpt>
      <trkpt lat="40.166450" lon="-4.874750">
        <ele>1460.0</ele>
        <time>2013-07-06T13:19:05Z</time>
      </trkpt>
      <trkpt lat="40.166500" lon="-4.874867">
        <ele>1462.0</ele>
        <time>2013-07-06T13:19:06Z</time>
      </trkpt>
      <trkpt lat="40.166550" lon="-4.874967">
        <ele>1465.0</ele>
        <time>2013-07-06T13:19:07Z</time>
      </trkpt>
      <trkpt lat="40.166600" lon="-4.875033">
        <ele>1467.0</ele>
        <time>2013-07-06T13:19:08Z</time>
      </trkpt>
      <trkpt lat="40.166667" lon="-4.875083">
        <ele>1468.0</ele>
        <time>2013-07-06T13:19:09Z</time>
      </trkpt>
      <trkpt lat="40.166750" lon="-4.875117">
        <ele>1467.0</ele>
        <time>2013-07-06T13:19:10Z</time>
      </trkpt>
      <trkpt lat="40.166850" lon="-4.875150">
        <ele>1467.0</ele>
        <time>2013-07-06T13:19:11Z</time>
      </trkpt>
      <trkpt lat="40.166917" lon="-4.875167">
        <ele>1468.0</ele>
        <time>2013-07-06T13:19:12Z</time>
      </trkpt>
      <trkpt lat="40.166967" lon="-4.875167">
        <ele>1470.0</ele>
        <time>2013-07-06T13:19:13Z</time>
      </trkpt>
      <trkpt lat="40.167050" lon="-4.875167">
        <ele>1473.0</ele>
        <time>2013-07-06T13:19:15Z</time>
      </trkpt>
      <trkpt lat="40.167117" lon="-4.875133">
        <ele>1473.0</ele>
        <time>2013-07-06T13:19:16Z</time>
      </trkpt>
      <trkpt lat="40.167183" lon="-4.875100">
        <ele>1473.0</ele>
        <time>2013-07-06T13:19:17Z</time>
      </trkpt>
      <trkpt lat="40.167233" lon="-4.875050">
        <ele>1473.0</ele>
        <time>2013-07-06T13:19:18Z</time>
      </trkpt>
      <trkpt lat="40.167283" lon="-4.875000">
        <ele>1475.0</ele>
        <time>2013-07-06T13:19:19Z</time>
      </trkpt>
      <trkpt lat="40.167317" lon="-4.874933">
        <ele>1476.0</ele>
        <time>2013-07-06T13:19:20Z</time>
      </trkpt>
      <trkpt lat="40.167333" lon="-4.874867">
        <ele>1478.0</ele>
        <time>2013-07-06T13:19:21Z</time>
      </trkpt>
      <trkpt lat="40.167300" lon="-4.874700">
        <ele>1480.0</ele>
        <time>2013-07-06T13:19:23Z</time>
      </trkpt>
      <trkpt lat="40.167283" lon="-4.874617">
        <ele>1481.0</ele>
        <time>2013-07-06T13:19:24Z</time>
      </trkpt>
      <trkpt lat="40.167250" lon="-4.874533">
        <ele>1482.0</ele>
        <time>2013-07-06T13:19:25Z</time>
      </trkpt>
      <trkpt lat="40.167217" lon="-4.874450">
        <ele>1483.0</ele>
        <time>2013-07-06T13:19:26Z</time>
      </trkpt>
      <trkpt lat="40.167167" lon="-4.874367">
        <ele>1483.0</ele>
        <time>2013-07-06T13:19:27Z</time>
      </trkpt>
      <trkpt lat="40.167117" lon="-4.874283">
        <ele>1484.0</ele>
        <time>2013-07-06T13:19:28Z</time>
      </trkpt>
      <trkpt lat="40.167050" lon="-4.874217">
        <ele>1484.0</ele>
        <time>2013-07-06T13:19:29Z</time>
      </trkpt>
      <trkpt lat="40.166983" lon="-4.874133">
        <ele>1485.0</ele>
        <time>2013-07-06T13:19:30Z</time>
      </trkpt>
      <trkpt lat="40.166917" lon="-4.874050">
        <ele>1485.0</ele>
        <time>2013-07-06T13:19:31Z</time>
      </trkpt>
      <trkpt lat="40.166833" lon="-4.874000">
        <ele>1486.0</ele>
        <time>2013-07-06T13:19:32Z</time>
      </trkpt>
      <trkpt lat="40.166733" lon="-4.873967">
        <ele>1487.0</ele>
        <time>2013-07-06T13:19:33Z</time>
      </trkpt>
      <trkpt lat="40.166650" lon="-4.873967">
        <ele>1488.0</ele>
        <time>2013-07-06T13:19:34Z</time>
      </trkpt>
      <trkpt lat="40.166550" lon="-4.873983">
        <ele>1489.0</ele>
        <time>2013-07-06T13:19:35Z</time>
      </trkpt>
      <trkpt lat="40.166467" lon="-4.874000">
        <ele>1489.0</ele>
        <time>2013-07-06T13:19:36Z</time>
      </trkpt>
      <trkpt lat="40.166367" lon="-4.874033">
        <ele>1489.0</ele>
        <time>2013-07-06T13:19:37Z</time>
      </trkpt>
      <trkpt lat="40.166283" lon="-4.874100">
        <ele>1489.0</ele>
        <time>2013-07-06T13:19:38Z</time>
      </trkpt>
      <trkpt lat="40.166200" lon="-4.874150">
        <ele>1489.0</ele>
        <time>2013-07-06T13:19:39Z</time>
      </trkpt>
      <trkpt lat="40.166117" lon="-4.874233">
        <ele>1489.0</ele>
        <time>2013-07-06T13:19:40Z</time>
      </trkpt>
      <trkpt lat="40.166033" lon="-4.874317">
        <ele>1489.0</ele>
        <time>2013-07-06T13:19:41Z</time>
      </trkpt>
      <trkpt lat="40.165950" lon="-4.874417">
        <ele>1489.0</ele>
        <time>2013-07-06T13:19:42Z</time>
      </trkpt>
      <trkpt lat="40.165883" lon="-4.874533">
        <ele>1489.0</ele>
        <time>2013-07-06T13:19:43Z</time>
      </trkpt>
      <trkpt lat="40.165817" lon="-4.874633">
        <ele>1489.0</ele>
        <time>2013-07-06T13:19:44Z</time>
      </trkpt>
      <trkpt lat="40.165767" lon="-4.874733">
        <ele>1490.0</ele>
        <time>2013-07-06T13:19:45Z</time>
      </trkpt>
      <trkpt lat="40.165700" lon="-4.874850">
        <ele>1491.0</ele>
        <time>2013-07-06T13:19:46Z</time>
      </trkpt>
      <trkpt lat="40.165650" lon="-4.874950">
        <ele>1491.0</ele>
        <time>2013-07-06T13:19:47Z</time>
      </trkpt>
      <trkpt lat="40.165617" lon="-4.875050">
        <ele>1493.0</ele>
        <time>2013-07-06T13:19:48Z</time>
      </trkpt>
      <trkpt lat="40.165583" lon="-4.875150">
        <ele>1494.0</ele>
        <time>2013-07-06T13:19:49Z</time>
      </trkpt>
      <trkpt lat="40.165550" lon="-4.875250">
        <ele>1496.0</ele>
        <time>2013-07-06T13:19:50Z</time>
      </trkpt>
      <trkpt lat="40.165517" lon="-4.875350">
        <ele>1498.0</ele>
        <time>2013-07-06T13:19:51Z</time>
      </trkpt>
      <trkpt lat="40.165500" lon="-4.875450">
        <ele>1500.0</ele>
        <time>2013-07-06T13:19:52Z</time>
      </trkpt>
      <trkpt lat="40.165467" lon="-4.875550">
        <ele>1503.0</ele>
        <time>2013-07-06T13:19:53Z</time>
      </trkpt>
      <trkpt lat="40.165433" lon="-4.875650">
        <ele>1507.0</ele>
        <time>2013-07-06T13:19:54Z</time>
      </trkpt>
      <trkpt lat="40.165433" lon="-4.875767">
        <ele>1510.0</ele>
        <time>2013-07-06T13:19:55Z</time>
      </trkpt>
      <trkpt lat="40.165467" lon="-4.875867">
        <ele>1513.0</ele>
        <time>2013-07-06T13:19:56Z</time>
      </trkpt>
      <trkpt lat="40.165517" lon="-4.875983">
        <ele>1516.0</ele>
        <time>2013-07-06T13:19:57Z</time>
      </trkpt>
      <trkpt lat="40.165583" lon="-4.876100">
        <ele>1519.0</ele>
        <time>2013-07-06T13:19:58Z</time>
      </trkpt>
      <trkpt lat="40.165650" lon="-4.876183">
        <ele>1523.0</ele>
        <time>2013-07-06T13:19:59Z</time>
      </trkpt>
      <trkpt lat="40.165717" lon="-4.876250">
        <ele>1527.0</ele>
        <time>2013-07-06T13:20:00Z</time>
      </trkpt>
      <trkpt lat="40.165783" lon="-4.876283">
        <ele>1531.0</ele>
        <time>2013-07-06T13:20:01Z</time>
      </trkpt>
      <trkpt lat="40.165867" lon="-4.876317">
        <ele>1533.0</ele>
        <time>2013-07-06T13:20:02Z</time>
      </trkpt>
      <trkpt lat="40.165950" lon="-4.876317">
        <ele>1534.0</ele>
        <time>2013-07-06T13:20:03Z</time>
      </trkpt>
      <trkpt lat="40.166033" lon="-4.876300">
        <ele>1536.0</ele>
        <time>2013-07-06T13:20:04Z</time>
      </trkpt>
      <trkpt lat="40.166100" lon="-4.876283">
        <ele>1538.0</ele>
        <time>2013-07-06T13:20:05Z</time>
      </trkpt>
      <trkpt lat="40.166150" lon="-4.876233">
        <ele>1541.0</ele>
        <time>2013-07-06T13:20:06Z</time>
      </trkpt>
      <trkpt lat="40.166183" lon="-4.876183">
        <ele>1543.0</ele>
        <time>2013-07-06T13:20:07Z</time>
      </trkpt>
      <trkpt lat="40.166200" lon="-4.876117">
        <ele>1545.0</ele>
        <time>2013-07-06T13:20:08Z</time>
      </trkpt>
      <trkpt lat="40.166217" lon="-4.876050">
        <ele>1546.0</ele>
        <time>2013-07-06T13:20:09Z</time>
      </trkpt>
      <trkpt lat="40.166233" lon="-4.875967">
        <ele>1547.0</ele>
        <time>2013-07-06T13:20:10Z</time>
      </trkpt>
      <trkpt lat="40.166233" lon="-4.875867">
        <ele>1548.0</ele>
        <time>2013-07-06T13:20:11Z</time>
      </trkpt>
      <trkpt lat="40.166217" lon="-4.875783">
        <ele>1550.0</ele>
        <time>2013-07-06T13:20:12Z</time>
      </trkpt>
      <trkpt lat="40.166200" lon="-4.875700">
        <ele>1551.0</ele>
        <time>2013-07-06T13:20:13Z</time>
      </trkpt>
      <trkpt lat="40.166167" lon="-4.875617">
        <ele>1552.0</ele>
        <time>2013-07-06T13:20:14Z</time>
      </trkpt>
      <trkpt lat="40.166117" lon="-4.875533">
        <ele>1553.0</ele>
        <time>2013-07-06T13:20:15Z</time>
      </trkpt>
      <trkpt lat="40.166083" lon="-4.875450">
        <ele>1554.0</ele>
        <time>2013-07-06T13:20:16Z</time>
      </trkpt>
      <trkpt lat="40.166033" lon="-4.875383">
        <ele>1555.0</ele>
        <time>2013-07-06T13:20:17Z</time>
      </trkpt>
      <trkpt lat="40.165967" lon="-4.875333">
        <ele>1556.0</ele>
        <time>2013-07-06T13:20:18Z</time>
      </trkpt>
      <trkpt lat="40.165800" lon="-4.875300">
        <ele>1557.0</ele>
        <time>2013-07-06T13:20:20Z</time>
      </trkpt>
      <trkpt lat="40.165717" lon="-4.875317">
        <ele>1557.0</ele>
        <time>2013-07-06T13:20:21Z</time>
      </trkpt>
      <trkpt lat="40.165633" lon="-4.875350">
        <ele>1558.0</ele>
        <time>2013-07-06T13:20:22Z</time>
      </trkpt>
      <trkpt lat="40.165550" lon="-4.875383">
        <ele>1558.0</ele>
        <time>2013-07-06T13:20:23Z</time>
      </trkpt>
      <trkpt lat="40.165467" lon="-4.875417">
        <ele>1557.0</ele>
        <time>2013-07-06T13:20:24Z</time>
      </trkpt>
      <trkpt lat="40.165400" lon="-4.875483">
        <ele>1558.0</ele>
        <time>2013-07-06T13:20:25Z</time>
      </trkpt>
      <trkpt lat="40.165317" lon="-4.875550">
        <ele>1560.0</ele>
        <time>2013-07-06T13:20:26Z</time>
      </trkpt>
      <trkpt lat="40.165267" lon="-4.875617">
        <ele>1563.0</ele>
        <time>2013-07-06T13:20:27Z</time>
      </trkpt>
      <trkpt lat="40.165233" lon="-4.875700">
        <ele>1565.0</ele>
        <time>2013-07-06T13:20:28Z</time>
      </trkpt>
      <trkpt lat="40.165200" lon="-4.875767">
        <ele>1568.0</ele>
        <time>2013-07-06T13:20:29Z</time>
      </trkpt>
      <trkpt lat="40.165167" lon="-4.875833">
        <ele>1571.0</ele>
        <time>2013-07-06T13:20:30Z</time>
      </trkpt>
      <trkpt lat="40.165133" lon="-4.875900">
        <ele>1572.0</ele>
        <time>2013-07-06T13:20:31Z</time>
      </trkpt>
      <trkpt lat="40.165083" lon="-4.876000">
        <ele>1572.0</ele>
        <time>2013-07-06T13:20:32Z</time>
      </trkpt>
      <trkpt lat="40.165033" lon="-4.876117">
        <ele>1572.0</ele>
        <time>2013-07-06T13:20:33Z</time>
      </trkpt>
      <trkpt lat="40.164967" lon="-4.876233">
        <ele>1572.0</ele>
        <time>2013-07-06T13:20:34Z</time>
      </trkpt>
      <trkpt lat="40.164933" lon="-4.876350">
        <ele>1574.0</ele>
        <time>2013-07-06T13:20:35Z</time>
      </trkpt>
      <trkpt lat="40.164917" lon="-4.876450">
        <ele>1576.0</ele>
        <time>2013-07-06T13:20:36Z</time>
      </trkpt>
      <trkpt lat="40.164933" lon="-4.876550">
        <ele>1579.0</ele>
        <time>2013-07-06T13:20:37Z</time>
      </trkpt>
      <trkpt lat="40.164950" lon="-4.876650">
        <ele>1581.0</ele>
        <time>2013-07-06T13:20:38Z</time>
      </trkpt>
      <trkpt lat="40.164967" lon="-4.876750">
        <ele>1582.0</ele>
        <time>2013-07-06T13:20:39Z</time>
      </trkpt>
      <trkpt lat="40.164983" lon="-4.876883">
        <ele>1585.0</ele>
        <time>2013-07-06T13:20:40Z</time>
      </trkpt>
      <trkpt lat="40.165000" lon="-4.877000">
        <ele>1587.0</ele>
        <time>2013-07-06T13:20:41Z</time>
      </trkpt>
      <trkpt lat="40.165017" lon="-4.877117">
        <ele>1589.0</ele>
        <time>2013-07-06T13:20:42Z</time>
      </trkpt>
      <trkpt lat="40.165050" lon="-4.877217">
        <ele>1591.0</ele>
        <time>2013-07-06T13:20:43Z</time>
      </trkpt>
      <trkpt lat="40.165100" lon="-4.877300">
        <ele>1593.0</ele>
        <time>2013-07-06T13:20:44Z</time>
      </trkpt>
      <trkpt lat="40.165150" lon="-4.877400">
        <ele>1595.0</ele>
        <time>2013-07-06T13:20:45Z</time>
      </trkpt>
      <trkpt lat="40.165233" lon="-4.877483">
        <ele>1597.0</ele>
        <time>2013-07-06T13:20:46Z</time>
      </trkpt>
      <trkpt lat="40.165300" lon="-4.877550">
        <ele>1599.0</ele>
        <time>2013-07-06T13:20:47Z</time>
      </trkpt>
      <trkpt lat="40.165383" lon="-4.877600">
        <ele>1602.0</ele>
        <time>2013-07-06T13:20:48Z</time>
      </trkpt>
      <trkpt lat="40.165467" lon="-4.877633">
        <ele>1605.0</ele>
        <time>2013-07-06T13:20:49Z</time>
      </trkpt>
      <trkpt lat="40.165550" lon="-4.877667">
        <ele>1606.0</ele>
        <time>2013-07-06T13:20:50Z</time>
      </trkpt>
      <trkpt lat="40.165717" lon="-4.877733">
        <ele>1606.0</ele>
        <time>2013-07-06T13:20:52Z</time>
      </trkpt>
      <trkpt lat="40.165800" lon="-4.877783">
        <ele>1605.0</ele>
        <time>2013-07-06T13:20:53Z</time>
      </trkpt>
      <trkpt lat="40.165917" lon="-4.877817">
        <ele>1604.0</ele>
        <time>2013-07-06T13:20:54Z</time>
      </trkpt>
      <trkpt lat="40.166017" lon="-4.877883">
        <ele>1605.0</ele>
        <time>2013-07-06T13:20:55Z</time>
      </trkpt>
      <trkpt lat="40.166100" lon="-4.877950">
        <ele>1608.0</ele>
        <time>2013-07-06T13:20:56Z</time>
      </trkpt>
      <trkpt lat="40.166183" lon="-4.878017">
        <ele>1610.0</ele>
        <time>2013-07-06T13:20:57Z</time>
      </trkpt>
      <trkpt lat="40.166250" lon="-4.878083">
        <ele>1612.0</ele>
        <time>2013-07-06T13:20:58Z</time>
      </trkpt>
      <trkpt lat="40.166333" lon="-4.878150">
        <ele>1614.0</ele>
        <time>2013-07-06T13:20:59Z</time>
      </trkpt>
      <trkpt lat="40.166417" lon="-4.878233">
        <ele>1615.0</ele>
        <time>2013-07-06T13:21:00Z</time>
      </trkpt>
      <trkpt lat="40.166517" lon="-4.878333">
        <ele>1616.0</ele>
        <time>2013-07-06T13:21:01Z</time>
      </trkpt>
      <trkpt lat="40.166583" lon="-4.878417">
        <ele>1618.0</ele>
        <time>2013-07-06T13:21:02Z</time>
      </trkpt>
      <trkpt lat="40.166650" lon="-4.878500">
        <ele>1620.0</ele>
        <time>2013-07-06T13:21:03Z</time>
      </trkpt>
      <trkpt lat="40.166717" lon="-4.878567">
        <ele>1624.0</ele>
        <time>2013-07-06T13:21:04Z</time>
      </trkpt>
      <trkpt lat="40.166767" lon="-4.878633">
        <ele>1627.0</ele>
        <time>2013-07-06T13:21:05Z</time>
      </trkpt>
      <trkpt lat="40.166850" lon="-4.878667">
        <ele>1629.0</ele>
        <time>2013-07-06T13:21:06Z</time>
      </trkpt>
      <trkpt lat="40.166933" lon="-4.878683">
        <ele>1631.0</ele>
        <time>2013-07-06T13:21:07Z</time>
      </trkpt>
      <trkpt lat="40.167083" lon="-4.878650">
        <ele>1636.0</ele>
        <time>2013-07-06T13:21:09Z</time>
      </trkpt>
      <trkpt lat="40.167150" lon="-4.878600">
        <ele>1638.0</ele>
        <time>2013-07-06T13:21:10Z</time>
      </trkpt>
      <trkpt lat="40.167183" lon="-4.878550">
        <ele>1641.0</ele>
        <time>2013-07-06T13:21:11Z</time>
      </trkpt>
      <trkpt lat="40.167217" lon="-4.878483">
        <ele>1643.0</ele>
        <time>2013-07-06T13:21:12Z</time>
      </trkpt>
      <trkpt lat="40.167217" lon="-4.878400">
        <ele>1644.0</ele>
        <time>2013-07-06T13:21:13Z</time>
      </trkpt>
      <trkpt lat="40.167217" lon="-4.878317">
        <ele>1645.0</ele>
        <time>2013-07-06T13:21:14Z</time>
      </trkpt>
      <trkpt lat="40.167200" lon="-4.878233">
        <ele>1646.0</ele>
        <time>2013-07-06T13:21:15Z</time>
      </trkpt>
      <trkpt lat="40.167167" lon="-4.878167">
        <ele>1648.0</ele>
        <time>2013-07-06T13:21:16Z</time>
      </trkpt>
      <trkpt lat="40.167117" lon="-4.878100">
        <ele>1649.0</ele>
        <time>2013-07-06T13:21:17Z</time>
      </trkpt>
      <trkpt lat="40.167050" lon="-4.878050">
        <ele>1650.0</ele>
        <time>2013-07-06T13:21:18Z</time>
      </trkpt>
      <trkpt lat="40.166983" lon="-4.878017">
        <ele>1651.0</ele>
        <time>2013-07-06T13:21:19Z</time>
      </trkpt>
      <trkpt lat="40.166917" lon="-4.878000">
        <ele>1652.0</ele>
        <time>2013-07-06T13:21:20Z</time>
      </trkpt>
      <trkpt lat="40.166833" lon="-4.878017">
        <ele>1653.0</ele>
        <time>2013-07-06T13:21:21Z</time>
      </trkpt>
      <trkpt lat="40.166767" lon="-4.878050">
        <ele>1655.0</ele>
        <time>2013-07-06T13:21:22Z</time>
      </trkpt>
      <trkpt lat="40.166700" lon="-4.878083">
        <ele>1656.0</ele>
        <time>2013-07-06T13:21:23Z</time>
      </trkpt>
      <trkpt lat="40.166633" lon="-4.878150">
        <ele>1658.0</ele>
        <time>2013-07-06T13:21:24Z</time>
      </trkpt>
      <trkpt lat="40.166567" lon="-4.878217">
        <ele>1660.0</ele>
        <time>2013-07-06T13:21:25Z</time>
      </trkpt>
      <trkpt lat="40.166500" lon="-4.878283">
        <ele>1661.0</ele>
        <time>2013-07-06T13:21:26Z</time>
      </trkpt>
      <trkpt lat="40.166433" lon="-4.878383">
        <ele>1662.0</ele>
        <time>2013-07-06T13:21:27Z</time>
      </trkpt>
      <trkpt lat="40.166383" lon="-4.878483">
        <ele>1663.0</ele>
        <time>2013-07-06T13:21:28Z</time>
      </trkpt>
      <trkpt lat="40.166350" lon="-4.878600">
        <ele>1664.0</ele>
        <time>2013-07-06T13:21:29Z</time>
      </trkpt>
      <trkpt lat="40.166333" lon="-4.878717">
        <ele>1666.0</ele>
        <time>2013-07-06T13:21:30Z</time>
      </trkpt>
      <trkpt lat="40.166317" lon="-4.878833">
        <ele>1668.0</ele>
        <time>2013-07-06T13:21:31Z</time>
      </trkpt>
      <trkpt lat="40.166300" lon="-4.878950">
        <ele>1669.0</ele>
        <time>2013-07-06T13:21:32Z</time>
      </trkpt>
      <trkpt lat="40.166317" lon="-4.879083">
        <ele>1671.0</ele>
        <time>2013-07-06T13:21:33Z</time>
      </trkpt>
      <trkpt lat="40.166333" lon="-4.879217">
        <ele>1673.0</ele>
        <time>2013-07-06T13:21:34Z</time>
      </trkpt>
      <trkpt lat="40.166367" lon="-4.879333">
        <ele>1675.0</ele>
        <time>2013-07-06T13:21:35Z</time>
      </trkpt>
      <trkpt lat="40.166417" lon="-4.879450">
        <ele>1679.0</ele>
        <time>2013-07-06T13:21:36Z</time>
      </trkpt>
      <trkpt lat="40.166483" lon="-4.879567">
        <ele>1682.0</ele>
        <time>2013-07-06T13:21:37Z</time>
      </trkpt>
      <trkpt lat="40.166567" lon="-4.879667">
        <ele>1686.0</ele>
        <time>2013-07-06T13:21:38Z</time>
      </trkpt>
      <trkpt lat="40.166650" lon="-4.879750">
        <ele>1689.0</ele>
        <time>2013-07-06T13:21:39Z</time>
      </trkpt>
      <trkpt lat="40.166733" lon="-4.879800">
        <ele>1694.0</ele>
        <time>2013-07-06T13:21:40Z</time>
      </trkpt>
      <trkpt lat="40.166900" lon="-4.879783">
        <ele>1700.0</ele>
        <time>2013-07-06T13:21:42Z</time>
      </trkpt>
      <trkpt lat="40.166983" lon="-4.879750">
        <ele>1702.0</ele>
        <time>2013-07-06T13:21:43Z</time>
      </trkpt>
      <trkpt lat="40.167050" lon="-4.879683">
        <ele>1705.0</ele>
        <time>2013-07-06T13:21:44Z</time>
      </trkpt>
      <trkpt lat="40.167117" lon="-4.879617">
        <ele>1708.0</ele>
        <time>2013-07-06T13:21:45Z</time>
      </trkpt>
      <trkpt lat="40.167167" lon="-4.879533">
        <ele>1711.0</ele>
        <time>2013-07-06T13:21:46Z</time>
      </trkpt>
      <trkpt lat="40.167200" lon="-4.879450">
        <ele>1713.0</ele>
        <time>2013-07-06T13:21:47Z</time>
      </trkpt>
      <trkpt lat="40.167200" lon="-4.879350">
        <ele>1715.0</ele>
        <time>2013-07-06T13:21:48Z</time>
      </trkpt>
      <trkpt lat="40.167200" lon="-4.879267">
        <ele>1717.0</ele>
        <time>2013-07-06T13:21:49Z</time>
      </trkpt>
      <trkpt lat="40.167200" lon="-4.879183">
        <ele>1719.0</ele>
        <time>2013-07-06T13:21:50Z</time>
      </trkpt>
      <trkpt lat="40.167167" lon="-4.879100">
        <ele>1720.0</ele>
        <time>2013-07-06T13:21:51Z</time>
      </trkpt>
      <trkpt lat="40.167133" lon="-4.879017">
        <ele>1722.0</ele>
        <time>2013-07-06T13:21:52Z</time>
      </trkpt>
      <trkpt lat="40.167100" lon="-4.878950">
        <ele>1723.0</ele>
        <time>2013-07-06T13:21:53Z</time>
      </trkpt>
      <trkpt lat="40.167033" lon="-4.878900">
        <ele>1725.0</ele>
        <time>2013-07-06T13:21:54Z</time>
      </trkpt>
      <trkpt lat="40.166967" lon="-4.878850">
        <ele>1727.0</ele>
        <time>2013-07-06T13:21:55Z</time>
      </trkpt>
      <trkpt lat="40.166900" lon="-4.878833">
        <ele>1728.0</ele>
        <time>2013-07-06T13:21:56Z</time>
      </trkpt>
      <trkpt lat="40.166817" lon="-4.878817">
        <ele>1730.0</ele>
        <time>2013-07-06T13:21:57Z</time>
      </trkpt>
      <trkpt lat="40.166733" lon="-4.878833">
        <ele>1732.0</ele>
        <time>2013-07-06T13:21:58Z</time>
      </trkpt>
      <trkpt lat="40.166667" lon="-4.878850">
        <ele>1734.0</ele>
        <time>2013-07-06T13:21:59Z</time>
      </trkpt>
      <trkpt lat="40.166583" lon="-4.878900">
        <ele>1735.0</ele>
        <time>2013-07-06T13:22:00Z</time>
      </trkpt>
      <trkpt lat="40.166500" lon="-4.878967">
        <ele>1737.0</ele>
        <time>2013-07-06T13:22:01Z</time>
      </trkpt>
      <trkpt lat="40.166433" lon="-4.879033">
        <ele>1739.0</ele>
        <time>2013-07-06T13:22:02Z</time>
      </trkpt>
      <trkpt lat="40.166367" lon="-4.879117">
        <ele>1740.0</ele>
        <time>2013-07-06T13:22:03Z</time>
      </trkpt>
      <trkpt lat="40.166317" lon="-4.879217">
        <ele>1742.0</ele>
        <time>2013-07-06T13:22:04Z</time>
      </trkpt>
      <trkpt lat="40.166283" lon="-4.879333">
        <ele>1745.0</ele>
        <time>2013-07-06T13:22:05Z</time>
      </trkpt>
      <trkpt lat="40.166250" lon="-4.879450">
        <ele>1748.0</ele>
        <time>2013-07-06T13:22:06Z</time>
      </trkpt>
      <trkpt lat="40.166233" lon="-4.879550">
        <ele>1750.0</ele>
        <time>2013-07-06T13:22:07Z</time>
      </trkpt>
      <trkpt lat="40.166217" lon="-4.879683">
        <ele>1753.0</ele>
        <time>2013-07-06T13:22:08Z</time>
      </trkpt>
      <trkpt lat="40.166217" lon="-4.879817">
        <ele>1755.0</ele>
        <time>2013-07-06T13:22:09Z</time>
      </trkpt>
      <trkpt lat="40.166217" lon="-4.879950">
        <ele>1757.0</ele>
        <time>2013-07-06T13:22:10Z</time>
      </trkpt>
      <trkpt lat="40.166233" lon="-4.880083">
        <ele>1760.0</ele>
        <time>2013-07-06T13:22:11Z</time>
      </trkpt>
      <trkpt lat="40.166250" lon="-4.880217">
        <ele>1763.0</ele>
        <time>2013-07-06T13:22:12Z</time>
      </trkpt>
      <trkpt lat="40.166300" lon="-4.880333">
        <ele>1767.0</ele>
        <time>2013-07-06T13:22:13Z</time>
      </trkpt>
      <trkpt lat="40.166350" lon="-4.880450">
        <ele>1769.0</ele>
        <time>2013-07-06T13:22:14Z</time>
      </trkpt>
      <trkpt lat="40.166433" lon="-4.880567">
        <ele>1771.0</ele>
        <time>2013-07-06T13:22:15Z</time>
      </trkpt>
      <trkpt lat="40.166517" lon="-4.880683">
        <ele>1774.0</ele>
        <time>2013-07-06T13:22:16Z</time>
      </trkpt>
      <trkpt lat="40.166600" lon="-4.880767">
        <ele>1777.0</ele>
        <time>2013-07-06T13:22:17Z</time>
      </trkpt>
      <trkpt lat="40.166683" lon="-4.880833">
        <ele>1781.0</ele>
        <time>2013-07-06T13:22:18Z</time>
      </trkpt>
      <trkpt lat="40.166867" lon="-4.880950">
        <ele>1786.0</ele>
        <time>2013-07-06T13:22:20Z</time>
      </trkpt>
      <trkpt lat="40.166967" lon="-4.881017">
        <ele>1788.0</ele>
        <time>2013-07-06T13:22:21Z</time>
      </trkpt>
      <trkpt lat="40.167067" lon="-4.881100">
        <ele>1789.0</ele>
        <time>2013-07-06T13:22:22Z</time>
      </trkpt>
      <trkpt lat="40.167167" lon="-4.881150">
        <ele>1791.0</ele>
        <time>2013-07-06T13:22:23Z</time>
      </trkpt>
      <trkpt lat="40.167267" lon="-4.881167">
        <ele>1794.0</ele>
        <time>2013-07-06T13:22:24Z</time>
      </trkpt>
      <trkpt lat="40.167350" lon="-4.881133">
        <ele>1797.0</ele>
        <time>2013-07-06T13:22:25Z</time>
      </trkpt>
      <trkpt lat="40.167417" lon="-4.881083">
        <ele>1799.0</ele>
        <time>2013-07-06T13:22:26Z</time>
      </trkpt>
      <trkpt lat="40.167467" lon="-4.881033">
        <ele>1802.0</ele>
        <time>2013-07-06T13:22:27Z</time>
      </trkpt>
      <trkpt lat="40.167517" lon="-4.880967">
        <ele>1805.0</ele>
        <time>2013-07-06T13:22:28Z</time>
      </trkpt>
      <trkpt lat="40.167567" lon="-4.880833">
        <ele>1810.0</ele>
        <time>2013-07-06T13:22:30Z</time>
      </trkpt>
      <trkpt lat="40.167583" lon="-4.880733">
        <ele>1813.0</ele>
        <time>2013-07-06T13:22:31Z</time>
      </trkpt>
      <trkpt lat="40.167567" lon="-4.880633">
        <ele>1814.0</ele>
        <time>2013-07-06T13:22:32Z</time>
      </trkpt>
      <trkpt lat="40.167550" lon="-4.880533">
        <ele>1815.0</ele>
        <time>2013-07-06T13:22:33Z</time>
      </trkpt>
      <trkpt lat="40.167517" lon="-4.880433">
        <ele>1817.0</ele>
        <time>2013-07-06T13:22:34Z</time>
      </trkpt>
      <trkpt lat="40.167483" lon="-4.880367">
        <ele>1819.0</ele>
        <time>2013-07-06T13:22:35Z</time>
      </trkpt>
      <trkpt lat="40.167450" lon="-4.880317">
        <ele>1822.0</ele>
        <time>2013-07-06T13:22:36Z</time>
      </trkpt>
      <trkpt lat="40.167417" lon="-4.880267">
        <ele>1824.0</ele>
        <time>2013-07-06T13:22:37Z</time>
      </trkpt>
      <trkpt lat="40.167383" lon="-4.880233">
        <ele>1826.0</ele>
        <time>2013-07-06T13:22:38Z</time>
      </trkpt>
      <trkpt lat="40.167317" lon="-4.880200">
        <ele>1826.0</ele>
        <time>2013-07-06T13:22:39Z</time>
      </trkpt>
      <trkpt lat="40.167233" lon="-4.880167">
        <ele>1826.0</ele>
        <time>2013-07-06T13:22:40Z</time>
      </trkpt>
      <trkpt lat="40.167150" lon="-4.880150">
        <ele>1826.0</ele>
        <time>2013-07-06T13:22:41Z</time>
      </trkpt>
      <trkpt lat="40.167083" lon="-4.880167">
        <ele>1827.0</ele>
        <time>2013-07-06T13:22:42Z</time>
      </trkpt>
      <trkpt lat="40.167017" lon="-4.880183">
        <ele>1829.0</ele>
        <time>2013-07-06T13:22:43Z</time>
      </trkpt>
      <trkpt lat="40.166950" lon="-4.880233">
        <ele>1830.0</ele>
        <time>2013-07-06T13:22:44Z</time>
      </trkpt>
      <trkpt lat="40.166867" lon="-4.880283">
        <ele>1831.0</ele>
        <time>2013-07-06T13:22:45Z</time>
      </trkpt>
      <trkpt lat="40.166800" lon="-4.880350">
        <ele>1832.0</ele>
        <time>2013-07-06T13:22:46Z</time>
      </trkpt>
      <trkpt lat="40.166733" lon="-4.880433">
        <ele>1833.0</ele>
        <time>2013-07-06T13:22:47Z</time>
      </trkpt>
      <trkpt lat="40.166683" lon="-4.880533">
        <ele>1835.0</ele>
        <time>2013-07-06T13:22:48Z</time>
      </trkpt>
      <trkpt lat="40.166650" lon="-4.880633">
        <ele>1838.0</ele>
        <time>2013-07-06T13:22:49Z</time>
      </trkpt>
      <trkpt lat="40.166617" lon="-4.880750">
        <ele>1840.0</ele>
        <time>2013-07-06T13:22:50Z</time>
      </trkpt>
      <trkpt lat="40.166600" lon="-4.880883">
        <ele>1841.0</ele>
        <time>2013-07-06T13:22:51Z</time>
      </trkpt>
      <trkpt lat="40.166600" lon="-4.881017">
        <ele>1843.0</ele>
        <time>2013-07-06T13:22:52Z</time>
      </trkpt>
      <trkpt lat="40.166600" lon="-4.881150">
        <ele>1845.0</ele>
        <time>2013-07-06T13:22:53Z</time>
      </trkpt>
      <trkpt lat="40.166633" lon="-4.881300">
        <ele>1847.0</ele>
        <time>2013-07-06T13:22:54Z</time>
      </trkpt>
      <trkpt lat="40.166683" lon="-4.881433">
        <ele>1849.0</ele>
        <time>2013-07-06T13:22:55Z</time>
      </trkpt>
      <trkpt lat="40.166733" lon="-4.881550">
        <ele>1851.0</ele>
        <time>2013-07-06T13:22:56Z</time>
      </trkpt>
      <trkpt lat="40.166800" lon="-4.881667">
        <ele>1854.0</ele>
        <time>2013-07-06T13:22:57Z</time>
      </trkpt>
      <trkpt lat="40.166867" lon="-4.881783">
        <ele>1857.0</ele>
        <time>2013-07-06T13:22:58Z</time>
      </trkpt>
      <trkpt lat="40.166950" lon="-4.881867">
        <ele>1861.0</ele>
        <time>2013-07-06T13:22:59Z</time>
      </trkpt>
      <trkpt lat="40.167050" lon="-4.881933">
        <ele>1864.0</ele>
        <time>2013-07-06T13:23:00Z</time>
      </trkpt>
      <trkpt lat="40.167133" lon="-4.881983">
        <ele>1866.0</ele>
        <time>2013-07-06T13:23:01Z</time>
      </trkpt>
      <trkpt lat="40.167233" lon="-4.882017">
        <ele>1867.0</ele>
        <time>2013-07-06T13:23:02Z</time>
      </trkpt>
      <trkpt lat="40.167317" lon="-4.882033">
        <ele>1870.0</ele>
        <time>2013-07-06T13:23:03Z</time>
      </trkpt>
      <trkpt lat="40.167400" lon="-4.882033">
        <ele>1872.0</ele>
        <time>2013-07-06T13:23:04Z</time>
      </trkpt>
      <trkpt lat="40.167483" lon="-4.882000">
        <ele>1874.0</ele>
        <time>2013-07-06T13:23:05Z</time>
      </trkpt>
      <trkpt lat="40.167550" lon="-4.881950">
        <ele>1876.0</ele>
        <time>2013-07-06T13:23:06Z</time>
      </trkpt>
      <trkpt lat="40.167617" lon="-4.881900">
        <ele>1878.0</ele>
        <time>2013-07-06T13:23:07Z</time>
      </trkpt>
      <trkpt lat="40.167717" lon="-4.881750">
        <ele>1882.0</ele>
        <time>2013-07-06T13:23:09Z</time>
      </trkpt>
      <trkpt lat="40.167750" lon="-4.881667">
        <ele>1883.0</ele>
        <time>2013-07-06T13:23:10Z</time>
      </trkpt>
      <trkpt lat="40.167767" lon="-4.881583">
        <ele>1885.0</ele>
        <time>2013-07-06T13:23:11Z</time>
      </trkpt>
      <trkpt lat="40.167767" lon="-4.881417">
        <ele>1888.0</ele>
        <time>2013-07-06T13:23:13Z</time>
      </trkpt>
      <trkpt lat="40.167750" lon="-4.881333">
        <ele>1889.0</ele>
        <time>2013-07-06T13:23:14Z</time>
      </trkpt>
      <trkpt lat="40.167733" lon="-4.881267">
        <ele>1890.0</ele>
        <time>2013-07-06T13:23:15Z</time>
      </trkpt>
      <trkpt lat="40.167700" lon="-4.881217">
        <ele>1891.0</ele>
        <time>2013-07-06T13:23:16Z</time>
      </trkpt>
      <trkpt lat="40.167650" lon="-4.881167">
        <ele>1891.0</ele>
        <time>2013-07-06T13:23:17Z</time>
      </trkpt>
      <trkpt lat="40.167583" lon="-4.881133">
        <ele>1891.0</ele>
        <time>2013-07-06T13:23:18Z</time>
      </trkpt>
      <trkpt lat="40.167517" lon="-4.881117">
        <ele>1891.0</ele>
        <time>2013-07-06T13:23:19Z</time>
      </trkpt>
      <trkpt lat="40.167450" lon="-4.881100">
        <ele>1891.0</ele>
        <time>2013-07-06T13:23:20Z</time>
      </trkpt>
      <trkpt lat="40.167383" lon="-4.881100">
        <ele>1891.0</ele>
        <time>2013-07-06T13:23:21Z</time>
      </trkpt>
      <trkpt lat="40.167317" lon="-4.881100">
        <ele>1891.0</ele>
        <time>2013-07-06T13:23:22Z</time>
      </trkpt>
      <trkpt lat="40.167233" lon="-4.881100">
        <ele>1892.0</ele>
        <time>2013-07-06T13:23:23Z</time>
      </trkpt>
      <trkpt lat="40.167167" lon="-4.881100">
        <ele>1893.0</ele>
        <time>2013-07-06T13:23:24Z</time>
      </trkpt>
      <trkpt lat="40.167100" lon="-4.881133">
        <ele>1894.0</ele>
        <time>2013-07-06T13:23:25Z</time>
      </trkpt>
      <trkpt lat="40.167050" lon="-4.881183">
        <ele>1895.0</ele>
        <time>2013-07-06T13:23:26Z</time>
      </trkpt>
      <trkpt lat="40.166983" lon="-4.881250">
        <ele>1895.0</ele>
        <time>2013-07-06T13:23:27Z</time>
      </trkpt>
      <trkpt lat="40.166917" lon="-4.881333">
        <ele>1895.0</ele>
        <time>2013-07-06T13:23:28Z</time>
      </trkpt>
      <trkpt lat="40.166817" lon="-4.881533">
        <ele>1899.0</ele>
        <time>2013-07-06T13:23:30Z</time>
      </trkpt>
      <trkpt lat="40.166767" lon="-4.881650">
        <ele>1902.0</ele>
        <time>2013-07-06T13:23:31Z</time>
      </trkpt>
      <trkpt lat="40.166750" lon="-4.881767">
        <ele>1905.0</ele>
        <time>2013-07-06T13:23:32Z</time>
      </trkpt>
      <trkpt lat="40.166733" lon="-4.881883">
        <ele>1907.0</ele>
        <time>2013-07-06T13:23:33Z</time>
      </trkpt>
      <trkpt lat="40.166733" lon="-4.882000">
        <ele>1909.0</ele>
        <time>2013-07-06T13:23:34Z</time>
      </trkpt>
      <trkpt lat="40.166733" lon="-4.882133">
        <ele>1911.0</ele>
        <time>2013-07-06T13:23:35Z</time>
      </trkpt>
      <trkpt lat="40.166767" lon="-4.882250">
        <ele>1913.0</ele>
        <time>2013-07-06T13:23:36Z</time>
      </trkpt>
      <trkpt lat="40.166800" lon="-4.882367">
        <ele>1914.0</ele>
        <time>2013-07-06T13:23:37Z</time>
      </trkpt>
      <trkpt lat="40.166867" lon="-4.882483">
        <ele>1916.0</ele>
        <time>2013-07-06T13:23:38Z</time>
      </trkpt>
      <trkpt lat="40.166933" lon="-4.882583">
        <ele>1918.0</ele>
        <time>2013-07-06T13:23:39Z</time>
      </trkpt>
      <trkpt lat="40.167033" lon="-4.882683">
        <ele>1920.0</ele>
        <time>2013-07-06T13:23:40Z</time>
      </trkpt>
      <trkpt lat="40.167117" lon="-4.882750">
        <ele>1920.0</ele>
        <time>2013-07-06T13:23:41Z</time>
      </trkpt>
      <trkpt lat="40.167217" lon="-4.882800">
        <ele>1922.0</ele>
        <time>2013-07-06T13:23:42Z</time>
      </trkpt>
      <trkpt lat="40.167300" lon="-4.882833">
        <ele>1924.0</ele>
        <time>2013-07-06T13:23:43Z</time>
      </trkpt>
      <trkpt lat="40.167400" lon="-4.882850">
        <ele>1926.0</ele>
        <time>2013-07-06T13:23:44Z</time>
      </trkpt>
      <trkpt lat="40.167567" lon="-4.882833">
        <ele>1929.0</ele>
        <time>2013-07-06T13:23:46Z</time>
      </trkpt>
      <trkpt lat="40.167633" lon="-4.882800">
        <ele>1931.0</ele>
        <time>2013-07-06T13:23:47Z</time>
      </trkpt>
      <trkpt lat="40.167700" lon="-4.882733">
        <ele>1932.0</ele>
        <time>2013-07-06T13:23:48Z</time>
      </trkpt>
      <trkpt lat="40.167750" lon="-4.882667">
        <ele>1934.0</ele>
        <time>2013-07-06T13:23:49Z</time>
      </trkpt>
      <trkpt lat="40.167783" lon="-4.882567">
        <ele>1935.0</ele>
        <time>2013-07-06T13:23:50Z</time>
      </trkpt>
      <trkpt lat="40.167783" lon="-4.882483">
        <ele>1936.0</ele>
        <time>2013-07-06T13:23:51Z</time>
      </trkpt>
      <trkpt lat="40.167783" lon="-4.882383">
        <ele>1937.0</ele>
        <time>2013-07-06T13:23:52Z</time>
      </trkpt>
      <trkpt lat="40.167750" lon="-4.882317">
        <ele>1939.0</ele>
        <time>2013-07-06T13:23:53Z</time>
      </trkpt>
      <trkpt lat="40.167717" lon="-4.882250">
        <ele>1940.0</ele>
        <time>2013-07-06T13:23:54Z</time>
      </trkpt>
      <trkpt lat="40.167683" lon="-4.882183">
        <ele>1940.0</ele>
        <time>2013-07-06T13:23:55Z</time>
      </trkpt>
      <trkpt lat="40.167633" lon="-4.882100">
        <ele>1940.0</ele>
        <time>2013-07-06T13:23:56Z</time>
      </trkpt>
      <trkpt lat="40.167567" lon="-4.882050">
        <ele>1940.0</ele>
        <time>2013-07-06T13:23:57Z</time>
      </trkpt>
      <trkpt lat="40.167500" lon="-4.882000">
        <ele>1940.0</ele>
        <time>2013-07-06T13:23:58Z</time>
      </trkpt>
      <trkpt lat="40.167433" lon="-4.881983">
        <ele>1941.0</ele>
        <time>2013-07-06T13:23:59Z</time>
      </trkpt>
      <trkpt lat="40.167350" lon="-4.881967">
        <ele>1943.0</ele>
        <time>2013-07-06T13:24:00Z</time>
      </trkpt>
      <trkpt lat="40.167283" lon="-4.881967">
        <ele>1945.0</ele>
        <time>2013-07-06T13:24:01Z</time>
      </trkpt>
      <trkpt lat="40.167217" lon="-4.881983">
        <ele>1946.0</ele>
        <time>2013-07-06T13:24:02Z</time>
      </trkpt>
      <trkpt lat="40.167133" lon="-4.882000">
        <ele>1947.0</ele>
        <time>2013-07-06T13:24:03Z</time>
      </trkpt>
      <trkpt lat="40.167050" lon="-4.882050">
        <ele>1946.0</ele>
        <time>2013-07-06T13:24:04Z</time>
      </trkpt>
      <trkpt lat="40.166983" lon="-4.882117">
        <ele>1947.0</ele>
        <time>2013-07-06T13:24:05Z</time>
      </trkpt>
      <trkpt lat="40.166933" lon="-4.882183">
        <ele>1948.0</ele>
        <time>2013-07-06T13:24:06Z</time>
      </trkpt>
      <trkpt lat="40.166900" lon="-4.882267">
        <ele>1950.0</ele>
        <time>2013-07-06T13:24:07Z</time>
      </trkpt>
      <trkpt lat="40.166867" lon="-4.882350">
        <ele>1950.0</ele>
        <time>2013-07-06T13:24:08Z</time>
      </trkpt>
      <trkpt lat="40.166817" lon="-4.882433">
        <ele>1950.0</ele>
        <time>2013-07-06T13:24:09Z</time>
      </trkpt>
      <trkpt lat="40.166767" lon="-4.882550">
        <ele>1949.0</ele>
        <time>2013-07-06T13:24:10Z</time>
      </trkpt>
      <trkpt lat="40.166733" lon="-4.882683">
        <ele>1949.0</ele>
        <time>2013-07-06T13:24:11Z</time>
      </trkpt>
      <trkpt lat="40.166700" lon="-4.882800">
        <ele>1949.0</ele>
        <time>2013-07-06T13:24:12Z</time>
      </trkpt>
      <trkpt lat="40.166633" lon="-4.883033">
        <ele>1951.0</ele>
        <time>2013-07-06T13:24:14Z</time>
      </trkpt>
      <trkpt lat="40.166600" lon="-4.883150">
        <ele>1952.0</ele>
        <time>2013-07-06T13:24:15Z</time>
      </trkpt>
      <trkpt lat="40.166583" lon="-4.883267">
        <ele>1953.0</ele>
        <time>2013-07-06T13:24:16Z</time>
      </trkpt>
      <trkpt lat="40.166567" lon="-4.883400">
        <ele>1954.0</ele>
        <time>2013-07-06T13:24:17Z</time>
      </trkpt>
      <trkpt lat="40.166550" lon="-4.883533">
        <ele>1955.0</ele>
        <time>2013-07-06T13:24:18Z</time>
      </trkpt>
      <trkpt lat="40.166550" lon="-4.883667">
        <ele>1956.0</ele>
        <time>2013-07-06T13:24:19Z</time>
      </trkpt>
      <trkpt lat="40.166533" lon="-4.883783">
        <ele>1957.0</ele>
        <time>2013-07-06T13:24:20Z</time>
      </trkpt>
      <trkpt lat="40.166533" lon="-4.883900">
        <ele>1958.0</ele>
        <time>2013-07-06T13:24:21Z</time>
      </trkpt>
      <trkpt lat="40.166533" lon="-4.884033">
        <ele>1959.0</ele>
        <time>2013-07-06T13:24:22Z</time>
      </trkpt>
      <trkpt lat="40.166533" lon="-4.884167">
        <ele>1960.0</ele>
        <time>2013-07-06T13:24:23Z</time>
      </trkpt>
      <trkpt lat="40.166567" lon="-4.884300">
        <ele>1962.0</ele>
        <time>2013-07-06T13:24:24Z</time>
      </trkpt>
      <trkpt lat="40.166617" lon="-4.884417">
        <ele>1965.0</ele>
        <time>2013-07-06T13:24:25Z</time>
      </trkpt>
      <trkpt lat="40.166667" lon="-4.884517">
        <ele>1968.0</ele>
        <time>2013-07-06T13:24:26Z</time>
      </trkpt>
      <trkpt lat="40.166733" lon="-4.884600">
        <ele>1970.0</ele>
        <time>2013-07-06T13:24:27Z</time>
      </trkpt>
      <trkpt lat="40.166817" lon="-4.884717">
        <ele>1971.0</ele>
        <time>2013-07-06T13:24:28Z</time>
      </trkpt>
      <trkpt lat="40.166900" lon="-4.884817">
        <ele>1974.0</ele>
        <time>2013-07-06T13:24:29Z</time>
      </trkpt>
      <trkpt lat="40.167000" lon="-4.884900">
        <ele>1976.0</ele>
        <time>2013-07-06T13:24:30Z</time>
      </trkpt>
      <trkpt lat="40.167100" lon="-4.884933">
        <ele>1977.0</ele>
        <time>2013-07-06T13:24:31Z</time>
      </trkpt>
      <trkpt lat="40.167267" lon="-4.884917">
        <ele>1979.0</ele>
        <time>2013-07-06T13:24:33Z</time>
      </trkpt>
      <trkpt lat="40.167333" lon="-4.884867">
        <ele>1979.0</ele>
        <time>2013-07-06T13:24:34Z</time>
      </trkpt>
      <trkpt lat="40.167367" lon="-4.884800">
        <ele>1980.0</ele>
        <time>2013-07-06T13:24:35Z</time>
      </trkpt>
      <trkpt lat="40.167400" lon="-4.884733">
        <ele>1980.0</ele>
        <time>2013-07-06T13:24:36Z</time>
      </trkpt>
      <trkpt lat="40.167417" lon="-4.884633">
        <ele>1980.0</ele>
        <time>2013-07-06T13:24:37Z</time>
      </trkpt>
      <trkpt lat="40.167400" lon="-4.884533">
        <ele>1979.0</ele>
        <time>2013-07-06T13:24:38Z</time>
      </trkpt>
      <trkpt lat="40.167383" lon="-4.884450">
        <ele>1979.0</ele>
        <time>2013-07-06T13:24:39Z</time>
      </trkpt>
      <trkpt lat="40.167333" lon="-4.884383">
        <ele>1980.0</ele>
        <time>2013-07-06T13:24:40Z</time>
      </trkpt>
      <trkpt lat="40.167300" lon="-4.884350">
        <ele>1982.0</ele>
        <time>2013-07-06T13:24:41Z</time>
      </trkpt>
      <trkpt lat="40.167250" lon="-4.884300">
        <ele>1983.0</ele>
        <time>2013-07-06T13:24:42Z</time>
      </trkpt>
      <trkpt lat="40.167183" lon="-4.884267">
        <ele>1984.0</ele>
        <time>2013-07-06T13:24:43Z</time>
      </trkpt>
      <trkpt lat="40.167117" lon="-4.884217">
        <ele>1984.0</ele>
        <time>2013-07-06T13:24:44Z</time>
      </trkpt>
      <trkpt lat="40.167017" lon="-4.884200">
        <ele>1985.0</ele>
        <time>2013-07-06T13:24:45Z</time>
      </trkpt>
      <trkpt lat="40.166933" lon="-4.884233">
        <ele>1986.0</ele>
        <time>2013-07-06T13:24:46Z</time>
      </trkpt>
      <trkpt lat="40.166883" lon="-4.884333">
        <ele>1987.0</ele>
        <time>2013-07-06T13:24:47Z</time>
      </trkpt>
      <trkpt lat="40.166850" lon="-4.884433">
        <ele>1988.0</ele>
        <time>2013-07-06T13:24:48Z</time>
      </trkpt>
      <trkpt lat="40.166850" lon="-4.884567">
        <ele>1988.0</ele>
        <time>2013-07-06T13:24:49Z</time>
      </trkpt>
      <trkpt lat="40.166867" lon="-4.884683">
        <ele>1989.0</ele>
        <time>2013-07-06T13:24:50Z</time>
      </trkpt>
      <trkpt lat="40.166883" lon="-4.884817">
        <ele>1989.0</ele>
        <time>2013-07-06T13:24:51Z</time>
      </trkpt>
      <trkpt lat="40.166917" lon="-4.884933">
        <ele>1990.0</ele>
        <time>2013-07-06T13:24:52Z</time>
      </trkpt>
      <trkpt lat="40.166950" lon="-4.885050">
        <ele>1991.0</ele>
        <time>2013-07-06T13:24:53Z</time>
      </trkpt>
      <trkpt lat="40.167000" lon="-4.885150">
        <ele>1992.0</ele>
        <time>2013-07-06T13:24:54Z</time>
      </trkpt>
      <trkpt lat="40.167083" lon="-4.885250">
        <ele>1994.0</ele>
        <time>2013-07-06T13:24:55Z</time>
      </trkpt>
      <trkpt lat="40.167167" lon="-4.885300">
        <ele>1995.0</ele>
        <time>2013-07-06T13:24:56Z</time>
      </trkpt>
      <trkpt lat="40.167250" lon="-4.885333">
        <ele>1995.0</ele>
        <time>2013-07-06T13:24:57Z</time>
      </trkpt>
      <trkpt lat="40.167333" lon="-4.885333">
        <ele>1996.0</ele>
        <time>2013-07-06T13:24:58Z</time>
      </trkpt>
      <trkpt lat="40.167417" lon="-4.885317">
        <ele>1997.0</ele>
        <time>2013-07-06T13:24:59Z</time>
      </trkpt>
      <trkpt lat="40.167483" lon="-4.885300">
        <ele>1998.0</ele>
        <time>2013-07-06T13:25:00Z</time>
      </trkpt>
      <trkpt lat="40.167567" lon="-4.885250">
        <ele>1998.0</ele>
        <time>2013-07-06T13:25:01Z</time>
      </trkpt>
      <trkpt lat="40.167633" lon="-4.885200">
        <ele>1999.0</ele>
        <time>2013-07-06T13:25:02Z</time>
      </trkpt>
      <trkpt lat="40.167683" lon="-4.885133">
        <ele>1999.0</ele>
        <time>2013-07-06T13:25:03Z</time>
      </trkpt>
      <trkpt lat="40.167717" lon="-4.885050">
        <ele>1999.0</ele>
        <time>2013-07-06T13:25:04Z</time>
      </trkpt>
      <trkpt lat="40.167717" lon="-4.884967">
        <ele>1999.0</ele>
        <time>2013-07-06T13:25:05Z</time>
      </trkpt>
      <trkpt lat="40.167717" lon="-4.884883">
        <ele>1999.0</ele>
        <time>2013-07-06T13:25:06Z</time>
      </trkpt>
      <trkpt lat="40.167683" lon="-4.884800">
        <ele>1999.0</ele>
        <time>2013-07-06T13:25:07Z</time>
      </trkpt>
      <trkpt lat="40.167633" lon="-4.884717">
        <ele>2000.0</ele>
        <time>2013-07-06T13:25:08Z</time>
      </trkpt>
      <trkpt lat="40.167583" lon="-4.884650">
        <ele>2000.0</ele>
        <time>2013-07-06T13:25:09Z</time>
      </trkpt>
      <trkpt lat="40.167533" lon="-4.884617">
        <ele>2001.0</ele>
        <time>2013-07-06T13:25:10Z</time>
      </trkpt>
      <trkpt lat="40.167467" lon="-4.884567">
        <ele>2001.0</ele>
        <time>2013-07-06T13:25:11Z</time>
      </trkpt>
      <trkpt lat="40.167400" lon="-4.884550">
        <ele>2001.0</ele>
        <time>2013-07-06T13:25:12Z</time>
      </trkpt>
      <trkpt lat="40.167317" lon="-4.884550">
        <ele>2001.0</ele>
        <time>2013-07-06T13:25:13Z</time>
      </trkpt>
      <trkpt lat="40.167233" lon="-4.884550">
        <ele>2001.0</ele>
        <time>2013-07-06T13:25:14Z</time>
      </trkpt>
      <trkpt lat="40.167167" lon="-4.884583">
        <ele>2001.0</ele>
        <time>2013-07-06T13:25:15Z</time>
      </trkpt>
      <trkpt lat="40.167100" lon="-4.884633">
        <ele>2002.0</ele>
        <time>2013-07-06T13:25:16Z</time>
      </trkpt>
      <trkpt lat="40.167033" lon="-4.884717">
        <ele>2002.0</ele>
        <time>2013-07-06T13:25:17Z</time>
      </trkpt>
      <trkpt lat="40.166967" lon="-4.884800">
        <ele>2002.0</ele>
        <time>2013-07-06T13:25:18Z</time>
      </trkpt>
      <trkpt lat="40.166917" lon="-4.884900">
        <ele>2003.0</ele>
        <time>2013-07-06T13:25:19Z</time>
      </trkpt>
      <trkpt lat="40.166883" lon="-4.885000">
        <ele>2004.0</ele>
        <time>2013-07-06T13:25:20Z</time>
      </trkpt>
      <trkpt lat="40.166850" lon="-4.885100">
        <ele>2005.0</ele>
        <time>2013-07-06T13:25:21Z</time>
      </trkpt>
      <trkpt lat="40.166817" lon="-4.885217">
        <ele>2005.0</ele>
        <time>2013-07-06T13:25:22Z</time>
      </trkpt>
      <trkpt lat="40.166817" lon="-4.885333">
        <ele>2006.0</ele>
        <time>2013-07-06T13:25:23Z</time>
      </trkpt>
      <trkpt lat="40.166800" lon="-4.885467">
        <ele>2006.0</ele>
        <time>2013-07-06T13:25:24Z</time>
      </trkpt>
      <trkpt lat="40.166817" lon="-4.885583">
        <ele>2007.0</ele>
        <time>2013-07-06T13:25:25Z</time>
      </trkpt>
      <trkpt lat="40.166817" lon="-4.885717">
        <ele>2007.0</ele>
        <time>2013-07-06T13:25:26Z</time>
      </trkpt>
      <trkpt lat="40.166850" lon="-4.885850">
        <ele>2008.0</ele>
        <time>2013-07-06T13:25:27Z</time>
      </trkpt>
      <trkpt lat="40.166900" lon="-4.885950">
        <ele>2008.0</ele>
        <time>2013-07-06T13:25:28Z</time>
      </trkpt>
      <trkpt lat="40.166967" lon="-4.886050">
        <ele>2008.0</ele>
        <time>2013-07-06T13:25:29Z</time>
      </trkpt>
      <trkpt lat="40.167050" lon="-4.886133">
        <ele>2009.0</ele>
        <time>2013-07-06T13:25:30Z</time>
      </trkpt>
      <trkpt lat="40.167133" lon="-4.886183">
        <ele>2009.0</ele>
        <time>2013-07-06T13:25:31Z</time>
      </trkpt>
      <trkpt lat="40.167217" lon="-4.886217">
        <ele>2010.0</ele>
        <time>2013-07-06T13:25:32Z</time>
      </trkpt>
      <trkpt lat="40.167383" lon="-4.886200">
        <ele>2011.0</ele>
        <time>2013-07-06T13:25:34Z</time>
      </trkpt>
      <trkpt lat="40.167467" lon="-4.886150">
        <ele>2011.0</ele>
        <time>2013-07-06T13:25:35Z</time>
      </trkpt>
      <trkpt lat="40.167517" lon="-4.886067">
        <ele>2010.0</ele>
        <time>2013-07-06T13:25:36Z</time>
      </trkpt>
      <trkpt lat="40.167567" lon="-4.885983">
        <ele>2010.0</ele>
        <time>2013-07-06T13:25:37Z</time>
      </trkpt>
      <trkpt lat="40.167600" lon="-4.885900">
        <ele>2011.0</ele>
        <time>2013-07-06T13:25:38Z</time>
      </trkpt>
      <trkpt lat="40.167617" lon="-4.885817">
        <ele>2012.0</ele>
        <time>2013-07-06T13:25:39Z</time>
      </trkpt>
      <trkpt lat="40.167600" lon="-4.885733">
        <ele>2013.0</ele>
        <time>2013-07-06T13:25:40Z</time>
      </trkpt>
      <trkpt lat="40.167583" lon="-4.885633">
        <ele>2012.0</ele>
        <time>2013-07-06T13:25:41Z</time>
      </trkpt>
      <trkpt lat="40.167567" lon="-4.885533">
        <ele>2011.0</ele>
        <time>2013-07-06T13:25:42Z</time>
      </trkpt>
      <trkpt lat="40.167533" lon="-4.885433">
        <ele>2012.0</ele>
        <time>2013-07-06T13:25:43Z</time>
      </trkpt>
      <trkpt lat="40.167500" lon="-4.885367">
        <ele>2013.0</ele>
        <time>2013-07-06T13:25:44Z</time>
      </trkpt>
      <trkpt lat="40.167450" lon="-4.885317">
        <ele>2014.0</ele>
        <time>2013-07-06T13:25:45Z</time>
      </trkpt>
      <trkpt lat="40.167400" lon="-4.885283">
        <ele>2015.0</ele>
        <time>2013-07-06T13:25:46Z</time>
      </trkpt>
      <trkpt lat="40.167333" lon="-4.885250">
        <ele>2015.0</ele>
        <time>2013-07-06T13:25:47Z</time>
      </trkpt>
      <trkpt lat="40.167233" lon="-4.885233">
        <ele>2015.0</ele>
        <time>2013-07-06T13:25:48Z</time>
      </trkpt>
      <trkpt lat="40.167150" lon="-4.885217">
        <ele>2015.0</ele>
        <time>2013-07-06T13:25:49Z</time>
      </trkpt>
      <trkpt lat="40.167067" lon="-4.885233">
        <ele>2016.0</ele>
        <time>2013-07-06T13:25:50Z</time>
      </trkpt>
      <trkpt lat="40.166983" lon="-4.885267">
        <ele>2018.0</ele>
        <time>2013-07-06T13:25:51Z</time>
      </trkpt>
      <trkpt lat="40.166917" lon="-4.885317">
        <ele>2019.0</ele>
        <time>2013-07-06T13:25:52Z</time>
      </trkpt>
      <trkpt lat="40.166850" lon="-4.885367">
        <ele>2019.0</ele>
        <time>2013-07-06T13:25:53Z</time>
      </trkpt>
      <trkpt lat="40.166783" lon="-4.885433">
        <ele>2018.0</ele>
        <time>2013-07-06T13:25:54Z</time>
      </trkpt>
      <trkpt lat="40.166700" lon="-4.885500">
        <ele>2017.0</ele>
        <time>2013-07-06T13:25:55Z</time>
      </trkpt>
      <trkpt lat="40.166617" lon="-4.885567">
        <ele>2017.0</ele>
        <time>2013-07-06T13:25:56Z</time>
      </trkpt>
      <trkpt lat="40.166533" lon="-4.885633">
        <ele>2017.0</ele>
        <time>2013-07-06T13:25:57Z</time>
      </trkpt>
      <trkpt lat="40.166467" lon="-4.885717">
        <ele>2018.0</ele>
        <time>2013-07-06T13:25:58Z</time>
      </trkpt>
      <trkpt lat="40.166400" lon="-4.885800">
        <ele>2018.0</ele>
        <time>2013-07-06T13:25:59Z</time>
      </trkpt>
      <trkpt lat="40.166350" lon="-4.885900">
        <ele>2018.0</ele>
        <time>2013-07-06T13:26:00Z</time>
      </trkpt>
      <trkpt lat="40.166283" lon="-4.886000">
        <ele>2018.0</ele>
        <time>2013-07-06T13:26:01Z</time>
      </trkpt>
      <trkpt lat="40.166233" lon="-4.886100">
        <ele>2017.0</ele>
        <time>2013-07-06T13:26:02Z</time>
      </trkpt>
      <trkpt lat="40.166183" lon="-4.886217">
        <ele>2016.0</ele>
        <time>2013-07-06T13:26:03Z</time>
      </trkpt>
      <trkpt lat="40.166133" lon="-4.886317">
        <ele>2015.0</ele>
        <time>2013-07-06T13:26:04Z</time>
      </trkpt>
      <trkpt lat="40.166100" lon="-4.886433">
        <ele>2014.0</ele>
        <time>2013-07-06T13:26:05Z</time>
      </trkpt>
      <trkpt lat="40.166050" lon="-4.886550">
        <ele>2013.0</ele>
        <time>2013-07-06T13:26:06Z</time>
      </trkpt>
      <trkpt lat="40.166000" lon="-4.886683">
        <ele>2011.0</ele>
        <time>2013-07-06T13:26:07Z</time>
      </trkpt>
      <trkpt lat="40.165950" lon="-4.886800">
        <ele>2010.0</ele>
        <time>2013-07-06T13:26:08Z</time>
      </trkpt>
      <trkpt lat="40.165917" lon="-4.886900">
        <ele>2009.0</ele>
        <time>2013-07-06T13:26:09Z</time>
      </trkpt>
      <trkpt lat="40.165883" lon="-4.887000">
        <ele>2008.0</ele>
        <time>2013-07-06T13:26:10Z</time>
      </trkpt>
      <trkpt lat="40.165850" lon="-4.887117">
        <ele>2006.0</ele>
        <time>2013-07-06T13:26:11Z</time>
      </trkpt>
      <trkpt lat="40.165817" lon="-4.887250">
        <ele>2003.0</ele>
        <time>2013-07-06T13:26:12Z</time>
      </trkpt>
      <trkpt lat="40.165783" lon="-4.887383">
        <ele>2000.0</ele>
        <time>2013-07-06T13:26:13Z</time>
      </trkpt>
      <trkpt lat="40.165733" lon="-4.887517">
        <ele>1996.0</ele>
        <time>2013-07-06T13:26:14Z</time>
      </trkpt>
      <trkpt lat="40.165683" lon="-4.887667">
        <ele>1993.0</ele>
        <time>2013-07-06T13:26:15Z</time>
      </trkpt>
      <trkpt lat="40.165633" lon="-4.887800">
        <ele>1992.0</ele>
        <time>2013-07-06T13:26:16Z</time>
      </trkpt>
      <trkpt lat="40.165600" lon="-4.887900">
        <ele>1991.0</ele>
        <time>2013-07-06T13:26:17Z</time>
      </trkpt>
      <trkpt lat="40.165550" lon="-4.888000">
        <ele>1990.0</ele>
        <time>2013-07-06T13:26:18Z</time>
      </trkpt>
      <trkpt lat="40.165500" lon="-4.888117">
        <ele>1988.0</ele>
        <time>2013-07-06T13:26:19Z</time>
      </trkpt>
      <trkpt lat="40.165433" lon="-4.888217">
        <ele>1986.0</ele>
        <time>2013-07-06T13:26:20Z</time>
      </trkpt>
      <trkpt lat="40.165383" lon="-4.888317">
        <ele>1982.0</ele>
        <time>2013-07-06T13:26:21Z</time>
      </trkpt>
      <trkpt lat="40.165317" lon="-4.888433">
        <ele>1979.0</ele>
        <time>2013-07-06T13:26:22Z</time>
      </trkpt>
      <trkpt lat="40.165250" lon="-4.888533">
        <ele>1976.0</ele>
        <time>2013-07-06T13:26:23Z</time>
      </trkpt>
      <trkpt lat="40.165183" lon="-4.888633">
        <ele>1973.0</ele>
        <time>2013-07-06T13:26:24Z</time>
      </trkpt>
      <trkpt lat="40.165117" lon="-4.888733">
        <ele>1971.0</ele>
        <time>2013-07-06T13:26:25Z</time>
      </trkpt>
      <trkpt lat="40.165067" lon="-4.888833">
        <ele>1969.0</ele>
        <time>2013-07-06T13:26:26Z</time>
      </trkpt>
      <trkpt lat="40.165000" lon="-4.888933">
        <ele>1966.0</ele>
        <time>2013-07-06T13:26:27Z</time>
      </trkpt>
      <trkpt lat="40.164933" lon="-4.889050">
        <ele>1964.0</ele>
        <time>2013-07-06T13:26:28Z</time>
      </trkpt>
      <trkpt lat="40.164867" lon="-4.889150">
        <ele>1961.0</ele>
        <time>2013-07-06T13:26:29Z</time>
      </trkpt>
      <trkpt lat="40.164800" lon="-4.889250">
        <ele>1959.0</ele>
        <time>2013-07-06T13:26:30Z</time>
      </trkpt>
      <trkpt lat="40.164733" lon="-4.889333">
        <ele>1957.0</ele>
        <time>2013-07-06T13:26:31Z</time>
      </trkpt>
      <trkpt lat="40.164667" lon="-4.889417">
        <ele>1955.0</ele>
        <time>2013-07-06T13:26:32Z</time>
      </trkpt>
      <trkpt lat="40.164617" lon="-4.889500">
        <ele>1953.0</ele>
        <time>2013-07-06T13:26:33Z</time>
      </trkpt>
      <trkpt lat="40.164533" lon="-4.889600">
        <ele>1951.0</ele>
        <time>2013-07-06T13:26:34Z</time>
      </trkpt>
      <trkpt lat="40.164467" lon="-4.889700">
        <ele>1948.0</ele>
        <time>2013-07-06T13:26:35Z</time>
      </trkpt>
      <trkpt lat="40.164400" lon="-4.889800">
        <ele>1946.0</ele>
        <time>2013-07-06T13:26:36Z</time>
      </trkpt>
      <trkpt lat="40.164350" lon="-4.889900">
        <ele>1945.0</ele>
        <time>2013-07-06T13:26:37Z</time>
      </trkpt>
      <trkpt lat="40.164283" lon="-4.890017">
        <ele>1943.0</ele>
        <time>2013-07-06T13:26:38Z</time>
      </trkpt>
      <trkpt lat="40.164250" lon="-4.890117">
        <ele>1943.0</ele>
        <time>2013-07-06T13:26:39Z</time>
      </trkpt>
      <trkpt lat="40.164217" lon="-4.890217">
        <ele>1942.0</ele>
        <time>2013-07-06T13:26:40Z</time>
      </trkpt>
      <trkpt lat="40.164183" lon="-4.890317">
        <ele>1941.0</ele>
        <time>2013-07-06T13:26:41Z</time>
      </trkpt>
      <trkpt lat="40.164133" lon="-4.890417">
        <ele>1940.0</ele>
        <time>2013-07-06T13:26:42Z</time>
      </trkpt>
      <trkpt lat="40.164100" lon="-4.890517">
        <ele>1939.0</ele>
        <time>2013-07-06T13:26:43Z</time>
      </trkpt>
      <trkpt lat="40.164050" lon="-4.890633">
        <ele>1937.0</ele>
        <time>2013-07-06T13:26:44Z</time>
      </trkpt>
      <trkpt lat="40.164017" lon="-4.890733">
        <ele>1936.0</ele>
        <time>2013-07-06T13:26:45Z</time>
      </trkpt>
      <trkpt lat="40.163983" lon="-4.890833">
        <ele>1934.0</ele>
        <time>2013-07-06T13:26:46Z</time>
      </trkpt>
      <trkpt lat="40.163950" lon="-4.890933">
        <ele>1933.0</ele>
        <time>2013-07-06T13:26:47Z</time>
      </trkpt>
      <trkpt lat="40.163917" lon="-4.891050">
        <ele>1931.0</ele>
        <time>2013-07-06T13:26:48Z</time>
      </trkpt>
      <trkpt lat="40.163867" lon="-4.891150">
        <ele>1930.0</ele>
        <time>2013-07-06T13:26:49Z</time>
      </trkpt>
      <trkpt lat="40.163833" lon="-4.891250">
        <ele>1928.0</ele>
        <time>2013-07-06T13:26:50Z</time>
      </trkpt>
      <trkpt lat="40.163783" lon="-4.891350">
        <ele>1928.0</ele>
        <time>2013-07-06T13:26:51Z</time>
      </trkpt>
      <trkpt lat="40.163750" lon="-4.891450">
        <ele>1927.0</ele>
        <time>2013-07-06T13:26:52Z</time>
      </trkpt>
      <trkpt lat="40.163717" lon="-4.891550">
        <ele>1926.0</ele>
        <time>2013-07-06T13:26:53Z</time>
      </trkpt>
      <trkpt lat="40.163683" lon="-4.891650">
        <ele>1925.0</ele>
        <time>2013-07-06T13:26:54Z</time>
      </trkpt>
      <trkpt lat="40.163633" lon="-4.891750">
        <ele>1924.0</ele>
        <time>2013-07-06T13:26:55Z</time>
      </trkpt>
      <trkpt lat="40.163600" lon="-4.891867">
        <ele>1922.0</ele>
        <time>2013-07-06T13:26:56Z</time>
      </trkpt>
      <trkpt lat="40.163550" lon="-4.891967">
        <ele>1921.0</ele>
        <time>2013-07-06T13:26:57Z</time>
      </trkpt>
      <trkpt lat="40.163350" lon="-4.892333">
        <ele>1919.0</ele>
        <time>2013-07-06T13:27:01Z</time>
      </trkpt>
      <trkpt lat="40.163300" lon="-4.892417">
        <ele>1918.0</ele>
        <time>2013-07-06T13:27:02Z</time>
      </trkpt>
      <trkpt lat="40.163267" lon="-4.892500">
        <ele>1916.0</ele>
        <time>2013-07-06T13:27:03Z</time>
      </trkpt>
      <trkpt lat="40.163217" lon="-4.892600">
        <ele>1914.0</ele>
        <time>2013-07-06T13:27:04Z</time>
      </trkpt>
      <trkpt lat="40.163150" lon="-4.892683">
        <ele>1912.0</ele>
        <time>2013-07-06T13:27:05Z</time>
      </trkpt>
      <trkpt lat="40.163083" lon="-4.892767">
        <ele>1910.0</ele>
        <time>2013-07-06T13:27:06Z</time>
      </trkpt>
      <trkpt lat="40.163033" lon="-4.892833">
        <ele>1910.0</ele>
        <time>2013-07-06T13:27:07Z</time>
      </trkpt>
      <trkpt lat="40.162983" lon="-4.892917">
        <ele>1911.0</ele>
        <time>2013-07-06T13:27:08Z</time>
      </trkpt>
      <trkpt lat="40.162950" lon="-4.892983">
        <ele>1910.0</ele>
        <time>2013-07-06T13:27:09Z</time>
      </trkpt>
      <trkpt lat="40.162900" lon="-4.893050">
        <ele>1909.0</ele>
        <time>2013-07-06T13:27:10Z</time>
      </trkpt>
      <trkpt lat="40.162850" lon="-4.893133">
        <ele>1907.0</ele>
        <time>2013-07-06T13:27:11Z</time>
      </trkpt>
      <trkpt lat="40.162783" lon="-4.893200">
        <ele>1905.0</ele>
        <time>2013-07-06T13:27:12Z</time>
      </trkpt>
      <trkpt lat="40.162717" lon="-4.893283">
        <ele>1903.0</ele>
        <time>2013-07-06T13:27:13Z</time>
      </trkpt>
      <trkpt lat="40.162667" lon="-4.893350">
        <ele>1902.0</ele>
        <time>2013-07-06T13:27:14Z</time>
      </trkpt>
      <trkpt lat="40.162600" lon="-4.893417">
        <ele>1900.0</ele>
        <time>2013-07-06T13:27:15Z</time>
      </trkpt>
      <trkpt lat="40.162533" lon="-4.893483">
        <ele>1899.0</ele>
        <time>2013-07-06T13:27:16Z</time>
      </trkpt>
      <trkpt lat="40.162467" lon="-4.893550">
        <ele>1898.0</ele>
        <time>2013-07-06T13:27:17Z</time>
      </trkpt>
      <trkpt lat="40.162383" lon="-4.893600">
        <ele>1896.0</ele>
        <time>2013-07-06T13:27:18Z</time>
      </trkpt>
      <trkpt lat="40.162317" lon="-4.893650">
        <ele>1895.0</ele>
        <time>2013-07-06T13:27:19Z</time>
      </trkpt>
      <trkpt lat="40.162233" lon="-4.893700">
        <ele>1893.0</ele>
        <time>2013-07-06T13:27:20Z</time>
      </trkpt>
      <trkpt lat="40.162150" lon="-4.893750">
        <ele>1891.0</ele>
        <time>2013-07-06T13:27:21Z</time>
      </trkpt>
      <trkpt lat="40.162067" lon="-4.893800">
        <ele>1890.0</ele>
        <time>2013-07-06T13:27:22Z</time>
      </trkpt>
      <trkpt lat="40.161983" lon="-4.893833">
        <ele>1890.0</ele>
        <time>2013-07-06T13:27:23Z</time>
      </trkpt>
      <trkpt lat="40.161917" lon="-4.893883">
        <ele>1890.0</ele>
        <time>2013-07-06T13:27:24Z</time>
      </trkpt>
      <trkpt lat="40.161883" lon="-4.893933">
        <ele>1891.0</ele>
        <time>2013-07-06T13:27:25Z</time>
      </trkpt>
      <trkpt lat="40.161833" lon="-4.893983">
        <ele>1890.0</ele>
        <time>2013-07-06T13:27:26Z</time>
      </trkpt>
      <trkpt lat="40.161783" lon="-4.894050">
        <ele>1888.0</ele>
        <time>2013-07-06T13:27:27Z</time>
      </trkpt>
      <trkpt lat="40.161717" lon="-4.894100">
        <ele>1886.0</ele>
        <time>2013-07-06T13:27:28Z</time>
      </trkpt>
      <trkpt lat="40.161633" lon="-4.894167">
        <ele>1884.0</ele>
        <time>2013-07-06T13:27:29Z</time>
      </trkpt>
      <trkpt lat="40.161550" lon="-4.894217">
        <ele>1883.0</ele>
        <time>2013-07-06T13:27:30Z</time>
      </trkpt>
      <trkpt lat="40.161500" lon="-4.894267">
        <ele>1882.0</ele>
        <time>2013-07-06T13:27:31Z</time>
      </trkpt>
      <trkpt lat="40.161433" lon="-4.894317">
        <ele>1881.0</ele>
        <time>2013-07-06T13:27:32Z</time>
      </trkpt>
      <trkpt lat="40.161367" lon="-4.894367">
        <ele>1880.0</ele>
        <time>2013-07-06T13:27:33Z</time>
      </trkpt>
      <trkpt lat="40.161300" lon="-4.894400">
        <ele>1878.0</ele>
        <time>2013-07-06T13:27:34Z</time>
      </trkpt>
      <trkpt lat="40.161217" lon="-4.894417">
        <ele>1876.0</ele>
        <time>2013-07-06T13:27:35Z</time>
      </trkpt>
      <trkpt lat="40.161150" lon="-4.894450">
        <ele>1875.0</ele>
        <time>2013-07-06T13:27:36Z</time>
      </trkpt>
      <trkpt lat="40.161067" lon="-4.894483">
        <ele>1874.0</ele>
        <time>2013-07-06T13:27:37Z</time>
      </trkpt>
      <trkpt lat="40.161000" lon="-4.894533">
        <ele>1873.0</ele>
        <time>2013-07-06T13:27:38Z</time>
      </trkpt>
      <trkpt lat="40.160917" lon="-4.894567">
        <ele>1872.0</ele>
        <time>2013-07-06T13:27:39Z</time>
      </trkpt>
      <trkpt lat="40.160833" lon="-4.894617">
        <ele>1871.0</ele>
        <time>2013-07-06T13:27:40Z</time>
      </trkpt>
      <trkpt lat="40.160733" lon="-4.894667">
        <ele>1870.0</ele>
        <time>2013-07-06T13:27:41Z</time>
      </trkpt>
      <trkpt lat="40.160650" lon="-4.894717">
        <ele>1870.0</ele>
        <time>2013-07-06T13:27:42Z</time>
      </trkpt>
      <trkpt lat="40.160550" lon="-4.894767">
        <ele>1869.0</ele>
        <time>2013-07-06T13:27:43Z</time>
      </trkpt>
      <trkpt lat="40.160450" lon="-4.894833">
        <ele>1869.0</ele>
        <time>2013-07-06T13:27:44Z</time>
      </trkpt>
      <trkpt lat="40.160350" lon="-4.894883">
        <ele>1870.0</ele>
        <time>2013-07-06T13:27:45Z</time>
      </trkpt>
      <trkpt lat="40.160267" lon="-4.894933">
        <ele>1871.0</ele>
        <time>2013-07-06T13:27:46Z</time>
      </trkpt>
      <trkpt lat="40.160167" lon="-4.894983">
        <ele>1873.0</ele>
        <time>2013-07-06T13:27:47Z</time>
      </trkpt>
      <trkpt lat="40.160083" lon="-4.895033">
        <ele>1874.0</ele>
        <time>2013-07-06T13:27:48Z</time>
      </trkpt>
      <trkpt lat="40.159983" lon="-4.895100">
        <ele>1875.0</ele>
        <time>2013-07-06T13:27:49Z</time>
      </trkpt>
      <trkpt lat="40.159883" lon="-4.895150">
        <ele>1878.0</ele>
        <time>2013-07-06T13:27:50Z</time>
      </trkpt>
      <trkpt lat="40.159800" lon="-4.895217">
        <ele>1881.0</ele>
        <time>2013-07-06T13:27:51Z</time>
      </trkpt>
      <trkpt lat="40.159717" lon="-4.895267">
        <ele>1884.0</ele>
        <time>2013-07-06T13:27:52Z</time>
      </trkpt>
      <trkpt lat="40.159633" lon="-4.895317">
        <ele>1888.0</ele>
        <time>2013-07-06T13:27:53Z</time>
      </trkpt>
      <trkpt lat="40.159533" lon="-4.895383">
        <ele>1890.0</ele>
        <time>2013-07-06T13:27:54Z</time>
      </trkpt>
      <trkpt lat="40.159450" lon="-4.895483">
        <ele>1892.0</ele>
        <time>2013-07-06T13:27:55Z</time>
      </trkpt>
      <trkpt lat="40.159383" lon="-4.895600">
        <ele>1894.0</ele>
        <time>2013-07-06T13:27:56Z</time>
      </trkpt>
      <trkpt lat="40.159350" lon="-4.895733">
        <ele>1897.0</ele>
        <time>2013-07-06T13:27:57Z</time>
      </trkpt>
      <trkpt lat="40.159350" lon="-4.895883">
        <ele>1899.0</ele>
        <time>2013-07-06T13:27:58Z</time>
      </trkpt>
      <trkpt lat="40.159383" lon="-4.896017">
        <ele>1902.0</ele>
        <time>2013-07-06T13:27:59Z</time>
      </trkpt>
      <trkpt lat="40.159417" lon="-4.896117">
        <ele>1905.0</ele>
        <time>2013-07-06T13:28:00Z</time>
      </trkpt>
      <trkpt lat="40.159450" lon="-4.896200">
        <ele>1910.0</ele>
        <time>2013-07-06T13:28:01Z</time>
      </trkpt>
      <trkpt lat="40.159500" lon="-4.896250">
        <ele>1914.0</ele>
        <time>2013-07-06T13:28:02Z</time>
      </trkpt>
      <trkpt lat="40.159550" lon="-4.896317">
        <ele>1916.0</ele>
        <time>2013-07-06T13:28:03Z</time>
      </trkpt>
      <trkpt lat="40.159633" lon="-4.896350">
        <ele>1918.0</ele>
        <time>2013-07-06T13:28:04Z</time>
      </trkpt>
      <trkpt lat="40.159717" lon="-4.896383">
        <ele>1919.0</ele>
        <time>2013-07-06T13:28:05Z</time>
      </trkpt>
      <trkpt lat="40.159783" lon="-4.896383">
        <ele>1920.0</ele>
        <time>2013-07-06T13:28:06Z</time>
      </trkpt>
      <trkpt lat="40.159867" lon="-4.896350">
        <ele>1925.0</ele>
        <time>2013-07-06T13:28:08Z</time>
      </trkpt>
      <trkpt lat="40.159883" lon="-4.896317">
        <ele>1926.0</ele>
        <time>2013-07-06T13:28:09Z</time>
      </trkpt>
      <trkpt lat="40.159917" lon="-4.896267">
        <ele>1928.0</ele>
        <time>2013-07-06T13:28:10Z</time>
      </trkpt>
      <trkpt lat="40.159967" lon="-4.896217">
        <ele>1928.0</ele>
        <time>2013-07-06T13:28:11Z</time>
      </trkpt>
      <trkpt lat="40.159983" lon="-4.896150">
        <ele>1928.0</ele>
        <time>2013-07-06T13:28:12Z</time>
      </trkpt>
      <trkpt lat="40.160000" lon="-4.896083">
        <ele>1928.0</ele>
        <time>2013-07-06T13:28:13Z</time>
      </trkpt>
      <trkpt lat="40.160000" lon="-4.896033">
        <ele>1930.0</ele>
        <time>2013-07-06T13:28:14Z</time>
      </trkpt>
      <trkpt lat="40.159983" lon="-4.895983">
        <ele>1931.0</ele>
        <time>2013-07-06T13:28:15Z</time>
      </trkpt>
      <trkpt lat="40.159967" lon="-4.895933">
        <ele>1933.0</ele>
        <time>2013-07-06T13:28:16Z</time>
      </trkpt>
      <trkpt lat="40.159933" lon="-4.895883">
        <ele>1935.0</ele>
        <time>2013-07-06T13:28:17Z</time>
      </trkpt>
      <trkpt lat="40.159917" lon="-4.895833">
        <ele>1936.0</ele>
        <time>2013-07-06T13:28:18Z</time>
      </trkpt>
      <trkpt lat="40.159883" lon="-4.895767">
        <ele>1937.0</ele>
        <time>2013-07-06T13:28:19Z</time>
      </trkpt>
      <trkpt lat="40.159850" lon="-4.895700">
        <ele>1937.0</ele>
        <time>2013-07-06T13:28:20Z</time>
      </trkpt>
      <trkpt lat="40.159800" lon="-4.895633">
        <ele>1938.0</ele>
        <time>2013-07-06T13:28:21Z</time>
      </trkpt>
      <trkpt lat="40.159750" lon="-4.895567">
        <ele>1939.0</ele>
        <time>2013-07-06T13:28:22Z</time>
      </trkpt>
      <trkpt lat="40.159667" lon="-4.895517">
        <ele>1942.0</ele>
        <time>2013-07-06T13:28:23Z</time>
      </trkpt>
      <trkpt lat="40.159583" lon="-4.895483">
        <ele>1946.0</ele>
        <time>2013-07-06T13:28:24Z</time>
      </trkpt>
      <trkpt lat="40.159500" lon="-4.895467">
        <ele>1951.0</ele>
        <time>2013-07-06T13:28:25Z</time>
      </trkpt>
      <trkpt lat="40.159433" lon="-4.895483">
        <ele>1955.0</ele>
        <time>2013-07-06T13:28:26Z</time>
      </trkpt>
      <trkpt lat="40.159350" lon="-4.895500">
        <ele>1959.0</ele>
        <time>2013-07-06T13:28:27Z</time>
      </trkpt>
      <trkpt lat="40.159267" lon="-4.895517">
        <ele>1962.0</ele>
        <time>2013-07-06T13:28:28Z</time>
      </trkpt>
      <trkpt lat="40.159167" lon="-4.895550">
        <ele>1965.0</ele>
        <time>2013-07-06T13:28:29Z</time>
      </trkpt>
      <trkpt lat="40.159067" lon="-4.895583">
        <ele>1968.0</ele>
        <time>2013-07-06T13:28:30Z</time>
      </trkpt>
      <trkpt lat="40.158983" lon="-4.895650">
        <ele>1972.0</ele>
        <time>2013-07-06T13:28:31Z</time>
      </trkpt>
      <trkpt lat="40.158900" lon="-4.895717">
        <ele>1975.0</ele>
        <time>2013-07-06T13:28:32Z</time>
      </trkpt>
      <trkpt lat="40.158817" lon="-4.895783">
        <ele>1978.0</ele>
        <time>2013-07-06T13:28:33Z</time>
      </trkpt>
      <trkpt lat="40.158733" lon="-4.895883">
        <ele>1981.0</ele>
        <time>2013-07-06T13:28:34Z</time>
      </trkpt>
      <trkpt lat="40.158683" lon="-4.895983">
        <ele>1984.0</ele>
        <time>2013-07-06T13:28:35Z</time>
      </trkpt>
      <trkpt lat="40.158617" lon="-4.896117">
        <ele>1986.0</ele>
        <time>2013-07-06T13:28:36Z</time>
      </trkpt>
      <trkpt lat="40.158550" lon="-4.896250">
        <ele>1988.0</ele>
        <time>2013-07-06T13:28:37Z</time>
      </trkpt>
      <trkpt lat="40.158500" lon="-4.896400">
        <ele>1991.0</ele>
        <time>2013-07-06T13:28:38Z</time>
      </trkpt>
      <trkpt lat="40.158483" lon="-4.896550">
        <ele>1993.0</ele>
        <time>2013-07-06T13:28:39Z</time>
      </trkpt>
      <trkpt lat="40.158467" lon="-4.896700">
        <ele>1996.0</ele>
        <time>2013-07-06T13:28:40Z</time>
      </trkpt>
      <trkpt lat="40.158467" lon="-4.896850">
        <ele>1999.0</ele>
        <time>2013-07-06T13:28:41Z</time>
      </trkpt>
      <trkpt lat="40.158483" lon="-4.896983">
        <ele>2002.0</ele>
        <time>2013-07-06T13:28:42Z</time>
      </trkpt>
      <trkpt lat="40.158500" lon="-4.897117">
        <ele>2006.0</ele>
        <time>2013-07-06T13:28:43Z</time>
      </trkpt>
      <trkpt lat="40.158533" lon="-4.897267">
        <ele>2009.0</ele>
        <time>2013-07-06T13:28:44Z</time>
      </trkpt>
      <trkpt lat="40.158583" lon="-4.897400">
        <ele>2013.0</ele>
        <time>2013-07-06T13:28:45Z</time>
      </trkpt>
      <trkpt lat="40.158633" lon="-4.897500">
        <ele>2018.0</ele>
        <time>2013-07-06T13:28:46Z</time>
      </trkpt>
      <trkpt lat="40.158700" lon="-4.897583">
        <ele>2022.0</ele>
        <time>2013-07-06T13:28:47Z</time>
      </trkpt>
      <trkpt lat="40.158767" lon="-4.897650">
        <ele>2026.0</ele>
        <time>2013-07-06T13:28:48Z</time>
      </trkpt>
      <trkpt lat="40.158833" lon="-4.897683">
        <ele>2028.0</ele>
        <time>2013-07-06T13:28:49Z</time>
      </trkpt>
      <trkpt lat="40.158900" lon="-4.897717">
        <ele>2031.0</ele>
        <time>2013-07-06T13:28:50Z</time>
      </trkpt>
      <trkpt lat="40.158950" lon="-4.897717">
        <ele>2033.0</ele>
        <time>2013-07-06T13:28:51Z</time>
      </trkpt>
      <trkpt lat="40.159017" lon="-4.897717">
        <ele>2035.0</ele>
        <time>2013-07-06T13:28:52Z</time>
      </trkpt>
      <trkpt lat="40.159067" lon="-4.897683">
        <ele>2038.0</ele>
        <time>2013-07-06T13:28:53Z</time>
      </trkpt>
      <trkpt lat="40.159117" lon="-4.897667">
        <ele>2041.0</ele>
        <time>2013-07-06T13:28:54Z</time>
      </trkpt>
      <trkpt lat="40.159150" lon="-4.897617">
        <ele>2044.0</ele>
        <time>2013-07-06T13:28:55Z</time>
      </trkpt>
      <trkpt lat="40.159167" lon="-4.897583">
        <ele>2047.0</ele>
        <time>2013-07-06T13:28:56Z</time>
      </trkpt>
      <trkpt lat="40.159183" lon="-4.897533">
        <ele>2050.0</ele>
        <time>2013-07-06T13:28:57Z</time>
      </trkpt>
      <trkpt lat="40.159183" lon="-4.897450">
        <ele>2052.0</ele>
        <time>2013-07-06T13:28:58Z</time>
      </trkpt>
      <trkpt lat="40.159167" lon="-4.897383">
        <ele>2053.0</ele>
        <time>2013-07-06T13:28:59Z</time>
      </trkpt>
      <trkpt lat="40.159133" lon="-4.897317">
        <ele>2055.0</ele>
        <time>2013-07-06T13:29:00Z</time>
      </trkpt>
      <trkpt lat="40.159067" lon="-4.897267">
        <ele>2057.0</ele>
        <time>2013-07-06T13:29:01Z</time>
      </trkpt>
      <trkpt lat="40.158933" lon="-4.897167">
        <ele>2063.0</ele>
        <time>2013-07-06T13:29:03Z</time>
      </trkpt>
      <trkpt lat="40.158850" lon="-4.897133">
        <ele>2067.0</ele>
        <time>2013-07-06T13:29:04Z</time>
      </trkpt>
      <trkpt lat="40.158783" lon="-4.897117">
        <ele>2071.0</ele>
        <time>2013-07-06T13:29:05Z</time>
      </trkpt>
      <trkpt lat="40.158700" lon="-4.897117">
        <ele>2074.0</ele>
        <time>2013-07-06T13:29:06Z</time>
      </trkpt>
      <trkpt lat="40.158517" lon="-4.897167">
        <ele>2079.0</ele>
        <time>2013-07-06T13:29:08Z</time>
      </trkpt>
      <trkpt lat="40.158433" lon="-4.897200">
        <ele>2081.0</ele>
        <time>2013-07-06T13:29:09Z</time>
      </trkpt>
      <trkpt lat="40.158333" lon="-4.897250">
        <ele>2083.0</ele>
        <time>2013-07-06T13:29:10Z</time>
      </trkpt>
      <trkpt lat="40.158250" lon="-4.897333">
        <ele>2086.0</ele>
        <time>2013-07-06T13:29:11Z</time>
      </trkpt>
      <trkpt lat="40.158167" lon="-4.897417">
        <ele>2088.0</ele>
        <time>2013-07-06T13:29:12Z</time>
      </trkpt>
      <trkpt lat="40.158083" lon="-4.897517">
        <ele>2090.0</ele>
        <time>2013-07-06T13:29:13Z</time>
      </trkpt>
      <trkpt lat="40.158017" lon="-4.897633">
        <ele>2093.0</ele>
        <time>2013-07-06T13:29:14Z</time>
      </trkpt>
      <trkpt lat="40.157967" lon="-4.897767">
        <ele>2095.0</ele>
        <time>2013-07-06T13:29:15Z</time>
      </trkpt>
      <trkpt lat="40.157917" lon="-4.897883">
        <ele>2098.0</ele>
        <time>2013-07-06T13:29:16Z</time>
      </trkpt>
      <trkpt lat="40.157883" lon="-4.898033">
        <ele>2100.0</ele>
        <time>2013-07-06T13:29:17Z</time>
      </trkpt>
      <trkpt lat="40.157833" lon="-4.898183">
        <ele>2102.0</ele>
        <time>2013-07-06T13:29:18Z</time>
      </trkpt>
      <trkpt lat="40.157817" lon="-4.898350">
        <ele>2104.0</ele>
        <time>2013-07-06T13:29:19Z</time>
      </trkpt>
      <trkpt lat="40.157817" lon="-4.898667">
        <ele>2109.0</ele>
        <time>2013-07-06T13:29:21Z</time>
      </trkpt>
      <trkpt lat="40.157833" lon="-4.898817">
        <ele>2111.0</ele>
        <time>2013-07-06T13:29:22Z</time>
      </trkpt>
      <trkpt lat="40.157867" lon="-4.898933">
        <ele>2114.0</ele>
        <time>2013-07-06T13:29:23Z</time>
      </trkpt>
      <trkpt lat="40.157917" lon="-4.899050">
        <ele>2116.0</ele>
        <time>2013-07-06T13:29:24Z</time>
      </trkpt>
      <trkpt lat="40.157983" lon="-4.899150">
        <ele>2119.0</ele>
        <time>2013-07-06T13:29:25Z</time>
      </trkpt>
      <trkpt lat="40.158033" lon="-4.899250">
        <ele>2120.0</ele>
        <time>2013-07-06T13:29:26Z</time>
      </trkpt>
      <trkpt lat="40.158117" lon="-4.899333">
        <ele>2121.0</ele>
        <time>2013-07-06T13:29:27Z</time>
      </trkpt>
      <trkpt lat="40.158183" lon="-4.899400">
        <ele>2122.0</ele>
        <time>2013-07-06T13:29:28Z</time>
      </trkpt>
      <trkpt lat="40.158267" lon="-4.899450">
        <ele>2124.0</ele>
        <time>2013-07-06T13:29:29Z</time>
      </trkpt>
      <trkpt lat="40.158333" lon="-4.899467">
        <ele>2126.0</ele>
        <time>2013-07-06T13:29:30Z</time>
      </trkpt>
      <trkpt lat="40.158383" lon="-4.899467">
        <ele>2128.0</ele>
        <time>2013-07-06T13:29:31Z</time>
      </trkpt>
      <trkpt lat="40.158433" lon="-4.899450">
        <ele>2130.0</ele>
        <time>2013-07-06T13:29:32Z</time>
      </trkpt>
      <trkpt lat="40.158500" lon="-4.899433">
        <ele>2132.0</ele>
        <time>2013-07-06T13:29:33Z</time>
      </trkpt>
      <trkpt lat="40.158583" lon="-4.899367">
        <ele>2134.0</ele>
        <time>2013-07-06T13:29:35Z</time>
      </trkpt>
      <trkpt lat="40.158617" lon="-4.899317">
        <ele>2137.0</ele>
        <time>2013-07-06T13:29:36Z</time>
      </trkpt>
      <trkpt lat="40.158650" lon="-4.899283">
        <ele>2139.0</ele>
        <time>2013-07-06T13:29:37Z</time>
      </trkpt>
      <trkpt lat="40.158733" lon="-4.899033">
        <ele>2146.0</ele>
        <time>2013-07-06T13:29:41Z</time>
      </trkpt>
      <trkpt lat="40.158717" lon="-4.898967">
        <ele>2149.0</ele>
        <time>2013-07-06T13:29:42Z</time>
      </trkpt>
      <trkpt lat="40.158700" lon="-4.898883">
        <ele>2151.0</ele>
        <time>2013-07-06T13:29:43Z</time>
      </trkpt>
      <trkpt lat="40.158650" lon="-4.898833">
        <ele>2155.0</ele>
        <time>2013-07-06T13:29:44Z</time>
      </trkpt>
      <trkpt lat="40.158600" lon="-4.898783">
        <ele>2158.0</ele>
        <time>2013-07-06T13:29:45Z</time>
      </trkpt>
      <trkpt lat="40.158533" lon="-4.898733">
        <ele>2161.0</ele>
        <time>2013-07-06T13:29:46Z</time>
      </trkpt>
      <trkpt lat="40.158467" lon="-4.898700">
        <ele>2165.0</ele>
        <time>2013-07-06T13:29:47Z</time>
      </trkpt>
      <trkpt lat="40.158383" lon="-4.898683">
        <ele>2167.0</ele>
        <time>2013-07-06T13:29:48Z</time>
      </trkpt>
      <trkpt lat="40.158300" lon="-4.898667">
        <ele>2170.0</ele>
        <time>2013-07-06T13:29:49Z</time>
      </trkpt>
      <trkpt lat="40.158200" lon="-4.898700">
        <ele>2173.0</ele>
        <time>2013-07-06T13:29:50Z</time>
      </trkpt>
      <trkpt lat="40.158100" lon="-4.898733">
        <ele>2175.0</ele>
        <time>2013-07-06T13:29:51Z</time>
      </trkpt>
      <trkpt lat="40.158000" lon="-4.898783">
        <ele>2177.0</ele>
        <time>2013-07-06T13:29:52Z</time>
      </trkpt>
      <trkpt lat="40.157900" lon="-4.898867">
        <ele>2179.0</ele>
        <time>2013-07-06T13:29:53Z</time>
      </trkpt>
      <trkpt lat="40.157817" lon="-4.898967">
        <ele>2181.0</ele>
        <time>2013-07-06T13:29:54Z</time>
      </trkpt>
      <trkpt lat="40.157733" lon="-4.899083">
        <ele>2184.0</ele>
        <time>2013-07-06T13:29:55Z</time>
      </trkpt>
      <trkpt lat="40.157683" lon="-4.899217">
        <ele>2187.0</ele>
        <time>2013-07-06T13:29:56Z</time>
      </trkpt>
      <trkpt lat="40.157650" lon="-4.899333">
        <ele>2189.0</ele>
        <time>2013-07-06T13:29:57Z</time>
      </trkpt>
      <trkpt lat="40.157617" lon="-4.899467">
        <ele>2191.0</ele>
        <time>2013-07-06T13:29:58Z</time>
      </trkpt>
      <trkpt lat="40.157567" lon="-4.899600">
        <ele>2193.0</ele>
        <time>2013-07-06T13:29:59Z</time>
      </trkpt>
      <trkpt lat="40.157550" lon="-4.899750">
        <ele>2194.0</ele>
        <time>2013-07-06T13:30:00Z</time>
      </trkpt>
      <trkpt lat="40.157550" lon="-4.899900">
        <ele>2195.0</ele>
        <time>2013-07-06T13:30:01Z</time>
      </trkpt>
      <trkpt lat="40.157550" lon="-4.900050">
        <ele>2197.0</ele>
        <time>2013-07-06T13:30:02Z</time>
      </trkpt>
      <trkpt lat="40.157583" lon="-4.900167">
        <ele>2199.0</ele>
        <time>2013-07-06T13:30:03Z</time>
      </trkpt>
      <trkpt lat="40.157617" lon="-4.900283">
        <ele>2201.0</ele>
        <time>2013-07-06T13:30:04Z</time>
      </trkpt>
      <trkpt lat="40.157650" lon="-4.900400">
        <ele>2202.0</ele>
        <time>2013-07-06T13:30:05Z</time>
      </trkpt>
      <trkpt lat="40.157700" lon="-4.900517">
        <ele>2204.0</ele>
        <time>2013-07-06T13:30:06Z</time>
      </trkpt>
      <trkpt lat="40.157767" lon="-4.900600">
        <ele>2202.0</ele>
        <time>2013-07-06T13:30:07Z</time>
      </trkpt>
      <trkpt lat="40.157833" lon="-4.900667">
        <ele>2202.0</ele>
        <time>2013-07-06T13:30:08Z</time>
      </trkpt>
      <trkpt lat="40.157900" lon="-4.900717">
        <ele>2204.0</ele>
        <time>2013-07-06T13:30:09Z</time>
      </trkpt>
      <trkpt lat="40.157967" lon="-4.900733">
        <ele>2206.0</ele>
        <time>2013-07-06T13:30:10Z</time>
      </trkpt>
      <trkpt lat="40.158033" lon="-4.900750">
        <ele>2209.0</ele>
        <time>2013-07-06T13:30:11Z</time>
      </trkpt>
      <trkpt lat="40.158133" lon="-4.900733">
        <ele>2213.0</ele>
        <time>2013-07-06T13:30:13Z</time>
      </trkpt>
      <trkpt lat="40.158167" lon="-4.900700">
        <ele>2214.0</ele>
        <time>2013-07-06T13:30:14Z</time>
      </trkpt>
      <trkpt lat="40.158217" lon="-4.900667">
        <ele>2215.0</ele>
        <time>2013-07-06T13:30:15Z</time>
      </trkpt>
      <trkpt lat="40.158250" lon="-4.900617">
        <ele>2215.0</ele>
        <time>2013-07-06T13:30:16Z</time>
      </trkpt>
      <trkpt lat="40.158283" lon="-4.900500">
        <ele>2216.0</ele>
        <time>2013-07-06T13:30:18Z</time>
      </trkpt>
      <trkpt lat="40.158300" lon="-4.900433">
        <ele>2217.0</ele>
        <time>2013-07-06T13:30:19Z</time>
      </trkpt>
      <trkpt lat="40.158317" lon="-4.900367">
        <ele>2217.0</ele>
        <time>2013-07-06T13:30:20Z</time>
      </trkpt>
      <trkpt lat="40.158300" lon="-4.900300">
        <ele>2218.0</ele>
        <time>2013-07-06T13:30:21Z</time>
      </trkpt>
      <trkpt lat="40.158283" lon="-4.900233">
        <ele>2219.0</ele>
        <time>2013-07-06T13:30:22Z</time>
      </trkpt>
      <trkpt lat="40.158233" lon="-4.900167">
        <ele>2221.0</ele>
        <time>2013-07-06T13:30:23Z</time>
      </trkpt>
      <trkpt lat="40.158200" lon="-4.900117">
        <ele>2224.0</ele>
        <time>2013-07-06T13:30:24Z</time>
      </trkpt>
      <trkpt lat="40.158133" lon="-4.900083">
        <ele>2225.0</ele>
        <time>2013-07-06T13:30:25Z</time>
      </trkpt>
      <trkpt lat="40.158067" lon="-4.900050">
        <ele>2226.0</ele>
        <time>2013-07-06T13:30:26Z</time>
      </trkpt>
      <trkpt lat="40.157967" lon="-4.900017">
        <ele>2227.0</ele>
        <time>2013-07-06T13:30:27Z</time>
      </trkpt>
      <trkpt lat="40.157867" lon="-4.900000">
        <ele>2229.0</ele>
        <time>2013-07-06T13:30:28Z</time>
      </trkpt>
      <trkpt lat="40.157783" lon="-4.900033">
        <ele>2232.0</ele>
        <time>2013-07-06T13:30:29Z</time>
      </trkpt>
      <trkpt lat="40.157700" lon="-4.900083">
        <ele>2234.0</ele>
        <time>2013-07-06T13:30:30Z</time>
      </trkpt>
      <trkpt lat="40.157600" lon="-4.900150">
        <ele>2234.0</ele>
        <time>2013-07-06T13:30:31Z</time>
      </trkpt>
      <trkpt lat="40.157517" lon="-4.900233">
        <ele>2234.0</ele>
        <time>2013-07-06T13:30:32Z</time>
      </trkpt>
      <trkpt lat="40.157433" lon="-4.900350">
        <ele>2234.0</ele>
        <time>2013-07-06T13:30:33Z</time>
      </trkpt>
      <trkpt lat="40.157350" lon="-4.900467">
        <ele>2235.0</ele>
        <time>2013-07-06T13:30:34Z</time>
      </trkpt>
      <trkpt lat="40.157300" lon="-4.900583">
        <ele>2235.0</ele>
        <time>2013-07-06T13:30:35Z</time>
      </trkpt>
      <trkpt lat="40.157250" lon="-4.900700">
        <ele>2237.0</ele>
        <time>2013-07-06T13:30:36Z</time>
      </trkpt>
      <trkpt lat="40.157233" lon="-4.900833">
        <ele>2238.0</ele>
        <time>2013-07-06T13:30:37Z</time>
      </trkpt>
      <trkpt lat="40.157217" lon="-4.900983">
        <ele>2239.0</ele>
        <time>2013-07-06T13:30:38Z</time>
      </trkpt>
      <trkpt lat="40.157217" lon="-4.901117">
        <ele>2240.0</ele>
        <time>2013-07-06T13:30:39Z</time>
      </trkpt>
      <trkpt lat="40.157233" lon="-4.901250">
        <ele>2241.0</ele>
        <time>2013-07-06T13:30:40Z</time>
      </trkpt>
      <trkpt lat="40.157267" lon="-4.901367">
        <ele>2243.0</ele>
        <time>2013-07-06T13:30:41Z</time>
      </trkpt>
      <trkpt lat="40.157317" lon="-4.901483">
        <ele>2244.0</ele>
        <time>2013-07-06T13:30:42Z</time>
      </trkpt>
      <trkpt lat="40.157383" lon="-4.901583">
        <ele>2245.0</ele>
        <time>2013-07-06T13:30:43Z</time>
      </trkpt>
      <trkpt lat="40.157467" lon="-4.901650">
        <ele>2248.0</ele>
        <time>2013-07-06T13:30:44Z</time>
      </trkpt>
      <trkpt lat="40.157517" lon="-4.901683">
        <ele>2250.0</ele>
        <time>2013-07-06T13:30:45Z</time>
      </trkpt>
      <trkpt lat="40.157583" lon="-4.901700">
        <ele>2252.0</ele>
        <time>2013-07-06T13:30:46Z</time>
      </trkpt>
      <trkpt lat="40.157617" lon="-4.901700">
        <ele>2254.0</ele>
        <time>2013-07-06T13:30:47Z</time>
      </trkpt>
      <trkpt lat="40.157667" lon="-4.901667">
        <ele>2254.0</ele>
        <time>2013-07-06T13:30:48Z</time>
      </trkpt>
      <trkpt lat="40.157717" lon="-4.901633">
        <ele>2253.0</ele>
        <time>2013-07-06T13:30:49Z</time>
      </trkpt>
      <trkpt lat="40.157767" lon="-4.901567">
        <ele>2253.0</ele>
        <time>2013-07-06T13:30:50Z</time>
      </trkpt>
      <trkpt lat="40.157800" lon="-4.901517">
        <ele>2253.0</ele>
        <time>2013-07-06T13:30:51Z</time>
      </trkpt>
      <trkpt lat="40.157817" lon="-4.901467">
        <ele>2255.0</ele>
        <time>2013-07-06T13:30:52Z</time>
      </trkpt>
      <trkpt lat="40.157800" lon="-4.901400">
        <ele>2257.0</ele>
        <time>2013-07-06T13:30:53Z</time>
      </trkpt>
      <trkpt lat="40.157783" lon="-4.901350">
        <ele>2258.0</ele>
        <time>2013-07-06T13:30:54Z</time>
      </trkpt>
      <trkpt lat="40.157750" lon="-4.901283">
        <ele>2259.0</ele>
        <time>2013-07-06T13:30:55Z</time>
      </trkpt>
      <trkpt lat="40.157700" lon="-4.901217">
        <ele>2260.0</ele>
        <time>2013-07-06T13:30:56Z</time>
      </trkpt>
      <trkpt lat="40.157650" lon="-4.901167">
        <ele>2261.0</ele>
        <time>2013-07-06T13:30:57Z</time>
      </trkpt>
      <trkpt lat="40.157567" lon="-4.901117">
        <ele>2261.0</ele>
        <time>2013-07-06T13:30:58Z</time>
      </trkpt>
      <trkpt lat="40.157467" lon="-4.901100">
        <ele>2261.0</ele>
        <time>2013-07-06T13:30:59Z</time>
      </trkpt>
      <trkpt lat="40.157367" lon="-4.901117">
        <ele>2261.0</ele>
        <time>2013-07-06T13:31:00Z</time>
      </trkpt>
      <trkpt lat="40.157267" lon="-4.901133">
        <ele>2261.0</ele>
        <time>2013-07-06T13:31:01Z</time>
      </trkpt>
      <trkpt lat="40.157167" lon="-4.901167">
        <ele>2262.0</ele>
        <time>2013-07-06T13:31:02Z</time>
      </trkpt>
      <trkpt lat="40.157050" lon="-4.901200">
        <ele>2263.0</ele>
        <time>2013-07-06T13:31:03Z</time>
      </trkpt>
      <trkpt lat="40.156950" lon="-4.901250">
        <ele>2263.0</ele>
        <time>2013-07-06T13:31:04Z</time>
      </trkpt>
      <trkpt lat="40.156850" lon="-4.901333">
        <ele>2264.0</ele>
        <time>2013-07-06T13:31:05Z</time>
      </trkpt>
      <trkpt lat="40.156783" lon="-4.901433">
        <ele>2264.0</ele>
        <time>2013-07-06T13:31:06Z</time>
      </trkpt>
      <trkpt lat="40.156717" lon="-4.901567">
        <ele>2265.0</ele>
        <time>2013-07-06T13:31:07Z</time>
      </trkpt>
      <trkpt lat="40.156667" lon="-4.901700">
        <ele>2265.0</ele>
        <time>2013-07-06T13:31:08Z</time>
      </trkpt>
      <trkpt lat="40.156650" lon="-4.901967">
        <ele>2267.0</ele>
        <time>2013-07-06T13:31:10Z</time>
      </trkpt>
      <trkpt lat="40.156667" lon="-4.902083">
        <ele>2267.0</ele>
        <time>2013-07-06T13:31:11Z</time>
      </trkpt>
      <trkpt lat="40.156683" lon="-4.902200">
        <ele>2268.0</ele>
        <time>2013-07-06T13:31:12Z</time>
      </trkpt>
      <trkpt lat="40.156733" lon="-4.902317">
        <ele>2268.0</ele>
        <time>2013-07-06T13:31:13Z</time>
      </trkpt>
      <trkpt lat="40.156800" lon="-4.902417">
        <ele>2267.0</ele>
        <time>2013-07-06T13:31:14Z</time>
      </trkpt>
      <trkpt lat="40.156867" lon="-4.902500">
        <ele>2267.0</ele>
        <time>2013-07-06T13:31:15Z</time>
      </trkpt>
      <trkpt lat="40.156933" lon="-4.902550">
        <ele>2268.0</ele>
        <time>2013-07-06T13:31:16Z</time>
      </trkpt>
      <trkpt lat="40.157000" lon="-4.902567">
        <ele>2270.0</ele>
        <time>2013-07-06T13:31:17Z</time>
      </trkpt>
      <trkpt lat="40.157050" lon="-4.902567">
        <ele>2270.0</ele>
        <time>2013-07-06T13:31:18Z</time>
      </trkpt>
      <trkpt lat="40.157083" lon="-4.902533">
        <ele>2270.0</ele>
        <time>2013-07-06T13:31:19Z</time>
      </trkpt>
      <trkpt lat="40.157100" lon="-4.902467">
        <ele>2269.0</ele>
        <time>2013-07-06T13:31:20Z</time>
      </trkpt>
      <trkpt lat="40.157117" lon="-4.902400">
        <ele>2268.0</ele>
        <time>2013-07-06T13:31:21Z</time>
      </trkpt>
      <trkpt lat="40.157117" lon="-4.902317">
        <ele>2267.0</ele>
        <time>2013-07-06T13:31:22Z</time>
      </trkpt>
      <trkpt lat="40.157100" lon="-4.902233">
        <ele>2266.0</ele>
        <time>2013-07-06T13:31:23Z</time>
      </trkpt>
      <trkpt lat="40.157067" lon="-4.902167">
        <ele>2265.0</ele>
        <time>2013-07-06T13:31:24Z</time>
      </trkpt>
      <trkpt lat="40.157017" lon="-4.902100">
        <ele>2265.0</ele>
        <time>2013-07-06T13:31:25Z</time>
      </trkpt>
      <trkpt lat="40.156967" lon="-4.902033">
        <ele>2265.0</ele>
        <time>2013-07-06T13:31:26Z</time>
      </trkpt>
      <trkpt lat="40.156900" lon="-4.901950">
        <ele>2265.0</ele>
        <time>2013-07-06T13:31:27Z</time>
      </trkpt>
      <trkpt lat="40.156817" lon="-4.901883">
        <ele>2266.0</ele>
        <time>2013-07-06T13:31:28Z</time>
      </trkpt>
      <trkpt lat="40.156750" lon="-4.901833">
        <ele>2267.0</ele>
        <time>2013-07-06T13:31:29Z</time>
      </trkpt>
      <trkpt lat="40.156650" lon="-4.901783">
        <ele>2268.0</ele>
        <time>2013-07-06T13:31:30Z</time>
      </trkpt>
      <trkpt lat="40.156567" lon="-4.901750">
        <ele>2268.0</ele>
        <time>2013-07-06T13:31:31Z</time>
      </trkpt>
      <trkpt lat="40.156450" lon="-4.901733">
        <ele>2269.0</ele>
        <time>2013-07-06T13:31:32Z</time>
      </trkpt>
      <trkpt lat="40.156350" lon="-4.901733">
        <ele>2270.0</ele>
        <time>2013-07-06T13:31:33Z</time>
      </trkpt>
      <trkpt lat="40.156250" lon="-4.901767">
        <ele>2271.0</ele>
        <time>2013-07-06T13:31:34Z</time>
      </trkpt>
      <trkpt lat="40.156150" lon="-4.901817">
        <ele>2270.0</ele>
        <time>2013-07-06T13:31:35Z</time>
      </trkpt>
      <trkpt lat="40.156050" lon="-4.901867">
        <ele>2270.0</ele>
        <time>2013-07-06T13:31:36Z</time>
      </trkpt>
      <trkpt lat="40.155933" lon="-4.901933">
        <ele>2269.0</ele>
        <time>2013-07-06T13:31:37Z</time>
      </trkpt>
      <trkpt lat="40.155833" lon="-4.902017">
        <ele>2268.0</ele>
        <time>2013-07-06T13:31:38Z</time>
      </trkpt>
      <trkpt lat="40.155733" lon="-4.902083">
        <ele>2269.0</ele>
        <time>2013-07-06T13:31:39Z</time>
      </trkpt>
      <trkpt lat="40.155650" lon="-4.902150">
        <ele>2269.0</ele>
        <time>2013-07-06T13:31:40Z</time>
      </trkpt>
      <trkpt lat="40.155550" lon="-4.902217">
        <ele>2268.0</ele>
        <time>2013-07-06T13:31:41Z</time>
      </trkpt>
      <trkpt lat="40.155450" lon="-4.902283">
        <ele>2268.0</ele>
        <time>2013-07-06T13:31:42Z</time>
      </trkpt>
      <trkpt lat="40.155367" lon="-4.902350">
        <ele>2268.0</ele>
        <time>2013-07-06T13:31:43Z</time>
      </trkpt>
      <trkpt lat="40.155267" lon="-4.902417">
        <ele>2268.0</ele>
        <time>2013-07-06T13:31:44Z</time>
      </trkpt>
      <trkpt lat="40.155183" lon="-4.902483">
        <ele>2268.0</ele>
        <time>2013-07-06T13:31:45Z</time>
      </trkpt>
      <trkpt lat="40.155083" lon="-4.902533">
        <ele>2267.0</ele>
        <time>2013-07-06T13:31:46Z</time>
      </trkpt>
      <trkpt lat="40.154967" lon="-4.902600">
        <ele>2266.0</ele>
        <time>2013-07-06T13:31:47Z</time>
      </trkpt>
      <trkpt lat="40.154850" lon="-4.902650">
        <ele>2266.0</ele>
        <time>2013-07-06T13:31:48Z</time>
      </trkpt>
      <trkpt lat="40.154750" lon="-4.902717">
        <ele>2266.0</ele>
        <time>2013-07-06T13:31:49Z</time>
      </trkpt>
      <trkpt lat="40.154650" lon="-4.902783">
        <ele>2266.0</ele>
        <time>2013-07-06T13:31:50Z</time>
      </trkpt>
      <trkpt lat="40.154550" lon="-4.902833">
        <ele>2265.0</ele>
        <time>2013-07-06T13:31:51Z</time>
      </trkpt>
      <trkpt lat="40.154450" lon="-4.902883">
        <ele>2264.0</ele>
        <time>2013-07-06T13:31:52Z</time>
      </trkpt>
      <trkpt lat="40.154350" lon="-4.902933">
        <ele>2261.0</ele>
        <time>2013-07-06T13:31:53Z</time>
      </trkpt>
      <trkpt lat="40.154233" lon="-4.902983">
        <ele>2258.0</ele>
        <time>2013-07-06T13:31:54Z</time>
      </trkpt>
      <trkpt lat="40.154133" lon="-4.903050">
        <ele>2256.0</ele>
        <time>2013-07-06T13:31:55Z</time>
      </trkpt>
      <trkpt lat="40.154033" lon="-4.903117">
        <ele>2254.0</ele>
        <time>2013-07-06T13:31:56Z</time>
      </trkpt>
      <trkpt lat="40.153933" lon="-4.903167">
        <ele>2252.0</ele>
        <time>2013-07-06T13:31:57Z</time>
      </trkpt>
      <trkpt lat="40.153833" lon="-4.903200">
        <ele>2251.0</ele>
        <time>2013-07-06T13:31:58Z</time>
      </trkpt>
      <trkpt lat="40.153733" lon="-4.903233">
        <ele>2249.0</ele>
        <time>2013-07-06T13:31:59Z</time>
      </trkpt>
      <trkpt lat="40.153617" lon="-4.903283">
        <ele>2247.0</ele>
        <time>2013-07-06T13:32:00Z</time>
      </trkpt>
      <trkpt lat="40.153517" lon="-4.903333">
        <ele>2245.0</ele>
        <time>2013-07-06T13:32:01Z</time>
      </trkpt>
      <trkpt lat="40.153417" lon="-4.903400">
        <ele>2243.0</ele>
        <time>2013-07-06T13:32:02Z</time>
      </trkpt>
      <trkpt lat="40.153317" lon="-4.903467">
        <ele>2242.0</ele>
        <time>2013-07-06T13:32:03Z</time>
      </trkpt>
      <trkpt lat="40.153200" lon="-4.903517">
        <ele>2240.0</ele>
        <time>2013-07-06T13:32:04Z</time>
      </trkpt>
      <trkpt lat="40.153100" lon="-4.903567">
        <ele>2239.0</ele>
        <time>2013-07-06T13:32:05Z</time>
      </trkpt>
      <trkpt lat="40.153000" lon="-4.903617">
        <ele>2238.0</ele>
        <time>2013-07-06T13:32:06Z</time>
      </trkpt>
      <trkpt lat="40.152900" lon="-4.903683">
        <ele>2237.0</ele>
        <time>2013-07-06T13:32:07Z</time>
      </trkpt>
      <trkpt lat="40.152800" lon="-4.903733">
        <ele>2235.0</ele>
        <time>2013-07-06T13:32:08Z</time>
      </trkpt>
      <trkpt lat="40.152683" lon="-4.903800">
        <ele>2234.0</ele>
        <time>2013-07-06T13:32:09Z</time>
      </trkpt>
      <trkpt lat="40.152583" lon="-4.903867">
        <ele>2232.0</ele>
        <time>2013-07-06T13:32:10Z</time>
      </trkpt>
      <trkpt lat="40.152483" lon="-4.903933">
        <ele>2231.0</ele>
        <time>2013-07-06T13:32:11Z</time>
      </trkpt>
      <trkpt lat="40.152383" lon="-4.904000">
        <ele>2230.0</ele>
        <time>2013-07-06T13:32:12Z</time>
      </trkpt>
      <trkpt lat="40.152283" lon="-4.904083">
        <ele>2229.0</ele>
        <time>2013-07-06T13:32:13Z</time>
      </trkpt>
      <trkpt lat="40.152183" lon="-4.904150">
        <ele>2227.0</ele>
        <time>2013-07-06T13:32:14Z</time>
      </trkpt>
      <trkpt lat="40.152100" lon="-4.904233">
        <ele>2226.0</ele>
        <time>2013-07-06T13:32:15Z</time>
      </trkpt>
      <trkpt lat="40.151900" lon="-4.904383">
        <ele>2223.0</ele>
        <time>2013-07-06T13:32:17Z</time>
      </trkpt>
      <trkpt lat="40.151800" lon="-4.904450">
        <ele>2221.0</ele>
        <time>2013-07-06T13:32:18Z</time>
      </trkpt>
      <trkpt lat="40.151700" lon="-4.904533">
        <ele>2220.0</ele>
        <time>2013-07-06T13:32:19Z</time>
      </trkpt>
      <trkpt lat="40.151517" lon="-4.904683">
        <ele>2218.0</ele>
        <time>2013-07-06T13:32:21Z</time>
      </trkpt>
      <trkpt lat="40.151417" lon="-4.904750">
        <ele>2216.0</ele>
        <time>2013-07-06T13:32:22Z</time>
      </trkpt>
      <trkpt lat="40.151317" lon="-4.904833">
        <ele>2214.0</ele>
        <time>2013-07-06T13:32:23Z</time>
      </trkpt>
      <trkpt lat="40.151233" lon="-4.904917">
        <ele>2213.0</ele>
        <time>2013-07-06T13:32:24Z</time>
      </trkpt>
      <trkpt lat="40.151133" lon="-4.905000">
        <ele>2211.0</ele>
        <time>2013-07-06T13:32:25Z</time>
      </trkpt>
      <trkpt lat="40.151050" lon="-4.905067">
        <ele>2210.0</ele>
        <time>2013-07-06T13:32:26Z</time>
      </trkpt>
      <trkpt lat="40.150950" lon="-4.905150">
        <ele>2208.0</ele>
        <time>2013-07-06T13:32:27Z</time>
      </trkpt>
      <trkpt lat="40.150867" lon="-4.905217">
        <ele>2207.0</ele>
        <time>2013-07-06T13:32:28Z</time>
      </trkpt>
      <trkpt lat="40.150767" lon="-4.905283">
        <ele>2205.0</ele>
        <time>2013-07-06T13:32:29Z</time>
      </trkpt>
      <trkpt lat="40.150683" lon="-4.905367">
        <ele>2203.0</ele>
        <time>2013-07-06T13:32:30Z</time>
      </trkpt>
      <trkpt lat="40.150583" lon="-4.905433">
        <ele>2201.0</ele>
        <time>2013-07-06T13:32:31Z</time>
      </trkpt>
      <trkpt lat="40.150417" lon="-4.905583">
        <ele>2198.0</ele>
        <time>2013-07-06T13:32:33Z</time>
      </trkpt>
      <trkpt lat="40.150333" lon="-4.905650">
        <ele>2196.0</ele>
        <time>2013-07-06T13:32:34Z</time>
      </trkpt>
      <trkpt lat="40.150250" lon="-4.905717">
        <ele>2195.0</ele>
        <time>2013-07-06T13:32:35Z</time>
      </trkpt>
      <trkpt lat="40.150167" lon="-4.905783">
        <ele>2193.0</ele>
        <time>2013-07-06T13:32:36Z</time>
      </trkpt>
      <trkpt lat="40.150067" lon="-4.905850">
        <ele>2191.0</ele>
        <time>2013-07-06T13:32:37Z</time>
      </trkpt>
      <trkpt lat="40.149983" lon="-4.905917">
        <ele>2190.0</ele>
        <time>2013-07-06T13:32:38Z</time>
      </trkpt>
      <trkpt lat="40.149900" lon="-4.906000">
        <ele>2189.0</ele>
        <time>2013-07-06T13:32:39Z</time>
      </trkpt>
      <trkpt lat="40.149833" lon="-4.906067">
        <ele>2188.0</ele>
        <time>2013-07-06T13:32:40Z</time>
      </trkpt>
      <trkpt lat="40.149750" lon="-4.906117">
        <ele>2188.0</ele>
        <time>2013-07-06T13:32:41Z</time>
      </trkpt>
      <trkpt lat="40.149667" lon="-4.906183">
        <ele>2186.0</ele>
        <time>2013-07-06T13:32:42Z</time>
      </trkpt>
      <trkpt lat="40.149583" lon="-4.906250">
        <ele>2185.0</ele>
        <time>2013-07-06T13:32:43Z</time>
      </trkpt>
      <trkpt lat="40.149500" lon="-4.906300">
        <ele>2184.0</ele>
        <time>2013-07-06T13:32:44Z</time>
      </trkpt>
      <trkpt lat="40.149400" lon="-4.906367">
        <ele>2183.0</ele>
        <time>2013-07-06T13:32:45Z</time>
      </trkpt>
      <trkpt lat="40.149317" lon="-4.906433">
        <ele>2182.0</ele>
        <time>2013-07-06T13:32:46Z</time>
      </trkpt>
      <trkpt lat="40.149233" lon="-4.906517">
        <ele>2180.0</ele>
        <time>2013-07-06T13:32:47Z</time>
      </trkpt>
      <trkpt lat="40.149133" lon="-4.906583">
        <ele>2178.0</ele>
        <time>2013-07-06T13:32:48Z</time>
      </trkpt>
      <trkpt lat="40.149050" lon="-4.906667">
        <ele>2177.0</ele>
        <time>2013-07-06T13:32:49Z</time>
      </trkpt>
      <trkpt lat="40.148967" lon="-4.906733">
        <ele>2176.0</ele>
        <time>2013-07-06T13:32:50Z</time>
      </trkpt>
      <trkpt lat="40.148800" lon="-4.906883">
        <ele>2173.0</ele>
        <time>2013-07-06T13:32:52Z</time>
      </trkpt>
      <trkpt lat="40.148717" lon="-4.906950">
        <ele>2172.0</ele>
        <time>2013-07-06T13:32:53Z</time>
      </trkpt>
      <trkpt lat="40.148617" lon="-4.907033">
        <ele>2170.0</ele>
        <time>2013-07-06T13:32:54Z</time>
      </trkpt>
      <trkpt lat="40.148533" lon="-4.907100">
        <ele>2169.0</ele>
        <time>2013-07-06T13:32:55Z</time>
      </trkpt>
      <trkpt lat="40.148433" lon="-4.907183">
        <ele>2168.0</ele>
        <time>2013-07-06T13:32:56Z</time>
      </trkpt>
      <trkpt lat="40.148350" lon="-4.907250">
        <ele>2167.0</ele>
        <time>2013-07-06T13:32:57Z</time>
      </trkpt>
      <trkpt lat="40.148267" lon="-4.907317">
        <ele>2167.0</ele>
        <time>2013-07-06T13:32:58Z</time>
      </trkpt>
      <trkpt lat="40.148183" lon="-4.907383">
        <ele>2166.0</ele>
        <time>2013-07-06T13:32:59Z</time>
      </trkpt>
      <trkpt lat="40.148083" lon="-4.907450">
        <ele>2165.0</ele>
        <time>2013-07-06T13:33:00Z</time>
      </trkpt>
      <trkpt lat="40.148000" lon="-4.907533">
        <ele>2164.0</ele>
        <time>2013-07-06T13:33:01Z</time>
      </trkpt>
      <trkpt lat="40.147933" lon="-4.907617">
        <ele>2164.0</ele>
        <time>2013-07-06T13:33:02Z</time>
      </trkpt>
      <trkpt lat="40.147867" lon="-4.907683">
        <ele>2163.0</ele>
        <time>2013-07-06T13:33:03Z</time>
      </trkpt>
      <trkpt lat="40.147800" lon="-4.907767">
        <ele>2161.0</ele>
        <time>2013-07-06T13:33:04Z</time>
      </trkpt>
      <trkpt lat="40.147717" lon="-4.907850">
        <ele>2160.0</ele>
        <time>2013-07-06T13:33:05Z</time>
      </trkpt>
      <trkpt lat="40.147633" lon="-4.907933">
        <ele>2158.0</ele>
        <time>2013-07-06T13:33:06Z</time>
      </trkpt>
      <trkpt lat="40.147550" lon="-4.908033">
        <ele>2156.0</ele>
        <time>2013-07-06T13:33:07Z</time>
      </trkpt>
      <trkpt lat="40.147483" lon="-4.908117">
        <ele>2154.0</ele>
        <time>2013-07-06T13:33:08Z</time>
      </trkpt>
      <trkpt lat="40.147400" lon="-4.908217">
        <ele>2153.0</ele>
        <time>2013-07-06T13:33:09Z</time>
      </trkpt>
      <trkpt lat="40.147317" lon="-4.908300">
        <ele>2152.0</ele>
        <time>2013-07-06T13:33:10Z</time>
      </trkpt>
      <trkpt lat="40.147150" lon="-4.908450">
        <ele>2150.0</ele>
        <time>2013-07-06T13:33:12Z</time>
      </trkpt>
      <trkpt lat="40.147067" lon="-4.908517">
        <ele>2148.0</ele>
        <time>2013-07-06T13:33:13Z</time>
      </trkpt>
      <trkpt lat="40.146983" lon="-4.908583">
        <ele>2147.0</ele>
        <time>2013-07-06T13:33:14Z</time>
      </trkpt>
      <trkpt lat="40.146900" lon="-4.908667">
        <ele>2145.0</ele>
        <time>2013-07-06T13:33:15Z</time>
      </trkpt>
      <trkpt lat="40.146667" lon="-4.908917">
        <ele>2139.0</ele>
        <time>2013-07-06T13:33:18Z</time>
      </trkpt>
      <trkpt lat="40.146583" lon="-4.909000">
        <ele>2137.0</ele>
        <time>2013-07-06T13:33:19Z</time>
      </trkpt>
      <trkpt lat="40.146417" lon="-4.909200">
        <ele>2132.0</ele>
        <time>2013-07-06T13:33:21Z</time>
      </trkpt>
      <trkpt lat="40.146333" lon="-4.909283">
        <ele>2130.0</ele>
        <time>2013-07-06T13:33:22Z</time>
      </trkpt>
      <trkpt lat="40.146233" lon="-4.909367">
        <ele>2128.0</ele>
        <time>2013-07-06T13:33:23Z</time>
      </trkpt>
      <trkpt lat="40.146150" lon="-4.909450">
        <ele>2126.0</ele>
        <time>2013-07-06T13:33:24Z</time>
      </trkpt>
      <trkpt lat="40.146067" lon="-4.909517">
        <ele>2124.0</ele>
        <time>2013-07-06T13:33:25Z</time>
      </trkpt>
      <trkpt lat="40.145967" lon="-4.909600">
        <ele>2122.0</ele>
        <time>2013-07-06T13:33:26Z</time>
      </trkpt>
      <trkpt lat="40.145867" lon="-4.909667">
        <ele>2120.0</ele>
        <time>2013-07-06T13:33:27Z</time>
      </trkpt>
      <trkpt lat="40.145783" lon="-4.909733">
        <ele>2117.0</ele>
        <time>2013-07-06T13:33:28Z</time>
      </trkpt>
      <trkpt lat="40.145683" lon="-4.909800">
        <ele>2115.0</ele>
        <time>2013-07-06T13:33:29Z</time>
      </trkpt>
      <trkpt lat="40.145583" lon="-4.909883">
        <ele>2112.0</ele>
        <time>2013-07-06T13:33:30Z</time>
      </trkpt>
      <trkpt lat="40.145500" lon="-4.909967">
        <ele>2109.0</ele>
        <time>2013-07-06T13:33:31Z</time>
      </trkpt>
      <trkpt lat="40.145400" lon="-4.910050">
        <ele>2106.0</ele>
        <time>2013-07-06T13:33:32Z</time>
      </trkpt>
      <trkpt lat="40.145317" lon="-4.910133">
        <ele>2103.0</ele>
        <time>2013-07-06T13:33:33Z</time>
      </trkpt>
      <trkpt lat="40.145217" lon="-4.910217">
        <ele>2100.0</ele>
        <time>2013-07-06T13:33:34Z</time>
      </trkpt>
      <trkpt lat="40.145133" lon="-4.910300">
        <ele>2098.0</ele>
        <time>2013-07-06T13:33:35Z</time>
      </trkpt>
      <trkpt lat="40.145033" lon="-4.910383">
        <ele>2095.0</ele>
        <time>2013-07-06T13:33:36Z</time>
      </trkpt>
      <trkpt lat="40.144950" lon="-4.910483">
        <ele>2092.0</ele>
        <time>2013-07-06T13:33:37Z</time>
      </trkpt>
      <trkpt lat="40.144850" lon="-4.910550">
        <ele>2090.0</ele>
        <time>2013-07-06T13:33:38Z</time>
      </trkpt>
      <trkpt lat="40.144750" lon="-4.910633">
        <ele>2087.0</ele>
        <time>2013-07-06T13:33:39Z</time>
      </trkpt>
      <trkpt lat="40.144650" lon="-4.910700">
        <ele>2084.0</ele>
        <time>2013-07-06T13:33:40Z</time>
      </trkpt>
      <trkpt lat="40.144567" lon="-4.910767">
        <ele>2082.0</ele>
        <time>2013-07-06T13:33:41Z</time>
      </trkpt>
      <trkpt lat="40.144483" lon="-4.910817">
        <ele>2080.0</ele>
        <time>2013-07-06T13:33:42Z</time>
      </trkpt>
      <trkpt lat="40.144383" lon="-4.910883">
        <ele>2077.0</ele>
        <time>2013-07-06T13:33:43Z</time>
      </trkpt>
      <trkpt lat="40.144300" lon="-4.910950">
        <ele>2073.0</ele>
        <time>2013-07-06T13:33:44Z</time>
      </trkpt>
      <trkpt lat="40.144200" lon="-4.911017">
        <ele>2069.0</ele>
        <time>2013-07-06T13:33:45Z</time>
      </trkpt>
      <trkpt lat="40.144000" lon="-4.911150">
        <ele>2062.0</ele>
        <time>2013-07-06T13:33:47Z</time>
      </trkpt>
      <trkpt lat="40.143900" lon="-4.911233">
        <ele>2059.0</ele>
        <time>2013-07-06T13:33:48Z</time>
      </trkpt>
      <trkpt lat="40.143817" lon="-4.911317">
        <ele>2056.0</ele>
        <time>2013-07-06T13:33:49Z</time>
      </trkpt>
      <trkpt lat="40.143733" lon="-4.911400">
        <ele>2053.0</ele>
        <time>2013-07-06T13:33:50Z</time>
      </trkpt>
      <trkpt lat="40.143650" lon="-4.911483">
        <ele>2050.0</ele>
        <time>2013-07-06T13:33:51Z</time>
      </trkpt>
      <trkpt lat="40.143567" lon="-4.911567">
        <ele>2047.0</ele>
        <time>2013-07-06T13:33:52Z</time>
      </trkpt>
      <trkpt lat="40.143467" lon="-4.911667">
        <ele>2044.0</ele>
        <time>2013-07-06T13:33:53Z</time>
      </trkpt>
      <trkpt lat="40.143383" lon="-4.911750">
        <ele>2041.0</ele>
        <time>2013-07-06T13:33:54Z</time>
      </trkpt>
      <trkpt lat="40.143283" lon="-4.911817">
        <ele>2038.0</ele>
        <time>2013-07-06T13:33:55Z</time>
      </trkpt>
      <trkpt lat="40.143200" lon="-4.911883">
        <ele>2036.0</ele>
        <time>2013-07-06T13:33:56Z</time>
      </trkpt>
      <trkpt lat="40.143117" lon="-4.911933">
        <ele>2035.0</ele>
        <time>2013-07-06T13:33:57Z</time>
      </trkpt>
      <trkpt lat="40.143033" lon="-4.912000">
        <ele>2033.0</ele>
        <time>2013-07-06T13:33:58Z</time>
      </trkpt>
      <trkpt lat="40.142950" lon="-4.912067">
        <ele>2030.0</ele>
        <time>2013-07-06T13:33:59Z</time>
      </trkpt>
      <trkpt lat="40.142867" lon="-4.912150">
        <ele>2027.0</ele>
        <time>2013-07-06T13:34:00Z</time>
      </trkpt>
      <trkpt lat="40.142767" lon="-4.912217">
        <ele>2024.0</ele>
        <time>2013-07-06T13:34:01Z</time>
      </trkpt>
      <trkpt lat="40.142683" lon="-4.912300">
        <ele>2022.0</ele>
        <time>2013-07-06T13:34:02Z</time>
      </trkpt>
      <trkpt lat="40.142583" lon="-4.912367">
        <ele>2020.0</ele>
        <time>2013-07-06T13:34:03Z</time>
      </trkpt>
      <trkpt lat="40.142500" lon="-4.912450">
        <ele>2019.0</ele>
        <time>2013-07-06T13:34:04Z</time>
      </trkpt>
      <trkpt lat="40.142417" lon="-4.912533">
        <ele>2017.0</ele>
        <time>2013-07-06T13:34:05Z</time>
      </trkpt>
      <trkpt lat="40.142250" lon="-4.912683">
        <ele>2014.0</ele>
        <time>2013-07-06T13:34:07Z</time>
      </trkpt>
      <trkpt lat="40.142167" lon="-4.912767">
        <ele>2013.0</ele>
        <time>2013-07-06T13:34:08Z</time>
      </trkpt>
      <trkpt lat="40.141983" lon="-4.912917">
        <ele>2009.0</ele>
        <time>2013-07-06T13:34:10Z</time>
      </trkpt>
      <trkpt lat="40.141883" lon="-4.913000">
        <ele>2007.0</ele>
        <time>2013-07-06T13:34:11Z</time>
      </trkpt>
      <trkpt lat="40.141800" lon="-4.913083">
        <ele>2005.0</ele>
        <time>2013-07-06T13:34:12Z</time>
      </trkpt>
      <trkpt lat="40.141700" lon="-4.913167">
        <ele>2004.0</ele>
        <time>2013-07-06T13:34:13Z</time>
      </trkpt>
      <trkpt lat="40.141617" lon="-4.913250">
        <ele>2003.0</ele>
        <time>2013-07-06T13:34:14Z</time>
      </trkpt>
      <trkpt lat="40.141533" lon="-4.913317">
        <ele>2002.0</ele>
        <time>2013-07-06T13:34:15Z</time>
      </trkpt>
      <trkpt lat="40.141450" lon="-4.913400">
        <ele>2001.0</ele>
        <time>2013-07-06T13:34:16Z</time>
      </trkpt>
      <trkpt lat="40.141350" lon="-4.913500">
        <ele>1998.0</ele>
        <time>2013-07-06T13:34:17Z</time>
      </trkpt>
      <trkpt lat="40.141250" lon="-4.913583">
        <ele>1996.0</ele>
        <time>2013-07-06T13:34:18Z</time>
      </trkpt>
      <trkpt lat="40.141067" lon="-4.913750">
        <ele>1994.0</ele>
        <time>2013-07-06T13:34:20Z</time>
      </trkpt>
      <trkpt lat="40.140983" lon="-4.913833">
        <ele>1994.0</ele>
        <time>2013-07-06T13:34:21Z</time>
      </trkpt>
      <trkpt lat="40.140900" lon="-4.913917">
        <ele>1992.0</ele>
        <time>2013-07-06T13:34:22Z</time>
      </trkpt>
      <trkpt lat="40.140800" lon="-4.914000">
        <ele>1991.0</ele>
        <time>2013-07-06T13:34:23Z</time>
      </trkpt>
      <trkpt lat="40.140700" lon="-4.914083">
        <ele>1989.0</ele>
        <time>2013-07-06T13:34:24Z</time>
      </trkpt>
      <trkpt lat="40.140600" lon="-4.914167">
        <ele>1988.0</ele>
        <time>2013-07-06T13:34:25Z</time>
      </trkpt>
      <trkpt lat="40.140517" lon="-4.914233">
        <ele>1987.0</ele>
        <time>2013-07-06T13:34:26Z</time>
      </trkpt>
      <trkpt lat="40.140433" lon="-4.914317">
        <ele>1986.0</ele>
        <time>2013-07-06T13:34:27Z</time>
      </trkpt>
      <trkpt lat="40.140333" lon="-4.914400">
        <ele>1985.0</ele>
        <time>2013-07-06T13:34:28Z</time>
      </trkpt>
      <trkpt lat="40.140250" lon="-4.914467">
        <ele>1984.0</ele>
        <time>2013-07-06T13:34:29Z</time>
      </trkpt>
      <trkpt lat="40.140150" lon="-4.914550">
        <ele>1982.0</ele>
        <time>2013-07-06T13:34:30Z</time>
      </trkpt>
      <trkpt lat="40.140050" lon="-4.914633">
        <ele>1980.0</ele>
        <time>2013-07-06T13:34:31Z</time>
      </trkpt>
      <trkpt lat="40.139967" lon="-4.914717">
        <ele>1979.0</ele>
        <time>2013-07-06T13:34:32Z</time>
      </trkpt>
      <trkpt lat="40.139867" lon="-4.914817">
        <ele>1979.0</ele>
        <time>2013-07-06T13:34:33Z</time>
      </trkpt>
      <trkpt lat="40.139783" lon="-4.914900">
        <ele>1978.0</ele>
        <time>2013-07-06T13:34:34Z</time>
      </trkpt>
      <trkpt lat="40.139700" lon="-4.914983">
        <ele>1977.0</ele>
        <time>2013-07-06T13:34:35Z</time>
      </trkpt>
      <trkpt lat="40.139617" lon="-4.915067">
        <ele>1976.0</ele>
        <time>2013-07-06T13:34:36Z</time>
      </trkpt>
      <trkpt lat="40.139517" lon="-4.915150">
        <ele>1975.0</ele>
        <time>2013-07-06T13:34:37Z</time>
      </trkpt>
      <trkpt lat="40.139417" lon="-4.915250">
        <ele>1973.0</ele>
        <time>2013-07-06T13:34:38Z</time>
      </trkpt>
      <trkpt lat="40.139333" lon="-4.915333">
        <ele>1971.0</ele>
        <time>2013-07-06T13:34:39Z</time>
      </trkpt>
      <trkpt lat="40.139250" lon="-4.915417">
        <ele>1970.0</ele>
        <time>2013-07-06T13:34:40Z</time>
      </trkpt>
      <trkpt lat="40.139150" lon="-4.915517">
        <ele>1970.0</ele>
        <time>2013-07-06T13:34:41Z</time>
      </trkpt>
      <trkpt lat="40.139067" lon="-4.915600">
        <ele>1969.0</ele>
        <time>2013-07-06T13:34:42Z</time>
      </trkpt>
      <trkpt lat="40.138967" lon="-4.915683">
        <ele>1968.0</ele>
        <time>2013-07-06T13:34:43Z</time>
      </trkpt>
      <trkpt lat="40.138883" lon="-4.915750">
        <ele>1968.0</ele>
        <time>2013-07-06T13:34:44Z</time>
      </trkpt>
      <trkpt lat="40.138783" lon="-4.915833">
        <ele>1967.0</ele>
        <time>2013-07-06T13:34:45Z</time>
      </trkpt>
      <trkpt lat="40.138683" lon="-4.915900">
        <ele>1967.0</ele>
        <time>2013-07-06T13:34:46Z</time>
      </trkpt>
      <trkpt lat="40.138600" lon="-4.915967">
        <ele>1967.0</ele>
        <time>2013-07-06T13:34:47Z</time>
      </trkpt>
      <trkpt lat="40.138517" lon="-4.916033">
        <ele>1967.0</ele>
        <time>2013-07-06T13:34:48Z</time>
      </trkpt>
      <trkpt lat="40.138417" lon="-4.916100">
        <ele>1966.0</ele>
        <time>2013-07-06T13:34:49Z</time>
      </trkpt>
      <trkpt lat="40.138333" lon="-4.916167">
        <ele>1965.0</ele>
        <time>2013-07-06T13:34:50Z</time>
      </trkpt>
      <trkpt lat="40.138233" lon="-4.916250">
        <ele>1964.0</ele>
        <time>2013-07-06T13:34:51Z</time>
      </trkpt>
      <trkpt lat="40.138150" lon="-4.916317">
        <ele>1964.0</ele>
        <time>2013-07-06T13:34:52Z</time>
      </trkpt>
      <trkpt lat="40.138067" lon="-4.916400">
        <ele>1963.0</ele>
        <time>2013-07-06T13:34:53Z</time>
      </trkpt>
      <trkpt lat="40.137983" lon="-4.916483">
        <ele>1962.0</ele>
        <time>2013-07-06T13:34:54Z</time>
      </trkpt>
      <trkpt lat="40.137900" lon="-4.916567">
        <ele>1960.0</ele>
        <time>2013-07-06T13:34:55Z</time>
      </trkpt>
      <trkpt lat="40.137800" lon="-4.916650">
        <ele>1959.0</ele>
        <time>2013-07-06T13:34:56Z</time>
      </trkpt>
      <trkpt lat="40.137717" lon="-4.916733">
        <ele>1958.0</ele>
        <time>2013-07-06T13:34:57Z</time>
      </trkpt>
      <trkpt lat="40.137667" lon="-4.916833">
        <ele>1959.0</ele>
        <time>2013-07-06T13:34:58Z</time>
      </trkpt>
      <trkpt lat="40.137600" lon="-4.916917">
        <ele>1959.0</ele>
        <time>2013-07-06T13:34:59Z</time>
      </trkpt>
      <trkpt lat="40.137533" lon="-4.917000">
        <ele>1958.0</ele>
        <time>2013-07-06T13:35:00Z</time>
      </trkpt>
      <trkpt lat="40.137467" lon="-4.917100">
        <ele>1957.0</ele>
        <time>2013-07-06T13:35:01Z</time>
      </trkpt>
      <trkpt lat="40.137383" lon="-4.917183">
        <ele>1956.0</ele>
        <time>2013-07-06T13:35:02Z</time>
      </trkpt>
      <trkpt lat="40.137300" lon="-4.917283">
        <ele>1955.0</ele>
        <time>2013-07-06T13:35:03Z</time>
      </trkpt>
      <trkpt lat="40.137233" lon="-4.917367">
        <ele>1954.0</ele>
        <time>2013-07-06T13:35:04Z</time>
      </trkpt>
      <trkpt lat="40.137150" lon="-4.917433">
        <ele>1954.0</ele>
        <time>2013-07-06T13:35:05Z</time>
      </trkpt>
      <trkpt lat="40.137083" lon="-4.917500">
        <ele>1953.0</ele>
        <time>2013-07-06T13:35:06Z</time>
      </trkpt>
      <trkpt lat="40.136917" lon="-4.917650">
        <ele>1949.0</ele>
        <time>2013-07-06T13:35:08Z</time>
      </trkpt>
      <trkpt lat="40.136817" lon="-4.917700">
        <ele>1947.0</ele>
        <time>2013-07-06T13:35:09Z</time>
      </trkpt>
      <trkpt lat="40.136733" lon="-4.917767">
        <ele>1945.0</ele>
        <time>2013-07-06T13:35:10Z</time>
      </trkpt>
      <trkpt lat="40.136633" lon="-4.917833">
        <ele>1944.0</ele>
        <time>2013-07-06T13:35:11Z</time>
      </trkpt>
      <trkpt lat="40.136550" lon="-4.917900">
        <ele>1943.0</ele>
        <time>2013-07-06T13:35:12Z</time>
      </trkpt>
      <trkpt lat="40.136467" lon="-4.917950">
        <ele>1943.0</ele>
        <time>2013-07-06T13:35:13Z</time>
      </trkpt>
      <trkpt lat="40.136367" lon="-4.918000">
        <ele>1942.0</ele>
        <time>2013-07-06T13:35:14Z</time>
      </trkpt>
      <trkpt lat="40.136267" lon="-4.918050">
        <ele>1941.0</ele>
        <time>2013-07-06T13:35:15Z</time>
      </trkpt>
      <trkpt lat="40.136167" lon="-4.918083">
        <ele>1940.0</ele>
        <time>2013-07-06T13:35:16Z</time>
      </trkpt>
      <trkpt lat="40.136067" lon="-4.918133">
        <ele>1939.0</ele>
        <time>2013-07-06T13:35:17Z</time>
      </trkpt>
      <trkpt lat="40.135967" lon="-4.918150">
        <ele>1938.0</ele>
        <time>2013-07-06T13:35:18Z</time>
      </trkpt>
      <trkpt lat="40.135883" lon="-4.918183">
        <ele>1938.0</ele>
        <time>2013-07-06T13:35:19Z</time>
      </trkpt>
      <trkpt lat="40.135817" lon="-4.918217">
        <ele>1937.0</ele>
        <time>2013-07-06T13:35:20Z</time>
      </trkpt>
      <trkpt lat="40.135733" lon="-4.918250">
        <ele>1936.0</ele>
        <time>2013-07-06T13:35:21Z</time>
      </trkpt>
      <trkpt lat="40.135650" lon="-4.918283">
        <ele>1935.0</ele>
        <time>2013-07-06T13:35:22Z</time>
      </trkpt>
      <trkpt lat="40.135550" lon="-4.918333">
        <ele>1933.0</ele>
        <time>2013-07-06T13:35:23Z</time>
      </trkpt>
      <trkpt lat="40.135467" lon="-4.918367">
        <ele>1932.0</ele>
        <time>2013-07-06T13:35:24Z</time>
      </trkpt>
      <trkpt lat="40.135383" lon="-4.918400">
        <ele>1931.0</ele>
        <time>2013-07-06T13:35:25Z</time>
      </trkpt>
      <trkpt lat="40.135300" lon="-4.918450">
        <ele>1931.0</ele>
        <time>2013-07-06T13:35:26Z</time>
      </trkpt>
      <trkpt lat="40.135217" lon="-4.918483">
        <ele>1931.0</ele>
        <time>2013-07-06T13:35:27Z</time>
      </trkpt>
      <trkpt lat="40.135133" lon="-4.918533">
        <ele>1930.0</ele>
        <time>2013-07-06T13:35:28Z</time>
      </trkpt>
      <trkpt lat="40.135033" lon="-4.918583">
        <ele>1929.0</ele>
        <time>2013-07-06T13:35:29Z</time>
      </trkpt>
      <trkpt lat="40.134950" lon="-4.918633">
        <ele>1928.0</ele>
        <time>2013-07-06T13:35:30Z</time>
      </trkpt>
      <trkpt lat="40.134867" lon="-4.918700">
        <ele>1927.0</ele>
        <time>2013-07-06T13:35:31Z</time>
      </trkpt>
      <trkpt lat="40.134783" lon="-4.918750">
        <ele>1926.0</ele>
        <time>2013-07-06T13:35:32Z</time>
      </trkpt>
      <trkpt lat="40.134700" lon="-4.918817">
        <ele>1925.0</ele>
        <time>2013-07-06T13:35:33Z</time>
      </trkpt>
      <trkpt lat="40.134617" lon="-4.918900">
        <ele>1922.0</ele>
        <time>2013-07-06T13:35:34Z</time>
      </trkpt>
      <trkpt lat="40.134533" lon="-4.918967">
        <ele>1920.0</ele>
        <time>2013-07-06T13:35:35Z</time>
      </trkpt>
      <trkpt lat="40.134450" lon="-4.919033">
        <ele>1919.0</ele>
        <time>2013-07-06T13:35:36Z</time>
      </trkpt>
      <trkpt lat="40.134350" lon="-4.919083">
        <ele>1917.0</ele>
        <time>2013-07-06T13:35:37Z</time>
      </trkpt>
      <trkpt lat="40.134267" lon="-4.919150">
        <ele>1915.0</ele>
        <time>2013-07-06T13:35:38Z</time>
      </trkpt>
      <trkpt lat="40.134183" lon="-4.919217">
        <ele>1914.0</ele>
        <time>2013-07-06T13:35:39Z</time>
      </trkpt>
      <trkpt lat="40.134100" lon="-4.919267">
        <ele>1913.0</ele>
        <time>2013-07-06T13:35:40Z</time>
      </trkpt>
      <trkpt lat="40.134033" lon="-4.919317">
        <ele>1912.0</ele>
        <time>2013-07-06T13:35:41Z</time>
      </trkpt>
      <trkpt lat="40.133950" lon="-4.919367">
        <ele>1911.0</ele>
        <time>2013-07-06T13:35:42Z</time>
      </trkpt>
      <trkpt lat="40.133867" lon="-4.919417">
        <ele>1909.0</ele>
        <time>2013-07-06T13:35:43Z</time>
      </trkpt>
      <trkpt lat="40.133767" lon="-4.919467">
        <ele>1908.0</ele>
        <time>2013-07-06T13:35:44Z</time>
      </trkpt>
      <trkpt lat="40.133683" lon="-4.919517">
        <ele>1906.0</ele>
        <time>2013-07-06T13:35:45Z</time>
      </trkpt>
      <trkpt lat="40.133583" lon="-4.919567">
        <ele>1904.0</ele>
        <time>2013-07-06T13:35:46Z</time>
      </trkpt>
      <trkpt lat="40.133500" lon="-4.919633">
        <ele>1902.0</ele>
        <time>2013-07-06T13:35:47Z</time>
      </trkpt>
      <trkpt lat="40.133417" lon="-4.919683">
        <ele>1901.0</ele>
        <time>2013-07-06T13:35:48Z</time>
      </trkpt>
      <trkpt lat="40.133333" lon="-4.919733">
        <ele>1899.0</ele>
        <time>2013-07-06T13:35:49Z</time>
      </trkpt>
      <trkpt lat="40.133250" lon="-4.919783">
        <ele>1897.0</ele>
        <time>2013-07-06T13:35:50Z</time>
      </trkpt>
      <trkpt lat="40.133150" lon="-4.919833">
        <ele>1895.0</ele>
        <time>2013-07-06T13:35:51Z</time>
      </trkpt>
      <trkpt lat="40.132950" lon="-4.919933">
        <ele>1891.0</ele>
        <time>2013-07-06T13:35:53Z</time>
      </trkpt>
      <trkpt lat="40.132750" lon="-4.920017">
        <ele>1886.0</ele>
        <time>2013-07-06T13:35:55Z</time>
      </trkpt>
      <trkpt lat="40.132650" lon="-4.920050">
        <ele>1884.0</ele>
        <time>2013-07-06T13:35:56Z</time>
      </trkpt>
      <trkpt lat="40.132550" lon="-4.920100">
        <ele>1882.0</ele>
        <time>2013-07-06T13:35:57Z</time>
      </trkpt>
      <trkpt lat="40.132467" lon="-4.920150">
        <ele>1880.0</ele>
        <time>2013-07-06T13:35:58Z</time>
      </trkpt>
      <trkpt lat="40.132367" lon="-4.920200">
        <ele>1878.0</ele>
        <time>2013-07-06T13:35:59Z</time>
      </trkpt>
      <trkpt lat="40.132283" lon="-4.920250">
        <ele>1876.0</ele>
        <time>2013-07-06T13:36:00Z</time>
      </trkpt>
      <trkpt lat="40.132183" lon="-4.920300">
        <ele>1874.0</ele>
        <time>2013-07-06T13:36:01Z</time>
      </trkpt>
      <trkpt lat="40.132100" lon="-4.920367">
        <ele>1872.0</ele>
        <time>2013-07-06T13:36:02Z</time>
      </trkpt>
      <trkpt lat="40.132000" lon="-4.920433">
        <ele>1869.0</ele>
        <time>2013-07-06T13:36:03Z</time>
      </trkpt>
      <trkpt lat="40.131817" lon="-4.920550">
        <ele>1866.0</ele>
        <time>2013-07-06T13:36:05Z</time>
      </trkpt>
      <trkpt lat="40.131733" lon="-4.920617">
        <ele>1864.0</ele>
        <time>2013-07-06T13:36:06Z</time>
      </trkpt>
      <trkpt lat="40.131550" lon="-4.920717">
        <ele>1859.0</ele>
        <time>2013-07-06T13:36:08Z</time>
      </trkpt>
      <trkpt lat="40.131450" lon="-4.920767">
        <ele>1856.0</ele>
        <time>2013-07-06T13:36:09Z</time>
      </trkpt>
      <trkpt lat="40.131350" lon="-4.920817">
        <ele>1854.0</ele>
        <time>2013-07-06T13:36:10Z</time>
      </trkpt>
      <trkpt lat="40.131250" lon="-4.920883">
        <ele>1851.0</ele>
        <time>2013-07-06T13:36:11Z</time>
      </trkpt>
      <trkpt lat="40.131150" lon="-4.920933">
        <ele>1849.0</ele>
        <time>2013-07-06T13:36:12Z</time>
      </trkpt>
      <trkpt lat="40.131050" lon="-4.920983">
        <ele>1847.0</ele>
        <time>2013-07-06T13:36:13Z</time>
      </trkpt>
      <trkpt lat="40.130967" lon="-4.921033">
        <ele>1845.0</ele>
        <time>2013-07-06T13:36:14Z</time>
      </trkpt>
      <trkpt lat="40.130867" lon="-4.921083">
        <ele>1842.0</ele>
        <time>2013-07-06T13:36:15Z</time>
      </trkpt>
      <trkpt lat="40.130750" lon="-4.921133">
        <ele>1840.0</ele>
        <time>2013-07-06T13:36:16Z</time>
      </trkpt>
      <trkpt lat="40.130650" lon="-4.921183">
        <ele>1837.0</ele>
        <time>2013-07-06T13:36:17Z</time>
      </trkpt>
      <trkpt lat="40.130550" lon="-4.921250">
        <ele>1835.0</ele>
        <time>2013-07-06T13:36:18Z</time>
      </trkpt>
      <trkpt lat="40.130433" lon="-4.921300">
        <ele>1833.0</ele>
        <time>2013-07-06T13:36:19Z</time>
      </trkpt>
      <trkpt lat="40.130333" lon="-4.921350">
        <ele>1831.0</ele>
        <time>2013-07-06T13:36:20Z</time>
      </trkpt>
      <trkpt lat="40.130233" lon="-4.921400">
        <ele>1829.0</ele>
        <time>2013-07-06T13:36:21Z</time>
      </trkpt>
      <trkpt lat="40.130133" lon="-4.921467">
        <ele>1827.0</ele>
        <time>2013-07-06T13:36:22Z</time>
      </trkpt>
      <trkpt lat="40.130017" lon="-4.921533">
        <ele>1825.0</ele>
        <time>2013-07-06T13:36:23Z</time>
      </trkpt>
      <trkpt lat="40.129917" lon="-4.921583">
        <ele>1823.0</ele>
        <time>2013-07-06T13:36:24Z</time>
      </trkpt>
      <trkpt lat="40.129800" lon="-4.921650">
        <ele>1822.0</ele>
        <time>2013-07-06T13:36:25Z</time>
      </trkpt>
      <trkpt lat="40.129700" lon="-4.921700">
        <ele>1821.0</ele>
        <time>2013-07-06T13:36:26Z</time>
      </trkpt>
      <trkpt lat="40.129600" lon="-4.921750">
        <ele>1820.0</ele>
        <time>2013-07-06T13:36:27Z</time>
      </trkpt>
      <trkpt lat="40.129483" lon="-4.921800">
        <ele>1818.0</ele>
        <time>2013-07-06T13:36:28Z</time>
      </trkpt>
      <trkpt lat="40.129383" lon="-4.921867">
        <ele>1816.0</ele>
        <time>2013-07-06T13:36:29Z</time>
      </trkpt>
      <trkpt lat="40.129267" lon="-4.921917">
        <ele>1813.0</ele>
        <time>2013-07-06T13:36:30Z</time>
      </trkpt>
      <trkpt lat="40.129150" lon="-4.921967">
        <ele>1811.0</ele>
        <time>2013-07-06T13:36:31Z</time>
      </trkpt>
      <trkpt lat="40.129033" lon="-4.922033">
        <ele>1809.0</ele>
        <time>2013-07-06T13:36:32Z</time>
      </trkpt>
      <trkpt lat="40.128933" lon="-4.922100">
        <ele>1807.0</ele>
        <time>2013-07-06T13:36:33Z</time>
      </trkpt>
      <trkpt lat="40.128833" lon="-4.922167">
        <ele>1805.0</ele>
        <time>2013-07-06T13:36:34Z</time>
      </trkpt>
      <trkpt lat="40.128733" lon="-4.922233">
        <ele>1803.0</ele>
        <time>2013-07-06T13:36:35Z</time>
      </trkpt>
      <trkpt lat="40.128617" lon="-4.922300">
        <ele>1801.0</ele>
        <time>2013-07-06T13:36:36Z</time>
      </trkpt>
      <trkpt lat="40.128517" lon="-4.922350">
        <ele>1799.0</ele>
        <time>2013-07-06T13:36:37Z</time>
      </trkpt>
      <trkpt lat="40.128400" lon="-4.922400">
        <ele>1798.0</ele>
        <time>2013-07-06T13:36:38Z</time>
      </trkpt>
      <trkpt lat="40.128300" lon="-4.922433">
        <ele>1797.0</ele>
        <time>2013-07-06T13:36:39Z</time>
      </trkpt>
      <trkpt lat="40.128200" lon="-4.922500">
        <ele>1796.0</ele>
        <time>2013-07-06T13:36:40Z</time>
      </trkpt>
      <trkpt lat="40.128100" lon="-4.922567">
        <ele>1794.0</ele>
        <time>2013-07-06T13:36:41Z</time>
      </trkpt>
      <trkpt lat="40.128000" lon="-4.922633">
        <ele>1791.0</ele>
        <time>2013-07-06T13:36:42Z</time>
      </trkpt>
      <trkpt lat="40.127900" lon="-4.922717">
        <ele>1789.0</ele>
        <time>2013-07-06T13:36:43Z</time>
      </trkpt>
      <trkpt lat="40.127617" lon="-4.922917">
        <ele>1787.0</ele>
        <time>2013-07-06T13:36:46Z</time>
      </trkpt>
      <trkpt lat="40.127533" lon="-4.922967">
        <ele>1786.0</ele>
        <time>2013-07-06T13:36:47Z</time>
      </trkpt>
      <trkpt lat="40.127333" lon="-4.923083">
        <ele>1783.0</ele>
        <time>2013-07-06T13:36:49Z</time>
      </trkpt>
      <trkpt lat="40.127233" lon="-4.923150">
        <ele>1781.0</ele>
        <time>2013-07-06T13:36:50Z</time>
      </trkpt>
      <trkpt lat="40.127150" lon="-4.923200">
        <ele>1780.0</ele>
        <time>2013-07-06T13:36:51Z</time>
      </trkpt>
      <trkpt lat="40.127050" lon="-4.923267">
        <ele>1779.0</ele>
        <time>2013-07-06T13:36:52Z</time>
      </trkpt>
      <trkpt lat="40.126967" lon="-4.923317">
        <ele>1778.0</ele>
        <time>2013-07-06T13:36:53Z</time>
      </trkpt>
      <trkpt lat="40.126883" lon="-4.923383">
        <ele>1777.0</ele>
        <time>2013-07-06T13:36:54Z</time>
      </trkpt>
      <trkpt lat="40.126783" lon="-4.923450">
        <ele>1776.0</ele>
        <time>2013-07-06T13:36:55Z</time>
      </trkpt>
      <trkpt lat="40.126683" lon="-4.923517">
        <ele>1775.0</ele>
        <time>2013-07-06T13:36:56Z</time>
      </trkpt>
      <trkpt lat="40.126600" lon="-4.923567">
        <ele>1774.0</ele>
        <time>2013-07-06T13:36:57Z</time>
      </trkpt>
      <trkpt lat="40.126533" lon="-4.923617">
        <ele>1774.0</ele>
        <time>2013-07-06T13:36:58Z</time>
      </trkpt>
      <trkpt lat="40.126450" lon="-4.923667">
        <ele>1773.0</ele>
        <time>2013-07-06T13:36:59Z</time>
      </trkpt>
      <trkpt lat="40.126367" lon="-4.923733">
        <ele>1771.0</ele>
        <time>2013-07-06T13:37:00Z</time>
      </trkpt>
      <trkpt lat="40.126283" lon="-4.923800">
        <ele>1770.0</ele>
        <time>2013-07-06T13:37:01Z</time>
      </trkpt>
      <trkpt lat="40.126200" lon="-4.923867">
        <ele>1768.0</ele>
        <time>2013-07-06T13:37:02Z</time>
      </trkpt>
      <trkpt lat="40.126117" lon="-4.923933">
        <ele>1767.0</ele>
        <time>2013-07-06T13:37:03Z</time>
      </trkpt>
      <trkpt lat="40.126033" lon="-4.924000">
        <ele>1766.0</ele>
        <time>2013-07-06T13:37:04Z</time>
      </trkpt>
      <trkpt lat="40.125950" lon="-4.924067">
        <ele>1765.0</ele>
        <time>2013-07-06T13:37:05Z</time>
      </trkpt>
      <trkpt lat="40.125867" lon="-4.924133">
        <ele>1763.0</ele>
        <time>2013-07-06T13:37:06Z</time>
      </trkpt>
      <trkpt lat="40.125783" lon="-4.924217">
        <ele>1762.0</ele>
        <time>2013-07-06T13:37:07Z</time>
      </trkpt>
      <trkpt lat="40.125700" lon="-4.924283">
        <ele>1761.0</ele>
        <time>2013-07-06T13:37:08Z</time>
      </trkpt>
      <trkpt lat="40.125617" lon="-4.924350">
        <ele>1760.0</ele>
        <time>2013-07-06T13:37:09Z</time>
      </trkpt>
      <trkpt lat="40.125550" lon="-4.924433">
        <ele>1759.0</ele>
        <time>2013-07-06T13:37:10Z</time>
      </trkpt>
      <trkpt lat="40.125467" lon="-4.924500">
        <ele>1758.0</ele>
        <time>2013-07-06T13:37:11Z</time>
      </trkpt>
      <trkpt lat="40.125367" lon="-4.924583">
        <ele>1756.0</ele>
        <time>2013-07-06T13:37:12Z</time>
      </trkpt>
      <trkpt lat="40.125283" lon="-4.924650">
        <ele>1756.0</ele>
        <time>2013-07-06T13:37:13Z</time>
      </trkpt>
      <trkpt lat="40.125217" lon="-4.924700">
        <ele>1755.0</ele>
        <time>2013-07-06T13:37:14Z</time>
      </trkpt>
      <trkpt lat="40.125133" lon="-4.924767">
        <ele>1755.0</ele>
        <time>2013-07-06T13:37:15Z</time>
      </trkpt>
      <trkpt lat="40.125050" lon="-4.924817">
        <ele>1754.0</ele>
        <time>2013-07-06T13:37:16Z</time>
      </trkpt>
      <trkpt lat="40.124983" lon="-4.924883">
        <ele>1753.0</ele>
        <time>2013-07-06T13:37:17Z</time>
      </trkpt>
      <trkpt lat="40.124900" lon="-4.924933">
        <ele>1751.0</ele>
        <time>2013-07-06T13:37:18Z</time>
      </trkpt>
      <trkpt lat="40.124833" lon="-4.925000">
        <ele>1747.0</ele>
        <time>2013-07-06T13:37:19Z</time>
      </trkpt>
      <trkpt lat="40.124750" lon="-4.925083">
        <ele>1744.0</ele>
        <time>2013-07-06T13:37:20Z</time>
      </trkpt>
      <trkpt lat="40.124667" lon="-4.925150">
        <ele>1740.0</ele>
        <time>2013-07-06T13:37:21Z</time>
      </trkpt>
      <trkpt lat="40.124500" lon="-4.925300">
        <ele>1735.0</ele>
        <time>2013-07-06T13:37:23Z</time>
      </trkpt>
      <trkpt lat="40.124317" lon="-4.925467">
        <ele>1730.0</ele>
        <time>2013-07-06T13:37:25Z</time>
      </trkpt>
      <trkpt lat="40.124233" lon="-4.925550">
        <ele>1729.0</ele>
        <time>2013-07-06T13:37:26Z</time>
      </trkpt>
      <trkpt lat="40.124167" lon="-4.925633">
        <ele>1729.0</ele>
        <time>2013-07-06T13:37:27Z</time>
      </trkpt>
      <trkpt lat="40.124100" lon="-4.925717">
        <ele>1730.0</ele>
        <time>2013-07-06T13:37:28Z</time>
      </trkpt>
      <trkpt lat="40.124033" lon="-4.925800">
        <ele>1729.0</ele>
        <time>2013-07-06T13:37:29Z</time>
      </trkpt>
      <trkpt lat="40.123967" lon="-4.925883">
        <ele>1729.0</ele>
        <time>2013-07-06T13:37:30Z</time>
      </trkpt>
      <trkpt lat="40.123883" lon="-4.925983">
        <ele>1727.0</ele>
        <time>2013-07-06T13:37:31Z</time>
      </trkpt>
      <trkpt lat="40.123817" lon="-4.926100">
        <ele>1725.0</ele>
        <time>2013-07-06T13:37:32Z</time>
      </trkpt>
      <trkpt lat="40.123733" lon="-4.926217">
        <ele>1723.0</ele>
        <time>2013-07-06T13:37:33Z</time>
      </trkpt>
      <trkpt lat="40.123650" lon="-4.926317">
        <ele>1722.0</ele>
        <time>2013-07-06T13:37:34Z</time>
      </trkpt>
      <trkpt lat="40.123583" lon="-4.926433">
        <ele>1721.0</ele>
        <time>2013-07-06T13:37:35Z</time>
      </trkpt>
      <trkpt lat="40.123517" lon="-4.926550">
        <ele>1720.0</ele>
        <time>2013-07-06T13:37:36Z</time>
      </trkpt>
      <trkpt lat="40.123433" lon="-4.926650">
        <ele>1719.0</ele>
        <time>2013-07-06T13:37:37Z</time>
      </trkpt>
      <trkpt lat="40.123350" lon="-4.926767">
        <ele>1718.0</ele>
        <time>2013-07-06T13:37:38Z</time>
      </trkpt>
      <trkpt lat="40.123267" lon="-4.926867">
        <ele>1717.0</ele>
        <time>2013-07-06T13:37:39Z</time>
      </trkpt>
      <trkpt lat="40.123100" lon="-4.927050">
        <ele>1716.0</ele>
        <time>2013-07-06T13:37:41Z</time>
      </trkpt>
      <trkpt lat="40.123033" lon="-4.927150">
        <ele>1715.0</ele>
        <time>2013-07-06T13:37:42Z</time>
      </trkpt>
      <trkpt lat="40.122933" lon="-4.927250">
        <ele>1714.0</ele>
        <time>2013-07-06T13:37:43Z</time>
      </trkpt>
      <trkpt lat="40.122850" lon="-4.927350">
        <ele>1713.0</ele>
        <time>2013-07-06T13:37:44Z</time>
      </trkpt>
      <trkpt lat="40.122767" lon="-4.927433">
        <ele>1712.0</ele>
        <time>2013-07-06T13:37:45Z</time>
      </trkpt>
      <trkpt lat="40.122683" lon="-4.927533">
        <ele>1711.0</ele>
        <time>2013-07-06T13:37:46Z</time>
      </trkpt>
      <trkpt lat="40.122600" lon="-4.927617">
        <ele>1711.0</ele>
        <time>2013-07-06T13:37:47Z</time>
      </trkpt>
      <trkpt lat="40.122517" lon="-4.927700">
        <ele>1711.0</ele>
        <time>2013-07-06T13:37:48Z</time>
      </trkpt>
      <trkpt lat="40.122433" lon="-4.927783">
        <ele>1710.0</ele>
        <time>2013-07-06T13:37:49Z</time>
      </trkpt>
      <trkpt lat="40.122350" lon="-4.927867">
        <ele>1710.0</ele>
        <time>2013-07-06T13:37:50Z</time>
      </trkpt>
      <trkpt lat="40.122267" lon="-4.927950">
        <ele>1709.0</ele>
        <time>2013-07-06T13:37:51Z</time>
      </trkpt>
      <trkpt lat="40.122183" lon="-4.928033">
        <ele>1709.0</ele>
        <time>2013-07-06T13:37:52Z</time>
      </trkpt>
      <trkpt lat="40.122100" lon="-4.928133">
        <ele>1708.0</ele>
        <time>2013-07-06T13:37:53Z</time>
      </trkpt>
      <trkpt lat="40.122017" lon="-4.928217">
        <ele>1708.0</ele>
        <time>2013-07-06T13:37:54Z</time>
      </trkpt>
      <trkpt lat="40.121933" lon="-4.928317">
        <ele>1707.0</ele>
        <time>2013-07-06T13:37:55Z</time>
      </trkpt>
      <trkpt lat="40.121850" lon="-4.928417">
        <ele>1706.0</ele>
        <time>2013-07-06T13:37:56Z</time>
      </trkpt>
      <trkpt lat="40.121767" lon="-4.928500">
        <ele>1706.0</ele>
        <time>2013-07-06T13:37:57Z</time>
      </trkpt>
      <trkpt lat="40.121683" lon="-4.928583">
        <ele>1706.0</ele>
        <time>2013-07-06T13:37:58Z</time>
      </trkpt>
      <trkpt lat="40.121617" lon="-4.928667">
        <ele>1706.0</ele>
        <time>2013-07-06T13:37:59Z</time>
      </trkpt>
      <trkpt lat="40.121533" lon="-4.928750">
        <ele>1705.0</ele>
        <time>2013-07-06T13:38:00Z</time>
      </trkpt>
      <trkpt lat="40.121450" lon="-4.928833">
        <ele>1705.0</ele>
        <time>2013-07-06T13:38:01Z</time>
      </trkpt>
      <trkpt lat="40.121367" lon="-4.928917">
        <ele>1705.0</ele>
        <time>2013-07-06T13:38:02Z</time>
      </trkpt>
      <trkpt lat="40.121300" lon="-4.929000">
        <ele>1706.0</ele>
        <time>2013-07-06T13:38:03Z</time>
      </trkpt>
      <trkpt lat="40.121217" lon="-4.929100">
        <ele>1706.0</ele>
        <time>2013-07-06T13:38:04Z</time>
      </trkpt>
      <trkpt lat="40.121150" lon="-4.929200">
        <ele>1706.0</ele>
        <time>2013-07-06T13:38:05Z</time>
      </trkpt>
      <trkpt lat="40.121067" lon="-4.929300">
        <ele>1706.0</ele>
        <time>2013-07-06T13:38:06Z</time>
      </trkpt>
      <trkpt lat="40.121000" lon="-4.929383">
        <ele>1705.0</ele>
        <time>2013-07-06T13:38:07Z</time>
      </trkpt>
      <trkpt lat="40.120917" lon="-4.929483">
        <ele>1704.0</ele>
        <time>2013-07-06T13:38:08Z</time>
      </trkpt>
      <trkpt lat="40.120850" lon="-4.929567">
        <ele>1703.0</ele>
        <time>2013-07-06T13:38:09Z</time>
      </trkpt>
      <trkpt lat="40.120767" lon="-4.929667">
        <ele>1702.0</ele>
        <time>2013-07-06T13:38:10Z</time>
      </trkpt>
      <trkpt lat="40.120700" lon="-4.929767">
        <ele>1701.0</ele>
        <time>2013-07-06T13:38:11Z</time>
      </trkpt>
      <trkpt lat="40.120633" lon="-4.929867">
        <ele>1699.0</ele>
        <time>2013-07-06T13:38:12Z</time>
      </trkpt>
      <trkpt lat="40.120550" lon="-4.929983">
        <ele>1697.0</ele>
        <time>2013-07-06T13:38:13Z</time>
      </trkpt>
      <trkpt lat="40.120467" lon="-4.930083">
        <ele>1695.0</ele>
        <time>2013-07-06T13:38:14Z</time>
      </trkpt>
      <trkpt lat="40.120383" lon="-4.930200">
        <ele>1693.0</ele>
        <time>2013-07-06T13:38:15Z</time>
      </trkpt>
      <trkpt lat="40.120283" lon="-4.930300">
        <ele>1692.0</ele>
        <time>2013-07-06T13:38:16Z</time>
      </trkpt>
      <trkpt lat="40.120217" lon="-4.930400">
        <ele>1692.0</ele>
        <time>2013-07-06T13:38:17Z</time>
      </trkpt>
      <trkpt lat="40.120133" lon="-4.930483">
        <ele>1692.0</ele>
        <time>2013-07-06T13:38:18Z</time>
      </trkpt>
      <trkpt lat="40.120050" lon="-4.930583">
        <ele>1691.0</ele>
        <time>2013-07-06T13:38:19Z</time>
      </trkpt>
      <trkpt lat="40.119967" lon="-4.930683">
        <ele>1689.0</ele>
        <time>2013-07-06T13:38:20Z</time>
      </trkpt>
      <trkpt lat="40.119883" lon="-4.930800">
        <ele>1687.0</ele>
        <time>2013-07-06T13:38:21Z</time>
      </trkpt>
      <trkpt lat="40.119800" lon="-4.930900">
        <ele>1687.0</ele>
        <time>2013-07-06T13:38:22Z</time>
      </trkpt>
      <trkpt lat="40.119750" lon="-4.931000">
        <ele>1687.0</ele>
        <time>2013-07-06T13:38:23Z</time>
      </trkpt>
      <trkpt lat="40.119683" lon="-4.931083">
        <ele>1688.0</ele>
        <time>2013-07-06T13:38:24Z</time>
      </trkpt>
      <trkpt lat="40.119633" lon="-4.931150">
        <ele>1686.0</ele>
        <time>2013-07-06T13:38:25Z</time>
      </trkpt>
      <trkpt lat="40.119550" lon="-4.931250">
        <ele>1684.0</ele>
        <time>2013-07-06T13:38:26Z</time>
      </trkpt>
      <trkpt lat="40.119467" lon="-4.931333">
        <ele>1681.0</ele>
        <time>2013-07-06T13:38:27Z</time>
      </trkpt>
      <trkpt lat="40.119383" lon="-4.931450">
        <ele>1679.0</ele>
        <time>2013-07-06T13:38:28Z</time>
      </trkpt>
      <trkpt lat="40.119300" lon="-4.931533">
        <ele>1678.0</ele>
        <time>2013-07-06T13:38:29Z</time>
      </trkpt>
      <trkpt lat="40.119233" lon="-4.931617">
        <ele>1679.0</ele>
        <time>2013-07-06T13:38:30Z</time>
      </trkpt>
      <trkpt lat="40.119167" lon="-4.931683">
        <ele>1679.0</ele>
        <time>2013-07-06T13:38:31Z</time>
      </trkpt>
      <trkpt lat="40.119100" lon="-4.931750">
        <ele>1678.0</ele>
        <time>2013-07-06T13:38:32Z</time>
      </trkpt>
      <trkpt lat="40.119017" lon="-4.931817">
        <ele>1677.0</ele>
        <time>2013-07-06T13:38:33Z</time>
      </trkpt>
      <trkpt lat="40.118933" lon="-4.931883">
        <ele>1676.0</ele>
        <time>2013-07-06T13:38:34Z</time>
      </trkpt>
      <trkpt lat="40.118833" lon="-4.931967">
        <ele>1675.0</ele>
        <time>2013-07-06T13:38:35Z</time>
      </trkpt>
      <trkpt lat="40.118733" lon="-4.932033">
        <ele>1676.0</ele>
        <time>2013-07-06T13:38:36Z</time>
      </trkpt>
      <trkpt lat="40.118650" lon="-4.932100">
        <ele>1679.0</ele>
        <time>2013-07-06T13:38:37Z</time>
      </trkpt>
      <trkpt lat="40.118583" lon="-4.932150">
        <ele>1681.0</ele>
        <time>2013-07-06T13:38:38Z</time>
      </trkpt>
      <trkpt lat="40.118517" lon="-4.932200">
        <ele>1681.0</ele>
        <time>2013-07-06T13:38:39Z</time>
      </trkpt>
      <trkpt lat="40.118433" lon="-4.932250">
        <ele>1681.0</ele>
        <time>2013-07-06T13:38:40Z</time>
      </trkpt>
      <trkpt lat="40.118350" lon="-4.932283">
        <ele>1681.0</ele>
        <time>2013-07-06T13:38:41Z</time>
      </trkpt>
      <trkpt lat="40.118250" lon="-4.932317">
        <ele>1680.0</ele>
        <time>2013-07-06T13:38:42Z</time>
      </trkpt>
      <trkpt lat="40.118150" lon="-4.932367">
        <ele>1680.0</ele>
        <time>2013-07-06T13:38:43Z</time>
      </trkpt>
      <trkpt lat="40.118067" lon="-4.932400">
        <ele>1682.0</ele>
        <time>2013-07-06T13:38:44Z</time>
      </trkpt>
      <trkpt lat="40.118017" lon="-4.932450">
        <ele>1684.0</ele>
        <time>2013-07-06T13:38:45Z</time>
      </trkpt>
      <trkpt lat="40.117950" lon="-4.932500">
        <ele>1685.0</ele>
        <time>2013-07-06T13:38:46Z</time>
      </trkpt>
      <trkpt lat="40.117900" lon="-4.932550">
        <ele>1684.0</ele>
        <time>2013-07-06T13:38:47Z</time>
      </trkpt>
      <trkpt lat="40.117817" lon="-4.932583">
        <ele>1684.0</ele>
        <time>2013-07-06T13:38:48Z</time>
      </trkpt>
      <trkpt lat="40.117717" lon="-4.932617">
        <ele>1683.0</ele>
        <time>2013-07-06T13:38:49Z</time>
      </trkpt>
      <trkpt lat="40.117633" lon="-4.932650">
        <ele>1683.0</ele>
        <time>2013-07-06T13:38:50Z</time>
      </trkpt>
      <trkpt lat="40.117567" lon="-4.932700">
        <ele>1685.0</ele>
        <time>2013-07-06T13:38:51Z</time>
      </trkpt>
      <trkpt lat="40.117500" lon="-4.932733">
        <ele>1685.0</ele>
        <time>2013-07-06T13:38:52Z</time>
      </trkpt>
      <trkpt lat="40.117433" lon="-4.932783">
        <ele>1686.0</ele>
        <time>2013-07-06T13:38:53Z</time>
      </trkpt>
      <trkpt lat="40.117350" lon="-4.932833">
        <ele>1685.0</ele>
        <time>2013-07-06T13:38:54Z</time>
      </trkpt>
      <trkpt lat="40.117267" lon="-4.932900">
        <ele>1686.0</ele>
        <time>2013-07-06T13:38:55Z</time>
      </trkpt>
      <trkpt lat="40.117200" lon="-4.932950">
        <ele>1687.0</ele>
        <time>2013-07-06T13:38:56Z</time>
      </trkpt>
      <trkpt lat="40.117117" lon="-4.932983">
        <ele>1688.0</ele>
        <time>2013-07-06T13:38:57Z</time>
      </trkpt>
      <trkpt lat="40.117067" lon="-4.933017">
        <ele>1690.0</ele>
        <time>2013-07-06T13:38:58Z</time>
      </trkpt>
      <trkpt lat="40.117000" lon="-4.933050">
        <ele>1692.0</ele>
        <time>2013-07-06T13:38:59Z</time>
      </trkpt>
      <trkpt lat="40.116950" lon="-4.933100">
        <ele>1692.0</ele>
        <time>2013-07-06T13:39:00Z</time>
      </trkpt>
      <trkpt lat="40.116883" lon="-4.933150">
        <ele>1692.0</ele>
        <time>2013-07-06T13:39:01Z</time>
      </trkpt>
      <trkpt lat="40.116817" lon="-4.933183">
        <ele>1692.0</ele>
        <time>2013-07-06T13:39:02Z</time>
      </trkpt>
      <trkpt lat="40.116733" lon="-4.933217">
        <ele>1691.0</ele>
        <time>2013-07-06T13:39:03Z</time>
      </trkpt>
      <trkpt lat="40.116667" lon="-4.933250">
        <ele>1691.0</ele>
        <time>2013-07-06T13:39:04Z</time>
      </trkpt>
      <trkpt lat="40.116600" lon="-4.933300">
        <ele>1691.0</ele>
        <time>2013-07-06T13:39:05Z</time>
      </trkpt>
      <trkpt lat="40.116400" lon="-4.933550">
        <ele>1690.0</ele>
        <time>2013-07-06T13:39:08Z</time>
      </trkpt>
      <trkpt lat="40.116350" lon="-4.933667">
        <ele>1690.0</ele>
        <time>2013-07-06T13:39:09Z</time>
      </trkpt>
      <trkpt lat="40.116300" lon="-4.933800">
        <ele>1689.0</ele>
        <time>2013-07-06T13:39:10Z</time>
      </trkpt>
      <trkpt lat="40.116233" lon="-4.934067">
        <ele>1689.0</ele>
        <time>2013-07-06T13:39:12Z</time>
      </trkpt>
      <trkpt lat="40.116217" lon="-4.934217">
        <ele>1688.0</ele>
        <time>2013-07-06T13:39:13Z</time>
      </trkpt>
      <trkpt lat="40.116200" lon="-4.934350">
        <ele>1688.0</ele>
        <time>2013-07-06T13:39:14Z</time>
      </trkpt>
      <trkpt lat="40.116233" lon="-4.934667">
        <ele>1687.0</ele>
        <time>2013-07-06T13:39:16Z</time>
      </trkpt>
      <trkpt lat="40.116250" lon="-4.934817">
        <ele>1687.0</ele>
        <time>2013-07-06T13:39:17Z</time>
      </trkpt>
      <trkpt lat="40.116283" lon="-4.934967">
        <ele>1687.0</ele>
        <time>2013-07-06T13:39:18Z</time>
      </trkpt>
      <trkpt lat="40.116317" lon="-4.935100">
        <ele>1687.0</ele>
        <time>2013-07-06T13:39:19Z</time>
      </trkpt>
      <trkpt lat="40.116367" lon="-4.935233">
        <ele>1687.0</ele>
        <time>2013-07-06T13:39:20Z</time>
      </trkpt>
      <trkpt lat="40.116417" lon="-4.935350">
        <ele>1688.0</ele>
        <time>2013-07-06T13:39:21Z</time>
      </trkpt>
      <trkpt lat="40.116483" lon="-4.935483">
        <ele>1688.0</ele>
        <time>2013-07-06T13:39:22Z</time>
      </trkpt>
      <trkpt lat="40.116550" lon="-4.935600">
        <ele>1687.0</ele>
        <time>2013-07-06T13:39:23Z</time>
      </trkpt>
      <trkpt lat="40.116617" lon="-4.935717">
        <ele>1687.0</ele>
        <time>2013-07-06T13:39:24Z</time>
      </trkpt>
      <trkpt lat="40.116683" lon="-4.935817">
        <ele>1686.0</ele>
        <time>2013-07-06T13:39:25Z</time>
      </trkpt>
      <trkpt lat="40.116783" lon="-4.935900">
        <ele>1685.0</ele>
        <time>2013-07-06T13:39:26Z</time>
      </trkpt>
      <trkpt lat="40.116883" lon="-4.935967">
        <ele>1683.0</ele>
        <time>2013-07-06T13:39:27Z</time>
      </trkpt>
      <trkpt lat="40.117150" lon="-4.936067">
        <ele>1681.0</ele>
        <time>2013-07-06T13:39:30Z</time>
      </trkpt>
      <trkpt lat="40.117233" lon="-4.936050">
        <ele>1681.0</ele>
        <time>2013-07-06T13:39:31Z</time>
      </trkpt>
      <trkpt lat="40.117283" lon="-4.936033">
        <ele>1681.0</ele>
        <time>2013-07-06T13:39:32Z</time>
      </trkpt>
      <trkpt lat="40.117350" lon="-4.935983">
        <ele>1680.0</ele>
        <time>2013-07-06T13:39:33Z</time>
      </trkpt>
      <trkpt lat="40.117383" lon="-4.935933">
        <ele>1680.0</ele>
        <time>2013-07-06T13:39:34Z</time>
      </trkpt>
      <trkpt lat="40.117417" lon="-4.935867">
        <ele>1679.0</ele>
        <time>2013-07-06T13:39:35Z</time>
      </trkpt>
      <trkpt lat="40.117433" lon="-4.935817">
        <ele>1679.0</ele>
        <time>2013-07-06T13:39:36Z</time>
      </trkpt>
      <trkpt lat="40.117450" lon="-4.935750">
        <ele>1679.0</ele>
        <time>2013-07-06T13:39:37Z</time>
      </trkpt>
      <trkpt lat="40.117450" lon="-4.935683">
        <ele>1679.0</ele>
        <time>2013-07-06T13:39:38Z</time>
      </trkpt>
      <trkpt lat="40.117450" lon="-4.935633">
        <ele>1679.0</ele>
        <time>2013-07-06T13:39:39Z</time>
      </trkpt>
      <trkpt lat="40.117450" lon="-4.935567">
        <ele>1679.0</ele>
        <time>2013-07-06T13:39:40Z</time>
      </trkpt>
      <trkpt lat="40.117450" lon="-4.935517">
        <ele>1679.0</ele>
        <time>2013-07-06T13:39:41Z</time>
      </trkpt>
      <trkpt lat="40.117433" lon="-4.935467">
        <ele>1679.0</ele>
        <time>2013-07-06T13:39:42Z</time>
      </trkpt>
      <trkpt lat="40.117433" lon="-4.935417">
        <ele>1679.0</ele>
        <time>2013-07-06T13:39:43Z</time>
      </trkpt>
      <trkpt lat="40.117417" lon="-4.935350">
        <ele>1678.0</ele>
        <time>2013-07-06T13:39:44Z</time>
      </trkpt>
      <trkpt lat="40.117400" lon="-4.935283">
        <ele>1678.0</ele>
        <time>2013-07-06T13:39:45Z</time>
      </trkpt>
      <trkpt lat="40.117383" lon="-4.935217">
        <ele>1679.0</ele>
        <time>2013-07-06T13:39:46Z</time>
      </trkpt>
      <trkpt lat="40.117367" lon="-4.935167">
        <ele>1680.0</ele>
        <time>2013-07-06T13:39:47Z</time>
      </trkpt>
      <trkpt lat="40.117333" lon="-4.935117">
        <ele>1681.0</ele>
        <time>2013-07-06T13:39:48Z</time>
      </trkpt>
      <trkpt lat="40.117317" lon="-4.935083">
        <ele>1682.0</ele>
        <time>2013-07-06T13:39:49Z</time>
      </trkpt>
      <trkpt lat="40.117283" lon="-4.935033">
        <ele>1682.0</ele>
        <time>2013-07-06T13:39:50Z</time>
      </trkpt>
      <trkpt lat="40.117250" lon="-4.934967">
        <ele>1683.0</ele>
        <time>2013-07-06T13:39:51Z</time>
      </trkpt>
      <trkpt lat="40.117217" lon="-4.934933">
        <ele>1683.0</ele>
        <time>2013-07-06T13:39:52Z</time>
      </trkpt>
      <trkpt lat="40.117167" lon="-4.934900">
        <ele>1684.0</ele>
        <time>2013-07-06T13:39:53Z</time>
      </trkpt>
      <trkpt lat="40.117117" lon="-4.934883">
        <ele>1685.0</ele>
        <time>2013-07-06T13:39:54Z</time>
      </trkpt>
      <trkpt lat="40.117033" lon="-4.934883">
        <ele>1685.0</ele>
        <time>2013-07-06T13:39:55Z</time>
      </trkpt>
      <trkpt lat="40.116967" lon="-4.934917">
        <ele>1685.0</ele>
        <time>2013-07-06T13:39:56Z</time>
      </trkpt>
      <trkpt lat="40.116883" lon="-4.934950">
        <ele>1685.0</ele>
        <time>2013-07-06T13:39:57Z</time>
      </trkpt>
      <trkpt lat="40.116817" lon="-4.935017">
        <ele>1687.0</ele>
        <time>2013-07-06T13:39:58Z</time>
      </trkpt>
      <trkpt lat="40.116750" lon="-4.935100">
        <ele>1688.0</ele>
        <time>2013-07-06T13:39:59Z</time>
      </trkpt>
      <trkpt lat="40.116683" lon="-4.935200">
        <ele>1689.0</ele>
        <time>2013-07-06T13:40:00Z</time>
      </trkpt>
      <trkpt lat="40.116617" lon="-4.935317">
        <ele>1689.0</ele>
        <time>2013-07-06T13:40:01Z</time>
      </trkpt>
      <trkpt lat="40.116567" lon="-4.935467">
        <ele>1689.0</ele>
        <time>2013-07-06T13:40:02Z</time>
      </trkpt>
      <trkpt lat="40.116533" lon="-4.935633">
        <ele>1689.0</ele>
        <time>2013-07-06T13:40:03Z</time>
      </trkpt>
      <trkpt lat="40.116533" lon="-4.935783">
        <ele>1690.0</ele>
        <time>2013-07-06T13:40:04Z</time>
      </trkpt>
      <trkpt lat="40.116550" lon="-4.935917">
        <ele>1691.0</ele>
        <time>2013-07-06T13:40:05Z</time>
      </trkpt>
      <trkpt lat="40.116567" lon="-4.936050">
        <ele>1692.0</ele>
        <time>2013-07-06T13:40:06Z</time>
      </trkpt>
      <trkpt lat="40.116600" lon="-4.936183">
        <ele>1693.0</ele>
        <time>2013-07-06T13:40:07Z</time>
      </trkpt>
      <trkpt lat="40.116650" lon="-4.936317">
        <ele>1693.0</ele>
        <time>2013-07-06T13:40:08Z</time>
      </trkpt>
      <trkpt lat="40.116700" lon="-4.936433">
        <ele>1693.0</ele>
        <time>2013-07-06T13:40:09Z</time>
      </trkpt>
      <trkpt lat="40.116783" lon="-4.936533">
        <ele>1694.0</ele>
        <time>2013-07-06T13:40:10Z</time>
      </trkpt>
      <trkpt lat="40.116867" lon="-4.936600">
        <ele>1693.0</ele>
        <time>2013-07-06T13:40:11Z</time>
      </trkpt>
      <trkpt lat="40.116950" lon="-4.936633">
        <ele>1692.0</ele>
        <time>2013-07-06T13:40:12Z</time>
      </trkpt>
      <trkpt lat="40.117033" lon="-4.936650">
        <ele>1693.0</ele>
        <time>2013-07-06T13:40:13Z</time>
      </trkpt>
      <trkpt lat="40.117150" lon="-4.936633">
        <ele>1694.0</ele>
        <time>2013-07-06T13:40:15Z</time>
      </trkpt>
      <trkpt lat="40.117217" lon="-4.936583">
        <ele>1694.0</ele>
        <time>2013-07-06T13:40:16Z</time>
      </trkpt>
      <trkpt lat="40.117250" lon="-4.936533">
        <ele>1694.0</ele>
        <time>2013-07-06T13:40:17Z</time>
      </trkpt>
      <trkpt lat="40.117283" lon="-4.936467">
        <ele>1694.0</ele>
        <time>2013-07-06T13:40:18Z</time>
      </trkpt>
      <trkpt lat="40.117300" lon="-4.936400">
        <ele>1693.0</ele>
        <time>2013-07-06T13:40:19Z</time>
      </trkpt>
      <trkpt lat="40.117283" lon="-4.936333">
        <ele>1693.0</ele>
        <time>2013-07-06T13:40:20Z</time>
      </trkpt>
      <trkpt lat="40.117267" lon="-4.936283">
        <ele>1693.0</ele>
        <time>2013-07-06T13:40:21Z</time>
      </trkpt>
      <trkpt lat="40.117217" lon="-4.936250">
        <ele>1694.0</ele>
        <time>2013-07-06T13:40:22Z</time>
      </trkpt>
      <trkpt lat="40.117183" lon="-4.936217">
        <ele>1695.0</ele>
        <time>2013-07-06T13:40:23Z</time>
      </trkpt>
      <trkpt lat="40.117083" lon="-4.936200">
        <ele>1696.0</ele>
        <time>2013-07-06T13:40:25Z</time>
      </trkpt>
      <trkpt lat="40.117033" lon="-4.936183">
        <ele>1695.0</ele>
        <time>2013-07-06T13:40:26Z</time>
      </trkpt>
      <trkpt lat="40.116950" lon="-4.936183">
        <ele>1695.0</ele>
        <time>2013-07-06T13:40:27Z</time>
      </trkpt>
      <trkpt lat="40.116883" lon="-4.936200">
        <ele>1694.0</ele>
        <time>2013-07-06T13:40:28Z</time>
      </trkpt>
      <trkpt lat="40.116800" lon="-4.936233">
        <ele>1694.0</ele>
        <time>2013-07-06T13:40:29Z</time>
      </trkpt>
      <trkpt lat="40.116700" lon="-4.936300">
        <ele>1693.0</ele>
        <time>2013-07-06T13:40:30Z</time>
      </trkpt>
      <trkpt lat="40.116617" lon="-4.936350">
        <ele>1693.0</ele>
        <time>2013-07-06T13:40:31Z</time>
      </trkpt>
      <trkpt lat="40.116533" lon="-4.936433">
        <ele>1692.0</ele>
        <time>2013-07-06T13:40:32Z</time>
      </trkpt>
      <trkpt lat="40.116450" lon="-4.936533">
        <ele>1693.0</ele>
        <time>2013-07-06T13:40:33Z</time>
      </trkpt>
      <trkpt lat="40.116383" lon="-4.936650">
        <ele>1693.0</ele>
        <time>2013-07-06T13:40:34Z</time>
      </trkpt>
      <trkpt lat="40.116333" lon="-4.936783">
        <ele>1694.0</ele>
        <time>2013-07-06T13:40:35Z</time>
      </trkpt>
      <trkpt lat="40.116283" lon="-4.936917">
        <ele>1694.0</ele>
        <time>2013-07-06T13:40:36Z</time>
      </trkpt>
      <trkpt lat="40.116233" lon="-4.937067">
        <ele>1694.0</ele>
        <time>2013-07-06T13:40:37Z</time>
      </trkpt>
      <trkpt lat="40.116200" lon="-4.937233">
        <ele>1694.0</ele>
        <time>2013-07-06T13:40:38Z</time>
      </trkpt>
      <trkpt lat="40.116200" lon="-4.937400">
        <ele>1695.0</ele>
        <time>2013-07-06T13:40:39Z</time>
      </trkpt>
      <trkpt lat="40.116200" lon="-4.937550">
        <ele>1695.0</ele>
        <time>2013-07-06T13:40:40Z</time>
      </trkpt>
      <trkpt lat="40.116233" lon="-4.937700">
        <ele>1696.0</ele>
        <time>2013-07-06T13:40:41Z</time>
      </trkpt>
      <trkpt lat="40.116267" lon="-4.937850">
        <ele>1696.0</ele>
        <time>2013-07-06T13:40:42Z</time>
      </trkpt>
      <trkpt lat="40.116300" lon="-4.937983">
        <ele>1696.0</ele>
        <time>2013-07-06T13:40:43Z</time>
      </trkpt>
      <trkpt lat="40.116367" lon="-4.938117">
        <ele>1695.0</ele>
        <time>2013-07-06T13:40:44Z</time>
      </trkpt>
      <trkpt lat="40.116433" lon="-4.938233">
        <ele>1695.0</ele>
        <time>2013-07-06T13:40:45Z</time>
      </trkpt>
      <trkpt lat="40.116517" lon="-4.938317">
        <ele>1694.0</ele>
        <time>2013-07-06T13:40:46Z</time>
      </trkpt>
      <trkpt lat="40.116600" lon="-4.938383">
        <ele>1693.0</ele>
        <time>2013-07-06T13:40:47Z</time>
      </trkpt>
      <trkpt lat="40.116683" lon="-4.938417">
        <ele>1693.0</ele>
        <time>2013-07-06T13:40:48Z</time>
      </trkpt>
      <trkpt lat="40.116750" lon="-4.938417">
        <ele>1693.0</ele>
        <time>2013-07-06T13:40:49Z</time>
      </trkpt>
      <trkpt lat="40.116883" lon="-4.938383">
        <ele>1692.0</ele>
        <time>2013-07-06T13:40:51Z</time>
      </trkpt>
      <trkpt lat="40.116933" lon="-4.938333">
        <ele>1692.0</ele>
        <time>2013-07-06T13:40:52Z</time>
      </trkpt>
      <trkpt lat="40.116967" lon="-4.938283">
        <ele>1692.0</ele>
        <time>2013-07-06T13:40:53Z</time>
      </trkpt>
      <trkpt lat="40.116983" lon="-4.938233">
        <ele>1691.0</ele>
        <time>2013-07-06T13:40:54Z</time>
      </trkpt>
      <trkpt lat="40.116983" lon="-4.938167">
        <ele>1691.0</ele>
        <time>2013-07-06T13:40:55Z</time>
      </trkpt>
      <trkpt lat="40.116967" lon="-4.938117">
        <ele>1691.0</ele>
        <time>2013-07-06T13:40:56Z</time>
      </trkpt>
      <trkpt lat="40.116950" lon="-4.938050">
        <ele>1691.0</ele>
        <time>2013-07-06T13:40:57Z</time>
      </trkpt>
      <trkpt lat="40.116900" lon="-4.938017">
        <ele>1691.0</ele>
        <time>2013-07-06T13:40:58Z</time>
      </trkpt>
      <trkpt lat="40.116850" lon="-4.937983">
        <ele>1691.0</ele>
        <time>2013-07-06T13:40:59Z</time>
      </trkpt>
      <trkpt lat="40.116783" lon="-4.937967">
        <ele>1691.0</ele>
        <time>2013-07-06T13:41:00Z</time>
      </trkpt>
      <trkpt lat="40.116717" lon="-4.937933">
        <ele>1691.0</ele>
        <time>2013-07-06T13:41:01Z</time>
      </trkpt>
      <trkpt lat="40.116633" lon="-4.937933">
        <ele>1691.0</ele>
        <time>2013-07-06T13:41:02Z</time>
      </trkpt>
      <trkpt lat="40.116550" lon="-4.937917">
        <ele>1691.0</ele>
        <time>2013-07-06T13:41:03Z</time>
      </trkpt>
      <trkpt lat="40.116483" lon="-4.937917">
        <ele>1691.0</ele>
        <time>2013-07-06T13:41:04Z</time>
      </trkpt>
      <trkpt lat="40.116400" lon="-4.937917">
        <ele>1691.0</ele>
        <time>2013-07-06T13:41:05Z</time>
      </trkpt>
      <trkpt lat="40.116333" lon="-4.937917">
        <ele>1691.0</ele>
        <time>2013-07-06T13:41:06Z</time>
      </trkpt>
      <trkpt lat="40.116250" lon="-4.937933">
        <ele>1692.0</ele>
        <time>2013-07-06T13:41:07Z</time>
      </trkpt>
      <trkpt lat="40.116183" lon="-4.937933">
        <ele>1692.0</ele>
        <time>2013-07-06T13:41:08Z</time>
      </trkpt>
      <trkpt lat="40.116100" lon="-4.937950">
        <ele>1693.0</ele>
        <time>2013-07-06T13:41:09Z</time>
      </trkpt>
      <trkpt lat="40.116017" lon="-4.937967">
        <ele>1693.0</ele>
        <time>2013-07-06T13:41:10Z</time>
      </trkpt>
      <trkpt lat="40.115950" lon="-4.937983">
        <ele>1693.0</ele>
        <time>2013-07-06T13:41:11Z</time>
      </trkpt>
      <trkpt lat="40.115867" lon="-4.938017">
        <ele>1693.0</ele>
        <time>2013-07-06T13:41:12Z</time>
      </trkpt>
      <trkpt lat="40.115783" lon="-4.938033">
        <ele>1693.0</ele>
        <time>2013-07-06T13:41:13Z</time>
      </trkpt>
      <trkpt lat="40.115683" lon="-4.938067">
        <ele>1692.0</ele>
        <time>2013-07-06T13:41:14Z</time>
      </trkpt>
      <trkpt lat="40.115600" lon="-4.938100">
        <ele>1691.0</ele>
        <time>2013-07-06T13:41:15Z</time>
      </trkpt>
      <trkpt lat="40.115517" lon="-4.938133">
        <ele>1690.0</ele>
        <time>2013-07-06T13:41:16Z</time>
      </trkpt>
      <trkpt lat="40.115433" lon="-4.938167">
        <ele>1690.0</ele>
        <time>2013-07-06T13:41:17Z</time>
      </trkpt>
      <trkpt lat="40.115350" lon="-4.938200">
        <ele>1689.0</ele>
        <time>2013-07-06T13:41:18Z</time>
      </trkpt>
      <trkpt lat="40.115250" lon="-4.938217">
        <ele>1689.0</ele>
        <time>2013-07-06T13:41:19Z</time>
      </trkpt>
      <trkpt lat="40.115183" lon="-4.938250">
        <ele>1689.0</ele>
        <time>2013-07-06T13:41:20Z</time>
      </trkpt>
      <trkpt lat="40.115117" lon="-4.938283">
        <ele>1690.0</ele>
        <time>2013-07-06T13:41:21Z</time>
      </trkpt>
      <trkpt lat="40.115050" lon="-4.938333">
        <ele>1691.0</ele>
        <time>2013-07-06T13:41:22Z</time>
      </trkpt>
      <trkpt lat="40.115000" lon="-4.938367">
        <ele>1690.0</ele>
        <time>2013-07-06T13:41:23Z</time>
      </trkpt>
      <trkpt lat="40.114917" lon="-4.938417">
        <ele>1689.0</ele>
        <time>2013-07-06T13:41:24Z</time>
      </trkpt>
      <trkpt lat="40.114850" lon="-4.938450">
        <ele>1687.0</ele>
        <time>2013-07-06T13:41:25Z</time>
      </trkpt>
      <trkpt lat="40.114767" lon="-4.938500">
        <ele>1685.0</ele>
        <time>2013-07-06T13:41:26Z</time>
      </trkpt>
      <trkpt lat="40.114683" lon="-4.938533">
        <ele>1684.0</ele>
        <time>2013-07-06T13:41:27Z</time>
      </trkpt>
      <trkpt lat="40.114600" lon="-4.938583">
        <ele>1683.0</ele>
        <time>2013-07-06T13:41:28Z</time>
      </trkpt>
      <trkpt lat="40.114517" lon="-4.938633">
        <ele>1683.0</ele>
        <time>2013-07-06T13:41:29Z</time>
      </trkpt>
      <trkpt lat="40.114433" lon="-4.938683">
        <ele>1683.0</ele>
        <time>2013-07-06T13:41:30Z</time>
      </trkpt>
      <trkpt lat="40.114367" lon="-4.938733">
        <ele>1683.0</ele>
        <time>2013-07-06T13:41:31Z</time>
      </trkpt>
      <trkpt lat="40.114317" lon="-4.938767">
        <ele>1683.0</ele>
        <time>2013-07-06T13:41:32Z</time>
      </trkpt>
      <trkpt lat="40.114250" lon="-4.938783">
        <ele>1682.0</ele>
        <time>2013-07-06T13:41:33Z</time>
      </trkpt>
      <trkpt lat="40.114167" lon="-4.938817">
        <ele>1681.0</ele>
        <time>2013-07-06T13:41:34Z</time>
      </trkpt>
      <trkpt lat="40.114083" lon="-4.938850">
        <ele>1679.0</ele>
        <time>2013-07-06T13:41:35Z</time>
      </trkpt>
      <trkpt lat="40.114000" lon="-4.938883">
        <ele>1678.0</ele>
        <time>2013-07-06T13:41:36Z</time>
      </trkpt>
      <trkpt lat="40.113933" lon="-4.938917">
        <ele>1678.0</ele>
        <time>2013-07-06T13:41:37Z</time>
      </trkpt>
      <trkpt lat="40.113883" lon="-4.938950">
        <ele>1678.0</ele>
        <time>2013-07-06T13:41:38Z</time>
      </trkpt>
      <trkpt lat="40.113833" lon="-4.938967">
        <ele>1676.0</ele>
        <time>2013-07-06T13:41:39Z</time>
      </trkpt>
      <trkpt lat="40.113750" lon="-4.939000">
        <ele>1673.0</ele>
        <time>2013-07-06T13:41:40Z</time>
      </trkpt>
      <trkpt lat="40.113667" lon="-4.939033">
        <ele>1670.0</ele>
        <time>2013-07-06T13:41:41Z</time>
      </trkpt>
      <trkpt lat="40.113567" lon="-4.939067">
        <ele>1667.0</ele>
        <time>2013-07-06T13:41:42Z</time>
      </trkpt>
      <trkpt lat="40.113483" lon="-4.939100">
        <ele>1665.0</ele>
        <time>2013-07-06T13:41:43Z</time>
      </trkpt>
      <trkpt lat="40.113400" lon="-4.939150">
        <ele>1664.0</ele>
        <time>2013-07-06T13:41:44Z</time>
      </trkpt>
      <trkpt lat="40.113333" lon="-4.939183">
        <ele>1663.0</ele>
        <time>2013-07-06T13:41:45Z</time>
      </trkpt>
      <trkpt lat="40.113267" lon="-4.939217">
        <ele>1662.0</ele>
        <time>2013-07-06T13:41:46Z</time>
      </trkpt>
      <trkpt lat="40.113183" lon="-4.939250">
        <ele>1660.0</ele>
        <time>2013-07-06T13:41:47Z</time>
      </trkpt>
      <trkpt lat="40.113100" lon="-4.939300">
        <ele>1659.0</ele>
        <time>2013-07-06T13:41:48Z</time>
      </trkpt>
      <trkpt lat="40.113017" lon="-4.939333">
        <ele>1657.0</ele>
        <time>2013-07-06T13:41:49Z</time>
      </trkpt>
      <trkpt lat="40.112950" lon="-4.939367">
        <ele>1656.0</ele>
        <time>2013-07-06T13:41:50Z</time>
      </trkpt>
      <trkpt lat="40.112883" lon="-4.939417">
        <ele>1655.0</ele>
        <time>2013-07-06T13:41:51Z</time>
      </trkpt>
      <trkpt lat="40.112817" lon="-4.939450">
        <ele>1654.0</ele>
        <time>2013-07-06T13:41:52Z</time>
      </trkpt>
      <trkpt lat="40.112733" lon="-4.939483">
        <ele>1652.0</ele>
        <time>2013-07-06T13:41:53Z</time>
      </trkpt>
      <trkpt lat="40.112667" lon="-4.939517">
        <ele>1650.0</ele>
        <time>2013-07-06T13:41:54Z</time>
      </trkpt>
      <trkpt lat="40.112583" lon="-4.939550">
        <ele>1648.0</ele>
        <time>2013-07-06T13:41:55Z</time>
      </trkpt>
      <trkpt lat="40.112517" lon="-4.939567">
        <ele>1646.0</ele>
        <time>2013-07-06T13:41:56Z</time>
      </trkpt>
      <trkpt lat="40.112433" lon="-4.939583">
        <ele>1644.0</ele>
        <time>2013-07-06T13:41:57Z</time>
      </trkpt>
      <trkpt lat="40.112367" lon="-4.939583">
        <ele>1641.0</ele>
        <time>2013-07-06T13:41:58Z</time>
      </trkpt>
      <trkpt lat="40.112300" lon="-4.939600">
        <ele>1639.0</ele>
        <time>2013-07-06T13:41:59Z</time>
      </trkpt>
      <trkpt lat="40.112233" lon="-4.939633">
        <ele>1637.0</ele>
        <time>2013-07-06T13:42:00Z</time>
      </trkpt>
      <trkpt lat="40.112167" lon="-4.939650">
        <ele>1634.0</ele>
        <time>2013-07-06T13:42:01Z</time>
      </trkpt>
      <trkpt lat="40.112100" lon="-4.939667">
        <ele>1632.0</ele>
        <time>2013-07-06T13:42:02Z</time>
      </trkpt>
      <trkpt lat="40.112050" lon="-4.939700">
        <ele>1631.0</ele>
        <time>2013-07-06T13:42:03Z</time>
      </trkpt>
      <trkpt lat="40.111983" lon="-4.939717">
        <ele>1630.0</ele>
        <time>2013-07-06T13:42:04Z</time>
      </trkpt>
      <trkpt lat="40.111917" lon="-4.939733">
        <ele>1628.0</ele>
        <time>2013-07-06T13:42:05Z</time>
      </trkpt>
      <trkpt lat="40.111850" lon="-4.939750">
        <ele>1626.0</ele>
        <time>2013-07-06T13:42:06Z</time>
      </trkpt>
      <trkpt lat="40.111783" lon="-4.939783">
        <ele>1623.0</ele>
        <time>2013-07-06T13:42:07Z</time>
      </trkpt>
      <trkpt lat="40.111717" lon="-4.939800">
        <ele>1620.0</ele>
        <time>2013-07-06T13:42:08Z</time>
      </trkpt>
      <trkpt lat="40.111633" lon="-4.939817">
        <ele>1618.0</ele>
        <time>2013-07-06T13:42:09Z</time>
      </trkpt>
      <trkpt lat="40.111567" lon="-4.939817">
        <ele>1615.0</ele>
        <time>2013-07-06T13:42:10Z</time>
      </trkpt>
      <trkpt lat="40.111500" lon="-4.939833">
        <ele>1613.0</ele>
        <time>2013-07-06T13:42:11Z</time>
      </trkpt>
      <trkpt lat="40.111433" lon="-4.939867">
        <ele>1610.0</ele>
        <time>2013-07-06T13:42:12Z</time>
      </trkpt>
      <trkpt lat="40.111367" lon="-4.939883">
        <ele>1608.0</ele>
        <time>2013-07-06T13:42:13Z</time>
      </trkpt>
      <trkpt lat="40.111300" lon="-4.939900">
        <ele>1605.0</ele>
        <time>2013-07-06T13:42:14Z</time>
      </trkpt>
      <trkpt lat="40.111233" lon="-4.939933">
        <ele>1602.0</ele>
        <time>2013-07-06T13:42:15Z</time>
      </trkpt>
      <trkpt lat="40.111167" lon="-4.939950">
        <ele>1600.0</ele>
        <time>2013-07-06T13:42:16Z</time>
      </trkpt>
      <trkpt lat="40.111100" lon="-4.939983">
        <ele>1597.0</ele>
        <time>2013-07-06T13:42:17Z</time>
      </trkpt>
      <trkpt lat="40.111017" lon="-4.940017">
        <ele>1595.0</ele>
        <time>2013-07-06T13:42:18Z</time>
      </trkpt>
      <trkpt lat="40.110950" lon="-4.940033">
        <ele>1592.0</ele>
        <time>2013-07-06T13:42:19Z</time>
      </trkpt>
      <trkpt lat="40.110867" lon="-4.940067">
        <ele>1589.0</ele>
        <time>2013-07-06T13:42:20Z</time>
      </trkpt>
      <trkpt lat="40.110783" lon="-4.940100">
        <ele>1585.0</ele>
        <time>2013-07-06T13:42:21Z</time>
      </trkpt>
      <trkpt lat="40.110717" lon="-4.940133">
        <ele>1583.0</ele>
        <time>2013-07-06T13:42:22Z</time>
      </trkpt>
      <trkpt lat="40.110650" lon="-4.940150">
        <ele>1580.0</ele>
        <time>2013-07-06T13:42:23Z</time>
      </trkpt>
      <trkpt lat="40.110583" lon="-4.940183">
        <ele>1578.0</ele>
        <time>2013-07-06T13:42:24Z</time>
      </trkpt>
      <trkpt lat="40.110517" lon="-4.940217">
        <ele>1575.0</ele>
        <time>2013-07-06T13:42:25Z</time>
      </trkpt>
      <trkpt lat="40.110433" lon="-4.940233">
        <ele>1573.0</ele>
        <time>2013-07-06T13:42:26Z</time>
      </trkpt>
      <trkpt lat="40.110367" lon="-4.940250">
        <ele>1570.0</ele>
        <time>2013-07-06T13:42:27Z</time>
      </trkpt>
      <trkpt lat="40.110283" lon="-4.940267">
        <ele>1566.0</ele>
        <time>2013-07-06T13:42:28Z</time>
      </trkpt>
      <trkpt lat="40.110217" lon="-4.940283">
        <ele>1563.0</ele>
        <time>2013-07-06T13:42:29Z</time>
      </trkpt>
      <trkpt lat="40.110133" lon="-4.940300">
        <ele>1560.0</ele>
        <time>2013-07-06T13:42:30Z</time>
      </trkpt>
      <trkpt lat="40.110050" lon="-4.940317">
        <ele>1557.0</ele>
        <time>2013-07-06T13:42:31Z</time>
      </trkpt>
      <trkpt lat="40.109983" lon="-4.940333">
        <ele>1554.0</ele>
        <time>2013-07-06T13:42:32Z</time>
      </trkpt>
      <trkpt lat="40.109900" lon="-4.940350">
        <ele>1551.0</ele>
        <time>2013-07-06T13:42:33Z</time>
      </trkpt>
      <trkpt lat="40.109833" lon="-4.940367">
        <ele>1548.0</ele>
        <time>2013-07-06T13:42:34Z</time>
      </trkpt>
      <trkpt lat="40.109767" lon="-4.940383">
        <ele>1545.0</ele>
        <time>2013-07-06T13:42:35Z</time>
      </trkpt>
      <trkpt lat="40.109683" lon="-4.940400">
        <ele>1542.0</ele>
        <time>2013-07-06T13:42:36Z</time>
      </trkpt>
      <trkpt lat="40.109617" lon="-4.940417">
        <ele>1539.0</ele>
        <time>2013-07-06T13:42:37Z</time>
      </trkpt>
      <trkpt lat="40.109533" lon="-4.940417">
        <ele>1535.0</ele>
        <time>2013-07-06T13:42:38Z</time>
      </trkpt>
      <trkpt lat="40.109450" lon="-4.940417">
        <ele>1532.0</ele>
        <time>2013-07-06T13:42:39Z</time>
      </trkpt>
      <trkpt lat="40.109367" lon="-4.940417">
        <ele>1529.0</ele>
        <time>2013-07-06T13:42:40Z</time>
      </trkpt>
      <trkpt lat="40.109283" lon="-4.940433">
        <ele>1527.0</ele>
        <time>2013-07-06T13:42:41Z</time>
      </trkpt>
      <trkpt lat="40.109200" lon="-4.940433">
        <ele>1525.0</ele>
        <time>2013-07-06T13:42:42Z</time>
      </trkpt>
      <trkpt lat="40.109133" lon="-4.940433">
        <ele>1523.0</ele>
        <time>2013-07-06T13:42:43Z</time>
      </trkpt>
      <trkpt lat="40.109050" lon="-4.940433">
        <ele>1520.0</ele>
        <time>2013-07-06T13:42:44Z</time>
      </trkpt>
      <trkpt lat="40.108967" lon="-4.940433">
        <ele>1517.0</ele>
        <time>2013-07-06T13:42:45Z</time>
      </trkpt>
      <trkpt lat="40.108883" lon="-4.940433">
        <ele>1513.0</ele>
        <time>2013-07-06T13:42:46Z</time>
      </trkpt>
      <trkpt lat="40.108800" lon="-4.940417">
        <ele>1510.0</ele>
        <time>2013-07-06T13:42:47Z</time>
      </trkpt>
      <trkpt lat="40.108717" lon="-4.940417">
        <ele>1507.0</ele>
        <time>2013-07-06T13:42:48Z</time>
      </trkpt>
      <trkpt lat="40.108633" lon="-4.940417">
        <ele>1504.0</ele>
        <time>2013-07-06T13:42:49Z</time>
      </trkpt>
      <trkpt lat="40.108550" lon="-4.940433">
        <ele>1501.0</ele>
        <time>2013-07-06T13:42:50Z</time>
      </trkpt>
      <trkpt lat="40.108467" lon="-4.940417">
        <ele>1498.0</ele>
        <time>2013-07-06T13:42:51Z</time>
      </trkpt>
      <trkpt lat="40.108383" lon="-4.940417">
        <ele>1495.0</ele>
        <time>2013-07-06T13:42:52Z</time>
      </trkpt>
      <trkpt lat="40.108300" lon="-4.940417">
        <ele>1491.0</ele>
        <time>2013-07-06T13:42:53Z</time>
      </trkpt>
      <trkpt lat="40.108217" lon="-4.940400">
        <ele>1489.0</ele>
        <time>2013-07-06T13:42:54Z</time>
      </trkpt>
      <trkpt lat="40.108133" lon="-4.940400">
        <ele>1486.0</ele>
        <time>2013-07-06T13:42:55Z</time>
      </trkpt>
      <trkpt lat="40.108050" lon="-4.940400">
        <ele>1485.0</ele>
        <time>2013-07-06T13:42:56Z</time>
      </trkpt>
      <trkpt lat="40.107967" lon="-4.940400">
        <ele>1482.0</ele>
        <time>2013-07-06T13:42:57Z</time>
      </trkpt>
      <trkpt lat="40.107883" lon="-4.940400">
        <ele>1480.0</ele>
        <time>2013-07-06T13:42:58Z</time>
      </trkpt>
      <trkpt lat="40.107783" lon="-4.940400">
        <ele>1477.0</ele>
        <time>2013-07-06T13:42:59Z</time>
      </trkpt>
      <trkpt lat="40.107700" lon="-4.940400">
        <ele>1474.0</ele>
        <time>2013-07-06T13:43:00Z</time>
      </trkpt>
      <trkpt lat="40.107600" lon="-4.940417">
        <ele>1471.0</ele>
        <time>2013-07-06T13:43:01Z</time>
      </trkpt>
      <trkpt lat="40.107517" lon="-4.940417">
        <ele>1468.0</ele>
        <time>2013-07-06T13:43:02Z</time>
      </trkpt>
      <trkpt lat="40.107417" lon="-4.940417">
        <ele>1465.0</ele>
        <time>2013-07-06T13:43:03Z</time>
      </trkpt>
      <trkpt lat="40.107333" lon="-4.940417">
        <ele>1463.0</ele>
        <time>2013-07-06T13:43:04Z</time>
      </trkpt>
      <trkpt lat="40.107233" lon="-4.940400">
        <ele>1460.0</ele>
        <time>2013-07-06T13:43:05Z</time>
      </trkpt>
      <trkpt lat="40.107133" lon="-4.940400">
        <ele>1458.0</ele>
        <time>2013-07-06T13:43:06Z</time>
      </trkpt>
      <trkpt lat="40.107033" lon="-4.940383">
        <ele>1457.0</ele>
        <time>2013-07-06T13:43:07Z</time>
      </trkpt>
      <trkpt lat="40.106950" lon="-4.940350">
        <ele>1458.0</ele>
        <time>2013-07-06T13:43:08Z</time>
      </trkpt>
      <trkpt lat="40.106867" lon="-4.940333">
        <ele>1458.0</ele>
        <time>2013-07-06T13:43:09Z</time>
      </trkpt>
      <trkpt lat="40.106800" lon="-4.940317">
        <ele>1458.0</ele>
        <time>2013-07-06T13:43:10Z</time>
      </trkpt>
      <trkpt lat="40.106700" lon="-4.940283">
        <ele>1456.0</ele>
        <time>2013-07-06T13:43:11Z</time>
      </trkpt>
      <trkpt lat="40.106600" lon="-4.940250">
        <ele>1455.0</ele>
        <time>2013-07-06T13:43:12Z</time>
      </trkpt>
      <trkpt lat="40.106500" lon="-4.940233">
        <ele>1454.0</ele>
        <time>2013-07-06T13:43:13Z</time>
      </trkpt>
      <trkpt lat="40.106417" lon="-4.940217">
        <ele>1455.0</ele>
        <time>2013-07-06T13:43:14Z</time>
      </trkpt>
      <trkpt lat="40.106333" lon="-4.940183">
        <ele>1455.0</ele>
        <time>2013-07-06T13:43:15Z</time>
      </trkpt>
      <trkpt lat="40.106267" lon="-4.940183">
        <ele>1455.0</ele>
        <time>2013-07-06T13:43:16Z</time>
      </trkpt>
      <trkpt lat="40.106183" lon="-4.940167">
        <ele>1454.0</ele>
        <time>2013-07-06T13:43:17Z</time>
      </trkpt>
      <trkpt lat="40.106117" lon="-4.940150">
        <ele>1453.0</ele>
        <time>2013-07-06T13:43:18Z</time>
      </trkpt>
      <trkpt lat="40.106017" lon="-4.940150">
        <ele>1452.0</ele>
        <time>2013-07-06T13:43:19Z</time>
      </trkpt>
      <trkpt lat="40.105933" lon="-4.940133">
        <ele>1450.0</ele>
        <time>2013-07-06T13:43:20Z</time>
      </trkpt>
      <trkpt lat="40.105850" lon="-4.940133">
        <ele>1448.0</ele>
        <time>2013-07-06T13:43:21Z</time>
      </trkpt>
      <trkpt lat="40.105750" lon="-4.940117">
        <ele>1447.0</ele>
        <time>2013-07-06T13:43:22Z</time>
      </trkpt>
      <trkpt lat="40.105667" lon="-4.940117">
        <ele>1446.0</ele>
        <time>2013-07-06T13:43:23Z</time>
      </trkpt>
      <trkpt lat="40.105583" lon="-4.940100">
        <ele>1444.0</ele>
        <time>2013-07-06T13:43:24Z</time>
      </trkpt>
      <trkpt lat="40.105483" lon="-4.940083">
        <ele>1443.0</ele>
        <time>2013-07-06T13:43:25Z</time>
      </trkpt>
      <trkpt lat="40.105400" lon="-4.940067">
        <ele>1441.0</ele>
        <time>2013-07-06T13:43:26Z</time>
      </trkpt>
      <trkpt lat="40.105300" lon="-4.940067">
        <ele>1440.0</ele>
        <time>2013-07-06T13:43:27Z</time>
      </trkpt>
      <trkpt lat="40.105200" lon="-4.940050">
        <ele>1440.0</ele>
        <time>2013-07-06T13:43:28Z</time>
      </trkpt>
      <trkpt lat="40.105117" lon="-4.940050">
        <ele>1439.0</ele>
        <time>2013-07-06T13:43:29Z</time>
      </trkpt>
      <trkpt lat="40.105050" lon="-4.940050">
        <ele>1442.0</ele>
        <time>2013-07-06T13:43:30Z</time>
      </trkpt>
      <trkpt lat="40.104983" lon="-4.940050">
        <ele>1443.0</ele>
        <time>2013-07-06T13:43:31Z</time>
      </trkpt>
      <trkpt lat="40.104900" lon="-4.940050">
        <ele>1443.0</ele>
        <time>2013-07-06T13:43:32Z</time>
      </trkpt>
      <trkpt lat="40.104817" lon="-4.940050">
        <ele>1443.0</ele>
        <time>2013-07-06T13:43:33Z</time>
      </trkpt>
      <trkpt lat="40.104717" lon="-4.940033">
        <ele>1443.0</ele>
        <time>2013-07-06T13:43:34Z</time>
      </trkpt>
      <trkpt lat="40.104633" lon="-4.940033">
        <ele>1443.0</ele>
        <time>2013-07-06T13:43:35Z</time>
      </trkpt>
      <trkpt lat="40.104567" lon="-4.940017">
        <ele>1443.0</ele>
        <time>2013-07-06T13:43:36Z</time>
      </trkpt>
      <trkpt lat="40.104483" lon="-4.940017">
        <ele>1443.0</ele>
        <time>2013-07-06T13:43:37Z</time>
      </trkpt>
      <trkpt lat="40.104417" lon="-4.940000">
        <ele>1443.0</ele>
        <time>2013-07-06T13:43:38Z</time>
      </trkpt>
      <trkpt lat="40.104350" lon="-4.939967">
        <ele>1443.0</ele>
        <time>2013-07-06T13:43:39Z</time>
      </trkpt>
      <trkpt lat="40.104267" lon="-4.939933">
        <ele>1443.0</ele>
        <time>2013-07-06T13:43:40Z</time>
      </trkpt>
      <trkpt lat="40.104200" lon="-4.939883">
        <ele>1443.0</ele>
        <time>2013-07-06T13:43:41Z</time>
      </trkpt>
      <trkpt lat="40.104117" lon="-4.939850">
        <ele>1444.0</ele>
        <time>2013-07-06T13:43:42Z</time>
      </trkpt>
      <trkpt lat="40.104067" lon="-4.939833">
        <ele>1447.0</ele>
        <time>2013-07-06T13:43:43Z</time>
      </trkpt>
      <trkpt lat="40.104000" lon="-4.939800">
        <ele>1449.0</ele>
        <time>2013-07-06T13:43:44Z</time>
      </trkpt>
      <trkpt lat="40.103950" lon="-4.939767">
        <ele>1450.0</ele>
        <time>2013-07-06T13:43:45Z</time>
      </trkpt>
      <trkpt lat="40.103883" lon="-4.939750">
        <ele>1451.0</ele>
        <time>2013-07-06T13:43:46Z</time>
      </trkpt>
      <trkpt lat="40.103817" lon="-4.939717">
        <ele>1452.0</ele>
        <time>2013-07-06T13:43:47Z</time>
      </trkpt>
      <trkpt lat="40.103750" lon="-4.939700">
        <ele>1453.0</ele>
        <time>2013-07-06T13:43:48Z</time>
      </trkpt>
      <trkpt lat="40.103683" lon="-4.939683">
        <ele>1453.0</ele>
        <time>2013-07-06T13:43:49Z</time>
      </trkpt>
      <trkpt lat="40.103650" lon="-4.939650">
        <ele>1453.0</ele>
        <time>2013-07-06T13:43:50Z</time>
      </trkpt>
      <trkpt lat="40.103600" lon="-4.939600">
        <ele>1452.0</ele>
        <time>2013-07-06T13:43:51Z</time>
      </trkpt>
      <trkpt lat="40.103567" lon="-4.939567">
        <ele>1452.0</ele>
        <time>2013-07-06T13:43:52Z</time>
      </trkpt>
      <trkpt lat="40.103500" lon="-4.939517">
        <ele>1449.0</ele>
        <time>2013-07-06T13:43:53Z</time>
      </trkpt>
      <trkpt lat="40.103433" lon="-4.939500">
        <ele>1447.0</ele>
        <time>2013-07-06T13:43:54Z</time>
      </trkpt>
      <trkpt lat="40.103383" lon="-4.939467">
        <ele>1446.0</ele>
        <time>2013-07-06T13:43:55Z</time>
      </trkpt>
      <trkpt lat="40.103317" lon="-4.939450">
        <ele>1445.0</ele>
        <time>2013-07-06T13:43:56Z</time>
      </trkpt>
      <trkpt lat="40.103267" lon="-4.939417">
        <ele>1444.0</ele>
        <time>2013-07-06T13:43:57Z</time>
      </trkpt>
      <trkpt lat="40.103217" lon="-4.939367">
        <ele>1442.0</ele>
        <time>2013-07-06T13:43:58Z</time>
      </trkpt>
      <trkpt lat="40.103150" lon="-4.939317">
        <ele>1440.0</ele>
        <time>2013-07-06T13:43:59Z</time>
      </trkpt>
      <trkpt lat="40.103083" lon="-4.939267">
        <ele>1438.0</ele>
        <time>2013-07-06T13:44:00Z</time>
      </trkpt>
      <trkpt lat="40.103017" lon="-4.939200">
        <ele>1435.0</ele>
        <time>2013-07-06T13:44:01Z</time>
      </trkpt>
      <trkpt lat="40.102933" lon="-4.939133">
        <ele>1434.0</ele>
        <time>2013-07-06T13:44:02Z</time>
      </trkpt>
      <trkpt lat="40.102867" lon="-4.939067">
        <ele>1433.0</ele>
        <time>2013-07-06T13:44:03Z</time>
      </trkpt>
      <trkpt lat="40.102800" lon="-4.939000">
        <ele>1434.0</ele>
        <time>2013-07-06T13:44:04Z</time>
      </trkpt>
      <trkpt lat="40.102733" lon="-4.938917">
        <ele>1435.0</ele>
        <time>2013-07-06T13:44:05Z</time>
      </trkpt>
      <trkpt lat="40.102683" lon="-4.938833">
        <ele>1436.0</ele>
        <time>2013-07-06T13:44:06Z</time>
      </trkpt>
      <trkpt lat="40.102633" lon="-4.938767">
        <ele>1438.0</ele>
        <time>2013-07-06T13:44:07Z</time>
      </trkpt>
      <trkpt lat="40.102567" lon="-4.938700">
        <ele>1440.0</ele>
        <time>2013-07-06T13:44:08Z</time>
      </trkpt>
      <trkpt lat="40.102517" lon="-4.938650">
        <ele>1441.0</ele>
        <time>2013-07-06T13:44:09Z</time>
      </trkpt>
      <trkpt lat="40.102450" lon="-4.938583">
        <ele>1442.0</ele>
        <time>2013-07-06T13:44:10Z</time>
      </trkpt>
      <trkpt lat="40.102383" lon="-4.938500">
        <ele>1444.0</ele>
        <time>2013-07-06T13:44:11Z</time>
      </trkpt>
      <trkpt lat="40.102317" lon="-4.938417">
        <ele>1445.0</ele>
        <time>2013-07-06T13:44:12Z</time>
      </trkpt>
      <trkpt lat="40.102250" lon="-4.938350">
        <ele>1445.0</ele>
        <time>2013-07-06T13:44:13Z</time>
      </trkpt>
      <trkpt lat="40.102183" lon="-4.938283">
        <ele>1446.0</ele>
        <time>2013-07-06T13:44:14Z</time>
      </trkpt>
      <trkpt lat="40.102117" lon="-4.938217">
        <ele>1447.0</ele>
        <time>2013-07-06T13:44:15Z</time>
      </trkpt>
      <trkpt lat="40.102050" lon="-4.938167">
        <ele>1447.0</ele>
        <time>2013-07-06T13:44:16Z</time>
      </trkpt>
      <trkpt lat="40.101983" lon="-4.938100">
        <ele>1448.0</ele>
        <time>2013-07-06T13:44:17Z</time>
      </trkpt>
      <trkpt lat="40.101917" lon="-4.938033">
        <ele>1449.0</ele>
        <time>2013-07-06T13:44:18Z</time>
      </trkpt>
      <trkpt lat="40.101867" lon="-4.937967">
        <ele>1450.0</ele>
        <time>2013-07-06T13:44:19Z</time>
      </trkpt>
      <trkpt lat="40.101800" lon="-4.937900">
        <ele>1451.0</ele>
        <time>2013-07-06T13:44:20Z</time>
      </trkpt>
      <trkpt lat="40.101733" lon="-4.937833">
        <ele>1452.0</ele>
        <time>2013-07-06T13:44:21Z</time>
      </trkpt>
      <trkpt lat="40.101683" lon="-4.937767">
        <ele>1454.0</ele>
        <time>2013-07-06T13:44:22Z</time>
      </trkpt>
      <trkpt lat="40.101617" lon="-4.937717">
        <ele>1458.0</ele>
        <time>2013-07-06T13:44:23Z</time>
      </trkpt>
      <trkpt lat="40.101567" lon="-4.937650">
        <ele>1460.0</ele>
        <time>2013-07-06T13:44:24Z</time>
      </trkpt>
      <trkpt lat="40.101500" lon="-4.937583">
        <ele>1462.0</ele>
        <time>2013-07-06T13:44:25Z</time>
      </trkpt>
      <trkpt lat="40.101417" lon="-4.937500">
        <ele>1463.0</ele>
        <time>2013-07-06T13:44:26Z</time>
      </trkpt>
      <trkpt lat="40.101350" lon="-4.937417">
        <ele>1468.0</ele>
        <time>2013-07-06T13:44:27Z</time>
      </trkpt>
      <trkpt lat="40.101317" lon="-4.937350">
        <ele>1474.0</ele>
        <time>2013-07-06T13:44:28Z</time>
      </trkpt>
      <trkpt lat="40.101300" lon="-4.937283">
        <ele>1480.0</ele>
        <time>2013-07-06T13:44:29Z</time>
      </trkpt>
      <trkpt lat="40.101283" lon="-4.937200">
        <ele>1485.0</ele>
        <time>2013-07-06T13:44:30Z</time>
      </trkpt>
      <trkpt lat="40.101283" lon="-4.937100">
        <ele>1489.0</ele>
        <time>2013-07-06T13:44:31Z</time>
      </trkpt>
      <trkpt lat="40.101283" lon="-4.936983">
        <ele>1494.0</ele>
        <time>2013-07-06T13:44:32Z</time>
      </trkpt>
      <trkpt lat="40.101300" lon="-4.936883">
        <ele>1499.0</ele>
        <time>2013-07-06T13:44:33Z</time>
      </trkpt>
      <trkpt lat="40.101350" lon="-4.936817">
        <ele>1505.0</ele>
        <time>2013-07-06T13:44:34Z</time>
      </trkpt>
      <trkpt lat="40.101417" lon="-4.936767">
        <ele>1511.0</ele>
        <time>2013-07-06T13:44:35Z</time>
      </trkpt>
      <trkpt lat="40.101483" lon="-4.936717">
        <ele>1516.0</ele>
        <time>2013-07-06T13:44:36Z</time>
      </trkpt>
      <trkpt lat="40.101533" lon="-4.936683">
        <ele>1520.0</ele>
        <time>2013-07-06T13:44:37Z</time>
      </trkpt>
      <trkpt lat="40.101617" lon="-4.936633">
        <ele>1523.0</ele>
        <time>2013-07-06T13:44:38Z</time>
      </trkpt>
      <trkpt lat="40.101700" lon="-4.936600">
        <ele>1526.0</ele>
        <time>2013-07-06T13:44:39Z</time>
      </trkpt>
      <trkpt lat="40.101783" lon="-4.936583">
        <ele>1530.0</ele>
        <time>2013-07-06T13:44:40Z</time>
      </trkpt>
      <trkpt lat="40.101867" lon="-4.936600">
        <ele>1535.0</ele>
        <time>2013-07-06T13:44:41Z</time>
      </trkpt>
      <trkpt lat="40.101933" lon="-4.936600">
        <ele>1540.0</ele>
        <time>2013-07-06T13:44:42Z</time>
      </trkpt>
      <trkpt lat="40.102000" lon="-4.936633">
        <ele>1545.0</ele>
        <time>2013-07-06T13:44:43Z</time>
      </trkpt>
      <trkpt lat="40.102083" lon="-4.936667">
        <ele>1548.0</ele>
        <time>2013-07-06T13:44:44Z</time>
      </trkpt>
      <trkpt lat="40.102150" lon="-4.936733">
        <ele>1551.0</ele>
        <time>2013-07-06T13:44:45Z</time>
      </trkpt>
      <trkpt lat="40.102250" lon="-4.936883">
        <ele>1556.0</ele>
        <time>2013-07-06T13:44:47Z</time>
      </trkpt>
      <trkpt lat="40.102283" lon="-4.936983">
        <ele>1558.0</ele>
        <time>2013-07-06T13:44:48Z</time>
      </trkpt>
      <trkpt lat="40.102300" lon="-4.937083">
        <ele>1560.0</ele>
        <time>2013-07-06T13:44:49Z</time>
      </trkpt>
      <trkpt lat="40.102317" lon="-4.937200">
        <ele>1562.0</ele>
        <time>2013-07-06T13:44:50Z</time>
      </trkpt>
      <trkpt lat="40.102333" lon="-4.937317">
        <ele>1564.0</ele>
        <time>2013-07-06T13:44:51Z</time>
      </trkpt>
      <trkpt lat="40.102350" lon="-4.937417">
        <ele>1566.0</ele>
        <time>2013-07-06T13:44:52Z</time>
      </trkpt>
      <trkpt lat="40.102350" lon="-4.937517">
        <ele>1568.0</ele>
        <time>2013-07-06T13:44:53Z</time>
      </trkpt>
      <trkpt lat="40.102333" lon="-4.937617">
        <ele>1569.0</ele>
        <time>2013-07-06T13:44:54Z</time>
      </trkpt>
      <trkpt lat="40.102333" lon="-4.937717">
        <ele>1569.0</ele>
        <time>2013-07-06T13:44:55Z</time>
      </trkpt>
      <trkpt lat="40.102317" lon="-4.937817">
        <ele>1570.0</ele>
        <time>2013-07-06T13:44:56Z</time>
      </trkpt>
      <trkpt lat="40.102317" lon="-4.937933">
        <ele>1571.0</ele>
        <time>2013-07-06T13:44:57Z</time>
      </trkpt>
      <trkpt lat="40.102300" lon="-4.938033">
        <ele>1571.0</ele>
        <time>2013-07-06T13:44:58Z</time>
      </trkpt>
      <trkpt lat="40.102267" lon="-4.938150">
        <ele>1572.0</ele>
        <time>2013-07-06T13:44:59Z</time>
      </trkpt>
      <trkpt lat="40.102233" lon="-4.938250">
        <ele>1573.0</ele>
        <time>2013-07-06T13:45:00Z</time>
      </trkpt>
      <trkpt lat="40.102217" lon="-4.938333">
        <ele>1575.0</ele>
        <time>2013-07-06T13:45:01Z</time>
      </trkpt>
      <trkpt lat="40.102183" lon="-4.938417">
        <ele>1575.0</ele>
        <time>2013-07-06T13:45:02Z</time>
      </trkpt>
      <trkpt lat="40.102133" lon="-4.938517">
        <ele>1575.0</ele>
        <time>2013-07-06T13:45:03Z</time>
      </trkpt>
      <trkpt lat="40.102083" lon="-4.938617">
        <ele>1573.0</ele>
        <time>2013-07-06T13:45:04Z</time>
      </trkpt>
      <trkpt lat="40.102017" lon="-4.938700">
        <ele>1573.0</ele>
        <time>2013-07-06T13:45:05Z</time>
      </trkpt>
      <trkpt lat="40.101933" lon="-4.938767">
        <ele>1573.0</ele>
        <time>2013-07-06T13:45:06Z</time>
      </trkpt>
      <trkpt lat="40.101867" lon="-4.938800">
        <ele>1574.0</ele>
        <time>2013-07-06T13:45:07Z</time>
      </trkpt>
      <trkpt lat="40.101783" lon="-4.938817">
        <ele>1577.0</ele>
        <time>2013-07-06T13:45:08Z</time>
      </trkpt>
      <trkpt lat="40.101717" lon="-4.938833">
        <ele>1579.0</ele>
        <time>2013-07-06T13:45:09Z</time>
      </trkpt>
      <trkpt lat="40.101633" lon="-4.938850">
        <ele>1582.0</ele>
        <time>2013-07-06T13:45:10Z</time>
      </trkpt>
      <trkpt lat="40.101550" lon="-4.938850">
        <ele>1584.0</ele>
        <time>2013-07-06T13:45:11Z</time>
      </trkpt>
      <trkpt lat="40.101467" lon="-4.938850">
        <ele>1586.0</ele>
        <time>2013-07-06T13:45:12Z</time>
      </trkpt>
      <trkpt lat="40.101383" lon="-4.938850">
        <ele>1590.0</ele>
        <time>2013-07-06T13:45:13Z</time>
      </trkpt>
      <trkpt lat="40.101317" lon="-4.938817">
        <ele>1596.0</ele>
        <time>2013-07-06T13:45:14Z</time>
      </trkpt>
      <trkpt lat="40.101250" lon="-4.938783">
        <ele>1600.0</ele>
        <time>2013-07-06T13:45:15Z</time>
      </trkpt>
      <trkpt lat="40.101200" lon="-4.938717">
        <ele>1602.0</ele>
        <time>2013-07-06T13:45:16Z</time>
      </trkpt>
      <trkpt lat="40.101150" lon="-4.938617">
        <ele>1605.0</ele>
        <time>2013-07-06T13:45:17Z</time>
      </trkpt>
      <trkpt lat="40.101117" lon="-4.938517">
        <ele>1609.0</ele>
        <time>2013-07-06T13:45:18Z</time>
      </trkpt>
      <trkpt lat="40.101083" lon="-4.938417">
        <ele>1612.0</ele>
        <time>2013-07-06T13:45:19Z</time>
      </trkpt>
      <trkpt lat="40.101067" lon="-4.938300">
        <ele>1616.0</ele>
        <time>2013-07-06T13:45:20Z</time>
      </trkpt>
      <trkpt lat="40.101050" lon="-4.938183">
        <ele>1620.0</ele>
        <time>2013-07-06T13:45:21Z</time>
      </trkpt>
      <trkpt lat="40.101050" lon="-4.938067">
        <ele>1623.0</ele>
        <time>2013-07-06T13:45:22Z</time>
      </trkpt>
      <trkpt lat="40.101067" lon="-4.937950">
        <ele>1627.0</ele>
        <time>2013-07-06T13:45:23Z</time>
      </trkpt>
      <trkpt lat="40.101100" lon="-4.937850">
        <ele>1630.0</ele>
        <time>2013-07-06T13:45:24Z</time>
      </trkpt>
      <trkpt lat="40.101167" lon="-4.937750">
        <ele>1633.0</ele>
        <time>2013-07-06T13:45:25Z</time>
      </trkpt>
      <trkpt lat="40.101233" lon="-4.937667">
        <ele>1636.0</ele>
        <time>2013-07-06T13:45:26Z</time>
      </trkpt>
      <trkpt lat="40.101300" lon="-4.937633">
        <ele>1639.0</ele>
        <time>2013-07-06T13:45:27Z</time>
      </trkpt>
      <trkpt lat="40.101383" lon="-4.937617">
        <ele>1642.0</ele>
        <time>2013-07-06T13:45:28Z</time>
      </trkpt>
      <trkpt lat="40.101467" lon="-4.937617">
        <ele>1646.0</ele>
        <time>2013-07-06T13:45:29Z</time>
      </trkpt>
      <trkpt lat="40.101550" lon="-4.937633">
        <ele>1650.0</ele>
        <time>2013-07-06T13:45:30Z</time>
      </trkpt>
      <trkpt lat="40.101617" lon="-4.937650">
        <ele>1654.0</ele>
        <time>2013-07-06T13:45:31Z</time>
      </trkpt>
      <trkpt lat="40.101683" lon="-4.937667">
        <ele>1658.0</ele>
        <time>2013-07-06T13:45:32Z</time>
      </trkpt>
      <trkpt lat="40.101767" lon="-4.937717">
        <ele>1662.0</ele>
        <time>2013-07-06T13:45:33Z</time>
      </trkpt>
      <trkpt lat="40.101833" lon="-4.937783">
        <ele>1665.0</ele>
        <time>2013-07-06T13:45:34Z</time>
      </trkpt>
      <trkpt lat="40.101967" lon="-4.937950">
        <ele>1671.0</ele>
        <time>2013-07-06T13:45:36Z</time>
      </trkpt>
      <trkpt lat="40.102000" lon="-4.938050">
        <ele>1675.0</ele>
        <time>2013-07-06T13:45:37Z</time>
      </trkpt>
      <trkpt lat="40.102000" lon="-4.938150">
        <ele>1678.0</ele>
        <time>2013-07-06T13:45:38Z</time>
      </trkpt>
      <trkpt lat="40.101983" lon="-4.938250">
        <ele>1681.0</ele>
        <time>2013-07-06T13:45:39Z</time>
      </trkpt>
      <trkpt lat="40.101967" lon="-4.938350">
        <ele>1684.0</ele>
        <time>2013-07-06T13:45:40Z</time>
      </trkpt>
      <trkpt lat="40.101917" lon="-4.938433">
        <ele>1687.0</ele>
        <time>2013-07-06T13:45:41Z</time>
      </trkpt>
      <trkpt lat="40.101850" lon="-4.938483">
        <ele>1690.0</ele>
        <time>2013-07-06T13:45:42Z</time>
      </trkpt>
      <trkpt lat="40.101783" lon="-4.938533">
        <ele>1691.0</ele>
        <time>2013-07-06T13:45:43Z</time>
      </trkpt>
      <trkpt lat="40.101700" lon="-4.938567">
        <ele>1694.0</ele>
        <time>2013-07-06T13:45:44Z</time>
      </trkpt>
      <trkpt lat="40.101617" lon="-4.938567">
        <ele>1697.0</ele>
        <time>2013-07-06T13:45:45Z</time>
      </trkpt>
      <trkpt lat="40.101533" lon="-4.938567">
        <ele>1701.0</ele>
        <time>2013-07-06T13:45:46Z</time>
      </trkpt>
      <trkpt lat="40.101467" lon="-4.938567">
        <ele>1706.0</ele>
        <time>2013-07-06T13:45:47Z</time>
      </trkpt>
      <trkpt lat="40.101417" lon="-4.938550">
        <ele>1709.0</ele>
        <time>2013-07-06T13:45:48Z</time>
      </trkpt>
      <trkpt lat="40.101350" lon="-4.938533">
        <ele>1712.0</ele>
        <time>2013-07-06T13:45:49Z</time>
      </trkpt>
      <trkpt lat="40.101267" lon="-4.938517">
        <ele>1715.0</ele>
        <time>2013-07-06T13:45:50Z</time>
      </trkpt>
      <trkpt lat="40.101183" lon="-4.938483">
        <ele>1720.0</ele>
        <time>2013-07-06T13:45:51Z</time>
      </trkpt>
      <trkpt lat="40.101117" lon="-4.938450">
        <ele>1726.0</ele>
        <time>2013-07-06T13:45:52Z</time>
      </trkpt>
      <trkpt lat="40.101083" lon="-4.938417">
        <ele>1731.0</ele>
        <time>2013-07-06T13:45:53Z</time>
      </trkpt>
      <trkpt lat="40.101050" lon="-4.938333">
        <ele>1736.0</ele>
        <time>2013-07-06T13:45:54Z</time>
      </trkpt>
      <trkpt lat="40.101033" lon="-4.938267">
        <ele>1741.0</ele>
        <time>2013-07-06T13:45:55Z</time>
      </trkpt>
      <trkpt lat="40.101000" lon="-4.938183">
        <ele>1745.0</ele>
        <time>2013-07-06T13:45:56Z</time>
      </trkpt>
      <trkpt lat="40.100950" lon="-4.938100">
        <ele>1750.0</ele>
        <time>2013-07-06T13:45:57Z</time>
      </trkpt>
      <trkpt lat="40.100900" lon="-4.938033">
        <ele>1756.0</ele>
        <time>2013-07-06T13:45:58Z</time>
      </trkpt>
      <trkpt lat="40.100850" lon="-4.937967">
        <ele>1761.0</ele>
        <time>2013-07-06T13:45:59Z</time>
      </trkpt>
      <trkpt lat="40.100817" lon="-4.937883">
        <ele>1766.0</ele>
        <time>2013-07-06T13:46:00Z</time>
      </trkpt>
      <trkpt lat="40.100783" lon="-4.937767">
        <ele>1770.0</ele>
        <time>2013-07-06T13:46:01Z</time>
      </trkpt>
      <trkpt lat="40.100783" lon="-4.937667">
        <ele>1774.0</ele>
        <time>2013-07-06T13:46:02Z</time>
      </trkpt>
      <trkpt lat="40.100767" lon="-4.937567">
        <ele>1779.0</ele>
        <time>2013-07-06T13:46:03Z</time>
      </trkpt>
      <trkpt lat="40.100733" lon="-4.937467">
        <ele>1783.0</ele>
        <time>2013-07-06T13:46:04Z</time>
      </trkpt>
      <trkpt lat="40.100717" lon="-4.937367">
        <ele>1788.0</ele>
        <time>2013-07-06T13:46:05Z</time>
      </trkpt>
      <trkpt lat="40.100700" lon="-4.937283">
        <ele>1794.0</ele>
        <time>2013-07-06T13:46:06Z</time>
      </trkpt>
      <trkpt lat="40.100700" lon="-4.937183">
        <ele>1799.0</ele>
        <time>2013-07-06T13:46:07Z</time>
      </trkpt>
      <trkpt lat="40.100717" lon="-4.937083">
        <ele>1804.0</ele>
        <time>2013-07-06T13:46:08Z</time>
      </trkpt>
      <trkpt lat="40.100750" lon="-4.936983">
        <ele>1809.0</ele>
        <time>2013-07-06T13:46:09Z</time>
      </trkpt>
      <trkpt lat="40.100783" lon="-4.936900">
        <ele>1815.0</ele>
        <time>2013-07-06T13:46:10Z</time>
      </trkpt>
      <trkpt lat="40.100833" lon="-4.936817">
        <ele>1821.0</ele>
        <time>2013-07-06T13:46:11Z</time>
      </trkpt>
      <trkpt lat="40.100883" lon="-4.936733">
        <ele>1826.0</ele>
        <time>2013-07-06T13:46:12Z</time>
      </trkpt>
      <trkpt lat="40.100933" lon="-4.936650">
        <ele>1831.0</ele>
        <time>2013-07-06T13:46:13Z</time>
      </trkpt>
      <trkpt lat="40.101000" lon="-4.936567">
        <ele>1835.0</ele>
        <time>2013-07-06T13:46:14Z</time>
      </trkpt>
      <trkpt lat="40.101067" lon="-4.936500">
        <ele>1840.0</ele>
        <time>2013-07-06T13:46:15Z</time>
      </trkpt>
      <trkpt lat="40.101133" lon="-4.936450">
        <ele>1847.0</ele>
        <time>2013-07-06T13:46:16Z</time>
      </trkpt>
      <trkpt lat="40.101200" lon="-4.936417">
        <ele>1852.0</ele>
        <time>2013-07-06T13:46:17Z</time>
      </trkpt>
      <trkpt lat="40.101267" lon="-4.936383">
        <ele>1857.0</ele>
        <time>2013-07-06T13:46:18Z</time>
      </trkpt>
      <trkpt lat="40.101333" lon="-4.936350">
        <ele>1860.0</ele>
        <time>2013-07-06T13:46:19Z</time>
      </trkpt>
      <trkpt lat="40.101400" lon="-4.936333">
        <ele>1862.0</ele>
        <time>2013-07-06T13:46:20Z</time>
      </trkpt>
      <trkpt lat="40.101583" lon="-4.936367">
        <ele>1867.0</ele>
        <time>2013-07-06T13:46:22Z</time>
      </trkpt>
      <trkpt lat="40.101683" lon="-4.936417">
        <ele>1871.0</ele>
        <time>2013-07-06T13:46:23Z</time>
      </trkpt>
      <trkpt lat="40.101800" lon="-4.936517">
        <ele>1880.0</ele>
        <time>2013-07-06T13:46:25Z</time>
      </trkpt>
      <trkpt lat="40.101867" lon="-4.936567">
        <ele>1885.0</ele>
        <time>2013-07-06T13:46:26Z</time>
      </trkpt>
      <trkpt lat="40.102000" lon="-4.936717">
        <ele>1891.0</ele>
        <time>2013-07-06T13:46:28Z</time>
      </trkpt>
      <trkpt lat="40.102067" lon="-4.936783">
        <ele>1895.0</ele>
        <time>2013-07-06T13:46:29Z</time>
      </trkpt>
      <trkpt lat="40.102150" lon="-4.936933">
        <ele>1903.0</ele>
        <time>2013-07-06T13:46:31Z</time>
      </trkpt>
      <trkpt lat="40.102183" lon="-4.937117">
        <ele>1910.0</ele>
        <time>2013-07-06T13:46:33Z</time>
      </trkpt>
      <trkpt lat="40.102133" lon="-4.937400">
        <ele>1918.0</ele>
        <time>2013-07-06T13:46:36Z</time>
      </trkpt>
      <trkpt lat="40.102100" lon="-4.937500">
        <ele>1920.0</ele>
        <time>2013-07-06T13:46:37Z</time>
      </trkpt>
      <trkpt lat="40.102050" lon="-4.937600">
        <ele>1923.0</ele>
        <time>2013-07-06T13:46:38Z</time>
      </trkpt>
      <trkpt lat="40.102000" lon="-4.937683">
        <ele>1925.0</ele>
        <time>2013-07-06T13:46:39Z</time>
      </trkpt>
      <trkpt lat="40.101950" lon="-4.937783">
        <ele>1928.0</ele>
        <time>2013-07-06T13:46:40Z</time>
      </trkpt>
      <trkpt lat="40.101900" lon="-4.937883">
        <ele>1930.0</ele>
        <time>2013-07-06T13:46:41Z</time>
      </trkpt>
      <trkpt lat="40.101867" lon="-4.938000">
        <ele>1933.0</ele>
        <time>2013-07-06T13:46:42Z</time>
      </trkpt>
      <trkpt lat="40.101817" lon="-4.938100">
        <ele>1937.0</ele>
        <time>2013-07-06T13:46:43Z</time>
      </trkpt>
      <trkpt lat="40.101750" lon="-4.938167">
        <ele>1942.0</ele>
        <time>2013-07-06T13:46:44Z</time>
      </trkpt>
      <trkpt lat="40.101700" lon="-4.938217">
        <ele>1946.0</ele>
        <time>2013-07-06T13:46:45Z</time>
      </trkpt>
      <trkpt lat="40.101633" lon="-4.938250">
        <ele>1949.0</ele>
        <time>2013-07-06T13:46:46Z</time>
      </trkpt>
      <trkpt lat="40.101567" lon="-4.938317">
        <ele>1951.0</ele>
        <time>2013-07-06T13:46:47Z</time>
      </trkpt>
      <trkpt lat="40.101483" lon="-4.938383">
        <ele>1952.0</ele>
        <time>2013-07-06T13:46:48Z</time>
      </trkpt>
      <trkpt lat="40.101400" lon="-4.938450">
        <ele>1952.0</ele>
        <time>2013-07-06T13:46:49Z</time>
      </trkpt>
      <trkpt lat="40.101317" lon="-4.938517">
        <ele>1955.0</ele>
        <time>2013-07-06T13:46:50Z</time>
      </trkpt>
      <trkpt lat="40.101250" lon="-4.938567">
        <ele>1960.0</ele>
        <time>2013-07-06T13:46:51Z</time>
      </trkpt>
      <trkpt lat="40.101217" lon="-4.938617">
        <ele>1966.0</ele>
        <time>2013-07-06T13:46:52Z</time>
      </trkpt>
      <trkpt lat="40.101183" lon="-4.938667">
        <ele>1971.0</ele>
        <time>2013-07-06T13:46:53Z</time>
      </trkpt>
      <trkpt lat="40.101117" lon="-4.938717">
        <ele>1975.0</ele>
        <time>2013-07-06T13:46:54Z</time>
      </trkpt>
      <trkpt lat="40.101067" lon="-4.938817">
        <ele>1979.0</ele>
        <time>2013-07-06T13:46:55Z</time>
      </trkpt>
      <trkpt lat="40.101017" lon="-4.938933">
        <ele>1981.0</ele>
        <time>2013-07-06T13:46:56Z</time>
      </trkpt>
      <trkpt lat="40.101017" lon="-4.939050">
        <ele>1986.0</ele>
        <time>2013-07-06T13:46:57Z</time>
      </trkpt>
      <trkpt lat="40.101033" lon="-4.939167">
        <ele>1990.0</ele>
        <time>2013-07-06T13:46:58Z</time>
      </trkpt>
      <trkpt lat="40.101083" lon="-4.939250">
        <ele>1995.0</ele>
        <time>2013-07-06T13:46:59Z</time>
      </trkpt>
      <trkpt lat="40.101150" lon="-4.939333">
        <ele>1999.0</ele>
        <time>2013-07-06T13:47:00Z</time>
      </trkpt>
      <trkpt lat="40.101200" lon="-4.939433">
        <ele>2003.0</ele>
        <time>2013-07-06T13:47:01Z</time>
      </trkpt>
      <trkpt lat="40.101267" lon="-4.939533">
        <ele>2006.0</ele>
        <time>2013-07-06T13:47:02Z</time>
      </trkpt>
      <trkpt lat="40.101333" lon="-4.939617">
        <ele>2010.0</ele>
        <time>2013-07-06T13:47:03Z</time>
      </trkpt>
      <trkpt lat="40.101417" lon="-4.939683">
        <ele>2014.0</ele>
        <time>2013-07-06T13:47:04Z</time>
      </trkpt>
      <trkpt lat="40.101500" lon="-4.939717">
        <ele>2016.0</ele>
        <time>2013-07-06T13:47:05Z</time>
      </trkpt>
      <trkpt lat="40.101600" lon="-4.939717">
        <ele>2019.0</ele>
        <time>2013-07-06T13:47:06Z</time>
      </trkpt>
      <trkpt lat="40.101700" lon="-4.939667">
        <ele>2021.0</ele>
        <time>2013-07-06T13:47:07Z</time>
      </trkpt>
      <trkpt lat="40.101783" lon="-4.939600">
        <ele>2024.0</ele>
        <time>2013-07-06T13:47:08Z</time>
      </trkpt>
      <trkpt lat="40.101833" lon="-4.939517">
        <ele>2029.0</ele>
        <time>2013-07-06T13:47:09Z</time>
      </trkpt>
      <trkpt lat="40.101883" lon="-4.939433">
        <ele>2033.0</ele>
        <time>2013-07-06T13:47:10Z</time>
      </trkpt>
      <trkpt lat="40.101900" lon="-4.939350">
        <ele>2036.0</ele>
        <time>2013-07-06T13:47:11Z</time>
      </trkpt>
      <trkpt lat="40.101933" lon="-4.939233">
        <ele>2039.0</ele>
        <time>2013-07-06T13:47:12Z</time>
      </trkpt>
      <trkpt lat="40.101983" lon="-4.939117">
        <ele>2042.0</ele>
        <time>2013-07-06T13:47:13Z</time>
      </trkpt>
      <trkpt lat="40.102017" lon="-4.939000">
        <ele>2045.0</ele>
        <time>2013-07-06T13:47:14Z</time>
      </trkpt>
      <trkpt lat="40.102050" lon="-4.938900">
        <ele>2049.0</ele>
        <time>2013-07-06T13:47:15Z</time>
      </trkpt>
      <trkpt lat="40.102067" lon="-4.938800">
        <ele>2052.0</ele>
        <time>2013-07-06T13:47:16Z</time>
      </trkpt>
      <trkpt lat="40.102083" lon="-4.938700">
        <ele>2055.0</ele>
        <time>2013-07-06T13:47:17Z</time>
      </trkpt>
      <trkpt lat="40.102083" lon="-4.938583">
        <ele>2057.0</ele>
        <time>2013-07-06T13:47:18Z</time>
      </trkpt>
      <trkpt lat="40.102067" lon="-4.938467">
        <ele>2059.0</ele>
        <time>2013-07-06T13:47:19Z</time>
      </trkpt>
      <trkpt lat="40.102067" lon="-4.938350">
        <ele>2062.0</ele>
        <time>2013-07-06T13:47:20Z</time>
      </trkpt>
      <trkpt lat="40.102067" lon="-4.938233">
        <ele>2065.0</ele>
        <time>2013-07-06T13:47:21Z</time>
      </trkpt>
      <trkpt lat="40.102033" lon="-4.938100">
        <ele>2067.0</ele>
        <time>2013-07-06T13:47:22Z</time>
      </trkpt>
      <trkpt lat="40.102000" lon="-4.937983">
        <ele>2070.0</ele>
        <time>2013-07-06T13:47:23Z</time>
      </trkpt>
      <trkpt lat="40.101950" lon="-4.937867">
        <ele>2072.0</ele>
        <time>2013-07-06T13:47:24Z</time>
      </trkpt>
      <trkpt lat="40.101900" lon="-4.937767">
        <ele>2076.0</ele>
        <time>2013-07-06T13:47:25Z</time>
      </trkpt>
      <trkpt lat="40.101850" lon="-4.937683">
        <ele>2079.0</ele>
        <time>2013-07-06T13:47:26Z</time>
      </trkpt>
      <trkpt lat="40.101783" lon="-4.937600">
        <ele>2081.0</ele>
        <time>2013-07-06T13:47:27Z</time>
      </trkpt>
      <trkpt lat="40.101700" lon="-4.937517">
        <ele>2083.0</ele>
        <time>2013-07-06T13:47:28Z</time>
      </trkpt>
      <trkpt lat="40.101600" lon="-4.937467">
        <ele>2085.0</ele>
        <time>2013-07-06T13:47:29Z</time>
      </trkpt>
      <trkpt lat="40.101517" lon="-4.937433">
        <ele>2089.0</ele>
        <time>2013-07-06T13:47:30Z</time>
      </trkpt>
      <trkpt lat="40.101433" lon="-4.937417">
        <ele>2093.0</ele>
        <time>2013-07-06T13:47:31Z</time>
      </trkpt>
      <trkpt lat="40.101350" lon="-4.937417">
        <ele>2098.0</ele>
        <time>2013-07-06T13:47:32Z</time>
      </trkpt>
      <trkpt lat="40.101250" lon="-4.937417">
        <ele>2101.0</ele>
        <time>2013-07-06T13:47:33Z</time>
      </trkpt>
      <trkpt lat="40.101150" lon="-4.937433">
        <ele>2104.0</ele>
        <time>2013-07-06T13:47:34Z</time>
      </trkpt>
      <trkpt lat="40.101050" lon="-4.937467">
        <ele>2106.0</ele>
        <time>2013-07-06T13:47:35Z</time>
      </trkpt>
      <trkpt lat="40.100967" lon="-4.937500">
        <ele>2110.0</ele>
        <time>2013-07-06T13:47:36Z</time>
      </trkpt>
      <trkpt lat="40.100883" lon="-4.937550">
        <ele>2115.0</ele>
        <time>2013-07-06T13:47:37Z</time>
      </trkpt>
      <trkpt lat="40.100833" lon="-4.937617">
        <ele>2120.0</ele>
        <time>2013-07-06T13:47:38Z</time>
      </trkpt>
      <trkpt lat="40.100783" lon="-4.937683">
        <ele>2124.0</ele>
        <time>2013-07-06T13:47:39Z</time>
      </trkpt>
      <trkpt lat="40.100733" lon="-4.937783">
        <ele>2128.0</ele>
        <time>2013-07-06T13:47:40Z</time>
      </trkpt>
      <trkpt lat="40.100700" lon="-4.937867">
        <ele>2132.0</ele>
        <time>2013-07-06T13:47:41Z</time>
      </trkpt>
      <trkpt lat="40.100667" lon="-4.937967">
        <ele>2136.0</ele>
        <time>2013-07-06T13:47:42Z</time>
      </trkpt>
      <trkpt lat="40.100633" lon="-4.938050">
        <ele>2141.0</ele>
        <time>2013-07-06T13:47:43Z</time>
      </trkpt>
      <trkpt lat="40.100617" lon="-4.938150">
        <ele>2145.0</ele>
        <time>2013-07-06T13:47:44Z</time>
      </trkpt>
      <trkpt lat="40.100600" lon="-4.938250">
        <ele>2149.0</ele>
        <time>2013-07-06T13:47:45Z</time>
      </trkpt>
      <trkpt lat="40.100600" lon="-4.938350">
        <ele>2154.0</ele>
        <time>2013-07-06T13:47:46Z</time>
      </trkpt>
      <trkpt lat="40.100600" lon="-4.938467">
        <ele>2157.0</ele>
        <time>2013-07-06T13:47:47Z</time>
      </trkpt>
      <trkpt lat="40.100600" lon="-4.938583">
        <ele>2161.0</ele>
        <time>2013-07-06T13:47:48Z</time>
      </trkpt>
      <trkpt lat="40.100633" lon="-4.938700">
        <ele>2165.0</ele>
        <time>2013-07-06T13:47:49Z</time>
      </trkpt>
      <trkpt lat="40.100683" lon="-4.938783">
        <ele>2169.0</ele>
        <time>2013-07-06T13:47:50Z</time>
      </trkpt>
      <trkpt lat="40.100733" lon="-4.938867">
        <ele>2173.0</ele>
        <time>2013-07-06T13:47:51Z</time>
      </trkpt>
      <trkpt lat="40.100783" lon="-4.938917">
        <ele>2178.0</ele>
        <time>2013-07-06T13:47:52Z</time>
      </trkpt>
      <trkpt lat="40.100850" lon="-4.938983">
        <ele>2182.0</ele>
        <time>2013-07-06T13:47:53Z</time>
      </trkpt>
      <trkpt lat="40.100917" lon="-4.939033">
        <ele>2186.0</ele>
        <time>2013-07-06T13:47:54Z</time>
      </trkpt>
      <trkpt lat="40.101067" lon="-4.939083">
        <ele>2194.0</ele>
        <time>2013-07-06T13:47:56Z</time>
      </trkpt>
      <trkpt lat="40.101133" lon="-4.939067">
        <ele>2198.0</ele>
        <time>2013-07-06T13:47:57Z</time>
      </trkpt>
      <trkpt lat="40.101183" lon="-4.939033">
        <ele>2202.0</ele>
        <time>2013-07-06T13:47:58Z</time>
      </trkpt>
      <trkpt lat="40.101283" lon="-4.938917">
        <ele>2210.0</ele>
        <time>2013-07-06T13:48:00Z</time>
      </trkpt>
      <trkpt lat="40.101317" lon="-4.938850">
        <ele>2213.0</ele>
        <time>2013-07-06T13:48:01Z</time>
      </trkpt>
      <trkpt lat="40.101367" lon="-4.938750">
        <ele>2217.0</ele>
        <time>2013-07-06T13:48:02Z</time>
      </trkpt>
      <trkpt lat="40.101383" lon="-4.938667">
        <ele>2221.0</ele>
        <time>2013-07-06T13:48:03Z</time>
      </trkpt>
      <trkpt lat="40.101383" lon="-4.938583">
        <ele>2226.0</ele>
        <time>2013-07-06T13:48:04Z</time>
      </trkpt>
      <trkpt lat="40.101367" lon="-4.938500">
        <ele>2230.0</ele>
        <time>2013-07-06T13:48:05Z</time>
      </trkpt>
      <trkpt lat="40.101367" lon="-4.938417">
        <ele>2235.0</ele>
        <time>2013-07-06T13:48:06Z</time>
      </trkpt>
      <trkpt lat="40.101350" lon="-4.938317">
        <ele>2239.0</ele>
        <time>2013-07-06T13:48:07Z</time>
      </trkpt>
      <trkpt lat="40.101317" lon="-4.938217">
        <ele>2243.0</ele>
        <time>2013-07-06T13:48:08Z</time>
      </trkpt>
      <trkpt lat="40.101267" lon="-4.938133">
        <ele>2246.0</ele>
        <time>2013-07-06T13:48:09Z</time>
      </trkpt>
      <trkpt lat="40.101183" lon="-4.938067">
        <ele>2249.0</ele>
        <time>2013-07-06T13:48:10Z</time>
      </trkpt>
      <trkpt lat="40.101100" lon="-4.938000">
        <ele>2251.0</ele>
        <time>2013-07-06T13:48:11Z</time>
      </trkpt>
      <trkpt lat="40.101000" lon="-4.937983">
        <ele>2253.0</ele>
        <time>2013-07-06T13:48:12Z</time>
      </trkpt>
      <trkpt lat="40.100900" lon="-4.937967">
        <ele>2255.0</ele>
        <time>2013-07-06T13:48:13Z</time>
      </trkpt>
      <trkpt lat="40.100800" lon="-4.937967">
        <ele>2257.0</ele>
        <time>2013-07-06T13:48:14Z</time>
      </trkpt>
      <trkpt lat="40.100700" lon="-4.937950">
        <ele>2258.0</ele>
        <time>2013-07-06T13:48:15Z</time>
      </trkpt>
      <trkpt lat="40.100583" lon="-4.937950">
        <ele>2259.0</ele>
        <time>2013-07-06T13:48:16Z</time>
      </trkpt>
      <trkpt lat="40.100467" lon="-4.937950">
        <ele>2262.0</ele>
        <time>2013-07-06T13:48:17Z</time>
      </trkpt>
      <trkpt lat="40.100383" lon="-4.938000">
        <ele>2266.0</ele>
        <time>2013-07-06T13:48:18Z</time>
      </trkpt>
      <trkpt lat="40.100300" lon="-4.938067">
        <ele>2269.0</ele>
        <time>2013-07-06T13:48:19Z</time>
      </trkpt>
      <trkpt lat="40.100233" lon="-4.938150">
        <ele>2273.0</ele>
        <time>2013-07-06T13:48:20Z</time>
      </trkpt>
      <trkpt lat="40.100183" lon="-4.938233">
        <ele>2277.0</ele>
        <time>2013-07-06T13:48:21Z</time>
      </trkpt>
      <trkpt lat="40.100150" lon="-4.938333">
        <ele>2282.0</ele>
        <time>2013-07-06T13:48:22Z</time>
      </trkpt>
      <trkpt lat="40.100117" lon="-4.938450">
        <ele>2286.0</ele>
        <time>2013-07-06T13:48:23Z</time>
      </trkpt>
      <trkpt lat="40.100117" lon="-4.938567">
        <ele>2289.0</ele>
        <time>2013-07-06T13:48:24Z</time>
      </trkpt>
      <trkpt lat="40.100133" lon="-4.938683">
        <ele>2292.0</ele>
        <time>2013-07-06T13:48:25Z</time>
      </trkpt>
      <trkpt lat="40.100183" lon="-4.938783">
        <ele>2295.0</ele>
        <time>2013-07-06T13:48:26Z</time>
      </trkpt>
      <trkpt lat="40.100250" lon="-4.938850">
        <ele>2298.0</ele>
        <time>2013-07-06T13:48:27Z</time>
      </trkpt>
      <trkpt lat="40.100317" lon="-4.938900">
        <ele>2301.0</ele>
        <time>2013-07-06T13:48:28Z</time>
      </trkpt>
      <trkpt lat="40.100400" lon="-4.938917">
        <ele>2305.0</ele>
        <time>2013-07-06T13:48:29Z</time>
      </trkpt>
      <trkpt lat="40.100483" lon="-4.938933">
        <ele>2308.0</ele>
        <time>2013-07-06T13:48:30Z</time>
      </trkpt>
      <trkpt lat="40.100633" lon="-4.938867">
        <ele>2314.0</ele>
        <time>2013-07-06T13:48:32Z</time>
      </trkpt>
      <trkpt lat="40.100733" lon="-4.938750">
        <ele>2322.0</ele>
        <time>2013-07-06T13:48:34Z</time>
      </trkpt>
      <trkpt lat="40.100767" lon="-4.938683">
        <ele>2326.0</ele>
        <time>2013-07-06T13:48:35Z</time>
      </trkpt>
      <trkpt lat="40.100767" lon="-4.938600">
        <ele>2330.0</ele>
        <time>2013-07-06T13:48:36Z</time>
      </trkpt>
      <trkpt lat="40.100783" lon="-4.938500">
        <ele>2333.0</ele>
        <time>2013-07-06T13:48:37Z</time>
      </trkpt>
      <trkpt lat="40.100783" lon="-4.938383">
        <ele>2336.0</ele>
        <time>2013-07-06T13:48:38Z</time>
      </trkpt>
      <trkpt lat="40.100767" lon="-4.938250">
        <ele>2338.0</ele>
        <time>2013-07-06T13:48:39Z</time>
      </trkpt>
      <trkpt lat="40.100750" lon="-4.938133">
        <ele>2341.0</ele>
        <time>2013-07-06T13:48:40Z</time>
      </trkpt>
      <trkpt lat="40.100717" lon="-4.938033">
        <ele>2345.0</ele>
        <time>2013-07-06T13:48:41Z</time>
      </trkpt>
      <trkpt lat="40.100667" lon="-4.937933">
        <ele>2349.0</ele>
        <time>2013-07-06T13:48:42Z</time>
      </trkpt>
      <trkpt lat="40.100600" lon="-4.937850">
        <ele>2352.0</ele>
        <time>2013-07-06T13:48:43Z</time>
      </trkpt>
      <trkpt lat="40.100533" lon="-4.937750">
        <ele>2356.0</ele>
        <time>2013-07-06T13:48:44Z</time>
      </trkpt>
      <trkpt lat="40.100450" lon="-4.937683">
        <ele>2359.0</ele>
        <time>2013-07-06T13:48:45Z</time>
      </trkpt>
      <trkpt lat="40.100350" lon="-4.937617">
        <ele>2362.0</ele>
        <time>2013-07-06T13:48:46Z</time>
      </trkpt>
      <trkpt lat="40.100250" lon="-4.937583">
        <ele>2365.0</ele>
        <time>2013-07-06T13:48:47Z</time>
      </trkpt>
      <trkpt lat="40.100150" lon="-4.937583">
        <ele>2368.0</ele>
        <time>2013-07-06T13:48:48Z</time>
      </trkpt>
      <trkpt lat="40.100067" lon="-4.937583">
        <ele>2369.0</ele>
        <time>2013-07-06T13:48:49Z</time>
      </trkpt>
      <trkpt lat="40.099950" lon="-4.937567">
        <ele>2370.0</ele>
        <time>2013-07-06T13:48:50Z</time>
      </trkpt>
      <trkpt lat="40.099833" lon="-4.937567">
        <ele>2371.0</ele>
        <time>2013-07-06T13:48:51Z</time>
      </trkpt>
      <trkpt lat="40.099717" lon="-4.937533">
        <ele>2372.0</ele>
        <time>2013-07-06T13:48:52Z</time>
      </trkpt>
      <trkpt lat="40.099600" lon="-4.937483">
        <ele>2374.0</ele>
        <time>2013-07-06T13:48:53Z</time>
      </trkpt>
      <trkpt lat="40.099500" lon="-4.937450">
        <ele>2379.0</ele>
        <time>2013-07-06T13:48:54Z</time>
      </trkpt>
      <trkpt lat="40.099417" lon="-4.937417">
        <ele>2384.0</ele>
        <time>2013-07-06T13:48:55Z</time>
      </trkpt>
      <trkpt lat="40.099333" lon="-4.937383">
        <ele>2388.0</ele>
        <time>2013-07-06T13:48:56Z</time>
      </trkpt>
      <trkpt lat="40.099233" lon="-4.937333">
        <ele>2391.0</ele>
        <time>2013-07-06T13:48:57Z</time>
      </trkpt>
      <trkpt lat="40.099133" lon="-4.937267">
        <ele>2394.0</ele>
        <time>2013-07-06T13:48:58Z</time>
      </trkpt>
      <trkpt lat="40.099017" lon="-4.937200">
        <ele>2395.0</ele>
        <time>2013-07-06T13:48:59Z</time>
      </trkpt>
      <trkpt lat="40.098917" lon="-4.937150">
        <ele>2394.0</ele>
        <time>2013-07-06T13:49:00Z</time>
      </trkpt>
      <trkpt lat="40.098833" lon="-4.937117">
        <ele>2396.0</ele>
        <time>2013-07-06T13:49:01Z</time>
      </trkpt>
      <trkpt lat="40.098750" lon="-4.937083">
        <ele>2397.0</ele>
        <time>2013-07-06T13:49:02Z</time>
      </trkpt>
      <trkpt lat="40.098650" lon="-4.937067">
        <ele>2397.0</ele>
        <time>2013-07-06T13:49:03Z</time>
      </trkpt>
      <trkpt lat="40.098533" lon="-4.937067">
        <ele>2397.0</ele>
        <time>2013-07-06T13:49:04Z</time>
      </trkpt>
      <trkpt lat="40.098433" lon="-4.937067">
        <ele>2396.0</ele>
        <time>2013-07-06T13:49:05Z</time>
      </trkpt>
      <trkpt lat="40.098333" lon="-4.937083">
        <ele>2396.0</ele>
        <time>2013-07-06T13:49:06Z</time>
      </trkpt>
      <trkpt lat="40.098250" lon="-4.937117">
        <ele>2397.0</ele>
        <time>2013-07-06T13:49:07Z</time>
      </trkpt>
      <trkpt lat="40.098167" lon="-4.937167">
        <ele>2397.0</ele>
        <time>2013-07-06T13:49:08Z</time>
      </trkpt>
      <trkpt lat="40.098100" lon="-4.937217">
        <ele>2398.0</ele>
        <time>2013-07-06T13:49:09Z</time>
      </trkpt>
      <trkpt lat="40.098033" lon="-4.937300">
        <ele>2397.0</ele>
        <time>2013-07-06T13:49:10Z</time>
      </trkpt>
      <trkpt lat="40.097983" lon="-4.937400">
        <ele>2396.0</ele>
        <time>2013-07-06T13:49:11Z</time>
      </trkpt>
      <trkpt lat="40.097933" lon="-4.937500">
        <ele>2396.0</ele>
        <time>2013-07-06T13:49:12Z</time>
      </trkpt>
      <trkpt lat="40.097867" lon="-4.937583">
        <ele>2397.0</ele>
        <time>2013-07-06T13:49:13Z</time>
      </trkpt>
      <trkpt lat="40.097800" lon="-4.937650">
        <ele>2398.0</ele>
        <time>2013-07-06T13:49:14Z</time>
      </trkpt>
      <trkpt lat="40.097717" lon="-4.937683">
        <ele>2398.0</ele>
        <time>2013-07-06T13:49:15Z</time>
      </trkpt>
      <trkpt lat="40.097600" lon="-4.937717">
        <ele>2397.0</ele>
        <time>2013-07-06T13:49:16Z</time>
      </trkpt>
      <trkpt lat="40.097500" lon="-4.937733">
        <ele>2395.0</ele>
        <time>2013-07-06T13:49:17Z</time>
      </trkpt>
      <trkpt lat="40.097383" lon="-4.937750">
        <ele>2393.0</ele>
        <time>2013-07-06T13:49:18Z</time>
      </trkpt>
      <trkpt lat="40.097267" lon="-4.937750">
        <ele>2390.0</ele>
        <time>2013-07-06T13:49:19Z</time>
      </trkpt>
      <trkpt lat="40.097167" lon="-4.937733">
        <ele>2387.0</ele>
        <time>2013-07-06T13:49:20Z</time>
      </trkpt>
      <trkpt lat="40.097050" lon="-4.937717">
        <ele>2384.0</ele>
        <time>2013-07-06T13:49:21Z</time>
      </trkpt>
      <trkpt lat="40.096950" lon="-4.937717">
        <ele>2382.0</ele>
        <time>2013-07-06T13:49:22Z</time>
      </trkpt>
      <trkpt lat="40.096833" lon="-4.937700">
        <ele>2381.0</ele>
        <time>2013-07-06T13:49:23Z</time>
      </trkpt>
      <trkpt lat="40.096750" lon="-4.937700">
        <ele>2380.0</ele>
        <time>2013-07-06T13:49:24Z</time>
      </trkpt>
      <trkpt lat="40.096650" lon="-4.937700">
        <ele>2378.0</ele>
        <time>2013-07-06T13:49:25Z</time>
      </trkpt>
      <trkpt lat="40.096550" lon="-4.937683">
        <ele>2375.0</ele>
        <time>2013-07-06T13:49:26Z</time>
      </trkpt>
      <trkpt lat="40.096450" lon="-4.937700">
        <ele>2372.0</ele>
        <time>2013-07-06T13:49:27Z</time>
      </trkpt>
      <trkpt lat="40.096333" lon="-4.937700">
        <ele>2370.0</ele>
        <time>2013-07-06T13:49:28Z</time>
      </trkpt>
      <trkpt lat="40.096217" lon="-4.937700">
        <ele>2368.0</ele>
        <time>2013-07-06T13:49:29Z</time>
      </trkpt>
      <trkpt lat="40.096117" lon="-4.937683">
        <ele>2367.0</ele>
        <time>2013-07-06T13:49:30Z</time>
      </trkpt>
      <trkpt lat="40.096017" lon="-4.937683">
        <ele>2365.0</ele>
        <time>2013-07-06T13:49:31Z</time>
      </trkpt>
      <trkpt lat="40.095917" lon="-4.937667">
        <ele>2364.0</ele>
        <time>2013-07-06T13:49:32Z</time>
      </trkpt>
      <trkpt lat="40.095800" lon="-4.937667">
        <ele>2362.0</ele>
        <time>2013-07-06T13:49:33Z</time>
      </trkpt>
      <trkpt lat="40.095683" lon="-4.937667">
        <ele>2361.0</ele>
        <time>2013-07-06T13:49:34Z</time>
      </trkpt>
      <trkpt lat="40.095567" lon="-4.937650">
        <ele>2359.0</ele>
        <time>2013-07-06T13:49:35Z</time>
      </trkpt>
      <trkpt lat="40.095450" lon="-4.937633">
        <ele>2357.0</ele>
        <time>2013-07-06T13:49:36Z</time>
      </trkpt>
      <trkpt lat="40.095350" lon="-4.937600">
        <ele>2357.0</ele>
        <time>2013-07-06T13:49:37Z</time>
      </trkpt>
      <trkpt lat="40.095250" lon="-4.937583">
        <ele>2356.0</ele>
        <time>2013-07-06T13:49:38Z</time>
      </trkpt>
      <trkpt lat="40.095150" lon="-4.937583">
        <ele>2355.0</ele>
        <time>2013-07-06T13:49:39Z</time>
      </trkpt>
      <trkpt lat="40.095050" lon="-4.937583">
        <ele>2353.0</ele>
        <time>2013-07-06T13:49:40Z</time>
      </trkpt>
      <trkpt lat="40.094933" lon="-4.937600">
        <ele>2350.0</ele>
        <time>2013-07-06T13:49:41Z</time>
      </trkpt>
      <trkpt lat="40.094833" lon="-4.937617">
        <ele>2347.0</ele>
        <time>2013-07-06T13:49:42Z</time>
      </trkpt>
      <trkpt lat="40.094733" lon="-4.937633">
        <ele>2343.0</ele>
        <time>2013-07-06T13:49:43Z</time>
      </trkpt>
      <trkpt lat="40.094617" lon="-4.937650">
        <ele>2339.0</ele>
        <time>2013-07-06T13:49:44Z</time>
      </trkpt>
      <trkpt lat="40.094517" lon="-4.937667">
        <ele>2337.0</ele>
        <time>2013-07-06T13:49:45Z</time>
      </trkpt>
      <trkpt lat="40.094433" lon="-4.937683">
        <ele>2334.0</ele>
        <time>2013-07-06T13:49:46Z</time>
      </trkpt>
      <trkpt lat="40.094317" lon="-4.937700">
        <ele>2331.0</ele>
        <time>2013-07-06T13:49:47Z</time>
      </trkpt>
      <trkpt lat="40.094217" lon="-4.937733">
        <ele>2328.0</ele>
        <time>2013-07-06T13:49:48Z</time>
      </trkpt>
      <trkpt lat="40.094083" lon="-4.937767">
        <ele>2325.0</ele>
        <time>2013-07-06T13:49:49Z</time>
      </trkpt>
      <trkpt lat="40.093983" lon="-4.937800">
        <ele>2323.0</ele>
        <time>2013-07-06T13:49:50Z</time>
      </trkpt>
      <trkpt lat="40.093883" lon="-4.937850">
        <ele>2321.0</ele>
        <time>2013-07-06T13:49:51Z</time>
      </trkpt>
      <trkpt lat="40.093767" lon="-4.937867">
        <ele>2318.0</ele>
        <time>2013-07-06T13:49:52Z</time>
      </trkpt>
      <trkpt lat="40.093667" lon="-4.937900">
        <ele>2316.0</ele>
        <time>2013-07-06T13:49:53Z</time>
      </trkpt>
      <trkpt lat="40.093550" lon="-4.937933">
        <ele>2312.0</ele>
        <time>2013-07-06T13:49:54Z</time>
      </trkpt>
      <trkpt lat="40.093433" lon="-4.937967">
        <ele>2309.0</ele>
        <time>2013-07-06T13:49:55Z</time>
      </trkpt>
      <trkpt lat="40.093317" lon="-4.938017">
        <ele>2307.0</ele>
        <time>2013-07-06T13:49:56Z</time>
      </trkpt>
      <trkpt lat="40.093217" lon="-4.938050">
        <ele>2304.0</ele>
        <time>2013-07-06T13:49:57Z</time>
      </trkpt>
      <trkpt lat="40.093100" lon="-4.938083">
        <ele>2302.0</ele>
        <time>2013-07-06T13:49:58Z</time>
      </trkpt>
      <trkpt lat="40.093000" lon="-4.938117">
        <ele>2300.0</ele>
        <time>2013-07-06T13:49:59Z</time>
      </trkpt>
      <trkpt lat="40.092883" lon="-4.938150">
        <ele>2298.0</ele>
        <time>2013-07-06T13:50:00Z</time>
      </trkpt>
      <trkpt lat="40.092783" lon="-4.938183">
        <ele>2296.0</ele>
        <time>2013-07-06T13:50:01Z</time>
      </trkpt>
      <trkpt lat="40.092667" lon="-4.938217">
        <ele>2294.0</ele>
        <time>2013-07-06T13:50:02Z</time>
      </trkpt>
      <trkpt lat="40.092567" lon="-4.938250">
        <ele>2292.0</ele>
        <time>2013-07-06T13:50:03Z</time>
      </trkpt>
      <trkpt lat="40.092467" lon="-4.938283">
        <ele>2290.0</ele>
        <time>2013-07-06T13:50:04Z</time>
      </trkpt>
      <trkpt lat="40.092367" lon="-4.938283">
        <ele>2288.0</ele>
        <time>2013-07-06T13:50:05Z</time>
      </trkpt>
      <trkpt lat="40.092267" lon="-4.938300">
        <ele>2285.0</ele>
        <time>2013-07-06T13:50:06Z</time>
      </trkpt>
      <trkpt lat="40.092150" lon="-4.938317">
        <ele>2282.0</ele>
        <time>2013-07-06T13:50:07Z</time>
      </trkpt>
      <trkpt lat="40.092050" lon="-4.938350">
        <ele>2280.0</ele>
        <time>2013-07-06T13:50:08Z</time>
      </trkpt>
      <trkpt lat="40.091933" lon="-4.938367">
        <ele>2278.0</ele>
        <time>2013-07-06T13:50:09Z</time>
      </trkpt>
      <trkpt lat="40.091833" lon="-4.938400">
        <ele>2276.0</ele>
        <time>2013-07-06T13:50:10Z</time>
      </trkpt>
      <trkpt lat="40.091750" lon="-4.938400">
        <ele>2274.0</ele>
        <time>2013-07-06T13:50:11Z</time>
      </trkpt>
      <trkpt lat="40.091633" lon="-4.938417">
        <ele>2272.0</ele>
        <time>2013-07-06T13:50:12Z</time>
      </trkpt>
      <trkpt lat="40.091517" lon="-4.938433">
        <ele>2270.0</ele>
        <time>2013-07-06T13:50:13Z</time>
      </trkpt>
      <trkpt lat="40.091400" lon="-4.938450">
        <ele>2269.0</ele>
        <time>2013-07-06T13:50:14Z</time>
      </trkpt>
      <trkpt lat="40.091300" lon="-4.938483">
        <ele>2268.0</ele>
        <time>2013-07-06T13:50:15Z</time>
      </trkpt>
      <trkpt lat="40.091200" lon="-4.938500">
        <ele>2267.0</ele>
        <time>2013-07-06T13:50:16Z</time>
      </trkpt>
      <trkpt lat="40.091100" lon="-4.938517">
        <ele>2266.0</ele>
        <time>2013-07-06T13:50:17Z</time>
      </trkpt>
      <trkpt lat="40.090983" lon="-4.938517">
        <ele>2264.0</ele>
        <time>2013-07-06T13:50:18Z</time>
      </trkpt>
      <trkpt lat="40.090867" lon="-4.938533">
        <ele>2262.0</ele>
        <time>2013-07-06T13:50:19Z</time>
      </trkpt>
      <trkpt lat="40.090767" lon="-4.938550">
        <ele>2260.0</ele>
        <time>2013-07-06T13:50:20Z</time>
      </trkpt>
      <trkpt lat="40.090650" lon="-4.938567">
        <ele>2259.0</ele>
        <time>2013-07-06T13:50:21Z</time>
      </trkpt>
      <trkpt lat="40.090550" lon="-4.938583">
        <ele>2258.0</ele>
        <time>2013-07-06T13:50:22Z</time>
      </trkpt>
      <trkpt lat="40.090433" lon="-4.938583">
        <ele>2255.0</ele>
        <time>2013-07-06T13:50:23Z</time>
      </trkpt>
      <trkpt lat="40.090317" lon="-4.938583">
        <ele>2252.0</ele>
        <time>2013-07-06T13:50:24Z</time>
      </trkpt>
      <trkpt lat="40.090200" lon="-4.938600">
        <ele>2250.0</ele>
        <time>2013-07-06T13:50:25Z</time>
      </trkpt>
      <trkpt lat="40.090083" lon="-4.938617">
        <ele>2248.0</ele>
        <time>2013-07-06T13:50:26Z</time>
      </trkpt>
      <trkpt lat="40.089967" lon="-4.938633">
        <ele>2246.0</ele>
        <time>2013-07-06T13:50:27Z</time>
      </trkpt>
      <trkpt lat="40.089867" lon="-4.938667">
        <ele>2244.0</ele>
        <time>2013-07-06T13:50:28Z</time>
      </trkpt>
      <trkpt lat="40.089767" lon="-4.938683">
        <ele>2242.0</ele>
        <time>2013-07-06T13:50:29Z</time>
      </trkpt>
      <trkpt lat="40.089650" lon="-4.938700">
        <ele>2239.0</ele>
        <time>2013-07-06T13:50:30Z</time>
      </trkpt>
      <trkpt lat="40.089533" lon="-4.938717">
        <ele>2236.0</ele>
        <time>2013-07-06T13:50:31Z</time>
      </trkpt>
      <trkpt lat="40.089417" lon="-4.938717">
        <ele>2233.0</ele>
        <time>2013-07-06T13:50:32Z</time>
      </trkpt>
      <trkpt lat="40.089300" lon="-4.938717">
        <ele>2230.0</ele>
        <time>2013-07-06T13:50:33Z</time>
      </trkpt>
      <trkpt lat="40.089183" lon="-4.938700">
        <ele>2227.0</ele>
        <time>2013-07-06T13:50:34Z</time>
      </trkpt>
      <trkpt lat="40.089083" lon="-4.938700">
        <ele>2225.0</ele>
        <time>2013-07-06T13:50:35Z</time>
      </trkpt>
      <trkpt lat="40.088983" lon="-4.938717">
        <ele>2223.0</ele>
        <time>2013-07-06T13:50:36Z</time>
      </trkpt>
      <trkpt lat="40.088883" lon="-4.938733">
        <ele>2220.0</ele>
        <time>2013-07-06T13:50:37Z</time>
      </trkpt>
      <trkpt lat="40.088750" lon="-4.938750">
        <ele>2216.0</ele>
        <time>2013-07-06T13:50:38Z</time>
      </trkpt>
      <trkpt lat="40.088633" lon="-4.938750">
        <ele>2213.0</ele>
        <time>2013-07-06T13:50:39Z</time>
      </trkpt>
      <trkpt lat="40.088533" lon="-4.938767">
        <ele>2210.0</ele>
        <time>2013-07-06T13:50:40Z</time>
      </trkpt>
      <trkpt lat="40.088417" lon="-4.938783">
        <ele>2208.0</ele>
        <time>2013-07-06T13:50:41Z</time>
      </trkpt>
      <trkpt lat="40.088317" lon="-4.938783">
        <ele>2205.0</ele>
        <time>2013-07-06T13:50:42Z</time>
      </trkpt>
      <trkpt lat="40.088200" lon="-4.938800">
        <ele>2202.0</ele>
        <time>2013-07-06T13:50:43Z</time>
      </trkpt>
      <trkpt lat="40.088100" lon="-4.938833">
        <ele>2199.0</ele>
        <time>2013-07-06T13:50:44Z</time>
      </trkpt>
      <trkpt lat="40.087983" lon="-4.938850">
        <ele>2196.0</ele>
        <time>2013-07-06T13:50:45Z</time>
      </trkpt>
      <trkpt lat="40.087867" lon="-4.938883">
        <ele>2193.0</ele>
        <time>2013-07-06T13:50:46Z</time>
      </trkpt>
      <trkpt lat="40.087750" lon="-4.938900">
        <ele>2189.0</ele>
        <time>2013-07-06T13:50:47Z</time>
      </trkpt>
      <trkpt lat="40.087650" lon="-4.938933">
        <ele>2187.0</ele>
        <time>2013-07-06T13:50:48Z</time>
      </trkpt>
      <trkpt lat="40.087533" lon="-4.938950">
        <ele>2184.0</ele>
        <time>2013-07-06T13:50:49Z</time>
      </trkpt>
      <trkpt lat="40.087433" lon="-4.938983">
        <ele>2183.0</ele>
        <time>2013-07-06T13:50:50Z</time>
      </trkpt>
      <trkpt lat="40.087317" lon="-4.939017">
        <ele>2181.0</ele>
        <time>2013-07-06T13:50:51Z</time>
      </trkpt>
      <trkpt lat="40.087217" lon="-4.939050">
        <ele>2179.0</ele>
        <time>2013-07-06T13:50:52Z</time>
      </trkpt>
      <trkpt lat="40.087117" lon="-4.939083">
        <ele>2177.0</ele>
        <time>2013-07-06T13:50:53Z</time>
      </trkpt>
      <trkpt lat="40.087017" lon="-4.939117">
        <ele>2174.0</ele>
        <time>2013-07-06T13:50:54Z</time>
      </trkpt>
      <trkpt lat="40.086900" lon="-4.939150">
        <ele>2172.0</ele>
        <time>2013-07-06T13:50:55Z</time>
      </trkpt>
      <trkpt lat="40.086800" lon="-4.939183">
        <ele>2169.0</ele>
        <time>2013-07-06T13:50:56Z</time>
      </trkpt>
      <trkpt lat="40.086683" lon="-4.939233">
        <ele>2167.0</ele>
        <time>2013-07-06T13:50:57Z</time>
      </trkpt>
      <trkpt lat="40.086583" lon="-4.939283">
        <ele>2164.0</ele>
        <time>2013-07-06T13:50:58Z</time>
      </trkpt>
      <trkpt lat="40.086467" lon="-4.939317">
        <ele>2164.0</ele>
        <time>2013-07-06T13:50:59Z</time>
      </trkpt>
      <trkpt lat="40.086367" lon="-4.939350">
        <ele>2163.0</ele>
        <time>2013-07-06T13:51:00Z</time>
      </trkpt>
      <trkpt lat="40.086267" lon="-4.939383">
        <ele>2162.0</ele>
        <time>2013-07-06T13:51:01Z</time>
      </trkpt>
      <trkpt lat="40.086167" lon="-4.939433">
        <ele>2161.0</ele>
        <time>2013-07-06T13:51:02Z</time>
      </trkpt>
      <trkpt lat="40.086067" lon="-4.939467">
        <ele>2160.0</ele>
        <time>2013-07-06T13:51:03Z</time>
      </trkpt>
      <trkpt lat="40.085950" lon="-4.939500">
        <ele>2159.0</ele>
        <time>2013-07-06T13:51:04Z</time>
      </trkpt>
      <trkpt lat="40.085850" lon="-4.939533">
        <ele>2159.0</ele>
        <time>2013-07-06T13:51:05Z</time>
      </trkpt>
      <trkpt lat="40.085767" lon="-4.939567">
        <ele>2159.0</ele>
        <time>2013-07-06T13:51:06Z</time>
      </trkpt>
      <trkpt lat="40.085667" lon="-4.939617">
        <ele>2159.0</ele>
        <time>2013-07-06T13:51:07Z</time>
      </trkpt>
      <trkpt lat="40.085583" lon="-4.939650">
        <ele>2158.0</ele>
        <time>2013-07-06T13:51:08Z</time>
      </trkpt>
      <trkpt lat="40.085483" lon="-4.939700">
        <ele>2157.0</ele>
        <time>2013-07-06T13:51:09Z</time>
      </trkpt>
      <trkpt lat="40.085383" lon="-4.939767">
        <ele>2156.0</ele>
        <time>2013-07-06T13:51:10Z</time>
      </trkpt>
      <trkpt lat="40.085283" lon="-4.939817">
        <ele>2155.0</ele>
        <time>2013-07-06T13:51:11Z</time>
      </trkpt>
      <trkpt lat="40.085183" lon="-4.939850">
        <ele>2155.0</ele>
        <time>2013-07-06T13:51:12Z</time>
      </trkpt>
      <trkpt lat="40.085100" lon="-4.939900">
        <ele>2154.0</ele>
        <time>2013-07-06T13:51:13Z</time>
      </trkpt>
      <trkpt lat="40.085000" lon="-4.939933">
        <ele>2153.0</ele>
        <time>2013-07-06T13:51:14Z</time>
      </trkpt>
      <trkpt lat="40.084883" lon="-4.939983">
        <ele>2152.0</ele>
        <time>2013-07-06T13:51:15Z</time>
      </trkpt>
      <trkpt lat="40.084783" lon="-4.940017">
        <ele>2151.0</ele>
        <time>2013-07-06T13:51:16Z</time>
      </trkpt>
      <trkpt lat="40.084683" lon="-4.940067">
        <ele>2151.0</ele>
        <time>2013-07-06T13:51:17Z</time>
      </trkpt>
      <trkpt lat="40.084600" lon="-4.940117">
        <ele>2151.0</ele>
        <time>2013-07-06T13:51:18Z</time>
      </trkpt>
      <trkpt lat="40.084500" lon="-4.940150">
        <ele>2151.0</ele>
        <time>2013-07-06T13:51:19Z</time>
      </trkpt>
      <trkpt lat="40.084417" lon="-4.940200">
        <ele>2151.0</ele>
        <time>2013-07-06T13:51:20Z</time>
      </trkpt>
      <trkpt lat="40.084317" lon="-4.940233">
        <ele>2150.0</ele>
        <time>2013-07-06T13:51:21Z</time>
      </trkpt>
      <trkpt lat="40.084217" lon="-4.940283">
        <ele>2150.0</ele>
        <time>2013-07-06T13:51:22Z</time>
      </trkpt>
      <trkpt lat="40.084117" lon="-4.940350">
        <ele>2149.0</ele>
        <time>2013-07-06T13:51:23Z</time>
      </trkpt>
      <trkpt lat="40.084017" lon="-4.940400">
        <ele>2149.0</ele>
        <time>2013-07-06T13:51:24Z</time>
      </trkpt>
      <trkpt lat="40.083933" lon="-4.940467">
        <ele>2149.0</ele>
        <time>2013-07-06T13:51:25Z</time>
      </trkpt>
      <trkpt lat="40.083833" lon="-4.940517">
        <ele>2149.0</ele>
        <time>2013-07-06T13:51:26Z</time>
      </trkpt>
      <trkpt lat="40.083750" lon="-4.940583">
        <ele>2148.0</ele>
        <time>2013-07-06T13:51:27Z</time>
      </trkpt>
      <trkpt lat="40.083650" lon="-4.940633">
        <ele>2148.0</ele>
        <time>2013-07-06T13:51:28Z</time>
      </trkpt>
      <trkpt lat="40.083550" lon="-4.940717">
        <ele>2148.0</ele>
        <time>2013-07-06T13:51:29Z</time>
      </trkpt>
      <trkpt lat="40.083450" lon="-4.940783">
        <ele>2147.0</ele>
        <time>2013-07-06T13:51:30Z</time>
      </trkpt>
      <trkpt lat="40.083350" lon="-4.940850">
        <ele>2147.0</ele>
        <time>2013-07-06T13:51:31Z</time>
      </trkpt>
      <trkpt lat="40.083250" lon="-4.940917">
        <ele>2147.0</ele>
        <time>2013-07-06T13:51:32Z</time>
      </trkpt>
      <trkpt lat="40.083150" lon="-4.940967">
        <ele>2147.0</ele>
        <time>2013-07-06T13:51:33Z</time>
      </trkpt>
      <trkpt lat="40.083050" lon="-4.941033">
        <ele>2146.0</ele>
        <time>2013-07-06T13:51:34Z</time>
      </trkpt>
      <trkpt lat="40.082950" lon="-4.941100">
        <ele>2146.0</ele>
        <time>2013-07-06T13:51:35Z</time>
      </trkpt>
      <trkpt lat="40.082850" lon="-4.941150">
        <ele>2145.0</ele>
        <time>2013-07-06T13:51:36Z</time>
      </trkpt>
      <trkpt lat="40.082750" lon="-4.941217">
        <ele>2144.0</ele>
        <time>2013-07-06T13:51:37Z</time>
      </trkpt>
      <trkpt lat="40.082650" lon="-4.941283">
        <ele>2143.0</ele>
        <time>2013-07-06T13:51:38Z</time>
      </trkpt>
      <trkpt lat="40.082533" lon="-4.941350">
        <ele>2143.0</ele>
        <time>2013-07-06T13:51:39Z</time>
      </trkpt>
      <trkpt lat="40.082450" lon="-4.941400">
        <ele>2143.0</ele>
        <time>2013-07-06T13:51:40Z</time>
      </trkpt>
      <trkpt lat="40.082350" lon="-4.941467">
        <ele>2143.0</ele>
        <time>2013-07-06T13:51:41Z</time>
      </trkpt>
      <trkpt lat="40.082250" lon="-4.941533">
        <ele>2143.0</ele>
        <time>2013-07-06T13:51:42Z</time>
      </trkpt>
      <trkpt lat="40.082150" lon="-4.941583">
        <ele>2142.0</ele>
        <time>2013-07-06T13:51:43Z</time>
      </trkpt>
      <trkpt lat="40.082067" lon="-4.941633">
        <ele>2142.0</ele>
        <time>2013-07-06T13:51:44Z</time>
      </trkpt>
      <trkpt lat="40.081967" lon="-4.941683">
        <ele>2141.0</ele>
        <time>2013-07-06T13:51:45Z</time>
      </trkpt>
      <trkpt lat="40.081883" lon="-4.941733">
        <ele>2140.0</ele>
        <time>2013-07-06T13:51:46Z</time>
      </trkpt>
      <trkpt lat="40.081800" lon="-4.941783">
        <ele>2139.0</ele>
        <time>2013-07-06T13:51:47Z</time>
      </trkpt>
      <trkpt lat="40.081717" lon="-4.941833">
        <ele>2137.0</ele>
        <time>2013-07-06T13:51:48Z</time>
      </trkpt>
      <trkpt lat="40.081633" lon="-4.941883">
        <ele>2136.0</ele>
        <time>2013-07-06T13:51:49Z</time>
      </trkpt>
      <trkpt lat="40.081550" lon="-4.941917">
        <ele>2134.0</ele>
        <time>2013-07-06T13:51:50Z</time>
      </trkpt>
      <trkpt lat="40.081450" lon="-4.941950">
        <ele>2131.0</ele>
        <time>2013-07-06T13:51:51Z</time>
      </trkpt>
      <trkpt lat="40.081350" lon="-4.941983">
        <ele>2128.0</ele>
        <time>2013-07-06T13:51:52Z</time>
      </trkpt>
      <trkpt lat="40.081250" lon="-4.942017">
        <ele>2126.0</ele>
        <time>2013-07-06T13:51:53Z</time>
      </trkpt>
      <trkpt lat="40.081150" lon="-4.942050">
        <ele>2124.0</ele>
        <time>2013-07-06T13:51:54Z</time>
      </trkpt>
      <trkpt lat="40.081050" lon="-4.942067">
        <ele>2123.0</ele>
        <time>2013-07-06T13:51:55Z</time>
      </trkpt>
      <trkpt lat="40.080950" lon="-4.942100">
        <ele>2121.0</ele>
        <time>2013-07-06T13:51:56Z</time>
      </trkpt>
      <trkpt lat="40.080867" lon="-4.942133">
        <ele>2119.0</ele>
        <time>2013-07-06T13:51:57Z</time>
      </trkpt>
      <trkpt lat="40.080767" lon="-4.942183">
        <ele>2116.0</ele>
        <time>2013-07-06T13:51:58Z</time>
      </trkpt>
      <trkpt lat="40.080667" lon="-4.942217">
        <ele>2113.0</ele>
        <time>2013-07-06T13:51:59Z</time>
      </trkpt>
      <trkpt lat="40.080567" lon="-4.942267">
        <ele>2110.0</ele>
        <time>2013-07-06T13:52:00Z</time>
      </trkpt>
      <trkpt lat="40.080483" lon="-4.942317">
        <ele>2108.0</ele>
        <time>2013-07-06T13:52:01Z</time>
      </trkpt>
      <trkpt lat="40.080383" lon="-4.942383">
        <ele>2105.0</ele>
        <time>2013-07-06T13:52:02Z</time>
      </trkpt>
      <trkpt lat="40.080283" lon="-4.942433">
        <ele>2102.0</ele>
        <time>2013-07-06T13:52:03Z</time>
      </trkpt>
      <trkpt lat="40.080200" lon="-4.942483">
        <ele>2099.0</ele>
        <time>2013-07-06T13:52:04Z</time>
      </trkpt>
      <trkpt lat="40.080100" lon="-4.942550">
        <ele>2096.0</ele>
        <time>2013-07-06T13:52:05Z</time>
      </trkpt>
      <trkpt lat="40.080000" lon="-4.942617">
        <ele>2093.0</ele>
        <time>2013-07-06T13:52:06Z</time>
      </trkpt>
      <trkpt lat="40.079900" lon="-4.942667">
        <ele>2090.0</ele>
        <time>2013-07-06T13:52:07Z</time>
      </trkpt>
      <trkpt lat="40.079800" lon="-4.942733">
        <ele>2087.0</ele>
        <time>2013-07-06T13:52:08Z</time>
      </trkpt>
      <trkpt lat="40.079700" lon="-4.942800">
        <ele>2085.0</ele>
        <time>2013-07-06T13:52:09Z</time>
      </trkpt>
      <trkpt lat="40.079517" lon="-4.942933">
        <ele>2080.0</ele>
        <time>2013-07-06T13:52:11Z</time>
      </trkpt>
      <trkpt lat="40.079417" lon="-4.943000">
        <ele>2077.0</ele>
        <time>2013-07-06T13:52:12Z</time>
      </trkpt>
      <trkpt lat="40.079317" lon="-4.943067">
        <ele>2075.0</ele>
        <time>2013-07-06T13:52:13Z</time>
      </trkpt>
      <trkpt lat="40.079217" lon="-4.943150">
        <ele>2072.0</ele>
        <time>2013-07-06T13:52:14Z</time>
      </trkpt>
      <trkpt lat="40.079117" lon="-4.943233">
        <ele>2068.0</ele>
        <time>2013-07-06T13:52:15Z</time>
      </trkpt>
      <trkpt lat="40.079017" lon="-4.943300">
        <ele>2064.0</ele>
        <time>2013-07-06T13:52:16Z</time>
      </trkpt>
      <trkpt lat="40.078917" lon="-4.943383">
        <ele>2061.0</ele>
        <time>2013-07-06T13:52:17Z</time>
      </trkpt>
      <trkpt lat="40.078833" lon="-4.943450">
        <ele>2057.0</ele>
        <time>2013-07-06T13:52:18Z</time>
      </trkpt>
      <trkpt lat="40.078733" lon="-4.943533">
        <ele>2054.0</ele>
        <time>2013-07-06T13:52:19Z</time>
      </trkpt>
      <trkpt lat="40.078517" lon="-4.943683">
        <ele>2046.0</ele>
        <time>2013-07-06T13:52:21Z</time>
      </trkpt>
      <trkpt lat="40.078400" lon="-4.943767">
        <ele>2042.0</ele>
        <time>2013-07-06T13:52:22Z</time>
      </trkpt>
      <trkpt lat="40.078283" lon="-4.943850">
        <ele>2038.0</ele>
        <time>2013-07-06T13:52:23Z</time>
      </trkpt>
      <trkpt lat="40.078167" lon="-4.943917">
        <ele>2036.0</ele>
        <time>2013-07-06T13:52:24Z</time>
      </trkpt>
      <trkpt lat="40.078067" lon="-4.943967">
        <ele>2033.0</ele>
        <time>2013-07-06T13:52:25Z</time>
      </trkpt>
      <trkpt lat="40.077950" lon="-4.944000">
        <ele>2030.0</ele>
        <time>2013-07-06T13:52:26Z</time>
      </trkpt>
      <trkpt lat="40.077817" lon="-4.944033">
        <ele>2027.0</ele>
        <time>2013-07-06T13:52:27Z</time>
      </trkpt>
      <trkpt lat="40.077683" lon="-4.944067">
        <ele>2026.0</ele>
        <time>2013-07-06T13:52:28Z</time>
      </trkpt>
      <trkpt lat="40.077567" lon="-4.944100">
        <ele>2025.0</ele>
        <time>2013-07-06T13:52:29Z</time>
      </trkpt>
      <trkpt lat="40.077450" lon="-4.944150">
        <ele>2025.0</ele>
        <time>2013-07-06T13:52:30Z</time>
      </trkpt>
      <trkpt lat="40.077350" lon="-4.944183">
        <ele>2025.0</ele>
        <time>2013-07-06T13:52:31Z</time>
      </trkpt>
      <trkpt lat="40.077250" lon="-4.944217">
        <ele>2024.0</ele>
        <time>2013-07-06T13:52:32Z</time>
      </trkpt>
      <trkpt lat="40.077133" lon="-4.944250">
        <ele>2023.0</ele>
        <time>2013-07-06T13:52:33Z</time>
      </trkpt>
      <trkpt lat="40.077000" lon="-4.944267">
        <ele>2021.0</ele>
        <time>2013-07-06T13:52:34Z</time>
      </trkpt>
      <trkpt lat="40.076867" lon="-4.944300">
        <ele>2019.0</ele>
        <time>2013-07-06T13:52:35Z</time>
      </trkpt>
      <trkpt lat="40.076733" lon="-4.944317">
        <ele>2018.0</ele>
        <time>2013-07-06T13:52:36Z</time>
      </trkpt>
      <trkpt lat="40.076617" lon="-4.944350">
        <ele>2018.0</ele>
        <time>2013-07-06T13:52:37Z</time>
      </trkpt>
      <trkpt lat="40.076500" lon="-4.944383">
        <ele>2016.0</ele>
        <time>2013-07-06T13:52:38Z</time>
      </trkpt>
      <trkpt lat="40.076367" lon="-4.944417">
        <ele>2014.0</ele>
        <time>2013-07-06T13:52:39Z</time>
      </trkpt>
      <trkpt lat="40.076250" lon="-4.944450">
        <ele>2011.0</ele>
        <time>2013-07-06T13:52:40Z</time>
      </trkpt>
      <trkpt lat="40.076117" lon="-4.944467">
        <ele>2009.0</ele>
        <time>2013-07-06T13:52:41Z</time>
      </trkpt>
      <trkpt lat="40.076000" lon="-4.944483">
        <ele>2007.0</ele>
        <time>2013-07-06T13:52:42Z</time>
      </trkpt>
      <trkpt lat="40.075867" lon="-4.944500">
        <ele>2005.0</ele>
        <time>2013-07-06T13:52:43Z</time>
      </trkpt>
      <trkpt lat="40.075733" lon="-4.944517">
        <ele>2003.0</ele>
        <time>2013-07-06T13:52:44Z</time>
      </trkpt>
      <trkpt lat="40.075617" lon="-4.944533">
        <ele>2001.0</ele>
        <time>2013-07-06T13:52:45Z</time>
      </trkpt>
      <trkpt lat="40.075500" lon="-4.944567">
        <ele>1998.0</ele>
        <time>2013-07-06T13:52:46Z</time>
      </trkpt>
      <trkpt lat="40.075383" lon="-4.944600">
        <ele>1996.0</ele>
        <time>2013-07-06T13:52:47Z</time>
      </trkpt>
      <trkpt lat="40.075267" lon="-4.944633">
        <ele>1994.0</ele>
        <time>2013-07-06T13:52:48Z</time>
      </trkpt>
      <trkpt lat="40.075150" lon="-4.944667">
        <ele>1991.0</ele>
        <time>2013-07-06T13:52:49Z</time>
      </trkpt>
      <trkpt lat="40.075017" lon="-4.944700">
        <ele>1988.0</ele>
        <time>2013-07-06T13:52:50Z</time>
      </trkpt>
      <trkpt lat="40.074900" lon="-4.944717">
        <ele>1986.0</ele>
        <time>2013-07-06T13:52:51Z</time>
      </trkpt>
      <trkpt lat="40.074783" lon="-4.944733">
        <ele>1984.0</ele>
        <time>2013-07-06T13:52:52Z</time>
      </trkpt>
      <trkpt lat="40.074667" lon="-4.944750">
        <ele>1982.0</ele>
        <time>2013-07-06T13:52:53Z</time>
      </trkpt>
      <trkpt lat="40.074550" lon="-4.944783">
        <ele>1979.0</ele>
        <time>2013-07-06T13:52:54Z</time>
      </trkpt>
      <trkpt lat="40.074433" lon="-4.944800">
        <ele>1977.0</ele>
        <time>2013-07-06T13:52:55Z</time>
      </trkpt>
      <trkpt lat="40.074317" lon="-4.944833">
        <ele>1975.0</ele>
        <time>2013-07-06T13:52:56Z</time>
      </trkpt>
      <trkpt lat="40.074200" lon="-4.944883">
        <ele>1973.0</ele>
        <time>2013-07-06T13:52:57Z</time>
      </trkpt>
      <trkpt lat="40.074083" lon="-4.944917">
        <ele>1971.0</ele>
        <time>2013-07-06T13:52:58Z</time>
      </trkpt>
      <trkpt lat="40.073967" lon="-4.944950">
        <ele>1968.0</ele>
        <time>2013-07-06T13:52:59Z</time>
      </trkpt>
      <trkpt lat="40.073833" lon="-4.945000">
        <ele>1965.0</ele>
        <time>2013-07-06T13:53:00Z</time>
      </trkpt>
      <trkpt lat="40.073717" lon="-4.945033">
        <ele>1962.0</ele>
        <time>2013-07-06T13:53:01Z</time>
      </trkpt>
      <trkpt lat="40.073483" lon="-4.945133">
        <ele>1957.0</ele>
        <time>2013-07-06T13:53:03Z</time>
      </trkpt>
      <trkpt lat="40.073367" lon="-4.945200">
        <ele>1955.0</ele>
        <time>2013-07-06T13:53:04Z</time>
      </trkpt>
      <trkpt lat="40.073250" lon="-4.945250">
        <ele>1953.0</ele>
        <time>2013-07-06T13:53:05Z</time>
      </trkpt>
      <trkpt lat="40.073133" lon="-4.945300">
        <ele>1951.0</ele>
        <time>2013-07-06T13:53:06Z</time>
      </trkpt>
      <trkpt lat="40.073033" lon="-4.945350">
        <ele>1949.0</ele>
        <time>2013-07-06T13:53:07Z</time>
      </trkpt>
      <trkpt lat="40.072917" lon="-4.945383">
        <ele>1946.0</ele>
        <time>2013-07-06T13:53:08Z</time>
      </trkpt>
      <trkpt lat="40.072800" lon="-4.945433">
        <ele>1943.0</ele>
        <time>2013-07-06T13:53:09Z</time>
      </trkpt>
      <trkpt lat="40.072683" lon="-4.945467">
        <ele>1940.0</ele>
        <time>2013-07-06T13:53:10Z</time>
      </trkpt>
      <trkpt lat="40.072550" lon="-4.945517">
        <ele>1937.0</ele>
        <time>2013-07-06T13:53:11Z</time>
      </trkpt>
      <trkpt lat="40.072433" lon="-4.945583">
        <ele>1935.0</ele>
        <time>2013-07-06T13:53:12Z</time>
      </trkpt>
      <trkpt lat="40.072333" lon="-4.945633">
        <ele>1933.0</ele>
        <time>2013-07-06T13:53:13Z</time>
      </trkpt>
      <trkpt lat="40.072217" lon="-4.945683">
        <ele>1930.0</ele>
        <time>2013-07-06T13:53:14Z</time>
      </trkpt>
      <trkpt lat="40.072100" lon="-4.945733">
        <ele>1927.0</ele>
        <time>2013-07-06T13:53:15Z</time>
      </trkpt>
      <trkpt lat="40.072000" lon="-4.945783">
        <ele>1924.0</ele>
        <time>2013-07-06T13:53:16Z</time>
      </trkpt>
      <trkpt lat="40.071883" lon="-4.945817">
        <ele>1921.0</ele>
        <time>2013-07-06T13:53:17Z</time>
      </trkpt>
      <trkpt lat="40.071767" lon="-4.945867">
        <ele>1918.0</ele>
        <time>2013-07-06T13:53:18Z</time>
      </trkpt>
      <trkpt lat="40.071650" lon="-4.945917">
        <ele>1915.0</ele>
        <time>2013-07-06T13:53:19Z</time>
      </trkpt>
      <trkpt lat="40.071533" lon="-4.945967">
        <ele>1912.0</ele>
        <time>2013-07-06T13:53:20Z</time>
      </trkpt>
      <trkpt lat="40.071400" lon="-4.946000">
        <ele>1909.0</ele>
        <time>2013-07-06T13:53:21Z</time>
      </trkpt>
      <trkpt lat="40.071283" lon="-4.946050">
        <ele>1906.0</ele>
        <time>2013-07-06T13:53:22Z</time>
      </trkpt>
      <trkpt lat="40.071050" lon="-4.946183">
        <ele>1900.0</ele>
        <time>2013-07-06T13:53:24Z</time>
      </trkpt>
      <trkpt lat="40.070917" lon="-4.946250">
        <ele>1898.0</ele>
        <time>2013-07-06T13:53:25Z</time>
      </trkpt>
      <trkpt lat="40.070800" lon="-4.946317">
        <ele>1896.0</ele>
        <time>2013-07-06T13:53:26Z</time>
      </trkpt>
      <trkpt lat="40.070683" lon="-4.946383">
        <ele>1894.0</ele>
        <time>2013-07-06T13:53:27Z</time>
      </trkpt>
      <trkpt lat="40.070567" lon="-4.946450">
        <ele>1892.0</ele>
        <time>2013-07-06T13:53:28Z</time>
      </trkpt>
      <trkpt lat="40.070450" lon="-4.946517">
        <ele>1889.0</ele>
        <time>2013-07-06T13:53:29Z</time>
      </trkpt>
      <trkpt lat="40.070317" lon="-4.946600">
        <ele>1886.0</ele>
        <time>2013-07-06T13:53:30Z</time>
      </trkpt>
      <trkpt lat="40.070183" lon="-4.946667">
        <ele>1883.0</ele>
        <time>2013-07-06T13:53:31Z</time>
      </trkpt>
      <trkpt lat="40.070067" lon="-4.946733">
        <ele>1880.0</ele>
        <time>2013-07-06T13:53:32Z</time>
      </trkpt>
      <trkpt lat="40.069833" lon="-4.946867">
        <ele>1876.0</ele>
        <time>2013-07-06T13:53:34Z</time>
      </trkpt>
      <trkpt lat="40.069733" lon="-4.946933">
        <ele>1875.0</ele>
        <time>2013-07-06T13:53:35Z</time>
      </trkpt>
      <trkpt lat="40.069617" lon="-4.947000">
        <ele>1874.0</ele>
        <time>2013-07-06T13:53:36Z</time>
      </trkpt>
      <trkpt lat="40.069500" lon="-4.947067">
        <ele>1872.0</ele>
        <time>2013-07-06T13:53:37Z</time>
      </trkpt>
      <trkpt lat="40.069367" lon="-4.947150">
        <ele>1871.0</ele>
        <time>2013-07-06T13:53:38Z</time>
      </trkpt>
      <trkpt lat="40.069250" lon="-4.947217">
        <ele>1871.0</ele>
        <time>2013-07-06T13:53:39Z</time>
      </trkpt>
      <trkpt lat="40.069150" lon="-4.947283">
        <ele>1871.0</ele>
        <time>2013-07-06T13:53:40Z</time>
      </trkpt>
      <trkpt lat="40.069050" lon="-4.947350">
        <ele>1872.0</ele>
        <time>2013-07-06T13:53:41Z</time>
      </trkpt>
      <trkpt lat="40.068950" lon="-4.947400">
        <ele>1872.0</ele>
        <time>2013-07-06T13:53:42Z</time>
      </trkpt>
      <trkpt lat="40.068850" lon="-4.947467">
        <ele>1872.0</ele>
        <time>2013-07-06T13:53:43Z</time>
      </trkpt>
      <trkpt lat="40.068733" lon="-4.947533">
        <ele>1872.0</ele>
        <time>2013-07-06T13:53:44Z</time>
      </trkpt>
      <trkpt lat="40.068617" lon="-4.947617">
        <ele>1872.0</ele>
        <time>2013-07-06T13:53:45Z</time>
      </trkpt>
      <trkpt lat="40.068517" lon="-4.947683">
        <ele>1872.0</ele>
        <time>2013-07-06T13:53:46Z</time>
      </trkpt>
      <trkpt lat="40.068400" lon="-4.947750">
        <ele>1873.0</ele>
        <time>2013-07-06T13:53:47Z</time>
      </trkpt>
      <trkpt lat="40.068300" lon="-4.947817">
        <ele>1874.0</ele>
        <time>2013-07-06T13:53:48Z</time>
      </trkpt>
      <trkpt lat="40.067967" lon="-4.948017">
        <ele>1876.0</ele>
        <time>2013-07-06T13:53:51Z</time>
      </trkpt>
      <trkpt lat="40.067750" lon="-4.948150">
        <ele>1877.0</ele>
        <time>2013-07-06T13:53:53Z</time>
      </trkpt>
      <trkpt lat="40.067650" lon="-4.948217">
        <ele>1876.0</ele>
        <time>2013-07-06T13:53:54Z</time>
      </trkpt>
      <trkpt lat="40.067533" lon="-4.948283">
        <ele>1876.0</ele>
        <time>2013-07-06T13:53:55Z</time>
      </trkpt>
      <trkpt lat="40.067433" lon="-4.948350">
        <ele>1875.0</ele>
        <time>2013-07-06T13:53:56Z</time>
      </trkpt>
      <trkpt lat="40.067317" lon="-4.948400">
        <ele>1873.0</ele>
        <time>2013-07-06T13:53:57Z</time>
      </trkpt>
      <trkpt lat="40.067217" lon="-4.948467">
        <ele>1872.0</ele>
        <time>2013-07-06T13:53:58Z</time>
      </trkpt>
      <trkpt lat="40.067100" lon="-4.948517">
        <ele>1871.0</ele>
        <time>2013-07-06T13:53:59Z</time>
      </trkpt>
      <trkpt lat="40.067000" lon="-4.948567">
        <ele>1871.0</ele>
        <time>2013-07-06T13:54:00Z</time>
      </trkpt>
      <trkpt lat="40.066883" lon="-4.948600">
        <ele>1870.0</ele>
        <time>2013-07-06T13:54:01Z</time>
      </trkpt>
      <trkpt lat="40.066783" lon="-4.948633">
        <ele>1870.0</ele>
        <time>2013-07-06T13:54:02Z</time>
      </trkpt>
      <trkpt lat="40.066667" lon="-4.948667">
        <ele>1869.0</ele>
        <time>2013-07-06T13:54:03Z</time>
      </trkpt>
      <trkpt lat="40.066550" lon="-4.948700">
        <ele>1869.0</ele>
        <time>2013-07-06T13:54:04Z</time>
      </trkpt>
      <trkpt lat="40.066450" lon="-4.948733">
        <ele>1869.0</ele>
        <time>2013-07-06T13:54:05Z</time>
      </trkpt>
      <trkpt lat="40.066333" lon="-4.948783">
        <ele>1870.0</ele>
        <time>2013-07-06T13:54:06Z</time>
      </trkpt>
      <trkpt lat="40.066233" lon="-4.948800">
        <ele>1869.0</ele>
        <time>2013-07-06T13:54:07Z</time>
      </trkpt>
      <trkpt lat="40.066117" lon="-4.948850">
        <ele>1869.0</ele>
        <time>2013-07-06T13:54:08Z</time>
      </trkpt>
      <trkpt lat="40.066000" lon="-4.948883">
        <ele>1869.0</ele>
        <time>2013-07-06T13:54:09Z</time>
      </trkpt>
      <trkpt lat="40.065883" lon="-4.948933">
        <ele>1869.0</ele>
        <time>2013-07-06T13:54:10Z</time>
      </trkpt>
      <trkpt lat="40.065767" lon="-4.948983">
        <ele>1869.0</ele>
        <time>2013-07-06T13:54:11Z</time>
      </trkpt>
      <trkpt lat="40.065633" lon="-4.949017">
        <ele>1869.0</ele>
        <time>2013-07-06T13:54:12Z</time>
      </trkpt>
      <trkpt lat="40.065517" lon="-4.949067">
        <ele>1869.0</ele>
        <time>2013-07-06T13:54:13Z</time>
      </trkpt>
      <trkpt lat="40.065400" lon="-4.949100">
        <ele>1870.0</ele>
        <time>2013-07-06T13:54:14Z</time>
      </trkpt>
      <trkpt lat="40.065283" lon="-4.949133">
        <ele>1872.0</ele>
        <time>2013-07-06T13:54:15Z</time>
      </trkpt>
      <trkpt lat="40.065167" lon="-4.949167">
        <ele>1873.0</ele>
        <time>2013-07-06T13:54:16Z</time>
      </trkpt>
      <trkpt lat="40.065050" lon="-4.949200">
        <ele>1873.0</ele>
        <time>2013-07-06T13:54:17Z</time>
      </trkpt>
      <trkpt lat="40.064933" lon="-4.949217">
        <ele>1873.0</ele>
        <time>2013-07-06T13:54:18Z</time>
      </trkpt>
      <trkpt lat="40.064817" lon="-4.949250">
        <ele>1873.0</ele>
        <time>2013-07-06T13:54:19Z</time>
      </trkpt>
      <trkpt lat="40.064700" lon="-4.949267">
        <ele>1874.0</ele>
        <time>2013-07-06T13:54:20Z</time>
      </trkpt>
      <trkpt lat="40.064583" lon="-4.949283">
        <ele>1874.0</ele>
        <time>2013-07-06T13:54:21Z</time>
      </trkpt>
      <trkpt lat="40.064467" lon="-4.949300">
        <ele>1875.0</ele>
        <time>2013-07-06T13:54:22Z</time>
      </trkpt>
      <trkpt lat="40.064367" lon="-4.949300">
        <ele>1876.0</ele>
        <time>2013-07-06T13:54:23Z</time>
      </trkpt>
      <trkpt lat="40.064250" lon="-4.949300">
        <ele>1877.0</ele>
        <time>2013-07-06T13:54:24Z</time>
      </trkpt>
      <trkpt lat="40.064133" lon="-4.949283">
        <ele>1877.0</ele>
        <time>2013-07-06T13:54:25Z</time>
      </trkpt>
      <trkpt lat="40.064033" lon="-4.949283">
        <ele>1878.0</ele>
        <time>2013-07-06T13:54:26Z</time>
      </trkpt>
      <trkpt lat="40.063917" lon="-4.949267">
        <ele>1878.0</ele>
        <time>2013-07-06T13:54:27Z</time>
      </trkpt>
      <trkpt lat="40.063800" lon="-4.949267">
        <ele>1879.0</ele>
        <time>2013-07-06T13:54:28Z</time>
      </trkpt>
      <trkpt lat="40.063700" lon="-4.949267">
        <ele>1879.0</ele>
        <time>2013-07-06T13:54:29Z</time>
      </trkpt>
      <trkpt lat="40.063583" lon="-4.949283">
        <ele>1880.0</ele>
        <time>2013-07-06T13:54:30Z</time>
      </trkpt>
      <trkpt lat="40.063483" lon="-4.949300">
        <ele>1881.0</ele>
        <time>2013-07-06T13:54:31Z</time>
      </trkpt>
      <trkpt lat="40.063367" lon="-4.949333">
        <ele>1881.0</ele>
        <time>2013-07-06T13:54:32Z</time>
      </trkpt>
      <trkpt lat="40.063250" lon="-4.949400">
        <ele>1882.0</ele>
        <time>2013-07-06T13:54:33Z</time>
      </trkpt>
      <trkpt lat="40.063167" lon="-4.949483">
        <ele>1882.0</ele>
        <time>2013-07-06T13:54:34Z</time>
      </trkpt>
      <trkpt lat="40.063100" lon="-4.949617">
        <ele>1883.0</ele>
        <time>2013-07-06T13:54:35Z</time>
      </trkpt>
      <trkpt lat="40.063050" lon="-4.949750">
        <ele>1883.0</ele>
        <time>2013-07-06T13:54:36Z</time>
      </trkpt>
      <trkpt lat="40.063033" lon="-4.949883">
        <ele>1884.0</ele>
        <time>2013-07-06T13:54:37Z</time>
      </trkpt>
      <trkpt lat="40.063017" lon="-4.950033">
        <ele>1884.0</ele>
        <time>2013-07-06T13:54:38Z</time>
      </trkpt>
      <trkpt lat="40.063033" lon="-4.950167">
        <ele>1885.0</ele>
        <time>2013-07-06T13:54:39Z</time>
      </trkpt>
      <trkpt lat="40.063067" lon="-4.950267">
        <ele>1886.0</ele>
        <time>2013-07-06T13:54:40Z</time>
      </trkpt>
      <trkpt lat="40.063117" lon="-4.950350">
        <ele>1886.0</ele>
        <time>2013-07-06T13:54:41Z</time>
      </trkpt>
      <trkpt lat="40.063183" lon="-4.950417">
        <ele>1886.0</ele>
        <time>2013-07-06T13:54:42Z</time>
      </trkpt>
      <trkpt lat="40.063333" lon="-4.950417">
        <ele>1889.0</ele>
        <time>2013-07-06T13:54:45Z</time>
      </trkpt>
      <trkpt lat="40.063367" lon="-4.950367">
        <ele>1890.0</ele>
        <time>2013-07-06T13:54:46Z</time>
      </trkpt>
      <trkpt lat="40.063383" lon="-4.950317">
        <ele>1891.0</ele>
        <time>2013-07-06T13:54:47Z</time>
      </trkpt>
      <trkpt lat="40.063400" lon="-4.950233">
        <ele>1892.0</ele>
        <time>2013-07-06T13:54:48Z</time>
      </trkpt>
      <trkpt lat="40.063383" lon="-4.950150">
        <ele>1892.0</ele>
        <time>2013-07-06T13:54:49Z</time>
      </trkpt>
      <trkpt lat="40.063367" lon="-4.950067">
        <ele>1893.0</ele>
        <time>2013-07-06T13:54:50Z</time>
      </trkpt>
      <trkpt lat="40.063317" lon="-4.949967">
        <ele>1893.0</ele>
        <time>2013-07-06T13:54:51Z</time>
      </trkpt>
      <trkpt lat="40.063267" lon="-4.949883">
        <ele>1893.0</ele>
        <time>2013-07-06T13:54:52Z</time>
      </trkpt>
      <trkpt lat="40.063200" lon="-4.949817">
        <ele>1894.0</ele>
        <time>2013-07-06T13:54:53Z</time>
      </trkpt>
      <trkpt lat="40.063133" lon="-4.949750">
        <ele>1895.0</ele>
        <time>2013-07-06T13:54:54Z</time>
      </trkpt>
      <trkpt lat="40.063050" lon="-4.949700">
        <ele>1896.0</ele>
        <time>2013-07-06T13:54:55Z</time>
      </trkpt>
      <trkpt lat="40.062967" lon="-4.949650">
        <ele>1897.0</ele>
        <time>2013-07-06T13:54:56Z</time>
      </trkpt>
      <trkpt lat="40.062867" lon="-4.949600">
        <ele>1897.0</ele>
        <time>2013-07-06T13:54:57Z</time>
      </trkpt>
      <trkpt lat="40.062767" lon="-4.949583">
        <ele>1897.0</ele>
        <time>2013-07-06T13:54:58Z</time>
      </trkpt>
      <trkpt lat="40.062650" lon="-4.949600">
        <ele>1897.0</ele>
        <time>2013-07-06T13:54:59Z</time>
      </trkpt>
      <trkpt lat="40.062550" lon="-4.949633">
        <ele>1896.0</ele>
        <time>2013-07-06T13:55:00Z</time>
      </trkpt>
      <trkpt lat="40.062450" lon="-4.949683">
        <ele>1896.0</ele>
        <time>2013-07-06T13:55:01Z</time>
      </trkpt>
      <trkpt lat="40.062367" lon="-4.949750">
        <ele>1897.0</ele>
        <time>2013-07-06T13:55:02Z</time>
      </trkpt>
      <trkpt lat="40.062267" lon="-4.949817">
        <ele>1897.0</ele>
        <time>2013-07-06T13:55:03Z</time>
      </trkpt>
      <trkpt lat="40.062017" lon="-4.950283">
        <ele>1895.0</ele>
        <time>2013-07-06T13:55:07Z</time>
      </trkpt>
      <trkpt lat="40.061983" lon="-4.950417">
        <ele>1894.0</ele>
        <time>2013-07-06T13:55:08Z</time>
      </trkpt>
      <trkpt lat="40.061967" lon="-4.950567">
        <ele>1894.0</ele>
        <time>2013-07-06T13:55:09Z</time>
      </trkpt>
      <trkpt lat="40.061950" lon="-4.950700">
        <ele>1894.0</ele>
        <time>2013-07-06T13:55:10Z</time>
      </trkpt>
      <trkpt lat="40.061950" lon="-4.950833">
        <ele>1894.0</ele>
        <time>2013-07-06T13:55:11Z</time>
      </trkpt>
      <trkpt lat="40.061983" lon="-4.950950">
        <ele>1894.0</ele>
        <time>2013-07-06T13:55:12Z</time>
      </trkpt>
      <trkpt lat="40.062033" lon="-4.951067">
        <ele>1895.0</ele>
        <time>2013-07-06T13:55:13Z</time>
      </trkpt>
      <trkpt lat="40.062083" lon="-4.951150">
        <ele>1894.0</ele>
        <time>2013-07-06T13:55:14Z</time>
      </trkpt>
      <trkpt lat="40.062150" lon="-4.951200">
        <ele>1894.0</ele>
        <time>2013-07-06T13:55:15Z</time>
      </trkpt>
      <trkpt lat="40.062217" lon="-4.951217">
        <ele>1894.0</ele>
        <time>2013-07-06T13:55:16Z</time>
      </trkpt>
      <trkpt lat="40.062267" lon="-4.951217">
        <ele>1894.0</ele>
        <time>2013-07-06T13:55:17Z</time>
      </trkpt>
      <trkpt lat="40.062400" lon="-4.951167">
        <ele>1896.0</ele>
        <time>2013-07-06T13:55:20Z</time>
      </trkpt>
      <trkpt lat="40.062417" lon="-4.951117">
        <ele>1896.0</ele>
        <time>2013-07-06T13:55:21Z</time>
      </trkpt>
      <trkpt lat="40.062433" lon="-4.951050">
        <ele>1896.0</ele>
        <time>2013-07-06T13:55:22Z</time>
      </trkpt>
      <trkpt lat="40.062433" lon="-4.950967">
        <ele>1896.0</ele>
        <time>2013-07-06T13:55:23Z</time>
      </trkpt>
      <trkpt lat="40.062433" lon="-4.950883">
        <ele>1895.0</ele>
        <time>2013-07-06T13:55:24Z</time>
      </trkpt>
      <trkpt lat="40.062400" lon="-4.950817">
        <ele>1896.0</ele>
        <time>2013-07-06T13:55:25Z</time>
      </trkpt>
      <trkpt lat="40.062350" lon="-4.950733">
        <ele>1896.0</ele>
        <time>2013-07-06T13:55:26Z</time>
      </trkpt>
      <trkpt lat="40.062283" lon="-4.950667">
        <ele>1896.0</ele>
        <time>2013-07-06T13:55:27Z</time>
      </trkpt>
      <trkpt lat="40.062200" lon="-4.950600">
        <ele>1895.0</ele>
        <time>2013-07-06T13:55:28Z</time>
      </trkpt>
      <trkpt lat="40.062117" lon="-4.950550">
        <ele>1895.0</ele>
        <time>2013-07-06T13:55:29Z</time>
      </trkpt>
      <trkpt lat="40.062033" lon="-4.950517">
        <ele>1896.0</ele>
        <time>2013-07-06T13:55:30Z</time>
      </trkpt>
      <trkpt lat="40.061933" lon="-4.950500">
        <ele>1897.0</ele>
        <time>2013-07-06T13:55:31Z</time>
      </trkpt>
      <trkpt lat="40.061850" lon="-4.950517">
        <ele>1897.0</ele>
        <time>2013-07-06T13:55:32Z</time>
      </trkpt>
      <trkpt lat="40.061750" lon="-4.950567">
        <ele>1897.0</ele>
        <time>2013-07-06T13:55:33Z</time>
      </trkpt>
      <trkpt lat="40.061650" lon="-4.950617">
        <ele>1896.0</ele>
        <time>2013-07-06T13:55:34Z</time>
      </trkpt>
      <trkpt lat="40.061550" lon="-4.950683">
        <ele>1895.0</ele>
        <time>2013-07-06T13:55:35Z</time>
      </trkpt>
      <trkpt lat="40.061467" lon="-4.950767">
        <ele>1895.0</ele>
        <time>2013-07-06T13:55:36Z</time>
      </trkpt>
      <trkpt lat="40.061383" lon="-4.950867">
        <ele>1895.0</ele>
        <time>2013-07-06T13:55:37Z</time>
      </trkpt>
      <trkpt lat="40.061317" lon="-4.950967">
        <ele>1894.0</ele>
        <time>2013-07-06T13:55:38Z</time>
      </trkpt>
      <trkpt lat="40.061267" lon="-4.951083">
        <ele>1894.0</ele>
        <time>2013-07-06T13:55:39Z</time>
      </trkpt>
      <trkpt lat="40.061200" lon="-4.951217">
        <ele>1893.0</ele>
        <time>2013-07-06T13:55:40Z</time>
      </trkpt>
      <trkpt lat="40.061150" lon="-4.951333">
        <ele>1892.0</ele>
        <time>2013-07-06T13:55:41Z</time>
      </trkpt>
      <trkpt lat="40.061117" lon="-4.951467">
        <ele>1891.0</ele>
        <time>2013-07-06T13:55:42Z</time>
      </trkpt>
      <trkpt lat="40.061083" lon="-4.951600">
        <ele>1890.0</ele>
        <time>2013-07-06T13:55:43Z</time>
      </trkpt>
      <trkpt lat="40.061050" lon="-4.951733">
        <ele>1889.0</ele>
        <time>2013-07-06T13:55:44Z</time>
      </trkpt>
      <trkpt lat="40.061033" lon="-4.951883">
        <ele>1887.0</ele>
        <time>2013-07-06T13:55:45Z</time>
      </trkpt>
      <trkpt lat="40.061017" lon="-4.952017">
        <ele>1886.0</ele>
        <time>2013-07-06T13:55:46Z</time>
      </trkpt>
      <trkpt lat="40.061000" lon="-4.952167">
        <ele>1884.0</ele>
        <time>2013-07-06T13:55:47Z</time>
      </trkpt>
      <trkpt lat="40.060983" lon="-4.952333">
        <ele>1883.0</ele>
        <time>2013-07-06T13:55:48Z</time>
      </trkpt>
      <trkpt lat="40.060950" lon="-4.952483">
        <ele>1881.0</ele>
        <time>2013-07-06T13:55:49Z</time>
      </trkpt>
      <trkpt lat="40.060917" lon="-4.952617">
        <ele>1880.0</ele>
        <time>2013-07-06T13:55:50Z</time>
      </trkpt>
      <trkpt lat="40.060900" lon="-4.952767">
        <ele>1879.0</ele>
        <time>2013-07-06T13:55:51Z</time>
      </trkpt>
      <trkpt lat="40.060883" lon="-4.952900">
        <ele>1879.0</ele>
        <time>2013-07-06T13:55:52Z</time>
      </trkpt>
      <trkpt lat="40.060867" lon="-4.953033">
        <ele>1878.0</ele>
        <time>2013-07-06T13:55:53Z</time>
      </trkpt>
      <trkpt lat="40.060850" lon="-4.953167">
        <ele>1878.0</ele>
        <time>2013-07-06T13:55:54Z</time>
      </trkpt>
      <trkpt lat="40.060850" lon="-4.953283">
        <ele>1878.0</ele>
        <time>2013-07-06T13:55:55Z</time>
      </trkpt>
      <trkpt lat="40.060850" lon="-4.953400">
        <ele>1878.0</ele>
        <time>2013-07-06T13:55:56Z</time>
      </trkpt>
      <trkpt lat="40.060867" lon="-4.953517">
        <ele>1878.0</ele>
        <time>2013-07-06T13:55:57Z</time>
      </trkpt>
      <trkpt lat="40.060883" lon="-4.953633">
        <ele>1879.0</ele>
        <time>2013-07-06T13:55:58Z</time>
      </trkpt>
      <trkpt lat="40.060900" lon="-4.953767">
        <ele>1880.0</ele>
        <time>2013-07-06T13:55:59Z</time>
      </trkpt>
      <trkpt lat="40.060917" lon="-4.953883">
        <ele>1880.0</ele>
        <time>2013-07-06T13:56:00Z</time>
      </trkpt>
      <trkpt lat="40.060950" lon="-4.954000">
        <ele>1880.0</ele>
        <time>2013-07-06T13:56:01Z</time>
      </trkpt>
      <trkpt lat="40.060983" lon="-4.954100">
        <ele>1881.0</ele>
        <time>2013-07-06T13:56:02Z</time>
      </trkpt>
      <trkpt lat="40.061033" lon="-4.954183">
        <ele>1882.0</ele>
        <time>2013-07-06T13:56:03Z</time>
      </trkpt>
      <trkpt lat="40.061083" lon="-4.954217">
        <ele>1883.0</ele>
        <time>2013-07-06T13:56:04Z</time>
      </trkpt>
      <trkpt lat="40.061150" lon="-4.954233">
        <ele>1883.0</ele>
        <time>2013-07-06T13:56:05Z</time>
      </trkpt>
      <trkpt lat="40.061217" lon="-4.954217">
        <ele>1883.0</ele>
        <time>2013-07-06T13:56:06Z</time>
      </trkpt>
      <trkpt lat="40.061250" lon="-4.954167">
        <ele>1883.0</ele>
        <time>2013-07-06T13:56:07Z</time>
      </trkpt>
      <trkpt lat="40.061283" lon="-4.954100">
        <ele>1883.0</ele>
        <time>2013-07-06T13:56:08Z</time>
      </trkpt>
      <trkpt lat="40.061300" lon="-4.954033">
        <ele>1883.0</ele>
        <time>2013-07-06T13:56:09Z</time>
      </trkpt>
      <trkpt lat="40.061300" lon="-4.953967">
        <ele>1884.0</ele>
        <time>2013-07-06T13:56:10Z</time>
      </trkpt>
      <trkpt lat="40.061283" lon="-4.953883">
        <ele>1884.0</ele>
        <time>2013-07-06T13:56:11Z</time>
      </trkpt>
      <trkpt lat="40.061267" lon="-4.953817">
        <ele>1885.0</ele>
        <time>2013-07-06T13:56:12Z</time>
      </trkpt>
      <trkpt lat="40.061233" lon="-4.953733">
        <ele>1885.0</ele>
        <time>2013-07-06T13:56:13Z</time>
      </trkpt>
      <trkpt lat="40.061183" lon="-4.953667">
        <ele>1885.0</ele>
        <time>2013-07-06T13:56:14Z</time>
      </trkpt>
      <trkpt lat="40.061100" lon="-4.953583">
        <ele>1885.0</ele>
        <time>2013-07-06T13:56:15Z</time>
      </trkpt>
      <trkpt lat="40.061017" lon="-4.953533">
        <ele>1885.0</ele>
        <time>2013-07-06T13:56:16Z</time>
      </trkpt>
      <trkpt lat="40.060917" lon="-4.953517">
        <ele>1884.0</ele>
        <time>2013-07-06T13:56:17Z</time>
      </trkpt>
      <trkpt lat="40.060817" lon="-4.953500">
        <ele>1884.0</ele>
        <time>2013-07-06T13:56:18Z</time>
      </trkpt>
      <trkpt lat="40.060700" lon="-4.953517">
        <ele>1883.0</ele>
        <time>2013-07-06T13:56:19Z</time>
      </trkpt>
      <trkpt lat="40.060600" lon="-4.953533">
        <ele>1882.0</ele>
        <time>2013-07-06T13:56:20Z</time>
      </trkpt>
      <trkpt lat="40.060500" lon="-4.953567">
        <ele>1881.0</ele>
        <time>2013-07-06T13:56:21Z</time>
      </trkpt>
      <trkpt lat="40.060383" lon="-4.953617">
        <ele>1881.0</ele>
        <time>2013-07-06T13:56:22Z</time>
      </trkpt>
      <trkpt lat="40.060283" lon="-4.953683">
        <ele>1880.0</ele>
        <time>2013-07-06T13:56:23Z</time>
      </trkpt>
      <trkpt lat="40.060183" lon="-4.953750">
        <ele>1878.0</ele>
        <time>2013-07-06T13:56:24Z</time>
      </trkpt>
      <trkpt lat="40.060067" lon="-4.953817">
        <ele>1877.0</ele>
        <time>2013-07-06T13:56:25Z</time>
      </trkpt>
      <trkpt lat="40.059967" lon="-4.953883">
        <ele>1876.0</ele>
        <time>2013-07-06T13:56:26Z</time>
      </trkpt>
      <trkpt lat="40.059867" lon="-4.953950">
        <ele>1876.0</ele>
        <time>2013-07-06T13:56:27Z</time>
      </trkpt>
      <trkpt lat="40.059767" lon="-4.954017">
        <ele>1874.0</ele>
        <time>2013-07-06T13:56:28Z</time>
      </trkpt>
      <trkpt lat="40.059667" lon="-4.954100">
        <ele>1873.0</ele>
        <time>2013-07-06T13:56:29Z</time>
      </trkpt>
      <trkpt lat="40.059550" lon="-4.954167">
        <ele>1872.0</ele>
        <time>2013-07-06T13:56:30Z</time>
      </trkpt>
      <trkpt lat="40.059450" lon="-4.954250">
        <ele>1871.0</ele>
        <time>2013-07-06T13:56:31Z</time>
      </trkpt>
      <trkpt lat="40.059350" lon="-4.954317">
        <ele>1870.0</ele>
        <time>2013-07-06T13:56:32Z</time>
      </trkpt>
      <trkpt lat="40.059250" lon="-4.954367">
        <ele>1870.0</ele>
        <time>2013-07-06T13:56:33Z</time>
      </trkpt>
      <trkpt lat="40.059133" lon="-4.954433">
        <ele>1869.0</ele>
        <time>2013-07-06T13:56:34Z</time>
      </trkpt>
      <trkpt lat="40.059017" lon="-4.954500">
        <ele>1868.0</ele>
        <time>2013-07-06T13:56:35Z</time>
      </trkpt>
      <trkpt lat="40.058900" lon="-4.954550">
        <ele>1869.0</ele>
        <time>2013-07-06T13:56:36Z</time>
      </trkpt>
      <trkpt lat="40.058800" lon="-4.954600">
        <ele>1870.0</ele>
        <time>2013-07-06T13:56:37Z</time>
      </trkpt>
      <trkpt lat="40.058700" lon="-4.954667">
        <ele>1870.0</ele>
        <time>2013-07-06T13:56:38Z</time>
      </trkpt>
      <trkpt lat="40.058583" lon="-4.954717">
        <ele>1870.0</ele>
        <time>2013-07-06T13:56:39Z</time>
      </trkpt>
      <trkpt lat="40.058467" lon="-4.954783">
        <ele>1869.0</ele>
        <time>2013-07-06T13:56:40Z</time>
      </trkpt>
      <trkpt lat="40.058350" lon="-4.954850">
        <ele>1868.0</ele>
        <time>2013-07-06T13:56:41Z</time>
      </trkpt>
      <trkpt lat="40.058250" lon="-4.954917">
        <ele>1868.0</ele>
        <time>2013-07-06T13:56:42Z</time>
      </trkpt>
      <trkpt lat="40.058150" lon="-4.954983">
        <ele>1869.0</ele>
        <time>2013-07-06T13:56:43Z</time>
      </trkpt>
      <trkpt lat="40.058050" lon="-4.955050">
        <ele>1870.0</ele>
        <time>2013-07-06T13:56:44Z</time>
      </trkpt>
      <trkpt lat="40.057950" lon="-4.955100">
        <ele>1870.0</ele>
        <time>2013-07-06T13:56:45Z</time>
      </trkpt>
      <trkpt lat="40.057850" lon="-4.955150">
        <ele>1870.0</ele>
        <time>2013-07-06T13:56:46Z</time>
      </trkpt>
      <trkpt lat="40.057767" lon="-4.955200">
        <ele>1873.0</ele>
        <time>2013-07-06T13:56:47Z</time>
      </trkpt>
      <trkpt lat="40.057700" lon="-4.955267">
        <ele>1875.0</ele>
        <time>2013-07-06T13:56:48Z</time>
      </trkpt>
      <trkpt lat="40.057633" lon="-4.955333">
        <ele>1876.0</ele>
        <time>2013-07-06T13:56:49Z</time>
      </trkpt>
      <trkpt lat="40.057550" lon="-4.955417">
        <ele>1876.0</ele>
        <time>2013-07-06T13:56:50Z</time>
      </trkpt>
      <trkpt lat="40.057450" lon="-4.955517">
        <ele>1875.0</ele>
        <time>2013-07-06T13:56:51Z</time>
      </trkpt>
      <trkpt lat="40.057383" lon="-4.955617">
        <ele>1874.0</ele>
        <time>2013-07-06T13:56:52Z</time>
      </trkpt>
      <trkpt lat="40.057317" lon="-4.955717">
        <ele>1873.0</ele>
        <time>2013-07-06T13:56:53Z</time>
      </trkpt>
      <trkpt lat="40.057250" lon="-4.955800">
        <ele>1873.0</ele>
        <time>2013-07-06T13:56:54Z</time>
      </trkpt>
      <trkpt lat="40.057217" lon="-4.955883">
        <ele>1872.0</ele>
        <time>2013-07-06T13:56:55Z</time>
      </trkpt>
      <trkpt lat="40.057183" lon="-4.956000">
        <ele>1871.0</ele>
        <time>2013-07-06T13:56:56Z</time>
      </trkpt>
      <trkpt lat="40.057183" lon="-4.956117">
        <ele>1870.0</ele>
        <time>2013-07-06T13:56:57Z</time>
      </trkpt>
      <trkpt lat="40.057200" lon="-4.956233">
        <ele>1867.0</ele>
        <time>2013-07-06T13:56:58Z</time>
      </trkpt>
      <trkpt lat="40.057300" lon="-4.956433">
        <ele>1863.0</ele>
        <time>2013-07-06T13:57:00Z</time>
      </trkpt>
      <trkpt lat="40.057383" lon="-4.956500">
        <ele>1863.0</ele>
        <time>2013-07-06T13:57:01Z</time>
      </trkpt>
      <trkpt lat="40.057450" lon="-4.956533">
        <ele>1861.0</ele>
        <time>2013-07-06T13:57:02Z</time>
      </trkpt>
      <trkpt lat="40.057517" lon="-4.956583">
        <ele>1861.0</ele>
        <time>2013-07-06T13:57:03Z</time>
      </trkpt>
      <trkpt lat="40.057583" lon="-4.956617">
        <ele>1860.0</ele>
        <time>2013-07-06T13:57:04Z</time>
      </trkpt>
      <trkpt lat="40.057667" lon="-4.956633">
        <ele>1858.0</ele>
        <time>2013-07-06T13:57:05Z</time>
      </trkpt>
      <trkpt lat="40.057900" lon="-4.956483">
        <ele>1855.0</ele>
        <time>2013-07-06T13:57:09Z</time>
      </trkpt>
      <trkpt lat="40.057917" lon="-4.956417">
        <ele>1855.0</ele>
        <time>2013-07-06T13:57:10Z</time>
      </trkpt>
      <trkpt lat="40.057933" lon="-4.956350">
        <ele>1855.0</ele>
        <time>2013-07-06T13:57:11Z</time>
      </trkpt>
      <trkpt lat="40.057950" lon="-4.956283">
        <ele>1855.0</ele>
        <time>2013-07-06T13:57:12Z</time>
      </trkpt>
      <trkpt lat="40.057967" lon="-4.956233">
        <ele>1854.0</ele>
        <time>2013-07-06T13:57:13Z</time>
      </trkpt>
      <trkpt lat="40.057983" lon="-4.956150">
        <ele>1853.0</ele>
        <time>2013-07-06T13:57:14Z</time>
      </trkpt>
      <trkpt lat="40.057983" lon="-4.956067">
        <ele>1853.0</ele>
        <time>2013-07-06T13:57:15Z</time>
      </trkpt>
      <trkpt lat="40.057950" lon="-4.955983">
        <ele>1853.0</ele>
        <time>2013-07-06T13:57:16Z</time>
      </trkpt>
      <trkpt lat="40.057917" lon="-4.955917">
        <ele>1853.0</ele>
        <time>2013-07-06T13:57:17Z</time>
      </trkpt>
      <trkpt lat="40.057883" lon="-4.955867">
        <ele>1853.0</ele>
        <time>2013-07-06T13:57:18Z</time>
      </trkpt>
      <trkpt lat="40.057850" lon="-4.955800">
        <ele>1853.0</ele>
        <time>2013-07-06T13:57:19Z</time>
      </trkpt>
      <trkpt lat="40.057800" lon="-4.955717">
        <ele>1852.0</ele>
        <time>2013-07-06T13:57:20Z</time>
      </trkpt>
      <trkpt lat="40.057733" lon="-4.955650">
        <ele>1851.0</ele>
        <time>2013-07-06T13:57:21Z</time>
      </trkpt>
      <trkpt lat="40.057667" lon="-4.955583">
        <ele>1850.0</ele>
        <time>2013-07-06T13:57:22Z</time>
      </trkpt>
      <trkpt lat="40.057583" lon="-4.955533">
        <ele>1851.0</ele>
        <time>2013-07-06T13:57:23Z</time>
      </trkpt>
      <trkpt lat="40.057517" lon="-4.955483">
        <ele>1852.0</ele>
        <time>2013-07-06T13:57:24Z</time>
      </trkpt>
      <trkpt lat="40.057433" lon="-4.955450">
        <ele>1852.0</ele>
        <time>2013-07-06T13:57:25Z</time>
      </trkpt>
      <trkpt lat="40.057350" lon="-4.955433">
        <ele>1853.0</ele>
        <time>2013-07-06T13:57:26Z</time>
      </trkpt>
      <trkpt lat="40.057283" lon="-4.955433">
        <ele>1853.0</ele>
        <time>2013-07-06T13:57:27Z</time>
      </trkpt>
      <trkpt lat="40.057200" lon="-4.955450">
        <ele>1853.0</ele>
        <time>2013-07-06T13:57:28Z</time>
      </trkpt>
      <trkpt lat="40.057117" lon="-4.955467">
        <ele>1852.0</ele>
        <time>2013-07-06T13:57:29Z</time>
      </trkpt>
      <trkpt lat="40.057017" lon="-4.955483">
        <ele>1851.0</ele>
        <time>2013-07-06T13:57:30Z</time>
      </trkpt>
      <trkpt lat="40.056900" lon="-4.955517">
        <ele>1850.0</ele>
        <time>2013-07-06T13:57:31Z</time>
      </trkpt>
      <trkpt lat="40.056800" lon="-4.955567">
        <ele>1848.0</ele>
        <time>2013-07-06T13:57:32Z</time>
      </trkpt>
      <trkpt lat="40.056700" lon="-4.955617">
        <ele>1848.0</ele>
        <time>2013-07-06T13:57:33Z</time>
      </trkpt>
      <trkpt lat="40.056617" lon="-4.955650">
        <ele>1847.0</ele>
        <time>2013-07-06T13:57:34Z</time>
      </trkpt>
      <trkpt lat="40.056517" lon="-4.955667">
        <ele>1846.0</ele>
        <time>2013-07-06T13:57:35Z</time>
      </trkpt>
      <trkpt lat="40.056433" lon="-4.955683">
        <ele>1845.0</ele>
        <time>2013-07-06T13:57:36Z</time>
      </trkpt>
      <trkpt lat="40.056317" lon="-4.955717">
        <ele>1843.0</ele>
        <time>2013-07-06T13:57:37Z</time>
      </trkpt>
      <trkpt lat="40.056217" lon="-4.955750">
        <ele>1841.0</ele>
        <time>2013-07-06T13:57:38Z</time>
      </trkpt>
      <trkpt lat="40.056117" lon="-4.955800">
        <ele>1840.0</ele>
        <time>2013-07-06T13:57:39Z</time>
      </trkpt>
      <trkpt lat="40.056017" lon="-4.955833">
        <ele>1839.0</ele>
        <time>2013-07-06T13:57:40Z</time>
      </trkpt>
      <trkpt lat="40.055917" lon="-4.955850">
        <ele>1838.0</ele>
        <time>2013-07-06T13:57:41Z</time>
      </trkpt>
      <trkpt lat="40.055817" lon="-4.955867">
        <ele>1836.0</ele>
        <time>2013-07-06T13:57:42Z</time>
      </trkpt>
      <trkpt lat="40.055717" lon="-4.955867">
        <ele>1834.0</ele>
        <time>2013-07-06T13:57:43Z</time>
      </trkpt>
      <trkpt lat="40.055600" lon="-4.955900">
        <ele>1833.0</ele>
        <time>2013-07-06T13:57:44Z</time>
      </trkpt>
      <trkpt lat="40.055500" lon="-4.955917">
        <ele>1832.0</ele>
        <time>2013-07-06T13:57:45Z</time>
      </trkpt>
      <trkpt lat="40.055417" lon="-4.955933">
        <ele>1831.0</ele>
        <time>2013-07-06T13:57:46Z</time>
      </trkpt>
      <trkpt lat="40.055317" lon="-4.955933">
        <ele>1830.0</ele>
        <time>2013-07-06T13:57:47Z</time>
      </trkpt>
      <trkpt lat="40.055217" lon="-4.955950">
        <ele>1828.0</ele>
        <time>2013-07-06T13:57:48Z</time>
      </trkpt>
      <trkpt lat="40.055117" lon="-4.955967">
        <ele>1827.0</ele>
        <time>2013-07-06T13:57:49Z</time>
      </trkpt>
      <trkpt lat="40.055017" lon="-4.955983">
        <ele>1825.0</ele>
        <time>2013-07-06T13:57:50Z</time>
      </trkpt>
      <trkpt lat="40.054917" lon="-4.956017">
        <ele>1823.0</ele>
        <time>2013-07-06T13:57:51Z</time>
      </trkpt>
      <trkpt lat="40.054817" lon="-4.956033">
        <ele>1821.0</ele>
        <time>2013-07-06T13:57:52Z</time>
      </trkpt>
      <trkpt lat="40.054717" lon="-4.956050">
        <ele>1819.0</ele>
        <time>2013-07-06T13:57:53Z</time>
      </trkpt>
      <trkpt lat="40.054617" lon="-4.956083">
        <ele>1817.0</ele>
        <time>2013-07-06T13:57:54Z</time>
      </trkpt>
      <trkpt lat="40.054533" lon="-4.956100">
        <ele>1815.0</ele>
        <time>2013-07-06T13:57:55Z</time>
      </trkpt>
      <trkpt lat="40.054433" lon="-4.956133">
        <ele>1813.0</ele>
        <time>2013-07-06T13:57:56Z</time>
      </trkpt>
      <trkpt lat="40.054333" lon="-4.956167">
        <ele>1811.0</ele>
        <time>2013-07-06T13:57:57Z</time>
      </trkpt>
      <trkpt lat="40.054233" lon="-4.956200">
        <ele>1808.0</ele>
        <time>2013-07-06T13:57:58Z</time>
      </trkpt>
      <trkpt lat="40.054133" lon="-4.956217">
        <ele>1805.0</ele>
        <time>2013-07-06T13:57:59Z</time>
      </trkpt>
      <trkpt lat="40.054050" lon="-4.956233">
        <ele>1803.0</ele>
        <time>2013-07-06T13:58:00Z</time>
      </trkpt>
      <trkpt lat="40.053967" lon="-4.956267">
        <ele>1801.0</ele>
        <time>2013-07-06T13:58:01Z</time>
      </trkpt>
      <trkpt lat="40.053883" lon="-4.956283">
        <ele>1800.0</ele>
        <time>2013-07-06T13:58:02Z</time>
      </trkpt>
      <trkpt lat="40.053800" lon="-4.956300">
        <ele>1797.0</ele>
        <time>2013-07-06T13:58:03Z</time>
      </trkpt>
      <trkpt lat="40.053717" lon="-4.956333">
        <ele>1794.0</ele>
        <time>2013-07-06T13:58:04Z</time>
      </trkpt>
      <trkpt lat="40.053617" lon="-4.956350">
        <ele>1792.0</ele>
        <time>2013-07-06T13:58:05Z</time>
      </trkpt>
      <trkpt lat="40.053517" lon="-4.956367">
        <ele>1788.0</ele>
        <time>2013-07-06T13:58:06Z</time>
      </trkpt>
      <trkpt lat="40.053433" lon="-4.956383">
        <ele>1785.0</ele>
        <time>2013-07-06T13:58:07Z</time>
      </trkpt>
      <trkpt lat="40.053333" lon="-4.956400">
        <ele>1782.0</ele>
        <time>2013-07-06T13:58:08Z</time>
      </trkpt>
      <trkpt lat="40.053267" lon="-4.956417">
        <ele>1779.0</ele>
        <time>2013-07-06T13:58:09Z</time>
      </trkpt>
      <trkpt lat="40.053167" lon="-4.956433">
        <ele>1775.0</ele>
        <time>2013-07-06T13:58:10Z</time>
      </trkpt>
      <trkpt lat="40.053083" lon="-4.956433">
        <ele>1771.0</ele>
        <time>2013-07-06T13:58:11Z</time>
      </trkpt>
      <trkpt lat="40.052983" lon="-4.956450">
        <ele>1767.0</ele>
        <time>2013-07-06T13:58:12Z</time>
      </trkpt>
      <trkpt lat="40.052883" lon="-4.956467">
        <ele>1763.0</ele>
        <time>2013-07-06T13:58:13Z</time>
      </trkpt>
      <trkpt lat="40.052800" lon="-4.956467">
        <ele>1759.0</ele>
        <time>2013-07-06T13:58:14Z</time>
      </trkpt>
      <trkpt lat="40.052700" lon="-4.956483">
        <ele>1755.0</ele>
        <time>2013-07-06T13:58:15Z</time>
      </trkpt>
      <trkpt lat="40.052600" lon="-4.956500">
        <ele>1751.0</ele>
        <time>2013-07-06T13:58:16Z</time>
      </trkpt>
      <trkpt lat="40.052500" lon="-4.956517">
        <ele>1747.0</ele>
        <time>2013-07-06T13:58:17Z</time>
      </trkpt>
      <trkpt lat="40.052400" lon="-4.956517">
        <ele>1742.0</ele>
        <time>2013-07-06T13:58:18Z</time>
      </trkpt>
      <trkpt lat="40.052300" lon="-4.956533">
        <ele>1738.0</ele>
        <time>2013-07-06T13:58:19Z</time>
      </trkpt>
      <trkpt lat="40.052183" lon="-4.956550">
        <ele>1733.0</ele>
        <time>2013-07-06T13:58:20Z</time>
      </trkpt>
      <trkpt lat="40.052083" lon="-4.956567">
        <ele>1729.0</ele>
        <time>2013-07-06T13:58:21Z</time>
      </trkpt>
      <trkpt lat="40.051983" lon="-4.956583">
        <ele>1725.0</ele>
        <time>2013-07-06T13:58:22Z</time>
      </trkpt>
      <trkpt lat="40.051900" lon="-4.956583">
        <ele>1722.0</ele>
        <time>2013-07-06T13:58:23Z</time>
      </trkpt>
      <trkpt lat="40.051700" lon="-4.956583">
        <ele>1714.0</ele>
        <time>2013-07-06T13:58:25Z</time>
      </trkpt>
      <trkpt lat="40.051600" lon="-4.956583">
        <ele>1711.0</ele>
        <time>2013-07-06T13:58:26Z</time>
      </trkpt>
      <trkpt lat="40.051500" lon="-4.956583">
        <ele>1709.0</ele>
        <time>2013-07-06T13:58:27Z</time>
      </trkpt>
      <trkpt lat="40.051417" lon="-4.956600">
        <ele>1707.0</ele>
        <time>2013-07-06T13:58:28Z</time>
      </trkpt>
      <trkpt lat="40.051317" lon="-4.956617">
        <ele>1704.0</ele>
        <time>2013-07-06T13:58:29Z</time>
      </trkpt>
      <trkpt lat="40.051217" lon="-4.956617">
        <ele>1702.0</ele>
        <time>2013-07-06T13:58:30Z</time>
      </trkpt>
      <trkpt lat="40.051133" lon="-4.956633">
        <ele>1699.0</ele>
        <time>2013-07-06T13:58:31Z</time>
      </trkpt>
      <trkpt lat="40.051033" lon="-4.956633">
        <ele>1697.0</ele>
        <time>2013-07-06T13:58:32Z</time>
      </trkpt>
      <trkpt lat="40.050950" lon="-4.956650">
        <ele>1695.0</ele>
        <time>2013-07-06T13:58:33Z</time>
      </trkpt>
      <trkpt lat="40.050850" lon="-4.956683">
        <ele>1693.0</ele>
        <time>2013-07-06T13:58:34Z</time>
      </trkpt>
      <trkpt lat="40.050750" lon="-4.956700">
        <ele>1690.0</ele>
        <time>2013-07-06T13:58:35Z</time>
      </trkpt>
      <trkpt lat="40.050667" lon="-4.956750">
        <ele>1688.0</ele>
        <time>2013-07-06T13:58:36Z</time>
      </trkpt>
      <trkpt lat="40.050583" lon="-4.956783">
        <ele>1686.0</ele>
        <time>2013-07-06T13:58:37Z</time>
      </trkpt>
      <trkpt lat="40.050483" lon="-4.956833">
        <ele>1684.0</ele>
        <time>2013-07-06T13:58:38Z</time>
      </trkpt>
      <trkpt lat="40.050400" lon="-4.956900">
        <ele>1682.0</ele>
        <time>2013-07-06T13:58:39Z</time>
      </trkpt>
      <trkpt lat="40.050317" lon="-4.956967">
        <ele>1680.0</ele>
        <time>2013-07-06T13:58:40Z</time>
      </trkpt>
      <trkpt lat="40.050250" lon="-4.957033">
        <ele>1678.0</ele>
        <time>2013-07-06T13:58:41Z</time>
      </trkpt>
      <trkpt lat="40.050167" lon="-4.957100">
        <ele>1676.0</ele>
        <time>2013-07-06T13:58:42Z</time>
      </trkpt>
      <trkpt lat="40.050017" lon="-4.957250">
        <ele>1671.0</ele>
        <time>2013-07-06T13:58:44Z</time>
      </trkpt>
      <trkpt lat="40.049950" lon="-4.957317">
        <ele>1669.0</ele>
        <time>2013-07-06T13:58:45Z</time>
      </trkpt>
      <trkpt lat="40.049883" lon="-4.957383">
        <ele>1667.0</ele>
        <time>2013-07-06T13:58:46Z</time>
      </trkpt>
      <trkpt lat="40.049800" lon="-4.957467">
        <ele>1664.0</ele>
        <time>2013-07-06T13:58:47Z</time>
      </trkpt>
      <trkpt lat="40.049733" lon="-4.957550">
        <ele>1662.0</ele>
        <time>2013-07-06T13:58:48Z</time>
      </trkpt>
      <trkpt lat="40.049667" lon="-4.957633">
        <ele>1660.0</ele>
        <time>2013-07-06T13:58:49Z</time>
      </trkpt>
      <trkpt lat="40.049600" lon="-4.957717">
        <ele>1659.0</ele>
        <time>2013-07-06T13:58:50Z</time>
      </trkpt>
      <trkpt lat="40.049517" lon="-4.957800">
        <ele>1657.0</ele>
        <time>2013-07-06T13:58:51Z</time>
      </trkpt>
      <trkpt lat="40.049433" lon="-4.957900">
        <ele>1656.0</ele>
        <time>2013-07-06T13:58:52Z</time>
      </trkpt>
      <trkpt lat="40.049367" lon="-4.957983">
        <ele>1654.0</ele>
        <time>2013-07-06T13:58:53Z</time>
      </trkpt>
      <trkpt lat="40.049283" lon="-4.958067">
        <ele>1654.0</ele>
        <time>2013-07-06T13:58:54Z</time>
      </trkpt>
      <trkpt lat="40.049217" lon="-4.958133">
        <ele>1653.0</ele>
        <time>2013-07-06T13:58:55Z</time>
      </trkpt>
      <trkpt lat="40.049150" lon="-4.958200">
        <ele>1652.0</ele>
        <time>2013-07-06T13:58:56Z</time>
      </trkpt>
      <trkpt lat="40.049067" lon="-4.958283">
        <ele>1650.0</ele>
        <time>2013-07-06T13:58:57Z</time>
      </trkpt>
      <trkpt lat="40.048983" lon="-4.958367">
        <ele>1648.0</ele>
        <time>2013-07-06T13:58:58Z</time>
      </trkpt>
      <trkpt lat="40.048900" lon="-4.958450">
        <ele>1647.0</ele>
        <time>2013-07-06T13:58:59Z</time>
      </trkpt>
      <trkpt lat="40.048817" lon="-4.958533">
        <ele>1646.0</ele>
        <time>2013-07-06T13:59:00Z</time>
      </trkpt>
      <trkpt lat="40.048733" lon="-4.958600">
        <ele>1644.0</ele>
        <time>2013-07-06T13:59:01Z</time>
      </trkpt>
      <trkpt lat="40.048667" lon="-4.958667">
        <ele>1643.0</ele>
        <time>2013-07-06T13:59:02Z</time>
      </trkpt>
      <trkpt lat="40.048583" lon="-4.958733">
        <ele>1641.0</ele>
        <time>2013-07-06T13:59:03Z</time>
      </trkpt>
      <trkpt lat="40.048500" lon="-4.958817">
        <ele>1640.0</ele>
        <time>2013-07-06T13:59:04Z</time>
      </trkpt>
      <trkpt lat="40.048433" lon="-4.958900">
        <ele>1638.0</ele>
        <time>2013-07-06T13:59:05Z</time>
      </trkpt>
      <trkpt lat="40.048367" lon="-4.958983">
        <ele>1636.0</ele>
        <time>2013-07-06T13:59:06Z</time>
      </trkpt>
      <trkpt lat="40.048300" lon="-4.959067">
        <ele>1635.0</ele>
        <time>2013-07-06T13:59:07Z</time>
      </trkpt>
      <trkpt lat="40.048233" lon="-4.959150">
        <ele>1633.0</ele>
        <time>2013-07-06T13:59:08Z</time>
      </trkpt>
      <trkpt lat="40.048167" lon="-4.959233">
        <ele>1630.0</ele>
        <time>2013-07-06T13:59:09Z</time>
      </trkpt>
      <trkpt lat="40.048100" lon="-4.959317">
        <ele>1627.0</ele>
        <time>2013-07-06T13:59:10Z</time>
      </trkpt>
      <trkpt lat="40.048033" lon="-4.959417">
        <ele>1623.0</ele>
        <time>2013-07-06T13:59:11Z</time>
      </trkpt>
      <trkpt lat="40.047967" lon="-4.959517">
        <ele>1620.0</ele>
        <time>2013-07-06T13:59:12Z</time>
      </trkpt>
      <trkpt lat="40.047900" lon="-4.959600">
        <ele>1618.0</ele>
        <time>2013-07-06T13:59:13Z</time>
      </trkpt>
      <trkpt lat="40.047833" lon="-4.959683">
        <ele>1617.0</ele>
        <time>2013-07-06T13:59:14Z</time>
      </trkpt>
      <trkpt lat="40.047767" lon="-4.959783">
        <ele>1615.0</ele>
        <time>2013-07-06T13:59:15Z</time>
      </trkpt>
      <trkpt lat="40.047700" lon="-4.959867">
        <ele>1613.0</ele>
        <time>2013-07-06T13:59:16Z</time>
      </trkpt>
      <trkpt lat="40.047650" lon="-4.959967">
        <ele>1611.0</ele>
        <time>2013-07-06T13:59:17Z</time>
      </trkpt>
      <trkpt lat="40.047583" lon="-4.960067">
        <ele>1608.0</ele>
        <time>2013-07-06T13:59:18Z</time>
      </trkpt>
      <trkpt lat="40.047517" lon="-4.960167">
        <ele>1606.0</ele>
        <time>2013-07-06T13:59:19Z</time>
      </trkpt>
      <trkpt lat="40.047467" lon="-4.960283">
        <ele>1604.0</ele>
        <time>2013-07-06T13:59:20Z</time>
      </trkpt>
      <trkpt lat="40.047400" lon="-4.960383">
        <ele>1603.0</ele>
        <time>2013-07-06T13:59:21Z</time>
      </trkpt>
      <trkpt lat="40.047350" lon="-4.960500">
        <ele>1601.0</ele>
        <time>2013-07-06T13:59:22Z</time>
      </trkpt>
      <trkpt lat="40.047300" lon="-4.960617">
        <ele>1600.0</ele>
        <time>2013-07-06T13:59:23Z</time>
      </trkpt>
      <trkpt lat="40.047233" lon="-4.960733">
        <ele>1598.0</ele>
        <time>2013-07-06T13:59:24Z</time>
      </trkpt>
      <trkpt lat="40.047183" lon="-4.960850">
        <ele>1597.0</ele>
        <time>2013-07-06T13:59:25Z</time>
      </trkpt>
      <trkpt lat="40.047133" lon="-4.960967">
        <ele>1596.0</ele>
        <time>2013-07-06T13:59:26Z</time>
      </trkpt>
      <trkpt lat="40.047083" lon="-4.961083">
        <ele>1595.0</ele>
        <time>2013-07-06T13:59:27Z</time>
      </trkpt>
      <trkpt lat="40.047017" lon="-4.961200">
        <ele>1593.0</ele>
        <time>2013-07-06T13:59:28Z</time>
      </trkpt>
      <trkpt lat="40.046967" lon="-4.961317">
        <ele>1592.0</ele>
        <time>2013-07-06T13:59:29Z</time>
      </trkpt>
      <trkpt lat="40.046900" lon="-4.961467">
        <ele>1590.0</ele>
        <time>2013-07-06T13:59:30Z</time>
      </trkpt>
      <trkpt lat="40.046833" lon="-4.961617">
        <ele>1588.0</ele>
        <time>2013-07-06T13:59:31Z</time>
      </trkpt>
      <trkpt lat="40.046683" lon="-4.961850">
        <ele>1592.0</ele>
        <time>2013-07-06T13:59:33Z</time>
      </trkpt>
      <trkpt lat="40.046633" lon="-4.961950">
        <ele>1599.0</ele>
        <time>2013-07-06T13:59:34Z</time>
      </trkpt>
      <trkpt lat="40.046583" lon="-4.962050">
        <ele>1603.0</ele>
        <time>2013-07-06T13:59:35Z</time>
      </trkpt>
      <trkpt lat="40.046483" lon="-4.962300">
        <ele>1608.0</ele>
        <time>2013-07-06T13:59:37Z</time>
      </trkpt>
      <trkpt lat="40.046433" lon="-4.962467">
        <ele>1610.0</ele>
        <time>2013-07-06T13:59:38Z</time>
      </trkpt>
      <trkpt lat="40.046383" lon="-4.962600">
        <ele>1613.0</ele>
        <time>2013-07-06T13:59:39Z</time>
      </trkpt>
      <trkpt lat="40.046350" lon="-4.962717">
        <ele>1617.0</ele>
        <time>2013-07-06T13:59:40Z</time>
      </trkpt>
      <trkpt lat="40.046317" lon="-4.962833">
        <ele>1621.0</ele>
        <time>2013-07-06T13:59:41Z</time>
      </trkpt>
      <trkpt lat="40.046217" lon="-4.963067">
        <ele>1627.0</ele>
        <time>2013-07-06T13:59:43Z</time>
      </trkpt>
      <trkpt lat="40.046150" lon="-4.963183">
        <ele>1629.0</ele>
        <time>2013-07-06T13:59:44Z</time>
      </trkpt>
      <trkpt lat="40.046067" lon="-4.963300">
        <ele>1632.0</ele>
        <time>2013-07-06T13:59:45Z</time>
      </trkpt>
      <trkpt lat="40.046000" lon="-4.963400">
        <ele>1635.0</ele>
        <time>2013-07-06T13:59:46Z</time>
      </trkpt>
      <trkpt lat="40.045933" lon="-4.963500">
        <ele>1637.0</ele>
        <time>2013-07-06T13:59:47Z</time>
      </trkpt>
      <trkpt lat="40.045683" lon="-4.963750">
        <ele>1642.0</ele>
        <time>2013-07-06T13:59:50Z</time>
      </trkpt>
      <trkpt lat="40.045600" lon="-4.963833">
        <ele>1643.0</ele>
        <time>2013-07-06T13:59:51Z</time>
      </trkpt>
      <trkpt lat="40.045517" lon="-4.963900">
        <ele>1644.0</ele>
        <time>2013-07-06T13:59:52Z</time>
      </trkpt>
      <trkpt lat="40.045450" lon="-4.963950">
        <ele>1644.0</ele>
        <time>2013-07-06T13:59:53Z</time>
      </trkpt>
      <trkpt lat="40.045383" lon="-4.963983">
        <ele>1645.0</ele>
        <time>2013-07-06T13:59:54Z</time>
      </trkpt>
      <trkpt lat="40.045283" lon="-4.964033">
        <ele>1646.0</ele>
        <time>2013-07-06T13:59:55Z</time>
      </trkpt>
      <trkpt lat="40.045183" lon="-4.964067">
        <ele>1646.0</ele>
        <time>2013-07-06T13:59:56Z</time>
      </trkpt>
      <trkpt lat="40.045083" lon="-4.964100">
        <ele>1646.0</ele>
        <time>2013-07-06T13:59:57Z</time>
      </trkpt>
      <trkpt lat="40.045000" lon="-4.964133">
        <ele>1647.0</ele>
        <time>2013-07-06T13:59:58Z</time>
      </trkpt>
      <trkpt lat="40.044933" lon="-4.964133">
        <ele>1647.0</ele>
        <time>2013-07-06T13:59:59Z</time>
      </trkpt>
      <trkpt lat="40.044867" lon="-4.964117">
        <ele>1647.0</ele>
        <time>2013-07-06T14:00:00Z</time>
      </trkpt>
      <trkpt lat="40.044800" lon="-4.964100">
        <ele>1647.0</ele>
        <time>2013-07-06T14:00:01Z</time>
      </trkpt>
      <trkpt lat="40.044717" lon="-4.964067">
        <ele>1647.0</ele>
        <time>2013-07-06T14:00:02Z</time>
      </trkpt>
      <trkpt lat="40.044650" lon="-4.964050">
        <ele>1648.0</ele>
        <time>2013-07-06T14:00:03Z</time>
      </trkpt>
      <trkpt lat="40.044567" lon="-4.964033">
        <ele>1648.0</ele>
        <time>2013-07-06T14:00:04Z</time>
      </trkpt>
      <trkpt lat="40.044483" lon="-4.964017">
        <ele>1648.0</ele>
        <time>2013-07-06T14:00:05Z</time>
      </trkpt>
      <trkpt lat="40.044417" lon="-4.963983">
        <ele>1647.0</ele>
        <time>2013-07-06T14:00:06Z</time>
      </trkpt>
      <trkpt lat="40.044333" lon="-4.963933">
        <ele>1646.0</ele>
        <time>2013-07-06T14:00:07Z</time>
      </trkpt>
      <trkpt lat="40.044283" lon="-4.963850">
        <ele>1646.0</ele>
        <time>2013-07-06T14:00:08Z</time>
      </trkpt>
      <trkpt lat="40.044233" lon="-4.963750">
        <ele>1645.0</ele>
        <time>2013-07-06T14:00:09Z</time>
      </trkpt>
      <trkpt lat="40.044217" lon="-4.963650">
        <ele>1645.0</ele>
        <time>2013-07-06T14:00:10Z</time>
      </trkpt>
      <trkpt lat="40.044217" lon="-4.963567">
        <ele>1646.0</ele>
        <time>2013-07-06T14:00:11Z</time>
      </trkpt>
      <trkpt lat="40.044233" lon="-4.963500">
        <ele>1648.0</ele>
        <time>2013-07-06T14:00:12Z</time>
      </trkpt>
      <trkpt lat="40.044267" lon="-4.963433">
        <ele>1650.0</ele>
        <time>2013-07-06T14:00:13Z</time>
      </trkpt>
      <trkpt lat="40.044300" lon="-4.963367">
        <ele>1651.0</ele>
        <time>2013-07-06T14:00:14Z</time>
      </trkpt>
      <trkpt lat="40.044333" lon="-4.963283">
        <ele>1652.0</ele>
        <time>2013-07-06T14:00:15Z</time>
      </trkpt>
      <trkpt lat="40.044383" lon="-4.963217">
        <ele>1652.0</ele>
        <time>2013-07-06T14:00:16Z</time>
      </trkpt>
      <trkpt lat="40.044450" lon="-4.963167">
        <ele>1651.0</ele>
        <time>2013-07-06T14:00:17Z</time>
      </trkpt>
      <trkpt lat="40.044517" lon="-4.963117">
        <ele>1650.0</ele>
        <time>2013-07-06T14:00:18Z</time>
      </trkpt>
      <trkpt lat="40.044600" lon="-4.963100">
        <ele>1650.0</ele>
        <time>2013-07-06T14:00:19Z</time>
      </trkpt>
      <trkpt lat="40.044667" lon="-4.963100">
        <ele>1649.0</ele>
        <time>2013-07-06T14:00:20Z</time>
      </trkpt>
      <trkpt lat="40.044733" lon="-4.963100">
        <ele>1648.0</ele>
        <time>2013-07-06T14:00:21Z</time>
      </trkpt>
      <trkpt lat="40.044800" lon="-4.963133">
        <ele>1648.0</ele>
        <time>2013-07-06T14:00:22Z</time>
      </trkpt>
      <trkpt lat="40.044867" lon="-4.963167">
        <ele>1649.0</ele>
        <time>2013-07-06T14:00:23Z</time>
      </trkpt>
      <trkpt lat="40.044917" lon="-4.963217">
        <ele>1648.0</ele>
        <time>2013-07-06T14:00:24Z</time>
      </trkpt>
      <trkpt lat="40.044983" lon="-4.963283">
        <ele>1648.0</ele>
        <time>2013-07-06T14:00:25Z</time>
      </trkpt>
      <trkpt lat="40.045033" lon="-4.963367">
        <ele>1648.0</ele>
        <time>2013-07-06T14:00:26Z</time>
      </trkpt>
      <trkpt lat="40.045083" lon="-4.963467">
        <ele>1648.0</ele>
        <time>2013-07-06T14:00:27Z</time>
      </trkpt>
      <trkpt lat="40.045117" lon="-4.963583">
        <ele>1649.0</ele>
        <time>2013-07-06T14:00:28Z</time>
      </trkpt>
      <trkpt lat="40.045150" lon="-4.963683">
        <ele>1649.0</ele>
        <time>2013-07-06T14:00:29Z</time>
      </trkpt>
      <trkpt lat="40.045167" lon="-4.963817">
        <ele>1649.0</ele>
        <time>2013-07-06T14:00:30Z</time>
      </trkpt>
      <trkpt lat="40.045183" lon="-4.963933">
        <ele>1649.0</ele>
        <time>2013-07-06T14:00:31Z</time>
      </trkpt>
      <trkpt lat="40.045217" lon="-4.964083">
        <ele>1649.0</ele>
        <time>2013-07-06T14:00:32Z</time>
      </trkpt>
      <trkpt lat="40.045267" lon="-4.964350">
        <ele>1651.0</ele>
        <time>2013-07-06T14:00:34Z</time>
      </trkpt>
      <trkpt lat="40.045300" lon="-4.964467">
        <ele>1652.0</ele>
        <time>2013-07-06T14:00:35Z</time>
      </trkpt>
      <trkpt lat="40.045333" lon="-4.964583">
        <ele>1653.0</ele>
        <time>2013-07-06T14:00:36Z</time>
      </trkpt>
      <trkpt lat="40.045367" lon="-4.964717">
        <ele>1653.0</ele>
        <time>2013-07-06T14:00:37Z</time>
      </trkpt>
      <trkpt lat="40.045383" lon="-4.964850">
        <ele>1654.0</ele>
        <time>2013-07-06T14:00:38Z</time>
      </trkpt>
      <trkpt lat="40.045417" lon="-4.964983">
        <ele>1654.0</ele>
        <time>2013-07-06T14:00:39Z</time>
      </trkpt>
      <trkpt lat="40.045467" lon="-4.965083">
        <ele>1655.0</ele>
        <time>2013-07-06T14:00:40Z</time>
      </trkpt>
      <trkpt lat="40.045517" lon="-4.965200">
        <ele>1656.0</ele>
        <time>2013-07-06T14:00:41Z</time>
      </trkpt>
      <trkpt lat="40.045567" lon="-4.965283">
        <ele>1658.0</ele>
        <time>2013-07-06T14:00:42Z</time>
      </trkpt>
      <trkpt lat="40.045617" lon="-4.965350">
        <ele>1660.0</ele>
        <time>2013-07-06T14:00:43Z</time>
      </trkpt>
      <trkpt lat="40.045750" lon="-4.965400">
        <ele>1662.0</ele>
        <time>2013-07-06T14:00:46Z</time>
      </trkpt>
      <trkpt lat="40.045833" lon="-4.965317">
        <ele>1664.0</ele>
        <time>2013-07-06T14:00:48Z</time>
      </trkpt>
      <trkpt lat="40.045867" lon="-4.965317">
        <ele>1667.0</ele>
        <time>2013-07-06T14:00:49Z</time>
      </trkpt>
      <trkpt lat="40.045933" lon="-4.965367">
        <ele>1668.0</ele>
        <time>2013-07-06T14:00:50Z</time>
      </trkpt>
      <trkpt lat="40.045983" lon="-4.965450">
        <ele>1669.0</ele>
        <time>2013-07-06T14:00:51Z</time>
      </trkpt>
      <trkpt lat="40.046050" lon="-4.965533">
        <ele>1670.0</ele>
        <time>2013-07-06T14:00:52Z</time>
      </trkpt>
      <trkpt lat="40.046100" lon="-4.965617">
        <ele>1671.0</ele>
        <time>2013-07-06T14:00:53Z</time>
      </trkpt>
      <trkpt lat="40.046150" lon="-4.965717">
        <ele>1673.0</ele>
        <time>2013-07-06T14:00:54Z</time>
      </trkpt>
      <trkpt lat="40.046183" lon="-4.965833">
        <ele>1674.0</ele>
        <time>2013-07-06T14:00:55Z</time>
      </trkpt>
      <trkpt lat="40.046200" lon="-4.965967">
        <ele>1676.0</ele>
        <time>2013-07-06T14:00:56Z</time>
      </trkpt>
      <trkpt lat="40.046200" lon="-4.966100">
        <ele>1678.0</ele>
        <time>2013-07-06T14:00:57Z</time>
      </trkpt>
      <trkpt lat="40.046200" lon="-4.966250">
        <ele>1680.0</ele>
        <time>2013-07-06T14:00:58Z</time>
      </trkpt>
      <trkpt lat="40.046183" lon="-4.966400">
        <ele>1681.0</ele>
        <time>2013-07-06T14:00:59Z</time>
      </trkpt>
      <trkpt lat="40.046167" lon="-4.966550">
        <ele>1683.0</ele>
        <time>2013-07-06T14:01:00Z</time>
      </trkpt>
      <trkpt lat="40.046150" lon="-4.966700">
        <ele>1685.0</ele>
        <time>2013-07-06T14:01:01Z</time>
      </trkpt>
      <trkpt lat="40.046117" lon="-4.966850">
        <ele>1687.0</ele>
        <time>2013-07-06T14:01:02Z</time>
      </trkpt>
      <trkpt lat="40.046083" lon="-4.967000">
        <ele>1689.0</ele>
        <time>2013-07-06T14:01:03Z</time>
      </trkpt>
      <trkpt lat="40.046050" lon="-4.967133">
        <ele>1691.0</ele>
        <time>2013-07-06T14:01:04Z</time>
      </trkpt>
      <trkpt lat="40.046000" lon="-4.967267">
        <ele>1693.0</ele>
        <time>2013-07-06T14:01:05Z</time>
      </trkpt>
      <trkpt lat="40.045933" lon="-4.967383">
        <ele>1695.0</ele>
        <time>2013-07-06T14:01:06Z</time>
      </trkpt>
      <trkpt lat="40.045850" lon="-4.967500">
        <ele>1696.0</ele>
        <time>2013-07-06T14:01:07Z</time>
      </trkpt>
      <trkpt lat="40.045767" lon="-4.967617">
        <ele>1698.0</ele>
        <time>2013-07-06T14:01:08Z</time>
      </trkpt>
      <trkpt lat="40.045683" lon="-4.967750">
        <ele>1699.0</ele>
        <time>2013-07-06T14:01:09Z</time>
      </trkpt>
      <trkpt lat="40.045600" lon="-4.967833">
        <ele>1702.0</ele>
        <time>2013-07-06T14:01:10Z</time>
      </trkpt>
      <trkpt lat="40.045533" lon="-4.967917">
        <ele>1704.0</ele>
        <time>2013-07-06T14:01:11Z</time>
      </trkpt>
      <trkpt lat="40.045450" lon="-4.967967">
        <ele>1705.0</ele>
        <time>2013-07-06T14:01:12Z</time>
      </trkpt>
      <trkpt lat="40.045367" lon="-4.968017">
        <ele>1706.0</ele>
        <time>2013-07-06T14:01:13Z</time>
      </trkpt>
      <trkpt lat="40.045283" lon="-4.968067">
        <ele>1707.0</ele>
        <time>2013-07-06T14:01:14Z</time>
      </trkpt>
      <trkpt lat="40.045200" lon="-4.968083">
        <ele>1708.0</ele>
        <time>2013-07-06T14:01:15Z</time>
      </trkpt>
      <trkpt lat="40.045117" lon="-4.968100">
        <ele>1708.0</ele>
        <time>2013-07-06T14:01:16Z</time>
      </trkpt>
      <trkpt lat="40.045033" lon="-4.968083">
        <ele>1708.0</ele>
        <time>2013-07-06T14:01:17Z</time>
      </trkpt>
      <trkpt lat="40.044983" lon="-4.968067">
        <ele>1707.0</ele>
        <time>2013-07-06T14:01:18Z</time>
      </trkpt>
      <trkpt lat="40.044917" lon="-4.968050">
        <ele>1707.0</ele>
        <time>2013-07-06T14:01:19Z</time>
      </trkpt>
      <trkpt lat="40.044867" lon="-4.968033">
        <ele>1705.0</ele>
        <time>2013-07-06T14:01:20Z</time>
      </trkpt>
      <trkpt lat="40.044817" lon="-4.968000">
        <ele>1704.0</ele>
        <time>2013-07-06T14:01:21Z</time>
      </trkpt>
      <trkpt lat="40.044750" lon="-4.967967">
        <ele>1702.0</ele>
        <time>2013-07-06T14:01:22Z</time>
      </trkpt>
      <trkpt lat="40.044700" lon="-4.967900">
        <ele>1700.0</ele>
        <time>2013-07-06T14:01:23Z</time>
      </trkpt>
      <trkpt lat="40.044667" lon="-4.967833">
        <ele>1699.0</ele>
        <time>2013-07-06T14:01:24Z</time>
      </trkpt>
      <trkpt lat="40.044617" lon="-4.967783">
        <ele>1699.0</ele>
        <time>2013-07-06T14:01:25Z</time>
      </trkpt>
      <trkpt lat="40.044583" lon="-4.967717">
        <ele>1699.0</ele>
        <time>2013-07-06T14:01:26Z</time>
      </trkpt>
      <trkpt lat="40.044567" lon="-4.967650">
        <ele>1699.0</ele>
        <time>2013-07-06T14:01:27Z</time>
      </trkpt>
      <trkpt lat="40.044567" lon="-4.967600">
        <ele>1699.0</ele>
        <time>2013-07-06T14:01:28Z</time>
      </trkpt>
      <trkpt lat="40.044583" lon="-4.967550">
        <ele>1700.0</ele>
        <time>2013-07-06T14:01:29Z</time>
      </trkpt>
      <trkpt lat="40.044617" lon="-4.967500">
        <ele>1700.0</ele>
        <time>2013-07-06T14:01:30Z</time>
      </trkpt>
      <trkpt lat="40.044667" lon="-4.967450">
        <ele>1700.0</ele>
        <time>2013-07-06T14:01:31Z</time>
      </trkpt>
      <trkpt lat="40.044700" lon="-4.967400">
        <ele>1700.0</ele>
        <time>2013-07-06T14:01:32Z</time>
      </trkpt>
      <trkpt lat="40.044750" lon="-4.967350">
        <ele>1700.0</ele>
        <time>2013-07-06T14:01:33Z</time>
      </trkpt>
      <trkpt lat="40.044833" lon="-4.967317">
        <ele>1699.0</ele>
        <time>2013-07-06T14:01:34Z</time>
      </trkpt>
      <trkpt lat="40.044933" lon="-4.967317">
        <ele>1699.0</ele>
        <time>2013-07-06T14:01:35Z</time>
      </trkpt>
      <trkpt lat="40.045017" lon="-4.967333">
        <ele>1699.0</ele>
        <time>2013-07-06T14:01:36Z</time>
      </trkpt>
      <trkpt lat="40.045100" lon="-4.967350">
        <ele>1700.0</ele>
        <time>2013-07-06T14:01:37Z</time>
      </trkpt>
      <trkpt lat="40.045167" lon="-4.967383">
        <ele>1702.0</ele>
        <time>2013-07-06T14:01:38Z</time>
      </trkpt>
      <trkpt lat="40.045233" lon="-4.967433">
        <ele>1703.0</ele>
        <time>2013-07-06T14:01:39Z</time>
      </trkpt>
      <trkpt lat="40.045317" lon="-4.967483">
        <ele>1704.0</ele>
        <time>2013-07-06T14:01:40Z</time>
      </trkpt>
      <trkpt lat="40.045383" lon="-4.967567">
        <ele>1704.0</ele>
        <time>2013-07-06T14:01:41Z</time>
      </trkpt>
      <trkpt lat="40.045450" lon="-4.967683">
        <ele>1704.0</ele>
        <time>2013-07-06T14:01:42Z</time>
      </trkpt>
      <trkpt lat="40.045517" lon="-4.967800">
        <ele>1705.0</ele>
        <time>2013-07-06T14:01:43Z</time>
      </trkpt>
      <trkpt lat="40.045550" lon="-4.967917">
        <ele>1706.0</ele>
        <time>2013-07-06T14:01:44Z</time>
      </trkpt>
      <trkpt lat="40.045600" lon="-4.968050">
        <ele>1706.0</ele>
        <time>2013-07-06T14:01:45Z</time>
      </trkpt>
      <trkpt lat="40.045633" lon="-4.968200">
        <ele>1706.0</ele>
        <time>2013-07-06T14:01:46Z</time>
      </trkpt>
      <trkpt lat="40.045667" lon="-4.968367">
        <ele>1706.0</ele>
        <time>2013-07-06T14:01:47Z</time>
      </trkpt>
      <trkpt lat="40.045683" lon="-4.968533">
        <ele>1707.0</ele>
        <time>2013-07-06T14:01:48Z</time>
      </trkpt>
      <trkpt lat="40.045717" lon="-4.968683">
        <ele>1708.0</ele>
        <time>2013-07-06T14:01:49Z</time>
      </trkpt>
      <trkpt lat="40.045733" lon="-4.968833">
        <ele>1709.0</ele>
        <time>2013-07-06T14:01:50Z</time>
      </trkpt>
      <trkpt lat="40.045750" lon="-4.968983">
        <ele>1710.0</ele>
        <time>2013-07-06T14:01:51Z</time>
      </trkpt>
      <trkpt lat="40.045733" lon="-4.969150">
        <ele>1710.0</ele>
        <time>2013-07-06T14:01:52Z</time>
      </trkpt>
      <trkpt lat="40.045700" lon="-4.969300">
        <ele>1710.0</ele>
        <time>2013-07-06T14:01:53Z</time>
      </trkpt>
      <trkpt lat="40.045650" lon="-4.969450">
        <ele>1710.0</ele>
        <time>2013-07-06T14:01:54Z</time>
      </trkpt>
      <trkpt lat="40.045583" lon="-4.969583">
        <ele>1710.0</ele>
        <time>2013-07-06T14:01:55Z</time>
      </trkpt>
      <trkpt lat="40.045517" lon="-4.969700">
        <ele>1711.0</ele>
        <time>2013-07-06T14:01:56Z</time>
      </trkpt>
      <trkpt lat="40.045450" lon="-4.969800">
        <ele>1712.0</ele>
        <time>2013-07-06T14:01:57Z</time>
      </trkpt>
      <trkpt lat="40.045367" lon="-4.969883">
        <ele>1712.0</ele>
        <time>2013-07-06T14:01:58Z</time>
      </trkpt>
      <trkpt lat="40.045267" lon="-4.969950">
        <ele>1712.0</ele>
        <time>2013-07-06T14:01:59Z</time>
      </trkpt>
      <trkpt lat="40.045200" lon="-4.970000">
        <ele>1713.0</ele>
        <time>2013-07-06T14:02:00Z</time>
      </trkpt>
      <trkpt lat="40.045117" lon="-4.970050">
        <ele>1714.0</ele>
        <time>2013-07-06T14:02:01Z</time>
      </trkpt>
      <trkpt lat="40.045033" lon="-4.970100">
        <ele>1714.0</ele>
        <time>2013-07-06T14:02:02Z</time>
      </trkpt>
      <trkpt lat="40.044933" lon="-4.970150">
        <ele>1714.0</ele>
        <time>2013-07-06T14:02:03Z</time>
      </trkpt>
      <trkpt lat="40.044833" lon="-4.970200">
        <ele>1713.0</ele>
        <time>2013-07-06T14:02:04Z</time>
      </trkpt>
      <trkpt lat="40.044750" lon="-4.970233">
        <ele>1713.0</ele>
        <time>2013-07-06T14:02:05Z</time>
      </trkpt>
      <trkpt lat="40.044667" lon="-4.970267">
        <ele>1714.0</ele>
        <time>2013-07-06T14:02:06Z</time>
      </trkpt>
      <trkpt lat="40.044600" lon="-4.970300">
        <ele>1714.0</ele>
        <time>2013-07-06T14:02:07Z</time>
      </trkpt>
      <trkpt lat="40.044517" lon="-4.970317">
        <ele>1714.0</ele>
        <time>2013-07-06T14:02:08Z</time>
      </trkpt>
      <trkpt lat="40.044433" lon="-4.970333">
        <ele>1715.0</ele>
        <time>2013-07-06T14:02:09Z</time>
      </trkpt>
      <trkpt lat="40.044333" lon="-4.970333">
        <ele>1714.0</ele>
        <time>2013-07-06T14:02:10Z</time>
      </trkpt>
      <trkpt lat="40.044250" lon="-4.970333">
        <ele>1715.0</ele>
        <time>2013-07-06T14:02:11Z</time>
      </trkpt>
      <trkpt lat="40.044167" lon="-4.970317">
        <ele>1718.0</ele>
        <time>2013-07-06T14:02:12Z</time>
      </trkpt>
      <trkpt lat="40.044100" lon="-4.970333">
        <ele>1720.0</ele>
        <time>2013-07-06T14:02:13Z</time>
      </trkpt>
      <trkpt lat="40.044017" lon="-4.970383">
        <ele>1720.0</ele>
        <time>2013-07-06T14:02:14Z</time>
      </trkpt>
      <trkpt lat="40.043950" lon="-4.970467">
        <ele>1720.0</ele>
        <time>2013-07-06T14:02:15Z</time>
      </trkpt>
      <trkpt lat="40.043867" lon="-4.970600">
        <ele>1720.0</ele>
        <time>2013-07-06T14:02:16Z</time>
      </trkpt>
      <trkpt lat="40.043817" lon="-4.970750">
        <ele>1719.0</ele>
        <time>2013-07-06T14:02:17Z</time>
      </trkpt>
      <trkpt lat="40.043800" lon="-4.970900">
        <ele>1720.0</ele>
        <time>2013-07-06T14:02:18Z</time>
      </trkpt>
      <trkpt lat="40.043800" lon="-4.971033">
        <ele>1721.0</ele>
        <time>2013-07-06T14:02:19Z</time>
      </trkpt>
      <trkpt lat="40.043800" lon="-4.971167">
        <ele>1722.0</ele>
        <time>2013-07-06T14:02:20Z</time>
      </trkpt>
      <trkpt lat="40.043833" lon="-4.971300">
        <ele>1722.0</ele>
        <time>2013-07-06T14:02:21Z</time>
      </trkpt>
      <trkpt lat="40.043867" lon="-4.971417">
        <ele>1721.0</ele>
        <time>2013-07-06T14:02:22Z</time>
      </trkpt>
      <trkpt lat="40.043933" lon="-4.971517">
        <ele>1721.0</ele>
        <time>2013-07-06T14:02:23Z</time>
      </trkpt>
      <trkpt lat="40.044017" lon="-4.971600">
        <ele>1720.0</ele>
        <time>2013-07-06T14:02:24Z</time>
      </trkpt>
      <trkpt lat="40.044100" lon="-4.971650">
        <ele>1719.0</ele>
        <time>2013-07-06T14:02:25Z</time>
      </trkpt>
      <trkpt lat="40.044183" lon="-4.971683">
        <ele>1718.0</ele>
        <time>2013-07-06T14:02:26Z</time>
      </trkpt>
      <trkpt lat="40.044317" lon="-4.971700">
        <ele>1719.0</ele>
        <time>2013-07-06T14:02:28Z</time>
      </trkpt>
      <trkpt lat="40.044383" lon="-4.971683">
        <ele>1719.0</ele>
        <time>2013-07-06T14:02:29Z</time>
      </trkpt>
      <trkpt lat="40.044433" lon="-4.971667">
        <ele>1719.0</ele>
        <time>2013-07-06T14:02:30Z</time>
      </trkpt>
      <trkpt lat="40.044483" lon="-4.971633">
        <ele>1719.0</ele>
        <time>2013-07-06T14:02:31Z</time>
      </trkpt>
      <trkpt lat="40.044550" lon="-4.971567">
        <ele>1720.0</ele>
        <time>2013-07-06T14:02:33Z</time>
      </trkpt>
      <trkpt lat="40.044567" lon="-4.971533">
        <ele>1720.0</ele>
        <time>2013-07-06T14:02:34Z</time>
      </trkpt>
      <trkpt lat="40.044567" lon="-4.971483">
        <ele>1719.0</ele>
        <time>2013-07-06T14:02:35Z</time>
      </trkpt>
      <trkpt lat="40.044567" lon="-4.971433">
        <ele>1719.0</ele>
        <time>2013-07-06T14:02:36Z</time>
      </trkpt>
      <trkpt lat="40.044550" lon="-4.971383">
        <ele>1719.0</ele>
        <time>2013-07-06T14:02:37Z</time>
      </trkpt>
      <trkpt lat="40.044517" lon="-4.971333">
        <ele>1719.0</ele>
        <time>2013-07-06T14:02:38Z</time>
      </trkpt>
      <trkpt lat="40.044483" lon="-4.971300">
        <ele>1719.0</ele>
        <time>2013-07-06T14:02:39Z</time>
      </trkpt>
      <trkpt lat="40.044433" lon="-4.971267">
        <ele>1719.0</ele>
        <time>2013-07-06T14:02:40Z</time>
      </trkpt>
      <trkpt lat="40.044367" lon="-4.971250">
        <ele>1719.0</ele>
        <time>2013-07-06T14:02:41Z</time>
      </trkpt>
      <trkpt lat="40.044300" lon="-4.971217">
        <ele>1718.0</ele>
        <time>2013-07-06T14:02:42Z</time>
      </trkpt>
      <trkpt lat="40.044233" lon="-4.971217">
        <ele>1717.0</ele>
        <time>2013-07-06T14:02:43Z</time>
      </trkpt>
      <trkpt lat="40.044150" lon="-4.971200">
        <ele>1716.0</ele>
        <time>2013-07-06T14:02:44Z</time>
      </trkpt>
      <trkpt lat="40.044083" lon="-4.971200">
        <ele>1716.0</ele>
        <time>2013-07-06T14:02:45Z</time>
      </trkpt>
      <trkpt lat="40.044000" lon="-4.971200">
        <ele>1715.0</ele>
        <time>2013-07-06T14:02:46Z</time>
      </trkpt>
      <trkpt lat="40.043933" lon="-4.971183">
        <ele>1715.0</ele>
        <time>2013-07-06T14:02:47Z</time>
      </trkpt>
      <trkpt lat="40.043867" lon="-4.971183">
        <ele>1716.0</ele>
        <time>2013-07-06T14:02:48Z</time>
      </trkpt>
      <trkpt lat="40.043783" lon="-4.971183">
        <ele>1715.0</ele>
        <time>2013-07-06T14:02:49Z</time>
      </trkpt>
      <trkpt lat="40.043717" lon="-4.971183">
        <ele>1715.0</ele>
        <time>2013-07-06T14:02:50Z</time>
      </trkpt>
      <trkpt lat="40.043633" lon="-4.971183">
        <ele>1715.0</ele>
        <time>2013-07-06T14:02:51Z</time>
      </trkpt>
      <trkpt lat="40.043567" lon="-4.971183">
        <ele>1715.0</ele>
        <time>2013-07-06T14:02:52Z</time>
      </trkpt>
      <trkpt lat="40.043500" lon="-4.971183">
        <ele>1714.0</ele>
        <time>2013-07-06T14:02:53Z</time>
      </trkpt>
      <trkpt lat="40.043417" lon="-4.971183">
        <ele>1714.0</ele>
        <time>2013-07-06T14:02:54Z</time>
      </trkpt>
      <trkpt lat="40.043333" lon="-4.971167">
        <ele>1713.0</ele>
        <time>2013-07-06T14:02:55Z</time>
      </trkpt>
      <trkpt lat="40.043250" lon="-4.971167">
        <ele>1714.0</ele>
        <time>2013-07-06T14:02:56Z</time>
      </trkpt>
      <trkpt lat="40.043183" lon="-4.971183">
        <ele>1714.0</ele>
        <time>2013-07-06T14:02:57Z</time>
      </trkpt>
      <trkpt lat="40.043117" lon="-4.971200">
        <ele>1715.0</ele>
        <time>2013-07-06T14:02:58Z</time>
      </trkpt>
      <trkpt lat="40.043050" lon="-4.971217">
        <ele>1714.0</ele>
        <time>2013-07-06T14:02:59Z</time>
      </trkpt>
      <trkpt lat="40.042967" lon="-4.971233">
        <ele>1714.0</ele>
        <time>2013-07-06T14:03:00Z</time>
      </trkpt>
      <trkpt lat="40.042883" lon="-4.971267">
        <ele>1713.0</ele>
        <time>2013-07-06T14:03:01Z</time>
      </trkpt>
      <trkpt lat="40.042800" lon="-4.971283">
        <ele>1713.0</ele>
        <time>2013-07-06T14:03:02Z</time>
      </trkpt>
      <trkpt lat="40.042733" lon="-4.971317">
        <ele>1714.0</ele>
        <time>2013-07-06T14:03:03Z</time>
      </trkpt>
      <trkpt lat="40.042667" lon="-4.971350">
        <ele>1714.0</ele>
        <time>2013-07-06T14:03:04Z</time>
      </trkpt>
      <trkpt lat="40.042583" lon="-4.971383">
        <ele>1714.0</ele>
        <time>2013-07-06T14:03:05Z</time>
      </trkpt>
      <trkpt lat="40.042500" lon="-4.971400">
        <ele>1714.0</ele>
        <time>2013-07-06T14:03:06Z</time>
      </trkpt>
      <trkpt lat="40.042417" lon="-4.971433">
        <ele>1714.0</ele>
        <time>2013-07-06T14:03:07Z</time>
      </trkpt>
      <trkpt lat="40.042333" lon="-4.971467">
        <ele>1715.0</ele>
        <time>2013-07-06T14:03:08Z</time>
      </trkpt>
      <trkpt lat="40.042250" lon="-4.971533">
        <ele>1716.0</ele>
        <time>2013-07-06T14:03:09Z</time>
      </trkpt>
      <trkpt lat="40.042150" lon="-4.971583">
        <ele>1717.0</ele>
        <time>2013-07-06T14:03:10Z</time>
      </trkpt>
      <trkpt lat="40.042067" lon="-4.971633">
        <ele>1718.0</ele>
        <time>2013-07-06T14:03:11Z</time>
      </trkpt>
      <trkpt lat="40.041983" lon="-4.971667">
        <ele>1719.0</ele>
        <time>2013-07-06T14:03:12Z</time>
      </trkpt>
      <trkpt lat="40.041900" lon="-4.971700">
        <ele>1720.0</ele>
        <time>2013-07-06T14:03:13Z</time>
      </trkpt>
      <trkpt lat="40.041817" lon="-4.971717">
        <ele>1721.0</ele>
        <time>2013-07-06T14:03:14Z</time>
      </trkpt>
      <trkpt lat="40.041733" lon="-4.971750">
        <ele>1722.0</ele>
        <time>2013-07-06T14:03:15Z</time>
      </trkpt>
      <trkpt lat="40.041667" lon="-4.971783">
        <ele>1723.0</ele>
        <time>2013-07-06T14:03:16Z</time>
      </trkpt>
      <trkpt lat="40.041583" lon="-4.971800">
        <ele>1724.0</ele>
        <time>2013-07-06T14:03:17Z</time>
      </trkpt>
      <trkpt lat="40.041500" lon="-4.971817">
        <ele>1724.0</ele>
        <time>2013-07-06T14:03:18Z</time>
      </trkpt>
      <trkpt lat="40.041417" lon="-4.971833">
        <ele>1724.0</ele>
        <time>2013-07-06T14:03:19Z</time>
      </trkpt>
      <trkpt lat="40.041333" lon="-4.971833">
        <ele>1724.0</ele>
        <time>2013-07-06T14:03:20Z</time>
      </trkpt>
      <trkpt lat="40.041267" lon="-4.971833">
        <ele>1724.0</ele>
        <time>2013-07-06T14:03:21Z</time>
      </trkpt>
      <trkpt lat="40.041200" lon="-4.971817">
        <ele>1724.0</ele>
        <time>2013-07-06T14:03:22Z</time>
      </trkpt>
      <trkpt lat="40.041133" lon="-4.971800">
        <ele>1724.0</ele>
        <time>2013-07-06T14:03:23Z</time>
      </trkpt>
      <trkpt lat="40.041050" lon="-4.971783">
        <ele>1724.0</ele>
        <time>2013-07-06T14:03:24Z</time>
      </trkpt>
      <trkpt lat="40.040983" lon="-4.971750">
        <ele>1724.0</ele>
        <time>2013-07-06T14:03:25Z</time>
      </trkpt>
      <trkpt lat="40.040917" lon="-4.971733">
        <ele>1724.0</ele>
        <time>2013-07-06T14:03:26Z</time>
      </trkpt>
      <trkpt lat="40.040867" lon="-4.971700">
        <ele>1723.0</ele>
        <time>2013-07-06T14:03:27Z</time>
      </trkpt>
      <trkpt lat="40.040800" lon="-4.971650">
        <ele>1723.0</ele>
        <time>2013-07-06T14:03:28Z</time>
      </trkpt>
      <trkpt lat="40.040750" lon="-4.971600">
        <ele>1722.0</ele>
        <time>2013-07-06T14:03:29Z</time>
      </trkpt>
      <trkpt lat="40.040683" lon="-4.971550">
        <ele>1722.0</ele>
        <time>2013-07-06T14:03:30Z</time>
      </trkpt>
      <trkpt lat="40.040633" lon="-4.971500">
        <ele>1721.0</ele>
        <time>2013-07-06T14:03:31Z</time>
      </trkpt>
      <trkpt lat="40.040583" lon="-4.971433">
        <ele>1721.0</ele>
        <time>2013-07-06T14:03:32Z</time>
      </trkpt>
      <trkpt lat="40.040550" lon="-4.971367">
        <ele>1721.0</ele>
        <time>2013-07-06T14:03:33Z</time>
      </trkpt>
      <trkpt lat="40.040500" lon="-4.971300">
        <ele>1721.0</ele>
        <time>2013-07-06T14:03:34Z</time>
      </trkpt>
      <trkpt lat="40.040467" lon="-4.971233">
        <ele>1721.0</ele>
        <time>2013-07-06T14:03:35Z</time>
      </trkpt>
      <trkpt lat="40.040417" lon="-4.971183">
        <ele>1721.0</ele>
        <time>2013-07-06T14:03:36Z</time>
      </trkpt>
      <trkpt lat="40.040383" lon="-4.971133">
        <ele>1721.0</ele>
        <time>2013-07-06T14:03:37Z</time>
      </trkpt>
      <trkpt lat="40.040333" lon="-4.971083">
        <ele>1721.0</ele>
        <time>2013-07-06T14:03:38Z</time>
      </trkpt>
      <trkpt lat="40.040300" lon="-4.971033">
        <ele>1721.0</ele>
        <time>2013-07-06T14:03:39Z</time>
      </trkpt>
      <trkpt lat="40.040250" lon="-4.970967">
        <ele>1721.0</ele>
        <time>2013-07-06T14:03:40Z</time>
      </trkpt>
      <trkpt lat="40.040200" lon="-4.970900">
        <ele>1720.0</ele>
        <time>2013-07-06T14:03:41Z</time>
      </trkpt>
      <trkpt lat="40.040167" lon="-4.970833">
        <ele>1721.0</ele>
        <time>2013-07-06T14:03:42Z</time>
      </trkpt>
      <trkpt lat="40.040117" lon="-4.970783">
        <ele>1721.0</ele>
        <time>2013-07-06T14:03:43Z</time>
      </trkpt>
      <trkpt lat="40.040083" lon="-4.970733">
        <ele>1721.0</ele>
        <time>2013-07-06T14:03:44Z</time>
      </trkpt>
      <trkpt lat="40.040033" lon="-4.970683">
        <ele>1721.0</ele>
        <time>2013-07-06T14:03:45Z</time>
      </trkpt>
      <trkpt lat="40.039983" lon="-4.970633">
        <ele>1722.0</ele>
        <time>2013-07-06T14:03:46Z</time>
      </trkpt>
      <trkpt lat="40.039950" lon="-4.970567">
        <ele>1722.0</ele>
        <time>2013-07-06T14:03:47Z</time>
      </trkpt>
      <trkpt lat="40.039900" lon="-4.970517">
        <ele>1722.0</ele>
        <time>2013-07-06T14:03:48Z</time>
      </trkpt>
      <trkpt lat="40.039867" lon="-4.970467">
        <ele>1722.0</ele>
        <time>2013-07-06T14:03:49Z</time>
      </trkpt>
      <trkpt lat="40.039833" lon="-4.970417">
        <ele>1723.0</ele>
        <time>2013-07-06T14:03:50Z</time>
      </trkpt>
      <trkpt lat="40.039783" lon="-4.970383">
        <ele>1724.0</ele>
        <time>2013-07-06T14:03:51Z</time>
      </trkpt>
      <trkpt lat="40.039750" lon="-4.970333">
        <ele>1724.0</ele>
        <time>2013-07-06T14:03:52Z</time>
      </trkpt>
      <trkpt lat="40.039717" lon="-4.970300">
        <ele>1725.0</ele>
        <time>2013-07-06T14:03:53Z</time>
      </trkpt>
      <trkpt lat="40.039683" lon="-4.970250">
        <ele>1725.0</ele>
        <time>2013-07-06T14:03:54Z</time>
      </trkpt>
      <trkpt lat="40.039650" lon="-4.970200">
        <ele>1725.0</ele>
        <time>2013-07-06T14:03:55Z</time>
      </trkpt>
      <trkpt lat="40.039617" lon="-4.970133">
        <ele>1725.0</ele>
        <time>2013-07-06T14:03:56Z</time>
      </trkpt>
      <trkpt lat="40.039583" lon="-4.970067">
        <ele>1725.0</ele>
        <time>2013-07-06T14:03:57Z</time>
      </trkpt>
      <trkpt lat="40.039567" lon="-4.970017">
        <ele>1726.0</ele>
        <time>2013-07-06T14:03:58Z</time>
      </trkpt>
      <trkpt lat="40.039550" lon="-4.969950">
        <ele>1727.0</ele>
        <time>2013-07-06T14:03:59Z</time>
      </trkpt>
      <trkpt lat="40.039533" lon="-4.969883">
        <ele>1727.0</ele>
        <time>2013-07-06T14:04:00Z</time>
      </trkpt>
      <trkpt lat="40.039517" lon="-4.969817">
        <ele>1728.0</ele>
        <time>2013-07-06T14:04:01Z</time>
      </trkpt>
      <trkpt lat="40.039517" lon="-4.969750">
        <ele>1728.0</ele>
        <time>2013-07-06T14:04:02Z</time>
      </trkpt>
      <trkpt lat="40.039500" lon="-4.969667">
        <ele>1729.0</ele>
        <time>2013-07-06T14:04:03Z</time>
      </trkpt>
      <trkpt lat="40.039517" lon="-4.969617">
        <ele>1730.0</ele>
        <time>2013-07-06T14:04:04Z</time>
      </trkpt>
      <trkpt lat="40.039517" lon="-4.969550">
        <ele>1730.0</ele>
        <time>2013-07-06T14:04:05Z</time>
      </trkpt>
      <trkpt lat="40.039533" lon="-4.969467">
        <ele>1731.0</ele>
        <time>2013-07-06T14:04:06Z</time>
      </trkpt>
      <trkpt lat="40.039567" lon="-4.969400">
        <ele>1731.0</ele>
        <time>2013-07-06T14:04:07Z</time>
      </trkpt>
      <trkpt lat="40.039600" lon="-4.969333">
        <ele>1731.0</ele>
        <time>2013-07-06T14:04:08Z</time>
      </trkpt>
      <trkpt lat="40.039633" lon="-4.969267">
        <ele>1732.0</ele>
        <time>2013-07-06T14:04:09Z</time>
      </trkpt>
      <trkpt lat="40.039683" lon="-4.969217">
        <ele>1733.0</ele>
        <time>2013-07-06T14:04:10Z</time>
      </trkpt>
      <trkpt lat="40.039733" lon="-4.969167">
        <ele>1733.0</ele>
        <time>2013-07-06T14:04:11Z</time>
      </trkpt>
      <trkpt lat="40.039800" lon="-4.969117">
        <ele>1734.0</ele>
        <time>2013-07-06T14:04:12Z</time>
      </trkpt>
      <trkpt lat="40.039867" lon="-4.969083">
        <ele>1734.0</ele>
        <time>2013-07-06T14:04:13Z</time>
      </trkpt>
      <trkpt lat="40.039950" lon="-4.969083">
        <ele>1735.0</ele>
        <time>2013-07-06T14:04:14Z</time>
      </trkpt>
      <trkpt lat="40.040033" lon="-4.969117">
        <ele>1735.0</ele>
        <time>2013-07-06T14:04:15Z</time>
      </trkpt>
      <trkpt lat="40.040117" lon="-4.969167">
        <ele>1736.0</ele>
        <time>2013-07-06T14:04:16Z</time>
      </trkpt>
      <trkpt lat="40.040167" lon="-4.969250">
        <ele>1739.0</ele>
        <time>2013-07-06T14:04:17Z</time>
      </trkpt>
      <trkpt lat="40.040217" lon="-4.969333">
        <ele>1742.0</ele>
        <time>2013-07-06T14:04:18Z</time>
      </trkpt>
      <trkpt lat="40.040233" lon="-4.969417">
        <ele>1744.0</ele>
        <time>2013-07-06T14:04:19Z</time>
      </trkpt>
      <trkpt lat="40.040267" lon="-4.969483">
        <ele>1745.0</ele>
        <time>2013-07-06T14:04:20Z</time>
      </trkpt>
      <trkpt lat="40.040317" lon="-4.969550">
        <ele>1745.0</ele>
        <time>2013-07-06T14:04:21Z</time>
      </trkpt>
      <trkpt lat="40.040417" lon="-4.969767">
        <ele>1744.0</ele>
        <time>2013-07-06T14:04:23Z</time>
      </trkpt>
      <trkpt lat="40.040450" lon="-4.969900">
        <ele>1745.0</ele>
        <time>2013-07-06T14:04:24Z</time>
      </trkpt>
      <trkpt lat="40.040433" lon="-4.970050">
        <ele>1746.0</ele>
        <time>2013-07-06T14:04:25Z</time>
      </trkpt>
      <trkpt lat="40.040400" lon="-4.970183">
        <ele>1746.0</ele>
        <time>2013-07-06T14:04:26Z</time>
      </trkpt>
      <trkpt lat="40.040367" lon="-4.970333">
        <ele>1746.0</ele>
        <time>2013-07-06T14:04:27Z</time>
      </trkpt>
      <trkpt lat="40.040333" lon="-4.970483">
        <ele>1746.0</ele>
        <time>2013-07-06T14:04:28Z</time>
      </trkpt>
      <trkpt lat="40.040300" lon="-4.970617">
        <ele>1747.0</ele>
        <time>2013-07-06T14:04:29Z</time>
      </trkpt>
      <trkpt lat="40.040250" lon="-4.970750">
        <ele>1747.0</ele>
        <time>2013-07-06T14:04:30Z</time>
      </trkpt>
      <trkpt lat="40.040183" lon="-4.970883">
        <ele>1747.0</ele>
        <time>2013-07-06T14:04:31Z</time>
      </trkpt>
      <trkpt lat="40.040117" lon="-4.971017">
        <ele>1747.0</ele>
        <time>2013-07-06T14:04:32Z</time>
      </trkpt>
      <trkpt lat="40.039983" lon="-4.971250">
        <ele>1748.0</ele>
        <time>2013-07-06T14:04:34Z</time>
      </trkpt>
      <trkpt lat="40.039833" lon="-4.971400">
        <ele>1751.0</ele>
        <time>2013-07-06T14:04:36Z</time>
      </trkpt>
      <trkpt lat="40.039767" lon="-4.971467">
        <ele>1752.0</ele>
        <time>2013-07-06T14:04:37Z</time>
      </trkpt>
      <trkpt lat="40.039683" lon="-4.971550">
        <ele>1753.0</ele>
        <time>2013-07-06T14:04:38Z</time>
      </trkpt>
      <trkpt lat="40.039600" lon="-4.971600">
        <ele>1753.0</ele>
        <time>2013-07-06T14:04:39Z</time>
      </trkpt>
      <trkpt lat="40.039517" lon="-4.971650">
        <ele>1753.0</ele>
        <time>2013-07-06T14:04:40Z</time>
      </trkpt>
      <trkpt lat="40.039433" lon="-4.971683">
        <ele>1752.0</ele>
        <time>2013-07-06T14:04:41Z</time>
      </trkpt>
      <trkpt lat="40.039350" lon="-4.971700">
        <ele>1752.0</ele>
        <time>2013-07-06T14:04:42Z</time>
      </trkpt>
      <trkpt lat="40.039267" lon="-4.971700">
        <ele>1752.0</ele>
        <time>2013-07-06T14:04:43Z</time>
      </trkpt>
      <trkpt lat="40.039183" lon="-4.971700">
        <ele>1752.0</ele>
        <time>2013-07-06T14:04:44Z</time>
      </trkpt>
      <trkpt lat="40.039117" lon="-4.971683">
        <ele>1752.0</ele>
        <time>2013-07-06T14:04:45Z</time>
      </trkpt>
      <trkpt lat="40.039033" lon="-4.971650">
        <ele>1752.0</ele>
        <time>2013-07-06T14:04:46Z</time>
      </trkpt>
      <trkpt lat="40.038967" lon="-4.971633">
        <ele>1753.0</ele>
        <time>2013-07-06T14:04:47Z</time>
      </trkpt>
      <trkpt lat="40.038917" lon="-4.971600">
        <ele>1754.0</ele>
        <time>2013-07-06T14:04:48Z</time>
      </trkpt>
      <trkpt lat="40.038850" lon="-4.971567">
        <ele>1754.0</ele>
        <time>2013-07-06T14:04:49Z</time>
      </trkpt>
      <trkpt lat="40.038800" lon="-4.971517">
        <ele>1754.0</ele>
        <time>2013-07-06T14:04:50Z</time>
      </trkpt>
      <trkpt lat="40.038733" lon="-4.971450">
        <ele>1753.0</ele>
        <time>2013-07-06T14:04:51Z</time>
      </trkpt>
      <trkpt lat="40.038667" lon="-4.971383">
        <ele>1755.0</ele>
        <time>2013-07-06T14:04:52Z</time>
      </trkpt>
      <trkpt lat="40.038633" lon="-4.971333">
        <ele>1756.0</ele>
        <time>2013-07-06T14:04:53Z</time>
      </trkpt>
      <trkpt lat="40.038583" lon="-4.971283">
        <ele>1758.0</ele>
        <time>2013-07-06T14:04:54Z</time>
      </trkpt>
      <trkpt lat="40.038550" lon="-4.971217">
        <ele>1759.0</ele>
        <time>2013-07-06T14:04:55Z</time>
      </trkpt>
      <trkpt lat="40.038517" lon="-4.971167">
        <ele>1760.0</ele>
        <time>2013-07-06T14:04:56Z</time>
      </trkpt>
      <trkpt lat="40.038500" lon="-4.971083">
        <ele>1760.0</ele>
        <time>2013-07-06T14:04:57Z</time>
      </trkpt>
      <trkpt lat="40.038483" lon="-4.971017">
        <ele>1761.0</ele>
        <time>2013-07-06T14:04:58Z</time>
      </trkpt>
      <trkpt lat="40.038483" lon="-4.970967">
        <ele>1764.0</ele>
        <time>2013-07-06T14:04:59Z</time>
      </trkpt>
      <trkpt lat="40.038467" lon="-4.970917">
        <ele>1766.0</ele>
        <time>2013-07-06T14:05:00Z</time>
      </trkpt>
      <trkpt lat="40.038450" lon="-4.970867">
        <ele>1767.0</ele>
        <time>2013-07-06T14:05:01Z</time>
      </trkpt>
      <trkpt lat="40.038417" lon="-4.970800">
        <ele>1769.0</ele>
        <time>2013-07-06T14:05:02Z</time>
      </trkpt>
      <trkpt lat="40.038367" lon="-4.970733">
        <ele>1769.0</ele>
        <time>2013-07-06T14:05:03Z</time>
      </trkpt>
      <trkpt lat="40.038300" lon="-4.970700">
        <ele>1770.0</ele>
        <time>2013-07-06T14:05:04Z</time>
      </trkpt>
      <trkpt lat="40.038217" lon="-4.970717">
        <ele>1771.0</ele>
        <time>2013-07-06T14:05:05Z</time>
      </trkpt>
      <trkpt lat="40.038100" lon="-4.970767">
        <ele>1770.0</ele>
        <time>2013-07-06T14:05:06Z</time>
      </trkpt>
      <trkpt lat="40.038000" lon="-4.970833">
        <ele>1770.0</ele>
        <time>2013-07-06T14:05:07Z</time>
      </trkpt>
      <trkpt lat="40.037900" lon="-4.970917">
        <ele>1771.0</ele>
        <time>2013-07-06T14:05:08Z</time>
      </trkpt>
      <trkpt lat="40.037817" lon="-4.971000">
        <ele>1772.0</ele>
        <time>2013-07-06T14:05:09Z</time>
      </trkpt>
      <trkpt lat="40.037750" lon="-4.971117">
        <ele>1774.0</ele>
        <time>2013-07-06T14:05:10Z</time>
      </trkpt>
      <trkpt lat="40.037650" lon="-4.971583">
        <ele>1776.0</ele>
        <time>2013-07-06T14:05:13Z</time>
      </trkpt>
      <trkpt lat="40.037667" lon="-4.971750">
        <ele>1777.0</ele>
        <time>2013-07-06T14:05:14Z</time>
      </trkpt>
      <trkpt lat="40.037700" lon="-4.971900">
        <ele>1777.0</ele>
        <time>2013-07-06T14:05:15Z</time>
      </trkpt>
      <trkpt lat="40.037750" lon="-4.972017">
        <ele>1778.0</ele>
        <time>2013-07-06T14:05:16Z</time>
      </trkpt>
      <trkpt lat="40.037817" lon="-4.972117">
        <ele>1779.0</ele>
        <time>2013-07-06T14:05:17Z</time>
      </trkpt>
      <trkpt lat="40.037883" lon="-4.972183">
        <ele>1780.0</ele>
        <time>2013-07-06T14:05:18Z</time>
      </trkpt>
      <trkpt lat="40.037967" lon="-4.972250">
        <ele>1780.0</ele>
        <time>2013-07-06T14:05:19Z</time>
      </trkpt>
      <trkpt lat="40.038033" lon="-4.972283">
        <ele>1780.0</ele>
        <time>2013-07-06T14:05:20Z</time>
      </trkpt>
      <trkpt lat="40.038100" lon="-4.972300">
        <ele>1779.0</ele>
        <time>2013-07-06T14:05:21Z</time>
      </trkpt>
      <trkpt lat="40.038233" lon="-4.972267">
        <ele>1778.0</ele>
        <time>2013-07-06T14:05:23Z</time>
      </trkpt>
      <trkpt lat="40.038300" lon="-4.972233">
        <ele>1778.0</ele>
        <time>2013-07-06T14:05:24Z</time>
      </trkpt>
      <trkpt lat="40.038317" lon="-4.972200">
        <ele>1778.0</ele>
        <time>2013-07-06T14:05:25Z</time>
      </trkpt>
      <trkpt lat="40.038350" lon="-4.972083">
        <ele>1779.0</ele>
        <time>2013-07-06T14:05:27Z</time>
      </trkpt>
      <trkpt lat="40.038333" lon="-4.972000">
        <ele>1780.0</ele>
        <time>2013-07-06T14:05:28Z</time>
      </trkpt>
      <trkpt lat="40.038317" lon="-4.971933">
        <ele>1780.0</ele>
        <time>2013-07-06T14:05:29Z</time>
      </trkpt>
      <trkpt lat="40.038267" lon="-4.971883">
        <ele>1782.0</ele>
        <time>2013-07-06T14:05:30Z</time>
      </trkpt>
      <trkpt lat="40.038217" lon="-4.971850">
        <ele>1784.0</ele>
        <time>2013-07-06T14:05:31Z</time>
      </trkpt>
      <trkpt lat="40.038133" lon="-4.971833">
        <ele>1785.0</ele>
        <time>2013-07-06T14:05:32Z</time>
      </trkpt>
      <trkpt lat="40.038050" lon="-4.971850">
        <ele>1785.0</ele>
        <time>2013-07-06T14:05:33Z</time>
      </trkpt>
      <trkpt lat="40.037967" lon="-4.971867">
        <ele>1786.0</ele>
        <time>2013-07-06T14:05:34Z</time>
      </trkpt>
      <trkpt lat="40.037883" lon="-4.971900">
        <ele>1787.0</ele>
        <time>2013-07-06T14:05:35Z</time>
      </trkpt>
      <trkpt lat="40.037800" lon="-4.971950">
        <ele>1787.0</ele>
        <time>2013-07-06T14:05:36Z</time>
      </trkpt>
      <trkpt lat="40.037700" lon="-4.972017">
        <ele>1787.0</ele>
        <time>2013-07-06T14:05:37Z</time>
      </trkpt>
      <trkpt lat="40.037583" lon="-4.972083">
        <ele>1787.0</ele>
        <time>2013-07-06T14:05:38Z</time>
      </trkpt>
      <trkpt lat="40.037467" lon="-4.972117">
        <ele>1787.0</ele>
        <time>2013-07-06T14:05:39Z</time>
      </trkpt>
      <trkpt lat="40.037367" lon="-4.972133">
        <ele>1788.0</ele>
        <time>2013-07-06T14:05:40Z</time>
      </trkpt>
      <trkpt lat="40.037300" lon="-4.972133">
        <ele>1791.0</ele>
        <time>2013-07-06T14:05:41Z</time>
      </trkpt>
      <trkpt lat="40.037250" lon="-4.972117">
        <ele>1792.0</ele>
        <time>2013-07-06T14:05:42Z</time>
      </trkpt>
      <trkpt lat="40.037200" lon="-4.972117">
        <ele>1792.0</ele>
        <time>2013-07-06T14:05:43Z</time>
      </trkpt>
      <trkpt lat="40.037133" lon="-4.972100">
        <ele>1792.0</ele>
        <time>2013-07-06T14:05:44Z</time>
      </trkpt>
      <trkpt lat="40.037083" lon="-4.972083">
        <ele>1790.0</ele>
        <time>2013-07-06T14:05:45Z</time>
      </trkpt>
      <trkpt lat="40.037033" lon="-4.972050">
        <ele>1788.0</ele>
        <time>2013-07-06T14:05:46Z</time>
      </trkpt>
      <trkpt lat="40.036983" lon="-4.972017">
        <ele>1787.0</ele>
        <time>2013-07-06T14:05:47Z</time>
      </trkpt>
      <trkpt lat="40.036950" lon="-4.971983">
        <ele>1787.0</ele>
        <time>2013-07-06T14:05:48Z</time>
      </trkpt>
      <trkpt lat="40.036917" lon="-4.971950">
        <ele>1787.0</ele>
        <time>2013-07-06T14:05:49Z</time>
      </trkpt>
      <trkpt lat="40.036883" lon="-4.971933">
        <ele>1787.0</ele>
        <time>2013-07-06T14:05:50Z</time>
      </trkpt>
      <trkpt lat="40.036833" lon="-4.971883">
        <ele>1785.0</ele>
        <time>2013-07-06T14:05:51Z</time>
      </trkpt>
      <trkpt lat="40.036783" lon="-4.971817">
        <ele>1785.0</ele>
        <time>2013-07-06T14:05:52Z</time>
      </trkpt>
      <trkpt lat="40.036750" lon="-4.971767">
        <ele>1785.0</ele>
        <time>2013-07-06T14:05:53Z</time>
      </trkpt>
      <trkpt lat="40.036717" lon="-4.971733">
        <ele>1785.0</ele>
        <time>2013-07-06T14:05:54Z</time>
      </trkpt>
      <trkpt lat="40.036683" lon="-4.971683">
        <ele>1785.0</ele>
        <time>2013-07-06T14:05:55Z</time>
      </trkpt>
      <trkpt lat="40.036667" lon="-4.971633">
        <ele>1784.0</ele>
        <time>2013-07-06T14:05:56Z</time>
      </trkpt>
      <trkpt lat="40.036633" lon="-4.971583">
        <ele>1783.0</ele>
        <time>2013-07-06T14:05:57Z</time>
      </trkpt>
      <trkpt lat="40.036617" lon="-4.971517">
        <ele>1781.0</ele>
        <time>2013-07-06T14:05:58Z</time>
      </trkpt>
      <trkpt lat="40.036583" lon="-4.971467">
        <ele>1780.0</ele>
        <time>2013-07-06T14:05:59Z</time>
      </trkpt>
      <trkpt lat="40.036550" lon="-4.971400">
        <ele>1779.0</ele>
        <time>2013-07-06T14:06:00Z</time>
      </trkpt>
      <trkpt lat="40.036500" lon="-4.971333">
        <ele>1777.0</ele>
        <time>2013-07-06T14:06:01Z</time>
      </trkpt>
      <trkpt lat="40.036450" lon="-4.971267">
        <ele>1775.0</ele>
        <time>2013-07-06T14:06:02Z</time>
      </trkpt>
      <trkpt lat="40.036383" lon="-4.971217">
        <ele>1774.0</ele>
        <time>2013-07-06T14:06:03Z</time>
      </trkpt>
      <trkpt lat="40.036317" lon="-4.971167">
        <ele>1776.0</ele>
        <time>2013-07-06T14:06:04Z</time>
      </trkpt>
      <trkpt lat="40.036250" lon="-4.971150">
        <ele>1778.0</ele>
        <time>2013-07-06T14:06:05Z</time>
      </trkpt>
      <trkpt lat="40.036200" lon="-4.971133">
        <ele>1779.0</ele>
        <time>2013-07-06T14:06:06Z</time>
      </trkpt>
      <trkpt lat="40.036133" lon="-4.971117">
        <ele>1780.0</ele>
        <time>2013-07-06T14:06:07Z</time>
      </trkpt>
      <trkpt lat="40.036050" lon="-4.971117">
        <ele>1780.0</ele>
        <time>2013-07-06T14:06:08Z</time>
      </trkpt>
      <trkpt lat="40.035950" lon="-4.971133">
        <ele>1779.0</ele>
        <time>2013-07-06T14:06:09Z</time>
      </trkpt>
      <trkpt lat="40.035850" lon="-4.971150">
        <ele>1777.0</ele>
        <time>2013-07-06T14:06:10Z</time>
      </trkpt>
      <trkpt lat="40.035767" lon="-4.971183">
        <ele>1776.0</ele>
        <time>2013-07-06T14:06:11Z</time>
      </trkpt>
      <trkpt lat="40.035667" lon="-4.971233">
        <ele>1777.0</ele>
        <time>2013-07-06T14:06:12Z</time>
      </trkpt>
      <trkpt lat="40.035583" lon="-4.971267">
        <ele>1777.0</ele>
        <time>2013-07-06T14:06:13Z</time>
      </trkpt>
      <trkpt lat="40.035517" lon="-4.971317">
        <ele>1777.0</ele>
        <time>2013-07-06T14:06:14Z</time>
      </trkpt>
      <trkpt lat="40.035433" lon="-4.971350">
        <ele>1776.0</ele>
        <time>2013-07-06T14:06:15Z</time>
      </trkpt>
      <trkpt lat="40.035333" lon="-4.971400">
        <ele>1776.0</ele>
        <time>2013-07-06T14:06:16Z</time>
      </trkpt>
      <trkpt lat="40.035233" lon="-4.971433">
        <ele>1774.0</ele>
        <time>2013-07-06T14:06:17Z</time>
      </trkpt>
      <trkpt lat="40.035133" lon="-4.971467">
        <ele>1773.0</ele>
        <time>2013-07-06T14:06:18Z</time>
      </trkpt>
      <trkpt lat="40.035017" lon="-4.971467">
        <ele>1772.0</ele>
        <time>2013-07-06T14:06:19Z</time>
      </trkpt>
      <trkpt lat="40.034917" lon="-4.971483">
        <ele>1772.0</ele>
        <time>2013-07-06T14:06:20Z</time>
      </trkpt>
      <trkpt lat="40.034833" lon="-4.971500">
        <ele>1771.0</ele>
        <time>2013-07-06T14:06:21Z</time>
      </trkpt>
      <trkpt lat="40.034733" lon="-4.971517">
        <ele>1771.0</ele>
        <time>2013-07-06T14:06:22Z</time>
      </trkpt>
      <trkpt lat="40.034633" lon="-4.971533">
        <ele>1770.0</ele>
        <time>2013-07-06T14:06:23Z</time>
      </trkpt>
      <trkpt lat="40.034533" lon="-4.971533">
        <ele>1769.0</ele>
        <time>2013-07-06T14:06:24Z</time>
      </trkpt>
      <trkpt lat="40.034450" lon="-4.971550">
        <ele>1768.0</ele>
        <time>2013-07-06T14:06:25Z</time>
      </trkpt>
      <trkpt lat="40.034350" lon="-4.971550">
        <ele>1766.0</ele>
        <time>2013-07-06T14:06:26Z</time>
      </trkpt>
      <trkpt lat="40.034250" lon="-4.971550">
        <ele>1765.0</ele>
        <time>2013-07-06T14:06:27Z</time>
      </trkpt>
      <trkpt lat="40.034150" lon="-4.971550">
        <ele>1763.0</ele>
        <time>2013-07-06T14:06:28Z</time>
      </trkpt>
      <trkpt lat="40.034050" lon="-4.971550">
        <ele>1761.0</ele>
        <time>2013-07-06T14:06:29Z</time>
      </trkpt>
      <trkpt lat="40.033950" lon="-4.971533">
        <ele>1759.0</ele>
        <time>2013-07-06T14:06:30Z</time>
      </trkpt>
      <trkpt lat="40.033850" lon="-4.971517">
        <ele>1758.0</ele>
        <time>2013-07-06T14:06:31Z</time>
      </trkpt>
      <trkpt lat="40.033767" lon="-4.971500">
        <ele>1757.0</ele>
        <time>2013-07-06T14:06:32Z</time>
      </trkpt>
      <trkpt lat="40.033683" lon="-4.971467">
        <ele>1756.0</ele>
        <time>2013-07-06T14:06:33Z</time>
      </trkpt>
      <trkpt lat="40.033600" lon="-4.971433">
        <ele>1756.0</ele>
        <time>2013-07-06T14:06:34Z</time>
      </trkpt>
      <trkpt lat="40.033533" lon="-4.971417">
        <ele>1756.0</ele>
        <time>2013-07-06T14:06:35Z</time>
      </trkpt>
      <trkpt lat="40.033450" lon="-4.971383">
        <ele>1755.0</ele>
        <time>2013-07-06T14:06:36Z</time>
      </trkpt>
      <trkpt lat="40.033383" lon="-4.971350">
        <ele>1754.0</ele>
        <time>2013-07-06T14:06:37Z</time>
      </trkpt>
      <trkpt lat="40.033300" lon="-4.971333">
        <ele>1752.0</ele>
        <time>2013-07-06T14:06:38Z</time>
      </trkpt>
      <trkpt lat="40.033217" lon="-4.971300">
        <ele>1749.0</ele>
        <time>2013-07-06T14:06:39Z</time>
      </trkpt>
      <trkpt lat="40.033117" lon="-4.971300">
        <ele>1748.0</ele>
        <time>2013-07-06T14:06:40Z</time>
      </trkpt>
      <trkpt lat="40.033050" lon="-4.971283">
        <ele>1746.0</ele>
        <time>2013-07-06T14:06:41Z</time>
      </trkpt>
      <trkpt lat="40.032967" lon="-4.971283">
        <ele>1744.0</ele>
        <time>2013-07-06T14:06:42Z</time>
      </trkpt>
      <trkpt lat="40.032883" lon="-4.971267">
        <ele>1743.0</ele>
        <time>2013-07-06T14:06:43Z</time>
      </trkpt>
      <trkpt lat="40.032817" lon="-4.971250">
        <ele>1741.0</ele>
        <time>2013-07-06T14:06:44Z</time>
      </trkpt>
      <trkpt lat="40.032717" lon="-4.971233">
        <ele>1738.0</ele>
        <time>2013-07-06T14:06:45Z</time>
      </trkpt>
      <trkpt lat="40.032633" lon="-4.971217">
        <ele>1735.0</ele>
        <time>2013-07-06T14:06:46Z</time>
      </trkpt>
      <trkpt lat="40.032550" lon="-4.971200">
        <ele>1733.0</ele>
        <time>2013-07-06T14:06:47Z</time>
      </trkpt>
      <trkpt lat="40.032467" lon="-4.971183">
        <ele>1731.0</ele>
        <time>2013-07-06T14:06:48Z</time>
      </trkpt>
      <trkpt lat="40.032383" lon="-4.971167">
        <ele>1730.0</ele>
        <time>2013-07-06T14:06:49Z</time>
      </trkpt>
      <trkpt lat="40.032300" lon="-4.971167">
        <ele>1729.0</ele>
        <time>2013-07-06T14:06:50Z</time>
      </trkpt>
      <trkpt lat="40.032233" lon="-4.971167">
        <ele>1728.0</ele>
        <time>2013-07-06T14:06:51Z</time>
      </trkpt>
      <trkpt lat="40.032167" lon="-4.971150">
        <ele>1726.0</ele>
        <time>2013-07-06T14:06:52Z</time>
      </trkpt>
      <trkpt lat="40.032083" lon="-4.971133">
        <ele>1724.0</ele>
        <time>2013-07-06T14:06:53Z</time>
      </trkpt>
      <trkpt lat="40.032000" lon="-4.971133">
        <ele>1721.0</ele>
        <time>2013-07-06T14:06:54Z</time>
      </trkpt>
      <trkpt lat="40.031900" lon="-4.971133">
        <ele>1719.0</ele>
        <time>2013-07-06T14:06:55Z</time>
      </trkpt>
      <trkpt lat="40.031817" lon="-4.971133">
        <ele>1717.0</ele>
        <time>2013-07-06T14:06:56Z</time>
      </trkpt>
      <trkpt lat="40.031733" lon="-4.971133">
        <ele>1714.0</ele>
        <time>2013-07-06T14:06:57Z</time>
      </trkpt>
      <trkpt lat="40.031667" lon="-4.971117">
        <ele>1712.0</ele>
        <time>2013-07-06T14:06:58Z</time>
      </trkpt>
      <trkpt lat="40.031583" lon="-4.971117">
        <ele>1709.0</ele>
        <time>2013-07-06T14:06:59Z</time>
      </trkpt>
      <trkpt lat="40.031500" lon="-4.971100">
        <ele>1706.0</ele>
        <time>2013-07-06T14:07:00Z</time>
      </trkpt>
      <trkpt lat="40.031417" lon="-4.971100">
        <ele>1703.0</ele>
        <time>2013-07-06T14:07:01Z</time>
      </trkpt>
      <trkpt lat="40.031333" lon="-4.971083">
        <ele>1700.0</ele>
        <time>2013-07-06T14:07:02Z</time>
      </trkpt>
      <trkpt lat="40.031250" lon="-4.971067">
        <ele>1697.0</ele>
        <time>2013-07-06T14:07:03Z</time>
      </trkpt>
      <trkpt lat="40.031150" lon="-4.971050">
        <ele>1694.0</ele>
        <time>2013-07-06T14:07:04Z</time>
      </trkpt>
      <trkpt lat="40.031067" lon="-4.971033">
        <ele>1692.0</ele>
        <time>2013-07-06T14:07:05Z</time>
      </trkpt>
      <trkpt lat="40.030983" lon="-4.971033">
        <ele>1689.0</ele>
        <time>2013-07-06T14:07:06Z</time>
      </trkpt>
      <trkpt lat="40.030900" lon="-4.971017">
        <ele>1687.0</ele>
        <time>2013-07-06T14:07:07Z</time>
      </trkpt>
      <trkpt lat="40.030817" lon="-4.971000">
        <ele>1685.0</ele>
        <time>2013-07-06T14:07:08Z</time>
      </trkpt>
      <trkpt lat="40.030733" lon="-4.970983">
        <ele>1683.0</ele>
        <time>2013-07-06T14:07:09Z</time>
      </trkpt>
      <trkpt lat="40.030667" lon="-4.970967">
        <ele>1681.0</ele>
        <time>2013-07-06T14:07:10Z</time>
      </trkpt>
      <trkpt lat="40.030583" lon="-4.970950">
        <ele>1679.0</ele>
        <time>2013-07-06T14:07:11Z</time>
      </trkpt>
      <trkpt lat="40.030483" lon="-4.970933">
        <ele>1676.0</ele>
        <time>2013-07-06T14:07:12Z</time>
      </trkpt>
      <trkpt lat="40.030400" lon="-4.970900">
        <ele>1673.0</ele>
        <time>2013-07-06T14:07:13Z</time>
      </trkpt>
      <trkpt lat="40.030317" lon="-4.970883">
        <ele>1670.0</ele>
        <time>2013-07-06T14:07:14Z</time>
      </trkpt>
      <trkpt lat="40.030250" lon="-4.970850">
        <ele>1668.0</ele>
        <time>2013-07-06T14:07:15Z</time>
      </trkpt>
      <trkpt lat="40.030183" lon="-4.970817">
        <ele>1666.0</ele>
        <time>2013-07-06T14:07:16Z</time>
      </trkpt>
      <trkpt lat="40.030100" lon="-4.970783">
        <ele>1663.0</ele>
        <time>2013-07-06T14:07:17Z</time>
      </trkpt>
      <trkpt lat="40.030017" lon="-4.970750">
        <ele>1660.0</ele>
        <time>2013-07-06T14:07:18Z</time>
      </trkpt>
      <trkpt lat="40.029933" lon="-4.970717">
        <ele>1657.0</ele>
        <time>2013-07-06T14:07:19Z</time>
      </trkpt>
      <trkpt lat="40.029850" lon="-4.970700">
        <ele>1656.0</ele>
        <time>2013-07-06T14:07:20Z</time>
      </trkpt>
      <trkpt lat="40.029783" lon="-4.970667">
        <ele>1655.0</ele>
        <time>2013-07-06T14:07:21Z</time>
      </trkpt>
      <trkpt lat="40.029717" lon="-4.970650">
        <ele>1654.0</ele>
        <time>2013-07-06T14:07:22Z</time>
      </trkpt>
      <trkpt lat="40.029633" lon="-4.970617">
        <ele>1652.0</ele>
        <time>2013-07-06T14:07:23Z</time>
      </trkpt>
      <trkpt lat="40.029550" lon="-4.970600">
        <ele>1650.0</ele>
        <time>2013-07-06T14:07:24Z</time>
      </trkpt>
      <trkpt lat="40.029467" lon="-4.970583">
        <ele>1647.0</ele>
        <time>2013-07-06T14:07:25Z</time>
      </trkpt>
      <trkpt lat="40.029383" lon="-4.970550">
        <ele>1644.0</ele>
        <time>2013-07-06T14:07:26Z</time>
      </trkpt>
      <trkpt lat="40.029300" lon="-4.970533">
        <ele>1642.0</ele>
        <time>2013-07-06T14:07:27Z</time>
      </trkpt>
      <trkpt lat="40.029217" lon="-4.970500">
        <ele>1639.0</ele>
        <time>2013-07-06T14:07:28Z</time>
      </trkpt>
      <trkpt lat="40.029133" lon="-4.970483">
        <ele>1637.0</ele>
        <time>2013-07-06T14:07:29Z</time>
      </trkpt>
      <trkpt lat="40.029050" lon="-4.970467">
        <ele>1635.0</ele>
        <time>2013-07-06T14:07:30Z</time>
      </trkpt>
      <trkpt lat="40.028983" lon="-4.970450">
        <ele>1633.0</ele>
        <time>2013-07-06T14:07:31Z</time>
      </trkpt>
      <trkpt lat="40.028900" lon="-4.970433">
        <ele>1630.0</ele>
        <time>2013-07-06T14:07:32Z</time>
      </trkpt>
      <trkpt lat="40.028817" lon="-4.970433">
        <ele>1627.0</ele>
        <time>2013-07-06T14:07:33Z</time>
      </trkpt>
      <trkpt lat="40.028717" lon="-4.970433">
        <ele>1623.0</ele>
        <time>2013-07-06T14:07:34Z</time>
      </trkpt>
      <trkpt lat="40.028617" lon="-4.970417">
        <ele>1621.0</ele>
        <time>2013-07-06T14:07:35Z</time>
      </trkpt>
      <trkpt lat="40.028533" lon="-4.970417">
        <ele>1619.0</ele>
        <time>2013-07-06T14:07:36Z</time>
      </trkpt>
      <trkpt lat="40.028450" lon="-4.970433">
        <ele>1617.0</ele>
        <time>2013-07-06T14:07:37Z</time>
      </trkpt>
      <trkpt lat="40.028367" lon="-4.970433">
        <ele>1615.0</ele>
        <time>2013-07-06T14:07:38Z</time>
      </trkpt>
      <trkpt lat="40.028283" lon="-4.970433">
        <ele>1613.0</ele>
        <time>2013-07-06T14:07:39Z</time>
      </trkpt>
      <trkpt lat="40.028200" lon="-4.970433">
        <ele>1611.0</ele>
        <time>2013-07-06T14:07:40Z</time>
      </trkpt>
      <trkpt lat="40.028100" lon="-4.970433">
        <ele>1609.0</ele>
        <time>2013-07-06T14:07:41Z</time>
      </trkpt>
      <trkpt lat="40.028017" lon="-4.970433">
        <ele>1607.0</ele>
        <time>2013-07-06T14:07:42Z</time>
      </trkpt>
      <trkpt lat="40.027933" lon="-4.970450">
        <ele>1607.0</ele>
        <time>2013-07-06T14:07:43Z</time>
      </trkpt>
      <trkpt lat="40.027867" lon="-4.970467">
        <ele>1606.0</ele>
        <time>2013-07-06T14:07:44Z</time>
      </trkpt>
      <trkpt lat="40.027800" lon="-4.970483">
        <ele>1605.0</ele>
        <time>2013-07-06T14:07:45Z</time>
      </trkpt>
      <trkpt lat="40.027717" lon="-4.970500">
        <ele>1604.0</ele>
        <time>2013-07-06T14:07:46Z</time>
      </trkpt>
      <trkpt lat="40.027633" lon="-4.970517">
        <ele>1603.0</ele>
        <time>2013-07-06T14:07:47Z</time>
      </trkpt>
      <trkpt lat="40.027567" lon="-4.970517">
        <ele>1602.0</ele>
        <time>2013-07-06T14:07:48Z</time>
      </trkpt>
      <trkpt lat="40.027500" lon="-4.970533">
        <ele>1601.0</ele>
        <time>2013-07-06T14:07:49Z</time>
      </trkpt>
      <trkpt lat="40.027433" lon="-4.970550">
        <ele>1601.0</ele>
        <time>2013-07-06T14:07:50Z</time>
      </trkpt>
      <trkpt lat="40.027367" lon="-4.970567">
        <ele>1602.0</ele>
        <time>2013-07-06T14:07:51Z</time>
      </trkpt>
      <trkpt lat="40.027283" lon="-4.970567">
        <ele>1602.0</ele>
        <time>2013-07-06T14:07:52Z</time>
      </trkpt>
      <trkpt lat="40.027200" lon="-4.970583">
        <ele>1601.0</ele>
        <time>2013-07-06T14:07:53Z</time>
      </trkpt>
      <trkpt lat="40.027133" lon="-4.970583">
        <ele>1601.0</ele>
        <time>2013-07-06T14:07:54Z</time>
      </trkpt>
      <trkpt lat="40.027050" lon="-4.970583">
        <ele>1600.0</ele>
        <time>2013-07-06T14:07:55Z</time>
      </trkpt>
      <trkpt lat="40.026983" lon="-4.970583">
        <ele>1600.0</ele>
        <time>2013-07-06T14:07:56Z</time>
      </trkpt>
      <trkpt lat="40.026917" lon="-4.970567">
        <ele>1598.0</ele>
        <time>2013-07-06T14:07:57Z</time>
      </trkpt>
      <trkpt lat="40.026850" lon="-4.970550">
        <ele>1597.0</ele>
        <time>2013-07-06T14:07:58Z</time>
      </trkpt>
      <trkpt lat="40.026767" lon="-4.970533">
        <ele>1596.0</ele>
        <time>2013-07-06T14:07:59Z</time>
      </trkpt>
      <trkpt lat="40.026683" lon="-4.970517">
        <ele>1595.0</ele>
        <time>2013-07-06T14:08:00Z</time>
      </trkpt>
      <trkpt lat="40.026617" lon="-4.970533">
        <ele>1595.0</ele>
        <time>2013-07-06T14:08:01Z</time>
      </trkpt>
      <trkpt lat="40.026550" lon="-4.970533">
        <ele>1596.0</ele>
        <time>2013-07-06T14:08:02Z</time>
      </trkpt>
      <trkpt lat="40.026500" lon="-4.970533">
        <ele>1597.0</ele>
        <time>2013-07-06T14:08:03Z</time>
      </trkpt>
      <trkpt lat="40.026433" lon="-4.970550">
        <ele>1597.0</ele>
        <time>2013-07-06T14:08:04Z</time>
      </trkpt>
      <trkpt lat="40.026367" lon="-4.970533">
        <ele>1596.0</ele>
        <time>2013-07-06T14:08:05Z</time>
      </trkpt>
      <trkpt lat="40.026300" lon="-4.970533">
        <ele>1596.0</ele>
        <time>2013-07-06T14:08:06Z</time>
      </trkpt>
      <trkpt lat="40.026233" lon="-4.970533">
        <ele>1596.0</ele>
        <time>2013-07-06T14:08:07Z</time>
      </trkpt>
      <trkpt lat="40.026183" lon="-4.970533">
        <ele>1597.0</ele>
        <time>2013-07-06T14:08:08Z</time>
      </trkpt>
      <trkpt lat="40.026133" lon="-4.970550">
        <ele>1598.0</ele>
        <time>2013-07-06T14:08:09Z</time>
      </trkpt>
      <trkpt lat="40.026083" lon="-4.970550">
        <ele>1599.0</ele>
        <time>2013-07-06T14:08:10Z</time>
      </trkpt>
      <trkpt lat="40.026017" lon="-4.970550">
        <ele>1598.0</ele>
        <time>2013-07-06T14:08:11Z</time>
      </trkpt>
      <trkpt lat="40.025950" lon="-4.970550">
        <ele>1598.0</ele>
        <time>2013-07-06T14:08:12Z</time>
      </trkpt>
      <trkpt lat="40.025883" lon="-4.970550">
        <ele>1598.0</ele>
        <time>2013-07-06T14:08:13Z</time>
      </trkpt>
      <trkpt lat="40.025833" lon="-4.970567">
        <ele>1599.0</ele>
        <time>2013-07-06T14:08:14Z</time>
      </trkpt>
      <trkpt lat="40.025783" lon="-4.970583">
        <ele>1601.0</ele>
        <time>2013-07-06T14:08:15Z</time>
      </trkpt>
      <trkpt lat="40.025733" lon="-4.970600">
        <ele>1601.0</ele>
        <time>2013-07-06T14:08:16Z</time>
      </trkpt>
      <trkpt lat="40.025683" lon="-4.970617">
        <ele>1601.0</ele>
        <time>2013-07-06T14:08:17Z</time>
      </trkpt>
      <trkpt lat="40.025617" lon="-4.970617">
        <ele>1601.0</ele>
        <time>2013-07-06T14:08:18Z</time>
      </trkpt>
      <trkpt lat="40.025533" lon="-4.970633">
        <ele>1600.0</ele>
        <time>2013-07-06T14:08:19Z</time>
      </trkpt>
      <trkpt lat="40.025450" lon="-4.970667">
        <ele>1599.0</ele>
        <time>2013-07-06T14:08:20Z</time>
      </trkpt>
      <trkpt lat="40.025383" lon="-4.970700">
        <ele>1597.0</ele>
        <time>2013-07-06T14:08:21Z</time>
      </trkpt>
      <trkpt lat="40.025300" lon="-4.970717">
        <ele>1596.0</ele>
        <time>2013-07-06T14:08:22Z</time>
      </trkpt>
      <trkpt lat="40.025233" lon="-4.970717">
        <ele>1595.0</ele>
        <time>2013-07-06T14:08:23Z</time>
      </trkpt>
      <trkpt lat="40.025150" lon="-4.970733">
        <ele>1594.0</ele>
        <time>2013-07-06T14:08:24Z</time>
      </trkpt>
      <trkpt lat="40.025067" lon="-4.970750">
        <ele>1593.0</ele>
        <time>2013-07-06T14:08:25Z</time>
      </trkpt>
      <trkpt lat="40.024983" lon="-4.970767">
        <ele>1592.0</ele>
        <time>2013-07-06T14:08:26Z</time>
      </trkpt>
      <trkpt lat="40.024900" lon="-4.970783">
        <ele>1592.0</ele>
        <time>2013-07-06T14:08:27Z</time>
      </trkpt>
      <trkpt lat="40.024833" lon="-4.970800">
        <ele>1592.0</ele>
        <time>2013-07-06T14:08:28Z</time>
      </trkpt>
      <trkpt lat="40.024767" lon="-4.970833">
        <ele>1592.0</ele>
        <time>2013-07-06T14:08:29Z</time>
      </trkpt>
      <trkpt lat="40.024683" lon="-4.970850">
        <ele>1591.0</ele>
        <time>2013-07-06T14:08:30Z</time>
      </trkpt>
      <trkpt lat="40.024600" lon="-4.970883">
        <ele>1590.0</ele>
        <time>2013-07-06T14:08:31Z</time>
      </trkpt>
      <trkpt lat="40.024533" lon="-4.970900">
        <ele>1588.0</ele>
        <time>2013-07-06T14:08:32Z</time>
      </trkpt>
      <trkpt lat="40.024467" lon="-4.970917">
        <ele>1587.0</ele>
        <time>2013-07-06T14:08:33Z</time>
      </trkpt>
      <trkpt lat="40.024400" lon="-4.970917">
        <ele>1585.0</ele>
        <time>2013-07-06T14:08:34Z</time>
      </trkpt>
      <trkpt lat="40.024333" lon="-4.970933">
        <ele>1583.0</ele>
        <time>2013-07-06T14:08:35Z</time>
      </trkpt>
      <trkpt lat="40.024267" lon="-4.970950">
        <ele>1581.0</ele>
        <time>2013-07-06T14:08:36Z</time>
      </trkpt>
      <trkpt lat="40.024183" lon="-4.970983">
        <ele>1579.0</ele>
        <time>2013-07-06T14:08:37Z</time>
      </trkpt>
      <trkpt lat="40.024100" lon="-4.971000">
        <ele>1576.0</ele>
        <time>2013-07-06T14:08:38Z</time>
      </trkpt>
      <trkpt lat="40.024017" lon="-4.971017">
        <ele>1574.0</ele>
        <time>2013-07-06T14:08:39Z</time>
      </trkpt>
      <trkpt lat="40.023950" lon="-4.971033">
        <ele>1572.0</ele>
        <time>2013-07-06T14:08:40Z</time>
      </trkpt>
      <trkpt lat="40.023867" lon="-4.971050">
        <ele>1571.0</ele>
        <time>2013-07-06T14:08:41Z</time>
      </trkpt>
      <trkpt lat="40.023800" lon="-4.971083">
        <ele>1570.0</ele>
        <time>2013-07-06T14:08:42Z</time>
      </trkpt>
      <trkpt lat="40.023717" lon="-4.971117">
        <ele>1568.0</ele>
        <time>2013-07-06T14:08:43Z</time>
      </trkpt>
      <trkpt lat="40.023650" lon="-4.971167">
        <ele>1566.0</ele>
        <time>2013-07-06T14:08:44Z</time>
      </trkpt>
      <trkpt lat="40.023567" lon="-4.971217">
        <ele>1564.0</ele>
        <time>2013-07-06T14:08:45Z</time>
      </trkpt>
      <trkpt lat="40.023483" lon="-4.971267">
        <ele>1562.0</ele>
        <time>2013-07-06T14:08:46Z</time>
      </trkpt>
      <trkpt lat="40.023333" lon="-4.971383">
        <ele>1557.0</ele>
        <time>2013-07-06T14:08:48Z</time>
      </trkpt>
      <trkpt lat="40.023250" lon="-4.971450">
        <ele>1555.0</ele>
        <time>2013-07-06T14:08:49Z</time>
      </trkpt>
      <trkpt lat="40.023183" lon="-4.971533">
        <ele>1553.0</ele>
        <time>2013-07-06T14:08:50Z</time>
      </trkpt>
      <trkpt lat="40.023083" lon="-4.971600">
        <ele>1550.0</ele>
        <time>2013-07-06T14:08:51Z</time>
      </trkpt>
      <trkpt lat="40.023000" lon="-4.971667">
        <ele>1547.0</ele>
        <time>2013-07-06T14:08:52Z</time>
      </trkpt>
      <trkpt lat="40.022900" lon="-4.971733">
        <ele>1544.0</ele>
        <time>2013-07-06T14:08:53Z</time>
      </trkpt>
      <trkpt lat="40.022800" lon="-4.971800">
        <ele>1542.0</ele>
        <time>2013-07-06T14:08:54Z</time>
      </trkpt>
      <trkpt lat="40.022700" lon="-4.971867">
        <ele>1541.0</ele>
        <time>2013-07-06T14:08:55Z</time>
      </trkpt>
      <trkpt lat="40.022617" lon="-4.971917">
        <ele>1540.0</ele>
        <time>2013-07-06T14:08:56Z</time>
      </trkpt>
      <trkpt lat="40.022533" lon="-4.971967">
        <ele>1539.0</ele>
        <time>2013-07-06T14:08:57Z</time>
      </trkpt>
      <trkpt lat="40.022433" lon="-4.972017">
        <ele>1538.0</ele>
        <time>2013-07-06T14:08:58Z</time>
      </trkpt>
      <trkpt lat="40.022333" lon="-4.972050">
        <ele>1536.0</ele>
        <time>2013-07-06T14:08:59Z</time>
      </trkpt>
      <trkpt lat="40.022233" lon="-4.972100">
        <ele>1534.0</ele>
        <time>2013-07-06T14:09:00Z</time>
      </trkpt>
      <trkpt lat="40.022133" lon="-4.972133">
        <ele>1533.0</ele>
        <time>2013-07-06T14:09:01Z</time>
      </trkpt>
      <trkpt lat="40.022050" lon="-4.972200">
        <ele>1536.0</ele>
        <time>2013-07-06T14:09:02Z</time>
      </trkpt>
      <trkpt lat="40.021983" lon="-4.972250">
        <ele>1537.0</ele>
        <time>2013-07-06T14:09:03Z</time>
      </trkpt>
      <trkpt lat="40.021917" lon="-4.972300">
        <ele>1538.0</ele>
        <time>2013-07-06T14:09:04Z</time>
      </trkpt>
      <trkpt lat="40.021817" lon="-4.972350">
        <ele>1539.0</ele>
        <time>2013-07-06T14:09:05Z</time>
      </trkpt>
      <trkpt lat="40.021733" lon="-4.972383">
        <ele>1539.0</ele>
        <time>2013-07-06T14:09:06Z</time>
      </trkpt>
      <trkpt lat="40.021633" lon="-4.972433">
        <ele>1538.0</ele>
        <time>2013-07-06T14:09:07Z</time>
      </trkpt>
      <trkpt lat="40.021533" lon="-4.972483">
        <ele>1537.0</ele>
        <time>2013-07-06T14:09:08Z</time>
      </trkpt>
      <trkpt lat="40.021433" lon="-4.972533">
        <ele>1537.0</ele>
        <time>2013-07-06T14:09:09Z</time>
      </trkpt>
      <trkpt lat="40.021250" lon="-4.972617">
        <ele>1536.0</ele>
        <time>2013-07-06T14:09:11Z</time>
      </trkpt>
      <trkpt lat="40.021150" lon="-4.972650">
        <ele>1535.0</ele>
        <time>2013-07-06T14:09:12Z</time>
      </trkpt>
      <trkpt lat="40.021067" lon="-4.972700">
        <ele>1535.0</ele>
        <time>2013-07-06T14:09:13Z</time>
      </trkpt>
      <trkpt lat="40.020967" lon="-4.972750">
        <ele>1534.0</ele>
        <time>2013-07-06T14:09:14Z</time>
      </trkpt>
      <trkpt lat="40.020883" lon="-4.972800">
        <ele>1534.0</ele>
        <time>2013-07-06T14:09:15Z</time>
      </trkpt>
      <trkpt lat="40.020800" lon="-4.972850">
        <ele>1533.0</ele>
        <time>2013-07-06T14:09:16Z</time>
      </trkpt>
      <trkpt lat="40.020717" lon="-4.972917">
        <ele>1533.0</ele>
        <time>2013-07-06T14:09:17Z</time>
      </trkpt>
      <trkpt lat="40.020633" lon="-4.972983">
        <ele>1531.0</ele>
        <time>2013-07-06T14:09:18Z</time>
      </trkpt>
      <trkpt lat="40.020567" lon="-4.973017">
        <ele>1530.0</ele>
        <time>2013-07-06T14:09:19Z</time>
      </trkpt>
      <trkpt lat="40.020483" lon="-4.973050">
        <ele>1529.0</ele>
        <time>2013-07-06T14:09:20Z</time>
      </trkpt>
      <trkpt lat="40.020400" lon="-4.973083">
        <ele>1528.0</ele>
        <time>2013-07-06T14:09:21Z</time>
      </trkpt>
      <trkpt lat="40.020217" lon="-4.973133">
        <ele>1523.0</ele>
        <time>2013-07-06T14:09:23Z</time>
      </trkpt>
      <trkpt lat="40.020117" lon="-4.973167">
        <ele>1521.0</ele>
        <time>2013-07-06T14:09:24Z</time>
      </trkpt>
      <trkpt lat="40.020033" lon="-4.973200">
        <ele>1519.0</ele>
        <time>2013-07-06T14:09:25Z</time>
      </trkpt>
      <trkpt lat="40.019950" lon="-4.973217">
        <ele>1519.0</ele>
        <time>2013-07-06T14:09:26Z</time>
      </trkpt>
      <trkpt lat="40.019883" lon="-4.973250">
        <ele>1518.0</ele>
        <time>2013-07-06T14:09:27Z</time>
      </trkpt>
      <trkpt lat="40.019817" lon="-4.973250">
        <ele>1517.0</ele>
        <time>2013-07-06T14:09:28Z</time>
      </trkpt>
      <trkpt lat="40.019733" lon="-4.973267">
        <ele>1516.0</ele>
        <time>2013-07-06T14:09:29Z</time>
      </trkpt>
      <trkpt lat="40.019633" lon="-4.973283">
        <ele>1513.0</ele>
        <time>2013-07-06T14:09:30Z</time>
      </trkpt>
      <trkpt lat="40.019550" lon="-4.973283">
        <ele>1512.0</ele>
        <time>2013-07-06T14:09:31Z</time>
      </trkpt>
      <trkpt lat="40.019467" lon="-4.973283">
        <ele>1512.0</ele>
        <time>2013-07-06T14:09:32Z</time>
      </trkpt>
      <trkpt lat="40.019383" lon="-4.973300">
        <ele>1512.0</ele>
        <time>2013-07-06T14:09:33Z</time>
      </trkpt>
      <trkpt lat="40.019233" lon="-4.973317">
        <ele>1512.0</ele>
        <time>2013-07-06T14:09:35Z</time>
      </trkpt>
      <trkpt lat="40.019150" lon="-4.973333">
        <ele>1511.0</ele>
        <time>2013-07-06T14:09:36Z</time>
      </trkpt>
      <trkpt lat="40.019067" lon="-4.973333">
        <ele>1511.0</ele>
        <time>2013-07-06T14:09:37Z</time>
      </trkpt>
      <trkpt lat="40.018917" lon="-4.973367">
        <ele>1510.0</ele>
        <time>2013-07-06T14:09:39Z</time>
      </trkpt>
      <trkpt lat="40.018833" lon="-4.973383">
        <ele>1509.0</ele>
        <time>2013-07-06T14:09:40Z</time>
      </trkpt>
      <trkpt lat="40.018750" lon="-4.973400">
        <ele>1508.0</ele>
        <time>2013-07-06T14:09:41Z</time>
      </trkpt>
      <trkpt lat="40.018683" lon="-4.973417">
        <ele>1506.0</ele>
        <time>2013-07-06T14:09:42Z</time>
      </trkpt>
      <trkpt lat="40.018600" lon="-4.973433">
        <ele>1505.0</ele>
        <time>2013-07-06T14:09:43Z</time>
      </trkpt>
      <trkpt lat="40.018517" lon="-4.973450">
        <ele>1503.0</ele>
        <time>2013-07-06T14:09:44Z</time>
      </trkpt>
      <trkpt lat="40.018433" lon="-4.973467">
        <ele>1500.0</ele>
        <time>2013-07-06T14:09:45Z</time>
      </trkpt>
      <trkpt lat="40.018350" lon="-4.973517">
        <ele>1498.0</ele>
        <time>2013-07-06T14:09:46Z</time>
      </trkpt>
      <trkpt lat="40.018250" lon="-4.973567">
        <ele>1495.0</ele>
        <time>2013-07-06T14:09:47Z</time>
      </trkpt>
      <trkpt lat="40.018050" lon="-4.973817">
        <ele>1490.0</ele>
        <time>2013-07-06T14:09:50Z</time>
      </trkpt>
      <trkpt lat="40.017850" lon="-4.974133">
        <ele>1482.0</ele>
        <time>2013-07-06T14:09:53Z</time>
      </trkpt>
      <trkpt lat="40.017783" lon="-4.974250">
        <ele>1480.0</ele>
        <time>2013-07-06T14:09:54Z</time>
      </trkpt>
      <trkpt lat="40.017717" lon="-4.974383">
        <ele>1477.0</ele>
        <time>2013-07-06T14:09:55Z</time>
      </trkpt>
      <trkpt lat="40.017667" lon="-4.974517">
        <ele>1475.0</ele>
        <time>2013-07-06T14:09:56Z</time>
      </trkpt>
      <trkpt lat="40.017483" lon="-4.974983">
        <ele>1467.0</ele>
        <time>2013-07-06T14:09:59Z</time>
      </trkpt>
      <trkpt lat="40.017417" lon="-4.975150">
        <ele>1465.0</ele>
        <time>2013-07-06T14:10:00Z</time>
      </trkpt>
      <trkpt lat="40.017367" lon="-4.975317">
        <ele>1464.0</ele>
        <time>2013-07-06T14:10:01Z</time>
      </trkpt>
      <trkpt lat="40.017333" lon="-4.975467">
        <ele>1463.0</ele>
        <time>2013-07-06T14:10:02Z</time>
      </trkpt>
      <trkpt lat="40.017283" lon="-4.975617">
        <ele>1463.0</ele>
        <time>2013-07-06T14:10:03Z</time>
      </trkpt>
      <trkpt lat="40.017233" lon="-4.975767">
        <ele>1462.0</ele>
        <time>2013-07-06T14:10:04Z</time>
      </trkpt>
      <trkpt lat="40.017200" lon="-4.975933">
        <ele>1462.0</ele>
        <time>2013-07-06T14:10:05Z</time>
      </trkpt>
      <trkpt lat="40.017167" lon="-4.976100">
        <ele>1462.0</ele>
        <time>2013-07-06T14:10:06Z</time>
      </trkpt>
      <trkpt lat="40.017133" lon="-4.976233">
        <ele>1462.0</ele>
        <time>2013-07-06T14:10:07Z</time>
      </trkpt>
      <trkpt lat="40.017100" lon="-4.976383">
        <ele>1465.0</ele>
        <time>2013-07-06T14:10:08Z</time>
      </trkpt>
      <trkpt lat="40.017067" lon="-4.976517">
        <ele>1467.0</ele>
        <time>2013-07-06T14:10:09Z</time>
      </trkpt>
      <trkpt lat="40.017033" lon="-4.976667">
        <ele>1469.0</ele>
        <time>2013-07-06T14:10:10Z</time>
      </trkpt>
      <trkpt lat="40.017000" lon="-4.976817">
        <ele>1470.0</ele>
        <time>2013-07-06T14:10:11Z</time>
      </trkpt>
      <trkpt lat="40.016933" lon="-4.977117">
        <ele>1472.0</ele>
        <time>2013-07-06T14:10:13Z</time>
      </trkpt>
      <trkpt lat="40.016883" lon="-4.977250">
        <ele>1473.0</ele>
        <time>2013-07-06T14:10:14Z</time>
      </trkpt>
      <trkpt lat="40.016850" lon="-4.977383">
        <ele>1474.0</ele>
        <time>2013-07-06T14:10:15Z</time>
      </trkpt>
      <trkpt lat="40.016833" lon="-4.977517">
        <ele>1475.0</ele>
        <time>2013-07-06T14:10:16Z</time>
      </trkpt>
      <trkpt lat="40.016833" lon="-4.977650">
        <ele>1476.0</ele>
        <time>2013-07-06T14:10:17Z</time>
      </trkpt>
      <trkpt lat="40.016850" lon="-4.977767">
        <ele>1477.0</ele>
        <time>2013-07-06T14:10:18Z</time>
      </trkpt>
      <trkpt lat="40.016883" lon="-4.977883">
        <ele>1478.0</ele>
        <time>2013-07-06T14:10:19Z</time>
      </trkpt>
      <trkpt lat="40.016917" lon="-4.978000">
        <ele>1479.0</ele>
        <time>2013-07-06T14:10:20Z</time>
      </trkpt>
      <trkpt lat="40.016950" lon="-4.978100">
        <ele>1481.0</ele>
        <time>2013-07-06T14:10:21Z</time>
      </trkpt>
      <trkpt lat="40.017033" lon="-4.978300">
        <ele>1483.0</ele>
        <time>2013-07-06T14:10:23Z</time>
      </trkpt>
      <trkpt lat="40.017100" lon="-4.978717">
        <ele>1485.0</ele>
        <time>2013-07-06T14:10:26Z</time>
      </trkpt>
      <trkpt lat="40.017067" lon="-4.979017">
        <ele>1486.0</ele>
        <time>2013-07-06T14:10:28Z</time>
      </trkpt>
      <trkpt lat="40.016900" lon="-4.979400">
        <ele>1488.0</ele>
        <time>2013-07-06T14:10:31Z</time>
      </trkpt>
      <trkpt lat="40.016833" lon="-4.979517">
        <ele>1488.0</ele>
        <time>2013-07-06T14:10:32Z</time>
      </trkpt>
      <trkpt lat="40.016600" lon="-4.979833">
        <ele>1486.0</ele>
        <time>2013-07-06T14:10:35Z</time>
      </trkpt>
      <trkpt lat="40.016517" lon="-4.979867">
        <ele>1485.0</ele>
        <time>2013-07-06T14:10:36Z</time>
      </trkpt>
      <trkpt lat="40.016417" lon="-4.979883">
        <ele>1485.0</ele>
        <time>2013-07-06T14:10:37Z</time>
      </trkpt>
      <trkpt lat="40.016317" lon="-4.979883">
        <ele>1484.0</ele>
        <time>2013-07-06T14:10:38Z</time>
      </trkpt>
      <trkpt lat="40.016250" lon="-4.979883">
        <ele>1484.0</ele>
        <time>2013-07-06T14:10:39Z</time>
      </trkpt>
      <trkpt lat="40.016183" lon="-4.979867">
        <ele>1485.0</ele>
        <time>2013-07-06T14:10:40Z</time>
      </trkpt>
      <trkpt lat="40.016117" lon="-4.979867">
        <ele>1487.0</ele>
        <time>2013-07-06T14:10:41Z</time>
      </trkpt>
      <trkpt lat="40.016050" lon="-4.979850">
        <ele>1487.0</ele>
        <time>2013-07-06T14:10:42Z</time>
      </trkpt>
      <trkpt lat="40.015983" lon="-4.979817">
        <ele>1487.0</ele>
        <time>2013-07-06T14:10:43Z</time>
      </trkpt>
      <trkpt lat="40.015900" lon="-4.979783">
        <ele>1487.0</ele>
        <time>2013-07-06T14:10:44Z</time>
      </trkpt>
      <trkpt lat="40.015833" lon="-4.979750">
        <ele>1488.0</ele>
        <time>2013-07-06T14:10:45Z</time>
      </trkpt>
      <trkpt lat="40.015783" lon="-4.979717">
        <ele>1488.0</ele>
        <time>2013-07-06T14:10:46Z</time>
      </trkpt>
      <trkpt lat="40.015733" lon="-4.979667">
        <ele>1489.0</ele>
        <time>2013-07-06T14:10:47Z</time>
      </trkpt>
      <trkpt lat="40.015667" lon="-4.979583">
        <ele>1490.0</ele>
        <time>2013-07-06T14:10:48Z</time>
      </trkpt>
      <trkpt lat="40.015617" lon="-4.979517">
        <ele>1491.0</ele>
        <time>2013-07-06T14:10:49Z</time>
      </trkpt>
      <trkpt lat="40.015567" lon="-4.979433">
        <ele>1493.0</ele>
        <time>2013-07-06T14:10:50Z</time>
      </trkpt>
      <trkpt lat="40.015517" lon="-4.979350">
        <ele>1495.0</ele>
        <time>2013-07-06T14:10:51Z</time>
      </trkpt>
      <trkpt lat="40.015500" lon="-4.979283">
        <ele>1497.0</ele>
        <time>2013-07-06T14:10:52Z</time>
      </trkpt>
      <trkpt lat="40.015500" lon="-4.979200">
        <ele>1500.0</ele>
        <time>2013-07-06T14:10:53Z</time>
      </trkpt>
      <trkpt lat="40.015500" lon="-4.979117">
        <ele>1502.0</ele>
        <time>2013-07-06T14:10:54Z</time>
      </trkpt>
      <trkpt lat="40.015467" lon="-4.979033">
        <ele>1504.0</ele>
        <time>2013-07-06T14:10:55Z</time>
      </trkpt>
      <trkpt lat="40.015400" lon="-4.978967">
        <ele>1506.0</ele>
        <time>2013-07-06T14:10:56Z</time>
      </trkpt>
      <trkpt lat="40.015333" lon="-4.978917">
        <ele>1508.0</ele>
        <time>2013-07-06T14:10:57Z</time>
      </trkpt>
      <trkpt lat="40.015250" lon="-4.978883">
        <ele>1509.0</ele>
        <time>2013-07-06T14:10:58Z</time>
      </trkpt>
      <trkpt lat="40.015167" lon="-4.978883">
        <ele>1512.0</ele>
        <time>2013-07-06T14:10:59Z</time>
      </trkpt>
      <trkpt lat="40.015083" lon="-4.978900">
        <ele>1515.0</ele>
        <time>2013-07-06T14:11:00Z</time>
      </trkpt>
      <trkpt lat="40.015000" lon="-4.978933">
        <ele>1517.0</ele>
        <time>2013-07-06T14:11:01Z</time>
      </trkpt>
      <trkpt lat="40.014917" lon="-4.978983">
        <ele>1519.0</ele>
        <time>2013-07-06T14:11:02Z</time>
      </trkpt>
      <trkpt lat="40.014833" lon="-4.979067">
        <ele>1521.0</ele>
        <time>2013-07-06T14:11:03Z</time>
      </trkpt>
      <trkpt lat="40.014767" lon="-4.979183">
        <ele>1524.0</ele>
        <time>2013-07-06T14:11:04Z</time>
      </trkpt>
      <trkpt lat="40.014700" lon="-4.979450">
        <ele>1527.0</ele>
        <time>2013-07-06T14:11:06Z</time>
      </trkpt>
      <trkpt lat="40.014683" lon="-4.979600">
        <ele>1529.0</ele>
        <time>2013-07-06T14:11:07Z</time>
      </trkpt>
      <trkpt lat="40.014683" lon="-4.979733">
        <ele>1530.0</ele>
        <time>2013-07-06T14:11:08Z</time>
      </trkpt>
      <trkpt lat="40.014683" lon="-4.979867">
        <ele>1532.0</ele>
        <time>2013-07-06T14:11:09Z</time>
      </trkpt>
      <trkpt lat="40.014717" lon="-4.979983">
        <ele>1533.0</ele>
        <time>2013-07-06T14:11:10Z</time>
      </trkpt>
      <trkpt lat="40.014767" lon="-4.980100">
        <ele>1535.0</ele>
        <time>2013-07-06T14:11:11Z</time>
      </trkpt>
      <trkpt lat="40.014833" lon="-4.980217">
        <ele>1534.0</ele>
        <time>2013-07-06T14:11:12Z</time>
      </trkpt>
      <trkpt lat="40.014900" lon="-4.980300">
        <ele>1536.0</ele>
        <time>2013-07-06T14:11:13Z</time>
      </trkpt>
      <trkpt lat="40.014983" lon="-4.980350">
        <ele>1537.0</ele>
        <time>2013-07-06T14:11:14Z</time>
      </trkpt>
      <trkpt lat="40.015083" lon="-4.980383">
        <ele>1538.0</ele>
        <time>2013-07-06T14:11:15Z</time>
      </trkpt>
      <trkpt lat="40.015233" lon="-4.980367">
        <ele>1541.0</ele>
        <time>2013-07-06T14:11:17Z</time>
      </trkpt>
      <trkpt lat="40.015317" lon="-4.980333">
        <ele>1543.0</ele>
        <time>2013-07-06T14:11:18Z</time>
      </trkpt>
      <trkpt lat="40.015367" lon="-4.980283">
        <ele>1545.0</ele>
        <time>2013-07-06T14:11:19Z</time>
      </trkpt>
      <trkpt lat="40.015417" lon="-4.980217">
        <ele>1547.0</ele>
        <time>2013-07-06T14:11:20Z</time>
      </trkpt>
      <trkpt lat="40.015450" lon="-4.980133">
        <ele>1549.0</ele>
        <time>2013-07-06T14:11:21Z</time>
      </trkpt>
      <trkpt lat="40.015467" lon="-4.980050">
        <ele>1551.0</ele>
        <time>2013-07-06T14:11:22Z</time>
      </trkpt>
      <trkpt lat="40.015483" lon="-4.979967">
        <ele>1553.0</ele>
        <time>2013-07-06T14:11:23Z</time>
      </trkpt>
      <trkpt lat="40.015500" lon="-4.979883">
        <ele>1554.0</ele>
        <time>2013-07-06T14:11:24Z</time>
      </trkpt>
      <trkpt lat="40.015500" lon="-4.979783">
        <ele>1556.0</ele>
        <time>2013-07-06T14:11:25Z</time>
      </trkpt>
      <trkpt lat="40.015483" lon="-4.979700">
        <ele>1558.0</ele>
        <time>2013-07-06T14:11:26Z</time>
      </trkpt>
      <trkpt lat="40.015467" lon="-4.979617">
        <ele>1560.0</ele>
        <time>2013-07-06T14:11:27Z</time>
      </trkpt>
      <trkpt lat="40.015450" lon="-4.979533">
        <ele>1562.0</ele>
        <time>2013-07-06T14:11:28Z</time>
      </trkpt>
      <trkpt lat="40.015433" lon="-4.979433">
        <ele>1563.0</ele>
        <time>2013-07-06T14:11:29Z</time>
      </trkpt>
      <trkpt lat="40.015400" lon="-4.979350">
        <ele>1564.0</ele>
        <time>2013-07-06T14:11:30Z</time>
      </trkpt>
      <trkpt lat="40.015367" lon="-4.979267">
        <ele>1565.0</ele>
        <time>2013-07-06T14:11:31Z</time>
      </trkpt>
      <trkpt lat="40.015300" lon="-4.979200">
        <ele>1567.0</ele>
        <time>2013-07-06T14:11:32Z</time>
      </trkpt>
      <trkpt lat="40.015217" lon="-4.979183">
        <ele>1568.0</ele>
        <time>2013-07-06T14:11:33Z</time>
      </trkpt>
      <trkpt lat="40.015117" lon="-4.979183">
        <ele>1569.0</ele>
        <time>2013-07-06T14:11:34Z</time>
      </trkpt>
      <trkpt lat="40.014983" lon="-4.979333">
        <ele>1572.0</ele>
        <time>2013-07-06T14:11:36Z</time>
      </trkpt>
      <trkpt lat="40.014950" lon="-4.979467">
        <ele>1573.0</ele>
        <time>2013-07-06T14:11:37Z</time>
      </trkpt>
      <trkpt lat="40.014950" lon="-4.979600">
        <ele>1574.0</ele>
        <time>2013-07-06T14:11:38Z</time>
      </trkpt>
      <trkpt lat="40.014950" lon="-4.979900">
        <ele>1576.0</ele>
        <time>2013-07-06T14:11:40Z</time>
      </trkpt>
      <trkpt lat="40.015033" lon="-4.980150">
        <ele>1579.0</ele>
        <time>2013-07-06T14:11:42Z</time>
      </trkpt>
      <trkpt lat="40.015100" lon="-4.980217">
        <ele>1581.0</ele>
        <time>2013-07-06T14:11:43Z</time>
      </trkpt>
      <trkpt lat="40.015200" lon="-4.980250">
        <ele>1581.0</ele>
        <time>2013-07-06T14:11:44Z</time>
      </trkpt>
      <trkpt lat="40.015283" lon="-4.980267">
        <ele>1582.0</ele>
        <time>2013-07-06T14:11:45Z</time>
      </trkpt>
      <trkpt lat="40.015350" lon="-4.980267">
        <ele>1584.0</ele>
        <time>2013-07-06T14:11:46Z</time>
      </trkpt>
      <trkpt lat="40.015417" lon="-4.980250">
        <ele>1588.0</ele>
        <time>2013-07-06T14:11:47Z</time>
      </trkpt>
      <trkpt lat="40.015483" lon="-4.980217">
        <ele>1590.0</ele>
        <time>2013-07-06T14:11:48Z</time>
      </trkpt>
      <trkpt lat="40.015550" lon="-4.980167">
        <ele>1592.0</ele>
        <time>2013-07-06T14:11:49Z</time>
      </trkpt>
      <trkpt lat="40.015583" lon="-4.980083">
        <ele>1593.0</ele>
        <time>2013-07-06T14:11:50Z</time>
      </trkpt>
      <trkpt lat="40.015617" lon="-4.980000">
        <ele>1594.0</ele>
        <time>2013-07-06T14:11:51Z</time>
      </trkpt>
      <trkpt lat="40.015650" lon="-4.979900">
        <ele>1596.0</ele>
        <time>2013-07-06T14:11:52Z</time>
      </trkpt>
      <trkpt lat="40.015650" lon="-4.979817">
        <ele>1597.0</ele>
        <time>2013-07-06T14:11:53Z</time>
      </trkpt>
      <trkpt lat="40.015633" lon="-4.979733">
        <ele>1599.0</ele>
        <time>2013-07-06T14:11:54Z</time>
      </trkpt>
      <trkpt lat="40.015633" lon="-4.979650">
        <ele>1600.0</ele>
        <time>2013-07-06T14:11:55Z</time>
      </trkpt>
      <trkpt lat="40.015617" lon="-4.979550">
        <ele>1601.0</ele>
        <time>2013-07-06T14:11:56Z</time>
      </trkpt>
      <trkpt lat="40.015583" lon="-4.979450">
        <ele>1603.0</ele>
        <time>2013-07-06T14:11:57Z</time>
      </trkpt>
      <trkpt lat="40.015567" lon="-4.979367">
        <ele>1604.0</ele>
        <time>2013-07-06T14:11:58Z</time>
      </trkpt>
      <trkpt lat="40.015517" lon="-4.979283">
        <ele>1606.0</ele>
        <time>2013-07-06T14:11:59Z</time>
      </trkpt>
      <trkpt lat="40.015483" lon="-4.979217">
        <ele>1608.0</ele>
        <time>2013-07-06T14:12:00Z</time>
      </trkpt>
      <trkpt lat="40.015433" lon="-4.979150">
        <ele>1610.0</ele>
        <time>2013-07-06T14:12:01Z</time>
      </trkpt>
      <trkpt lat="40.015367" lon="-4.979083">
        <ele>1611.0</ele>
        <time>2013-07-06T14:12:02Z</time>
      </trkpt>
      <trkpt lat="40.015300" lon="-4.979033">
        <ele>1613.0</ele>
        <time>2013-07-06T14:12:03Z</time>
      </trkpt>
      <trkpt lat="40.015217" lon="-4.979033">
        <ele>1614.0</ele>
        <time>2013-07-06T14:12:04Z</time>
      </trkpt>
      <trkpt lat="40.015133" lon="-4.979067">
        <ele>1615.0</ele>
        <time>2013-07-06T14:12:05Z</time>
      </trkpt>
      <trkpt lat="40.015067" lon="-4.979133">
        <ele>1617.0</ele>
        <time>2013-07-06T14:12:06Z</time>
      </trkpt>
      <trkpt lat="40.015000" lon="-4.979250">
        <ele>1619.0</ele>
        <time>2013-07-06T14:12:07Z</time>
      </trkpt>
      <trkpt lat="40.014950" lon="-4.979383">
        <ele>1621.0</ele>
        <time>2013-07-06T14:12:08Z</time>
      </trkpt>
      <trkpt lat="40.014933" lon="-4.979517">
        <ele>1623.0</ele>
        <time>2013-07-06T14:12:09Z</time>
      </trkpt>
      <trkpt lat="40.014933" lon="-4.979650">
        <ele>1625.0</ele>
        <time>2013-07-06T14:12:10Z</time>
      </trkpt>
      <trkpt lat="40.014933" lon="-4.979783">
        <ele>1627.0</ele>
        <time>2013-07-06T14:12:11Z</time>
      </trkpt>
      <trkpt lat="40.014967" lon="-4.979933">
        <ele>1628.0</ele>
        <time>2013-07-06T14:12:12Z</time>
      </trkpt>
      <trkpt lat="40.015017" lon="-4.980050">
        <ele>1631.0</ele>
        <time>2013-07-06T14:12:13Z</time>
      </trkpt>
      <trkpt lat="40.015067" lon="-4.980133">
        <ele>1634.0</ele>
        <time>2013-07-06T14:12:14Z</time>
      </trkpt>
      <trkpt lat="40.015133" lon="-4.980183">
        <ele>1636.0</ele>
        <time>2013-07-06T14:12:15Z</time>
      </trkpt>
      <trkpt lat="40.015200" lon="-4.980217">
        <ele>1638.0</ele>
        <time>2013-07-06T14:12:16Z</time>
      </trkpt>
      <trkpt lat="40.015283" lon="-4.980250">
        <ele>1638.0</ele>
        <time>2013-07-06T14:12:17Z</time>
      </trkpt>
      <trkpt lat="40.015450" lon="-4.980233">
        <ele>1640.0</ele>
        <time>2013-07-06T14:12:19Z</time>
      </trkpt>
      <trkpt lat="40.015533" lon="-4.980183">
        <ele>1642.0</ele>
        <time>2013-07-06T14:12:20Z</time>
      </trkpt>
      <trkpt lat="40.015583" lon="-4.980100">
        <ele>1643.0</ele>
        <time>2013-07-06T14:12:21Z</time>
      </trkpt>
      <trkpt lat="40.015617" lon="-4.980033">
        <ele>1644.0</ele>
        <time>2013-07-06T14:12:22Z</time>
      </trkpt>
      <trkpt lat="40.015650" lon="-4.979950">
        <ele>1646.0</ele>
        <time>2013-07-06T14:12:23Z</time>
      </trkpt>
      <trkpt lat="40.015667" lon="-4.979867">
        <ele>1647.0</ele>
        <time>2013-07-06T14:12:24Z</time>
      </trkpt>
      <trkpt lat="40.015667" lon="-4.979783">
        <ele>1648.0</ele>
        <time>2013-07-06T14:12:25Z</time>
      </trkpt>
      <trkpt lat="40.015667" lon="-4.979683">
        <ele>1650.0</ele>
        <time>2013-07-06T14:12:26Z</time>
      </trkpt>
      <trkpt lat="40.015650" lon="-4.979600">
        <ele>1651.0</ele>
        <time>2013-07-06T14:12:27Z</time>
      </trkpt>
      <trkpt lat="40.015617" lon="-4.979517">
        <ele>1651.0</ele>
        <time>2013-07-06T14:12:28Z</time>
      </trkpt>
      <trkpt lat="40.015583" lon="-4.979433">
        <ele>1652.0</ele>
        <time>2013-07-06T14:12:29Z</time>
      </trkpt>
      <trkpt lat="40.015550" lon="-4.979333">
        <ele>1652.0</ele>
        <time>2013-07-06T14:12:30Z</time>
      </trkpt>
      <trkpt lat="40.015500" lon="-4.979250">
        <ele>1652.0</ele>
        <time>2013-07-06T14:12:31Z</time>
      </trkpt>
      <trkpt lat="40.015450" lon="-4.979200">
        <ele>1654.0</ele>
        <time>2013-07-06T14:12:32Z</time>
      </trkpt>
      <trkpt lat="40.015417" lon="-4.979183">
        <ele>1656.0</ele>
        <time>2013-07-06T14:12:33Z</time>
      </trkpt>
      <trkpt lat="40.015383" lon="-4.979167">
        <ele>1659.0</ele>
        <time>2013-07-06T14:12:34Z</time>
      </trkpt>
      <trkpt lat="40.015350" lon="-4.979133">
        <ele>1661.0</ele>
        <time>2013-07-06T14:12:35Z</time>
      </trkpt>
      <trkpt lat="40.015300" lon="-4.979100">
        <ele>1662.0</ele>
        <time>2013-07-06T14:12:36Z</time>
      </trkpt>
      <trkpt lat="40.015217" lon="-4.979083">
        <ele>1663.0</ele>
        <time>2013-07-06T14:12:37Z</time>
      </trkpt>
      <trkpt lat="40.015150" lon="-4.979100">
        <ele>1664.0</ele>
        <time>2013-07-06T14:12:38Z</time>
      </trkpt>
      <trkpt lat="40.015050" lon="-4.979133">
        <ele>1664.0</ele>
        <time>2013-07-06T14:12:39Z</time>
      </trkpt>
      <trkpt lat="40.014967" lon="-4.979200">
        <ele>1665.0</ele>
        <time>2013-07-06T14:12:40Z</time>
      </trkpt>
      <trkpt lat="40.014900" lon="-4.979267">
        <ele>1667.0</ele>
        <time>2013-07-06T14:12:41Z</time>
      </trkpt>
      <trkpt lat="40.014833" lon="-4.979367">
        <ele>1668.0</ele>
        <time>2013-07-06T14:12:42Z</time>
      </trkpt>
      <trkpt lat="40.014767" lon="-4.979483">
        <ele>1669.0</ele>
        <time>2013-07-06T14:12:43Z</time>
      </trkpt>
      <trkpt lat="40.014733" lon="-4.979617">
        <ele>1671.0</ele>
        <time>2013-07-06T14:12:44Z</time>
      </trkpt>
      <trkpt lat="40.014733" lon="-4.979767">
        <ele>1673.0</ele>
        <time>2013-07-06T14:12:45Z</time>
      </trkpt>
      <trkpt lat="40.014750" lon="-4.979883">
        <ele>1674.0</ele>
        <time>2013-07-06T14:12:46Z</time>
      </trkpt>
      <trkpt lat="40.014783" lon="-4.980000">
        <ele>1677.0</ele>
        <time>2013-07-06T14:12:47Z</time>
      </trkpt>
      <trkpt lat="40.014833" lon="-4.980117">
        <ele>1679.0</ele>
        <time>2013-07-06T14:12:48Z</time>
      </trkpt>
      <trkpt lat="40.014883" lon="-4.980200">
        <ele>1682.0</ele>
        <time>2013-07-06T14:12:49Z</time>
      </trkpt>
      <trkpt lat="40.014950" lon="-4.980283">
        <ele>1684.0</ele>
        <time>2013-07-06T14:12:50Z</time>
      </trkpt>
      <trkpt lat="40.015033" lon="-4.980350">
        <ele>1684.0</ele>
        <time>2013-07-06T14:12:51Z</time>
      </trkpt>
      <trkpt lat="40.015100" lon="-4.980400">
        <ele>1684.0</ele>
        <time>2013-07-06T14:12:52Z</time>
      </trkpt>
      <trkpt lat="40.015150" lon="-4.980417">
        <ele>1684.0</ele>
        <time>2013-07-06T14:12:53Z</time>
      </trkpt>
      <trkpt lat="40.015217" lon="-4.980400">
        <ele>1683.0</ele>
        <time>2013-07-06T14:12:54Z</time>
      </trkpt>
      <trkpt lat="40.015267" lon="-4.980367">
        <ele>1682.0</ele>
        <time>2013-07-06T14:12:55Z</time>
      </trkpt>
      <trkpt lat="40.015317" lon="-4.980317">
        <ele>1681.0</ele>
        <time>2013-07-06T14:12:56Z</time>
      </trkpt>
      <trkpt lat="40.015333" lon="-4.980250">
        <ele>1681.0</ele>
        <time>2013-07-06T14:12:57Z</time>
      </trkpt>
      <trkpt lat="40.015317" lon="-4.980200">
        <ele>1680.0</ele>
        <time>2013-07-06T14:12:58Z</time>
      </trkpt>
      <trkpt lat="40.015300" lon="-4.980117">
        <ele>1679.0</ele>
        <time>2013-07-06T14:12:59Z</time>
      </trkpt>
      <trkpt lat="40.015267" lon="-4.980017">
        <ele>1679.0</ele>
        <time>2013-07-06T14:13:00Z</time>
      </trkpt>
      <trkpt lat="40.015217" lon="-4.979950">
        <ele>1679.0</ele>
        <time>2013-07-06T14:13:01Z</time>
      </trkpt>
      <trkpt lat="40.015167" lon="-4.979883">
        <ele>1681.0</ele>
        <time>2013-07-06T14:13:02Z</time>
      </trkpt>
      <trkpt lat="40.015133" lon="-4.979833">
        <ele>1684.0</ele>
        <time>2013-07-06T14:13:03Z</time>
      </trkpt>
      <trkpt lat="40.015083" lon="-4.979783">
        <ele>1686.0</ele>
        <time>2013-07-06T14:13:04Z</time>
      </trkpt>
      <trkpt lat="40.015033" lon="-4.979717">
        <ele>1688.0</ele>
        <time>2013-07-06T14:13:05Z</time>
      </trkpt>
      <trkpt lat="40.014983" lon="-4.979667">
        <ele>1690.0</ele>
        <time>2013-07-06T14:13:06Z</time>
      </trkpt>
      <trkpt lat="40.014933" lon="-4.979600">
        <ele>1692.0</ele>
        <time>2013-07-06T14:13:07Z</time>
      </trkpt>
      <trkpt lat="40.014883" lon="-4.979567">
        <ele>1694.0</ele>
        <time>2013-07-06T14:13:08Z</time>
      </trkpt>
      <trkpt lat="40.014833" lon="-4.979517">
        <ele>1697.0</ele>
        <time>2013-07-06T14:13:09Z</time>
      </trkpt>
      <trkpt lat="40.014767" lon="-4.979483">
        <ele>1700.0</ele>
        <time>2013-07-06T14:13:10Z</time>
      </trkpt>
      <trkpt lat="40.014717" lon="-4.979450">
        <ele>1702.0</ele>
        <time>2013-07-06T14:13:11Z</time>
      </trkpt>
      <trkpt lat="40.014650" lon="-4.979433">
        <ele>1703.0</ele>
        <time>2013-07-06T14:13:12Z</time>
      </trkpt>
      <trkpt lat="40.014567" lon="-4.979433">
        <ele>1705.0</ele>
        <time>2013-07-06T14:13:13Z</time>
      </trkpt>
      <trkpt lat="40.014467" lon="-4.979467">
        <ele>1707.0</ele>
        <time>2013-07-06T14:13:14Z</time>
      </trkpt>
      <trkpt lat="40.014383" lon="-4.979533">
        <ele>1709.0</ele>
        <time>2013-07-06T14:13:15Z</time>
      </trkpt>
      <trkpt lat="40.014317" lon="-4.979617">
        <ele>1711.0</ele>
        <time>2013-07-06T14:13:16Z</time>
      </trkpt>
      <trkpt lat="40.014250" lon="-4.979733">
        <ele>1714.0</ele>
        <time>2013-07-06T14:13:17Z</time>
      </trkpt>
      <trkpt lat="40.014183" lon="-4.979850">
        <ele>1715.0</ele>
        <time>2013-07-06T14:13:18Z</time>
      </trkpt>
      <trkpt lat="40.014150" lon="-4.979983">
        <ele>1717.0</ele>
        <time>2013-07-06T14:13:19Z</time>
      </trkpt>
      <trkpt lat="40.014117" lon="-4.980150">
        <ele>1719.0</ele>
        <time>2013-07-06T14:13:20Z</time>
      </trkpt>
      <trkpt lat="40.014117" lon="-4.980317">
        <ele>1720.0</ele>
        <time>2013-07-06T14:13:21Z</time>
      </trkpt>
      <trkpt lat="40.014150" lon="-4.980483">
        <ele>1722.0</ele>
        <time>2013-07-06T14:13:22Z</time>
      </trkpt>
      <trkpt lat="40.014217" lon="-4.980600">
        <ele>1724.0</ele>
        <time>2013-07-06T14:13:23Z</time>
      </trkpt>
      <trkpt lat="40.014283" lon="-4.980683">
        <ele>1726.0</ele>
        <time>2013-07-06T14:13:24Z</time>
      </trkpt>
      <trkpt lat="40.014350" lon="-4.980750">
        <ele>1727.0</ele>
        <time>2013-07-06T14:13:25Z</time>
      </trkpt>
      <trkpt lat="40.014417" lon="-4.980800">
        <ele>1730.0</ele>
        <time>2013-07-06T14:13:26Z</time>
      </trkpt>
      <trkpt lat="40.014483" lon="-4.980833">
        <ele>1732.0</ele>
        <time>2013-07-06T14:13:27Z</time>
      </trkpt>
      <trkpt lat="40.014550" lon="-4.980833">
        <ele>1734.0</ele>
        <time>2013-07-06T14:13:28Z</time>
      </trkpt>
      <trkpt lat="40.014617" lon="-4.980817">
        <ele>1736.0</ele>
        <time>2013-07-06T14:13:29Z</time>
      </trkpt>
      <trkpt lat="40.014667" lon="-4.980783">
        <ele>1737.0</ele>
        <time>2013-07-06T14:13:30Z</time>
      </trkpt>
      <trkpt lat="40.014717" lon="-4.980650">
        <ele>1739.0</ele>
        <time>2013-07-06T14:13:32Z</time>
      </trkpt>
      <trkpt lat="40.014717" lon="-4.980583">
        <ele>1741.0</ele>
        <time>2013-07-06T14:13:33Z</time>
      </trkpt>
      <trkpt lat="40.014700" lon="-4.980533">
        <ele>1743.0</ele>
        <time>2013-07-06T14:13:34Z</time>
      </trkpt>
      <trkpt lat="40.014667" lon="-4.980483">
        <ele>1745.0</ele>
        <time>2013-07-06T14:13:35Z</time>
      </trkpt>
      <trkpt lat="40.014633" lon="-4.980433">
        <ele>1748.0</ele>
        <time>2013-07-06T14:13:36Z</time>
      </trkpt>
      <trkpt lat="40.014583" lon="-4.980383">
        <ele>1750.0</ele>
        <time>2013-07-06T14:13:37Z</time>
      </trkpt>
      <trkpt lat="40.014533" lon="-4.980333">
        <ele>1752.0</ele>
        <time>2013-07-06T14:13:38Z</time>
      </trkpt>
      <trkpt lat="40.014467" lon="-4.980317">
        <ele>1754.0</ele>
        <time>2013-07-06T14:13:39Z</time>
      </trkpt>
      <trkpt lat="40.014400" lon="-4.980300">
        <ele>1756.0</ele>
        <time>2013-07-06T14:13:40Z</time>
      </trkpt>
      <trkpt lat="40.014317" lon="-4.980317">
        <ele>1758.0</ele>
        <time>2013-07-06T14:13:41Z</time>
      </trkpt>
      <trkpt lat="40.014217" lon="-4.980350">
        <ele>1760.0</ele>
        <time>2013-07-06T14:13:42Z</time>
      </trkpt>
      <trkpt lat="40.014133" lon="-4.980383">
        <ele>1761.0</ele>
        <time>2013-07-06T14:13:43Z</time>
      </trkpt>
      <trkpt lat="40.014033" lon="-4.980417">
        <ele>1763.0</ele>
        <time>2013-07-06T14:13:44Z</time>
      </trkpt>
      <trkpt lat="40.013933" lon="-4.980450">
        <ele>1764.0</ele>
        <time>2013-07-06T14:13:45Z</time>
      </trkpt>
      <trkpt lat="40.013833" lon="-4.980500">
        <ele>1765.0</ele>
        <time>2013-07-06T14:13:46Z</time>
      </trkpt>
      <trkpt lat="40.013750" lon="-4.980583">
        <ele>1767.0</ele>
        <time>2013-07-06T14:13:47Z</time>
      </trkpt>
      <trkpt lat="40.013667" lon="-4.980667">
        <ele>1768.0</ele>
        <time>2013-07-06T14:13:48Z</time>
      </trkpt>
      <trkpt lat="40.013567" lon="-4.980783">
        <ele>1769.0</ele>
        <time>2013-07-06T14:13:49Z</time>
      </trkpt>
      <trkpt lat="40.013483" lon="-4.980933">
        <ele>1770.0</ele>
        <time>2013-07-06T14:13:50Z</time>
      </trkpt>
      <trkpt lat="40.013417" lon="-4.981083">
        <ele>1771.0</ele>
        <time>2013-07-06T14:13:51Z</time>
      </trkpt>
      <trkpt lat="40.013367" lon="-4.981267">
        <ele>1771.0</ele>
        <time>2013-07-06T14:13:52Z</time>
      </trkpt>
      <trkpt lat="40.013333" lon="-4.981450">
        <ele>1771.0</ele>
        <time>2013-07-06T14:13:53Z</time>
      </trkpt>
      <trkpt lat="40.013317" lon="-4.981617">
        <ele>1771.0</ele>
        <time>2013-07-06T14:13:54Z</time>
      </trkpt>
      <trkpt lat="40.013300" lon="-4.981783">
        <ele>1772.0</ele>
        <time>2013-07-06T14:13:55Z</time>
      </trkpt>
      <trkpt lat="40.013300" lon="-4.981967">
        <ele>1772.0</ele>
        <time>2013-07-06T14:13:56Z</time>
      </trkpt>
      <trkpt lat="40.013317" lon="-4.982167">
        <ele>1772.0</ele>
        <time>2013-07-06T14:13:57Z</time>
      </trkpt>
      <trkpt lat="40.013350" lon="-4.982350">
        <ele>1772.0</ele>
        <time>2013-07-06T14:13:58Z</time>
      </trkpt>
      <trkpt lat="40.013383" lon="-4.982517">
        <ele>1775.0</ele>
        <time>2013-07-06T14:13:59Z</time>
      </trkpt>
      <trkpt lat="40.013450" lon="-4.982667">
        <ele>1778.0</ele>
        <time>2013-07-06T14:14:00Z</time>
      </trkpt>
      <trkpt lat="40.013500" lon="-4.982800">
        <ele>1781.0</ele>
        <time>2013-07-06T14:14:01Z</time>
      </trkpt>
      <trkpt lat="40.013567" lon="-4.982900">
        <ele>1783.0</ele>
        <time>2013-07-06T14:14:02Z</time>
      </trkpt>
      <trkpt lat="40.013633" lon="-4.983000">
        <ele>1785.0</ele>
        <time>2013-07-06T14:14:03Z</time>
      </trkpt>
      <trkpt lat="40.013717" lon="-4.983067">
        <ele>1787.0</ele>
        <time>2013-07-06T14:14:04Z</time>
      </trkpt>
      <trkpt lat="40.013800" lon="-4.983117">
        <ele>1788.0</ele>
        <time>2013-07-06T14:14:05Z</time>
      </trkpt>
      <trkpt lat="40.013867" lon="-4.983133">
        <ele>1789.0</ele>
        <time>2013-07-06T14:14:06Z</time>
      </trkpt>
      <trkpt lat="40.013917" lon="-4.983150">
        <ele>1790.0</ele>
        <time>2013-07-06T14:14:07Z</time>
      </trkpt>
      <trkpt lat="40.013950" lon="-4.983150">
        <ele>1791.0</ele>
        <time>2013-07-06T14:14:08Z</time>
      </trkpt>
      <trkpt lat="40.013983" lon="-4.983133">
        <ele>1792.0</ele>
        <time>2013-07-06T14:14:09Z</time>
      </trkpt>
      <trkpt lat="40.014033" lon="-4.983100">
        <ele>1792.0</ele>
        <time>2013-07-06T14:14:10Z</time>
      </trkpt>
      <trkpt lat="40.014050" lon="-4.983050">
        <ele>1792.0</ele>
        <time>2013-07-06T14:14:11Z</time>
      </trkpt>
      <trkpt lat="40.014050" lon="-4.982983">
        <ele>1791.0</ele>
        <time>2013-07-06T14:14:12Z</time>
      </trkpt>
      <trkpt lat="40.014017" lon="-4.982933">
        <ele>1791.0</ele>
        <time>2013-07-06T14:14:13Z</time>
      </trkpt>
      <trkpt lat="40.013967" lon="-4.982867">
        <ele>1795.0</ele>
        <time>2013-07-06T14:14:15Z</time>
      </trkpt>
      <trkpt lat="40.013933" lon="-4.982850">
        <ele>1798.0</ele>
        <time>2013-07-06T14:14:16Z</time>
      </trkpt>
      <trkpt lat="40.013900" lon="-4.982850">
        <ele>1800.0</ele>
        <time>2013-07-06T14:14:17Z</time>
      </trkpt>
      <trkpt lat="40.013833" lon="-4.982833">
        <ele>1801.0</ele>
        <time>2013-07-06T14:14:18Z</time>
      </trkpt>
      <trkpt lat="40.013767" lon="-4.982850">
        <ele>1802.0</ele>
        <time>2013-07-06T14:14:19Z</time>
      </trkpt>
      <trkpt lat="40.013683" lon="-4.982850">
        <ele>1803.0</ele>
        <time>2013-07-06T14:14:20Z</time>
      </trkpt>
      <trkpt lat="40.013617" lon="-4.982850">
        <ele>1806.0</ele>
        <time>2013-07-06T14:14:21Z</time>
      </trkpt>
      <trkpt lat="40.013567" lon="-4.982850">
        <ele>1808.0</ele>
        <time>2013-07-06T14:14:22Z</time>
      </trkpt>
      <trkpt lat="40.013533" lon="-4.982833">
        <ele>1810.0</ele>
        <time>2013-07-06T14:14:23Z</time>
      </trkpt>
      <trkpt lat="40.013517" lon="-4.982800">
        <ele>1810.0</ele>
        <time>2013-07-06T14:14:24Z</time>
      </trkpt>
      <trkpt lat="40.013500" lon="-4.982750">
        <ele>1810.0</ele>
        <time>2013-07-06T14:14:25Z</time>
      </trkpt>
      <trkpt lat="40.013500" lon="-4.982700">
        <ele>1811.0</ele>
        <time>2013-07-06T14:14:26Z</time>
      </trkpt>
      <trkpt lat="40.013533" lon="-4.982650">
        <ele>1811.0</ele>
        <time>2013-07-06T14:14:27Z</time>
      </trkpt>
      <trkpt lat="40.013583" lon="-4.982633">
        <ele>1811.0</ele>
        <time>2013-07-06T14:14:28Z</time>
      </trkpt>
      <trkpt lat="40.013700" lon="-4.982600">
        <ele>1811.0</ele>
        <time>2013-07-06T14:14:30Z</time>
      </trkpt>
      <trkpt lat="40.013783" lon="-4.982633">
        <ele>1812.0</ele>
        <time>2013-07-06T14:14:31Z</time>
      </trkpt>
      <trkpt lat="40.013850" lon="-4.982667">
        <ele>1813.0</ele>
        <time>2013-07-06T14:14:32Z</time>
      </trkpt>
      <trkpt lat="40.013917" lon="-4.982717">
        <ele>1814.0</ele>
        <time>2013-07-06T14:14:33Z</time>
      </trkpt>
      <trkpt lat="40.013983" lon="-4.982767">
        <ele>1816.0</ele>
        <time>2013-07-06T14:14:34Z</time>
      </trkpt>
      <trkpt lat="40.014050" lon="-4.982833">
        <ele>1818.0</ele>
        <time>2013-07-06T14:14:35Z</time>
      </trkpt>
      <trkpt lat="40.014117" lon="-4.982900">
        <ele>1820.0</ele>
        <time>2013-07-06T14:14:36Z</time>
      </trkpt>
      <trkpt lat="40.014167" lon="-4.982967">
        <ele>1821.0</ele>
        <time>2013-07-06T14:14:37Z</time>
      </trkpt>
      <trkpt lat="40.014233" lon="-4.983050">
        <ele>1824.0</ele>
        <time>2013-07-06T14:14:38Z</time>
      </trkpt>
      <trkpt lat="40.014283" lon="-4.983133">
        <ele>1827.0</ele>
        <time>2013-07-06T14:14:39Z</time>
      </trkpt>
      <trkpt lat="40.014333" lon="-4.983233">
        <ele>1830.0</ele>
        <time>2013-07-06T14:14:40Z</time>
      </trkpt>
      <trkpt lat="40.014367" lon="-4.983350">
        <ele>1833.0</ele>
        <time>2013-07-06T14:14:41Z</time>
      </trkpt>
      <trkpt lat="40.014400" lon="-4.983483">
        <ele>1835.0</ele>
        <time>2013-07-06T14:14:42Z</time>
      </trkpt>
      <trkpt lat="40.014400" lon="-4.983650">
        <ele>1837.0</ele>
        <time>2013-07-06T14:14:43Z</time>
      </trkpt>
      <trkpt lat="40.014400" lon="-4.983817">
        <ele>1838.0</ele>
        <time>2013-07-06T14:14:44Z</time>
      </trkpt>
      <trkpt lat="40.014383" lon="-4.983983">
        <ele>1839.0</ele>
        <time>2013-07-06T14:14:45Z</time>
      </trkpt>
      <trkpt lat="40.014367" lon="-4.984117">
        <ele>1840.0</ele>
        <time>2013-07-06T14:14:46Z</time>
      </trkpt>
      <trkpt lat="40.014317" lon="-4.984233">
        <ele>1841.0</ele>
        <time>2013-07-06T14:14:47Z</time>
      </trkpt>
      <trkpt lat="40.014267" lon="-4.984350">
        <ele>1841.0</ele>
        <time>2013-07-06T14:14:48Z</time>
      </trkpt>
      <trkpt lat="40.014200" lon="-4.984483">
        <ele>1841.0</ele>
        <time>2013-07-06T14:14:49Z</time>
      </trkpt>
      <trkpt lat="40.014133" lon="-4.984617">
        <ele>1840.0</ele>
        <time>2013-07-06T14:14:50Z</time>
      </trkpt>
      <trkpt lat="40.013950" lon="-4.984783">
        <ele>1840.0</ele>
        <time>2013-07-06T14:14:52Z</time>
      </trkpt>
      <trkpt lat="40.013867" lon="-4.984800">
        <ele>1839.0</ele>
        <time>2013-07-06T14:14:53Z</time>
      </trkpt>
      <trkpt lat="40.013783" lon="-4.984833">
        <ele>1837.0</ele>
        <time>2013-07-06T14:14:54Z</time>
      </trkpt>
      <trkpt lat="40.013600" lon="-4.984900">
        <ele>1837.0</ele>
        <time>2013-07-06T14:14:56Z</time>
      </trkpt>
      <trkpt lat="40.013517" lon="-4.984933">
        <ele>1837.0</ele>
        <time>2013-07-06T14:14:57Z</time>
      </trkpt>
      <trkpt lat="40.013383" lon="-4.984900">
        <ele>1836.0</ele>
        <time>2013-07-06T14:14:59Z</time>
      </trkpt>
      <trkpt lat="40.013317" lon="-4.984883">
        <ele>1838.0</ele>
        <time>2013-07-06T14:15:00Z</time>
      </trkpt>
      <trkpt lat="40.013250" lon="-4.984883">
        <ele>1840.0</ele>
        <time>2013-07-06T14:15:01Z</time>
      </trkpt>
      <trkpt lat="40.013183" lon="-4.984883">
        <ele>1841.0</ele>
        <time>2013-07-06T14:15:02Z</time>
      </trkpt>
      <trkpt lat="40.013133" lon="-4.984867">
        <ele>1841.0</ele>
        <time>2013-07-06T14:15:03Z</time>
      </trkpt>
      <trkpt lat="40.013100" lon="-4.984850">
        <ele>1841.0</ele>
        <time>2013-07-06T14:15:04Z</time>
      </trkpt>
      <trkpt lat="40.013050" lon="-4.984833">
        <ele>1839.0</ele>
        <time>2013-07-06T14:15:05Z</time>
      </trkpt>
      <trkpt lat="40.012983" lon="-4.984800">
        <ele>1837.0</ele>
        <time>2013-07-06T14:15:06Z</time>
      </trkpt>
      <trkpt lat="40.012950" lon="-4.984783">
        <ele>1837.0</ele>
        <time>2013-07-06T14:15:07Z</time>
      </trkpt>
      <trkpt lat="40.012917" lon="-4.984750">
        <ele>1837.0</ele>
        <time>2013-07-06T14:15:08Z</time>
      </trkpt>
      <trkpt lat="40.012900" lon="-4.984733">
        <ele>1836.0</ele>
        <time>2013-07-06T14:15:09Z</time>
      </trkpt>
      <trkpt lat="40.012900" lon="-4.984700">
        <ele>1835.0</ele>
        <time>2013-07-06T14:15:10Z</time>
      </trkpt>
      <trkpt lat="40.012883" lon="-4.984650">
        <ele>1834.0</ele>
        <time>2013-07-06T14:15:11Z</time>
      </trkpt>
      <trkpt lat="40.012883" lon="-4.984617">
        <ele>1833.0</ele>
        <time>2013-07-06T14:15:12Z</time>
      </trkpt>
      <trkpt lat="40.012883" lon="-4.984583">
        <ele>1833.0</ele>
        <time>2013-07-06T14:15:13Z</time>
      </trkpt>
      <trkpt lat="40.012883" lon="-4.984567">
        <ele>1832.0</ele>
        <time>2013-07-06T14:15:14Z</time>
      </trkpt>
      <trkpt lat="40.012900" lon="-4.984550">
        <ele>1831.0</ele>
        <time>2013-07-06T14:15:15Z</time>
      </trkpt>
      <trkpt lat="40.012900" lon="-4.984517">
        <ele>1830.0</ele>
        <time>2013-07-06T14:15:16Z</time>
      </trkpt>
      <trkpt lat="40.012917" lon="-4.984500">
        <ele>1829.0</ele>
        <time>2013-07-06T14:15:17Z</time>
      </trkpt>
      <trkpt lat="40.012900" lon="-4.984483">
        <ele>1829.0</ele>
        <time>2013-07-06T14:15:18Z</time>
      </trkpt>
      <trkpt lat="40.012883" lon="-4.984467">
        <ele>1829.0</ele>
        <time>2013-07-06T14:15:19Z</time>
      </trkpt>
      <trkpt lat="40.012850" lon="-4.984433">
        <ele>1828.0</ele>
        <time>2013-07-06T14:15:20Z</time>
      </trkpt>
      <trkpt lat="40.012833" lon="-4.984400">
        <ele>1826.0</ele>
        <time>2013-07-06T14:15:21Z</time>
      </trkpt>
      <trkpt lat="40.012817" lon="-4.984350">
        <ele>1823.0</ele>
        <time>2013-07-06T14:15:22Z</time>
      </trkpt>
      <trkpt lat="40.012800" lon="-4.984300">
        <ele>1821.0</ele>
        <time>2013-07-06T14:15:23Z</time>
      </trkpt>
      <trkpt lat="40.012800" lon="-4.984250">
        <ele>1820.0</ele>
        <time>2013-07-06T14:15:24Z</time>
      </trkpt>
      <trkpt lat="40.012833" lon="-4.984217">
        <ele>1818.0</ele>
        <time>2013-07-06T14:15:25Z</time>
      </trkpt>
      <trkpt lat="40.012883" lon="-4.984167">
        <ele>1817.0</ele>
        <time>2013-07-06T14:15:26Z</time>
      </trkpt>
      <trkpt lat="40.012950" lon="-4.984150">
        <ele>1816.0</ele>
        <time>2013-07-06T14:15:27Z</time>
      </trkpt>
      <trkpt lat="40.013017" lon="-4.984117">
        <ele>1816.0</ele>
        <time>2013-07-06T14:15:28Z</time>
      </trkpt>
      <trkpt lat="40.013117" lon="-4.984100">
        <ele>1824.0</ele>
        <time>2013-07-06T14:15:30Z</time>
      </trkpt>
      <trkpt lat="40.013167" lon="-4.984100">
        <ele>1827.0</ele>
        <time>2013-07-06T14:15:31Z</time>
      </trkpt>
      <trkpt lat="40.013217" lon="-4.984117">
        <ele>1829.0</ele>
        <time>2013-07-06T14:15:32Z</time>
      </trkpt>
      <trkpt lat="40.013283" lon="-4.984133">
        <ele>1830.0</ele>
        <time>2013-07-06T14:15:33Z</time>
      </trkpt>
      <trkpt lat="40.013367" lon="-4.984150">
        <ele>1831.0</ele>
        <time>2013-07-06T14:15:34Z</time>
      </trkpt>
      <trkpt lat="40.013433" lon="-4.984183">
        <ele>1831.0</ele>
        <time>2013-07-06T14:15:35Z</time>
      </trkpt>
      <trkpt lat="40.013500" lon="-4.984200">
        <ele>1832.0</ele>
        <time>2013-07-06T14:15:36Z</time>
      </trkpt>
      <trkpt lat="40.013567" lon="-4.984217">
        <ele>1832.0</ele>
        <time>2013-07-06T14:15:37Z</time>
      </trkpt>
      <trkpt lat="40.013617" lon="-4.984200">
        <ele>1832.0</ele>
        <time>2013-07-06T14:15:38Z</time>
      </trkpt>
      <trkpt lat="40.013650" lon="-4.984150">
        <ele>1831.0</ele>
        <time>2013-07-06T14:15:39Z</time>
      </trkpt>
      <trkpt lat="40.013650" lon="-4.984083">
        <ele>1830.0</ele>
        <time>2013-07-06T14:15:40Z</time>
      </trkpt>
      <trkpt lat="40.013633" lon="-4.984033">
        <ele>1829.0</ele>
        <time>2013-07-06T14:15:41Z</time>
      </trkpt>
      <trkpt lat="40.013567" lon="-4.984000">
        <ele>1830.0</ele>
        <time>2013-07-06T14:15:42Z</time>
      </trkpt>
      <trkpt lat="40.013500" lon="-4.983983">
        <ele>1830.0</ele>
        <time>2013-07-06T14:15:43Z</time>
      </trkpt>
      <trkpt lat="40.013433" lon="-4.984000">
        <ele>1830.0</ele>
        <time>2013-07-06T14:15:44Z</time>
      </trkpt>
      <trkpt lat="40.013350" lon="-4.984017">
        <ele>1830.0</ele>
        <time>2013-07-06T14:15:45Z</time>
      </trkpt>
      <trkpt lat="40.013250" lon="-4.984083">
        <ele>1830.0</ele>
        <time>2013-07-06T14:15:46Z</time>
      </trkpt>
      <trkpt lat="40.013167" lon="-4.984183">
        <ele>1830.0</ele>
        <time>2013-07-06T14:15:47Z</time>
      </trkpt>
      <trkpt lat="40.013100" lon="-4.984317">
        <ele>1830.0</ele>
        <time>2013-07-06T14:15:48Z</time>
      </trkpt>
      <trkpt lat="40.013067" lon="-4.984500">
        <ele>1830.0</ele>
        <time>2013-07-06T14:15:49Z</time>
      </trkpt>
      <trkpt lat="40.013050" lon="-4.984667">
        <ele>1830.0</ele>
        <time>2013-07-06T14:15:50Z</time>
      </trkpt>
      <trkpt lat="40.013067" lon="-4.984850">
        <ele>1831.0</ele>
        <time>2013-07-06T14:15:51Z</time>
      </trkpt>
      <trkpt lat="40.013100" lon="-4.985017">
        <ele>1832.0</ele>
        <time>2013-07-06T14:15:52Z</time>
      </trkpt>
      <trkpt lat="40.013150" lon="-4.985150">
        <ele>1833.0</ele>
        <time>2013-07-06T14:15:53Z</time>
      </trkpt>
      <trkpt lat="40.013200" lon="-4.985250">
        <ele>1835.0</ele>
        <time>2013-07-06T14:15:54Z</time>
      </trkpt>
      <trkpt lat="40.013267" lon="-4.985333">
        <ele>1836.0</ele>
        <time>2013-07-06T14:15:55Z</time>
      </trkpt>
      <trkpt lat="40.013333" lon="-4.985400">
        <ele>1837.0</ele>
        <time>2013-07-06T14:15:56Z</time>
      </trkpt>
      <trkpt lat="40.013383" lon="-4.985450">
        <ele>1839.0</ele>
        <time>2013-07-06T14:15:57Z</time>
      </trkpt>
      <trkpt lat="40.013450" lon="-4.985500">
        <ele>1839.0</ele>
        <time>2013-07-06T14:15:58Z</time>
      </trkpt>
      <trkpt lat="40.013567" lon="-4.985533">
        <ele>1836.0</ele>
        <time>2013-07-06T14:16:00Z</time>
      </trkpt>
      <trkpt lat="40.013633" lon="-4.985533">
        <ele>1835.0</ele>
        <time>2013-07-06T14:16:01Z</time>
      </trkpt>
      <trkpt lat="40.013683" lon="-4.985517">
        <ele>1835.0</ele>
        <time>2013-07-06T14:16:02Z</time>
      </trkpt>
      <trkpt lat="40.013717" lon="-4.985467">
        <ele>1835.0</ele>
        <time>2013-07-06T14:16:03Z</time>
      </trkpt>
      <trkpt lat="40.013717" lon="-4.985433">
        <ele>1835.0</ele>
        <time>2013-07-06T14:16:04Z</time>
      </trkpt>
      <trkpt lat="40.013717" lon="-4.985400">
        <ele>1835.0</ele>
        <time>2013-07-06T14:16:05Z</time>
      </trkpt>
      <trkpt lat="40.013700" lon="-4.985350">
        <ele>1835.0</ele>
        <time>2013-07-06T14:16:06Z</time>
      </trkpt>
      <trkpt lat="40.013650" lon="-4.985317">
        <ele>1834.0</ele>
        <time>2013-07-06T14:16:07Z</time>
      </trkpt>
      <trkpt lat="40.013600" lon="-4.985283">
        <ele>1833.0</ele>
        <time>2013-07-06T14:16:08Z</time>
      </trkpt>
      <trkpt lat="40.013533" lon="-4.985250">
        <ele>1832.0</ele>
        <time>2013-07-06T14:16:09Z</time>
      </trkpt>
      <trkpt lat="40.013467" lon="-4.985250">
        <ele>1832.0</ele>
        <time>2013-07-06T14:16:10Z</time>
      </trkpt>
      <trkpt lat="40.013383" lon="-4.985233">
        <ele>1831.0</ele>
        <time>2013-07-06T14:16:11Z</time>
      </trkpt>
      <trkpt lat="40.013317" lon="-4.985217">
        <ele>1831.0</ele>
        <time>2013-07-06T14:16:12Z</time>
      </trkpt>
      <trkpt lat="40.013250" lon="-4.985200">
        <ele>1832.0</ele>
        <time>2013-07-06T14:16:13Z</time>
      </trkpt>
      <trkpt lat="40.013183" lon="-4.985200">
        <ele>1832.0</ele>
        <time>2013-07-06T14:16:14Z</time>
      </trkpt>
      <trkpt lat="40.013100" lon="-4.985200">
        <ele>1832.0</ele>
        <time>2013-07-06T14:16:15Z</time>
      </trkpt>
      <trkpt lat="40.013033" lon="-4.985200">
        <ele>1833.0</ele>
        <time>2013-07-06T14:16:16Z</time>
      </trkpt>
      <trkpt lat="40.012967" lon="-4.985183">
        <ele>1834.0</ele>
        <time>2013-07-06T14:16:17Z</time>
      </trkpt>
      <trkpt lat="40.012900" lon="-4.985183">
        <ele>1835.0</ele>
        <time>2013-07-06T14:16:18Z</time>
      </trkpt>
      <trkpt lat="40.012833" lon="-4.985167">
        <ele>1835.0</ele>
        <time>2013-07-06T14:16:19Z</time>
      </trkpt>
      <trkpt lat="40.012767" lon="-4.985150">
        <ele>1837.0</ele>
        <time>2013-07-06T14:16:20Z</time>
      </trkpt>
      <trkpt lat="40.012717" lon="-4.985117">
        <ele>1838.0</ele>
        <time>2013-07-06T14:16:21Z</time>
      </trkpt>
      <trkpt lat="40.012650" lon="-4.985100">
        <ele>1839.0</ele>
        <time>2013-07-06T14:16:22Z</time>
      </trkpt>
      <trkpt lat="40.012583" lon="-4.985083">
        <ele>1841.0</ele>
        <time>2013-07-06T14:16:23Z</time>
      </trkpt>
      <trkpt lat="40.012517" lon="-4.985083">
        <ele>1842.0</ele>
        <time>2013-07-06T14:16:24Z</time>
      </trkpt>
      <trkpt lat="40.012450" lon="-4.985083">
        <ele>1843.0</ele>
        <time>2013-07-06T14:16:25Z</time>
      </trkpt>
      <trkpt lat="40.012367" lon="-4.985100">
        <ele>1842.0</ele>
        <time>2013-07-06T14:16:26Z</time>
      </trkpt>
      <trkpt lat="40.012300" lon="-4.985100">
        <ele>1841.0</ele>
        <time>2013-07-06T14:16:27Z</time>
      </trkpt>
      <trkpt lat="40.012217" lon="-4.985100">
        <ele>1840.0</ele>
        <time>2013-07-06T14:16:28Z</time>
      </trkpt>
      <trkpt lat="40.012150" lon="-4.985100">
        <ele>1839.0</ele>
        <time>2013-07-06T14:16:29Z</time>
      </trkpt>
      <trkpt lat="40.012050" lon="-4.985100">
        <ele>1838.0</ele>
        <time>2013-07-06T14:16:30Z</time>
      </trkpt>
      <trkpt lat="40.011967" lon="-4.985117">
        <ele>1837.0</ele>
        <time>2013-07-06T14:16:31Z</time>
      </trkpt>
      <trkpt lat="40.011867" lon="-4.985117">
        <ele>1835.0</ele>
        <time>2013-07-06T14:16:32Z</time>
      </trkpt>
      <trkpt lat="40.011783" lon="-4.985117">
        <ele>1835.0</ele>
        <time>2013-07-06T14:16:33Z</time>
      </trkpt>
      <trkpt lat="40.011717" lon="-4.985100">
        <ele>1836.0</ele>
        <time>2013-07-06T14:16:34Z</time>
      </trkpt>
      <trkpt lat="40.011667" lon="-4.985067">
        <ele>1837.0</ele>
        <time>2013-07-06T14:16:35Z</time>
      </trkpt>
      <trkpt lat="40.011600" lon="-4.985050">
        <ele>1837.0</ele>
        <time>2013-07-06T14:16:36Z</time>
      </trkpt>
      <trkpt lat="40.011533" lon="-4.985033">
        <ele>1837.0</ele>
        <time>2013-07-06T14:16:37Z</time>
      </trkpt>
      <trkpt lat="40.011467" lon="-4.984983">
        <ele>1837.0</ele>
        <time>2013-07-06T14:16:38Z</time>
      </trkpt>
      <trkpt lat="40.011400" lon="-4.984933">
        <ele>1837.0</ele>
        <time>2013-07-06T14:16:39Z</time>
      </trkpt>
      <trkpt lat="40.011350" lon="-4.984867">
        <ele>1838.0</ele>
        <time>2013-07-06T14:16:40Z</time>
      </trkpt>
      <trkpt lat="40.011317" lon="-4.984817">
        <ele>1840.0</ele>
        <time>2013-07-06T14:16:41Z</time>
      </trkpt>
      <trkpt lat="40.011283" lon="-4.984767">
        <ele>1841.0</ele>
        <time>2013-07-06T14:16:42Z</time>
      </trkpt>
      <trkpt lat="40.011233" lon="-4.984700">
        <ele>1842.0</ele>
        <time>2013-07-06T14:16:43Z</time>
      </trkpt>
      <trkpt lat="40.011200" lon="-4.984633">
        <ele>1843.0</ele>
        <time>2013-07-06T14:16:44Z</time>
      </trkpt>
      <trkpt lat="40.011150" lon="-4.984550">
        <ele>1842.0</ele>
        <time>2013-07-06T14:16:45Z</time>
      </trkpt>
      <trkpt lat="40.011100" lon="-4.984467">
        <ele>1841.0</ele>
        <time>2013-07-06T14:16:46Z</time>
      </trkpt>
      <trkpt lat="40.011050" lon="-4.984383">
        <ele>1841.0</ele>
        <time>2013-07-06T14:16:47Z</time>
      </trkpt>
      <trkpt lat="40.011000" lon="-4.984317">
        <ele>1841.0</ele>
        <time>2013-07-06T14:16:48Z</time>
      </trkpt>
      <trkpt lat="40.010950" lon="-4.984233">
        <ele>1842.0</ele>
        <time>2013-07-06T14:16:49Z</time>
      </trkpt>
      <trkpt lat="40.010900" lon="-4.984167">
        <ele>1844.0</ele>
        <time>2013-07-06T14:16:50Z</time>
      </trkpt>
      <trkpt lat="40.010833" lon="-4.984100">
        <ele>1845.0</ele>
        <time>2013-07-06T14:16:51Z</time>
      </trkpt>
      <trkpt lat="40.010767" lon="-4.984050">
        <ele>1847.0</ele>
        <time>2013-07-06T14:16:52Z</time>
      </trkpt>
      <trkpt lat="40.010700" lon="-4.984017">
        <ele>1849.0</ele>
        <time>2013-07-06T14:16:53Z</time>
      </trkpt>
      <trkpt lat="40.010617" lon="-4.984000">
        <ele>1850.0</ele>
        <time>2013-07-06T14:16:54Z</time>
      </trkpt>
      <trkpt lat="40.010517" lon="-4.984000">
        <ele>1851.0</ele>
        <time>2013-07-06T14:16:55Z</time>
      </trkpt>
      <trkpt lat="40.010417" lon="-4.984050">
        <ele>1852.0</ele>
        <time>2013-07-06T14:16:56Z</time>
      </trkpt>
      <trkpt lat="40.010317" lon="-4.984117">
        <ele>1853.0</ele>
        <time>2013-07-06T14:16:57Z</time>
      </trkpt>
      <trkpt lat="40.010250" lon="-4.984217">
        <ele>1853.0</ele>
        <time>2013-07-06T14:16:58Z</time>
      </trkpt>
      <trkpt lat="40.010183" lon="-4.984333">
        <ele>1854.0</ele>
        <time>2013-07-06T14:16:59Z</time>
      </trkpt>
      <trkpt lat="40.010150" lon="-4.984450">
        <ele>1854.0</ele>
        <time>2013-07-06T14:17:00Z</time>
      </trkpt>
      <trkpt lat="40.010117" lon="-4.984567">
        <ele>1855.0</ele>
        <time>2013-07-06T14:17:01Z</time>
      </trkpt>
      <trkpt lat="40.010100" lon="-4.984700">
        <ele>1855.0</ele>
        <time>2013-07-06T14:17:02Z</time>
      </trkpt>
      <trkpt lat="40.010100" lon="-4.984833">
        <ele>1856.0</ele>
        <time>2013-07-06T14:17:03Z</time>
      </trkpt>
      <trkpt lat="40.010117" lon="-4.984967">
        <ele>1857.0</ele>
        <time>2013-07-06T14:17:04Z</time>
      </trkpt>
      <trkpt lat="40.010167" lon="-4.985067">
        <ele>1858.0</ele>
        <time>2013-07-06T14:17:05Z</time>
      </trkpt>
      <trkpt lat="40.010217" lon="-4.985167">
        <ele>1859.0</ele>
        <time>2013-07-06T14:17:06Z</time>
      </trkpt>
      <trkpt lat="40.010267" lon="-4.985233">
        <ele>1858.0</ele>
        <time>2013-07-06T14:17:07Z</time>
      </trkpt>
      <trkpt lat="40.010333" lon="-4.985283">
        <ele>1859.0</ele>
        <time>2013-07-06T14:17:08Z</time>
      </trkpt>
      <trkpt lat="40.010383" lon="-4.985317">
        <ele>1859.0</ele>
        <time>2013-07-06T14:17:09Z</time>
      </trkpt>
      <trkpt lat="40.010433" lon="-4.985333">
        <ele>1860.0</ele>
        <time>2013-07-06T14:17:10Z</time>
      </trkpt>
      <trkpt lat="40.010500" lon="-4.985350">
        <ele>1862.0</ele>
        <time>2013-07-06T14:17:11Z</time>
      </trkpt>
      <trkpt lat="40.010550" lon="-4.985367">
        <ele>1864.0</ele>
        <time>2013-07-06T14:17:12Z</time>
      </trkpt>
      <trkpt lat="40.010683" lon="-4.985350">
        <ele>1866.0</ele>
        <time>2013-07-06T14:17:15Z</time>
      </trkpt>
      <trkpt lat="40.010717" lon="-4.985283">
        <ele>1866.0</ele>
        <time>2013-07-06T14:17:16Z</time>
      </trkpt>
      <trkpt lat="40.010750" lon="-4.985217">
        <ele>1866.0</ele>
        <time>2013-07-06T14:17:17Z</time>
      </trkpt>
      <trkpt lat="40.010767" lon="-4.985150">
        <ele>1866.0</ele>
        <time>2013-07-06T14:17:18Z</time>
      </trkpt>
      <trkpt lat="40.010767" lon="-4.985083">
        <ele>1866.0</ele>
        <time>2013-07-06T14:17:19Z</time>
      </trkpt>
      <trkpt lat="40.010783" lon="-4.985000">
        <ele>1866.0</ele>
        <time>2013-07-06T14:17:20Z</time>
      </trkpt>
      <trkpt lat="40.010783" lon="-4.984917">
        <ele>1866.0</ele>
        <time>2013-07-06T14:17:21Z</time>
      </trkpt>
      <trkpt lat="40.010800" lon="-4.984833">
        <ele>1866.0</ele>
        <time>2013-07-06T14:17:22Z</time>
      </trkpt>
      <trkpt lat="40.010767" lon="-4.984750">
        <ele>1866.0</ele>
        <time>2013-07-06T14:17:23Z</time>
      </trkpt>
      <trkpt lat="40.010750" lon="-4.984667">
        <ele>1865.0</ele>
        <time>2013-07-06T14:17:24Z</time>
      </trkpt>
      <trkpt lat="40.010733" lon="-4.984567">
        <ele>1865.0</ele>
        <time>2013-07-06T14:17:25Z</time>
      </trkpt>
      <trkpt lat="40.010717" lon="-4.984450">
        <ele>1864.0</ele>
        <time>2013-07-06T14:17:26Z</time>
      </trkpt>
      <trkpt lat="40.010717" lon="-4.984350">
        <ele>1865.0</ele>
        <time>2013-07-06T14:17:27Z</time>
      </trkpt>
      <trkpt lat="40.010700" lon="-4.984250">
        <ele>1866.0</ele>
        <time>2013-07-06T14:17:28Z</time>
      </trkpt>
      <trkpt lat="40.010667" lon="-4.984167">
        <ele>1868.0</ele>
        <time>2013-07-06T14:17:29Z</time>
      </trkpt>
      <trkpt lat="40.010650" lon="-4.984100">
        <ele>1870.0</ele>
        <time>2013-07-06T14:17:30Z</time>
      </trkpt>
      <trkpt lat="40.010633" lon="-4.984017">
        <ele>1872.0</ele>
        <time>2013-07-06T14:17:31Z</time>
      </trkpt>
      <trkpt lat="40.010617" lon="-4.983917">
        <ele>1873.0</ele>
        <time>2013-07-06T14:17:32Z</time>
      </trkpt>
      <trkpt lat="40.010583" lon="-4.983833">
        <ele>1875.0</ele>
        <time>2013-07-06T14:17:33Z</time>
      </trkpt>
      <trkpt lat="40.010567" lon="-4.983750">
        <ele>1877.0</ele>
        <time>2013-07-06T14:17:34Z</time>
      </trkpt>
      <trkpt lat="40.010517" lon="-4.983700">
        <ele>1879.0</ele>
        <time>2013-07-06T14:17:35Z</time>
      </trkpt>
      <trkpt lat="40.010450" lon="-4.983650">
        <ele>1882.0</ele>
        <time>2013-07-06T14:17:36Z</time>
      </trkpt>
      <trkpt lat="40.010367" lon="-4.983633">
        <ele>1884.0</ele>
        <time>2013-07-06T14:17:37Z</time>
      </trkpt>
      <trkpt lat="40.010267" lon="-4.983633">
        <ele>1886.0</ele>
        <time>2013-07-06T14:17:38Z</time>
      </trkpt>
      <trkpt lat="40.010167" lon="-4.983650">
        <ele>1888.0</ele>
        <time>2013-07-06T14:17:39Z</time>
      </trkpt>
      <trkpt lat="40.010067" lon="-4.983717">
        <ele>1890.0</ele>
        <time>2013-07-06T14:17:40Z</time>
      </trkpt>
      <trkpt lat="40.009983" lon="-4.983800">
        <ele>1893.0</ele>
        <time>2013-07-06T14:17:41Z</time>
      </trkpt>
      <trkpt lat="40.009900" lon="-4.983883">
        <ele>1895.0</ele>
        <time>2013-07-06T14:17:42Z</time>
      </trkpt>
      <trkpt lat="40.009850" lon="-4.984000">
        <ele>1898.0</ele>
        <time>2013-07-06T14:17:43Z</time>
      </trkpt>
      <trkpt lat="40.009800" lon="-4.984117">
        <ele>1900.0</ele>
        <time>2013-07-06T14:17:44Z</time>
      </trkpt>
      <trkpt lat="40.009767" lon="-4.984250">
        <ele>1903.0</ele>
        <time>2013-07-06T14:17:45Z</time>
      </trkpt>
      <trkpt lat="40.009750" lon="-4.984383">
        <ele>1905.0</ele>
        <time>2013-07-06T14:17:46Z</time>
      </trkpt>
      <trkpt lat="40.009767" lon="-4.984517">
        <ele>1907.0</ele>
        <time>2013-07-06T14:17:47Z</time>
      </trkpt>
      <trkpt lat="40.009783" lon="-4.984633">
        <ele>1910.0</ele>
        <time>2013-07-06T14:17:48Z</time>
      </trkpt>
      <trkpt lat="40.009817" lon="-4.984750">
        <ele>1913.0</ele>
        <time>2013-07-06T14:17:49Z</time>
      </trkpt>
      <trkpt lat="40.009850" lon="-4.984833">
        <ele>1917.0</ele>
        <time>2013-07-06T14:17:50Z</time>
      </trkpt>
      <trkpt lat="40.009917" lon="-4.984917">
        <ele>1920.0</ele>
        <time>2013-07-06T14:17:51Z</time>
      </trkpt>
      <trkpt lat="40.009967" lon="-4.984967">
        <ele>1921.0</ele>
        <time>2013-07-06T14:17:52Z</time>
      </trkpt>
      <trkpt lat="40.010050" lon="-4.985000">
        <ele>1923.0</ele>
        <time>2013-07-06T14:17:53Z</time>
      </trkpt>
      <trkpt lat="40.010117" lon="-4.985017">
        <ele>1925.0</ele>
        <time>2013-07-06T14:17:54Z</time>
      </trkpt>
      <trkpt lat="40.010200" lon="-4.985017">
        <ele>1926.0</ele>
        <time>2013-07-06T14:17:55Z</time>
      </trkpt>
      <trkpt lat="40.010250" lon="-4.984983">
        <ele>1928.0</ele>
        <time>2013-07-06T14:17:56Z</time>
      </trkpt>
      <trkpt lat="40.010300" lon="-4.984950">
        <ele>1930.0</ele>
        <time>2013-07-06T14:17:57Z</time>
      </trkpt>
      <trkpt lat="40.010333" lon="-4.984917">
        <ele>1932.0</ele>
        <time>2013-07-06T14:17:58Z</time>
      </trkpt>
      <trkpt lat="40.010383" lon="-4.984867">
        <ele>1932.0</ele>
        <time>2013-07-06T14:17:59Z</time>
      </trkpt>
      <trkpt lat="40.010433" lon="-4.984817">
        <ele>1932.0</ele>
        <time>2013-07-06T14:18:00Z</time>
      </trkpt>
      <trkpt lat="40.010467" lon="-4.984733">
        <ele>1933.0</ele>
        <time>2013-07-06T14:18:01Z</time>
      </trkpt>
      <trkpt lat="40.010500" lon="-4.984650">
        <ele>1934.0</ele>
        <time>2013-07-06T14:18:02Z</time>
      </trkpt>
      <trkpt lat="40.010517" lon="-4.984583">
        <ele>1936.0</ele>
        <time>2013-07-06T14:18:03Z</time>
      </trkpt>
      <trkpt lat="40.010517" lon="-4.984500">
        <ele>1938.0</ele>
        <time>2013-07-06T14:18:04Z</time>
      </trkpt>
      <trkpt lat="40.010517" lon="-4.984417">
        <ele>1940.0</ele>
        <time>2013-07-06T14:18:05Z</time>
      </trkpt>
      <trkpt lat="40.010500" lon="-4.984317">
        <ele>1943.0</ele>
        <time>2013-07-06T14:18:06Z</time>
      </trkpt>
      <trkpt lat="40.010483" lon="-4.984200">
        <ele>1945.0</ele>
        <time>2013-07-06T14:18:07Z</time>
      </trkpt>
      <trkpt lat="40.010417" lon="-4.984117">
        <ele>1949.0</ele>
        <time>2013-07-06T14:18:08Z</time>
      </trkpt>
      <trkpt lat="40.010367" lon="-4.984067">
        <ele>1954.0</ele>
        <time>2013-07-06T14:18:09Z</time>
      </trkpt>
      <trkpt lat="40.010317" lon="-4.984017">
        <ele>1957.0</ele>
        <time>2013-07-06T14:18:10Z</time>
      </trkpt>
      <trkpt lat="40.010233" lon="-4.983967">
        <ele>1960.0</ele>
        <time>2013-07-06T14:18:11Z</time>
      </trkpt>
      <trkpt lat="40.010150" lon="-4.983900">
        <ele>1962.0</ele>
        <time>2013-07-06T14:18:12Z</time>
      </trkpt>
      <trkpt lat="40.010067" lon="-4.983867">
        <ele>1963.0</ele>
        <time>2013-07-06T14:18:13Z</time>
      </trkpt>
      <trkpt lat="40.009967" lon="-4.983867">
        <ele>1966.0</ele>
        <time>2013-07-06T14:18:14Z</time>
      </trkpt>
      <trkpt lat="40.009850" lon="-4.983900">
        <ele>1968.0</ele>
        <time>2013-07-06T14:18:15Z</time>
      </trkpt>
      <trkpt lat="40.009767" lon="-4.983950">
        <ele>1971.0</ele>
        <time>2013-07-06T14:18:16Z</time>
      </trkpt>
      <trkpt lat="40.009667" lon="-4.984017">
        <ele>1973.0</ele>
        <time>2013-07-06T14:18:17Z</time>
      </trkpt>
      <trkpt lat="40.009583" lon="-4.984100">
        <ele>1976.0</ele>
        <time>2013-07-06T14:18:18Z</time>
      </trkpt>
      <trkpt lat="40.009483" lon="-4.984183">
        <ele>1978.0</ele>
        <time>2013-07-06T14:18:19Z</time>
      </trkpt>
      <trkpt lat="40.009400" lon="-4.984317">
        <ele>1980.0</ele>
        <time>2013-07-06T14:18:20Z</time>
      </trkpt>
      <trkpt lat="40.009333" lon="-4.984450">
        <ele>1982.0</ele>
        <time>2013-07-06T14:18:21Z</time>
      </trkpt>
      <trkpt lat="40.009300" lon="-4.984600">
        <ele>1984.0</ele>
        <time>2013-07-06T14:18:22Z</time>
      </trkpt>
      <trkpt lat="40.009283" lon="-4.984733">
        <ele>1986.0</ele>
        <time>2013-07-06T14:18:23Z</time>
      </trkpt>
      <trkpt lat="40.009283" lon="-4.984867">
        <ele>1988.0</ele>
        <time>2013-07-06T14:18:24Z</time>
      </trkpt>
      <trkpt lat="40.009283" lon="-4.985017">
        <ele>1991.0</ele>
        <time>2013-07-06T14:18:25Z</time>
      </trkpt>
      <trkpt lat="40.009300" lon="-4.985150">
        <ele>1993.0</ele>
        <time>2013-07-06T14:18:26Z</time>
      </trkpt>
      <trkpt lat="40.009333" lon="-4.985283">
        <ele>1996.0</ele>
        <time>2013-07-06T14:18:27Z</time>
      </trkpt>
      <trkpt lat="40.009367" lon="-4.985400">
        <ele>1998.0</ele>
        <time>2013-07-06T14:18:28Z</time>
      </trkpt>
      <trkpt lat="40.009417" lon="-4.985483">
        <ele>2000.0</ele>
        <time>2013-07-06T14:18:29Z</time>
      </trkpt>
      <trkpt lat="40.009467" lon="-4.985567">
        <ele>2002.0</ele>
        <time>2013-07-06T14:18:30Z</time>
      </trkpt>
      <trkpt lat="40.009533" lon="-4.985650">
        <ele>2004.0</ele>
        <time>2013-07-06T14:18:31Z</time>
      </trkpt>
      <trkpt lat="40.009650" lon="-4.985750">
        <ele>2009.0</ele>
        <time>2013-07-06T14:18:33Z</time>
      </trkpt>
      <trkpt lat="40.009700" lon="-4.985750">
        <ele>2012.0</ele>
        <time>2013-07-06T14:18:34Z</time>
      </trkpt>
      <trkpt lat="40.009750" lon="-4.985750">
        <ele>2013.0</ele>
        <time>2013-07-06T14:18:35Z</time>
      </trkpt>
      <trkpt lat="40.009817" lon="-4.985750">
        <ele>2014.0</ele>
        <time>2013-07-06T14:18:36Z</time>
      </trkpt>
      <trkpt lat="40.009883" lon="-4.985750">
        <ele>2014.0</ele>
        <time>2013-07-06T14:18:37Z</time>
      </trkpt>
      <trkpt lat="40.009967" lon="-4.985717">
        <ele>2014.0</ele>
        <time>2013-07-06T14:18:38Z</time>
      </trkpt>
      <trkpt lat="40.010033" lon="-4.985683">
        <ele>2016.0</ele>
        <time>2013-07-06T14:18:39Z</time>
      </trkpt>
      <trkpt lat="40.010067" lon="-4.985633">
        <ele>2018.0</ele>
        <time>2013-07-06T14:18:40Z</time>
      </trkpt>
      <trkpt lat="40.010100" lon="-4.985583">
        <ele>2020.0</ele>
        <time>2013-07-06T14:18:41Z</time>
      </trkpt>
      <trkpt lat="40.010100" lon="-4.985500">
        <ele>2022.0</ele>
        <time>2013-07-06T14:18:42Z</time>
      </trkpt>
      <trkpt lat="40.010100" lon="-4.985400">
        <ele>2024.0</ele>
        <time>2013-07-06T14:18:43Z</time>
      </trkpt>
      <trkpt lat="40.010100" lon="-4.985317">
        <ele>2027.0</ele>
        <time>2013-07-06T14:18:44Z</time>
      </trkpt>
      <trkpt lat="40.010083" lon="-4.985250">
        <ele>2032.0</ele>
        <time>2013-07-06T14:18:45Z</time>
      </trkpt>
      <trkpt lat="40.010050" lon="-4.985167">
        <ele>2035.0</ele>
        <time>2013-07-06T14:18:46Z</time>
      </trkpt>
      <trkpt lat="40.010017" lon="-4.985100">
        <ele>2039.0</ele>
        <time>2013-07-06T14:18:47Z</time>
      </trkpt>
      <trkpt lat="40.009950" lon="-4.985033">
        <ele>2041.0</ele>
        <time>2013-07-06T14:18:48Z</time>
      </trkpt>
      <trkpt lat="40.009867" lon="-4.984983">
        <ele>2043.0</ele>
        <time>2013-07-06T14:18:49Z</time>
      </trkpt>
      <trkpt lat="40.009783" lon="-4.984967">
        <ele>2044.0</ele>
        <time>2013-07-06T14:18:50Z</time>
      </trkpt>
      <trkpt lat="40.009683" lon="-4.984950">
        <ele>2044.0</ele>
        <time>2013-07-06T14:18:51Z</time>
      </trkpt>
      <trkpt lat="40.009600" lon="-4.984950">
        <ele>2046.0</ele>
        <time>2013-07-06T14:18:52Z</time>
      </trkpt>
      <trkpt lat="40.009500" lon="-4.984967">
        <ele>2047.0</ele>
        <time>2013-07-06T14:18:53Z</time>
      </trkpt>
      <trkpt lat="40.009383" lon="-4.985000">
        <ele>2048.0</ele>
        <time>2013-07-06T14:18:54Z</time>
      </trkpt>
      <trkpt lat="40.009283" lon="-4.985050">
        <ele>2048.0</ele>
        <time>2013-07-06T14:18:55Z</time>
      </trkpt>
      <trkpt lat="40.009183" lon="-4.985117">
        <ele>2049.0</ele>
        <time>2013-07-06T14:18:56Z</time>
      </trkpt>
      <trkpt lat="40.009083" lon="-4.985217">
        <ele>2049.0</ele>
        <time>2013-07-06T14:18:57Z</time>
      </trkpt>
      <trkpt lat="40.009000" lon="-4.985350">
        <ele>2050.0</ele>
        <time>2013-07-06T14:18:58Z</time>
      </trkpt>
      <trkpt lat="40.008917" lon="-4.985483">
        <ele>2050.0</ele>
        <time>2013-07-06T14:18:59Z</time>
      </trkpt>
      <trkpt lat="40.008867" lon="-4.985633">
        <ele>2050.0</ele>
        <time>2013-07-06T14:19:00Z</time>
      </trkpt>
      <trkpt lat="40.008817" lon="-4.985783">
        <ele>2050.0</ele>
        <time>2013-07-06T14:19:01Z</time>
      </trkpt>
      <trkpt lat="40.008817" lon="-4.985933">
        <ele>2051.0</ele>
        <time>2013-07-06T14:19:02Z</time>
      </trkpt>
      <trkpt lat="40.008817" lon="-4.986067">
        <ele>2053.0</ele>
        <time>2013-07-06T14:19:03Z</time>
      </trkpt>
      <trkpt lat="40.008850" lon="-4.986200">
        <ele>2054.0</ele>
        <time>2013-07-06T14:19:04Z</time>
      </trkpt>
      <trkpt lat="40.008867" lon="-4.986317">
        <ele>2057.0</ele>
        <time>2013-07-06T14:19:05Z</time>
      </trkpt>
      <trkpt lat="40.008917" lon="-4.986417">
        <ele>2058.0</ele>
        <time>2013-07-06T14:19:06Z</time>
      </trkpt>
      <trkpt lat="40.008967" lon="-4.986517">
        <ele>2059.0</ele>
        <time>2013-07-06T14:19:07Z</time>
      </trkpt>
      <trkpt lat="40.009033" lon="-4.986600">
        <ele>2060.0</ele>
        <time>2013-07-06T14:19:08Z</time>
      </trkpt>
      <trkpt lat="40.009083" lon="-4.986667">
        <ele>2061.0</ele>
        <time>2013-07-06T14:19:09Z</time>
      </trkpt>
      <trkpt lat="40.009150" lon="-4.986700">
        <ele>2062.0</ele>
        <time>2013-07-06T14:19:10Z</time>
      </trkpt>
      <trkpt lat="40.009200" lon="-4.986717">
        <ele>2064.0</ele>
        <time>2013-07-06T14:19:11Z</time>
      </trkpt>
      <trkpt lat="40.009250" lon="-4.986733">
        <ele>2066.0</ele>
        <time>2013-07-06T14:19:12Z</time>
      </trkpt>
      <trkpt lat="40.009333" lon="-4.986700">
        <ele>2069.0</ele>
        <time>2013-07-06T14:19:14Z</time>
      </trkpt>
      <trkpt lat="40.009400" lon="-4.986667">
        <ele>2069.0</ele>
        <time>2013-07-06T14:19:15Z</time>
      </trkpt>
      <trkpt lat="40.009450" lon="-4.986633">
        <ele>2069.0</ele>
        <time>2013-07-06T14:19:16Z</time>
      </trkpt>
      <trkpt lat="40.009500" lon="-4.986600">
        <ele>2071.0</ele>
        <time>2013-07-06T14:19:17Z</time>
      </trkpt>
      <trkpt lat="40.009583" lon="-4.986550">
        <ele>2075.0</ele>
        <time>2013-07-06T14:19:19Z</time>
      </trkpt>
      <trkpt lat="40.009600" lon="-4.986500">
        <ele>2077.0</ele>
        <time>2013-07-06T14:19:20Z</time>
      </trkpt>
      <trkpt lat="40.009617" lon="-4.986433">
        <ele>2078.0</ele>
        <time>2013-07-06T14:19:21Z</time>
      </trkpt>
      <trkpt lat="40.009617" lon="-4.986350">
        <ele>2078.0</ele>
        <time>2013-07-06T14:19:22Z</time>
      </trkpt>
      <trkpt lat="40.009583" lon="-4.986267">
        <ele>2079.0</ele>
        <time>2013-07-06T14:19:23Z</time>
      </trkpt>
      <trkpt lat="40.009517" lon="-4.986233">
        <ele>2082.0</ele>
        <time>2013-07-06T14:19:24Z</time>
      </trkpt>
      <trkpt lat="40.009450" lon="-4.986217">
        <ele>2086.0</ele>
        <time>2013-07-06T14:19:25Z</time>
      </trkpt>
      <trkpt lat="40.009383" lon="-4.986233">
        <ele>2089.0</ele>
        <time>2013-07-06T14:19:26Z</time>
      </trkpt>
      <trkpt lat="40.009300" lon="-4.986233">
        <ele>2091.0</ele>
        <time>2013-07-06T14:19:27Z</time>
      </trkpt>
      <trkpt lat="40.009200" lon="-4.986217">
        <ele>2092.0</ele>
        <time>2013-07-06T14:19:28Z</time>
      </trkpt>
      <trkpt lat="40.009100" lon="-4.986217">
        <ele>2093.0</ele>
        <time>2013-07-06T14:19:29Z</time>
      </trkpt>
      <trkpt lat="40.008983" lon="-4.986250">
        <ele>2094.0</ele>
        <time>2013-07-06T14:19:30Z</time>
      </trkpt>
      <trkpt lat="40.008867" lon="-4.986300">
        <ele>2094.0</ele>
        <time>2013-07-06T14:19:31Z</time>
      </trkpt>
      <trkpt lat="40.008767" lon="-4.986367">
        <ele>2095.0</ele>
        <time>2013-07-06T14:19:32Z</time>
      </trkpt>
      <trkpt lat="40.008683" lon="-4.986433">
        <ele>2097.0</ele>
        <time>2013-07-06T14:19:33Z</time>
      </trkpt>
      <trkpt lat="40.008600" lon="-4.986517">
        <ele>2098.0</ele>
        <time>2013-07-06T14:19:34Z</time>
      </trkpt>
      <trkpt lat="40.008517" lon="-4.986600">
        <ele>2100.0</ele>
        <time>2013-07-06T14:19:35Z</time>
      </trkpt>
      <trkpt lat="40.008433" lon="-4.986717">
        <ele>2101.0</ele>
        <time>2013-07-06T14:19:36Z</time>
      </trkpt>
      <trkpt lat="40.008350" lon="-4.986850">
        <ele>2101.0</ele>
        <time>2013-07-06T14:19:37Z</time>
      </trkpt>
      <trkpt lat="40.008283" lon="-4.986983">
        <ele>2102.0</ele>
        <time>2013-07-06T14:19:38Z</time>
      </trkpt>
      <trkpt lat="40.008250" lon="-4.987133">
        <ele>2103.0</ele>
        <time>2013-07-06T14:19:39Z</time>
      </trkpt>
      <trkpt lat="40.008233" lon="-4.987267">
        <ele>2104.0</ele>
        <time>2013-07-06T14:19:40Z</time>
      </trkpt>
      <trkpt lat="40.008233" lon="-4.987400">
        <ele>2105.0</ele>
        <time>2013-07-06T14:19:41Z</time>
      </trkpt>
      <trkpt lat="40.008250" lon="-4.987533">
        <ele>2106.0</ele>
        <time>2013-07-06T14:19:42Z</time>
      </trkpt>
      <trkpt lat="40.008283" lon="-4.987650">
        <ele>2107.0</ele>
        <time>2013-07-06T14:19:43Z</time>
      </trkpt>
      <trkpt lat="40.008317" lon="-4.987767">
        <ele>2108.0</ele>
        <time>2013-07-06T14:19:44Z</time>
      </trkpt>
      <trkpt lat="40.008350" lon="-4.987883">
        <ele>2109.0</ele>
        <time>2013-07-06T14:19:45Z</time>
      </trkpt>
      <trkpt lat="40.008400" lon="-4.987967">
        <ele>2109.0</ele>
        <time>2013-07-06T14:19:46Z</time>
      </trkpt>
      <trkpt lat="40.008467" lon="-4.988033">
        <ele>2110.0</ele>
        <time>2013-07-06T14:19:47Z</time>
      </trkpt>
      <trkpt lat="40.008533" lon="-4.988067">
        <ele>2110.0</ele>
        <time>2013-07-06T14:19:48Z</time>
      </trkpt>
      <trkpt lat="40.008600" lon="-4.988117">
        <ele>2110.0</ele>
        <time>2013-07-06T14:19:49Z</time>
      </trkpt>
      <trkpt lat="40.008667" lon="-4.988133">
        <ele>2110.0</ele>
        <time>2013-07-06T14:19:50Z</time>
      </trkpt>
      <trkpt lat="40.008733" lon="-4.988133">
        <ele>2110.0</ele>
        <time>2013-07-06T14:19:51Z</time>
      </trkpt>
      <trkpt lat="40.008800" lon="-4.988133">
        <ele>2111.0</ele>
        <time>2013-07-06T14:19:52Z</time>
      </trkpt>
      <trkpt lat="40.008833" lon="-4.988100">
        <ele>2111.0</ele>
        <time>2013-07-06T14:19:53Z</time>
      </trkpt>
      <trkpt lat="40.008867" lon="-4.988050">
        <ele>2111.0</ele>
        <time>2013-07-06T14:19:54Z</time>
      </trkpt>
      <trkpt lat="40.008883" lon="-4.987983">
        <ele>2112.0</ele>
        <time>2013-07-06T14:19:55Z</time>
      </trkpt>
      <trkpt lat="40.008900" lon="-4.987917">
        <ele>2111.0</ele>
        <time>2013-07-06T14:19:56Z</time>
      </trkpt>
      <trkpt lat="40.008900" lon="-4.987850">
        <ele>2111.0</ele>
        <time>2013-07-06T14:19:57Z</time>
      </trkpt>
      <trkpt lat="40.008900" lon="-4.987767">
        <ele>2112.0</ele>
        <time>2013-07-06T14:19:58Z</time>
      </trkpt>
      <trkpt lat="40.008883" lon="-4.987700">
        <ele>2113.0</ele>
        <time>2013-07-06T14:19:59Z</time>
      </trkpt>
      <trkpt lat="40.008867" lon="-4.987617">
        <ele>2114.0</ele>
        <time>2013-07-06T14:20:00Z</time>
      </trkpt>
      <trkpt lat="40.008817" lon="-4.987533">
        <ele>2115.0</ele>
        <time>2013-07-06T14:20:01Z</time>
      </trkpt>
      <trkpt lat="40.008783" lon="-4.987450">
        <ele>2117.0</ele>
        <time>2013-07-06T14:20:02Z</time>
      </trkpt>
      <trkpt lat="40.008750" lon="-4.987367">
        <ele>2119.0</ele>
        <time>2013-07-06T14:20:03Z</time>
      </trkpt>
      <trkpt lat="40.008717" lon="-4.987283">
        <ele>2122.0</ele>
        <time>2013-07-06T14:20:04Z</time>
      </trkpt>
      <trkpt lat="40.008667" lon="-4.987217">
        <ele>2124.0</ele>
        <time>2013-07-06T14:20:05Z</time>
      </trkpt>
      <trkpt lat="40.008617" lon="-4.987167">
        <ele>2125.0</ele>
        <time>2013-07-06T14:20:06Z</time>
      </trkpt>
      <trkpt lat="40.008550" lon="-4.987100">
        <ele>2125.0</ele>
        <time>2013-07-06T14:20:07Z</time>
      </trkpt>
      <trkpt lat="40.008483" lon="-4.987033">
        <ele>2123.0</ele>
        <time>2013-07-06T14:20:08Z</time>
      </trkpt>
      <trkpt lat="40.008417" lon="-4.986950">
        <ele>2122.0</ele>
        <time>2013-07-06T14:20:09Z</time>
      </trkpt>
      <trkpt lat="40.008350" lon="-4.986883">
        <ele>2121.0</ele>
        <time>2013-07-06T14:20:10Z</time>
      </trkpt>
      <trkpt lat="40.008300" lon="-4.986833">
        <ele>2120.0</ele>
        <time>2013-07-06T14:20:11Z</time>
      </trkpt>
      <trkpt lat="40.008250" lon="-4.986783">
        <ele>2119.0</ele>
        <time>2013-07-06T14:20:12Z</time>
      </trkpt>
      <trkpt lat="40.008200" lon="-4.986750">
        <ele>2117.0</ele>
        <time>2013-07-06T14:20:13Z</time>
      </trkpt>
      <trkpt lat="40.008133" lon="-4.986700">
        <ele>2114.0</ele>
        <time>2013-07-06T14:20:14Z</time>
      </trkpt>
      <trkpt lat="40.008067" lon="-4.986633">
        <ele>2109.0</ele>
        <time>2013-07-06T14:20:15Z</time>
      </trkpt>
      <trkpt lat="40.008017" lon="-4.986567">
        <ele>2106.0</ele>
        <time>2013-07-06T14:20:16Z</time>
      </trkpt>
      <trkpt lat="40.007967" lon="-4.986517">
        <ele>2105.0</ele>
        <time>2013-07-06T14:20:17Z</time>
      </trkpt>
      <trkpt lat="40.007917" lon="-4.986467">
        <ele>2104.0</ele>
        <time>2013-07-06T14:20:18Z</time>
      </trkpt>
      <trkpt lat="40.007850" lon="-4.986417">
        <ele>2103.0</ele>
        <time>2013-07-06T14:20:19Z</time>
      </trkpt>
      <trkpt lat="40.007800" lon="-4.986367">
        <ele>2101.0</ele>
        <time>2013-07-06T14:20:20Z</time>
      </trkpt>
      <trkpt lat="40.007750" lon="-4.986300">
        <ele>2098.0</ele>
        <time>2013-07-06T14:20:21Z</time>
      </trkpt>
      <trkpt lat="40.007683" lon="-4.986233">
        <ele>2094.0</ele>
        <time>2013-07-06T14:20:22Z</time>
      </trkpt>
      <trkpt lat="40.007617" lon="-4.986167">
        <ele>2092.0</ele>
        <time>2013-07-06T14:20:23Z</time>
      </trkpt>
      <trkpt lat="40.007567" lon="-4.986117">
        <ele>2090.0</ele>
        <time>2013-07-06T14:20:24Z</time>
      </trkpt>
      <trkpt lat="40.007500" lon="-4.986050">
        <ele>2088.0</ele>
        <time>2013-07-06T14:20:25Z</time>
      </trkpt>
      <trkpt lat="40.007450" lon="-4.986000">
        <ele>2087.0</ele>
        <time>2013-07-06T14:20:26Z</time>
      </trkpt>
      <trkpt lat="40.007400" lon="-4.985950">
        <ele>2084.0</ele>
        <time>2013-07-06T14:20:27Z</time>
      </trkpt>
      <trkpt lat="40.007350" lon="-4.985883">
        <ele>2081.0</ele>
        <time>2013-07-06T14:20:28Z</time>
      </trkpt>
      <trkpt lat="40.007283" lon="-4.985817">
        <ele>2078.0</ele>
        <time>2013-07-06T14:20:29Z</time>
      </trkpt>
      <trkpt lat="40.007217" lon="-4.985750">
        <ele>2074.0</ele>
        <time>2013-07-06T14:20:30Z</time>
      </trkpt>
      <trkpt lat="40.007150" lon="-4.985683">
        <ele>2072.0</ele>
        <time>2013-07-06T14:20:31Z</time>
      </trkpt>
      <trkpt lat="40.007083" lon="-4.985617">
        <ele>2070.0</ele>
        <time>2013-07-06T14:20:32Z</time>
      </trkpt>
      <trkpt lat="40.007033" lon="-4.985550">
        <ele>2068.0</ele>
        <time>2013-07-06T14:20:33Z</time>
      </trkpt>
      <trkpt lat="40.006967" lon="-4.985483">
        <ele>2066.0</ele>
        <time>2013-07-06T14:20:34Z</time>
      </trkpt>
      <trkpt lat="40.006917" lon="-4.985417">
        <ele>2064.0</ele>
        <time>2013-07-06T14:20:35Z</time>
      </trkpt>
      <trkpt lat="40.006850" lon="-4.985350">
        <ele>2061.0</ele>
        <time>2013-07-06T14:20:36Z</time>
      </trkpt>
      <trkpt lat="40.006800" lon="-4.985267">
        <ele>2059.0</ele>
        <time>2013-07-06T14:20:37Z</time>
      </trkpt>
      <trkpt lat="40.006733" lon="-4.985200">
        <ele>2057.0</ele>
        <time>2013-07-06T14:20:38Z</time>
      </trkpt>
      <trkpt lat="40.006683" lon="-4.985133">
        <ele>2055.0</ele>
        <time>2013-07-06T14:20:39Z</time>
      </trkpt>
      <trkpt lat="40.006617" lon="-4.985067">
        <ele>2053.0</ele>
        <time>2013-07-06T14:20:40Z</time>
      </trkpt>
      <trkpt lat="40.006567" lon="-4.985000">
        <ele>2050.0</ele>
        <time>2013-07-06T14:20:41Z</time>
      </trkpt>
      <trkpt lat="40.006500" lon="-4.984917">
        <ele>2047.0</ele>
        <time>2013-07-06T14:20:42Z</time>
      </trkpt>
      <trkpt lat="40.006433" lon="-4.984850">
        <ele>2045.0</ele>
        <time>2013-07-06T14:20:43Z</time>
      </trkpt>
      <trkpt lat="40.006383" lon="-4.984783">
        <ele>2043.0</ele>
        <time>2013-07-06T14:20:44Z</time>
      </trkpt>
      <trkpt lat="40.006333" lon="-4.984717">
        <ele>2042.0</ele>
        <time>2013-07-06T14:20:45Z</time>
      </trkpt>
      <trkpt lat="40.006267" lon="-4.984650">
        <ele>2041.0</ele>
        <time>2013-07-06T14:20:46Z</time>
      </trkpt>
      <trkpt lat="40.006217" lon="-4.984583">
        <ele>2039.0</ele>
        <time>2013-07-06T14:20:47Z</time>
      </trkpt>
      <trkpt lat="40.006167" lon="-4.984517">
        <ele>2038.0</ele>
        <time>2013-07-06T14:20:48Z</time>
      </trkpt>
      <trkpt lat="40.006117" lon="-4.984433">
        <ele>2036.0</ele>
        <time>2013-07-06T14:20:49Z</time>
      </trkpt>
      <trkpt lat="40.006067" lon="-4.984367">
        <ele>2035.0</ele>
        <time>2013-07-06T14:20:50Z</time>
      </trkpt>
      <trkpt lat="40.006033" lon="-4.984317">
        <ele>2034.0</ele>
        <time>2013-07-06T14:20:51Z</time>
      </trkpt>
      <trkpt lat="40.005983" lon="-4.984250">
        <ele>2032.0</ele>
        <time>2013-07-06T14:20:52Z</time>
      </trkpt>
      <trkpt lat="40.005917" lon="-4.984183">
        <ele>2030.0</ele>
        <time>2013-07-06T14:20:53Z</time>
      </trkpt>
      <trkpt lat="40.005867" lon="-4.984117">
        <ele>2028.0</ele>
        <time>2013-07-06T14:20:54Z</time>
      </trkpt>
      <trkpt lat="40.005817" lon="-4.984050">
        <ele>2025.0</ele>
        <time>2013-07-06T14:20:55Z</time>
      </trkpt>
      <trkpt lat="40.005767" lon="-4.983983">
        <ele>2023.0</ele>
        <time>2013-07-06T14:20:56Z</time>
      </trkpt>
      <trkpt lat="40.005717" lon="-4.983900">
        <ele>2021.0</ele>
        <time>2013-07-06T14:20:57Z</time>
      </trkpt>
      <trkpt lat="40.005683" lon="-4.983833">
        <ele>2019.0</ele>
        <time>2013-07-06T14:20:58Z</time>
      </trkpt>
      <trkpt lat="40.005633" lon="-4.983767">
        <ele>2017.0</ele>
        <time>2013-07-06T14:20:59Z</time>
      </trkpt>
      <trkpt lat="40.005583" lon="-4.983683">
        <ele>2015.0</ele>
        <time>2013-07-06T14:21:00Z</time>
      </trkpt>
      <trkpt lat="40.005533" lon="-4.983617">
        <ele>2013.0</ele>
        <time>2013-07-06T14:21:01Z</time>
      </trkpt>
      <trkpt lat="40.005483" lon="-4.983533">
        <ele>2010.0</ele>
        <time>2013-07-06T14:21:02Z</time>
      </trkpt>
      <trkpt lat="40.005433" lon="-4.983467">
        <ele>2007.0</ele>
        <time>2013-07-06T14:21:03Z</time>
      </trkpt>
      <trkpt lat="40.005383" lon="-4.983417">
        <ele>2005.0</ele>
        <time>2013-07-06T14:21:04Z</time>
      </trkpt>
      <trkpt lat="40.005333" lon="-4.983367">
        <ele>2003.0</ele>
        <time>2013-07-06T14:21:05Z</time>
      </trkpt>
      <trkpt lat="40.005283" lon="-4.983333">
        <ele>2001.0</ele>
        <time>2013-07-06T14:21:06Z</time>
      </trkpt>
      <trkpt lat="40.005233" lon="-4.983283">
        <ele>1999.0</ele>
        <time>2013-07-06T14:21:07Z</time>
      </trkpt>
      <trkpt lat="40.005200" lon="-4.983217">
        <ele>1997.0</ele>
        <time>2013-07-06T14:21:08Z</time>
      </trkpt>
      <trkpt lat="40.005150" lon="-4.983150">
        <ele>1994.0</ele>
        <time>2013-07-06T14:21:09Z</time>
      </trkpt>
      <trkpt lat="40.005083" lon="-4.983083">
        <ele>1992.0</ele>
        <time>2013-07-06T14:21:10Z</time>
      </trkpt>
      <trkpt lat="40.005033" lon="-4.983033">
        <ele>1990.0</ele>
        <time>2013-07-06T14:21:11Z</time>
      </trkpt>
      <trkpt lat="40.005000" lon="-4.982983">
        <ele>1989.0</ele>
        <time>2013-07-06T14:21:12Z</time>
      </trkpt>
      <trkpt lat="40.004967" lon="-4.982933">
        <ele>1988.0</ele>
        <time>2013-07-06T14:21:13Z</time>
      </trkpt>
      <trkpt lat="40.004933" lon="-4.982867">
        <ele>1986.0</ele>
        <time>2013-07-06T14:21:14Z</time>
      </trkpt>
      <trkpt lat="40.004900" lon="-4.982783">
        <ele>1983.0</ele>
        <time>2013-07-06T14:21:15Z</time>
      </trkpt>
      <trkpt lat="40.004867" lon="-4.982717">
        <ele>1981.0</ele>
        <time>2013-07-06T14:21:16Z</time>
      </trkpt>
      <trkpt lat="40.004833" lon="-4.982650">
        <ele>1979.0</ele>
        <time>2013-07-06T14:21:17Z</time>
      </trkpt>
      <trkpt lat="40.004783" lon="-4.982600">
        <ele>1978.0</ele>
        <time>2013-07-06T14:21:18Z</time>
      </trkpt>
      <trkpt lat="40.004750" lon="-4.982533">
        <ele>1976.0</ele>
        <time>2013-07-06T14:21:19Z</time>
      </trkpt>
      <trkpt lat="40.004733" lon="-4.982467">
        <ele>1975.0</ele>
        <time>2013-07-06T14:21:20Z</time>
      </trkpt>
      <trkpt lat="40.004700" lon="-4.982400">
        <ele>1973.0</ele>
        <time>2013-07-06T14:21:21Z</time>
      </trkpt>
      <trkpt lat="40.004683" lon="-4.982333">
        <ele>1972.0</ele>
        <time>2013-07-06T14:21:22Z</time>
      </trkpt>
      <trkpt lat="40.004650" lon="-4.982250">
        <ele>1970.0</ele>
        <time>2013-07-06T14:21:23Z</time>
      </trkpt>
      <trkpt lat="40.004617" lon="-4.982183">
        <ele>1969.0</ele>
        <time>2013-07-06T14:21:24Z</time>
      </trkpt>
      <trkpt lat="40.004583" lon="-4.982100">
        <ele>1967.0</ele>
        <time>2013-07-06T14:21:25Z</time>
      </trkpt>
      <trkpt lat="40.004533" lon="-4.982017">
        <ele>1966.0</ele>
        <time>2013-07-06T14:21:26Z</time>
      </trkpt>
      <trkpt lat="40.004500" lon="-4.981933">
        <ele>1966.0</ele>
        <time>2013-07-06T14:21:27Z</time>
      </trkpt>
      <trkpt lat="40.004450" lon="-4.981850">
        <ele>1966.0</ele>
        <time>2013-07-06T14:21:28Z</time>
      </trkpt>
      <trkpt lat="40.004417" lon="-4.981783">
        <ele>1966.0</ele>
        <time>2013-07-06T14:21:29Z</time>
      </trkpt>
      <trkpt lat="40.004383" lon="-4.981700">
        <ele>1966.0</ele>
        <time>2013-07-06T14:21:30Z</time>
      </trkpt>
      <trkpt lat="40.004333" lon="-4.981617">
        <ele>1967.0</ele>
        <time>2013-07-06T14:21:31Z</time>
      </trkpt>
      <trkpt lat="40.004300" lon="-4.981550">
        <ele>1968.0</ele>
        <time>2013-07-06T14:21:32Z</time>
      </trkpt>
      <trkpt lat="40.004250" lon="-4.981500">
        <ele>1969.0</ele>
        <time>2013-07-06T14:21:33Z</time>
      </trkpt>
      <trkpt lat="40.004200" lon="-4.981450">
        <ele>1970.0</ele>
        <time>2013-07-06T14:21:34Z</time>
      </trkpt>
      <trkpt lat="40.004150" lon="-4.981383">
        <ele>1969.0</ele>
        <time>2013-07-06T14:21:35Z</time>
      </trkpt>
      <trkpt lat="40.004100" lon="-4.981317">
        <ele>1969.0</ele>
        <time>2013-07-06T14:21:36Z</time>
      </trkpt>
      <trkpt lat="40.004050" lon="-4.981267">
        <ele>1968.0</ele>
        <time>2013-07-06T14:21:37Z</time>
      </trkpt>
      <trkpt lat="40.003983" lon="-4.981200">
        <ele>1967.0</ele>
        <time>2013-07-06T14:21:38Z</time>
      </trkpt>
      <trkpt lat="40.003917" lon="-4.981150">
        <ele>1966.0</ele>
        <time>2013-07-06T14:21:39Z</time>
      </trkpt>
      <trkpt lat="40.003867" lon="-4.981083">
        <ele>1965.0</ele>
        <time>2013-07-06T14:21:40Z</time>
      </trkpt>
      <trkpt lat="40.003817" lon="-4.981017">
        <ele>1964.0</ele>
        <time>2013-07-06T14:21:41Z</time>
      </trkpt>
      <trkpt lat="40.003767" lon="-4.980950">
        <ele>1963.0</ele>
        <time>2013-07-06T14:21:42Z</time>
      </trkpt>
      <trkpt lat="40.003700" lon="-4.980883">
        <ele>1961.0</ele>
        <time>2013-07-06T14:21:43Z</time>
      </trkpt>
      <trkpt lat="40.003650" lon="-4.980817">
        <ele>1960.0</ele>
        <time>2013-07-06T14:21:44Z</time>
      </trkpt>
      <trkpt lat="40.003600" lon="-4.980733">
        <ele>1958.0</ele>
        <time>2013-07-06T14:21:45Z</time>
      </trkpt>
      <trkpt lat="40.003567" lon="-4.980650">
        <ele>1957.0</ele>
        <time>2013-07-06T14:21:46Z</time>
      </trkpt>
      <trkpt lat="40.003533" lon="-4.980567">
        <ele>1956.0</ele>
        <time>2013-07-06T14:21:47Z</time>
      </trkpt>
      <trkpt lat="40.003517" lon="-4.980500">
        <ele>1956.0</ele>
        <time>2013-07-06T14:21:48Z</time>
      </trkpt>
      <trkpt lat="40.003483" lon="-4.980433">
        <ele>1958.0</ele>
        <time>2013-07-06T14:21:49Z</time>
      </trkpt>
      <trkpt lat="40.003450" lon="-4.980383">
        <ele>1959.0</ele>
        <time>2013-07-06T14:21:50Z</time>
      </trkpt>
      <trkpt lat="40.003433" lon="-4.980317">
        <ele>1960.0</ele>
        <time>2013-07-06T14:21:51Z</time>
      </trkpt>
      <trkpt lat="40.003400" lon="-4.980250">
        <ele>1961.0</ele>
        <time>2013-07-06T14:21:52Z</time>
      </trkpt>
      <trkpt lat="40.003383" lon="-4.980183">
        <ele>1961.0</ele>
        <time>2013-07-06T14:21:53Z</time>
      </trkpt>
      <trkpt lat="40.003350" lon="-4.980117">
        <ele>1962.0</ele>
        <time>2013-07-06T14:21:54Z</time>
      </trkpt>
      <trkpt lat="40.003333" lon="-4.980050">
        <ele>1962.0</ele>
        <time>2013-07-06T14:21:55Z</time>
      </trkpt>
      <trkpt lat="40.003300" lon="-4.979983">
        <ele>1963.0</ele>
        <time>2013-07-06T14:21:56Z</time>
      </trkpt>
      <trkpt lat="40.003283" lon="-4.979900">
        <ele>1963.0</ele>
        <time>2013-07-06T14:21:57Z</time>
      </trkpt>
      <trkpt lat="40.003283" lon="-4.979833">
        <ele>1963.0</ele>
        <time>2013-07-06T14:21:58Z</time>
      </trkpt>
      <trkpt lat="40.003317" lon="-4.979783">
        <ele>1963.0</ele>
        <time>2013-07-06T14:21:59Z</time>
      </trkpt>
      <trkpt lat="40.003350" lon="-4.979733">
        <ele>1963.0</ele>
        <time>2013-07-06T14:22:00Z</time>
      </trkpt>
      <trkpt lat="40.003383" lon="-4.979683">
        <ele>1962.0</ele>
        <time>2013-07-06T14:22:01Z</time>
      </trkpt>
      <trkpt lat="40.003450" lon="-4.979633">
        <ele>1962.0</ele>
        <time>2013-07-06T14:22:02Z</time>
      </trkpt>
      <trkpt lat="40.003517" lon="-4.979617">
        <ele>1961.0</ele>
        <time>2013-07-06T14:22:03Z</time>
      </trkpt>
      <trkpt lat="40.003583" lon="-4.979617">
        <ele>1961.0</ele>
        <time>2013-07-06T14:22:04Z</time>
      </trkpt>
      <trkpt lat="40.003667" lon="-4.979650">
        <ele>1960.0</ele>
        <time>2013-07-06T14:22:05Z</time>
      </trkpt>
      <trkpt lat="40.003750" lon="-4.979683">
        <ele>1959.0</ele>
        <time>2013-07-06T14:22:06Z</time>
      </trkpt>
      <trkpt lat="40.003833" lon="-4.979733">
        <ele>1958.0</ele>
        <time>2013-07-06T14:22:07Z</time>
      </trkpt>
      <trkpt lat="40.003900" lon="-4.979783">
        <ele>1957.0</ele>
        <time>2013-07-06T14:22:08Z</time>
      </trkpt>
      <trkpt lat="40.003967" lon="-4.979850">
        <ele>1955.0</ele>
        <time>2013-07-06T14:22:09Z</time>
      </trkpt>
      <trkpt lat="40.004050" lon="-4.979933">
        <ele>1954.0</ele>
        <time>2013-07-06T14:22:10Z</time>
      </trkpt>
      <trkpt lat="40.004133" lon="-4.980000">
        <ele>1951.0</ele>
        <time>2013-07-06T14:22:11Z</time>
      </trkpt>
      <trkpt lat="40.004217" lon="-4.980083">
        <ele>1949.0</ele>
        <time>2013-07-06T14:22:12Z</time>
      </trkpt>
      <trkpt lat="40.004283" lon="-4.980167">
        <ele>1947.0</ele>
        <time>2013-07-06T14:22:13Z</time>
      </trkpt>
      <trkpt lat="40.004350" lon="-4.980250">
        <ele>1946.0</ele>
        <time>2013-07-06T14:22:14Z</time>
      </trkpt>
      <trkpt lat="40.004417" lon="-4.980350">
        <ele>1944.0</ele>
        <time>2013-07-06T14:22:15Z</time>
      </trkpt>
      <trkpt lat="40.004467" lon="-4.980433">
        <ele>1943.0</ele>
        <time>2013-07-06T14:22:16Z</time>
      </trkpt>
      <trkpt lat="40.004533" lon="-4.980550">
        <ele>1940.0</ele>
        <time>2013-07-06T14:22:17Z</time>
      </trkpt>
      <trkpt lat="40.004600" lon="-4.980650">
        <ele>1938.0</ele>
        <time>2013-07-06T14:22:18Z</time>
      </trkpt>
      <trkpt lat="40.004667" lon="-4.980750">
        <ele>1935.0</ele>
        <time>2013-07-06T14:22:19Z</time>
      </trkpt>
      <trkpt lat="40.004733" lon="-4.980850">
        <ele>1933.0</ele>
        <time>2013-07-06T14:22:20Z</time>
      </trkpt>
      <trkpt lat="40.004833" lon="-4.981067">
        <ele>1930.0</ele>
        <time>2013-07-06T14:22:22Z</time>
      </trkpt>
      <trkpt lat="40.004933" lon="-4.981300">
        <ele>1928.0</ele>
        <time>2013-07-06T14:22:24Z</time>
      </trkpt>
      <trkpt lat="40.004983" lon="-4.981400">
        <ele>1927.0</ele>
        <time>2013-07-06T14:22:25Z</time>
      </trkpt>
      <trkpt lat="40.005033" lon="-4.981500">
        <ele>1926.0</ele>
        <time>2013-07-06T14:22:26Z</time>
      </trkpt>
      <trkpt lat="40.005083" lon="-4.981600">
        <ele>1925.0</ele>
        <time>2013-07-06T14:22:27Z</time>
      </trkpt>
      <trkpt lat="40.005133" lon="-4.981700">
        <ele>1924.0</ele>
        <time>2013-07-06T14:22:28Z</time>
      </trkpt>
      <trkpt lat="40.005200" lon="-4.981833">
        <ele>1922.0</ele>
        <time>2013-07-06T14:22:29Z</time>
      </trkpt>
      <trkpt lat="40.005250" lon="-4.981950">
        <ele>1919.0</ele>
        <time>2013-07-06T14:22:30Z</time>
      </trkpt>
      <trkpt lat="40.005300" lon="-4.982067">
        <ele>1917.0</ele>
        <time>2013-07-06T14:22:31Z</time>
      </trkpt>
      <trkpt lat="40.005350" lon="-4.982183">
        <ele>1914.0</ele>
        <time>2013-07-06T14:22:32Z</time>
      </trkpt>
      <trkpt lat="40.005383" lon="-4.982300">
        <ele>1912.0</ele>
        <time>2013-07-06T14:22:33Z</time>
      </trkpt>
      <trkpt lat="40.005417" lon="-4.982417">
        <ele>1910.0</ele>
        <time>2013-07-06T14:22:34Z</time>
      </trkpt>
      <trkpt lat="40.005450" lon="-4.982533">
        <ele>1907.0</ele>
        <time>2013-07-06T14:22:35Z</time>
      </trkpt>
      <trkpt lat="40.005483" lon="-4.982633">
        <ele>1905.0</ele>
        <time>2013-07-06T14:22:36Z</time>
      </trkpt>
      <trkpt lat="40.005567" lon="-4.982867">
        <ele>1900.0</ele>
        <time>2013-07-06T14:22:38Z</time>
      </trkpt>
      <trkpt lat="40.005650" lon="-4.983117">
        <ele>1895.0</ele>
        <time>2013-07-06T14:22:40Z</time>
      </trkpt>
      <trkpt lat="40.005683" lon="-4.983217">
        <ele>1894.0</ele>
        <time>2013-07-06T14:22:41Z</time>
      </trkpt>
      <trkpt lat="40.005733" lon="-4.983300">
        <ele>1893.0</ele>
        <time>2013-07-06T14:22:42Z</time>
      </trkpt>
      <trkpt lat="40.005767" lon="-4.983383">
        <ele>1892.0</ele>
        <time>2013-07-06T14:22:43Z</time>
      </trkpt>
      <trkpt lat="40.005817" lon="-4.983467">
        <ele>1890.0</ele>
        <time>2013-07-06T14:22:44Z</time>
      </trkpt>
      <trkpt lat="40.005867" lon="-4.983533">
        <ele>1888.0</ele>
        <time>2013-07-06T14:22:45Z</time>
      </trkpt>
      <trkpt lat="40.005917" lon="-4.983617">
        <ele>1885.0</ele>
        <time>2013-07-06T14:22:46Z</time>
      </trkpt>
      <trkpt lat="40.005983" lon="-4.983700">
        <ele>1883.0</ele>
        <time>2013-07-06T14:22:47Z</time>
      </trkpt>
      <trkpt lat="40.006050" lon="-4.983783">
        <ele>1881.0</ele>
        <time>2013-07-06T14:22:48Z</time>
      </trkpt>
      <trkpt lat="40.006117" lon="-4.983833">
        <ele>1879.0</ele>
        <time>2013-07-06T14:22:49Z</time>
      </trkpt>
      <trkpt lat="40.006183" lon="-4.983917">
        <ele>1878.0</ele>
        <time>2013-07-06T14:22:50Z</time>
      </trkpt>
      <trkpt lat="40.006250" lon="-4.983983">
        <ele>1877.0</ele>
        <time>2013-07-06T14:22:51Z</time>
      </trkpt>
      <trkpt lat="40.006300" lon="-4.984067">
        <ele>1876.0</ele>
        <time>2013-07-06T14:22:52Z</time>
      </trkpt>
      <trkpt lat="40.006367" lon="-4.984167">
        <ele>1875.0</ele>
        <time>2013-07-06T14:22:53Z</time>
      </trkpt>
      <trkpt lat="40.006417" lon="-4.984250">
        <ele>1873.0</ele>
        <time>2013-07-06T14:22:54Z</time>
      </trkpt>
      <trkpt lat="40.006483" lon="-4.984333">
        <ele>1872.0</ele>
        <time>2013-07-06T14:22:55Z</time>
      </trkpt>
      <trkpt lat="40.006533" lon="-4.984417">
        <ele>1869.0</ele>
        <time>2013-07-06T14:22:56Z</time>
      </trkpt>
      <trkpt lat="40.006617" lon="-4.984483">
        <ele>1866.0</ele>
        <time>2013-07-06T14:22:57Z</time>
      </trkpt>
      <trkpt lat="40.006683" lon="-4.984533">
        <ele>1864.0</ele>
        <time>2013-07-06T14:22:58Z</time>
      </trkpt>
      <trkpt lat="40.006767" lon="-4.984600">
        <ele>1862.0</ele>
        <time>2013-07-06T14:22:59Z</time>
      </trkpt>
      <trkpt lat="40.006833" lon="-4.984650">
        <ele>1860.0</ele>
        <time>2013-07-06T14:23:00Z</time>
      </trkpt>
      <trkpt lat="40.006883" lon="-4.984700">
        <ele>1859.0</ele>
        <time>2013-07-06T14:23:01Z</time>
      </trkpt>
      <trkpt lat="40.006933" lon="-4.984750">
        <ele>1857.0</ele>
        <time>2013-07-06T14:23:02Z</time>
      </trkpt>
      <trkpt lat="40.007000" lon="-4.984783">
        <ele>1855.0</ele>
        <time>2013-07-06T14:23:03Z</time>
      </trkpt>
      <trkpt lat="40.007067" lon="-4.984800">
        <ele>1853.0</ele>
        <time>2013-07-06T14:23:04Z</time>
      </trkpt>
      <trkpt lat="40.007150" lon="-4.984833">
        <ele>1851.0</ele>
        <time>2013-07-06T14:23:05Z</time>
      </trkpt>
      <trkpt lat="40.007233" lon="-4.984867">
        <ele>1849.0</ele>
        <time>2013-07-06T14:23:06Z</time>
      </trkpt>
      <trkpt lat="40.007300" lon="-4.984883">
        <ele>1848.0</ele>
        <time>2013-07-06T14:23:07Z</time>
      </trkpt>
      <trkpt lat="40.007383" lon="-4.984900">
        <ele>1849.0</ele>
        <time>2013-07-06T14:23:08Z</time>
      </trkpt>
      <trkpt lat="40.007433" lon="-4.984900">
        <ele>1851.0</ele>
        <time>2013-07-06T14:23:09Z</time>
      </trkpt>
      <trkpt lat="40.007500" lon="-4.984917">
        <ele>1852.0</ele>
        <time>2013-07-06T14:23:10Z</time>
      </trkpt>
      <trkpt lat="40.007567" lon="-4.984933">
        <ele>1852.0</ele>
        <time>2013-07-06T14:23:11Z</time>
      </trkpt>
      <trkpt lat="40.007633" lon="-4.984950">
        <ele>1851.0</ele>
        <time>2013-07-06T14:23:12Z</time>
      </trkpt>
      <trkpt lat="40.007717" lon="-4.984967">
        <ele>1851.0</ele>
        <time>2013-07-06T14:23:13Z</time>
      </trkpt>
      <trkpt lat="40.007900" lon="-4.984983">
        <ele>1854.0</ele>
        <time>2013-07-06T14:23:16Z</time>
      </trkpt>
      <trkpt lat="40.007950" lon="-4.985017">
        <ele>1856.0</ele>
        <time>2013-07-06T14:23:17Z</time>
      </trkpt>
      <trkpt lat="40.008017" lon="-4.985033">
        <ele>1857.0</ele>
        <time>2013-07-06T14:23:18Z</time>
      </trkpt>
      <trkpt lat="40.008133" lon="-4.985033">
        <ele>1857.0</ele>
        <time>2013-07-06T14:23:20Z</time>
      </trkpt>
      <trkpt lat="40.008200" lon="-4.984967">
        <ele>1857.0</ele>
        <time>2013-07-06T14:23:21Z</time>
      </trkpt>
      <trkpt lat="40.008217" lon="-4.984817">
        <ele>1859.0</ele>
        <time>2013-07-06T14:23:23Z</time>
      </trkpt>
      <trkpt lat="40.008200" lon="-4.984750">
        <ele>1860.0</ele>
        <time>2013-07-06T14:23:24Z</time>
      </trkpt>
      <trkpt lat="40.008183" lon="-4.984667">
        <ele>1858.0</ele>
        <time>2013-07-06T14:23:25Z</time>
      </trkpt>
      <trkpt lat="40.008167" lon="-4.984567">
        <ele>1856.0</ele>
        <time>2013-07-06T14:23:26Z</time>
      </trkpt>
      <trkpt lat="40.008150" lon="-4.984467">
        <ele>1855.0</ele>
        <time>2013-07-06T14:23:27Z</time>
      </trkpt>
      <trkpt lat="40.008100" lon="-4.984400">
        <ele>1854.0</ele>
        <time>2013-07-06T14:23:28Z</time>
      </trkpt>
      <trkpt lat="40.008050" lon="-4.984350">
        <ele>1853.0</ele>
        <time>2013-07-06T14:23:29Z</time>
      </trkpt>
      <trkpt lat="40.007983" lon="-4.984300">
        <ele>1852.0</ele>
        <time>2013-07-06T14:23:30Z</time>
      </trkpt>
      <trkpt lat="40.007900" lon="-4.984283">
        <ele>1850.0</ele>
        <time>2013-07-06T14:23:31Z</time>
      </trkpt>
      <trkpt lat="40.007817" lon="-4.984267">
        <ele>1848.0</ele>
        <time>2013-07-06T14:23:32Z</time>
      </trkpt>
      <trkpt lat="40.007717" lon="-4.984267">
        <ele>1846.0</ele>
        <time>2013-07-06T14:23:33Z</time>
      </trkpt>
      <trkpt lat="40.007633" lon="-4.984283">
        <ele>1845.0</ele>
        <time>2013-07-06T14:23:34Z</time>
      </trkpt>
      <trkpt lat="40.007550" lon="-4.984350">
        <ele>1844.0</ele>
        <time>2013-07-06T14:23:35Z</time>
      </trkpt>
      <trkpt lat="40.007467" lon="-4.984450">
        <ele>1842.0</ele>
        <time>2013-07-06T14:23:36Z</time>
      </trkpt>
      <trkpt lat="40.007417" lon="-4.984567">
        <ele>1840.0</ele>
        <time>2013-07-06T14:23:37Z</time>
      </trkpt>
      <trkpt lat="40.007367" lon="-4.984700">
        <ele>1839.0</ele>
        <time>2013-07-06T14:23:38Z</time>
      </trkpt>
      <trkpt lat="40.007350" lon="-4.984817">
        <ele>1838.0</ele>
        <time>2013-07-06T14:23:39Z</time>
      </trkpt>
      <trkpt lat="40.007350" lon="-4.984933">
        <ele>1838.0</ele>
        <time>2013-07-06T14:23:40Z</time>
      </trkpt>
      <trkpt lat="40.007350" lon="-4.985033">
        <ele>1837.0</ele>
        <time>2013-07-06T14:23:41Z</time>
      </trkpt>
      <trkpt lat="40.007367" lon="-4.985117">
        <ele>1836.0</ele>
        <time>2013-07-06T14:23:42Z</time>
      </trkpt>
      <trkpt lat="40.007383" lon="-4.985217">
        <ele>1835.0</ele>
        <time>2013-07-06T14:23:43Z</time>
      </trkpt>
      <trkpt lat="40.007417" lon="-4.985317">
        <ele>1833.0</ele>
        <time>2013-07-06T14:23:44Z</time>
      </trkpt>
      <trkpt lat="40.007450" lon="-4.985400">
        <ele>1832.0</ele>
        <time>2013-07-06T14:23:45Z</time>
      </trkpt>
      <trkpt lat="40.007533" lon="-4.985500">
        <ele>1833.0</ele>
        <time>2013-07-06T14:23:47Z</time>
      </trkpt>
      <trkpt lat="40.007600" lon="-4.985533">
        <ele>1832.0</ele>
        <time>2013-07-06T14:23:48Z</time>
      </trkpt>
      <trkpt lat="40.007650" lon="-4.985550">
        <ele>1832.0</ele>
        <time>2013-07-06T14:23:49Z</time>
      </trkpt>
      <trkpt lat="40.007717" lon="-4.985583">
        <ele>1831.0</ele>
        <time>2013-07-06T14:23:50Z</time>
      </trkpt>
      <trkpt lat="40.007783" lon="-4.985617">
        <ele>1831.0</ele>
        <time>2013-07-06T14:23:51Z</time>
      </trkpt>
      <trkpt lat="40.007833" lon="-4.985633">
        <ele>1830.0</ele>
        <time>2013-07-06T14:23:52Z</time>
      </trkpt>
      <trkpt lat="40.007900" lon="-4.985667">
        <ele>1830.0</ele>
        <time>2013-07-06T14:23:53Z</time>
      </trkpt>
      <trkpt lat="40.007967" lon="-4.985667">
        <ele>1829.0</ele>
        <time>2013-07-06T14:23:54Z</time>
      </trkpt>
      <trkpt lat="40.008033" lon="-4.985667">
        <ele>1828.0</ele>
        <time>2013-07-06T14:23:55Z</time>
      </trkpt>
      <trkpt lat="40.008117" lon="-4.985667">
        <ele>1826.0</ele>
        <time>2013-07-06T14:23:56Z</time>
      </trkpt>
      <trkpt lat="40.008183" lon="-4.985683">
        <ele>1826.0</ele>
        <time>2013-07-06T14:23:57Z</time>
      </trkpt>
      <trkpt lat="40.008250" lon="-4.985700">
        <ele>1826.0</ele>
        <time>2013-07-06T14:23:58Z</time>
      </trkpt>
      <trkpt lat="40.008317" lon="-4.985733">
        <ele>1826.0</ele>
        <time>2013-07-06T14:23:59Z</time>
      </trkpt>
      <trkpt lat="40.008383" lon="-4.985767">
        <ele>1825.0</ele>
        <time>2013-07-06T14:24:00Z</time>
      </trkpt>
      <trkpt lat="40.008467" lon="-4.985783">
        <ele>1824.0</ele>
        <time>2013-07-06T14:24:01Z</time>
      </trkpt>
      <trkpt lat="40.008533" lon="-4.985800">
        <ele>1824.0</ele>
        <time>2013-07-06T14:24:02Z</time>
      </trkpt>
      <trkpt lat="40.008600" lon="-4.985800">
        <ele>1824.0</ele>
        <time>2013-07-06T14:24:03Z</time>
      </trkpt>
      <trkpt lat="40.008667" lon="-4.985817">
        <ele>1825.0</ele>
        <time>2013-07-06T14:24:04Z</time>
      </trkpt>
      <trkpt lat="40.008717" lon="-4.985833">
        <ele>1825.0</ele>
        <time>2013-07-06T14:24:05Z</time>
      </trkpt>
      <trkpt lat="40.008783" lon="-4.985850">
        <ele>1825.0</ele>
        <time>2013-07-06T14:24:06Z</time>
      </trkpt>
      <trkpt lat="40.008850" lon="-4.985867">
        <ele>1825.0</ele>
        <time>2013-07-06T14:24:07Z</time>
      </trkpt>
      <trkpt lat="40.008917" lon="-4.985883">
        <ele>1825.0</ele>
        <time>2013-07-06T14:24:08Z</time>
      </trkpt>
      <trkpt lat="40.008983" lon="-4.985883">
        <ele>1824.0</ele>
        <time>2013-07-06T14:24:09Z</time>
      </trkpt>
      <trkpt lat="40.009117" lon="-4.985933">
        <ele>1824.0</ele>
        <time>2013-07-06T14:24:11Z</time>
      </trkpt>
      <trkpt lat="40.009183" lon="-4.985950">
        <ele>1824.0</ele>
        <time>2013-07-06T14:24:12Z</time>
      </trkpt>
      <trkpt lat="40.009233" lon="-4.985950">
        <ele>1824.0</ele>
        <time>2013-07-06T14:24:13Z</time>
      </trkpt>
      <trkpt lat="40.009317" lon="-4.985967">
        <ele>1824.0</ele>
        <time>2013-07-06T14:24:14Z</time>
      </trkpt>
      <trkpt lat="40.009383" lon="-4.985967">
        <ele>1823.0</ele>
        <time>2013-07-06T14:24:15Z</time>
      </trkpt>
      <trkpt lat="40.009450" lon="-4.985983">
        <ele>1825.0</ele>
        <time>2013-07-06T14:24:16Z</time>
      </trkpt>
      <trkpt lat="40.009517" lon="-4.985983">
        <ele>1827.0</ele>
        <time>2013-07-06T14:24:17Z</time>
      </trkpt>
      <trkpt lat="40.009617" lon="-4.985983">
        <ele>1827.0</ele>
        <time>2013-07-06T14:24:19Z</time>
      </trkpt>
      <trkpt lat="40.009683" lon="-4.985967">
        <ele>1826.0</ele>
        <time>2013-07-06T14:24:20Z</time>
      </trkpt>
      <trkpt lat="40.009833" lon="-4.985900">
        <ele>1825.0</ele>
        <time>2013-07-06T14:24:22Z</time>
      </trkpt>
      <trkpt lat="40.009900" lon="-4.985883">
        <ele>1827.0</ele>
        <time>2013-07-06T14:24:23Z</time>
      </trkpt>
      <trkpt lat="40.010000" lon="-4.985867">
        <ele>1829.0</ele>
        <time>2013-07-06T14:24:25Z</time>
      </trkpt>
      <trkpt lat="40.010067" lon="-4.985850">
        <ele>1829.0</ele>
        <time>2013-07-06T14:24:26Z</time>
      </trkpt>
      <trkpt lat="40.010133" lon="-4.985817">
        <ele>1829.0</ele>
        <time>2013-07-06T14:24:27Z</time>
      </trkpt>
      <trkpt lat="40.010200" lon="-4.985783">
        <ele>1828.0</ele>
        <time>2013-07-06T14:24:28Z</time>
      </trkpt>
      <trkpt lat="40.010250" lon="-4.985750">
        <ele>1828.0</ele>
        <time>2013-07-06T14:24:29Z</time>
      </trkpt>
      <trkpt lat="40.010300" lon="-4.985717">
        <ele>1828.0</ele>
        <time>2013-07-06T14:24:30Z</time>
      </trkpt>
      <trkpt lat="40.010367" lon="-4.985667">
        <ele>1829.0</ele>
        <time>2013-07-06T14:24:31Z</time>
      </trkpt>
      <trkpt lat="40.010417" lon="-4.985633">
        <ele>1829.0</ele>
        <time>2013-07-06T14:24:32Z</time>
      </trkpt>
      <trkpt lat="40.010467" lon="-4.985583">
        <ele>1829.0</ele>
        <time>2013-07-06T14:24:33Z</time>
      </trkpt>
      <trkpt lat="40.010500" lon="-4.985533">
        <ele>1830.0</ele>
        <time>2013-07-06T14:24:34Z</time>
      </trkpt>
      <trkpt lat="40.010550" lon="-4.985483">
        <ele>1829.0</ele>
        <time>2013-07-06T14:24:35Z</time>
      </trkpt>
      <trkpt lat="40.010617" lon="-4.985450">
        <ele>1829.0</ele>
        <time>2013-07-06T14:24:36Z</time>
      </trkpt>
      <trkpt lat="40.010667" lon="-4.985400">
        <ele>1828.0</ele>
        <time>2013-07-06T14:24:37Z</time>
      </trkpt>
      <trkpt lat="40.010717" lon="-4.985333">
        <ele>1828.0</ele>
        <time>2013-07-06T14:24:38Z</time>
      </trkpt>
      <trkpt lat="40.010750" lon="-4.985283">
        <ele>1828.0</ele>
        <time>2013-07-06T14:24:39Z</time>
      </trkpt>
      <trkpt lat="40.010783" lon="-4.985233">
        <ele>1827.0</ele>
        <time>2013-07-06T14:24:40Z</time>
      </trkpt>
      <trkpt lat="40.010833" lon="-4.985183">
        <ele>1828.0</ele>
        <time>2013-07-06T14:24:41Z</time>
      </trkpt>
      <trkpt lat="40.010883" lon="-4.985133">
        <ele>1827.0</ele>
        <time>2013-07-06T14:24:42Z</time>
      </trkpt>
      <trkpt lat="40.010933" lon="-4.985083">
        <ele>1827.0</ele>
        <time>2013-07-06T14:24:43Z</time>
      </trkpt>
      <trkpt lat="40.011000" lon="-4.985033">
        <ele>1827.0</ele>
        <time>2013-07-06T14:24:44Z</time>
      </trkpt>
      <trkpt lat="40.011033" lon="-4.984967">
        <ele>1828.0</ele>
        <time>2013-07-06T14:24:45Z</time>
      </trkpt>
      <trkpt lat="40.011067" lon="-4.984883">
        <ele>1830.0</ele>
        <time>2013-07-06T14:24:46Z</time>
      </trkpt>
      <trkpt lat="40.011083" lon="-4.984833">
        <ele>1833.0</ele>
        <time>2013-07-06T14:24:47Z</time>
      </trkpt>
      <trkpt lat="40.011100" lon="-4.984767">
        <ele>1835.0</ele>
        <time>2013-07-06T14:24:48Z</time>
      </trkpt>
      <trkpt lat="40.011133" lon="-4.984700">
        <ele>1837.0</ele>
        <time>2013-07-06T14:24:49Z</time>
      </trkpt>
      <trkpt lat="40.011150" lon="-4.984633">
        <ele>1840.0</ele>
        <time>2013-07-06T14:24:50Z</time>
      </trkpt>
      <trkpt lat="40.011183" lon="-4.984550">
        <ele>1842.0</ele>
        <time>2013-07-06T14:24:51Z</time>
      </trkpt>
      <trkpt lat="40.011200" lon="-4.984450">
        <ele>1844.0</ele>
        <time>2013-07-06T14:24:52Z</time>
      </trkpt>
      <trkpt lat="40.011217" lon="-4.984350">
        <ele>1846.0</ele>
        <time>2013-07-06T14:24:53Z</time>
      </trkpt>
      <trkpt lat="40.011200" lon="-4.984250">
        <ele>1849.0</ele>
        <time>2013-07-06T14:24:54Z</time>
      </trkpt>
      <trkpt lat="40.011167" lon="-4.984167">
        <ele>1852.0</ele>
        <time>2013-07-06T14:24:55Z</time>
      </trkpt>
      <trkpt lat="40.011083" lon="-4.984083">
        <ele>1854.0</ele>
        <time>2013-07-06T14:24:56Z</time>
      </trkpt>
      <trkpt lat="40.011000" lon="-4.984033">
        <ele>1855.0</ele>
        <time>2013-07-06T14:24:57Z</time>
      </trkpt>
      <trkpt lat="40.010917" lon="-4.983967">
        <ele>1856.0</ele>
        <time>2013-07-06T14:24:58Z</time>
      </trkpt>
      <trkpt lat="40.010800" lon="-4.983917">
        <ele>1857.0</ele>
        <time>2013-07-06T14:24:59Z</time>
      </trkpt>
      <trkpt lat="40.010683" lon="-4.983917">
        <ele>1858.0</ele>
        <time>2013-07-06T14:25:00Z</time>
      </trkpt>
      <trkpt lat="40.010567" lon="-4.983950">
        <ele>1859.0</ele>
        <time>2013-07-06T14:25:01Z</time>
      </trkpt>
      <trkpt lat="40.010467" lon="-4.984033">
        <ele>1860.0</ele>
        <time>2013-07-06T14:25:02Z</time>
      </trkpt>
      <trkpt lat="40.010367" lon="-4.984133">
        <ele>1861.0</ele>
        <time>2013-07-06T14:25:03Z</time>
      </trkpt>
      <trkpt lat="40.010300" lon="-4.984267">
        <ele>1861.0</ele>
        <time>2013-07-06T14:25:04Z</time>
      </trkpt>
      <trkpt lat="40.010233" lon="-4.984400">
        <ele>1862.0</ele>
        <time>2013-07-06T14:25:05Z</time>
      </trkpt>
      <trkpt lat="40.010200" lon="-4.984550">
        <ele>1863.0</ele>
        <time>2013-07-06T14:25:06Z</time>
      </trkpt>
      <trkpt lat="40.010167" lon="-4.984700">
        <ele>1864.0</ele>
        <time>2013-07-06T14:25:07Z</time>
      </trkpt>
      <trkpt lat="40.010150" lon="-4.984850">
        <ele>1865.0</ele>
        <time>2013-07-06T14:25:08Z</time>
      </trkpt>
      <trkpt lat="40.010150" lon="-4.985000">
        <ele>1867.0</ele>
        <time>2013-07-06T14:25:09Z</time>
      </trkpt>
      <trkpt lat="40.010167" lon="-4.985117">
        <ele>1870.0</ele>
        <time>2013-07-06T14:25:10Z</time>
      </trkpt>
      <trkpt lat="40.010183" lon="-4.985233">
        <ele>1872.0</ele>
        <time>2013-07-06T14:25:11Z</time>
      </trkpt>
      <trkpt lat="40.010200" lon="-4.985350">
        <ele>1874.0</ele>
        <time>2013-07-06T14:25:12Z</time>
      </trkpt>
      <trkpt lat="40.010200" lon="-4.985467">
        <ele>1876.0</ele>
        <time>2013-07-06T14:25:13Z</time>
      </trkpt>
      <trkpt lat="40.010200" lon="-4.985583">
        <ele>1877.0</ele>
        <time>2013-07-06T14:25:14Z</time>
      </trkpt>
      <trkpt lat="40.010217" lon="-4.985700">
        <ele>1879.0</ele>
        <time>2013-07-06T14:25:15Z</time>
      </trkpt>
      <trkpt lat="40.010250" lon="-4.985800">
        <ele>1880.0</ele>
        <time>2013-07-06T14:25:16Z</time>
      </trkpt>
      <trkpt lat="40.010300" lon="-4.985867">
        <ele>1878.0</ele>
        <time>2013-07-06T14:25:17Z</time>
      </trkpt>
      <trkpt lat="40.010367" lon="-4.985900">
        <ele>1877.0</ele>
        <time>2013-07-06T14:25:18Z</time>
      </trkpt>
      <trkpt lat="40.010433" lon="-4.985917">
        <ele>1876.0</ele>
        <time>2013-07-06T14:25:19Z</time>
      </trkpt>
      <trkpt lat="40.010500" lon="-4.985917">
        <ele>1875.0</ele>
        <time>2013-07-06T14:25:20Z</time>
      </trkpt>
      <trkpt lat="40.010567" lon="-4.985933">
        <ele>1877.0</ele>
        <time>2013-07-06T14:25:21Z</time>
      </trkpt>
      <trkpt lat="40.010633" lon="-4.985933">
        <ele>1880.0</ele>
        <time>2013-07-06T14:25:22Z</time>
      </trkpt>
      <trkpt lat="40.010683" lon="-4.985917">
        <ele>1882.0</ele>
        <time>2013-07-06T14:25:23Z</time>
      </trkpt>
      <trkpt lat="40.010767" lon="-4.985850">
        <ele>1885.0</ele>
        <time>2013-07-06T14:25:25Z</time>
      </trkpt>
      <trkpt lat="40.010800" lon="-4.985800">
        <ele>1886.0</ele>
        <time>2013-07-06T14:25:26Z</time>
      </trkpt>
      <trkpt lat="40.010850" lon="-4.985733">
        <ele>1887.0</ele>
        <time>2013-07-06T14:25:27Z</time>
      </trkpt>
      <trkpt lat="40.010867" lon="-4.985667">
        <ele>1887.0</ele>
        <time>2013-07-06T14:25:28Z</time>
      </trkpt>
      <trkpt lat="40.010883" lon="-4.985583">
        <ele>1888.0</ele>
        <time>2013-07-06T14:25:29Z</time>
      </trkpt>
      <trkpt lat="40.010883" lon="-4.985433">
        <ele>1889.0</ele>
        <time>2013-07-06T14:25:31Z</time>
      </trkpt>
      <trkpt lat="40.010883" lon="-4.985367">
        <ele>1890.0</ele>
        <time>2013-07-06T14:25:32Z</time>
      </trkpt>
      <trkpt lat="40.010933" lon="-4.985300">
        <ele>1889.0</ele>
        <time>2013-07-06T14:25:33Z</time>
      </trkpt>
      <trkpt lat="40.010983" lon="-4.985100">
        <ele>1888.0</ele>
        <time>2013-07-06T14:25:36Z</time>
      </trkpt>
      <trkpt lat="40.010950" lon="-4.985033">
        <ele>1888.0</ele>
        <time>2013-07-06T14:25:37Z</time>
      </trkpt>
      <trkpt lat="40.010867" lon="-4.984867">
        <ele>1890.0</ele>
        <time>2013-07-06T14:25:39Z</time>
      </trkpt>
      <trkpt lat="40.010800" lon="-4.984800">
        <ele>1891.0</ele>
        <time>2013-07-06T14:25:40Z</time>
      </trkpt>
      <trkpt lat="40.010717" lon="-4.984750">
        <ele>1893.0</ele>
        <time>2013-07-06T14:25:41Z</time>
      </trkpt>
      <trkpt lat="40.010617" lon="-4.984700">
        <ele>1895.0</ele>
        <time>2013-07-06T14:25:42Z</time>
      </trkpt>
      <trkpt lat="40.010517" lon="-4.984700">
        <ele>1897.0</ele>
        <time>2013-07-06T14:25:43Z</time>
      </trkpt>
      <trkpt lat="40.010417" lon="-4.984700">
        <ele>1899.0</ele>
        <time>2013-07-06T14:25:44Z</time>
      </trkpt>
      <trkpt lat="40.010300" lon="-4.984733">
        <ele>1901.0</ele>
        <time>2013-07-06T14:25:45Z</time>
      </trkpt>
      <trkpt lat="40.010200" lon="-4.984767">
        <ele>1903.0</ele>
        <time>2013-07-06T14:25:46Z</time>
      </trkpt>
      <trkpt lat="40.010100" lon="-4.984817">
        <ele>1905.0</ele>
        <time>2013-07-06T14:25:47Z</time>
      </trkpt>
      <trkpt lat="40.010000" lon="-4.984900">
        <ele>1907.0</ele>
        <time>2013-07-06T14:25:48Z</time>
      </trkpt>
      <trkpt lat="40.009900" lon="-4.985017">
        <ele>1908.0</ele>
        <time>2013-07-06T14:25:49Z</time>
      </trkpt>
      <trkpt lat="40.009800" lon="-4.985167">
        <ele>1910.0</ele>
        <time>2013-07-06T14:25:50Z</time>
      </trkpt>
      <trkpt lat="40.009717" lon="-4.985317">
        <ele>1911.0</ele>
        <time>2013-07-06T14:25:51Z</time>
      </trkpt>
      <trkpt lat="40.009667" lon="-4.985467">
        <ele>1913.0</ele>
        <time>2013-07-06T14:25:52Z</time>
      </trkpt>
      <trkpt lat="40.009633" lon="-4.985617">
        <ele>1915.0</ele>
        <time>2013-07-06T14:25:53Z</time>
      </trkpt>
      <trkpt lat="40.009600" lon="-4.985767">
        <ele>1917.0</ele>
        <time>2013-07-06T14:25:54Z</time>
      </trkpt>
      <trkpt lat="40.009583" lon="-4.985917">
        <ele>1920.0</ele>
        <time>2013-07-06T14:25:55Z</time>
      </trkpt>
      <trkpt lat="40.009583" lon="-4.986050">
        <ele>1922.0</ele>
        <time>2013-07-06T14:25:56Z</time>
      </trkpt>
      <trkpt lat="40.009600" lon="-4.986167">
        <ele>1924.0</ele>
        <time>2013-07-06T14:25:57Z</time>
      </trkpt>
      <trkpt lat="40.009617" lon="-4.986283">
        <ele>1924.0</ele>
        <time>2013-07-06T14:25:58Z</time>
      </trkpt>
      <trkpt lat="40.009650" lon="-4.986383">
        <ele>1922.0</ele>
        <time>2013-07-06T14:25:59Z</time>
      </trkpt>
      <trkpt lat="40.009683" lon="-4.986517">
        <ele>1922.0</ele>
        <time>2013-07-06T14:26:01Z</time>
      </trkpt>
      <trkpt lat="40.009750" lon="-4.986567">
        <ele>1921.0</ele>
        <time>2013-07-06T14:26:02Z</time>
      </trkpt>
      <trkpt lat="40.009800" lon="-4.986600">
        <ele>1919.0</ele>
        <time>2013-07-06T14:26:03Z</time>
      </trkpt>
      <trkpt lat="40.009900" lon="-4.986583">
        <ele>1917.0</ele>
        <time>2013-07-06T14:26:05Z</time>
      </trkpt>
      <trkpt lat="40.009933" lon="-4.986533">
        <ele>1917.0</ele>
        <time>2013-07-06T14:26:06Z</time>
      </trkpt>
      <trkpt lat="40.009983" lon="-4.986383">
        <ele>1913.0</ele>
        <time>2013-07-06T14:26:09Z</time>
      </trkpt>
      <trkpt lat="40.010000" lon="-4.986317">
        <ele>1911.0</ele>
        <time>2013-07-06T14:26:10Z</time>
      </trkpt>
      <trkpt lat="40.010033" lon="-4.986233">
        <ele>1909.0</ele>
        <time>2013-07-06T14:26:11Z</time>
      </trkpt>
      <trkpt lat="40.010050" lon="-4.986183">
        <ele>1910.0</ele>
        <time>2013-07-06T14:26:12Z</time>
      </trkpt>
      <trkpt lat="40.010083" lon="-4.986133">
        <ele>1911.0</ele>
        <time>2013-07-06T14:26:13Z</time>
      </trkpt>
      <trkpt lat="40.010100" lon="-4.986033">
        <ele>1912.0</ele>
        <time>2013-07-06T14:26:15Z</time>
      </trkpt>
      <trkpt lat="40.010117" lon="-4.985967">
        <ele>1912.0</ele>
        <time>2013-07-06T14:26:16Z</time>
      </trkpt>
      <trkpt lat="40.010133" lon="-4.985900">
        <ele>1912.0</ele>
        <time>2013-07-06T14:26:17Z</time>
      </trkpt>
      <trkpt lat="40.010150" lon="-4.985833">
        <ele>1912.0</ele>
        <time>2013-07-06T14:26:18Z</time>
      </trkpt>
      <trkpt lat="40.010167" lon="-4.985783">
        <ele>1913.0</ele>
        <time>2013-07-06T14:26:19Z</time>
      </trkpt>
      <trkpt lat="40.010167" lon="-4.985733">
        <ele>1915.0</ele>
        <time>2013-07-06T14:26:20Z</time>
      </trkpt>
      <trkpt lat="40.010167" lon="-4.985700">
        <ele>1918.0</ele>
        <time>2013-07-06T14:26:21Z</time>
      </trkpt>
      <trkpt lat="40.010183" lon="-4.985600">
        <ele>1918.0</ele>
        <time>2013-07-06T14:26:24Z</time>
      </trkpt>
      <trkpt lat="40.010167" lon="-4.985517">
        <ele>1916.0</ele>
        <time>2013-07-06T14:26:25Z</time>
      </trkpt>
      <trkpt lat="40.010117" lon="-4.985433">
        <ele>1915.0</ele>
        <time>2013-07-06T14:26:26Z</time>
      </trkpt>
      <trkpt lat="40.010050" lon="-4.985350">
        <ele>1917.0</ele>
        <time>2013-07-06T14:26:27Z</time>
      </trkpt>
      <trkpt lat="40.009983" lon="-4.985300">
        <ele>1920.0</ele>
        <time>2013-07-06T14:26:28Z</time>
      </trkpt>
      <trkpt lat="40.009900" lon="-4.985283">
        <ele>1922.0</ele>
        <time>2013-07-06T14:26:29Z</time>
      </trkpt>
      <trkpt lat="40.009800" lon="-4.985267">
        <ele>1924.0</ele>
        <time>2013-07-06T14:26:30Z</time>
      </trkpt>
      <trkpt lat="40.009683" lon="-4.985283">
        <ele>1924.0</ele>
        <time>2013-07-06T14:26:31Z</time>
      </trkpt>
      <trkpt lat="40.009567" lon="-4.985300">
        <ele>1925.0</ele>
        <time>2013-07-06T14:26:32Z</time>
      </trkpt>
      <trkpt lat="40.009433" lon="-4.985350">
        <ele>1925.0</ele>
        <time>2013-07-06T14:26:33Z</time>
      </trkpt>
      <trkpt lat="40.009300" lon="-4.985400">
        <ele>1926.0</ele>
        <time>2013-07-06T14:26:34Z</time>
      </trkpt>
      <trkpt lat="40.009183" lon="-4.985483">
        <ele>1926.0</ele>
        <time>2013-07-06T14:26:35Z</time>
      </trkpt>
      <trkpt lat="40.009083" lon="-4.985617">
        <ele>1927.0</ele>
        <time>2013-07-06T14:26:36Z</time>
      </trkpt>
      <trkpt lat="40.009000" lon="-4.985767">
        <ele>1927.0</ele>
        <time>2013-07-06T14:26:37Z</time>
      </trkpt>
      <trkpt lat="40.008950" lon="-4.985933">
        <ele>1926.0</ele>
        <time>2013-07-06T14:26:38Z</time>
      </trkpt>
      <trkpt lat="40.008917" lon="-4.986083">
        <ele>1926.0</ele>
        <time>2013-07-06T14:26:39Z</time>
      </trkpt>
      <trkpt lat="40.008900" lon="-4.986233">
        <ele>1926.0</ele>
        <time>2013-07-06T14:26:40Z</time>
      </trkpt>
      <trkpt lat="40.008917" lon="-4.986350">
        <ele>1927.0</ele>
        <time>2013-07-06T14:26:41Z</time>
      </trkpt>
      <trkpt lat="40.008950" lon="-4.986467">
        <ele>1927.0</ele>
        <time>2013-07-06T14:26:42Z</time>
      </trkpt>
      <trkpt lat="40.008967" lon="-4.986567">
        <ele>1927.0</ele>
        <time>2013-07-06T14:26:43Z</time>
      </trkpt>
      <trkpt lat="40.009017" lon="-4.986667">
        <ele>1927.0</ele>
        <time>2013-07-06T14:26:44Z</time>
      </trkpt>
      <trkpt lat="40.009067" lon="-4.986733">
        <ele>1927.0</ele>
        <time>2013-07-06T14:26:45Z</time>
      </trkpt>
      <trkpt lat="40.009117" lon="-4.986800">
        <ele>1926.0</ele>
        <time>2013-07-06T14:26:46Z</time>
      </trkpt>
      <trkpt lat="40.009183" lon="-4.986817">
        <ele>1926.0</ele>
        <time>2013-07-06T14:26:47Z</time>
      </trkpt>
      <trkpt lat="40.009233" lon="-4.986833">
        <ele>1926.0</ele>
        <time>2013-07-06T14:26:48Z</time>
      </trkpt>
      <trkpt lat="40.009283" lon="-4.986850">
        <ele>1925.0</ele>
        <time>2013-07-06T14:26:49Z</time>
      </trkpt>
      <trkpt lat="40.009383" lon="-4.986850">
        <ele>1924.0</ele>
        <time>2013-07-06T14:26:51Z</time>
      </trkpt>
      <trkpt lat="40.009433" lon="-4.986817">
        <ele>1923.0</ele>
        <time>2013-07-06T14:26:52Z</time>
      </trkpt>
      <trkpt lat="40.009483" lon="-4.986783">
        <ele>1923.0</ele>
        <time>2013-07-06T14:26:53Z</time>
      </trkpt>
      <trkpt lat="40.009517" lon="-4.986750">
        <ele>1924.0</ele>
        <time>2013-07-06T14:26:54Z</time>
      </trkpt>
      <trkpt lat="40.009567" lon="-4.986717">
        <ele>1926.0</ele>
        <time>2013-07-06T14:26:56Z</time>
      </trkpt>
      <trkpt lat="40.009583" lon="-4.986700">
        <ele>1926.0</ele>
        <time>2013-07-06T14:26:57Z</time>
      </trkpt>
      <trkpt lat="40.009600" lon="-4.986667">
        <ele>1925.0</ele>
        <time>2013-07-06T14:26:58Z</time>
      </trkpt>
      <trkpt lat="40.009633" lon="-4.986617">
        <ele>1924.0</ele>
        <time>2013-07-06T14:26:59Z</time>
      </trkpt>
      <trkpt lat="40.009667" lon="-4.986517">
        <ele>1922.0</ele>
        <time>2013-07-06T14:27:01Z</time>
      </trkpt>
      <trkpt lat="40.009700" lon="-4.986467">
        <ele>1922.0</ele>
        <time>2013-07-06T14:27:02Z</time>
      </trkpt>
      <trkpt lat="40.009717" lon="-4.986350">
        <ele>1923.0</ele>
        <time>2013-07-06T14:27:04Z</time>
      </trkpt>
      <trkpt lat="40.009717" lon="-4.986300">
        <ele>1922.0</ele>
        <time>2013-07-06T14:27:05Z</time>
      </trkpt>
      <trkpt lat="40.009733" lon="-4.986250">
        <ele>1923.0</ele>
        <time>2013-07-06T14:27:06Z</time>
      </trkpt>
      <trkpt lat="40.009733" lon="-4.986200">
        <ele>1923.0</ele>
        <time>2013-07-06T14:27:07Z</time>
      </trkpt>
      <trkpt lat="40.009733" lon="-4.986133">
        <ele>1924.0</ele>
        <time>2013-07-06T14:27:08Z</time>
      </trkpt>
      <trkpt lat="40.009733" lon="-4.986067">
        <ele>1924.0</ele>
        <time>2013-07-06T14:27:09Z</time>
      </trkpt>
      <trkpt lat="40.009733" lon="-4.985983">
        <ele>1924.0</ele>
        <time>2013-07-06T14:27:10Z</time>
      </trkpt>
      <trkpt lat="40.009733" lon="-4.985900">
        <ele>1923.0</ele>
        <time>2013-07-06T14:27:11Z</time>
      </trkpt>
      <trkpt lat="40.009733" lon="-4.985817">
        <ele>1924.0</ele>
        <time>2013-07-06T14:27:12Z</time>
      </trkpt>
      <trkpt lat="40.009733" lon="-4.985733">
        <ele>1924.0</ele>
        <time>2013-07-06T14:27:13Z</time>
      </trkpt>
      <trkpt lat="40.009750" lon="-4.985650">
        <ele>1925.0</ele>
        <time>2013-07-06T14:27:14Z</time>
      </trkpt>
      <trkpt lat="40.009733" lon="-4.985583">
        <ele>1926.0</ele>
        <time>2013-07-06T14:27:15Z</time>
      </trkpt>
      <trkpt lat="40.009717" lon="-4.985517">
        <ele>1927.0</ele>
        <time>2013-07-06T14:27:16Z</time>
      </trkpt>
      <trkpt lat="40.009700" lon="-4.985433">
        <ele>1927.0</ele>
        <time>2013-07-06T14:27:17Z</time>
      </trkpt>
      <trkpt lat="40.009667" lon="-4.985350">
        <ele>1926.0</ele>
        <time>2013-07-06T14:27:18Z</time>
      </trkpt>
      <trkpt lat="40.009633" lon="-4.985267">
        <ele>1925.0</ele>
        <time>2013-07-06T14:27:19Z</time>
      </trkpt>
      <trkpt lat="40.009600" lon="-4.985167">
        <ele>1924.0</ele>
        <time>2013-07-06T14:27:20Z</time>
      </trkpt>
      <trkpt lat="40.009567" lon="-4.985083">
        <ele>1924.0</ele>
        <time>2013-07-06T14:27:21Z</time>
      </trkpt>
      <trkpt lat="40.009517" lon="-4.985000">
        <ele>1923.0</ele>
        <time>2013-07-06T14:27:22Z</time>
      </trkpt>
      <trkpt lat="40.009483" lon="-4.984917">
        <ele>1923.0</ele>
        <time>2013-07-06T14:27:23Z</time>
      </trkpt>
      <trkpt lat="40.009433" lon="-4.984833">
        <ele>1922.0</ele>
        <time>2013-07-06T14:27:24Z</time>
      </trkpt>
      <trkpt lat="40.009367" lon="-4.984750">
        <ele>1922.0</ele>
        <time>2013-07-06T14:27:25Z</time>
      </trkpt>
      <trkpt lat="40.009317" lon="-4.984683">
        <ele>1922.0</ele>
        <time>2013-07-06T14:27:26Z</time>
      </trkpt>
      <trkpt lat="40.009250" lon="-4.984617">
        <ele>1922.0</ele>
        <time>2013-07-06T14:27:27Z</time>
      </trkpt>
      <trkpt lat="40.009167" lon="-4.984550">
        <ele>1922.0</ele>
        <time>2013-07-06T14:27:28Z</time>
      </trkpt>
      <trkpt lat="40.009100" lon="-4.984483">
        <ele>1922.0</ele>
        <time>2013-07-06T14:27:29Z</time>
      </trkpt>
      <trkpt lat="40.009000" lon="-4.984467">
        <ele>1922.0</ele>
        <time>2013-07-06T14:27:30Z</time>
      </trkpt>
      <trkpt lat="40.008900" lon="-4.984467">
        <ele>1922.0</ele>
        <time>2013-07-06T14:27:31Z</time>
      </trkpt>
      <trkpt lat="40.008800" lon="-4.984500">
        <ele>1922.0</ele>
        <time>2013-07-06T14:27:32Z</time>
      </trkpt>
      <trkpt lat="40.008717" lon="-4.984567">
        <ele>1922.0</ele>
        <time>2013-07-06T14:27:33Z</time>
      </trkpt>
      <trkpt lat="40.008633" lon="-4.984650">
        <ele>1923.0</ele>
        <time>2013-07-06T14:27:34Z</time>
      </trkpt>
      <trkpt lat="40.008583" lon="-4.984750">
        <ele>1923.0</ele>
        <time>2013-07-06T14:27:35Z</time>
      </trkpt>
      <trkpt lat="40.008533" lon="-4.984850">
        <ele>1923.0</ele>
        <time>2013-07-06T14:27:36Z</time>
      </trkpt>
      <trkpt lat="40.008483" lon="-4.984983">
        <ele>1923.0</ele>
        <time>2013-07-06T14:27:37Z</time>
      </trkpt>
      <trkpt lat="40.008450" lon="-4.985117">
        <ele>1922.0</ele>
        <time>2013-07-06T14:27:38Z</time>
      </trkpt>
      <trkpt lat="40.008417" lon="-4.985250">
        <ele>1922.0</ele>
        <time>2013-07-06T14:27:39Z</time>
      </trkpt>
      <trkpt lat="40.008417" lon="-4.985383">
        <ele>1922.0</ele>
        <time>2013-07-06T14:27:40Z</time>
      </trkpt>
      <trkpt lat="40.008417" lon="-4.985517">
        <ele>1921.0</ele>
        <time>2013-07-06T14:27:41Z</time>
      </trkpt>
      <trkpt lat="40.008433" lon="-4.985633">
        <ele>1921.0</ele>
        <time>2013-07-06T14:27:42Z</time>
      </trkpt>
      <trkpt lat="40.008450" lon="-4.985733">
        <ele>1921.0</ele>
        <time>2013-07-06T14:27:43Z</time>
      </trkpt>
      <trkpt lat="40.008467" lon="-4.985850">
        <ele>1920.0</ele>
        <time>2013-07-06T14:27:44Z</time>
      </trkpt>
      <trkpt lat="40.008500" lon="-4.985950">
        <ele>1920.0</ele>
        <time>2013-07-06T14:27:45Z</time>
      </trkpt>
      <trkpt lat="40.008533" lon="-4.986033">
        <ele>1919.0</ele>
        <time>2013-07-06T14:27:46Z</time>
      </trkpt>
      <trkpt lat="40.008567" lon="-4.986100">
        <ele>1919.0</ele>
        <time>2013-07-06T14:27:47Z</time>
      </trkpt>
      <trkpt lat="40.008617" lon="-4.986150">
        <ele>1918.0</ele>
        <time>2013-07-06T14:27:48Z</time>
      </trkpt>
      <trkpt lat="40.008667" lon="-4.986167">
        <ele>1917.0</ele>
        <time>2013-07-06T14:27:49Z</time>
      </trkpt>
      <trkpt lat="40.008717" lon="-4.986200">
        <ele>1916.0</ele>
        <time>2013-07-06T14:27:50Z</time>
      </trkpt>
      <trkpt lat="40.008767" lon="-4.986217">
        <ele>1915.0</ele>
        <time>2013-07-06T14:27:51Z</time>
      </trkpt>
      <trkpt lat="40.008817" lon="-4.986250">
        <ele>1913.0</ele>
        <time>2013-07-06T14:27:52Z</time>
      </trkpt>
      <trkpt lat="40.008883" lon="-4.986267">
        <ele>1911.0</ele>
        <time>2013-07-06T14:27:53Z</time>
      </trkpt>
      <trkpt lat="40.008950" lon="-4.986283">
        <ele>1910.0</ele>
        <time>2013-07-06T14:27:54Z</time>
      </trkpt>
      <trkpt lat="40.009067" lon="-4.986267">
        <ele>1910.0</ele>
        <time>2013-07-06T14:27:56Z</time>
      </trkpt>
      <trkpt lat="40.009117" lon="-4.986233">
        <ele>1910.0</ele>
        <time>2013-07-06T14:27:57Z</time>
      </trkpt>
      <trkpt lat="40.009167" lon="-4.986200">
        <ele>1910.0</ele>
        <time>2013-07-06T14:27:58Z</time>
      </trkpt>
      <trkpt lat="40.009200" lon="-4.986150">
        <ele>1909.0</ele>
        <time>2013-07-06T14:27:59Z</time>
      </trkpt>
      <trkpt lat="40.009217" lon="-4.986083">
        <ele>1908.0</ele>
        <time>2013-07-06T14:28:00Z</time>
      </trkpt>
      <trkpt lat="40.009217" lon="-4.986000">
        <ele>1907.0</ele>
        <time>2013-07-06T14:28:01Z</time>
      </trkpt>
      <trkpt lat="40.009200" lon="-4.985900">
        <ele>1906.0</ele>
        <time>2013-07-06T14:28:02Z</time>
      </trkpt>
      <trkpt lat="40.009150" lon="-4.985800">
        <ele>1905.0</ele>
        <time>2013-07-06T14:28:03Z</time>
      </trkpt>
      <trkpt lat="40.009083" lon="-4.985717">
        <ele>1905.0</ele>
        <time>2013-07-06T14:28:04Z</time>
      </trkpt>
      <trkpt lat="40.009017" lon="-4.985650">
        <ele>1905.0</ele>
        <time>2013-07-06T14:28:05Z</time>
      </trkpt>
      <trkpt lat="40.008950" lon="-4.985583">
        <ele>1905.0</ele>
        <time>2013-07-06T14:28:06Z</time>
      </trkpt>
      <trkpt lat="40.008850" lon="-4.985550">
        <ele>1905.0</ele>
        <time>2013-07-06T14:28:07Z</time>
      </trkpt>
      <trkpt lat="40.008750" lon="-4.985517">
        <ele>1905.0</ele>
        <time>2013-07-06T14:28:08Z</time>
      </trkpt>
      <trkpt lat="40.008650" lon="-4.985517">
        <ele>1904.0</ele>
        <time>2013-07-06T14:28:09Z</time>
      </trkpt>
      <trkpt lat="40.008550" lon="-4.985550">
        <ele>1904.0</ele>
        <time>2013-07-06T14:28:10Z</time>
      </trkpt>
      <trkpt lat="40.008467" lon="-4.985600">
        <ele>1904.0</ele>
        <time>2013-07-06T14:28:11Z</time>
      </trkpt>
      <trkpt lat="40.008367" lon="-4.985683">
        <ele>1904.0</ele>
        <time>2013-07-06T14:28:12Z</time>
      </trkpt>
      <trkpt lat="40.008267" lon="-4.985800">
        <ele>1904.0</ele>
        <time>2013-07-06T14:28:13Z</time>
      </trkpt>
      <trkpt lat="40.008200" lon="-4.985900">
        <ele>1904.0</ele>
        <time>2013-07-06T14:28:14Z</time>
      </trkpt>
      <trkpt lat="40.008167" lon="-4.986000">
        <ele>1905.0</ele>
        <time>2013-07-06T14:28:15Z</time>
      </trkpt>
      <trkpt lat="40.008133" lon="-4.986117">
        <ele>1905.0</ele>
        <time>2013-07-06T14:28:16Z</time>
      </trkpt>
      <trkpt lat="40.008117" lon="-4.986233">
        <ele>1904.0</ele>
        <time>2013-07-06T14:28:17Z</time>
      </trkpt>
      <trkpt lat="40.008100" lon="-4.986350">
        <ele>1903.0</ele>
        <time>2013-07-06T14:28:18Z</time>
      </trkpt>
      <trkpt lat="40.008117" lon="-4.986483">
        <ele>1902.0</ele>
        <time>2013-07-06T14:28:19Z</time>
      </trkpt>
      <trkpt lat="40.008117" lon="-4.986600">
        <ele>1902.0</ele>
        <time>2013-07-06T14:28:20Z</time>
      </trkpt>
      <trkpt lat="40.008150" lon="-4.986700">
        <ele>1901.0</ele>
        <time>2013-07-06T14:28:21Z</time>
      </trkpt>
      <trkpt lat="40.008200" lon="-4.986767">
        <ele>1899.0</ele>
        <time>2013-07-06T14:28:22Z</time>
      </trkpt>
      <trkpt lat="40.008267" lon="-4.986817">
        <ele>1898.0</ele>
        <time>2013-07-06T14:28:23Z</time>
      </trkpt>
      <trkpt lat="40.008333" lon="-4.986850">
        <ele>1897.0</ele>
        <time>2013-07-06T14:28:24Z</time>
      </trkpt>
      <trkpt lat="40.008383" lon="-4.986867">
        <ele>1898.0</ele>
        <time>2013-07-06T14:28:25Z</time>
      </trkpt>
      <trkpt lat="40.008433" lon="-4.986867">
        <ele>1900.0</ele>
        <time>2013-07-06T14:28:26Z</time>
      </trkpt>
      <trkpt lat="40.008467" lon="-4.986850">
        <ele>1900.0</ele>
        <time>2013-07-06T14:28:27Z</time>
      </trkpt>
      <trkpt lat="40.008517" lon="-4.986833">
        <ele>1899.0</ele>
        <time>2013-07-06T14:28:28Z</time>
      </trkpt>
      <trkpt lat="40.008567" lon="-4.986783">
        <ele>1898.0</ele>
        <time>2013-07-06T14:28:29Z</time>
      </trkpt>
      <trkpt lat="40.008600" lon="-4.986733">
        <ele>1898.0</ele>
        <time>2013-07-06T14:28:30Z</time>
      </trkpt>
      <trkpt lat="40.008650" lon="-4.986683">
        <ele>1897.0</ele>
        <time>2013-07-06T14:28:31Z</time>
      </trkpt>
      <trkpt lat="40.008667" lon="-4.986617">
        <ele>1896.0</ele>
        <time>2013-07-06T14:28:32Z</time>
      </trkpt>
      <trkpt lat="40.008683" lon="-4.986550">
        <ele>1895.0</ele>
        <time>2013-07-06T14:28:33Z</time>
      </trkpt>
      <trkpt lat="40.008700" lon="-4.986483">
        <ele>1895.0</ele>
        <time>2013-07-06T14:28:34Z</time>
      </trkpt>
      <trkpt lat="40.008700" lon="-4.986400">
        <ele>1894.0</ele>
        <time>2013-07-06T14:28:35Z</time>
      </trkpt>
      <trkpt lat="40.008700" lon="-4.986333">
        <ele>1893.0</ele>
        <time>2013-07-06T14:28:36Z</time>
      </trkpt>
      <trkpt lat="40.008683" lon="-4.986233">
        <ele>1891.0</ele>
        <time>2013-07-06T14:28:37Z</time>
      </trkpt>
      <trkpt lat="40.008650" lon="-4.986133">
        <ele>1891.0</ele>
        <time>2013-07-06T14:28:38Z</time>
      </trkpt>
      <trkpt lat="40.008617" lon="-4.986050">
        <ele>1893.0</ele>
        <time>2013-07-06T14:28:39Z</time>
      </trkpt>
      <trkpt lat="40.008550" lon="-4.985983">
        <ele>1894.0</ele>
        <time>2013-07-06T14:28:40Z</time>
      </trkpt>
      <trkpt lat="40.008483" lon="-4.985917">
        <ele>1895.0</ele>
        <time>2013-07-06T14:28:41Z</time>
      </trkpt>
      <trkpt lat="40.008400" lon="-4.985883">
        <ele>1895.0</ele>
        <time>2013-07-06T14:28:42Z</time>
      </trkpt>
      <trkpt lat="40.008300" lon="-4.985850">
        <ele>1895.0</ele>
        <time>2013-07-06T14:28:43Z</time>
      </trkpt>
      <trkpt lat="40.008183" lon="-4.985850">
        <ele>1895.0</ele>
        <time>2013-07-06T14:28:44Z</time>
      </trkpt>
      <trkpt lat="40.008067" lon="-4.985850">
        <ele>1895.0</ele>
        <time>2013-07-06T14:28:45Z</time>
      </trkpt>
      <trkpt lat="40.007950" lon="-4.985900">
        <ele>1894.0</ele>
        <time>2013-07-06T14:28:46Z</time>
      </trkpt>
      <trkpt lat="40.007833" lon="-4.985967">
        <ele>1895.0</ele>
        <time>2013-07-06T14:28:47Z</time>
      </trkpt>
      <trkpt lat="40.007733" lon="-4.986050">
        <ele>1894.0</ele>
        <time>2013-07-06T14:28:48Z</time>
      </trkpt>
      <trkpt lat="40.007650" lon="-4.986167">
        <ele>1894.0</ele>
        <time>2013-07-06T14:28:49Z</time>
      </trkpt>
      <trkpt lat="40.007583" lon="-4.986300">
        <ele>1894.0</ele>
        <time>2013-07-06T14:28:50Z</time>
      </trkpt>
      <trkpt lat="40.007533" lon="-4.986417">
        <ele>1893.0</ele>
        <time>2013-07-06T14:28:51Z</time>
      </trkpt>
      <trkpt lat="40.007500" lon="-4.986550">
        <ele>1893.0</ele>
        <time>2013-07-06T14:28:52Z</time>
      </trkpt>
      <trkpt lat="40.007483" lon="-4.986683">
        <ele>1892.0</ele>
        <time>2013-07-06T14:28:53Z</time>
      </trkpt>
      <trkpt lat="40.007483" lon="-4.986800">
        <ele>1891.0</ele>
        <time>2013-07-06T14:28:54Z</time>
      </trkpt>
      <trkpt lat="40.007500" lon="-4.986900">
        <ele>1890.0</ele>
        <time>2013-07-06T14:28:55Z</time>
      </trkpt>
      <trkpt lat="40.007533" lon="-4.986983">
        <ele>1888.0</ele>
        <time>2013-07-06T14:28:56Z</time>
      </trkpt>
      <trkpt lat="40.007583" lon="-4.987067">
        <ele>1887.0</ele>
        <time>2013-07-06T14:28:57Z</time>
      </trkpt>
      <trkpt lat="40.007633" lon="-4.987100">
        <ele>1885.0</ele>
        <time>2013-07-06T14:28:58Z</time>
      </trkpt>
      <trkpt lat="40.007683" lon="-4.987117">
        <ele>1884.0</ele>
        <time>2013-07-06T14:28:59Z</time>
      </trkpt>
      <trkpt lat="40.007750" lon="-4.987083">
        <ele>1883.0</ele>
        <time>2013-07-06T14:29:00Z</time>
      </trkpt>
      <trkpt lat="40.007767" lon="-4.987033">
        <ele>1882.0</ele>
        <time>2013-07-06T14:29:01Z</time>
      </trkpt>
      <trkpt lat="40.007783" lon="-4.986983">
        <ele>1882.0</ele>
        <time>2013-07-06T14:29:02Z</time>
      </trkpt>
      <trkpt lat="40.007800" lon="-4.986900">
        <ele>1881.0</ele>
        <time>2013-07-06T14:29:03Z</time>
      </trkpt>
      <trkpt lat="40.007800" lon="-4.986833">
        <ele>1880.0</ele>
        <time>2013-07-06T14:29:04Z</time>
      </trkpt>
      <trkpt lat="40.007817" lon="-4.986750">
        <ele>1879.0</ele>
        <time>2013-07-06T14:29:05Z</time>
      </trkpt>
      <trkpt lat="40.007800" lon="-4.986683">
        <ele>1878.0</ele>
        <time>2013-07-06T14:29:06Z</time>
      </trkpt>
      <trkpt lat="40.007800" lon="-4.986600">
        <ele>1877.0</ele>
        <time>2013-07-06T14:29:07Z</time>
      </trkpt>
      <trkpt lat="40.007783" lon="-4.986517">
        <ele>1876.0</ele>
        <time>2013-07-06T14:29:08Z</time>
      </trkpt>
      <trkpt lat="40.007767" lon="-4.986433">
        <ele>1876.0</ele>
        <time>2013-07-06T14:29:09Z</time>
      </trkpt>
      <trkpt lat="40.007767" lon="-4.986350">
        <ele>1875.0</ele>
        <time>2013-07-06T14:29:10Z</time>
      </trkpt>
      <trkpt lat="40.007767" lon="-4.986283">
        <ele>1875.0</ele>
        <time>2013-07-06T14:29:11Z</time>
      </trkpt>
      <trkpt lat="40.007767" lon="-4.986200">
        <ele>1874.0</ele>
        <time>2013-07-06T14:29:12Z</time>
      </trkpt>
      <trkpt lat="40.007767" lon="-4.986117">
        <ele>1873.0</ele>
        <time>2013-07-06T14:29:13Z</time>
      </trkpt>
      <trkpt lat="40.007750" lon="-4.986033">
        <ele>1873.0</ele>
        <time>2013-07-06T14:29:14Z</time>
      </trkpt>
      <trkpt lat="40.007733" lon="-4.985950">
        <ele>1873.0</ele>
        <time>2013-07-06T14:29:15Z</time>
      </trkpt>
      <trkpt lat="40.007700" lon="-4.985867">
        <ele>1873.0</ele>
        <time>2013-07-06T14:29:16Z</time>
      </trkpt>
      <trkpt lat="40.007667" lon="-4.985767">
        <ele>1873.0</ele>
        <time>2013-07-06T14:29:17Z</time>
      </trkpt>
      <trkpt lat="40.007633" lon="-4.985683">
        <ele>1874.0</ele>
        <time>2013-07-06T14:29:18Z</time>
      </trkpt>
      <trkpt lat="40.007617" lon="-4.985600">
        <ele>1874.0</ele>
        <time>2013-07-06T14:29:19Z</time>
      </trkpt>
      <trkpt lat="40.007583" lon="-4.985517">
        <ele>1875.0</ele>
        <time>2013-07-06T14:29:20Z</time>
      </trkpt>
      <trkpt lat="40.007533" lon="-4.985433">
        <ele>1876.0</ele>
        <time>2013-07-06T14:29:21Z</time>
      </trkpt>
      <trkpt lat="40.007483" lon="-4.985350">
        <ele>1876.0</ele>
        <time>2013-07-06T14:29:22Z</time>
      </trkpt>
      <trkpt lat="40.007433" lon="-4.985267">
        <ele>1876.0</ele>
        <time>2013-07-06T14:29:23Z</time>
      </trkpt>
      <trkpt lat="40.007367" lon="-4.985183">
        <ele>1876.0</ele>
        <time>2013-07-06T14:29:24Z</time>
      </trkpt>
      <trkpt lat="40.007300" lon="-4.985117">
        <ele>1877.0</ele>
        <time>2013-07-06T14:29:25Z</time>
      </trkpt>
      <trkpt lat="40.007217" lon="-4.985067">
        <ele>1877.0</ele>
        <time>2013-07-06T14:29:26Z</time>
      </trkpt>
      <trkpt lat="40.007133" lon="-4.985017">
        <ele>1877.0</ele>
        <time>2013-07-06T14:29:27Z</time>
      </trkpt>
      <trkpt lat="40.007050" lon="-4.984967">
        <ele>1877.0</ele>
        <time>2013-07-06T14:29:28Z</time>
      </trkpt>
      <trkpt lat="40.006950" lon="-4.984917">
        <ele>1877.0</ele>
        <time>2013-07-06T14:29:29Z</time>
      </trkpt>
      <trkpt lat="40.006867" lon="-4.984850">
        <ele>1877.0</ele>
        <time>2013-07-06T14:29:30Z</time>
      </trkpt>
      <trkpt lat="40.006783" lon="-4.984800">
        <ele>1877.0</ele>
        <time>2013-07-06T14:29:31Z</time>
      </trkpt>
      <trkpt lat="40.006700" lon="-4.984733">
        <ele>1877.0</ele>
        <time>2013-07-06T14:29:32Z</time>
      </trkpt>
      <trkpt lat="40.006633" lon="-4.984683">
        <ele>1878.0</ele>
        <time>2013-07-06T14:29:33Z</time>
      </trkpt>
      <trkpt lat="40.006550" lon="-4.984617">
        <ele>1878.0</ele>
        <time>2013-07-06T14:29:34Z</time>
      </trkpt>
      <trkpt lat="40.006467" lon="-4.984567">
        <ele>1879.0</ele>
        <time>2013-07-06T14:29:35Z</time>
      </trkpt>
      <trkpt lat="40.006383" lon="-4.984533">
        <ele>1879.0</ele>
        <time>2013-07-06T14:29:36Z</time>
      </trkpt>
      <trkpt lat="40.006283" lon="-4.984517">
        <ele>1880.0</ele>
        <time>2013-07-06T14:29:37Z</time>
      </trkpt>
      <trkpt lat="40.006167" lon="-4.984533">
        <ele>1880.0</ele>
        <time>2013-07-06T14:29:38Z</time>
      </trkpt>
      <trkpt lat="40.006067" lon="-4.984567">
        <ele>1880.0</ele>
        <time>2013-07-06T14:29:39Z</time>
      </trkpt>
      <trkpt lat="40.005967" lon="-4.984633">
        <ele>1880.0</ele>
        <time>2013-07-06T14:29:40Z</time>
      </trkpt>
      <trkpt lat="40.005883" lon="-4.984733">
        <ele>1880.0</ele>
        <time>2013-07-06T14:29:41Z</time>
      </trkpt>
      <trkpt lat="40.005817" lon="-4.984850">
        <ele>1879.0</ele>
        <time>2013-07-06T14:29:42Z</time>
      </trkpt>
      <trkpt lat="40.005783" lon="-4.984983">
        <ele>1878.0</ele>
        <time>2013-07-06T14:29:43Z</time>
      </trkpt>
      <trkpt lat="40.005767" lon="-4.985133">
        <ele>1878.0</ele>
        <time>2013-07-06T14:29:44Z</time>
      </trkpt>
      <trkpt lat="40.005750" lon="-4.985283">
        <ele>1877.0</ele>
        <time>2013-07-06T14:29:45Z</time>
      </trkpt>
      <trkpt lat="40.005767" lon="-4.985400">
        <ele>1877.0</ele>
        <time>2013-07-06T14:29:46Z</time>
      </trkpt>
      <trkpt lat="40.005767" lon="-4.985533">
        <ele>1877.0</ele>
        <time>2013-07-06T14:29:47Z</time>
      </trkpt>
      <trkpt lat="40.005783" lon="-4.985633">
        <ele>1877.0</ele>
        <time>2013-07-06T14:29:48Z</time>
      </trkpt>
      <trkpt lat="40.005800" lon="-4.985733">
        <ele>1878.0</ele>
        <time>2013-07-06T14:29:49Z</time>
      </trkpt>
      <trkpt lat="40.005833" lon="-4.985833">
        <ele>1877.0</ele>
        <time>2013-07-06T14:29:50Z</time>
      </trkpt>
      <trkpt lat="40.005883" lon="-4.985917">
        <ele>1876.0</ele>
        <time>2013-07-06T14:29:51Z</time>
      </trkpt>
      <trkpt lat="40.005950" lon="-4.986000">
        <ele>1875.0</ele>
        <time>2013-07-06T14:29:52Z</time>
      </trkpt>
      <trkpt lat="40.006017" lon="-4.986083">
        <ele>1874.0</ele>
        <time>2013-07-06T14:29:53Z</time>
      </trkpt>
      <trkpt lat="40.006100" lon="-4.986150">
        <ele>1873.0</ele>
        <time>2013-07-06T14:29:54Z</time>
      </trkpt>
      <trkpt lat="40.006150" lon="-4.986233">
        <ele>1872.0</ele>
        <time>2013-07-06T14:29:55Z</time>
      </trkpt>
      <trkpt lat="40.006217" lon="-4.986300">
        <ele>1872.0</ele>
        <time>2013-07-06T14:29:56Z</time>
      </trkpt>
      <trkpt lat="40.006283" lon="-4.986367">
        <ele>1872.0</ele>
        <time>2013-07-06T14:29:57Z</time>
      </trkpt>
      <trkpt lat="40.006367" lon="-4.986417">
        <ele>1871.0</ele>
        <time>2013-07-06T14:29:58Z</time>
      </trkpt>
      <trkpt lat="40.006433" lon="-4.986467">
        <ele>1870.0</ele>
        <time>2013-07-06T14:29:59Z</time>
      </trkpt>
      <trkpt lat="40.006500" lon="-4.986500">
        <ele>1869.0</ele>
        <time>2013-07-06T14:30:00Z</time>
      </trkpt>
      <trkpt lat="40.006567" lon="-4.986533">
        <ele>1869.0</ele>
        <time>2013-07-06T14:30:01Z</time>
      </trkpt>
      <trkpt lat="40.006633" lon="-4.986583">
        <ele>1870.0</ele>
        <time>2013-07-06T14:30:02Z</time>
      </trkpt>
      <trkpt lat="40.006700" lon="-4.986617">
        <ele>1870.0</ele>
        <time>2013-07-06T14:30:03Z</time>
      </trkpt>
      <trkpt lat="40.006767" lon="-4.986650">
        <ele>1869.0</ele>
        <time>2013-07-06T14:30:04Z</time>
      </trkpt>
      <trkpt lat="40.006833" lon="-4.986683">
        <ele>1868.0</ele>
        <time>2013-07-06T14:30:05Z</time>
      </trkpt>
      <trkpt lat="40.006917" lon="-4.986733">
        <ele>1867.0</ele>
        <time>2013-07-06T14:30:06Z</time>
      </trkpt>
      <trkpt lat="40.006983" lon="-4.986783">
        <ele>1867.0</ele>
        <time>2013-07-06T14:30:07Z</time>
      </trkpt>
      <trkpt lat="40.007050" lon="-4.986833">
        <ele>1866.0</ele>
        <time>2013-07-06T14:30:08Z</time>
      </trkpt>
      <trkpt lat="40.007100" lon="-4.986883">
        <ele>1867.0</ele>
        <time>2013-07-06T14:30:09Z</time>
      </trkpt>
      <trkpt lat="40.007167" lon="-4.986917">
        <ele>1867.0</ele>
        <time>2013-07-06T14:30:10Z</time>
      </trkpt>
      <trkpt lat="40.007233" lon="-4.986933">
        <ele>1866.0</ele>
        <time>2013-07-06T14:30:11Z</time>
      </trkpt>
      <trkpt lat="40.007300" lon="-4.986950">
        <ele>1865.0</ele>
        <time>2013-07-06T14:30:12Z</time>
      </trkpt>
      <trkpt lat="40.007367" lon="-4.986967">
        <ele>1864.0</ele>
        <time>2013-07-06T14:30:13Z</time>
      </trkpt>
      <trkpt lat="40.007433" lon="-4.986983">
        <ele>1862.0</ele>
        <time>2013-07-06T14:30:14Z</time>
      </trkpt>
      <trkpt lat="40.007483" lon="-4.986983">
        <ele>1861.0</ele>
        <time>2013-07-06T14:30:15Z</time>
      </trkpt>
      <trkpt lat="40.007550" lon="-4.987000">
        <ele>1859.0</ele>
        <time>2013-07-06T14:30:16Z</time>
      </trkpt>
      <trkpt lat="40.007600" lon="-4.987000">
        <ele>1858.0</ele>
        <time>2013-07-06T14:30:17Z</time>
      </trkpt>
      <trkpt lat="40.007717" lon="-4.987017">
        <ele>1854.0</ele>
        <time>2013-07-06T14:30:19Z</time>
      </trkpt>
      <trkpt lat="40.007783" lon="-4.987017">
        <ele>1852.0</ele>
        <time>2013-07-06T14:30:20Z</time>
      </trkpt>
      <trkpt lat="40.007850" lon="-4.987033">
        <ele>1850.0</ele>
        <time>2013-07-06T14:30:21Z</time>
      </trkpt>
      <trkpt lat="40.007917" lon="-4.987050">
        <ele>1849.0</ele>
        <time>2013-07-06T14:30:22Z</time>
      </trkpt>
      <trkpt lat="40.007983" lon="-4.987067">
        <ele>1848.0</ele>
        <time>2013-07-06T14:30:23Z</time>
      </trkpt>
      <trkpt lat="40.008050" lon="-4.987100">
        <ele>1847.0</ele>
        <time>2013-07-06T14:30:24Z</time>
      </trkpt>
      <trkpt lat="40.008117" lon="-4.987133">
        <ele>1845.0</ele>
        <time>2013-07-06T14:30:25Z</time>
      </trkpt>
      <trkpt lat="40.008183" lon="-4.987167">
        <ele>1844.0</ele>
        <time>2013-07-06T14:30:26Z</time>
      </trkpt>
      <trkpt lat="40.008250" lon="-4.987200">
        <ele>1843.0</ele>
        <time>2013-07-06T14:30:27Z</time>
      </trkpt>
      <trkpt lat="40.008317" lon="-4.987233">
        <ele>1843.0</ele>
        <time>2013-07-06T14:30:28Z</time>
      </trkpt>
      <trkpt lat="40.008367" lon="-4.987250">
        <ele>1843.0</ele>
        <time>2013-07-06T14:30:29Z</time>
      </trkpt>
      <trkpt lat="40.008583" lon="-4.987333">
        <ele>1841.0</ele>
        <time>2013-07-06T14:30:32Z</time>
      </trkpt>
      <trkpt lat="40.008717" lon="-4.987367">
        <ele>1843.0</ele>
        <time>2013-07-06T14:30:34Z</time>
      </trkpt>
      <trkpt lat="40.008783" lon="-4.987383">
        <ele>1843.0</ele>
        <time>2013-07-06T14:30:35Z</time>
      </trkpt>
      <trkpt lat="40.008850" lon="-4.987383">
        <ele>1843.0</ele>
        <time>2013-07-06T14:30:36Z</time>
      </trkpt>
      <trkpt lat="40.008917" lon="-4.987400">
        <ele>1843.0</ele>
        <time>2013-07-06T14:30:37Z</time>
      </trkpt>
      <trkpt lat="40.009000" lon="-4.987400">
        <ele>1842.0</ele>
        <time>2013-07-06T14:30:38Z</time>
      </trkpt>
      <trkpt lat="40.009067" lon="-4.987400">
        <ele>1841.0</ele>
        <time>2013-07-06T14:30:39Z</time>
      </trkpt>
      <trkpt lat="40.009150" lon="-4.987400">
        <ele>1841.0</ele>
        <time>2013-07-06T14:30:40Z</time>
      </trkpt>
      <trkpt lat="40.009217" lon="-4.987400">
        <ele>1840.0</ele>
        <time>2013-07-06T14:30:41Z</time>
      </trkpt>
      <trkpt lat="40.009300" lon="-4.987367">
        <ele>1839.0</ele>
        <time>2013-07-06T14:30:42Z</time>
      </trkpt>
      <trkpt lat="40.009383" lon="-4.987350">
        <ele>1837.0</ele>
        <time>2013-07-06T14:30:43Z</time>
      </trkpt>
      <trkpt lat="40.009467" lon="-4.987333">
        <ele>1836.0</ele>
        <time>2013-07-06T14:30:44Z</time>
      </trkpt>
      <trkpt lat="40.009550" lon="-4.987333">
        <ele>1836.0</ele>
        <time>2013-07-06T14:30:45Z</time>
      </trkpt>
      <trkpt lat="40.009650" lon="-4.987333">
        <ele>1835.0</ele>
        <time>2013-07-06T14:30:46Z</time>
      </trkpt>
      <trkpt lat="40.009733" lon="-4.987317">
        <ele>1836.0</ele>
        <time>2013-07-06T14:30:47Z</time>
      </trkpt>
      <trkpt lat="40.009817" lon="-4.987300">
        <ele>1838.0</ele>
        <time>2013-07-06T14:30:48Z</time>
      </trkpt>
      <trkpt lat="40.009900" lon="-4.987283">
        <ele>1840.0</ele>
        <time>2013-07-06T14:30:49Z</time>
      </trkpt>
      <trkpt lat="40.009983" lon="-4.987283">
        <ele>1843.0</ele>
        <time>2013-07-06T14:30:50Z</time>
      </trkpt>
      <trkpt lat="40.010050" lon="-4.987283">
        <ele>1846.0</ele>
        <time>2013-07-06T14:30:51Z</time>
      </trkpt>
      <trkpt lat="40.010167" lon="-4.987317">
        <ele>1849.0</ele>
        <time>2013-07-06T14:30:53Z</time>
      </trkpt>
      <trkpt lat="40.010217" lon="-4.987317">
        <ele>1850.0</ele>
        <time>2013-07-06T14:30:54Z</time>
      </trkpt>
      <trkpt lat="40.010283" lon="-4.987300">
        <ele>1851.0</ele>
        <time>2013-07-06T14:30:55Z</time>
      </trkpt>
      <trkpt lat="40.010350" lon="-4.987300">
        <ele>1851.0</ele>
        <time>2013-07-06T14:30:56Z</time>
      </trkpt>
      <trkpt lat="40.010400" lon="-4.987300">
        <ele>1852.0</ele>
        <time>2013-07-06T14:30:57Z</time>
      </trkpt>
      <trkpt lat="40.010467" lon="-4.987300">
        <ele>1854.0</ele>
        <time>2013-07-06T14:30:58Z</time>
      </trkpt>
      <trkpt lat="40.010517" lon="-4.987300">
        <ele>1856.0</ele>
        <time>2013-07-06T14:30:59Z</time>
      </trkpt>
      <trkpt lat="40.010567" lon="-4.987300">
        <ele>1857.0</ele>
        <time>2013-07-06T14:31:00Z</time>
      </trkpt>
      <trkpt lat="40.010633" lon="-4.987300">
        <ele>1858.0</ele>
        <time>2013-07-06T14:31:01Z</time>
      </trkpt>
      <trkpt lat="40.010683" lon="-4.987317">
        <ele>1860.0</ele>
        <time>2013-07-06T14:31:02Z</time>
      </trkpt>
      <trkpt lat="40.010733" lon="-4.987317">
        <ele>1861.0</ele>
        <time>2013-07-06T14:31:03Z</time>
      </trkpt>
      <trkpt lat="40.010783" lon="-4.987317">
        <ele>1862.0</ele>
        <time>2013-07-06T14:31:04Z</time>
      </trkpt>
      <trkpt lat="40.010833" lon="-4.987317">
        <ele>1862.0</ele>
        <time>2013-07-06T14:31:05Z</time>
      </trkpt>
      <trkpt lat="40.010900" lon="-4.987317">
        <ele>1862.0</ele>
        <time>2013-07-06T14:31:06Z</time>
      </trkpt>
      <trkpt lat="40.010950" lon="-4.987317">
        <ele>1862.0</ele>
        <time>2013-07-06T14:31:07Z</time>
      </trkpt>
      <trkpt lat="40.011000" lon="-4.987317">
        <ele>1863.0</ele>
        <time>2013-07-06T14:31:08Z</time>
      </trkpt>
      <trkpt lat="40.011050" lon="-4.987333">
        <ele>1865.0</ele>
        <time>2013-07-06T14:31:09Z</time>
      </trkpt>
      <trkpt lat="40.011100" lon="-4.987333">
        <ele>1867.0</ele>
        <time>2013-07-06T14:31:10Z</time>
      </trkpt>
      <trkpt lat="40.011150" lon="-4.987333">
        <ele>1870.0</ele>
        <time>2013-07-06T14:31:11Z</time>
      </trkpt>
      <trkpt lat="40.011183" lon="-4.987333">
        <ele>1872.0</ele>
        <time>2013-07-06T14:31:12Z</time>
      </trkpt>
      <trkpt lat="40.011217" lon="-4.987333">
        <ele>1875.0</ele>
        <time>2013-07-06T14:31:13Z</time>
      </trkpt>
      <trkpt lat="40.011233" lon="-4.987333">
        <ele>1877.0</ele>
        <time>2013-07-06T14:31:14Z</time>
      </trkpt>
      <trkpt lat="40.011267" lon="-4.987333">
        <ele>1879.0</ele>
        <time>2013-07-06T14:31:15Z</time>
      </trkpt>
      <trkpt lat="40.011283" lon="-4.987317">
        <ele>1881.0</ele>
        <time>2013-07-06T14:31:16Z</time>
      </trkpt>
      <trkpt lat="40.011333" lon="-4.987283">
        <ele>1882.0</ele>
        <time>2013-07-06T14:31:17Z</time>
      </trkpt>
      <trkpt lat="40.011350" lon="-4.987250">
        <ele>1883.0</ele>
        <time>2013-07-06T14:31:18Z</time>
      </trkpt>
      <trkpt lat="40.011367" lon="-4.987200">
        <ele>1885.0</ele>
        <time>2013-07-06T14:31:19Z</time>
      </trkpt>
      <trkpt lat="40.011350" lon="-4.987133">
        <ele>1888.0</ele>
        <time>2013-07-06T14:31:20Z</time>
      </trkpt>
      <trkpt lat="40.011317" lon="-4.987067">
        <ele>1890.0</ele>
        <time>2013-07-06T14:31:21Z</time>
      </trkpt>
      <trkpt lat="40.011267" lon="-4.986983">
        <ele>1891.0</ele>
        <time>2013-07-06T14:31:22Z</time>
      </trkpt>
      <trkpt lat="40.011183" lon="-4.986900">
        <ele>1893.0</ele>
        <time>2013-07-06T14:31:23Z</time>
      </trkpt>
      <trkpt lat="40.011117" lon="-4.986833">
        <ele>1896.0</ele>
        <time>2013-07-06T14:31:24Z</time>
      </trkpt>
      <trkpt lat="40.011017" lon="-4.986783">
        <ele>1898.0</ele>
        <time>2013-07-06T14:31:25Z</time>
      </trkpt>
      <trkpt lat="40.010917" lon="-4.986767">
        <ele>1901.0</ele>
        <time>2013-07-06T14:31:26Z</time>
      </trkpt>
      <trkpt lat="40.010817" lon="-4.986767">
        <ele>1903.0</ele>
        <time>2013-07-06T14:31:27Z</time>
      </trkpt>
      <trkpt lat="40.010717" lon="-4.986783">
        <ele>1905.0</ele>
        <time>2013-07-06T14:31:28Z</time>
      </trkpt>
      <trkpt lat="40.010617" lon="-4.986833">
        <ele>1906.0</ele>
        <time>2013-07-06T14:31:29Z</time>
      </trkpt>
      <trkpt lat="40.010517" lon="-4.986900">
        <ele>1907.0</ele>
        <time>2013-07-06T14:31:30Z</time>
      </trkpt>
      <trkpt lat="40.010417" lon="-4.987000">
        <ele>1909.0</ele>
        <time>2013-07-06T14:31:31Z</time>
      </trkpt>
      <trkpt lat="40.010333" lon="-4.987117">
        <ele>1910.0</ele>
        <time>2013-07-06T14:31:32Z</time>
      </trkpt>
      <trkpt lat="40.010250" lon="-4.987217">
        <ele>1912.0</ele>
        <time>2013-07-06T14:31:33Z</time>
      </trkpt>
      <trkpt lat="40.010200" lon="-4.987317">
        <ele>1914.0</ele>
        <time>2013-07-06T14:31:34Z</time>
      </trkpt>
      <trkpt lat="40.010133" lon="-4.987433">
        <ele>1916.0</ele>
        <time>2013-07-06T14:31:35Z</time>
      </trkpt>
      <trkpt lat="40.010100" lon="-4.987533">
        <ele>1917.0</ele>
        <time>2013-07-06T14:31:36Z</time>
      </trkpt>
      <trkpt lat="40.010067" lon="-4.987667">
        <ele>1918.0</ele>
        <time>2013-07-06T14:31:37Z</time>
      </trkpt>
      <trkpt lat="40.010050" lon="-4.987800">
        <ele>1918.0</ele>
        <time>2013-07-06T14:31:38Z</time>
      </trkpt>
      <trkpt lat="40.010067" lon="-4.987917">
        <ele>1918.0</ele>
        <time>2013-07-06T14:31:39Z</time>
      </trkpt>
      <trkpt lat="40.010100" lon="-4.988033">
        <ele>1918.0</ele>
        <time>2013-07-06T14:31:40Z</time>
      </trkpt>
      <trkpt lat="40.010150" lon="-4.988150">
        <ele>1917.0</ele>
        <time>2013-07-06T14:31:41Z</time>
      </trkpt>
      <trkpt lat="40.010200" lon="-4.988233">
        <ele>1917.0</ele>
        <time>2013-07-06T14:31:42Z</time>
      </trkpt>
      <trkpt lat="40.010250" lon="-4.988333">
        <ele>1917.0</ele>
        <time>2013-07-06T14:31:43Z</time>
      </trkpt>
      <trkpt lat="40.010267" lon="-4.988400">
        <ele>1918.0</ele>
        <time>2013-07-06T14:31:44Z</time>
      </trkpt>
      <trkpt lat="40.010300" lon="-4.988467">
        <ele>1921.0</ele>
        <time>2013-07-06T14:31:45Z</time>
      </trkpt>
      <trkpt lat="40.010317" lon="-4.988517">
        <ele>1923.0</ele>
        <time>2013-07-06T14:31:46Z</time>
      </trkpt>
      <trkpt lat="40.010350" lon="-4.988550">
        <ele>1924.0</ele>
        <time>2013-07-06T14:31:47Z</time>
      </trkpt>
      <trkpt lat="40.010400" lon="-4.988583">
        <ele>1924.0</ele>
        <time>2013-07-06T14:31:48Z</time>
      </trkpt>
      <trkpt lat="40.010450" lon="-4.988600">
        <ele>1924.0</ele>
        <time>2013-07-06T14:31:49Z</time>
      </trkpt>
      <trkpt lat="40.010500" lon="-4.988617">
        <ele>1926.0</ele>
        <time>2013-07-06T14:31:50Z</time>
      </trkpt>
      <trkpt lat="40.010533" lon="-4.988617">
        <ele>1929.0</ele>
        <time>2013-07-06T14:31:51Z</time>
      </trkpt>
      <trkpt lat="40.010567" lon="-4.988583">
        <ele>1933.0</ele>
        <time>2013-07-06T14:31:53Z</time>
      </trkpt>
      <trkpt lat="40.010617" lon="-4.988550">
        <ele>1934.0</ele>
        <time>2013-07-06T14:31:54Z</time>
      </trkpt>
      <trkpt lat="40.010667" lon="-4.988500">
        <ele>1935.0</ele>
        <time>2013-07-06T14:31:55Z</time>
      </trkpt>
      <trkpt lat="40.010717" lon="-4.988450">
        <ele>1936.0</ele>
        <time>2013-07-06T14:31:56Z</time>
      </trkpt>
      <trkpt lat="40.010750" lon="-4.988383">
        <ele>1938.0</ele>
        <time>2013-07-06T14:31:57Z</time>
      </trkpt>
      <trkpt lat="40.010783" lon="-4.988350">
        <ele>1943.0</ele>
        <time>2013-07-06T14:31:58Z</time>
      </trkpt>
      <trkpt lat="40.010800" lon="-4.988333">
        <ele>1946.0</ele>
        <time>2013-07-06T14:31:59Z</time>
      </trkpt>
      <trkpt lat="40.010833" lon="-4.988300">
        <ele>1948.0</ele>
        <time>2013-07-06T14:32:00Z</time>
      </trkpt>
      <trkpt lat="40.010867" lon="-4.988283">
        <ele>1950.0</ele>
        <time>2013-07-06T14:32:01Z</time>
      </trkpt>
      <trkpt lat="40.010900" lon="-4.988267">
        <ele>1950.0</ele>
        <time>2013-07-06T14:32:02Z</time>
      </trkpt>
      <trkpt lat="40.010950" lon="-4.988250">
        <ele>1951.0</ele>
        <time>2013-07-06T14:32:03Z</time>
      </trkpt>
      <trkpt lat="40.010983" lon="-4.988233">
        <ele>1952.0</ele>
        <time>2013-07-06T14:32:04Z</time>
      </trkpt>
      <trkpt lat="40.011017" lon="-4.988200">
        <ele>1953.0</ele>
        <time>2013-07-06T14:32:05Z</time>
      </trkpt>
      <trkpt lat="40.011033" lon="-4.988167">
        <ele>1954.0</ele>
        <time>2013-07-06T14:32:06Z</time>
      </trkpt>
      <trkpt lat="40.011067" lon="-4.988117">
        <ele>1955.0</ele>
        <time>2013-07-06T14:32:07Z</time>
      </trkpt>
      <trkpt lat="40.011100" lon="-4.988083">
        <ele>1955.0</ele>
        <time>2013-07-06T14:32:08Z</time>
      </trkpt>
      <trkpt lat="40.011133" lon="-4.988033">
        <ele>1957.0</ele>
        <time>2013-07-06T14:32:09Z</time>
      </trkpt>
      <trkpt lat="40.011150" lon="-4.987983">
        <ele>1959.0</ele>
        <time>2013-07-06T14:32:10Z</time>
      </trkpt>
      <trkpt lat="40.011133" lon="-4.987917">
        <ele>1960.0</ele>
        <time>2013-07-06T14:32:11Z</time>
      </trkpt>
      <trkpt lat="40.011100" lon="-4.987817">
        <ele>1960.0</ele>
        <time>2013-07-06T14:32:12Z</time>
      </trkpt>
      <trkpt lat="40.011033" lon="-4.987717">
        <ele>1958.0</ele>
        <time>2013-07-06T14:32:13Z</time>
      </trkpt>
      <trkpt lat="40.010983" lon="-4.987583">
        <ele>1957.0</ele>
        <time>2013-07-06T14:32:14Z</time>
      </trkpt>
      <trkpt lat="40.010917" lon="-4.987500">
        <ele>1960.0</ele>
        <time>2013-07-06T14:32:15Z</time>
      </trkpt>
      <trkpt lat="40.010850" lon="-4.987433">
        <ele>1962.0</ele>
        <time>2013-07-06T14:32:16Z</time>
      </trkpt>
      <trkpt lat="40.010767" lon="-4.987367">
        <ele>1964.0</ele>
        <time>2013-07-06T14:32:17Z</time>
      </trkpt>
      <trkpt lat="40.010683" lon="-4.987317">
        <ele>1965.0</ele>
        <time>2013-07-06T14:32:18Z</time>
      </trkpt>
      <trkpt lat="40.010583" lon="-4.987283">
        <ele>1966.0</ele>
        <time>2013-07-06T14:32:19Z</time>
      </trkpt>
      <trkpt lat="40.010467" lon="-4.987267">
        <ele>1967.0</ele>
        <time>2013-07-06T14:32:20Z</time>
      </trkpt>
      <trkpt lat="40.010383" lon="-4.987283">
        <ele>1968.0</ele>
        <time>2013-07-06T14:32:21Z</time>
      </trkpt>
      <trkpt lat="40.010300" lon="-4.987333">
        <ele>1969.0</ele>
        <time>2013-07-06T14:32:22Z</time>
      </trkpt>
      <trkpt lat="40.010217" lon="-4.987383">
        <ele>1970.0</ele>
        <time>2013-07-06T14:32:23Z</time>
      </trkpt>
      <trkpt lat="40.010150" lon="-4.987467">
        <ele>1970.0</ele>
        <time>2013-07-06T14:32:24Z</time>
      </trkpt>
      <trkpt lat="40.010067" lon="-4.987567">
        <ele>1970.0</ele>
        <time>2013-07-06T14:32:25Z</time>
      </trkpt>
      <trkpt lat="40.009983" lon="-4.987683">
        <ele>1969.0</ele>
        <time>2013-07-06T14:32:26Z</time>
      </trkpt>
      <trkpt lat="40.009933" lon="-4.987800">
        <ele>1970.0</ele>
        <time>2013-07-06T14:32:27Z</time>
      </trkpt>
      <trkpt lat="40.009900" lon="-4.987933">
        <ele>1970.0</ele>
        <time>2013-07-06T14:32:28Z</time>
      </trkpt>
      <trkpt lat="40.009883" lon="-4.988050">
        <ele>1970.0</ele>
        <time>2013-07-06T14:32:29Z</time>
      </trkpt>
      <trkpt lat="40.009900" lon="-4.988150">
        <ele>1970.0</ele>
        <time>2013-07-06T14:32:30Z</time>
      </trkpt>
      <trkpt lat="40.009917" lon="-4.988250">
        <ele>1969.0</ele>
        <time>2013-07-06T14:32:31Z</time>
      </trkpt>
      <trkpt lat="40.009933" lon="-4.988333">
        <ele>1968.0</ele>
        <time>2013-07-06T14:32:32Z</time>
      </trkpt>
      <trkpt lat="40.009967" lon="-4.988417">
        <ele>1967.0</ele>
        <time>2013-07-06T14:32:33Z</time>
      </trkpt>
      <trkpt lat="40.010017" lon="-4.988467">
        <ele>1967.0</ele>
        <time>2013-07-06T14:32:34Z</time>
      </trkpt>
      <trkpt lat="40.010067" lon="-4.988533">
        <ele>1968.0</ele>
        <time>2013-07-06T14:32:35Z</time>
      </trkpt>
      <trkpt lat="40.010117" lon="-4.988583">
        <ele>1967.0</ele>
        <time>2013-07-06T14:32:36Z</time>
      </trkpt>
      <trkpt lat="40.010150" lon="-4.988617">
        <ele>1967.0</ele>
        <time>2013-07-06T14:32:37Z</time>
      </trkpt>
      <trkpt lat="40.010183" lon="-4.988633">
        <ele>1968.0</ele>
        <time>2013-07-06T14:32:38Z</time>
      </trkpt>
      <trkpt lat="40.010233" lon="-4.988650">
        <ele>1968.0</ele>
        <time>2013-07-06T14:32:39Z</time>
      </trkpt>
      <trkpt lat="40.010267" lon="-4.988633">
        <ele>1968.0</ele>
        <time>2013-07-06T14:32:40Z</time>
      </trkpt>
      <trkpt lat="40.010317" lon="-4.988633">
        <ele>1969.0</ele>
        <time>2013-07-06T14:32:41Z</time>
      </trkpt>
      <trkpt lat="40.010350" lon="-4.988617">
        <ele>1969.0</ele>
        <time>2013-07-06T14:32:42Z</time>
      </trkpt>
      <trkpt lat="40.010417" lon="-4.988600">
        <ele>1968.0</ele>
        <time>2013-07-06T14:32:43Z</time>
      </trkpt>
      <trkpt lat="40.010467" lon="-4.988617">
        <ele>1968.0</ele>
        <time>2013-07-06T14:32:44Z</time>
      </trkpt>
      <trkpt lat="40.010533" lon="-4.988633">
        <ele>1966.0</ele>
        <time>2013-07-06T14:32:45Z</time>
      </trkpt>
      <trkpt lat="40.010600" lon="-4.988667">
        <ele>1966.0</ele>
        <time>2013-07-06T14:32:46Z</time>
      </trkpt>
      <trkpt lat="40.010667" lon="-4.988700">
        <ele>1967.0</ele>
        <time>2013-07-06T14:32:47Z</time>
      </trkpt>
      <trkpt lat="40.010733" lon="-4.988700">
        <ele>1969.0</ele>
        <time>2013-07-06T14:32:48Z</time>
      </trkpt>
      <trkpt lat="40.010783" lon="-4.988700">
        <ele>1971.0</ele>
        <time>2013-07-06T14:32:49Z</time>
      </trkpt>
      <trkpt lat="40.010850" lon="-4.988683">
        <ele>1972.0</ele>
        <time>2013-07-06T14:32:50Z</time>
      </trkpt>
      <trkpt lat="40.010917" lon="-4.988683">
        <ele>1972.0</ele>
        <time>2013-07-06T14:32:51Z</time>
      </trkpt>
      <trkpt lat="40.011000" lon="-4.988683">
        <ele>1972.0</ele>
        <time>2013-07-06T14:32:52Z</time>
      </trkpt>
      <trkpt lat="40.011083" lon="-4.988683">
        <ele>1972.0</ele>
        <time>2013-07-06T14:32:53Z</time>
      </trkpt>
      <trkpt lat="40.011167" lon="-4.988683">
        <ele>1973.0</ele>
        <time>2013-07-06T14:32:54Z</time>
      </trkpt>
      <trkpt lat="40.011233" lon="-4.988700">
        <ele>1975.0</ele>
        <time>2013-07-06T14:32:55Z</time>
      </trkpt>
      <trkpt lat="40.011300" lon="-4.988717">
        <ele>1976.0</ele>
        <time>2013-07-06T14:32:56Z</time>
      </trkpt>
      <trkpt lat="40.011383" lon="-4.988733">
        <ele>1978.0</ele>
        <time>2013-07-06T14:32:57Z</time>
      </trkpt>
      <trkpt lat="40.011450" lon="-4.988750">
        <ele>1979.0</ele>
        <time>2013-07-06T14:32:58Z</time>
      </trkpt>
      <trkpt lat="40.011533" lon="-4.988783">
        <ele>1980.0</ele>
        <time>2013-07-06T14:32:59Z</time>
      </trkpt>
      <trkpt lat="40.011600" lon="-4.988817">
        <ele>1981.0</ele>
        <time>2013-07-06T14:33:00Z</time>
      </trkpt>
      <trkpt lat="40.011683" lon="-4.988850">
        <ele>1982.0</ele>
        <time>2013-07-06T14:33:01Z</time>
      </trkpt>
      <trkpt lat="40.011750" lon="-4.988883">
        <ele>1983.0</ele>
        <time>2013-07-06T14:33:02Z</time>
      </trkpt>
      <trkpt lat="40.011833" lon="-4.988900">
        <ele>1984.0</ele>
        <time>2013-07-06T14:33:03Z</time>
      </trkpt>
      <trkpt lat="40.011900" lon="-4.988883">
        <ele>1985.0</ele>
        <time>2013-07-06T14:33:04Z</time>
      </trkpt>
      <trkpt lat="40.011950" lon="-4.988850">
        <ele>1987.0</ele>
        <time>2013-07-06T14:33:05Z</time>
      </trkpt>
      <trkpt lat="40.011983" lon="-4.988800">
        <ele>1987.0</ele>
        <time>2013-07-06T14:33:06Z</time>
      </trkpt>
      <trkpt lat="40.012033" lon="-4.988733">
        <ele>1988.0</ele>
        <time>2013-07-06T14:33:07Z</time>
      </trkpt>
      <trkpt lat="40.012050" lon="-4.988650">
        <ele>1987.0</ele>
        <time>2013-07-06T14:33:08Z</time>
      </trkpt>
      <trkpt lat="40.012050" lon="-4.988550">
        <ele>1987.0</ele>
        <time>2013-07-06T14:33:09Z</time>
      </trkpt>
      <trkpt lat="40.012017" lon="-4.988467">
        <ele>1987.0</ele>
        <time>2013-07-06T14:33:10Z</time>
      </trkpt>
      <trkpt lat="40.011967" lon="-4.988400">
        <ele>1987.0</ele>
        <time>2013-07-06T14:33:11Z</time>
      </trkpt>
      <trkpt lat="40.011883" lon="-4.988383">
        <ele>1987.0</ele>
        <time>2013-07-06T14:33:12Z</time>
      </trkpt>
      <trkpt lat="40.011800" lon="-4.988367">
        <ele>1987.0</ele>
        <time>2013-07-06T14:33:13Z</time>
      </trkpt>
      <trkpt lat="40.011717" lon="-4.988383">
        <ele>1987.0</ele>
        <time>2013-07-06T14:33:14Z</time>
      </trkpt>
      <trkpt lat="40.011617" lon="-4.988400">
        <ele>1986.0</ele>
        <time>2013-07-06T14:33:15Z</time>
      </trkpt>
      <trkpt lat="40.011517" lon="-4.988433">
        <ele>1986.0</ele>
        <time>2013-07-06T14:33:16Z</time>
      </trkpt>
      <trkpt lat="40.011450" lon="-4.988500">
        <ele>1986.0</ele>
        <time>2013-07-06T14:33:17Z</time>
      </trkpt>
      <trkpt lat="40.011367" lon="-4.988583">
        <ele>1986.0</ele>
        <time>2013-07-06T14:33:18Z</time>
      </trkpt>
      <trkpt lat="40.011283" lon="-4.988700">
        <ele>1985.0</ele>
        <time>2013-07-06T14:33:19Z</time>
      </trkpt>
      <trkpt lat="40.011217" lon="-4.988833">
        <ele>1985.0</ele>
        <time>2013-07-06T14:33:20Z</time>
      </trkpt>
      <trkpt lat="40.011183" lon="-4.988983">
        <ele>1984.0</ele>
        <time>2013-07-06T14:33:21Z</time>
      </trkpt>
      <trkpt lat="40.011150" lon="-4.989100">
        <ele>1985.0</ele>
        <time>2013-07-06T14:33:22Z</time>
      </trkpt>
      <trkpt lat="40.011133" lon="-4.989233">
        <ele>1985.0</ele>
        <time>2013-07-06T14:33:23Z</time>
      </trkpt>
      <trkpt lat="40.011117" lon="-4.989367">
        <ele>1985.0</ele>
        <time>2013-07-06T14:33:24Z</time>
      </trkpt>
      <trkpt lat="40.011100" lon="-4.989500">
        <ele>1986.0</ele>
        <time>2013-07-06T14:33:25Z</time>
      </trkpt>
      <trkpt lat="40.011117" lon="-4.989650">
        <ele>1986.0</ele>
        <time>2013-07-06T14:33:26Z</time>
      </trkpt>
      <trkpt lat="40.011150" lon="-4.989783">
        <ele>1987.0</ele>
        <time>2013-07-06T14:33:27Z</time>
      </trkpt>
      <trkpt lat="40.011200" lon="-4.989883">
        <ele>1989.0</ele>
        <time>2013-07-06T14:33:28Z</time>
      </trkpt>
      <trkpt lat="40.011250" lon="-4.989983">
        <ele>1990.0</ele>
        <time>2013-07-06T14:33:29Z</time>
      </trkpt>
      <trkpt lat="40.011300" lon="-4.990083">
        <ele>1991.0</ele>
        <time>2013-07-06T14:33:30Z</time>
      </trkpt>
      <trkpt lat="40.011367" lon="-4.990167">
        <ele>1992.0</ele>
        <time>2013-07-06T14:33:31Z</time>
      </trkpt>
      <trkpt lat="40.011400" lon="-4.990233">
        <ele>1994.0</ele>
        <time>2013-07-06T14:33:32Z</time>
      </trkpt>
      <trkpt lat="40.011450" lon="-4.990317">
        <ele>1995.0</ele>
        <time>2013-07-06T14:33:33Z</time>
      </trkpt>
      <trkpt lat="40.011483" lon="-4.990367">
        <ele>1997.0</ele>
        <time>2013-07-06T14:33:34Z</time>
      </trkpt>
      <trkpt lat="40.011533" lon="-4.990400">
        <ele>1998.0</ele>
        <time>2013-07-06T14:33:35Z</time>
      </trkpt>
      <trkpt lat="40.011583" lon="-4.990417">
        <ele>1998.0</ele>
        <time>2013-07-06T14:33:36Z</time>
      </trkpt>
      <trkpt lat="40.011650" lon="-4.990450">
        <ele>1998.0</ele>
        <time>2013-07-06T14:33:37Z</time>
      </trkpt>
      <trkpt lat="40.011800" lon="-4.990500">
        <ele>1997.0</ele>
        <time>2013-07-06T14:33:39Z</time>
      </trkpt>
      <trkpt lat="40.011867" lon="-4.990533">
        <ele>1997.0</ele>
        <time>2013-07-06T14:33:40Z</time>
      </trkpt>
      <trkpt lat="40.011933" lon="-4.990567">
        <ele>1998.0</ele>
        <time>2013-07-06T14:33:41Z</time>
      </trkpt>
      <trkpt lat="40.012000" lon="-4.990583">
        <ele>1999.0</ele>
        <time>2013-07-06T14:33:42Z</time>
      </trkpt>
      <trkpt lat="40.012067" lon="-4.990583">
        <ele>2000.0</ele>
        <time>2013-07-06T14:33:43Z</time>
      </trkpt>
      <trkpt lat="40.012133" lon="-4.990583">
        <ele>2000.0</ele>
        <time>2013-07-06T14:33:44Z</time>
      </trkpt>
      <trkpt lat="40.012183" lon="-4.990567">
        <ele>2000.0</ele>
        <time>2013-07-06T14:33:45Z</time>
      </trkpt>
      <trkpt lat="40.012250" lon="-4.990550">
        <ele>2000.0</ele>
        <time>2013-07-06T14:33:46Z</time>
      </trkpt>
      <trkpt lat="40.012300" lon="-4.990500">
        <ele>2001.0</ele>
        <time>2013-07-06T14:33:47Z</time>
      </trkpt>
      <trkpt lat="40.012400" lon="-4.990383">
        <ele>2003.0</ele>
        <time>2013-07-06T14:33:49Z</time>
      </trkpt>
      <trkpt lat="40.012467" lon="-4.990317">
        <ele>2003.0</ele>
        <time>2013-07-06T14:33:50Z</time>
      </trkpt>
      <trkpt lat="40.012517" lon="-4.990233">
        <ele>2003.0</ele>
        <time>2013-07-06T14:33:51Z</time>
      </trkpt>
      <trkpt lat="40.012550" lon="-4.990133">
        <ele>2004.0</ele>
        <time>2013-07-06T14:33:52Z</time>
      </trkpt>
      <trkpt lat="40.012567" lon="-4.990033">
        <ele>2005.0</ele>
        <time>2013-07-06T14:33:53Z</time>
      </trkpt>
      <trkpt lat="40.012567" lon="-4.989933">
        <ele>2005.0</ele>
        <time>2013-07-06T14:33:54Z</time>
      </trkpt>
      <trkpt lat="40.012567" lon="-4.989833">
        <ele>2006.0</ele>
        <time>2013-07-06T14:33:55Z</time>
      </trkpt>
      <trkpt lat="40.012550" lon="-4.989717">
        <ele>2006.0</ele>
        <time>2013-07-06T14:33:56Z</time>
      </trkpt>
      <trkpt lat="40.012533" lon="-4.989617">
        <ele>2007.0</ele>
        <time>2013-07-06T14:33:57Z</time>
      </trkpt>
      <trkpt lat="40.012500" lon="-4.989533">
        <ele>2007.0</ele>
        <time>2013-07-06T14:33:58Z</time>
      </trkpt>
      <trkpt lat="40.012433" lon="-4.989450">
        <ele>2007.0</ele>
        <time>2013-07-06T14:33:59Z</time>
      </trkpt>
      <trkpt lat="40.012367" lon="-4.989383">
        <ele>2007.0</ele>
        <time>2013-07-06T14:34:00Z</time>
      </trkpt>
      <trkpt lat="40.012283" lon="-4.989350">
        <ele>2007.0</ele>
        <time>2013-07-06T14:34:01Z</time>
      </trkpt>
      <trkpt lat="40.012217" lon="-4.989333">
        <ele>2007.0</ele>
        <time>2013-07-06T14:34:02Z</time>
      </trkpt>
      <trkpt lat="40.012133" lon="-4.989350">
        <ele>2006.0</ele>
        <time>2013-07-06T14:34:03Z</time>
      </trkpt>
      <trkpt lat="40.012050" lon="-4.989367">
        <ele>2006.0</ele>
        <time>2013-07-06T14:34:04Z</time>
      </trkpt>
      <trkpt lat="40.011967" lon="-4.989433">
        <ele>2005.0</ele>
        <time>2013-07-06T14:34:05Z</time>
      </trkpt>
      <trkpt lat="40.011883" lon="-4.989517">
        <ele>2004.0</ele>
        <time>2013-07-06T14:34:06Z</time>
      </trkpt>
      <trkpt lat="40.011833" lon="-4.989633">
        <ele>2004.0</ele>
        <time>2013-07-06T14:34:07Z</time>
      </trkpt>
      <trkpt lat="40.011783" lon="-4.989750">
        <ele>2004.0</ele>
        <time>2013-07-06T14:34:08Z</time>
      </trkpt>
      <trkpt lat="40.011767" lon="-4.989867">
        <ele>2004.0</ele>
        <time>2013-07-06T14:34:09Z</time>
      </trkpt>
      <trkpt lat="40.011783" lon="-4.990100">
        <ele>2003.0</ele>
        <time>2013-07-06T14:34:11Z</time>
      </trkpt>
      <trkpt lat="40.011800" lon="-4.990217">
        <ele>2002.0</ele>
        <time>2013-07-06T14:34:12Z</time>
      </trkpt>
      <trkpt lat="40.011833" lon="-4.990333">
        <ele>2002.0</ele>
        <time>2013-07-06T14:34:13Z</time>
      </trkpt>
      <trkpt lat="40.011883" lon="-4.990433">
        <ele>2002.0</ele>
        <time>2013-07-06T14:34:14Z</time>
      </trkpt>
      <trkpt lat="40.011933" lon="-4.990533">
        <ele>2003.0</ele>
        <time>2013-07-06T14:34:15Z</time>
      </trkpt>
      <trkpt lat="40.011967" lon="-4.990600">
        <ele>2004.0</ele>
        <time>2013-07-06T14:34:16Z</time>
      </trkpt>
      <trkpt lat="40.012017" lon="-4.990650">
        <ele>2006.0</ele>
        <time>2013-07-06T14:34:17Z</time>
      </trkpt>
      <trkpt lat="40.012083" lon="-4.990700">
        <ele>2007.0</ele>
        <time>2013-07-06T14:34:18Z</time>
      </trkpt>
      <trkpt lat="40.012150" lon="-4.990733">
        <ele>2009.0</ele>
        <time>2013-07-06T14:34:19Z</time>
      </trkpt>
      <trkpt lat="40.012200" lon="-4.990750">
        <ele>2011.0</ele>
        <time>2013-07-06T14:34:20Z</time>
      </trkpt>
      <trkpt lat="40.012267" lon="-4.990767">
        <ele>2013.0</ele>
        <time>2013-07-06T14:34:21Z</time>
      </trkpt>
      <trkpt lat="40.012333" lon="-4.990767">
        <ele>2014.0</ele>
        <time>2013-07-06T14:34:22Z</time>
      </trkpt>
      <trkpt lat="40.012400" lon="-4.990767">
        <ele>2016.0</ele>
        <time>2013-07-06T14:34:23Z</time>
      </trkpt>
      <trkpt lat="40.012483" lon="-4.990750">
        <ele>2017.0</ele>
        <time>2013-07-06T14:34:24Z</time>
      </trkpt>
      <trkpt lat="40.012567" lon="-4.990733">
        <ele>2019.0</ele>
        <time>2013-07-06T14:34:25Z</time>
      </trkpt>
      <trkpt lat="40.012650" lon="-4.990717">
        <ele>2020.0</ele>
        <time>2013-07-06T14:34:26Z</time>
      </trkpt>
      <trkpt lat="40.012700" lon="-4.990717">
        <ele>2022.0</ele>
        <time>2013-07-06T14:34:27Z</time>
      </trkpt>
      <trkpt lat="40.012767" lon="-4.990700">
        <ele>2024.0</ele>
        <time>2013-07-06T14:34:28Z</time>
      </trkpt>
      <trkpt lat="40.012817" lon="-4.990683">
        <ele>2025.0</ele>
        <time>2013-07-06T14:34:29Z</time>
      </trkpt>
      <trkpt lat="40.012900" lon="-4.990650">
        <ele>2024.0</ele>
        <time>2013-07-06T14:34:30Z</time>
      </trkpt>
      <trkpt lat="40.012967" lon="-4.990600">
        <ele>2024.0</ele>
        <time>2013-07-06T14:34:31Z</time>
      </trkpt>
      <trkpt lat="40.013017" lon="-4.990550">
        <ele>2024.0</ele>
        <time>2013-07-06T14:34:32Z</time>
      </trkpt>
      <trkpt lat="40.013067" lon="-4.990467">
        <ele>2024.0</ele>
        <time>2013-07-06T14:34:33Z</time>
      </trkpt>
      <trkpt lat="40.013100" lon="-4.990383">
        <ele>2023.0</ele>
        <time>2013-07-06T14:34:34Z</time>
      </trkpt>
      <trkpt lat="40.013117" lon="-4.990283">
        <ele>2023.0</ele>
        <time>2013-07-06T14:34:35Z</time>
      </trkpt>
      <trkpt lat="40.013100" lon="-4.990183">
        <ele>2023.0</ele>
        <time>2013-07-06T14:34:36Z</time>
      </trkpt>
      <trkpt lat="40.013067" lon="-4.990100">
        <ele>2024.0</ele>
        <time>2013-07-06T14:34:37Z</time>
      </trkpt>
      <trkpt lat="40.013000" lon="-4.990033">
        <ele>2023.0</ele>
        <time>2013-07-06T14:34:38Z</time>
      </trkpt>
      <trkpt lat="40.012933" lon="-4.989983">
        <ele>2022.0</ele>
        <time>2013-07-06T14:34:39Z</time>
      </trkpt>
      <trkpt lat="40.012850" lon="-4.989933">
        <ele>2021.0</ele>
        <time>2013-07-06T14:34:40Z</time>
      </trkpt>
      <trkpt lat="40.012767" lon="-4.989900">
        <ele>2020.0</ele>
        <time>2013-07-06T14:34:41Z</time>
      </trkpt>
      <trkpt lat="40.012683" lon="-4.989900">
        <ele>2020.0</ele>
        <time>2013-07-06T14:34:42Z</time>
      </trkpt>
      <trkpt lat="40.012583" lon="-4.989933">
        <ele>2019.0</ele>
        <time>2013-07-06T14:34:43Z</time>
      </trkpt>
      <trkpt lat="40.012483" lon="-4.989983">
        <ele>2018.0</ele>
        <time>2013-07-06T14:34:44Z</time>
      </trkpt>
      <trkpt lat="40.012383" lon="-4.990050">
        <ele>2018.0</ele>
        <time>2013-07-06T14:34:45Z</time>
      </trkpt>
      <trkpt lat="40.012317" lon="-4.990150">
        <ele>2019.0</ele>
        <time>2013-07-06T14:34:46Z</time>
      </trkpt>
      <trkpt lat="40.012233" lon="-4.990233">
        <ele>2020.0</ele>
        <time>2013-07-06T14:34:47Z</time>
      </trkpt>
      <trkpt lat="40.012183" lon="-4.990317">
        <ele>2022.0</ele>
        <time>2013-07-06T14:34:48Z</time>
      </trkpt>
      <trkpt lat="40.012133" lon="-4.990417">
        <ele>2024.0</ele>
        <time>2013-07-06T14:34:49Z</time>
      </trkpt>
      <trkpt lat="40.012100" lon="-4.990533">
        <ele>2026.0</ele>
        <time>2013-07-06T14:34:50Z</time>
      </trkpt>
      <trkpt lat="40.012050" lon="-4.990667">
        <ele>2027.0</ele>
        <time>2013-07-06T14:34:51Z</time>
      </trkpt>
      <trkpt lat="40.012033" lon="-4.990783">
        <ele>2028.0</ele>
        <time>2013-07-06T14:34:52Z</time>
      </trkpt>
      <trkpt lat="40.012033" lon="-4.990917">
        <ele>2029.0</ele>
        <time>2013-07-06T14:34:53Z</time>
      </trkpt>
      <trkpt lat="40.012033" lon="-4.991033">
        <ele>2029.0</ele>
        <time>2013-07-06T14:34:54Z</time>
      </trkpt>
      <trkpt lat="40.012050" lon="-4.991150">
        <ele>2029.0</ele>
        <time>2013-07-06T14:34:55Z</time>
      </trkpt>
      <trkpt lat="40.012083" lon="-4.991283">
        <ele>2029.0</ele>
        <time>2013-07-06T14:34:56Z</time>
      </trkpt>
      <trkpt lat="40.012117" lon="-4.991383">
        <ele>2031.0</ele>
        <time>2013-07-06T14:34:57Z</time>
      </trkpt>
      <trkpt lat="40.012150" lon="-4.991483">
        <ele>2031.0</ele>
        <time>2013-07-06T14:34:58Z</time>
      </trkpt>
      <trkpt lat="40.012200" lon="-4.991583">
        <ele>2033.0</ele>
        <time>2013-07-06T14:34:59Z</time>
      </trkpt>
      <trkpt lat="40.012233" lon="-4.991667">
        <ele>2035.0</ele>
        <time>2013-07-06T14:35:00Z</time>
      </trkpt>
      <trkpt lat="40.012283" lon="-4.991767">
        <ele>2036.0</ele>
        <time>2013-07-06T14:35:01Z</time>
      </trkpt>
      <trkpt lat="40.012350" lon="-4.991850">
        <ele>2038.0</ele>
        <time>2013-07-06T14:35:02Z</time>
      </trkpt>
      <trkpt lat="40.012417" lon="-4.991917">
        <ele>2039.0</ele>
        <time>2013-07-06T14:35:03Z</time>
      </trkpt>
      <trkpt lat="40.012500" lon="-4.991967">
        <ele>2041.0</ele>
        <time>2013-07-06T14:35:04Z</time>
      </trkpt>
      <trkpt lat="40.012567" lon="-4.992017">
        <ele>2045.0</ele>
        <time>2013-07-06T14:35:05Z</time>
      </trkpt>
      <trkpt lat="40.012617" lon="-4.992050">
        <ele>2047.0</ele>
        <time>2013-07-06T14:35:06Z</time>
      </trkpt>
      <trkpt lat="40.012683" lon="-4.992083">
        <ele>2051.0</ele>
        <time>2013-07-06T14:35:07Z</time>
      </trkpt>
      <trkpt lat="40.012750" lon="-4.992117">
        <ele>2053.0</ele>
        <time>2013-07-06T14:35:08Z</time>
      </trkpt>
      <trkpt lat="40.012817" lon="-4.992133">
        <ele>2055.0</ele>
        <time>2013-07-06T14:35:09Z</time>
      </trkpt>
      <trkpt lat="40.012900" lon="-4.992150">
        <ele>2056.0</ele>
        <time>2013-07-06T14:35:10Z</time>
      </trkpt>
      <trkpt lat="40.012983" lon="-4.992133">
        <ele>2057.0</ele>
        <time>2013-07-06T14:35:11Z</time>
      </trkpt>
      <trkpt lat="40.013067" lon="-4.992100">
        <ele>2058.0</ele>
        <time>2013-07-06T14:35:12Z</time>
      </trkpt>
      <trkpt lat="40.013133" lon="-4.992050">
        <ele>2059.0</ele>
        <time>2013-07-06T14:35:13Z</time>
      </trkpt>
      <trkpt lat="40.013200" lon="-4.992017">
        <ele>2060.0</ele>
        <time>2013-07-06T14:35:14Z</time>
      </trkpt>
      <trkpt lat="40.013317" lon="-4.991917">
        <ele>2060.0</ele>
        <time>2013-07-06T14:35:16Z</time>
      </trkpt>
      <trkpt lat="40.013383" lon="-4.991867">
        <ele>2059.0</ele>
        <time>2013-07-06T14:35:17Z</time>
      </trkpt>
      <trkpt lat="40.013633" lon="-4.991767">
        <ele>2058.0</ele>
        <time>2013-07-06T14:35:21Z</time>
      </trkpt>
      <trkpt lat="40.013700" lon="-4.991767">
        <ele>2057.0</ele>
        <time>2013-07-06T14:35:22Z</time>
      </trkpt>
      <trkpt lat="40.013767" lon="-4.991783">
        <ele>2056.0</ele>
        <time>2013-07-06T14:35:23Z</time>
      </trkpt>
      <trkpt lat="40.013833" lon="-4.991800">
        <ele>2055.0</ele>
        <time>2013-07-06T14:35:24Z</time>
      </trkpt>
      <trkpt lat="40.013900" lon="-4.991833">
        <ele>2055.0</ele>
        <time>2013-07-06T14:35:25Z</time>
      </trkpt>
      <trkpt lat="40.013967" lon="-4.991867">
        <ele>2054.0</ele>
        <time>2013-07-06T14:35:26Z</time>
      </trkpt>
      <trkpt lat="40.014033" lon="-4.991900">
        <ele>2052.0</ele>
        <time>2013-07-06T14:35:27Z</time>
      </trkpt>
      <trkpt lat="40.014083" lon="-4.991933">
        <ele>2051.0</ele>
        <time>2013-07-06T14:35:28Z</time>
      </trkpt>
      <trkpt lat="40.014150" lon="-4.991950">
        <ele>2050.0</ele>
        <time>2013-07-06T14:35:29Z</time>
      </trkpt>
      <trkpt lat="40.014200" lon="-4.991967">
        <ele>2050.0</ele>
        <time>2013-07-06T14:35:30Z</time>
      </trkpt>
      <trkpt lat="40.014250" lon="-4.992000">
        <ele>2049.0</ele>
        <time>2013-07-06T14:35:31Z</time>
      </trkpt>
      <trkpt lat="40.014317" lon="-4.992033">
        <ele>2048.0</ele>
        <time>2013-07-06T14:35:32Z</time>
      </trkpt>
      <trkpt lat="40.014367" lon="-4.992050">
        <ele>2047.0</ele>
        <time>2013-07-06T14:35:33Z</time>
      </trkpt>
      <trkpt lat="40.014417" lon="-4.992067">
        <ele>2044.0</ele>
        <time>2013-07-06T14:35:34Z</time>
      </trkpt>
      <trkpt lat="40.014467" lon="-4.992083">
        <ele>2042.0</ele>
        <time>2013-07-06T14:35:35Z</time>
      </trkpt>
      <trkpt lat="40.014533" lon="-4.992117">
        <ele>2040.0</ele>
        <time>2013-07-06T14:35:36Z</time>
      </trkpt>
      <trkpt lat="40.014583" lon="-4.992150">
        <ele>2039.0</ele>
        <time>2013-07-06T14:35:37Z</time>
      </trkpt>
      <trkpt lat="40.014633" lon="-4.992200">
        <ele>2038.0</ele>
        <time>2013-07-06T14:35:38Z</time>
      </trkpt>
      <trkpt lat="40.014683" lon="-4.992250">
        <ele>2036.0</ele>
        <time>2013-07-06T14:35:39Z</time>
      </trkpt>
      <trkpt lat="40.014750" lon="-4.992317">
        <ele>2033.0</ele>
        <time>2013-07-06T14:35:40Z</time>
      </trkpt>
      <trkpt lat="40.014800" lon="-4.992383">
        <ele>2031.0</ele>
        <time>2013-07-06T14:35:41Z</time>
      </trkpt>
      <trkpt lat="40.014867" lon="-4.992433">
        <ele>2028.0</ele>
        <time>2013-07-06T14:35:42Z</time>
      </trkpt>
      <trkpt lat="40.014917" lon="-4.992483">
        <ele>2026.0</ele>
        <time>2013-07-06T14:35:43Z</time>
      </trkpt>
      <trkpt lat="40.014983" lon="-4.992550">
        <ele>2024.0</ele>
        <time>2013-07-06T14:35:44Z</time>
      </trkpt>
      <trkpt lat="40.015050" lon="-4.992617">
        <ele>2021.0</ele>
        <time>2013-07-06T14:35:45Z</time>
      </trkpt>
      <trkpt lat="40.015117" lon="-4.992667">
        <ele>2018.0</ele>
        <time>2013-07-06T14:35:46Z</time>
      </trkpt>
      <trkpt lat="40.015183" lon="-4.992733">
        <ele>2016.0</ele>
        <time>2013-07-06T14:35:47Z</time>
      </trkpt>
      <trkpt lat="40.015250" lon="-4.992783">
        <ele>2014.0</ele>
        <time>2013-07-06T14:35:48Z</time>
      </trkpt>
      <trkpt lat="40.015317" lon="-4.992850">
        <ele>2012.0</ele>
        <time>2013-07-06T14:35:49Z</time>
      </trkpt>
      <trkpt lat="40.015383" lon="-4.992917">
        <ele>2010.0</ele>
        <time>2013-07-06T14:35:50Z</time>
      </trkpt>
      <trkpt lat="40.015467" lon="-4.992967">
        <ele>2007.0</ele>
        <time>2013-07-06T14:35:51Z</time>
      </trkpt>
      <trkpt lat="40.015550" lon="-4.993033">
        <ele>2005.0</ele>
        <time>2013-07-06T14:35:52Z</time>
      </trkpt>
      <trkpt lat="40.015617" lon="-4.993083">
        <ele>2003.0</ele>
        <time>2013-07-06T14:35:53Z</time>
      </trkpt>
      <trkpt lat="40.015683" lon="-4.993133">
        <ele>2001.0</ele>
        <time>2013-07-06T14:35:54Z</time>
      </trkpt>
      <trkpt lat="40.015750" lon="-4.993167">
        <ele>1999.0</ele>
        <time>2013-07-06T14:35:55Z</time>
      </trkpt>
      <trkpt lat="40.015800" lon="-4.993217">
        <ele>1997.0</ele>
        <time>2013-07-06T14:35:56Z</time>
      </trkpt>
      <trkpt lat="40.015867" lon="-4.993250">
        <ele>1995.0</ele>
        <time>2013-07-06T14:35:57Z</time>
      </trkpt>
      <trkpt lat="40.015950" lon="-4.993283">
        <ele>1992.0</ele>
        <time>2013-07-06T14:35:58Z</time>
      </trkpt>
      <trkpt lat="40.016033" lon="-4.993317">
        <ele>1989.0</ele>
        <time>2013-07-06T14:35:59Z</time>
      </trkpt>
      <trkpt lat="40.016117" lon="-4.993350">
        <ele>1987.0</ele>
        <time>2013-07-06T14:36:00Z</time>
      </trkpt>
      <trkpt lat="40.016183" lon="-4.993383">
        <ele>1984.0</ele>
        <time>2013-07-06T14:36:01Z</time>
      </trkpt>
      <trkpt lat="40.016267" lon="-4.993417">
        <ele>1981.0</ele>
        <time>2013-07-06T14:36:02Z</time>
      </trkpt>
      <trkpt lat="40.016350" lon="-4.993467">
        <ele>1978.0</ele>
        <time>2013-07-06T14:36:03Z</time>
      </trkpt>
      <trkpt lat="40.016433" lon="-4.993517">
        <ele>1975.0</ele>
        <time>2013-07-06T14:36:04Z</time>
      </trkpt>
      <trkpt lat="40.016517" lon="-4.993550">
        <ele>1971.0</ele>
        <time>2013-07-06T14:36:05Z</time>
      </trkpt>
      <trkpt lat="40.016617" lon="-4.993583">
        <ele>1968.0</ele>
        <time>2013-07-06T14:36:06Z</time>
      </trkpt>
      <trkpt lat="40.016700" lon="-4.993633">
        <ele>1964.0</ele>
        <time>2013-07-06T14:36:07Z</time>
      </trkpt>
      <trkpt lat="40.016783" lon="-4.993667">
        <ele>1960.0</ele>
        <time>2013-07-06T14:36:08Z</time>
      </trkpt>
      <trkpt lat="40.016867" lon="-4.993717">
        <ele>1958.0</ele>
        <time>2013-07-06T14:36:09Z</time>
      </trkpt>
      <trkpt lat="40.016933" lon="-4.993767">
        <ele>1955.0</ele>
        <time>2013-07-06T14:36:10Z</time>
      </trkpt>
      <trkpt lat="40.017017" lon="-4.993800">
        <ele>1952.0</ele>
        <time>2013-07-06T14:36:11Z</time>
      </trkpt>
      <trkpt lat="40.017100" lon="-4.993817">
        <ele>1949.0</ele>
        <time>2013-07-06T14:36:12Z</time>
      </trkpt>
      <trkpt lat="40.017200" lon="-4.993833">
        <ele>1945.0</ele>
        <time>2013-07-06T14:36:13Z</time>
      </trkpt>
      <trkpt lat="40.017283" lon="-4.993867">
        <ele>1942.0</ele>
        <time>2013-07-06T14:36:14Z</time>
      </trkpt>
      <trkpt lat="40.017367" lon="-4.993900">
        <ele>1940.0</ele>
        <time>2013-07-06T14:36:15Z</time>
      </trkpt>
      <trkpt lat="40.017467" lon="-4.993933">
        <ele>1937.0</ele>
        <time>2013-07-06T14:36:16Z</time>
      </trkpt>
      <trkpt lat="40.017550" lon="-4.993967">
        <ele>1934.0</ele>
        <time>2013-07-06T14:36:17Z</time>
      </trkpt>
      <trkpt lat="40.017650" lon="-4.993967">
        <ele>1931.0</ele>
        <time>2013-07-06T14:36:18Z</time>
      </trkpt>
      <trkpt lat="40.017733" lon="-4.993967">
        <ele>1928.0</ele>
        <time>2013-07-06T14:36:19Z</time>
      </trkpt>
      <trkpt lat="40.017833" lon="-4.993983">
        <ele>1925.0</ele>
        <time>2013-07-06T14:36:20Z</time>
      </trkpt>
      <trkpt lat="40.017917" lon="-4.994017">
        <ele>1922.0</ele>
        <time>2013-07-06T14:36:21Z</time>
      </trkpt>
      <trkpt lat="40.018017" lon="-4.994067">
        <ele>1919.0</ele>
        <time>2013-07-06T14:36:22Z</time>
      </trkpt>
      <trkpt lat="40.018100" lon="-4.994117">
        <ele>1916.0</ele>
        <time>2013-07-06T14:36:23Z</time>
      </trkpt>
      <trkpt lat="40.018183" lon="-4.994150">
        <ele>1914.0</ele>
        <time>2013-07-06T14:36:24Z</time>
      </trkpt>
      <trkpt lat="40.018267" lon="-4.994167">
        <ele>1911.0</ele>
        <time>2013-07-06T14:36:25Z</time>
      </trkpt>
      <trkpt lat="40.018350" lon="-4.994200">
        <ele>1909.0</ele>
        <time>2013-07-06T14:36:26Z</time>
      </trkpt>
      <trkpt lat="40.018433" lon="-4.994217">
        <ele>1906.0</ele>
        <time>2013-07-06T14:36:27Z</time>
      </trkpt>
      <trkpt lat="40.018533" lon="-4.994250">
        <ele>1904.0</ele>
        <time>2013-07-06T14:36:28Z</time>
      </trkpt>
      <trkpt lat="40.018617" lon="-4.994283">
        <ele>1902.0</ele>
        <time>2013-07-06T14:36:29Z</time>
      </trkpt>
      <trkpt lat="40.018700" lon="-4.994317">
        <ele>1899.0</ele>
        <time>2013-07-06T14:36:30Z</time>
      </trkpt>
      <trkpt lat="40.018783" lon="-4.994333">
        <ele>1897.0</ele>
        <time>2013-07-06T14:36:31Z</time>
      </trkpt>
      <trkpt lat="40.018867" lon="-4.994367">
        <ele>1894.0</ele>
        <time>2013-07-06T14:36:32Z</time>
      </trkpt>
      <trkpt lat="40.018950" lon="-4.994383">
        <ele>1891.0</ele>
        <time>2013-07-06T14:36:33Z</time>
      </trkpt>
      <trkpt lat="40.019067" lon="-4.994383">
        <ele>1889.0</ele>
        <time>2013-07-06T14:36:34Z</time>
      </trkpt>
      <trkpt lat="40.019167" lon="-4.994383">
        <ele>1887.0</ele>
        <time>2013-07-06T14:36:35Z</time>
      </trkpt>
      <trkpt lat="40.019250" lon="-4.994417">
        <ele>1887.0</ele>
        <time>2013-07-06T14:36:36Z</time>
      </trkpt>
      <trkpt lat="40.019317" lon="-4.994433">
        <ele>1887.0</ele>
        <time>2013-07-06T14:36:37Z</time>
      </trkpt>
      <trkpt lat="40.019383" lon="-4.994450">
        <ele>1886.0</ele>
        <time>2013-07-06T14:36:38Z</time>
      </trkpt>
      <trkpt lat="40.019450" lon="-4.994467">
        <ele>1884.0</ele>
        <time>2013-07-06T14:36:39Z</time>
      </trkpt>
      <trkpt lat="40.019533" lon="-4.994483">
        <ele>1882.0</ele>
        <time>2013-07-06T14:36:40Z</time>
      </trkpt>
      <trkpt lat="40.019633" lon="-4.994533">
        <ele>1880.0</ele>
        <time>2013-07-06T14:36:41Z</time>
      </trkpt>
      <trkpt lat="40.019717" lon="-4.994600">
        <ele>1878.0</ele>
        <time>2013-07-06T14:36:42Z</time>
      </trkpt>
      <trkpt lat="40.019800" lon="-4.994650">
        <ele>1877.0</ele>
        <time>2013-07-06T14:36:43Z</time>
      </trkpt>
      <trkpt lat="40.019883" lon="-4.994700">
        <ele>1877.0</ele>
        <time>2013-07-06T14:36:44Z</time>
      </trkpt>
      <trkpt lat="40.019967" lon="-4.994733">
        <ele>1876.0</ele>
        <time>2013-07-06T14:36:45Z</time>
      </trkpt>
      <trkpt lat="40.020067" lon="-4.994783">
        <ele>1875.0</ele>
        <time>2013-07-06T14:36:46Z</time>
      </trkpt>
      <trkpt lat="40.020167" lon="-4.994833">
        <ele>1874.0</ele>
        <time>2013-07-06T14:36:47Z</time>
      </trkpt>
      <trkpt lat="40.020267" lon="-4.994883">
        <ele>1872.0</ele>
        <time>2013-07-06T14:36:48Z</time>
      </trkpt>
      <trkpt lat="40.020367" lon="-4.994933">
        <ele>1870.0</ele>
        <time>2013-07-06T14:36:49Z</time>
      </trkpt>
      <trkpt lat="40.020467" lon="-4.994983">
        <ele>1869.0</ele>
        <time>2013-07-06T14:36:50Z</time>
      </trkpt>
      <trkpt lat="40.020550" lon="-4.995017">
        <ele>1868.0</ele>
        <time>2013-07-06T14:36:51Z</time>
      </trkpt>
      <trkpt lat="40.020650" lon="-4.995067">
        <ele>1868.0</ele>
        <time>2013-07-06T14:36:52Z</time>
      </trkpt>
      <trkpt lat="40.020733" lon="-4.995133">
        <ele>1866.0</ele>
        <time>2013-07-06T14:36:53Z</time>
      </trkpt>
      <trkpt lat="40.020833" lon="-4.995200">
        <ele>1864.0</ele>
        <time>2013-07-06T14:36:54Z</time>
      </trkpt>
      <trkpt lat="40.020933" lon="-4.995267">
        <ele>1862.0</ele>
        <time>2013-07-06T14:36:55Z</time>
      </trkpt>
      <trkpt lat="40.021033" lon="-4.995333">
        <ele>1860.0</ele>
        <time>2013-07-06T14:36:56Z</time>
      </trkpt>
      <trkpt lat="40.021117" lon="-4.995383">
        <ele>1859.0</ele>
        <time>2013-07-06T14:36:57Z</time>
      </trkpt>
      <trkpt lat="40.021200" lon="-4.995450">
        <ele>1858.0</ele>
        <time>2013-07-06T14:36:58Z</time>
      </trkpt>
      <trkpt lat="40.021283" lon="-4.995500">
        <ele>1857.0</ele>
        <time>2013-07-06T14:36:59Z</time>
      </trkpt>
      <trkpt lat="40.021383" lon="-4.995550">
        <ele>1855.0</ele>
        <time>2013-07-06T14:37:00Z</time>
      </trkpt>
      <trkpt lat="40.021483" lon="-4.995600">
        <ele>1852.0</ele>
        <time>2013-07-06T14:37:01Z</time>
      </trkpt>
      <trkpt lat="40.021600" lon="-4.995650">
        <ele>1851.0</ele>
        <time>2013-07-06T14:37:02Z</time>
      </trkpt>
      <trkpt lat="40.021683" lon="-4.995683">
        <ele>1852.0</ele>
        <time>2013-07-06T14:37:03Z</time>
      </trkpt>
      <trkpt lat="40.021750" lon="-4.995733">
        <ele>1854.0</ele>
        <time>2013-07-06T14:37:04Z</time>
      </trkpt>
      <trkpt lat="40.021800" lon="-4.995767">
        <ele>1854.0</ele>
        <time>2013-07-06T14:37:05Z</time>
      </trkpt>
      <trkpt lat="40.021883" lon="-4.995800">
        <ele>1853.0</ele>
        <time>2013-07-06T14:37:06Z</time>
      </trkpt>
      <trkpt lat="40.021967" lon="-4.995833">
        <ele>1851.0</ele>
        <time>2013-07-06T14:37:07Z</time>
      </trkpt>
      <trkpt lat="40.022083" lon="-4.995883">
        <ele>1849.0</ele>
        <time>2013-07-06T14:37:08Z</time>
      </trkpt>
      <trkpt lat="40.022167" lon="-4.995917">
        <ele>1847.0</ele>
        <time>2013-07-06T14:37:09Z</time>
      </trkpt>
      <trkpt lat="40.022250" lon="-4.995950">
        <ele>1845.0</ele>
        <time>2013-07-06T14:37:10Z</time>
      </trkpt>
      <trkpt lat="40.022333" lon="-4.996000">
        <ele>1844.0</ele>
        <time>2013-07-06T14:37:11Z</time>
      </trkpt>
      <trkpt lat="40.022500" lon="-4.996067">
        <ele>1841.0</ele>
        <time>2013-07-06T14:37:13Z</time>
      </trkpt>
      <trkpt lat="40.022600" lon="-4.996117">
        <ele>1838.0</ele>
        <time>2013-07-06T14:37:14Z</time>
      </trkpt>
      <trkpt lat="40.022683" lon="-4.996183">
        <ele>1837.0</ele>
        <time>2013-07-06T14:37:15Z</time>
      </trkpt>
      <trkpt lat="40.022767" lon="-4.996233">
        <ele>1835.0</ele>
        <time>2013-07-06T14:37:16Z</time>
      </trkpt>
      <trkpt lat="40.022833" lon="-4.996267">
        <ele>1834.0</ele>
        <time>2013-07-06T14:37:17Z</time>
      </trkpt>
      <trkpt lat="40.022933" lon="-4.996317">
        <ele>1832.0</ele>
        <time>2013-07-06T14:37:18Z</time>
      </trkpt>
      <trkpt lat="40.023017" lon="-4.996383">
        <ele>1830.0</ele>
        <time>2013-07-06T14:37:19Z</time>
      </trkpt>
      <trkpt lat="40.023100" lon="-4.996433">
        <ele>1827.0</ele>
        <time>2013-07-06T14:37:20Z</time>
      </trkpt>
      <trkpt lat="40.023200" lon="-4.996500">
        <ele>1826.0</ele>
        <time>2013-07-06T14:37:21Z</time>
      </trkpt>
      <trkpt lat="40.023283" lon="-4.996567">
        <ele>1825.0</ele>
        <time>2013-07-06T14:37:22Z</time>
      </trkpt>
      <trkpt lat="40.023367" lon="-4.996633">
        <ele>1825.0</ele>
        <time>2013-07-06T14:37:23Z</time>
      </trkpt>
      <trkpt lat="40.023450" lon="-4.996700">
        <ele>1824.0</ele>
        <time>2013-07-06T14:37:24Z</time>
      </trkpt>
      <trkpt lat="40.023533" lon="-4.996767">
        <ele>1823.0</ele>
        <time>2013-07-06T14:37:25Z</time>
      </trkpt>
      <trkpt lat="40.023617" lon="-4.996850">
        <ele>1822.0</ele>
        <time>2013-07-06T14:37:26Z</time>
      </trkpt>
      <trkpt lat="40.023700" lon="-4.996917">
        <ele>1821.0</ele>
        <time>2013-07-06T14:37:27Z</time>
      </trkpt>
      <trkpt lat="40.023767" lon="-4.996983">
        <ele>1820.0</ele>
        <time>2013-07-06T14:37:28Z</time>
      </trkpt>
      <trkpt lat="40.023850" lon="-4.997050">
        <ele>1819.0</ele>
        <time>2013-07-06T14:37:29Z</time>
      </trkpt>
      <trkpt lat="40.023933" lon="-4.997117">
        <ele>1818.0</ele>
        <time>2013-07-06T14:37:30Z</time>
      </trkpt>
      <trkpt lat="40.024017" lon="-4.997200">
        <ele>1817.0</ele>
        <time>2013-07-06T14:37:31Z</time>
      </trkpt>
      <trkpt lat="40.024100" lon="-4.997267">
        <ele>1816.0</ele>
        <time>2013-07-06T14:37:32Z</time>
      </trkpt>
      <trkpt lat="40.024183" lon="-4.997350">
        <ele>1815.0</ele>
        <time>2013-07-06T14:37:33Z</time>
      </trkpt>
      <trkpt lat="40.024267" lon="-4.997417">
        <ele>1815.0</ele>
        <time>2013-07-06T14:37:34Z</time>
      </trkpt>
      <trkpt lat="40.024333" lon="-4.997500">
        <ele>1815.0</ele>
        <time>2013-07-06T14:37:35Z</time>
      </trkpt>
      <trkpt lat="40.024433" lon="-4.997583">
        <ele>1813.0</ele>
        <time>2013-07-06T14:37:36Z</time>
      </trkpt>
      <trkpt lat="40.024517" lon="-4.997667">
        <ele>1812.0</ele>
        <time>2013-07-06T14:37:37Z</time>
      </trkpt>
      <trkpt lat="40.024617" lon="-4.997750">
        <ele>1809.0</ele>
        <time>2013-07-06T14:37:38Z</time>
      </trkpt>
      <trkpt lat="40.024700" lon="-4.997817">
        <ele>1808.0</ele>
        <time>2013-07-06T14:37:39Z</time>
      </trkpt>
      <trkpt lat="40.024800" lon="-4.997900">
        <ele>1806.0</ele>
        <time>2013-07-06T14:37:40Z</time>
      </trkpt>
      <trkpt lat="40.024883" lon="-4.997967">
        <ele>1805.0</ele>
        <time>2013-07-06T14:37:41Z</time>
      </trkpt>
      <trkpt lat="40.024967" lon="-4.998050">
        <ele>1804.0</ele>
        <time>2013-07-06T14:37:42Z</time>
      </trkpt>
      <trkpt lat="40.025050" lon="-4.998117">
        <ele>1802.0</ele>
        <time>2013-07-06T14:37:43Z</time>
      </trkpt>
      <trkpt lat="40.025133" lon="-4.998200">
        <ele>1800.0</ele>
        <time>2013-07-06T14:37:44Z</time>
      </trkpt>
      <trkpt lat="40.025233" lon="-4.998267">
        <ele>1798.0</ele>
        <time>2013-07-06T14:37:45Z</time>
      </trkpt>
      <trkpt lat="40.025317" lon="-4.998333">
        <ele>1796.0</ele>
        <time>2013-07-06T14:37:46Z</time>
      </trkpt>
      <trkpt lat="40.025400" lon="-4.998417">
        <ele>1795.0</ele>
        <time>2013-07-06T14:37:47Z</time>
      </trkpt>
      <trkpt lat="40.025467" lon="-4.998483">
        <ele>1794.0</ele>
        <time>2013-07-06T14:37:48Z</time>
      </trkpt>
      <trkpt lat="40.025550" lon="-4.998550">
        <ele>1792.0</ele>
        <time>2013-07-06T14:37:49Z</time>
      </trkpt>
      <trkpt lat="40.025633" lon="-4.998633">
        <ele>1790.0</ele>
        <time>2013-07-06T14:37:50Z</time>
      </trkpt>
      <trkpt lat="40.025717" lon="-4.998700">
        <ele>1788.0</ele>
        <time>2013-07-06T14:37:51Z</time>
      </trkpt>
      <trkpt lat="40.025800" lon="-4.998783">
        <ele>1786.0</ele>
        <time>2013-07-06T14:37:52Z</time>
      </trkpt>
      <trkpt lat="40.025883" lon="-4.998867">
        <ele>1785.0</ele>
        <time>2013-07-06T14:37:53Z</time>
      </trkpt>
      <trkpt lat="40.025950" lon="-4.998933">
        <ele>1785.0</ele>
        <time>2013-07-06T14:37:54Z</time>
      </trkpt>
      <trkpt lat="40.026017" lon="-4.999017">
        <ele>1784.0</ele>
        <time>2013-07-06T14:37:55Z</time>
      </trkpt>
      <trkpt lat="40.026100" lon="-4.999100">
        <ele>1783.0</ele>
        <time>2013-07-06T14:37:56Z</time>
      </trkpt>
      <trkpt lat="40.026167" lon="-4.999183">
        <ele>1781.0</ele>
        <time>2013-07-06T14:37:57Z</time>
      </trkpt>
      <trkpt lat="40.026250" lon="-4.999267">
        <ele>1779.0</ele>
        <time>2013-07-06T14:37:58Z</time>
      </trkpt>
      <trkpt lat="40.026333" lon="-4.999350">
        <ele>1777.0</ele>
        <time>2013-07-06T14:37:59Z</time>
      </trkpt>
      <trkpt lat="40.026400" lon="-4.999433">
        <ele>1774.0</ele>
        <time>2013-07-06T14:38:00Z</time>
      </trkpt>
      <trkpt lat="40.026483" lon="-4.999500">
        <ele>1773.0</ele>
        <time>2013-07-06T14:38:01Z</time>
      </trkpt>
      <trkpt lat="40.026550" lon="-4.999583">
        <ele>1772.0</ele>
        <time>2013-07-06T14:38:02Z</time>
      </trkpt>
      <trkpt lat="40.026617" lon="-4.999650">
        <ele>1772.0</ele>
        <time>2013-07-06T14:38:03Z</time>
      </trkpt>
      <trkpt lat="40.026683" lon="-4.999733">
        <ele>1771.0</ele>
        <time>2013-07-06T14:38:04Z</time>
      </trkpt>
      <trkpt lat="40.026750" lon="-4.999817">
        <ele>1769.0</ele>
        <time>2013-07-06T14:38:05Z</time>
      </trkpt>
      <trkpt lat="40.026833" lon="-4.999900">
        <ele>1767.0</ele>
        <time>2013-07-06T14:38:06Z</time>
      </trkpt>
      <trkpt lat="40.026900" lon="-4.999983">
        <ele>1765.0</ele>
        <time>2013-07-06T14:38:07Z</time>
      </trkpt>
      <trkpt lat="40.026983" lon="-5.000067">
        <ele>1764.0</ele>
        <time>2013-07-06T14:38:08Z</time>
      </trkpt>
      <trkpt lat="40.027050" lon="-5.000150">
        <ele>1763.0</ele>
        <time>2013-07-06T14:38:09Z</time>
      </trkpt>
      <trkpt lat="40.027100" lon="-5.000233">
        <ele>1761.0</ele>
        <time>2013-07-06T14:38:10Z</time>
      </trkpt>
      <trkpt lat="40.027183" lon="-5.000333">
        <ele>1760.0</ele>
        <time>2013-07-06T14:38:11Z</time>
      </trkpt>
      <trkpt lat="40.027250" lon="-5.000417">
        <ele>1757.0</ele>
        <time>2013-07-06T14:38:12Z</time>
      </trkpt>
      <trkpt lat="40.027333" lon="-5.000500">
        <ele>1755.0</ele>
        <time>2013-07-06T14:38:13Z</time>
      </trkpt>
      <trkpt lat="40.027400" lon="-5.000583">
        <ele>1754.0</ele>
        <time>2013-07-06T14:38:14Z</time>
      </trkpt>
      <trkpt lat="40.027467" lon="-5.000650">
        <ele>1752.0</ele>
        <time>2013-07-06T14:38:15Z</time>
      </trkpt>
      <trkpt lat="40.027550" lon="-5.000717">
        <ele>1750.0</ele>
        <time>2013-07-06T14:38:16Z</time>
      </trkpt>
      <trkpt lat="40.027617" lon="-5.000783">
        <ele>1749.0</ele>
        <time>2013-07-06T14:38:17Z</time>
      </trkpt>
      <trkpt lat="40.027700" lon="-5.000850">
        <ele>1748.0</ele>
        <time>2013-07-06T14:38:18Z</time>
      </trkpt>
      <trkpt lat="40.027767" lon="-5.000917">
        <ele>1746.0</ele>
        <time>2013-07-06T14:38:19Z</time>
      </trkpt>
      <trkpt lat="40.027850" lon="-5.000950">
        <ele>1745.0</ele>
        <time>2013-07-06T14:38:20Z</time>
      </trkpt>
      <trkpt lat="40.027917" lon="-5.001000">
        <ele>1744.0</ele>
        <time>2013-07-06T14:38:21Z</time>
      </trkpt>
      <trkpt lat="40.027983" lon="-5.001033">
        <ele>1744.0</ele>
        <time>2013-07-06T14:38:22Z</time>
      </trkpt>
      <trkpt lat="40.028050" lon="-5.001083">
        <ele>1743.0</ele>
        <time>2013-07-06T14:38:23Z</time>
      </trkpt>
      <trkpt lat="40.028117" lon="-5.001150">
        <ele>1741.0</ele>
        <time>2013-07-06T14:38:24Z</time>
      </trkpt>
      <trkpt lat="40.028183" lon="-5.001200">
        <ele>1740.0</ele>
        <time>2013-07-06T14:38:25Z</time>
      </trkpt>
      <trkpt lat="40.028267" lon="-5.001250">
        <ele>1738.0</ele>
        <time>2013-07-06T14:38:26Z</time>
      </trkpt>
      <trkpt lat="40.028333" lon="-5.001283">
        <ele>1737.0</ele>
        <time>2013-07-06T14:38:27Z</time>
      </trkpt>
      <trkpt lat="40.028400" lon="-5.001333">
        <ele>1736.0</ele>
        <time>2013-07-06T14:38:28Z</time>
      </trkpt>
      <trkpt lat="40.028450" lon="-5.001367">
        <ele>1735.0</ele>
        <time>2013-07-06T14:38:29Z</time>
      </trkpt>
      <trkpt lat="40.028533" lon="-5.001417">
        <ele>1734.0</ele>
        <time>2013-07-06T14:38:30Z</time>
      </trkpt>
      <trkpt lat="40.028600" lon="-5.001467">
        <ele>1732.0</ele>
        <time>2013-07-06T14:38:31Z</time>
      </trkpt>
      <trkpt lat="40.028683" lon="-5.001500">
        <ele>1731.0</ele>
        <time>2013-07-06T14:38:32Z</time>
      </trkpt>
      <trkpt lat="40.028767" lon="-5.001533">
        <ele>1731.0</ele>
        <time>2013-07-06T14:38:33Z</time>
      </trkpt>
      <trkpt lat="40.028817" lon="-5.001567">
        <ele>1732.0</ele>
        <time>2013-07-06T14:38:34Z</time>
      </trkpt>
      <trkpt lat="40.028883" lon="-5.001600">
        <ele>1732.0</ele>
        <time>2013-07-06T14:38:35Z</time>
      </trkpt>
      <trkpt lat="40.028950" lon="-5.001650">
        <ele>1731.0</ele>
        <time>2013-07-06T14:38:36Z</time>
      </trkpt>
      <trkpt lat="40.029033" lon="-5.001683">
        <ele>1730.0</ele>
        <time>2013-07-06T14:38:37Z</time>
      </trkpt>
      <trkpt lat="40.029167" lon="-5.001767">
        <ele>1733.0</ele>
        <time>2013-07-06T14:38:39Z</time>
      </trkpt>
      <trkpt lat="40.029233" lon="-5.001817">
        <ele>1736.0</ele>
        <time>2013-07-06T14:38:40Z</time>
      </trkpt>
      <trkpt lat="40.029283" lon="-5.001850">
        <ele>1737.0</ele>
        <time>2013-07-06T14:38:41Z</time>
      </trkpt>
      <trkpt lat="40.029350" lon="-5.001883">
        <ele>1738.0</ele>
        <time>2013-07-06T14:38:42Z</time>
      </trkpt>
      <trkpt lat="40.029417" lon="-5.001917">
        <ele>1739.0</ele>
        <time>2013-07-06T14:38:43Z</time>
      </trkpt>
      <trkpt lat="40.029500" lon="-5.001950">
        <ele>1739.0</ele>
        <time>2013-07-06T14:38:44Z</time>
      </trkpt>
      <trkpt lat="40.029583" lon="-5.001983">
        <ele>1740.0</ele>
        <time>2013-07-06T14:38:45Z</time>
      </trkpt>
      <trkpt lat="40.029650" lon="-5.002017">
        <ele>1741.0</ele>
        <time>2013-07-06T14:38:46Z</time>
      </trkpt>
      <trkpt lat="40.029717" lon="-5.002050">
        <ele>1742.0</ele>
        <time>2013-07-06T14:38:47Z</time>
      </trkpt>
      <trkpt lat="40.029800" lon="-5.002083">
        <ele>1743.0</ele>
        <time>2013-07-06T14:38:48Z</time>
      </trkpt>
      <trkpt lat="40.029867" lon="-5.002100">
        <ele>1744.0</ele>
        <time>2013-07-06T14:38:49Z</time>
      </trkpt>
      <trkpt lat="40.029950" lon="-5.002133">
        <ele>1745.0</ele>
        <time>2013-07-06T14:38:50Z</time>
      </trkpt>
      <trkpt lat="40.030033" lon="-5.002150">
        <ele>1746.0</ele>
        <time>2013-07-06T14:38:51Z</time>
      </trkpt>
      <trkpt lat="40.030200" lon="-5.002183">
        <ele>1749.0</ele>
        <time>2013-07-06T14:38:53Z</time>
      </trkpt>
      <trkpt lat="40.030283" lon="-5.002200">
        <ele>1751.0</ele>
        <time>2013-07-06T14:38:54Z</time>
      </trkpt>
      <trkpt lat="40.030367" lon="-5.002217">
        <ele>1753.0</ele>
        <time>2013-07-06T14:38:55Z</time>
      </trkpt>
      <trkpt lat="40.030433" lon="-5.002217">
        <ele>1754.0</ele>
        <time>2013-07-06T14:38:56Z</time>
      </trkpt>
      <trkpt lat="40.030517" lon="-5.002233">
        <ele>1756.0</ele>
        <time>2013-07-06T14:38:57Z</time>
      </trkpt>
      <trkpt lat="40.030583" lon="-5.002233">
        <ele>1757.0</ele>
        <time>2013-07-06T14:38:58Z</time>
      </trkpt>
      <trkpt lat="40.030667" lon="-5.002233">
        <ele>1758.0</ele>
        <time>2013-07-06T14:38:59Z</time>
      </trkpt>
      <trkpt lat="40.030733" lon="-5.002200">
        <ele>1760.0</ele>
        <time>2013-07-06T14:39:00Z</time>
      </trkpt>
      <trkpt lat="40.030817" lon="-5.002083">
        <ele>1762.0</ele>
        <time>2013-07-06T14:39:02Z</time>
      </trkpt>
      <trkpt lat="40.030833" lon="-5.002017">
        <ele>1764.0</ele>
        <time>2013-07-06T14:39:03Z</time>
      </trkpt>
      <trkpt lat="40.030833" lon="-5.001950">
        <ele>1765.0</ele>
        <time>2013-07-06T14:39:04Z</time>
      </trkpt>
      <trkpt lat="40.030817" lon="-5.001867">
        <ele>1766.0</ele>
        <time>2013-07-06T14:39:05Z</time>
      </trkpt>
      <trkpt lat="40.030783" lon="-5.001783">
        <ele>1766.0</ele>
        <time>2013-07-06T14:39:06Z</time>
      </trkpt>
      <trkpt lat="40.030733" lon="-5.001717">
        <ele>1767.0</ele>
        <time>2013-07-06T14:39:07Z</time>
      </trkpt>
      <trkpt lat="40.030650" lon="-5.001700">
        <ele>1767.0</ele>
        <time>2013-07-06T14:39:08Z</time>
      </trkpt>
      <trkpt lat="40.030567" lon="-5.001717">
        <ele>1768.0</ele>
        <time>2013-07-06T14:39:09Z</time>
      </trkpt>
      <trkpt lat="40.030467" lon="-5.001767">
        <ele>1769.0</ele>
        <time>2013-07-06T14:39:10Z</time>
      </trkpt>
      <trkpt lat="40.030400" lon="-5.001817">
        <ele>1771.0</ele>
        <time>2013-07-06T14:39:11Z</time>
      </trkpt>
      <trkpt lat="40.030333" lon="-5.001883">
        <ele>1772.0</ele>
        <time>2013-07-06T14:39:12Z</time>
      </trkpt>
      <trkpt lat="40.030250" lon="-5.001967">
        <ele>1773.0</ele>
        <time>2013-07-06T14:39:13Z</time>
      </trkpt>
      <trkpt lat="40.030183" lon="-5.002083">
        <ele>1774.0</ele>
        <time>2013-07-06T14:39:14Z</time>
      </trkpt>
      <trkpt lat="40.030117" lon="-5.002200">
        <ele>1775.0</ele>
        <time>2013-07-06T14:39:15Z</time>
      </trkpt>
      <trkpt lat="40.030083" lon="-5.002350">
        <ele>1778.0</ele>
        <time>2013-07-06T14:39:16Z</time>
      </trkpt>
      <trkpt lat="40.030083" lon="-5.002483">
        <ele>1780.0</ele>
        <time>2013-07-06T14:39:17Z</time>
      </trkpt>
      <trkpt lat="40.030100" lon="-5.002600">
        <ele>1782.0</ele>
        <time>2013-07-06T14:39:18Z</time>
      </trkpt>
      <trkpt lat="40.030133" lon="-5.002717">
        <ele>1784.0</ele>
        <time>2013-07-06T14:39:19Z</time>
      </trkpt>
      <trkpt lat="40.030150" lon="-5.002833">
        <ele>1786.0</ele>
        <time>2013-07-06T14:39:20Z</time>
      </trkpt>
      <trkpt lat="40.030183" lon="-5.002967">
        <ele>1787.0</ele>
        <time>2013-07-06T14:39:21Z</time>
      </trkpt>
      <trkpt lat="40.030250" lon="-5.003067">
        <ele>1789.0</ele>
        <time>2013-07-06T14:39:22Z</time>
      </trkpt>
      <trkpt lat="40.030317" lon="-5.003167">
        <ele>1790.0</ele>
        <time>2013-07-06T14:39:23Z</time>
      </trkpt>
      <trkpt lat="40.030383" lon="-5.003233">
        <ele>1792.0</ele>
        <time>2013-07-06T14:39:24Z</time>
      </trkpt>
      <trkpt lat="40.030467" lon="-5.003300">
        <ele>1793.0</ele>
        <time>2013-07-06T14:39:25Z</time>
      </trkpt>
      <trkpt lat="40.030550" lon="-5.003350">
        <ele>1795.0</ele>
        <time>2013-07-06T14:39:26Z</time>
      </trkpt>
      <trkpt lat="40.030633" lon="-5.003400">
        <ele>1797.0</ele>
        <time>2013-07-06T14:39:27Z</time>
      </trkpt>
      <trkpt lat="40.030717" lon="-5.003450">
        <ele>1798.0</ele>
        <time>2013-07-06T14:39:28Z</time>
      </trkpt>
      <trkpt lat="40.030800" lon="-5.003500">
        <ele>1799.0</ele>
        <time>2013-07-06T14:39:29Z</time>
      </trkpt>
      <trkpt lat="40.030883" lon="-5.003533">
        <ele>1800.0</ele>
        <time>2013-07-06T14:39:30Z</time>
      </trkpt>
      <trkpt lat="40.030967" lon="-5.003567">
        <ele>1802.0</ele>
        <time>2013-07-06T14:39:31Z</time>
      </trkpt>
      <trkpt lat="40.031050" lon="-5.003583">
        <ele>1804.0</ele>
        <time>2013-07-06T14:39:32Z</time>
      </trkpt>
      <trkpt lat="40.031133" lon="-5.003600">
        <ele>1805.0</ele>
        <time>2013-07-06T14:39:33Z</time>
      </trkpt>
      <trkpt lat="40.031267" lon="-5.003533">
        <ele>1808.0</ele>
        <time>2013-07-06T14:39:35Z</time>
      </trkpt>
      <trkpt lat="40.031317" lon="-5.003467">
        <ele>1809.0</ele>
        <time>2013-07-06T14:39:36Z</time>
      </trkpt>
      <trkpt lat="40.031317" lon="-5.003383">
        <ele>1810.0</ele>
        <time>2013-07-06T14:39:37Z</time>
      </trkpt>
      <trkpt lat="40.031317" lon="-5.003300">
        <ele>1812.0</ele>
        <time>2013-07-06T14:39:38Z</time>
      </trkpt>
      <trkpt lat="40.031283" lon="-5.003233">
        <ele>1813.0</ele>
        <time>2013-07-06T14:39:39Z</time>
      </trkpt>
      <trkpt lat="40.031217" lon="-5.003183">
        <ele>1815.0</ele>
        <time>2013-07-06T14:39:40Z</time>
      </trkpt>
      <trkpt lat="40.031150" lon="-5.003167">
        <ele>1816.0</ele>
        <time>2013-07-06T14:39:41Z</time>
      </trkpt>
      <trkpt lat="40.031067" lon="-5.003183">
        <ele>1818.0</ele>
        <time>2013-07-06T14:39:42Z</time>
      </trkpt>
      <trkpt lat="40.030983" lon="-5.003233">
        <ele>1819.0</ele>
        <time>2013-07-06T14:39:43Z</time>
      </trkpt>
      <trkpt lat="40.030900" lon="-5.003317">
        <ele>1820.0</ele>
        <time>2013-07-06T14:39:44Z</time>
      </trkpt>
      <trkpt lat="40.030833" lon="-5.003433">
        <ele>1822.0</ele>
        <time>2013-07-06T14:39:45Z</time>
      </trkpt>
      <trkpt lat="40.030800" lon="-5.003550">
        <ele>1823.0</ele>
        <time>2013-07-06T14:39:46Z</time>
      </trkpt>
      <trkpt lat="40.030800" lon="-5.003700">
        <ele>1824.0</ele>
        <time>2013-07-06T14:39:47Z</time>
      </trkpt>
      <trkpt lat="40.030817" lon="-5.003833">
        <ele>1825.0</ele>
        <time>2013-07-06T14:39:48Z</time>
      </trkpt>
      <trkpt lat="40.030867" lon="-5.003967">
        <ele>1826.0</ele>
        <time>2013-07-06T14:39:49Z</time>
      </trkpt>
      <trkpt lat="40.030917" lon="-5.004083">
        <ele>1826.0</ele>
        <time>2013-07-06T14:39:50Z</time>
      </trkpt>
      <trkpt lat="40.030983" lon="-5.004183">
        <ele>1827.0</ele>
        <time>2013-07-06T14:39:51Z</time>
      </trkpt>
      <trkpt lat="40.031067" lon="-5.004267">
        <ele>1828.0</ele>
        <time>2013-07-06T14:39:52Z</time>
      </trkpt>
      <trkpt lat="40.031167" lon="-5.004317">
        <ele>1829.0</ele>
        <time>2013-07-06T14:39:53Z</time>
      </trkpt>
      <trkpt lat="40.031233" lon="-5.004367">
        <ele>1830.0</ele>
        <time>2013-07-06T14:39:54Z</time>
      </trkpt>
      <trkpt lat="40.031317" lon="-5.004400">
        <ele>1832.0</ele>
        <time>2013-07-06T14:39:55Z</time>
      </trkpt>
      <trkpt lat="40.031383" lon="-5.004417">
        <ele>1834.0</ele>
        <time>2013-07-06T14:39:56Z</time>
      </trkpt>
      <trkpt lat="40.031467" lon="-5.004467">
        <ele>1835.0</ele>
        <time>2013-07-06T14:39:57Z</time>
      </trkpt>
      <trkpt lat="40.031550" lon="-5.004500">
        <ele>1835.0</ele>
        <time>2013-07-06T14:39:58Z</time>
      </trkpt>
      <trkpt lat="40.031633" lon="-5.004517">
        <ele>1837.0</ele>
        <time>2013-07-06T14:39:59Z</time>
      </trkpt>
      <trkpt lat="40.031700" lon="-5.004533">
        <ele>1838.0</ele>
        <time>2013-07-06T14:40:00Z</time>
      </trkpt>
      <trkpt lat="40.031783" lon="-5.004550">
        <ele>1840.0</ele>
        <time>2013-07-06T14:40:01Z</time>
      </trkpt>
      <trkpt lat="40.031850" lon="-5.004550">
        <ele>1841.0</ele>
        <time>2013-07-06T14:40:02Z</time>
      </trkpt>
      <trkpt lat="40.031933" lon="-5.004567">
        <ele>1843.0</ele>
        <time>2013-07-06T14:40:03Z</time>
      </trkpt>
      <trkpt lat="40.032000" lon="-5.004567">
        <ele>1844.0</ele>
        <time>2013-07-06T14:40:04Z</time>
      </trkpt>
      <trkpt lat="40.032067" lon="-5.004567">
        <ele>1845.0</ele>
        <time>2013-07-06T14:40:05Z</time>
      </trkpt>
      <trkpt lat="40.032133" lon="-5.004533">
        <ele>1847.0</ele>
        <time>2013-07-06T14:40:06Z</time>
      </trkpt>
      <trkpt lat="40.032183" lon="-5.004483">
        <ele>1848.0</ele>
        <time>2013-07-06T14:40:07Z</time>
      </trkpt>
      <trkpt lat="40.032200" lon="-5.004400">
        <ele>1848.0</ele>
        <time>2013-07-06T14:40:08Z</time>
      </trkpt>
      <trkpt lat="40.032183" lon="-5.004250">
        <ele>1849.0</ele>
        <time>2013-07-06T14:40:10Z</time>
      </trkpt>
      <trkpt lat="40.032150" lon="-5.004183">
        <ele>1849.0</ele>
        <time>2013-07-06T14:40:11Z</time>
      </trkpt>
      <trkpt lat="40.032117" lon="-5.004133">
        <ele>1850.0</ele>
        <time>2013-07-06T14:40:12Z</time>
      </trkpt>
      <trkpt lat="40.032050" lon="-5.004117">
        <ele>1851.0</ele>
        <time>2013-07-06T14:40:13Z</time>
      </trkpt>
      <trkpt lat="40.031967" lon="-5.004133">
        <ele>1852.0</ele>
        <time>2013-07-06T14:40:14Z</time>
      </trkpt>
      <trkpt lat="40.031867" lon="-5.004167">
        <ele>1852.0</ele>
        <time>2013-07-06T14:40:15Z</time>
      </trkpt>
      <trkpt lat="40.031783" lon="-5.004250">
        <ele>1853.0</ele>
        <time>2013-07-06T14:40:16Z</time>
      </trkpt>
      <trkpt lat="40.031717" lon="-5.004350">
        <ele>1854.0</ele>
        <time>2013-07-06T14:40:17Z</time>
      </trkpt>
      <trkpt lat="40.031650" lon="-5.004467">
        <ele>1857.0</ele>
        <time>2013-07-06T14:40:18Z</time>
      </trkpt>
      <trkpt lat="40.031617" lon="-5.004583">
        <ele>1859.0</ele>
        <time>2013-07-06T14:40:19Z</time>
      </trkpt>
      <trkpt lat="40.031600" lon="-5.004717">
        <ele>1860.0</ele>
        <time>2013-07-06T14:40:20Z</time>
      </trkpt>
      <trkpt lat="40.031617" lon="-5.004850">
        <ele>1861.0</ele>
        <time>2013-07-06T14:40:21Z</time>
      </trkpt>
      <trkpt lat="40.031633" lon="-5.004983">
        <ele>1862.0</ele>
        <time>2013-07-06T14:40:22Z</time>
      </trkpt>
      <trkpt lat="40.031683" lon="-5.005117">
        <ele>1862.0</ele>
        <time>2013-07-06T14:40:23Z</time>
      </trkpt>
      <trkpt lat="40.031750" lon="-5.005233">
        <ele>1862.0</ele>
        <time>2013-07-06T14:40:24Z</time>
      </trkpt>
      <trkpt lat="40.031817" lon="-5.005317">
        <ele>1863.0</ele>
        <time>2013-07-06T14:40:25Z</time>
      </trkpt>
      <trkpt lat="40.031900" lon="-5.005383">
        <ele>1864.0</ele>
        <time>2013-07-06T14:40:26Z</time>
      </trkpt>
      <trkpt lat="40.031983" lon="-5.005433">
        <ele>1865.0</ele>
        <time>2013-07-06T14:40:27Z</time>
      </trkpt>
      <trkpt lat="40.032050" lon="-5.005467">
        <ele>1866.0</ele>
        <time>2013-07-06T14:40:28Z</time>
      </trkpt>
      <trkpt lat="40.032133" lon="-5.005500">
        <ele>1866.0</ele>
        <time>2013-07-06T14:40:29Z</time>
      </trkpt>
      <trkpt lat="40.032233" lon="-5.005500">
        <ele>1865.0</ele>
        <time>2013-07-06T14:40:30Z</time>
      </trkpt>
      <trkpt lat="40.032317" lon="-5.005483">
        <ele>1865.0</ele>
        <time>2013-07-06T14:40:31Z</time>
      </trkpt>
      <trkpt lat="40.032400" lon="-5.005450">
        <ele>1865.0</ele>
        <time>2013-07-06T14:40:32Z</time>
      </trkpt>
      <trkpt lat="40.032483" lon="-5.005417">
        <ele>1867.0</ele>
        <time>2013-07-06T14:40:33Z</time>
      </trkpt>
      <trkpt lat="40.032550" lon="-5.005400">
        <ele>1868.0</ele>
        <time>2013-07-06T14:40:34Z</time>
      </trkpt>
      <trkpt lat="40.032633" lon="-5.005383">
        <ele>1869.0</ele>
        <time>2013-07-06T14:40:35Z</time>
      </trkpt>
      <trkpt lat="40.032717" lon="-5.005367">
        <ele>1869.0</ele>
        <time>2013-07-06T14:40:36Z</time>
      </trkpt>
      <trkpt lat="40.032800" lon="-5.005333">
        <ele>1869.0</ele>
        <time>2013-07-06T14:40:37Z</time>
      </trkpt>
      <trkpt lat="40.032883" lon="-5.005300">
        <ele>1869.0</ele>
        <time>2013-07-06T14:40:38Z</time>
      </trkpt>
      <trkpt lat="40.032950" lon="-5.005250">
        <ele>1870.0</ele>
        <time>2013-07-06T14:40:39Z</time>
      </trkpt>
      <trkpt lat="40.033183" lon="-5.005150">
        <ele>1872.0</ele>
        <time>2013-07-06T14:40:42Z</time>
      </trkpt>
      <trkpt lat="40.033250" lon="-5.005117">
        <ele>1871.0</ele>
        <time>2013-07-06T14:40:43Z</time>
      </trkpt>
      <trkpt lat="40.033333" lon="-5.005083">
        <ele>1872.0</ele>
        <time>2013-07-06T14:40:44Z</time>
      </trkpt>
      <trkpt lat="40.033400" lon="-5.005033">
        <ele>1872.0</ele>
        <time>2013-07-06T14:40:45Z</time>
      </trkpt>
      <trkpt lat="40.033450" lon="-5.004983">
        <ele>1872.0</ele>
        <time>2013-07-06T14:40:46Z</time>
      </trkpt>
      <trkpt lat="40.033517" lon="-5.004950">
        <ele>1872.0</ele>
        <time>2013-07-06T14:40:47Z</time>
      </trkpt>
      <trkpt lat="40.033583" lon="-5.004900">
        <ele>1872.0</ele>
        <time>2013-07-06T14:40:48Z</time>
      </trkpt>
      <trkpt lat="40.033650" lon="-5.004850">
        <ele>1872.0</ele>
        <time>2013-07-06T14:40:49Z</time>
      </trkpt>
      <trkpt lat="40.033700" lon="-5.004800">
        <ele>1872.0</ele>
        <time>2013-07-06T14:40:50Z</time>
      </trkpt>
      <trkpt lat="40.033733" lon="-5.004733">
        <ele>1872.0</ele>
        <time>2013-07-06T14:40:51Z</time>
      </trkpt>
      <trkpt lat="40.033750" lon="-5.004650">
        <ele>1872.0</ele>
        <time>2013-07-06T14:40:52Z</time>
      </trkpt>
      <trkpt lat="40.033717" lon="-5.004567">
        <ele>1872.0</ele>
        <time>2013-07-06T14:40:53Z</time>
      </trkpt>
      <trkpt lat="40.033667" lon="-5.004500">
        <ele>1872.0</ele>
        <time>2013-07-06T14:40:54Z</time>
      </trkpt>
      <trkpt lat="40.033600" lon="-5.004467">
        <ele>1872.0</ele>
        <time>2013-07-06T14:40:55Z</time>
      </trkpt>
      <trkpt lat="40.033517" lon="-5.004450">
        <ele>1872.0</ele>
        <time>2013-07-06T14:40:56Z</time>
      </trkpt>
      <trkpt lat="40.033450" lon="-5.004450">
        <ele>1872.0</ele>
        <time>2013-07-06T14:40:57Z</time>
      </trkpt>
      <trkpt lat="40.033367" lon="-5.004483">
        <ele>1873.0</ele>
        <time>2013-07-06T14:40:58Z</time>
      </trkpt>
      <trkpt lat="40.033283" lon="-5.004567">
        <ele>1872.0</ele>
        <time>2013-07-06T14:40:59Z</time>
      </trkpt>
      <trkpt lat="40.033217" lon="-5.004650">
        <ele>1871.0</ele>
        <time>2013-07-06T14:41:00Z</time>
      </trkpt>
      <trkpt lat="40.033167" lon="-5.004767">
        <ele>1870.0</ele>
        <time>2013-07-06T14:41:01Z</time>
      </trkpt>
      <trkpt lat="40.033133" lon="-5.004900">
        <ele>1870.0</ele>
        <time>2013-07-06T14:41:02Z</time>
      </trkpt>
      <trkpt lat="40.033117" lon="-5.005017">
        <ele>1869.0</ele>
        <time>2013-07-06T14:41:03Z</time>
      </trkpt>
      <trkpt lat="40.033150" lon="-5.005150">
        <ele>1869.0</ele>
        <time>2013-07-06T14:41:04Z</time>
      </trkpt>
      <trkpt lat="40.033200" lon="-5.005283">
        <ele>1868.0</ele>
        <time>2013-07-06T14:41:05Z</time>
      </trkpt>
      <trkpt lat="40.033250" lon="-5.005383">
        <ele>1866.0</ele>
        <time>2013-07-06T14:41:06Z</time>
      </trkpt>
      <trkpt lat="40.033333" lon="-5.005467">
        <ele>1866.0</ele>
        <time>2013-07-06T14:41:07Z</time>
      </trkpt>
      <trkpt lat="40.033417" lon="-5.005517">
        <ele>1865.0</ele>
        <time>2013-07-06T14:41:08Z</time>
      </trkpt>
      <trkpt lat="40.033500" lon="-5.005533">
        <ele>1865.0</ele>
        <time>2013-07-06T14:41:09Z</time>
      </trkpt>
      <trkpt lat="40.033600" lon="-5.005533">
        <ele>1865.0</ele>
        <time>2013-07-06T14:41:10Z</time>
      </trkpt>
      <trkpt lat="40.033683" lon="-5.005517">
        <ele>1866.0</ele>
        <time>2013-07-06T14:41:11Z</time>
      </trkpt>
      <trkpt lat="40.033750" lon="-5.005483">
        <ele>1867.0</ele>
        <time>2013-07-06T14:41:12Z</time>
      </trkpt>
      <trkpt lat="40.033900" lon="-5.005317">
        <ele>1867.0</ele>
        <time>2013-07-06T14:41:15Z</time>
      </trkpt>
      <trkpt lat="40.033950" lon="-5.005250">
        <ele>1867.0</ele>
        <time>2013-07-06T14:41:16Z</time>
      </trkpt>
      <trkpt lat="40.034000" lon="-5.005183">
        <ele>1868.0</ele>
        <time>2013-07-06T14:41:17Z</time>
      </trkpt>
      <trkpt lat="40.034050" lon="-5.005133">
        <ele>1868.0</ele>
        <time>2013-07-06T14:41:18Z</time>
      </trkpt>
      <trkpt lat="40.034083" lon="-5.005083">
        <ele>1869.0</ele>
        <time>2013-07-06T14:41:19Z</time>
      </trkpt>
      <trkpt lat="40.034133" lon="-5.005017">
        <ele>1869.0</ele>
        <time>2013-07-06T14:41:20Z</time>
      </trkpt>
      <trkpt lat="40.034167" lon="-5.004933">
        <ele>1868.0</ele>
        <time>2013-07-06T14:41:21Z</time>
      </trkpt>
      <trkpt lat="40.034183" lon="-5.004867">
        <ele>1868.0</ele>
        <time>2013-07-06T14:41:22Z</time>
      </trkpt>
      <trkpt lat="40.034200" lon="-5.004783">
        <ele>1868.0</ele>
        <time>2013-07-06T14:41:23Z</time>
      </trkpt>
      <trkpt lat="40.034233" lon="-5.004717">
        <ele>1868.0</ele>
        <time>2013-07-06T14:41:24Z</time>
      </trkpt>
      <trkpt lat="40.034250" lon="-5.004633">
        <ele>1868.0</ele>
        <time>2013-07-06T14:41:25Z</time>
      </trkpt>
      <trkpt lat="40.034283" lon="-5.004567">
        <ele>1867.0</ele>
        <time>2013-07-06T14:41:26Z</time>
      </trkpt>
      <trkpt lat="40.034317" lon="-5.004483">
        <ele>1866.0</ele>
        <time>2013-07-06T14:41:27Z</time>
      </trkpt>
      <trkpt lat="40.034333" lon="-5.004400">
        <ele>1866.0</ele>
        <time>2013-07-06T14:41:28Z</time>
      </trkpt>
      <trkpt lat="40.034367" lon="-5.004333">
        <ele>1866.0</ele>
        <time>2013-07-06T14:41:29Z</time>
      </trkpt>
      <trkpt lat="40.034383" lon="-5.004283">
        <ele>1866.0</ele>
        <time>2013-07-06T14:41:30Z</time>
      </trkpt>
      <trkpt lat="40.034417" lon="-5.004233">
        <ele>1866.0</ele>
        <time>2013-07-06T14:41:31Z</time>
      </trkpt>
      <trkpt lat="40.034467" lon="-5.004167">
        <ele>1865.0</ele>
        <time>2013-07-06T14:41:32Z</time>
      </trkpt>
      <trkpt lat="40.034500" lon="-5.004100">
        <ele>1863.0</ele>
        <time>2013-07-06T14:41:33Z</time>
      </trkpt>
      <trkpt lat="40.034567" lon="-5.004033">
        <ele>1861.0</ele>
        <time>2013-07-06T14:41:34Z</time>
      </trkpt>
      <trkpt lat="40.034633" lon="-5.004000">
        <ele>1861.0</ele>
        <time>2013-07-06T14:41:35Z</time>
      </trkpt>
      <trkpt lat="40.034717" lon="-5.003983">
        <ele>1860.0</ele>
        <time>2013-07-06T14:41:36Z</time>
      </trkpt>
      <trkpt lat="40.034800" lon="-5.003967">
        <ele>1860.0</ele>
        <time>2013-07-06T14:41:37Z</time>
      </trkpt>
      <trkpt lat="40.034883" lon="-5.003967">
        <ele>1859.0</ele>
        <time>2013-07-06T14:41:38Z</time>
      </trkpt>
      <trkpt lat="40.034950" lon="-5.003967">
        <ele>1859.0</ele>
        <time>2013-07-06T14:41:39Z</time>
      </trkpt>
      <trkpt lat="40.035033" lon="-5.003983">
        <ele>1859.0</ele>
        <time>2013-07-06T14:41:40Z</time>
      </trkpt>
      <trkpt lat="40.035117" lon="-5.004000">
        <ele>1859.0</ele>
        <time>2013-07-06T14:41:41Z</time>
      </trkpt>
      <trkpt lat="40.035183" lon="-5.004050">
        <ele>1859.0</ele>
        <time>2013-07-06T14:41:42Z</time>
      </trkpt>
      <trkpt lat="40.035283" lon="-5.004083">
        <ele>1858.0</ele>
        <time>2013-07-06T14:41:43Z</time>
      </trkpt>
      <trkpt lat="40.035367" lon="-5.004117">
        <ele>1857.0</ele>
        <time>2013-07-06T14:41:44Z</time>
      </trkpt>
      <trkpt lat="40.035450" lon="-5.004167">
        <ele>1856.0</ele>
        <time>2013-07-06T14:41:45Z</time>
      </trkpt>
      <trkpt lat="40.035533" lon="-5.004200">
        <ele>1856.0</ele>
        <time>2013-07-06T14:41:46Z</time>
      </trkpt>
      <trkpt lat="40.035617" lon="-5.004250">
        <ele>1856.0</ele>
        <time>2013-07-06T14:41:47Z</time>
      </trkpt>
      <trkpt lat="40.035717" lon="-5.004300">
        <ele>1855.0</ele>
        <time>2013-07-06T14:41:48Z</time>
      </trkpt>
      <trkpt lat="40.035800" lon="-5.004333">
        <ele>1854.0</ele>
        <time>2013-07-06T14:41:49Z</time>
      </trkpt>
      <trkpt lat="40.035883" lon="-5.004383">
        <ele>1854.0</ele>
        <time>2013-07-06T14:41:50Z</time>
      </trkpt>
      <trkpt lat="40.035983" lon="-5.004417">
        <ele>1854.0</ele>
        <time>2013-07-06T14:41:51Z</time>
      </trkpt>
      <trkpt lat="40.036067" lon="-5.004450">
        <ele>1854.0</ele>
        <time>2013-07-06T14:41:52Z</time>
      </trkpt>
      <trkpt lat="40.036150" lon="-5.004483">
        <ele>1854.0</ele>
        <time>2013-07-06T14:41:53Z</time>
      </trkpt>
      <trkpt lat="40.036233" lon="-5.004500">
        <ele>1854.0</ele>
        <time>2013-07-06T14:41:54Z</time>
      </trkpt>
      <trkpt lat="40.036317" lon="-5.004533">
        <ele>1854.0</ele>
        <time>2013-07-06T14:41:55Z</time>
      </trkpt>
      <trkpt lat="40.036400" lon="-5.004567">
        <ele>1853.0</ele>
        <time>2013-07-06T14:41:56Z</time>
      </trkpt>
      <trkpt lat="40.036500" lon="-5.004600">
        <ele>1853.0</ele>
        <time>2013-07-06T14:41:57Z</time>
      </trkpt>
      <trkpt lat="40.036583" lon="-5.004633">
        <ele>1852.0</ele>
        <time>2013-07-06T14:41:58Z</time>
      </trkpt>
      <trkpt lat="40.036683" lon="-5.004667">
        <ele>1852.0</ele>
        <time>2013-07-06T14:41:59Z</time>
      </trkpt>
      <trkpt lat="40.036783" lon="-5.004717">
        <ele>1852.0</ele>
        <time>2013-07-06T14:42:00Z</time>
      </trkpt>
      <trkpt lat="40.036867" lon="-5.004750">
        <ele>1852.0</ele>
        <time>2013-07-06T14:42:01Z</time>
      </trkpt>
      <trkpt lat="40.036950" lon="-5.004800">
        <ele>1853.0</ele>
        <time>2013-07-06T14:42:02Z</time>
      </trkpt>
      <trkpt lat="40.037050" lon="-5.004850">
        <ele>1852.0</ele>
        <time>2013-07-06T14:42:03Z</time>
      </trkpt>
      <trkpt lat="40.037167" lon="-5.004900">
        <ele>1852.0</ele>
        <time>2013-07-06T14:42:04Z</time>
      </trkpt>
      <trkpt lat="40.037267" lon="-5.004933">
        <ele>1852.0</ele>
        <time>2013-07-06T14:42:05Z</time>
      </trkpt>
      <trkpt lat="40.037350" lon="-5.004983">
        <ele>1853.0</ele>
        <time>2013-07-06T14:42:06Z</time>
      </trkpt>
      <trkpt lat="40.037450" lon="-5.005033">
        <ele>1853.0</ele>
        <time>2013-07-06T14:42:07Z</time>
      </trkpt>
      <trkpt lat="40.037533" lon="-5.005083">
        <ele>1854.0</ele>
        <time>2013-07-06T14:42:08Z</time>
      </trkpt>
      <trkpt lat="40.037633" lon="-5.005133">
        <ele>1853.0</ele>
        <time>2013-07-06T14:42:09Z</time>
      </trkpt>
      <trkpt lat="40.037733" lon="-5.005183">
        <ele>1853.0</ele>
        <time>2013-07-06T14:42:10Z</time>
      </trkpt>
      <trkpt lat="40.037850" lon="-5.005217">
        <ele>1851.0</ele>
        <time>2013-07-06T14:42:11Z</time>
      </trkpt>
      <trkpt lat="40.037967" lon="-5.005250">
        <ele>1850.0</ele>
        <time>2013-07-06T14:42:12Z</time>
      </trkpt>
      <trkpt lat="40.038050" lon="-5.005283">
        <ele>1850.0</ele>
        <time>2013-07-06T14:42:13Z</time>
      </trkpt>
      <trkpt lat="40.038133" lon="-5.005300">
        <ele>1849.0</ele>
        <time>2013-07-06T14:42:14Z</time>
      </trkpt>
      <trkpt lat="40.038233" lon="-5.005333">
        <ele>1848.0</ele>
        <time>2013-07-06T14:42:15Z</time>
      </trkpt>
      <trkpt lat="40.038317" lon="-5.005367">
        <ele>1847.0</ele>
        <time>2013-07-06T14:42:16Z</time>
      </trkpt>
      <trkpt lat="40.038433" lon="-5.005383">
        <ele>1845.0</ele>
        <time>2013-07-06T14:42:17Z</time>
      </trkpt>
      <trkpt lat="40.038533" lon="-5.005417">
        <ele>1843.0</ele>
        <time>2013-07-06T14:42:18Z</time>
      </trkpt>
      <trkpt lat="40.038633" lon="-5.005450">
        <ele>1842.0</ele>
        <time>2013-07-06T14:42:19Z</time>
      </trkpt>
      <trkpt lat="40.038717" lon="-5.005483">
        <ele>1840.0</ele>
        <time>2013-07-06T14:42:20Z</time>
      </trkpt>
      <trkpt lat="40.038817" lon="-5.005533">
        <ele>1838.0</ele>
        <time>2013-07-06T14:42:21Z</time>
      </trkpt>
      <trkpt lat="40.038933" lon="-5.005583">
        <ele>1836.0</ele>
        <time>2013-07-06T14:42:22Z</time>
      </trkpt>
      <trkpt lat="40.039033" lon="-5.005617">
        <ele>1833.0</ele>
        <time>2013-07-06T14:42:23Z</time>
      </trkpt>
      <trkpt lat="40.039150" lon="-5.005667">
        <ele>1830.0</ele>
        <time>2013-07-06T14:42:24Z</time>
      </trkpt>
      <trkpt lat="40.039250" lon="-5.005700">
        <ele>1828.0</ele>
        <time>2013-07-06T14:42:25Z</time>
      </trkpt>
      <trkpt lat="40.039350" lon="-5.005733">
        <ele>1826.0</ele>
        <time>2013-07-06T14:42:26Z</time>
      </trkpt>
      <trkpt lat="40.039450" lon="-5.005767">
        <ele>1824.0</ele>
        <time>2013-07-06T14:42:27Z</time>
      </trkpt>
      <trkpt lat="40.039550" lon="-5.005800">
        <ele>1822.0</ele>
        <time>2013-07-06T14:42:28Z</time>
      </trkpt>
      <trkpt lat="40.039650" lon="-5.005833">
        <ele>1819.0</ele>
        <time>2013-07-06T14:42:29Z</time>
      </trkpt>
      <trkpt lat="40.039750" lon="-5.005867">
        <ele>1816.0</ele>
        <time>2013-07-06T14:42:30Z</time>
      </trkpt>
      <trkpt lat="40.039850" lon="-5.005900">
        <ele>1813.0</ele>
        <time>2013-07-06T14:42:31Z</time>
      </trkpt>
      <trkpt lat="40.039950" lon="-5.005917">
        <ele>1810.0</ele>
        <time>2013-07-06T14:42:32Z</time>
      </trkpt>
      <trkpt lat="40.040050" lon="-5.005933">
        <ele>1807.0</ele>
        <time>2013-07-06T14:42:33Z</time>
      </trkpt>
      <trkpt lat="40.040150" lon="-5.005967">
        <ele>1804.0</ele>
        <time>2013-07-06T14:42:34Z</time>
      </trkpt>
      <trkpt lat="40.040267" lon="-5.006000">
        <ele>1800.0</ele>
        <time>2013-07-06T14:42:35Z</time>
      </trkpt>
      <trkpt lat="40.040367" lon="-5.006017">
        <ele>1797.0</ele>
        <time>2013-07-06T14:42:36Z</time>
      </trkpt>
      <trkpt lat="40.040467" lon="-5.006033">
        <ele>1795.0</ele>
        <time>2013-07-06T14:42:37Z</time>
      </trkpt>
      <trkpt lat="40.040567" lon="-5.006033">
        <ele>1794.0</ele>
        <time>2013-07-06T14:42:38Z</time>
      </trkpt>
      <trkpt lat="40.040833" lon="-5.006017">
        <ele>1787.0</ele>
        <time>2013-07-06T14:42:41Z</time>
      </trkpt>
      <trkpt lat="40.040917" lon="-5.005983">
        <ele>1785.0</ele>
        <time>2013-07-06T14:42:42Z</time>
      </trkpt>
      <trkpt lat="40.040967" lon="-5.005933">
        <ele>1784.0</ele>
        <time>2013-07-06T14:42:43Z</time>
      </trkpt>
      <trkpt lat="40.041017" lon="-5.005850">
        <ele>1781.0</ele>
        <time>2013-07-06T14:42:44Z</time>
      </trkpt>
      <trkpt lat="40.041050" lon="-5.005767">
        <ele>1779.0</ele>
        <time>2013-07-06T14:42:45Z</time>
      </trkpt>
      <trkpt lat="40.041050" lon="-5.005700">
        <ele>1777.0</ele>
        <time>2013-07-06T14:42:46Z</time>
      </trkpt>
      <trkpt lat="40.041050" lon="-5.005633">
        <ele>1775.0</ele>
        <time>2013-07-06T14:42:47Z</time>
      </trkpt>
      <trkpt lat="40.041017" lon="-5.005567">
        <ele>1774.0</ele>
        <time>2013-07-06T14:42:48Z</time>
      </trkpt>
      <trkpt lat="40.040983" lon="-5.005517">
        <ele>1772.0</ele>
        <time>2013-07-06T14:42:49Z</time>
      </trkpt>
      <trkpt lat="40.040933" lon="-5.005467">
        <ele>1770.0</ele>
        <time>2013-07-06T14:42:50Z</time>
      </trkpt>
      <trkpt lat="40.040883" lon="-5.005417">
        <ele>1767.0</ele>
        <time>2013-07-06T14:42:51Z</time>
      </trkpt>
      <trkpt lat="40.040817" lon="-5.005367">
        <ele>1765.0</ele>
        <time>2013-07-06T14:42:52Z</time>
      </trkpt>
      <trkpt lat="40.040750" lon="-5.005333">
        <ele>1763.0</ele>
        <time>2013-07-06T14:42:53Z</time>
      </trkpt>
      <trkpt lat="40.040700" lon="-5.005300">
        <ele>1761.0</ele>
        <time>2013-07-06T14:42:54Z</time>
      </trkpt>
      <trkpt lat="40.040650" lon="-5.005250">
        <ele>1760.0</ele>
        <time>2013-07-06T14:42:55Z</time>
      </trkpt>
      <trkpt lat="40.040583" lon="-5.005217">
        <ele>1760.0</ele>
        <time>2013-07-06T14:42:56Z</time>
      </trkpt>
      <trkpt lat="40.040533" lon="-5.005167">
        <ele>1759.0</ele>
        <time>2013-07-06T14:42:57Z</time>
      </trkpt>
      <trkpt lat="40.040483" lon="-5.005133">
        <ele>1759.0</ele>
        <time>2013-07-06T14:42:58Z</time>
      </trkpt>
      <trkpt lat="40.040433" lon="-5.005083">
        <ele>1758.0</ele>
        <time>2013-07-06T14:42:59Z</time>
      </trkpt>
      <trkpt lat="40.040383" lon="-5.005050">
        <ele>1758.0</ele>
        <time>2013-07-06T14:43:00Z</time>
      </trkpt>
      <trkpt lat="40.040317" lon="-5.005033">
        <ele>1757.0</ele>
        <time>2013-07-06T14:43:01Z</time>
      </trkpt>
      <trkpt lat="40.040250" lon="-5.004983">
        <ele>1755.0</ele>
        <time>2013-07-06T14:43:02Z</time>
      </trkpt>
      <trkpt lat="40.040183" lon="-5.004950">
        <ele>1753.0</ele>
        <time>2013-07-06T14:43:03Z</time>
      </trkpt>
      <trkpt lat="40.040100" lon="-5.004917">
        <ele>1752.0</ele>
        <time>2013-07-06T14:43:04Z</time>
      </trkpt>
      <trkpt lat="40.040050" lon="-5.004883">
        <ele>1751.0</ele>
        <time>2013-07-06T14:43:05Z</time>
      </trkpt>
      <trkpt lat="40.039983" lon="-5.004867">
        <ele>1750.0</ele>
        <time>2013-07-06T14:43:06Z</time>
      </trkpt>
      <trkpt lat="40.039933" lon="-5.004867">
        <ele>1749.0</ele>
        <time>2013-07-06T14:43:07Z</time>
      </trkpt>
      <trkpt lat="40.039883" lon="-5.004850">
        <ele>1748.0</ele>
        <time>2013-07-06T14:43:08Z</time>
      </trkpt>
      <trkpt lat="40.039817" lon="-5.004817">
        <ele>1746.0</ele>
        <time>2013-07-06T14:43:09Z</time>
      </trkpt>
      <trkpt lat="40.039733" lon="-5.004800">
        <ele>1744.0</ele>
        <time>2013-07-06T14:43:10Z</time>
      </trkpt>
      <trkpt lat="40.039667" lon="-5.004783">
        <ele>1742.0</ele>
        <time>2013-07-06T14:43:11Z</time>
      </trkpt>
      <trkpt lat="40.039600" lon="-5.004767">
        <ele>1740.0</ele>
        <time>2013-07-06T14:43:12Z</time>
      </trkpt>
      <trkpt lat="40.039533" lon="-5.004767">
        <ele>1740.0</ele>
        <time>2013-07-06T14:43:13Z</time>
      </trkpt>
      <trkpt lat="40.039467" lon="-5.004750">
        <ele>1739.0</ele>
        <time>2013-07-06T14:43:14Z</time>
      </trkpt>
      <trkpt lat="40.039417" lon="-5.004717">
        <ele>1737.0</ele>
        <time>2013-07-06T14:43:15Z</time>
      </trkpt>
      <trkpt lat="40.039350" lon="-5.004700">
        <ele>1736.0</ele>
        <time>2013-07-06T14:43:16Z</time>
      </trkpt>
      <trkpt lat="40.039283" lon="-5.004683">
        <ele>1735.0</ele>
        <time>2013-07-06T14:43:17Z</time>
      </trkpt>
      <trkpt lat="40.039217" lon="-5.004667">
        <ele>1734.0</ele>
        <time>2013-07-06T14:43:18Z</time>
      </trkpt>
      <trkpt lat="40.039150" lon="-5.004650">
        <ele>1733.0</ele>
        <time>2013-07-06T14:43:19Z</time>
      </trkpt>
      <trkpt lat="40.039083" lon="-5.004617">
        <ele>1733.0</ele>
        <time>2013-07-06T14:43:20Z</time>
      </trkpt>
      <trkpt lat="40.039017" lon="-5.004600">
        <ele>1732.0</ele>
        <time>2013-07-06T14:43:21Z</time>
      </trkpt>
      <trkpt lat="40.038967" lon="-5.004567">
        <ele>1732.0</ele>
        <time>2013-07-06T14:43:22Z</time>
      </trkpt>
      <trkpt lat="40.038900" lon="-5.004550">
        <ele>1731.0</ele>
        <time>2013-07-06T14:43:23Z</time>
      </trkpt>
      <trkpt lat="40.038833" lon="-5.004533">
        <ele>1731.0</ele>
        <time>2013-07-06T14:43:24Z</time>
      </trkpt>
      <trkpt lat="40.038767" lon="-5.004517">
        <ele>1731.0</ele>
        <time>2013-07-06T14:43:25Z</time>
      </trkpt>
      <trkpt lat="40.038717" lon="-5.004500">
        <ele>1732.0</ele>
        <time>2013-07-06T14:43:26Z</time>
      </trkpt>
      <trkpt lat="40.038650" lon="-5.004500">
        <ele>1732.0</ele>
        <time>2013-07-06T14:43:27Z</time>
      </trkpt>
      <trkpt lat="40.038600" lon="-5.004483">
        <ele>1732.0</ele>
        <time>2013-07-06T14:43:28Z</time>
      </trkpt>
      <trkpt lat="40.038533" lon="-5.004467">
        <ele>1732.0</ele>
        <time>2013-07-06T14:43:29Z</time>
      </trkpt>
      <trkpt lat="40.038483" lon="-5.004450">
        <ele>1732.0</ele>
        <time>2013-07-06T14:43:30Z</time>
      </trkpt>
      <trkpt lat="40.038417" lon="-5.004433">
        <ele>1732.0</ele>
        <time>2013-07-06T14:43:31Z</time>
      </trkpt>
      <trkpt lat="40.038350" lon="-5.004417">
        <ele>1732.0</ele>
        <time>2013-07-06T14:43:32Z</time>
      </trkpt>
      <trkpt lat="40.038300" lon="-5.004400">
        <ele>1732.0</ele>
        <time>2013-07-06T14:43:33Z</time>
      </trkpt>
      <trkpt lat="40.038250" lon="-5.004400">
        <ele>1732.0</ele>
        <time>2013-07-06T14:43:34Z</time>
      </trkpt>
      <trkpt lat="40.038200" lon="-5.004400">
        <ele>1732.0</ele>
        <time>2013-07-06T14:43:35Z</time>
      </trkpt>
      <trkpt lat="40.038150" lon="-5.004383">
        <ele>1731.0</ele>
        <time>2013-07-06T14:43:36Z</time>
      </trkpt>
      <trkpt lat="40.038100" lon="-5.004383">
        <ele>1731.0</ele>
        <time>2013-07-06T14:43:37Z</time>
      </trkpt>
      <trkpt lat="40.038033" lon="-5.004367">
        <ele>1731.0</ele>
        <time>2013-07-06T14:43:38Z</time>
      </trkpt>
      <trkpt lat="40.037983" lon="-5.004367">
        <ele>1730.0</ele>
        <time>2013-07-06T14:43:39Z</time>
      </trkpt>
      <trkpt lat="40.037933" lon="-5.004367">
        <ele>1730.0</ele>
        <time>2013-07-06T14:43:40Z</time>
      </trkpt>
      <trkpt lat="40.037883" lon="-5.004367">
        <ele>1729.0</ele>
        <time>2013-07-06T14:43:41Z</time>
      </trkpt>
      <trkpt lat="40.037817" lon="-5.004367">
        <ele>1728.0</ele>
        <time>2013-07-06T14:43:42Z</time>
      </trkpt>
      <trkpt lat="40.037750" lon="-5.004350">
        <ele>1726.0</ele>
        <time>2013-07-06T14:43:43Z</time>
      </trkpt>
      <trkpt lat="40.037683" lon="-5.004350">
        <ele>1725.0</ele>
        <time>2013-07-06T14:43:44Z</time>
      </trkpt>
      <trkpt lat="40.037633" lon="-5.004350">
        <ele>1725.0</ele>
        <time>2013-07-06T14:43:45Z</time>
      </trkpt>
      <trkpt lat="40.037583" lon="-5.004350">
        <ele>1725.0</ele>
        <time>2013-07-06T14:43:46Z</time>
      </trkpt>
      <trkpt lat="40.037517" lon="-5.004350">
        <ele>1724.0</ele>
        <time>2013-07-06T14:43:47Z</time>
      </trkpt>
      <trkpt lat="40.037467" lon="-5.004350">
        <ele>1722.0</ele>
        <time>2013-07-06T14:43:48Z</time>
      </trkpt>
      <trkpt lat="40.037400" lon="-5.004350">
        <ele>1720.0</ele>
        <time>2013-07-06T14:43:49Z</time>
      </trkpt>
      <trkpt lat="40.037317" lon="-5.004350">
        <ele>1719.0</ele>
        <time>2013-07-06T14:43:50Z</time>
      </trkpt>
      <trkpt lat="40.037250" lon="-5.004350">
        <ele>1718.0</ele>
        <time>2013-07-06T14:43:51Z</time>
      </trkpt>
      <trkpt lat="40.037200" lon="-5.004333">
        <ele>1717.0</ele>
        <time>2013-07-06T14:43:52Z</time>
      </trkpt>
      <trkpt lat="40.037133" lon="-5.004333">
        <ele>1717.0</ele>
        <time>2013-07-06T14:43:53Z</time>
      </trkpt>
      <trkpt lat="40.037083" lon="-5.004333">
        <ele>1717.0</ele>
        <time>2013-07-06T14:43:54Z</time>
      </trkpt>
      <trkpt lat="40.037017" lon="-5.004333">
        <ele>1716.0</ele>
        <time>2013-07-06T14:43:55Z</time>
      </trkpt>
      <trkpt lat="40.036967" lon="-5.004317">
        <ele>1716.0</ele>
        <time>2013-07-06T14:43:56Z</time>
      </trkpt>
      <trkpt lat="40.036900" lon="-5.004300">
        <ele>1715.0</ele>
        <time>2013-07-06T14:43:57Z</time>
      </trkpt>
      <trkpt lat="40.036833" lon="-5.004283">
        <ele>1714.0</ele>
        <time>2013-07-06T14:43:58Z</time>
      </trkpt>
      <trkpt lat="40.036767" lon="-5.004267">
        <ele>1714.0</ele>
        <time>2013-07-06T14:43:59Z</time>
      </trkpt>
      <trkpt lat="40.036717" lon="-5.004267">
        <ele>1715.0</ele>
        <time>2013-07-06T14:44:00Z</time>
      </trkpt>
      <trkpt lat="40.036667" lon="-5.004250">
        <ele>1715.0</ele>
        <time>2013-07-06T14:44:01Z</time>
      </trkpt>
      <trkpt lat="40.036600" lon="-5.004217">
        <ele>1715.0</ele>
        <time>2013-07-06T14:44:02Z</time>
      </trkpt>
      <trkpt lat="40.036550" lon="-5.004183">
        <ele>1715.0</ele>
        <time>2013-07-06T14:44:03Z</time>
      </trkpt>
      <trkpt lat="40.036483" lon="-5.004150">
        <ele>1715.0</ele>
        <time>2013-07-06T14:44:04Z</time>
      </trkpt>
      <trkpt lat="40.036450" lon="-5.004117">
        <ele>1716.0</ele>
        <time>2013-07-06T14:44:05Z</time>
      </trkpt>
      <trkpt lat="40.036417" lon="-5.004067">
        <ele>1718.0</ele>
        <time>2013-07-06T14:44:06Z</time>
      </trkpt>
      <trkpt lat="40.036383" lon="-5.004033">
        <ele>1719.0</ele>
        <time>2013-07-06T14:44:07Z</time>
      </trkpt>
      <trkpt lat="40.036350" lon="-5.004000">
        <ele>1720.0</ele>
        <time>2013-07-06T14:44:08Z</time>
      </trkpt>
      <trkpt lat="40.036300" lon="-5.003967">
        <ele>1720.0</ele>
        <time>2013-07-06T14:44:09Z</time>
      </trkpt>
      <trkpt lat="40.036267" lon="-5.003917">
        <ele>1720.0</ele>
        <time>2013-07-06T14:44:10Z</time>
      </trkpt>
      <trkpt lat="40.036217" lon="-5.003867">
        <ele>1721.0</ele>
        <time>2013-07-06T14:44:11Z</time>
      </trkpt>
      <trkpt lat="40.036167" lon="-5.003817">
        <ele>1722.0</ele>
        <time>2013-07-06T14:44:12Z</time>
      </trkpt>
      <trkpt lat="40.036133" lon="-5.003783">
        <ele>1724.0</ele>
        <time>2013-07-06T14:44:13Z</time>
      </trkpt>
      <trkpt lat="40.036117" lon="-5.003750">
        <ele>1726.0</ele>
        <time>2013-07-06T14:44:14Z</time>
      </trkpt>
      <trkpt lat="40.036100" lon="-5.003733">
        <ele>1727.0</ele>
        <time>2013-07-06T14:44:15Z</time>
      </trkpt>
      <trkpt lat="40.036067" lon="-5.003700">
        <ele>1727.0</ele>
        <time>2013-07-06T14:44:16Z</time>
      </trkpt>
      <trkpt lat="40.036033" lon="-5.003667">
        <ele>1728.0</ele>
        <time>2013-07-06T14:44:17Z</time>
      </trkpt>
      <trkpt lat="40.036000" lon="-5.003617">
        <ele>1727.0</ele>
        <time>2013-07-06T14:44:18Z</time>
      </trkpt>
      <trkpt lat="40.035950" lon="-5.003583">
        <ele>1727.0</ele>
        <time>2013-07-06T14:44:19Z</time>
      </trkpt>
      <trkpt lat="40.035917" lon="-5.003550">
        <ele>1728.0</ele>
        <time>2013-07-06T14:44:20Z</time>
      </trkpt>
      <trkpt lat="40.035900" lon="-5.003533">
        <ele>1730.0</ele>
        <time>2013-07-06T14:44:21Z</time>
      </trkpt>
      <trkpt lat="40.035850" lon="-5.003533">
        <ele>1731.0</ele>
        <time>2013-07-06T14:44:22Z</time>
      </trkpt>
      <trkpt lat="40.035817" lon="-5.003517">
        <ele>1731.0</ele>
        <time>2013-07-06T14:44:23Z</time>
      </trkpt>
      <trkpt lat="40.035783" lon="-5.003517">
        <ele>1731.0</ele>
        <time>2013-07-06T14:44:24Z</time>
      </trkpt>
      <trkpt lat="40.035750" lon="-5.003500">
        <ele>1731.0</ele>
        <time>2013-07-06T14:44:25Z</time>
      </trkpt>
      <trkpt lat="40.035717" lon="-5.003483">
        <ele>1730.0</ele>
        <time>2013-07-06T14:44:26Z</time>
      </trkpt>
      <trkpt lat="40.035667" lon="-5.003483">
        <ele>1730.0</ele>
        <time>2013-07-06T14:44:27Z</time>
      </trkpt>
      <trkpt lat="40.035617" lon="-5.003500">
        <ele>1730.0</ele>
        <time>2013-07-06T14:44:28Z</time>
      </trkpt>
      <trkpt lat="40.035567" lon="-5.003533">
        <ele>1730.0</ele>
        <time>2013-07-06T14:44:29Z</time>
      </trkpt>
      <trkpt lat="40.035500" lon="-5.003600">
        <ele>1730.0</ele>
        <time>2013-07-06T14:44:30Z</time>
      </trkpt>
      <trkpt lat="40.035450" lon="-5.003667">
        <ele>1730.0</ele>
        <time>2013-07-06T14:44:31Z</time>
      </trkpt>
      <trkpt lat="40.035383" lon="-5.003717">
        <ele>1730.0</ele>
        <time>2013-07-06T14:44:32Z</time>
      </trkpt>
      <trkpt lat="40.035333" lon="-5.003750">
        <ele>1731.0</ele>
        <time>2013-07-06T14:44:33Z</time>
      </trkpt>
      <trkpt lat="40.035300" lon="-5.003767">
        <ele>1732.0</ele>
        <time>2013-07-06T14:44:34Z</time>
      </trkpt>
      <trkpt lat="40.035250" lon="-5.003800">
        <ele>1732.0</ele>
        <time>2013-07-06T14:44:35Z</time>
      </trkpt>
      <trkpt lat="40.035200" lon="-5.003817">
        <ele>1732.0</ele>
        <time>2013-07-06T14:44:36Z</time>
      </trkpt>
      <trkpt lat="40.035133" lon="-5.003817">
        <ele>1731.0</ele>
        <time>2013-07-06T14:44:37Z</time>
      </trkpt>
      <trkpt lat="40.035067" lon="-5.003833">
        <ele>1731.0</ele>
        <time>2013-07-06T14:44:38Z</time>
      </trkpt>
      <trkpt lat="40.035017" lon="-5.003833">
        <ele>1733.0</ele>
        <time>2013-07-06T14:44:39Z</time>
      </trkpt>
      <trkpt lat="40.034983" lon="-5.003833">
        <ele>1734.0</ele>
        <time>2013-07-06T14:44:40Z</time>
      </trkpt>
      <trkpt lat="40.034967" lon="-5.003833">
        <ele>1735.0</ele>
        <time>2013-07-06T14:44:41Z</time>
      </trkpt>
      <trkpt lat="40.034933" lon="-5.003800">
        <ele>1734.0</ele>
        <time>2013-07-06T14:44:42Z</time>
      </trkpt>
      <trkpt lat="40.034883" lon="-5.003767">
        <ele>1733.0</ele>
        <time>2013-07-06T14:44:43Z</time>
      </trkpt>
      <trkpt lat="40.034850" lon="-5.003733">
        <ele>1732.0</ele>
        <time>2013-07-06T14:44:44Z</time>
      </trkpt>
      <trkpt lat="40.034817" lon="-5.003717">
        <ele>1732.0</ele>
        <time>2013-07-06T14:44:45Z</time>
      </trkpt>
      <trkpt lat="40.034800" lon="-5.003700">
        <ele>1732.0</ele>
        <time>2013-07-06T14:44:46Z</time>
      </trkpt>
      <trkpt lat="40.034767" lon="-5.003683">
        <ele>1731.0</ele>
        <time>2013-07-06T14:44:47Z</time>
      </trkpt>
      <trkpt lat="40.034733" lon="-5.003650">
        <ele>1730.0</ele>
        <time>2013-07-06T14:44:48Z</time>
      </trkpt>
      <trkpt lat="40.034700" lon="-5.003600">
        <ele>1730.0</ele>
        <time>2013-07-06T14:44:49Z</time>
      </trkpt>
      <trkpt lat="40.034667" lon="-5.003567">
        <ele>1730.0</ele>
        <time>2013-07-06T14:44:50Z</time>
      </trkpt>
      <trkpt lat="40.034667" lon="-5.003550">
        <ele>1730.0</ele>
        <time>2013-07-06T14:44:51Z</time>
      </trkpt>
      <trkpt lat="40.034650" lon="-5.003517">
        <ele>1731.0</ele>
        <time>2013-07-06T14:44:52Z</time>
      </trkpt>
      <trkpt lat="40.034633" lon="-5.003483">
        <ele>1731.0</ele>
        <time>2013-07-06T14:44:53Z</time>
      </trkpt>
      <trkpt lat="40.034633" lon="-5.003433">
        <ele>1731.0</ele>
        <time>2013-07-06T14:44:54Z</time>
      </trkpt>
      <trkpt lat="40.034633" lon="-5.003367">
        <ele>1731.0</ele>
        <time>2013-07-06T14:44:55Z</time>
      </trkpt>
      <trkpt lat="40.034650" lon="-5.003317">
        <ele>1731.0</ele>
        <time>2013-07-06T14:44:56Z</time>
      </trkpt>
      <trkpt lat="40.034667" lon="-5.003250">
        <ele>1731.0</ele>
        <time>2013-07-06T14:44:57Z</time>
      </trkpt>
      <trkpt lat="40.034700" lon="-5.003200">
        <ele>1731.0</ele>
        <time>2013-07-06T14:44:58Z</time>
      </trkpt>
      <trkpt lat="40.034717" lon="-5.003150">
        <ele>1731.0</ele>
        <time>2013-07-06T14:44:59Z</time>
      </trkpt>
      <trkpt lat="40.034750" lon="-5.003100">
        <ele>1730.0</ele>
        <time>2013-07-06T14:45:00Z</time>
      </trkpt>
      <trkpt lat="40.034800" lon="-5.003050">
        <ele>1729.0</ele>
        <time>2013-07-06T14:45:01Z</time>
      </trkpt>
      <trkpt lat="40.034867" lon="-5.003000">
        <ele>1726.0</ele>
        <time>2013-07-06T14:45:02Z</time>
      </trkpt>
      <trkpt lat="40.034950" lon="-5.002950">
        <ele>1724.0</ele>
        <time>2013-07-06T14:45:03Z</time>
      </trkpt>
      <trkpt lat="40.035033" lon="-5.002933">
        <ele>1721.0</ele>
        <time>2013-07-06T14:45:04Z</time>
      </trkpt>
      <trkpt lat="40.035100" lon="-5.002883">
        <ele>1720.0</ele>
        <time>2013-07-06T14:45:05Z</time>
      </trkpt>
      <trkpt lat="40.035167" lon="-5.002833">
        <ele>1719.0</ele>
        <time>2013-07-06T14:45:06Z</time>
      </trkpt>
      <trkpt lat="40.035183" lon="-5.002767">
        <ele>1717.0</ele>
        <time>2013-07-06T14:45:07Z</time>
      </trkpt>
      <trkpt lat="40.035167" lon="-5.002700">
        <ele>1715.0</ele>
        <time>2013-07-06T14:45:08Z</time>
      </trkpt>
      <trkpt lat="40.035133" lon="-5.002667">
        <ele>1712.0</ele>
        <time>2013-07-06T14:45:09Z</time>
      </trkpt>
      <trkpt lat="40.035067" lon="-5.002667">
        <ele>1711.0</ele>
        <time>2013-07-06T14:45:10Z</time>
      </trkpt>
      <trkpt lat="40.035000" lon="-5.002700">
        <ele>1709.0</ele>
        <time>2013-07-06T14:45:11Z</time>
      </trkpt>
      <trkpt lat="40.034950" lon="-5.002767">
        <ele>1707.0</ele>
        <time>2013-07-06T14:45:12Z</time>
      </trkpt>
      <trkpt lat="40.034883" lon="-5.002850">
        <ele>1706.0</ele>
        <time>2013-07-06T14:45:13Z</time>
      </trkpt>
      <trkpt lat="40.034833" lon="-5.002950">
        <ele>1704.0</ele>
        <time>2013-07-06T14:45:14Z</time>
      </trkpt>
      <trkpt lat="40.034783" lon="-5.003050">
        <ele>1702.0</ele>
        <time>2013-07-06T14:45:15Z</time>
      </trkpt>
      <trkpt lat="40.034733" lon="-5.003167">
        <ele>1701.0</ele>
        <time>2013-07-06T14:45:16Z</time>
      </trkpt>
      <trkpt lat="40.034683" lon="-5.003283">
        <ele>1699.0</ele>
        <time>2013-07-06T14:45:17Z</time>
      </trkpt>
      <trkpt lat="40.034650" lon="-5.003400">
        <ele>1699.0</ele>
        <time>2013-07-06T14:45:18Z</time>
      </trkpt>
      <trkpt lat="40.034617" lon="-5.003533">
        <ele>1699.0</ele>
        <time>2013-07-06T14:45:19Z</time>
      </trkpt>
      <trkpt lat="40.034583" lon="-5.003683">
        <ele>1697.0</ele>
        <time>2013-07-06T14:45:20Z</time>
      </trkpt>
      <trkpt lat="40.034567" lon="-5.003833">
        <ele>1697.0</ele>
        <time>2013-07-06T14:45:21Z</time>
      </trkpt>
      <trkpt lat="40.034533" lon="-5.004000">
        <ele>1697.0</ele>
        <time>2013-07-06T14:45:22Z</time>
      </trkpt>
      <trkpt lat="40.034533" lon="-5.004150">
        <ele>1696.0</ele>
        <time>2013-07-06T14:45:23Z</time>
      </trkpt>
      <trkpt lat="40.034533" lon="-5.004317">
        <ele>1696.0</ele>
        <time>2013-07-06T14:45:24Z</time>
      </trkpt>
      <trkpt lat="40.034550" lon="-5.004483">
        <ele>1697.0</ele>
        <time>2013-07-06T14:45:25Z</time>
      </trkpt>
      <trkpt lat="40.034567" lon="-5.004633">
        <ele>1699.0</ele>
        <time>2013-07-06T14:45:26Z</time>
      </trkpt>
      <trkpt lat="40.034600" lon="-5.004783">
        <ele>1700.0</ele>
        <time>2013-07-06T14:45:27Z</time>
      </trkpt>
      <trkpt lat="40.034667" lon="-5.004917">
        <ele>1702.0</ele>
        <time>2013-07-06T14:45:28Z</time>
      </trkpt>
      <trkpt lat="40.034717" lon="-5.005050">
        <ele>1703.0</ele>
        <time>2013-07-06T14:45:29Z</time>
      </trkpt>
      <trkpt lat="40.034817" lon="-5.005183">
        <ele>1704.0</ele>
        <time>2013-07-06T14:45:30Z</time>
      </trkpt>
      <trkpt lat="40.034900" lon="-5.005283">
        <ele>1705.0</ele>
        <time>2013-07-06T14:45:31Z</time>
      </trkpt>
      <trkpt lat="40.035017" lon="-5.005350">
        <ele>1706.0</ele>
        <time>2013-07-06T14:45:32Z</time>
      </trkpt>
      <trkpt lat="40.035117" lon="-5.005400">
        <ele>1708.0</ele>
        <time>2013-07-06T14:45:33Z</time>
      </trkpt>
      <trkpt lat="40.035217" lon="-5.005417">
        <ele>1709.0</ele>
        <time>2013-07-06T14:45:34Z</time>
      </trkpt>
      <trkpt lat="40.035300" lon="-5.005417">
        <ele>1710.0</ele>
        <time>2013-07-06T14:45:35Z</time>
      </trkpt>
      <trkpt lat="40.035367" lon="-5.005400">
        <ele>1711.0</ele>
        <time>2013-07-06T14:45:36Z</time>
      </trkpt>
      <trkpt lat="40.035433" lon="-5.005333">
        <ele>1711.0</ele>
        <time>2013-07-06T14:45:37Z</time>
      </trkpt>
      <trkpt lat="40.035467" lon="-5.005283">
        <ele>1711.0</ele>
        <time>2013-07-06T14:45:38Z</time>
      </trkpt>
      <trkpt lat="40.035500" lon="-5.005250">
        <ele>1712.0</ele>
        <time>2013-07-06T14:45:39Z</time>
      </trkpt>
      <trkpt lat="40.035517" lon="-5.005217">
        <ele>1712.0</ele>
        <time>2013-07-06T14:45:40Z</time>
      </trkpt>
      <trkpt lat="40.035500" lon="-5.005167">
        <ele>1712.0</ele>
        <time>2013-07-06T14:45:41Z</time>
      </trkpt>
      <trkpt lat="40.035467" lon="-5.005133">
        <ele>1712.0</ele>
        <time>2013-07-06T14:45:42Z</time>
      </trkpt>
      <trkpt lat="40.035450" lon="-5.005100">
        <ele>1712.0</ele>
        <time>2013-07-06T14:45:43Z</time>
      </trkpt>
      <trkpt lat="40.035400" lon="-5.005083">
        <ele>1712.0</ele>
        <time>2013-07-06T14:45:44Z</time>
      </trkpt>
      <trkpt lat="40.035367" lon="-5.005083">
        <ele>1712.0</ele>
        <time>2013-07-06T14:45:45Z</time>
      </trkpt>
      <trkpt lat="40.035333" lon="-5.005100">
        <ele>1712.0</ele>
        <time>2013-07-06T14:45:46Z</time>
      </trkpt>
      <trkpt lat="40.035300" lon="-5.005117">
        <ele>1713.0</ele>
        <time>2013-07-06T14:45:47Z</time>
      </trkpt>
      <trkpt lat="40.035233" lon="-5.005133">
        <ele>1712.0</ele>
        <time>2013-07-06T14:45:48Z</time>
      </trkpt>
      <trkpt lat="40.035183" lon="-5.005167">
        <ele>1712.0</ele>
        <time>2013-07-06T14:45:49Z</time>
      </trkpt>
      <trkpt lat="40.035117" lon="-5.005217">
        <ele>1710.0</ele>
        <time>2013-07-06T14:45:50Z</time>
      </trkpt>
      <trkpt lat="40.035033" lon="-5.005283">
        <ele>1709.0</ele>
        <time>2013-07-06T14:45:51Z</time>
      </trkpt>
      <trkpt lat="40.034983" lon="-5.005383">
        <ele>1709.0</ele>
        <time>2013-07-06T14:45:52Z</time>
      </trkpt>
      <trkpt lat="40.034933" lon="-5.005500">
        <ele>1710.0</ele>
        <time>2013-07-06T14:45:53Z</time>
      </trkpt>
      <trkpt lat="40.034917" lon="-5.005633">
        <ele>1710.0</ele>
        <time>2013-07-06T14:45:54Z</time>
      </trkpt>
      <trkpt lat="40.034883" lon="-5.005750">
        <ele>1710.0</ele>
        <time>2013-07-06T14:45:55Z</time>
      </trkpt>
      <trkpt lat="40.034867" lon="-5.005900">
        <ele>1711.0</ele>
        <time>2013-07-06T14:45:56Z</time>
      </trkpt>
      <trkpt lat="40.034850" lon="-5.006067">
        <ele>1712.0</ele>
        <time>2013-07-06T14:45:57Z</time>
      </trkpt>
      <trkpt lat="40.034850" lon="-5.006217">
        <ele>1713.0</ele>
        <time>2013-07-06T14:45:58Z</time>
      </trkpt>
      <trkpt lat="40.034883" lon="-5.006383">
        <ele>1715.0</ele>
        <time>2013-07-06T14:45:59Z</time>
      </trkpt>
      <trkpt lat="40.034917" lon="-5.006533">
        <ele>1716.0</ele>
        <time>2013-07-06T14:46:00Z</time>
      </trkpt>
      <trkpt lat="40.034967" lon="-5.006683">
        <ele>1719.0</ele>
        <time>2013-07-06T14:46:01Z</time>
      </trkpt>
      <trkpt lat="40.035033" lon="-5.006817">
        <ele>1721.0</ele>
        <time>2013-07-06T14:46:02Z</time>
      </trkpt>
      <trkpt lat="40.035100" lon="-5.006933">
        <ele>1723.0</ele>
        <time>2013-07-06T14:46:03Z</time>
      </trkpt>
      <trkpt lat="40.035183" lon="-5.007050">
        <ele>1724.0</ele>
        <time>2013-07-06T14:46:04Z</time>
      </trkpt>
      <trkpt lat="40.035283" lon="-5.007150">
        <ele>1726.0</ele>
        <time>2013-07-06T14:46:05Z</time>
      </trkpt>
      <trkpt lat="40.035383" lon="-5.007217">
        <ele>1728.0</ele>
        <time>2013-07-06T14:46:06Z</time>
      </trkpt>
      <trkpt lat="40.035467" lon="-5.007267">
        <ele>1730.0</ele>
        <time>2013-07-06T14:46:07Z</time>
      </trkpt>
      <trkpt lat="40.035550" lon="-5.007267">
        <ele>1731.0</ele>
        <time>2013-07-06T14:46:08Z</time>
      </trkpt>
      <trkpt lat="40.035617" lon="-5.007267">
        <ele>1732.0</ele>
        <time>2013-07-06T14:46:09Z</time>
      </trkpt>
      <trkpt lat="40.035683" lon="-5.007233">
        <ele>1734.0</ele>
        <time>2013-07-06T14:46:10Z</time>
      </trkpt>
      <trkpt lat="40.035733" lon="-5.007200">
        <ele>1735.0</ele>
        <time>2013-07-06T14:46:11Z</time>
      </trkpt>
      <trkpt lat="40.035750" lon="-5.007150">
        <ele>1736.0</ele>
        <time>2013-07-06T14:46:12Z</time>
      </trkpt>
      <trkpt lat="40.035750" lon="-5.007117">
        <ele>1736.0</ele>
        <time>2013-07-06T14:46:13Z</time>
      </trkpt>
      <trkpt lat="40.035750" lon="-5.007083">
        <ele>1735.0</ele>
        <time>2013-07-06T14:46:14Z</time>
      </trkpt>
      <trkpt lat="40.035717" lon="-5.007067">
        <ele>1735.0</ele>
        <time>2013-07-06T14:46:15Z</time>
      </trkpt>
      <trkpt lat="40.035667" lon="-5.007050">
        <ele>1735.0</ele>
        <time>2013-07-06T14:46:16Z</time>
      </trkpt>
      <trkpt lat="40.035617" lon="-5.007083">
        <ele>1736.0</ele>
        <time>2013-07-06T14:46:17Z</time>
      </trkpt>
      <trkpt lat="40.035550" lon="-5.007117">
        <ele>1735.0</ele>
        <time>2013-07-06T14:46:18Z</time>
      </trkpt>
      <trkpt lat="40.035483" lon="-5.007167">
        <ele>1735.0</ele>
        <time>2013-07-06T14:46:19Z</time>
      </trkpt>
      <trkpt lat="40.035417" lon="-5.007233">
        <ele>1736.0</ele>
        <time>2013-07-06T14:46:20Z</time>
      </trkpt>
      <trkpt lat="40.035367" lon="-5.007333">
        <ele>1738.0</ele>
        <time>2013-07-06T14:46:21Z</time>
      </trkpt>
      <trkpt lat="40.035333" lon="-5.007450">
        <ele>1740.0</ele>
        <time>2013-07-06T14:46:22Z</time>
      </trkpt>
      <trkpt lat="40.035300" lon="-5.007583">
        <ele>1741.0</ele>
        <time>2013-07-06T14:46:23Z</time>
      </trkpt>
      <trkpt lat="40.035283" lon="-5.007717">
        <ele>1742.0</ele>
        <time>2013-07-06T14:46:24Z</time>
      </trkpt>
      <trkpt lat="40.035283" lon="-5.007867">
        <ele>1743.0</ele>
        <time>2013-07-06T14:46:25Z</time>
      </trkpt>
      <trkpt lat="40.035283" lon="-5.008033">
        <ele>1744.0</ele>
        <time>2013-07-06T14:46:26Z</time>
      </trkpt>
      <trkpt lat="40.035300" lon="-5.008200">
        <ele>1745.0</ele>
        <time>2013-07-06T14:46:27Z</time>
      </trkpt>
      <trkpt lat="40.035367" lon="-5.008350">
        <ele>1746.0</ele>
        <time>2013-07-06T14:46:28Z</time>
      </trkpt>
      <trkpt lat="40.035433" lon="-5.008500">
        <ele>1748.0</ele>
        <time>2013-07-06T14:46:29Z</time>
      </trkpt>
      <trkpt lat="40.035500" lon="-5.008633">
        <ele>1750.0</ele>
        <time>2013-07-06T14:46:30Z</time>
      </trkpt>
      <trkpt lat="40.035567" lon="-5.008750">
        <ele>1752.0</ele>
        <time>2013-07-06T14:46:31Z</time>
      </trkpt>
      <trkpt lat="40.035650" lon="-5.008883">
        <ele>1754.0</ele>
        <time>2013-07-06T14:46:32Z</time>
      </trkpt>
      <trkpt lat="40.035733" lon="-5.009017">
        <ele>1755.0</ele>
        <time>2013-07-06T14:46:33Z</time>
      </trkpt>
      <trkpt lat="40.035817" lon="-5.009133">
        <ele>1756.0</ele>
        <time>2013-07-06T14:46:34Z</time>
      </trkpt>
      <trkpt lat="40.035917" lon="-5.009233">
        <ele>1758.0</ele>
        <time>2013-07-06T14:46:35Z</time>
      </trkpt>
      <trkpt lat="40.036000" lon="-5.009333">
        <ele>1760.0</ele>
        <time>2013-07-06T14:46:36Z</time>
      </trkpt>
      <trkpt lat="40.036183" lon="-5.009483">
        <ele>1762.0</ele>
        <time>2013-07-06T14:46:38Z</time>
      </trkpt>
      <trkpt lat="40.036283" lon="-5.009517">
        <ele>1761.0</ele>
        <time>2013-07-06T14:46:39Z</time>
      </trkpt>
      <trkpt lat="40.036400" lon="-5.009533">
        <ele>1762.0</ele>
        <time>2013-07-06T14:46:40Z</time>
      </trkpt>
      <trkpt lat="40.036483" lon="-5.009500">
        <ele>1763.0</ele>
        <time>2013-07-06T14:46:41Z</time>
      </trkpt>
      <trkpt lat="40.036550" lon="-5.009467">
        <ele>1764.0</ele>
        <time>2013-07-06T14:46:42Z</time>
      </trkpt>
      <trkpt lat="40.036583" lon="-5.009417">
        <ele>1766.0</ele>
        <time>2013-07-06T14:46:43Z</time>
      </trkpt>
      <trkpt lat="40.036600" lon="-5.009383">
        <ele>1767.0</ele>
        <time>2013-07-06T14:46:44Z</time>
      </trkpt>
      <trkpt lat="40.036583" lon="-5.009300">
        <ele>1768.0</ele>
        <time>2013-07-06T14:46:46Z</time>
      </trkpt>
      <trkpt lat="40.036550" lon="-5.009267">
        <ele>1768.0</ele>
        <time>2013-07-06T14:46:47Z</time>
      </trkpt>
      <trkpt lat="40.036500" lon="-5.009267">
        <ele>1769.0</ele>
        <time>2013-07-06T14:46:48Z</time>
      </trkpt>
      <trkpt lat="40.036433" lon="-5.009300">
        <ele>1770.0</ele>
        <time>2013-07-06T14:46:49Z</time>
      </trkpt>
      <trkpt lat="40.036383" lon="-5.009367">
        <ele>1771.0</ele>
        <time>2013-07-06T14:46:50Z</time>
      </trkpt>
      <trkpt lat="40.036333" lon="-5.009467">
        <ele>1772.0</ele>
        <time>2013-07-06T14:46:51Z</time>
      </trkpt>
      <trkpt lat="40.036283" lon="-5.009583">
        <ele>1773.0</ele>
        <time>2013-07-06T14:46:52Z</time>
      </trkpt>
      <trkpt lat="40.036267" lon="-5.009733">
        <ele>1774.0</ele>
        <time>2013-07-06T14:46:53Z</time>
      </trkpt>
      <trkpt lat="40.036250" lon="-5.009867">
        <ele>1775.0</ele>
        <time>2013-07-06T14:46:54Z</time>
      </trkpt>
      <trkpt lat="40.036250" lon="-5.010017">
        <ele>1776.0</ele>
        <time>2013-07-06T14:46:55Z</time>
      </trkpt>
      <trkpt lat="40.036283" lon="-5.010167">
        <ele>1777.0</ele>
        <time>2013-07-06T14:46:56Z</time>
      </trkpt>
      <trkpt lat="40.036333" lon="-5.010317">
        <ele>1779.0</ele>
        <time>2013-07-06T14:46:57Z</time>
      </trkpt>
      <trkpt lat="40.036400" lon="-5.010467">
        <ele>1778.0</ele>
        <time>2013-07-06T14:46:58Z</time>
      </trkpt>
      <trkpt lat="40.036467" lon="-5.010600">
        <ele>1779.0</ele>
        <time>2013-07-06T14:46:59Z</time>
      </trkpt>
      <trkpt lat="40.036550" lon="-5.010733">
        <ele>1780.0</ele>
        <time>2013-07-06T14:47:00Z</time>
      </trkpt>
      <trkpt lat="40.036633" lon="-5.010850">
        <ele>1781.0</ele>
        <time>2013-07-06T14:47:01Z</time>
      </trkpt>
      <trkpt lat="40.036733" lon="-5.010950">
        <ele>1783.0</ele>
        <time>2013-07-06T14:47:02Z</time>
      </trkpt>
      <trkpt lat="40.036817" lon="-5.011050">
        <ele>1784.0</ele>
        <time>2013-07-06T14:47:03Z</time>
      </trkpt>
      <trkpt lat="40.036900" lon="-5.011133">
        <ele>1785.0</ele>
        <time>2013-07-06T14:47:04Z</time>
      </trkpt>
      <trkpt lat="40.037000" lon="-5.011217">
        <ele>1786.0</ele>
        <time>2013-07-06T14:47:05Z</time>
      </trkpt>
      <trkpt lat="40.037083" lon="-5.011283">
        <ele>1787.0</ele>
        <time>2013-07-06T14:47:06Z</time>
      </trkpt>
      <trkpt lat="40.037167" lon="-5.011333">
        <ele>1787.0</ele>
        <time>2013-07-06T14:47:07Z</time>
      </trkpt>
      <trkpt lat="40.037267" lon="-5.011383">
        <ele>1786.0</ele>
        <time>2013-07-06T14:47:08Z</time>
      </trkpt>
      <trkpt lat="40.037367" lon="-5.011400">
        <ele>1786.0</ele>
        <time>2013-07-06T14:47:09Z</time>
      </trkpt>
      <trkpt lat="40.037467" lon="-5.011417">
        <ele>1786.0</ele>
        <time>2013-07-06T14:47:10Z</time>
      </trkpt>
      <trkpt lat="40.037550" lon="-5.011417">
        <ele>1787.0</ele>
        <time>2013-07-06T14:47:11Z</time>
      </trkpt>
      <trkpt lat="40.037733" lon="-5.011400">
        <ele>1789.0</ele>
        <time>2013-07-06T14:47:13Z</time>
      </trkpt>
      <trkpt lat="40.037900" lon="-5.011400">
        <ele>1789.0</ele>
        <time>2013-07-06T14:47:15Z</time>
      </trkpt>
      <trkpt lat="40.037983" lon="-5.011383">
        <ele>1789.0</ele>
        <time>2013-07-06T14:47:16Z</time>
      </trkpt>
      <trkpt lat="40.038083" lon="-5.011350">
        <ele>1789.0</ele>
        <time>2013-07-06T14:47:17Z</time>
      </trkpt>
      <trkpt lat="40.038167" lon="-5.011317">
        <ele>1789.0</ele>
        <time>2013-07-06T14:47:18Z</time>
      </trkpt>
      <trkpt lat="40.038250" lon="-5.011300">
        <ele>1789.0</ele>
        <time>2013-07-06T14:47:19Z</time>
      </trkpt>
      <trkpt lat="40.038333" lon="-5.011267">
        <ele>1790.0</ele>
        <time>2013-07-06T14:47:20Z</time>
      </trkpt>
      <trkpt lat="40.038417" lon="-5.011233">
        <ele>1790.0</ele>
        <time>2013-07-06T14:47:21Z</time>
      </trkpt>
      <trkpt lat="40.038500" lon="-5.011217">
        <ele>1790.0</ele>
        <time>2013-07-06T14:47:22Z</time>
      </trkpt>
      <trkpt lat="40.038567" lon="-5.011167">
        <ele>1789.0</ele>
        <time>2013-07-06T14:47:23Z</time>
      </trkpt>
      <trkpt lat="40.038650" lon="-5.011117">
        <ele>1789.0</ele>
        <time>2013-07-06T14:47:24Z</time>
      </trkpt>
      <trkpt lat="40.038733" lon="-5.011083">
        <ele>1789.0</ele>
        <time>2013-07-06T14:47:25Z</time>
      </trkpt>
      <trkpt lat="40.038817" lon="-5.011050">
        <ele>1789.0</ele>
        <time>2013-07-06T14:47:26Z</time>
      </trkpt>
      <trkpt lat="40.038900" lon="-5.011033">
        <ele>1790.0</ele>
        <time>2013-07-06T14:47:27Z</time>
      </trkpt>
      <trkpt lat="40.038983" lon="-5.011000">
        <ele>1790.0</ele>
        <time>2013-07-06T14:47:28Z</time>
      </trkpt>
      <trkpt lat="40.039050" lon="-5.010983">
        <ele>1790.0</ele>
        <time>2013-07-06T14:47:29Z</time>
      </trkpt>
      <trkpt lat="40.039133" lon="-5.010950">
        <ele>1789.0</ele>
        <time>2013-07-06T14:47:30Z</time>
      </trkpt>
      <trkpt lat="40.039233" lon="-5.010900">
        <ele>1787.0</ele>
        <time>2013-07-06T14:47:31Z</time>
      </trkpt>
      <trkpt lat="40.039317" lon="-5.010850">
        <ele>1786.0</ele>
        <time>2013-07-06T14:47:32Z</time>
      </trkpt>
      <trkpt lat="40.039383" lon="-5.010817">
        <ele>1785.0</ele>
        <time>2013-07-06T14:47:33Z</time>
      </trkpt>
      <trkpt lat="40.039467" lon="-5.010800">
        <ele>1784.0</ele>
        <time>2013-07-06T14:47:34Z</time>
      </trkpt>
      <trkpt lat="40.039533" lon="-5.010783">
        <ele>1783.0</ele>
        <time>2013-07-06T14:47:35Z</time>
      </trkpt>
      <trkpt lat="40.039617" lon="-5.010767">
        <ele>1781.0</ele>
        <time>2013-07-06T14:47:36Z</time>
      </trkpt>
      <trkpt lat="40.039700" lon="-5.010733">
        <ele>1779.0</ele>
        <time>2013-07-06T14:47:37Z</time>
      </trkpt>
      <trkpt lat="40.039783" lon="-5.010683">
        <ele>1777.0</ele>
        <time>2013-07-06T14:47:38Z</time>
      </trkpt>
      <trkpt lat="40.039867" lon="-5.010650">
        <ele>1775.0</ele>
        <time>2013-07-06T14:47:39Z</time>
      </trkpt>
      <trkpt lat="40.039950" lon="-5.010633">
        <ele>1774.0</ele>
        <time>2013-07-06T14:47:40Z</time>
      </trkpt>
      <trkpt lat="40.040033" lon="-5.010600">
        <ele>1773.0</ele>
        <time>2013-07-06T14:47:41Z</time>
      </trkpt>
      <trkpt lat="40.040117" lon="-5.010583">
        <ele>1771.0</ele>
        <time>2013-07-06T14:47:42Z</time>
      </trkpt>
      <trkpt lat="40.040300" lon="-5.010550">
        <ele>1766.0</ele>
        <time>2013-07-06T14:47:44Z</time>
      </trkpt>
      <trkpt lat="40.040400" lon="-5.010550">
        <ele>1764.0</ele>
        <time>2013-07-06T14:47:45Z</time>
      </trkpt>
      <trkpt lat="40.040500" lon="-5.010533">
        <ele>1762.0</ele>
        <time>2013-07-06T14:47:46Z</time>
      </trkpt>
      <trkpt lat="40.040583" lon="-5.010517">
        <ele>1760.0</ele>
        <time>2013-07-06T14:47:47Z</time>
      </trkpt>
      <trkpt lat="40.040750" lon="-5.010483">
        <ele>1756.0</ele>
        <time>2013-07-06T14:47:49Z</time>
      </trkpt>
      <trkpt lat="40.040850" lon="-5.010467">
        <ele>1754.0</ele>
        <time>2013-07-06T14:47:50Z</time>
      </trkpt>
      <trkpt lat="40.040950" lon="-5.010467">
        <ele>1752.0</ele>
        <time>2013-07-06T14:47:51Z</time>
      </trkpt>
      <trkpt lat="40.041050" lon="-5.010450">
        <ele>1750.0</ele>
        <time>2013-07-06T14:47:52Z</time>
      </trkpt>
      <trkpt lat="40.041133" lon="-5.010433">
        <ele>1748.0</ele>
        <time>2013-07-06T14:47:53Z</time>
      </trkpt>
      <trkpt lat="40.041217" lon="-5.010433">
        <ele>1747.0</ele>
        <time>2013-07-06T14:47:54Z</time>
      </trkpt>
      <trkpt lat="40.041300" lon="-5.010433">
        <ele>1745.0</ele>
        <time>2013-07-06T14:47:55Z</time>
      </trkpt>
      <trkpt lat="40.041400" lon="-5.010417">
        <ele>1743.0</ele>
        <time>2013-07-06T14:47:56Z</time>
      </trkpt>
      <trkpt lat="40.041500" lon="-5.010400">
        <ele>1740.0</ele>
        <time>2013-07-06T14:47:57Z</time>
      </trkpt>
      <trkpt lat="40.041583" lon="-5.010383">
        <ele>1738.0</ele>
        <time>2013-07-06T14:47:58Z</time>
      </trkpt>
      <trkpt lat="40.041683" lon="-5.010367">
        <ele>1736.0</ele>
        <time>2013-07-06T14:47:59Z</time>
      </trkpt>
      <trkpt lat="40.041783" lon="-5.010350">
        <ele>1734.0</ele>
        <time>2013-07-06T14:48:00Z</time>
      </trkpt>
      <trkpt lat="40.041867" lon="-5.010350">
        <ele>1733.0</ele>
        <time>2013-07-06T14:48:01Z</time>
      </trkpt>
      <trkpt lat="40.041967" lon="-5.010350">
        <ele>1731.0</ele>
        <time>2013-07-06T14:48:02Z</time>
      </trkpt>
      <trkpt lat="40.042050" lon="-5.010350">
        <ele>1729.0</ele>
        <time>2013-07-06T14:48:03Z</time>
      </trkpt>
      <trkpt lat="40.042150" lon="-5.010367">
        <ele>1726.0</ele>
        <time>2013-07-06T14:48:04Z</time>
      </trkpt>
      <trkpt lat="40.042250" lon="-5.010367">
        <ele>1724.0</ele>
        <time>2013-07-06T14:48:05Z</time>
      </trkpt>
      <trkpt lat="40.042350" lon="-5.010383">
        <ele>1722.0</ele>
        <time>2013-07-06T14:48:06Z</time>
      </trkpt>
      <trkpt lat="40.042533" lon="-5.010367">
        <ele>1717.0</ele>
        <time>2013-07-06T14:48:08Z</time>
      </trkpt>
      <trkpt lat="40.042633" lon="-5.010367">
        <ele>1714.0</ele>
        <time>2013-07-06T14:48:09Z</time>
      </trkpt>
      <trkpt lat="40.042750" lon="-5.010367">
        <ele>1712.0</ele>
        <time>2013-07-06T14:48:10Z</time>
      </trkpt>
      <trkpt lat="40.042850" lon="-5.010367">
        <ele>1710.0</ele>
        <time>2013-07-06T14:48:11Z</time>
      </trkpt>
      <trkpt lat="40.042950" lon="-5.010383">
        <ele>1708.0</ele>
        <time>2013-07-06T14:48:12Z</time>
      </trkpt>
      <trkpt lat="40.043033" lon="-5.010383">
        <ele>1706.0</ele>
        <time>2013-07-06T14:48:13Z</time>
      </trkpt>
      <trkpt lat="40.043133" lon="-5.010383">
        <ele>1704.0</ele>
        <time>2013-07-06T14:48:14Z</time>
      </trkpt>
      <trkpt lat="40.043233" lon="-5.010367">
        <ele>1701.0</ele>
        <time>2013-07-06T14:48:15Z</time>
      </trkpt>
      <trkpt lat="40.043333" lon="-5.010367">
        <ele>1698.0</ele>
        <time>2013-07-06T14:48:16Z</time>
      </trkpt>
      <trkpt lat="40.043433" lon="-5.010367">
        <ele>1695.0</ele>
        <time>2013-07-06T14:48:17Z</time>
      </trkpt>
      <trkpt lat="40.043533" lon="-5.010367">
        <ele>1693.0</ele>
        <time>2013-07-06T14:48:18Z</time>
      </trkpt>
      <trkpt lat="40.043633" lon="-5.010367">
        <ele>1690.0</ele>
        <time>2013-07-06T14:48:19Z</time>
      </trkpt>
      <trkpt lat="40.043733" lon="-5.010367">
        <ele>1687.0</ele>
        <time>2013-07-06T14:48:20Z</time>
      </trkpt>
      <trkpt lat="40.043833" lon="-5.010350">
        <ele>1685.0</ele>
        <time>2013-07-06T14:48:21Z</time>
      </trkpt>
      <trkpt lat="40.043917" lon="-5.010350">
        <ele>1683.0</ele>
        <time>2013-07-06T14:48:22Z</time>
      </trkpt>
      <trkpt lat="40.044017" lon="-5.010333">
        <ele>1681.0</ele>
        <time>2013-07-06T14:48:23Z</time>
      </trkpt>
      <trkpt lat="40.044117" lon="-5.010317">
        <ele>1678.0</ele>
        <time>2013-07-06T14:48:24Z</time>
      </trkpt>
      <trkpt lat="40.044217" lon="-5.010317">
        <ele>1676.0</ele>
        <time>2013-07-06T14:48:25Z</time>
      </trkpt>
      <trkpt lat="40.044333" lon="-5.010317">
        <ele>1673.0</ele>
        <time>2013-07-06T14:48:26Z</time>
      </trkpt>
      <trkpt lat="40.044450" lon="-5.010300">
        <ele>1670.0</ele>
        <time>2013-07-06T14:48:27Z</time>
      </trkpt>
      <trkpt lat="40.044533" lon="-5.010300">
        <ele>1668.0</ele>
        <time>2013-07-06T14:48:28Z</time>
      </trkpt>
      <trkpt lat="40.044633" lon="-5.010283">
        <ele>1666.0</ele>
        <time>2013-07-06T14:48:29Z</time>
      </trkpt>
      <trkpt lat="40.044733" lon="-5.010283">
        <ele>1664.0</ele>
        <time>2013-07-06T14:48:30Z</time>
      </trkpt>
      <trkpt lat="40.044833" lon="-5.010267">
        <ele>1661.0</ele>
        <time>2013-07-06T14:48:31Z</time>
      </trkpt>
      <trkpt lat="40.044950" lon="-5.010250">
        <ele>1657.0</ele>
        <time>2013-07-06T14:48:32Z</time>
      </trkpt>
      <trkpt lat="40.045050" lon="-5.010217">
        <ele>1653.0</ele>
        <time>2013-07-06T14:48:33Z</time>
      </trkpt>
      <trkpt lat="40.045167" lon="-5.010200">
        <ele>1650.0</ele>
        <time>2013-07-06T14:48:34Z</time>
      </trkpt>
      <trkpt lat="40.045267" lon="-5.010183">
        <ele>1648.0</ele>
        <time>2013-07-06T14:48:35Z</time>
      </trkpt>
      <trkpt lat="40.045350" lon="-5.010167">
        <ele>1647.0</ele>
        <time>2013-07-06T14:48:36Z</time>
      </trkpt>
      <trkpt lat="40.045450" lon="-5.010167">
        <ele>1645.0</ele>
        <time>2013-07-06T14:48:37Z</time>
      </trkpt>
      <trkpt lat="40.045533" lon="-5.010150">
        <ele>1644.0</ele>
        <time>2013-07-06T14:48:38Z</time>
      </trkpt>
      <trkpt lat="40.045633" lon="-5.010150">
        <ele>1642.0</ele>
        <time>2013-07-06T14:48:39Z</time>
      </trkpt>
      <trkpt lat="40.045733" lon="-5.010133">
        <ele>1640.0</ele>
        <time>2013-07-06T14:48:40Z</time>
      </trkpt>
      <trkpt lat="40.045817" lon="-5.010133">
        <ele>1638.0</ele>
        <time>2013-07-06T14:48:41Z</time>
      </trkpt>
      <trkpt lat="40.045917" lon="-5.010133">
        <ele>1636.0</ele>
        <time>2013-07-06T14:48:42Z</time>
      </trkpt>
      <trkpt lat="40.046017" lon="-5.010150">
        <ele>1635.0</ele>
        <time>2013-07-06T14:48:43Z</time>
      </trkpt>
      <trkpt lat="40.046117" lon="-5.010167">
        <ele>1633.0</ele>
        <time>2013-07-06T14:48:44Z</time>
      </trkpt>
      <trkpt lat="40.046217" lon="-5.010167">
        <ele>1631.0</ele>
        <time>2013-07-06T14:48:45Z</time>
      </trkpt>
      <trkpt lat="40.046300" lon="-5.010183">
        <ele>1630.0</ele>
        <time>2013-07-06T14:48:46Z</time>
      </trkpt>
      <trkpt lat="40.046400" lon="-5.010200">
        <ele>1629.0</ele>
        <time>2013-07-06T14:48:47Z</time>
      </trkpt>
      <trkpt lat="40.046483" lon="-5.010217">
        <ele>1628.0</ele>
        <time>2013-07-06T14:48:48Z</time>
      </trkpt>
      <trkpt lat="40.046583" lon="-5.010233">
        <ele>1626.0</ele>
        <time>2013-07-06T14:48:49Z</time>
      </trkpt>
      <trkpt lat="40.046683" lon="-5.010233">
        <ele>1623.0</ele>
        <time>2013-07-06T14:48:50Z</time>
      </trkpt>
      <trkpt lat="40.046783" lon="-5.010233">
        <ele>1621.0</ele>
        <time>2013-07-06T14:48:51Z</time>
      </trkpt>
      <trkpt lat="40.046883" lon="-5.010250">
        <ele>1619.0</ele>
        <time>2013-07-06T14:48:52Z</time>
      </trkpt>
      <trkpt lat="40.046983" lon="-5.010250">
        <ele>1617.0</ele>
        <time>2013-07-06T14:48:53Z</time>
      </trkpt>
      <trkpt lat="40.047067" lon="-5.010267">
        <ele>1615.0</ele>
        <time>2013-07-06T14:48:54Z</time>
      </trkpt>
      <trkpt lat="40.047167" lon="-5.010267">
        <ele>1613.0</ele>
        <time>2013-07-06T14:48:55Z</time>
      </trkpt>
      <trkpt lat="40.047267" lon="-5.010267">
        <ele>1611.0</ele>
        <time>2013-07-06T14:48:56Z</time>
      </trkpt>
      <trkpt lat="40.047367" lon="-5.010267">
        <ele>1609.0</ele>
        <time>2013-07-06T14:48:57Z</time>
      </trkpt>
      <trkpt lat="40.047467" lon="-5.010267">
        <ele>1606.0</ele>
        <time>2013-07-06T14:48:58Z</time>
      </trkpt>
      <trkpt lat="40.047567" lon="-5.010283">
        <ele>1604.0</ele>
        <time>2013-07-06T14:48:59Z</time>
      </trkpt>
      <trkpt lat="40.047650" lon="-5.010283">
        <ele>1602.0</ele>
        <time>2013-07-06T14:49:00Z</time>
      </trkpt>
      <trkpt lat="40.047733" lon="-5.010300">
        <ele>1602.0</ele>
        <time>2013-07-06T14:49:01Z</time>
      </trkpt>
      <trkpt lat="40.047800" lon="-5.010317">
        <ele>1601.0</ele>
        <time>2013-07-06T14:49:02Z</time>
      </trkpt>
      <trkpt lat="40.047867" lon="-5.010333">
        <ele>1600.0</ele>
        <time>2013-07-06T14:49:03Z</time>
      </trkpt>
      <trkpt lat="40.047967" lon="-5.010350">
        <ele>1599.0</ele>
        <time>2013-07-06T14:49:04Z</time>
      </trkpt>
      <trkpt lat="40.048067" lon="-5.010383">
        <ele>1598.0</ele>
        <time>2013-07-06T14:49:05Z</time>
      </trkpt>
      <trkpt lat="40.048167" lon="-5.010417">
        <ele>1595.0</ele>
        <time>2013-07-06T14:49:06Z</time>
      </trkpt>
      <trkpt lat="40.048250" lon="-5.010433">
        <ele>1593.0</ele>
        <time>2013-07-06T14:49:07Z</time>
      </trkpt>
      <trkpt lat="40.048333" lon="-5.010467">
        <ele>1591.0</ele>
        <time>2013-07-06T14:49:08Z</time>
      </trkpt>
      <trkpt lat="40.048417" lon="-5.010500">
        <ele>1590.0</ele>
        <time>2013-07-06T14:49:09Z</time>
      </trkpt>
      <trkpt lat="40.048517" lon="-5.010517">
        <ele>1588.0</ele>
        <time>2013-07-06T14:49:10Z</time>
      </trkpt>
      <trkpt lat="40.048617" lon="-5.010550">
        <ele>1586.0</ele>
        <time>2013-07-06T14:49:11Z</time>
      </trkpt>
      <trkpt lat="40.048700" lon="-5.010583">
        <ele>1584.0</ele>
        <time>2013-07-06T14:49:12Z</time>
      </trkpt>
      <trkpt lat="40.048800" lon="-5.010617">
        <ele>1582.0</ele>
        <time>2013-07-06T14:49:13Z</time>
      </trkpt>
      <trkpt lat="40.048900" lon="-5.010650">
        <ele>1580.0</ele>
        <time>2013-07-06T14:49:14Z</time>
      </trkpt>
      <trkpt lat="40.048983" lon="-5.010667">
        <ele>1579.0</ele>
        <time>2013-07-06T14:49:15Z</time>
      </trkpt>
      <trkpt lat="40.049067" lon="-5.010700">
        <ele>1578.0</ele>
        <time>2013-07-06T14:49:16Z</time>
      </trkpt>
      <trkpt lat="40.049150" lon="-5.010733">
        <ele>1576.0</ele>
        <time>2013-07-06T14:49:17Z</time>
      </trkpt>
      <trkpt lat="40.049250" lon="-5.010767">
        <ele>1574.0</ele>
        <time>2013-07-06T14:49:18Z</time>
      </trkpt>
      <trkpt lat="40.049333" lon="-5.010800">
        <ele>1572.0</ele>
        <time>2013-07-06T14:49:19Z</time>
      </trkpt>
      <trkpt lat="40.049433" lon="-5.010817">
        <ele>1570.0</ele>
        <time>2013-07-06T14:49:20Z</time>
      </trkpt>
      <trkpt lat="40.049533" lon="-5.010867">
        <ele>1569.0</ele>
        <time>2013-07-06T14:49:21Z</time>
      </trkpt>
      <trkpt lat="40.049633" lon="-5.010900">
        <ele>1567.0</ele>
        <time>2013-07-06T14:49:22Z</time>
      </trkpt>
      <trkpt lat="40.049717" lon="-5.010950">
        <ele>1565.0</ele>
        <time>2013-07-06T14:49:23Z</time>
      </trkpt>
      <trkpt lat="40.049833" lon="-5.011000">
        <ele>1563.0</ele>
        <time>2013-07-06T14:49:24Z</time>
      </trkpt>
      <trkpt lat="40.049917" lon="-5.011067">
        <ele>1561.0</ele>
        <time>2013-07-06T14:49:25Z</time>
      </trkpt>
      <trkpt lat="40.050017" lon="-5.011117">
        <ele>1559.0</ele>
        <time>2013-07-06T14:49:26Z</time>
      </trkpt>
      <trkpt lat="40.050100" lon="-5.011167">
        <ele>1557.0</ele>
        <time>2013-07-06T14:49:27Z</time>
      </trkpt>
      <trkpt lat="40.050200" lon="-5.011217">
        <ele>1555.0</ele>
        <time>2013-07-06T14:49:28Z</time>
      </trkpt>
      <trkpt lat="40.050300" lon="-5.011250">
        <ele>1552.0</ele>
        <time>2013-07-06T14:49:29Z</time>
      </trkpt>
      <trkpt lat="40.050417" lon="-5.011300">
        <ele>1549.0</ele>
        <time>2013-07-06T14:49:30Z</time>
      </trkpt>
      <trkpt lat="40.050517" lon="-5.011350">
        <ele>1548.0</ele>
        <time>2013-07-06T14:49:31Z</time>
      </trkpt>
      <trkpt lat="40.050600" lon="-5.011383">
        <ele>1547.0</ele>
        <time>2013-07-06T14:49:32Z</time>
      </trkpt>
      <trkpt lat="40.050683" lon="-5.011433">
        <ele>1546.0</ele>
        <time>2013-07-06T14:49:33Z</time>
      </trkpt>
      <trkpt lat="40.050767" lon="-5.011467">
        <ele>1545.0</ele>
        <time>2013-07-06T14:49:34Z</time>
      </trkpt>
      <trkpt lat="40.050850" lon="-5.011517">
        <ele>1542.0</ele>
        <time>2013-07-06T14:49:35Z</time>
      </trkpt>
      <trkpt lat="40.050967" lon="-5.011550">
        <ele>1540.0</ele>
        <time>2013-07-06T14:49:36Z</time>
      </trkpt>
      <trkpt lat="40.051083" lon="-5.011583">
        <ele>1538.0</ele>
        <time>2013-07-06T14:49:37Z</time>
      </trkpt>
      <trkpt lat="40.051183" lon="-5.011600">
        <ele>1538.0</ele>
        <time>2013-07-06T14:49:38Z</time>
      </trkpt>
      <trkpt lat="40.051267" lon="-5.011633">
        <ele>1538.0</ele>
        <time>2013-07-06T14:49:39Z</time>
      </trkpt>
      <trkpt lat="40.051350" lon="-5.011667">
        <ele>1536.0</ele>
        <time>2013-07-06T14:49:40Z</time>
      </trkpt>
      <trkpt lat="40.051450" lon="-5.011700">
        <ele>1534.0</ele>
        <time>2013-07-06T14:49:41Z</time>
      </trkpt>
      <trkpt lat="40.051550" lon="-5.011717">
        <ele>1531.0</ele>
        <time>2013-07-06T14:49:42Z</time>
      </trkpt>
      <trkpt lat="40.051667" lon="-5.011733">
        <ele>1528.0</ele>
        <time>2013-07-06T14:49:43Z</time>
      </trkpt>
      <trkpt lat="40.051767" lon="-5.011750">
        <ele>1524.0</ele>
        <time>2013-07-06T14:49:44Z</time>
      </trkpt>
      <trkpt lat="40.051883" lon="-5.011767">
        <ele>1522.0</ele>
        <time>2013-07-06T14:49:45Z</time>
      </trkpt>
      <trkpt lat="40.051967" lon="-5.011783">
        <ele>1520.0</ele>
        <time>2013-07-06T14:49:46Z</time>
      </trkpt>
      <trkpt lat="40.052067" lon="-5.011800">
        <ele>1518.0</ele>
        <time>2013-07-06T14:49:47Z</time>
      </trkpt>
      <trkpt lat="40.052167" lon="-5.011800">
        <ele>1515.0</ele>
        <time>2013-07-06T14:49:48Z</time>
      </trkpt>
      <trkpt lat="40.052250" lon="-5.011817">
        <ele>1513.0</ele>
        <time>2013-07-06T14:49:49Z</time>
      </trkpt>
      <trkpt lat="40.052333" lon="-5.011817">
        <ele>1512.0</ele>
        <time>2013-07-06T14:49:50Z</time>
      </trkpt>
      <trkpt lat="40.052417" lon="-5.011817">
        <ele>1510.0</ele>
        <time>2013-07-06T14:49:51Z</time>
      </trkpt>
      <trkpt lat="40.052483" lon="-5.011833">
        <ele>1507.0</ele>
        <time>2013-07-06T14:49:52Z</time>
      </trkpt>
      <trkpt lat="40.052517" lon="-5.011833">
        <ele>1504.0</ele>
        <time>2013-07-06T14:49:53Z</time>
      </trkpt>
      <trkpt lat="40.052600" lon="-5.011850">
        <ele>1506.0</ele>
        <time>2013-07-06T14:49:54Z</time>
      </trkpt>
      <trkpt lat="40.052700" lon="-5.011867">
        <ele>1504.0</ele>
        <time>2013-07-06T14:49:55Z</time>
      </trkpt>
      <trkpt lat="40.052800" lon="-5.011883">
        <ele>1502.0</ele>
        <time>2013-07-06T14:49:56Z</time>
      </trkpt>
      <trkpt lat="40.052900" lon="-5.011900">
        <ele>1498.0</ele>
        <time>2013-07-06T14:49:57Z</time>
      </trkpt>
      <trkpt lat="40.053000" lon="-5.011917">
        <ele>1494.0</ele>
        <time>2013-07-06T14:49:58Z</time>
      </trkpt>
      <trkpt lat="40.053100" lon="-5.011933">
        <ele>1489.0</ele>
        <time>2013-07-06T14:49:59Z</time>
      </trkpt>
      <trkpt lat="40.053200" lon="-5.011950">
        <ele>1484.0</ele>
        <time>2013-07-06T14:50:00Z</time>
      </trkpt>
      <trkpt lat="40.053317" lon="-5.011967">
        <ele>1480.0</ele>
        <time>2013-07-06T14:50:01Z</time>
      </trkpt>
      <trkpt lat="40.053417" lon="-5.012000">
        <ele>1476.0</ele>
        <time>2013-07-06T14:50:02Z</time>
      </trkpt>
      <trkpt lat="40.053517" lon="-5.012017">
        <ele>1474.0</ele>
        <time>2013-07-06T14:50:03Z</time>
      </trkpt>
      <trkpt lat="40.053600" lon="-5.012050">
        <ele>1470.0</ele>
        <time>2013-07-06T14:50:04Z</time>
      </trkpt>
      <trkpt lat="40.053683" lon="-5.012067">
        <ele>1467.0</ele>
        <time>2013-07-06T14:50:05Z</time>
      </trkpt>
      <trkpt lat="40.053783" lon="-5.012067">
        <ele>1463.0</ele>
        <time>2013-07-06T14:50:06Z</time>
      </trkpt>
      <trkpt lat="40.053867" lon="-5.012083">
        <ele>1460.0</ele>
        <time>2013-07-06T14:50:07Z</time>
      </trkpt>
      <trkpt lat="40.053950" lon="-5.012100">
        <ele>1457.0</ele>
        <time>2013-07-06T14:50:08Z</time>
      </trkpt>
      <trkpt lat="40.054017" lon="-5.012117">
        <ele>1454.0</ele>
        <time>2013-07-06T14:50:09Z</time>
      </trkpt>
      <trkpt lat="40.054100" lon="-5.012133">
        <ele>1450.0</ele>
        <time>2013-07-06T14:50:10Z</time>
      </trkpt>
      <trkpt lat="40.054300" lon="-5.012117">
        <ele>1442.0</ele>
        <time>2013-07-06T14:50:12Z</time>
      </trkpt>
      <trkpt lat="40.054400" lon="-5.012117">
        <ele>1439.0</ele>
        <time>2013-07-06T14:50:13Z</time>
      </trkpt>
      <trkpt lat="40.054483" lon="-5.012100">
        <ele>1437.0</ele>
        <time>2013-07-06T14:50:14Z</time>
      </trkpt>
      <trkpt lat="40.054550" lon="-5.012117">
        <ele>1436.0</ele>
        <time>2013-07-06T14:50:15Z</time>
      </trkpt>
      <trkpt lat="40.054617" lon="-5.012117">
        <ele>1434.0</ele>
        <time>2013-07-06T14:50:16Z</time>
      </trkpt>
      <trkpt lat="40.054667" lon="-5.012117">
        <ele>1434.0</ele>
        <time>2013-07-06T14:50:17Z</time>
      </trkpt>
      <trkpt lat="40.054767" lon="-5.012117">
        <ele>1433.0</ele>
        <time>2013-07-06T14:50:18Z</time>
      </trkpt>
      <trkpt lat="40.054850" lon="-5.012100">
        <ele>1430.0</ele>
        <time>2013-07-06T14:50:19Z</time>
      </trkpt>
      <trkpt lat="40.054950" lon="-5.012083">
        <ele>1428.0</ele>
        <time>2013-07-06T14:50:20Z</time>
      </trkpt>
      <trkpt lat="40.055017" lon="-5.012083">
        <ele>1427.0</ele>
        <time>2013-07-06T14:50:21Z</time>
      </trkpt>
      <trkpt lat="40.055100" lon="-5.012083">
        <ele>1426.0</ele>
        <time>2013-07-06T14:50:22Z</time>
      </trkpt>
      <trkpt lat="40.055183" lon="-5.012083">
        <ele>1423.0</ele>
        <time>2013-07-06T14:50:23Z</time>
      </trkpt>
      <trkpt lat="40.055267" lon="-5.012083">
        <ele>1420.0</ele>
        <time>2013-07-06T14:50:24Z</time>
      </trkpt>
      <trkpt lat="40.055333" lon="-5.012067">
        <ele>1417.0</ele>
        <time>2013-07-06T14:50:25Z</time>
      </trkpt>
      <trkpt lat="40.055417" lon="-5.012067">
        <ele>1414.0</ele>
        <time>2013-07-06T14:50:26Z</time>
      </trkpt>
      <trkpt lat="40.055500" lon="-5.012067">
        <ele>1411.0</ele>
        <time>2013-07-06T14:50:27Z</time>
      </trkpt>
      <trkpt lat="40.055567" lon="-5.012050">
        <ele>1408.0</ele>
        <time>2013-07-06T14:50:28Z</time>
      </trkpt>
      <trkpt lat="40.055633" lon="-5.012050">
        <ele>1404.0</ele>
        <time>2013-07-06T14:50:29Z</time>
      </trkpt>
      <trkpt lat="40.055717" lon="-5.012050">
        <ele>1401.0</ele>
        <time>2013-07-06T14:50:30Z</time>
      </trkpt>
      <trkpt lat="40.055800" lon="-5.012050">
        <ele>1399.0</ele>
        <time>2013-07-06T14:50:31Z</time>
      </trkpt>
      <trkpt lat="40.055867" lon="-5.012050">
        <ele>1396.0</ele>
        <time>2013-07-06T14:50:32Z</time>
      </trkpt>
      <trkpt lat="40.055950" lon="-5.012067">
        <ele>1394.0</ele>
        <time>2013-07-06T14:50:33Z</time>
      </trkpt>
      <trkpt lat="40.056017" lon="-5.012100">
        <ele>1392.0</ele>
        <time>2013-07-06T14:50:34Z</time>
      </trkpt>
      <trkpt lat="40.056083" lon="-5.012117">
        <ele>1390.0</ele>
        <time>2013-07-06T14:50:35Z</time>
      </trkpt>
      <trkpt lat="40.056167" lon="-5.012133">
        <ele>1387.0</ele>
        <time>2013-07-06T14:50:36Z</time>
      </trkpt>
      <trkpt lat="40.056250" lon="-5.012150">
        <ele>1385.0</ele>
        <time>2013-07-06T14:50:37Z</time>
      </trkpt>
      <trkpt lat="40.056333" lon="-5.012167">
        <ele>1382.0</ele>
        <time>2013-07-06T14:50:38Z</time>
      </trkpt>
      <trkpt lat="40.056417" lon="-5.012183">
        <ele>1380.0</ele>
        <time>2013-07-06T14:50:39Z</time>
      </trkpt>
      <trkpt lat="40.056483" lon="-5.012200">
        <ele>1377.0</ele>
        <time>2013-07-06T14:50:40Z</time>
      </trkpt>
      <trkpt lat="40.056567" lon="-5.012217">
        <ele>1378.0</ele>
        <time>2013-07-06T14:50:41Z</time>
      </trkpt>
      <trkpt lat="40.056633" lon="-5.012250">
        <ele>1376.0</ele>
        <time>2013-07-06T14:50:42Z</time>
      </trkpt>
      <trkpt lat="40.056717" lon="-5.012283">
        <ele>1374.0</ele>
        <time>2013-07-06T14:50:43Z</time>
      </trkpt>
      <trkpt lat="40.056800" lon="-5.012300">
        <ele>1372.0</ele>
        <time>2013-07-06T14:50:44Z</time>
      </trkpt>
      <trkpt lat="40.056883" lon="-5.012317">
        <ele>1369.0</ele>
        <time>2013-07-06T14:50:45Z</time>
      </trkpt>
      <trkpt lat="40.056967" lon="-5.012333">
        <ele>1367.0</ele>
        <time>2013-07-06T14:50:46Z</time>
      </trkpt>
      <trkpt lat="40.057050" lon="-5.012367">
        <ele>1365.0</ele>
        <time>2013-07-06T14:50:47Z</time>
      </trkpt>
      <trkpt lat="40.057133" lon="-5.012383">
        <ele>1363.0</ele>
        <time>2013-07-06T14:50:48Z</time>
      </trkpt>
      <trkpt lat="40.057217" lon="-5.012417">
        <ele>1361.0</ele>
        <time>2013-07-06T14:50:49Z</time>
      </trkpt>
      <trkpt lat="40.057300" lon="-5.012433">
        <ele>1358.0</ele>
        <time>2013-07-06T14:50:50Z</time>
      </trkpt>
      <trkpt lat="40.057383" lon="-5.012433">
        <ele>1356.0</ele>
        <time>2013-07-06T14:50:51Z</time>
      </trkpt>
      <trkpt lat="40.057467" lon="-5.012450">
        <ele>1355.0</ele>
        <time>2013-07-06T14:50:52Z</time>
      </trkpt>
      <trkpt lat="40.057533" lon="-5.012450">
        <ele>1353.0</ele>
        <time>2013-07-06T14:50:53Z</time>
      </trkpt>
      <trkpt lat="40.057600" lon="-5.012467">
        <ele>1352.0</ele>
        <time>2013-07-06T14:50:54Z</time>
      </trkpt>
      <trkpt lat="40.057683" lon="-5.012483">
        <ele>1349.0</ele>
        <time>2013-07-06T14:50:55Z</time>
      </trkpt>
      <trkpt lat="40.057833" lon="-5.012500">
        <ele>1345.0</ele>
        <time>2013-07-06T14:50:57Z</time>
      </trkpt>
      <trkpt lat="40.057917" lon="-5.012500">
        <ele>1344.0</ele>
        <time>2013-07-06T14:50:58Z</time>
      </trkpt>
      <trkpt lat="40.058000" lon="-5.012517">
        <ele>1342.0</ele>
        <time>2013-07-06T14:50:59Z</time>
      </trkpt>
      <trkpt lat="40.058083" lon="-5.012533">
        <ele>1341.0</ele>
        <time>2013-07-06T14:51:00Z</time>
      </trkpt>
      <trkpt lat="40.058167" lon="-5.012533">
        <ele>1339.0</ele>
        <time>2013-07-06T14:51:01Z</time>
      </trkpt>
      <trkpt lat="40.058250" lon="-5.012550">
        <ele>1338.0</ele>
        <time>2013-07-06T14:51:02Z</time>
      </trkpt>
      <trkpt lat="40.058333" lon="-5.012550">
        <ele>1336.0</ele>
        <time>2013-07-06T14:51:03Z</time>
      </trkpt>
      <trkpt lat="40.058417" lon="-5.012567">
        <ele>1335.0</ele>
        <time>2013-07-06T14:51:04Z</time>
      </trkpt>
      <trkpt lat="40.058567" lon="-5.012583">
        <ele>1333.0</ele>
        <time>2013-07-06T14:51:06Z</time>
      </trkpt>
      <trkpt lat="40.058650" lon="-5.012600">
        <ele>1333.0</ele>
        <time>2013-07-06T14:51:07Z</time>
      </trkpt>
      <trkpt lat="40.058733" lon="-5.012617">
        <ele>1333.0</ele>
        <time>2013-07-06T14:51:08Z</time>
      </trkpt>
      <trkpt lat="40.058833" lon="-5.012633">
        <ele>1332.0</ele>
        <time>2013-07-06T14:51:09Z</time>
      </trkpt>
      <trkpt lat="40.058917" lon="-5.012667">
        <ele>1331.0</ele>
        <time>2013-07-06T14:51:10Z</time>
      </trkpt>
      <trkpt lat="40.059000" lon="-5.012683">
        <ele>1330.0</ele>
        <time>2013-07-06T14:51:11Z</time>
      </trkpt>
      <trkpt lat="40.059100" lon="-5.012700">
        <ele>1329.0</ele>
        <time>2013-07-06T14:51:12Z</time>
      </trkpt>
      <trkpt lat="40.059183" lon="-5.012717">
        <ele>1328.0</ele>
        <time>2013-07-06T14:51:13Z</time>
      </trkpt>
      <trkpt lat="40.059267" lon="-5.012750">
        <ele>1325.0</ele>
        <time>2013-07-06T14:51:14Z</time>
      </trkpt>
      <trkpt lat="40.059367" lon="-5.012783">
        <ele>1323.0</ele>
        <time>2013-07-06T14:51:15Z</time>
      </trkpt>
      <trkpt lat="40.059450" lon="-5.012817">
        <ele>1321.0</ele>
        <time>2013-07-06T14:51:16Z</time>
      </trkpt>
      <trkpt lat="40.059550" lon="-5.012850">
        <ele>1319.0</ele>
        <time>2013-07-06T14:51:17Z</time>
      </trkpt>
      <trkpt lat="40.059633" lon="-5.012867">
        <ele>1317.0</ele>
        <time>2013-07-06T14:51:18Z</time>
      </trkpt>
      <trkpt lat="40.059700" lon="-5.012900">
        <ele>1316.0</ele>
        <time>2013-07-06T14:51:19Z</time>
      </trkpt>
      <trkpt lat="40.059783" lon="-5.012933">
        <ele>1314.0</ele>
        <time>2013-07-06T14:51:20Z</time>
      </trkpt>
      <trkpt lat="40.059850" lon="-5.012967">
        <ele>1313.0</ele>
        <time>2013-07-06T14:51:21Z</time>
      </trkpt>
      <trkpt lat="40.059917" lon="-5.012983">
        <ele>1310.0</ele>
        <time>2013-07-06T14:51:22Z</time>
      </trkpt>
      <trkpt lat="40.060000" lon="-5.013017">
        <ele>1308.0</ele>
        <time>2013-07-06T14:51:23Z</time>
      </trkpt>
      <trkpt lat="40.060083" lon="-5.013033">
        <ele>1306.0</ele>
        <time>2013-07-06T14:51:24Z</time>
      </trkpt>
      <trkpt lat="40.060167" lon="-5.013050">
        <ele>1304.0</ele>
        <time>2013-07-06T14:51:25Z</time>
      </trkpt>
      <trkpt lat="40.060233" lon="-5.013067">
        <ele>1303.0</ele>
        <time>2013-07-06T14:51:26Z</time>
      </trkpt>
      <trkpt lat="40.060317" lon="-5.013100">
        <ele>1301.0</ele>
        <time>2013-07-06T14:51:27Z</time>
      </trkpt>
      <trkpt lat="40.060400" lon="-5.013117">
        <ele>1299.0</ele>
        <time>2013-07-06T14:51:28Z</time>
      </trkpt>
      <trkpt lat="40.060483" lon="-5.013117">
        <ele>1297.0</ele>
        <time>2013-07-06T14:51:29Z</time>
      </trkpt>
      <trkpt lat="40.060567" lon="-5.013133">
        <ele>1296.0</ele>
        <time>2013-07-06T14:51:30Z</time>
      </trkpt>
      <trkpt lat="40.060633" lon="-5.013150">
        <ele>1295.0</ele>
        <time>2013-07-06T14:51:31Z</time>
      </trkpt>
      <trkpt lat="40.060683" lon="-5.013183">
        <ele>1294.0</ele>
        <time>2013-07-06T14:51:32Z</time>
      </trkpt>
      <trkpt lat="40.060750" lon="-5.013233">
        <ele>1292.0</ele>
        <time>2013-07-06T14:51:33Z</time>
      </trkpt>
      <trkpt lat="40.060833" lon="-5.013267">
        <ele>1289.0</ele>
        <time>2013-07-06T14:51:34Z</time>
      </trkpt>
      <trkpt lat="40.060917" lon="-5.013300">
        <ele>1287.0</ele>
        <time>2013-07-06T14:51:35Z</time>
      </trkpt>
      <trkpt lat="40.060983" lon="-5.013350">
        <ele>1287.0</ele>
        <time>2013-07-06T14:51:36Z</time>
      </trkpt>
      <trkpt lat="40.061050" lon="-5.013383">
        <ele>1286.0</ele>
        <time>2013-07-06T14:51:37Z</time>
      </trkpt>
      <trkpt lat="40.061117" lon="-5.013433">
        <ele>1285.0</ele>
        <time>2013-07-06T14:51:38Z</time>
      </trkpt>
      <trkpt lat="40.061183" lon="-5.013467">
        <ele>1284.0</ele>
        <time>2013-07-06T14:51:39Z</time>
      </trkpt>
      <trkpt lat="40.061267" lon="-5.013500">
        <ele>1282.0</ele>
        <time>2013-07-06T14:51:40Z</time>
      </trkpt>
      <trkpt lat="40.061333" lon="-5.013533">
        <ele>1280.0</ele>
        <time>2013-07-06T14:51:41Z</time>
      </trkpt>
      <trkpt lat="40.061383" lon="-5.013583">
        <ele>1279.0</ele>
        <time>2013-07-06T14:51:42Z</time>
      </trkpt>
      <trkpt lat="40.061450" lon="-5.013617">
        <ele>1278.0</ele>
        <time>2013-07-06T14:51:43Z</time>
      </trkpt>
      <trkpt lat="40.061517" lon="-5.013650">
        <ele>1276.0</ele>
        <time>2013-07-06T14:51:44Z</time>
      </trkpt>
      <trkpt lat="40.061567" lon="-5.013683">
        <ele>1274.0</ele>
        <time>2013-07-06T14:51:45Z</time>
      </trkpt>
      <trkpt lat="40.061650" lon="-5.013733">
        <ele>1274.0</ele>
        <time>2013-07-06T14:51:46Z</time>
      </trkpt>
      <trkpt lat="40.061717" lon="-5.013767">
        <ele>1274.0</ele>
        <time>2013-07-06T14:51:47Z</time>
      </trkpt>
      <trkpt lat="40.061783" lon="-5.013817">
        <ele>1273.0</ele>
        <time>2013-07-06T14:51:48Z</time>
      </trkpt>
      <trkpt lat="40.061867" lon="-5.013867">
        <ele>1272.0</ele>
        <time>2013-07-06T14:51:49Z</time>
      </trkpt>
      <trkpt lat="40.061933" lon="-5.013917">
        <ele>1271.0</ele>
        <time>2013-07-06T14:51:50Z</time>
      </trkpt>
      <trkpt lat="40.062000" lon="-5.013967">
        <ele>1270.0</ele>
        <time>2013-07-06T14:51:51Z</time>
      </trkpt>
      <trkpt lat="40.062067" lon="-5.014000">
        <ele>1268.0</ele>
        <time>2013-07-06T14:51:52Z</time>
      </trkpt>
      <trkpt lat="40.062133" lon="-5.014050">
        <ele>1267.0</ele>
        <time>2013-07-06T14:51:53Z</time>
      </trkpt>
      <trkpt lat="40.062217" lon="-5.014100">
        <ele>1267.0</ele>
        <time>2013-07-06T14:51:54Z</time>
      </trkpt>
      <trkpt lat="40.062283" lon="-5.014133">
        <ele>1266.0</ele>
        <time>2013-07-06T14:51:55Z</time>
      </trkpt>
      <trkpt lat="40.062350" lon="-5.014167">
        <ele>1266.0</ele>
        <time>2013-07-06T14:51:56Z</time>
      </trkpt>
      <trkpt lat="40.062417" lon="-5.014217">
        <ele>1266.0</ele>
        <time>2013-07-06T14:51:57Z</time>
      </trkpt>
      <trkpt lat="40.062483" lon="-5.014250">
        <ele>1265.0</ele>
        <time>2013-07-06T14:51:58Z</time>
      </trkpt>
      <trkpt lat="40.062550" lon="-5.014300">
        <ele>1265.0</ele>
        <time>2013-07-06T14:51:59Z</time>
      </trkpt>
      <trkpt lat="40.062600" lon="-5.014317">
        <ele>1266.0</ele>
        <time>2013-07-06T14:52:00Z</time>
      </trkpt>
      <trkpt lat="40.062650" lon="-5.014350">
        <ele>1267.0</ele>
        <time>2013-07-06T14:52:01Z</time>
      </trkpt>
      <trkpt lat="40.062717" lon="-5.014383">
        <ele>1267.0</ele>
        <time>2013-07-06T14:52:02Z</time>
      </trkpt>
      <trkpt lat="40.062783" lon="-5.014417">
        <ele>1266.0</ele>
        <time>2013-07-06T14:52:03Z</time>
      </trkpt>
      <trkpt lat="40.062867" lon="-5.014467">
        <ele>1265.0</ele>
        <time>2013-07-06T14:52:04Z</time>
      </trkpt>
      <trkpt lat="40.062917" lon="-5.014500">
        <ele>1265.0</ele>
        <time>2013-07-06T14:52:05Z</time>
      </trkpt>
      <trkpt lat="40.062950" lon="-5.014533">
        <ele>1266.0</ele>
        <time>2013-07-06T14:52:06Z</time>
      </trkpt>
      <trkpt lat="40.063000" lon="-5.014567">
        <ele>1265.0</ele>
        <time>2013-07-06T14:52:07Z</time>
      </trkpt>
      <trkpt lat="40.063100" lon="-5.014633">
        <ele>1261.0</ele>
        <time>2013-07-06T14:52:09Z</time>
      </trkpt>
      <trkpt lat="40.063167" lon="-5.014650">
        <ele>1259.0</ele>
        <time>2013-07-06T14:52:10Z</time>
      </trkpt>
      <trkpt lat="40.063250" lon="-5.014667">
        <ele>1257.0</ele>
        <time>2013-07-06T14:52:11Z</time>
      </trkpt>
      <trkpt lat="40.063300" lon="-5.014700">
        <ele>1257.0</ele>
        <time>2013-07-06T14:52:12Z</time>
      </trkpt>
      <trkpt lat="40.063367" lon="-5.014750">
        <ele>1257.0</ele>
        <time>2013-07-06T14:52:13Z</time>
      </trkpt>
      <trkpt lat="40.063417" lon="-5.014783">
        <ele>1257.0</ele>
        <time>2013-07-06T14:52:14Z</time>
      </trkpt>
      <trkpt lat="40.063483" lon="-5.014817">
        <ele>1256.0</ele>
        <time>2013-07-06T14:52:15Z</time>
      </trkpt>
      <trkpt lat="40.063550" lon="-5.014833">
        <ele>1254.0</ele>
        <time>2013-07-06T14:52:16Z</time>
      </trkpt>
      <trkpt lat="40.063617" lon="-5.014867">
        <ele>1253.0</ele>
        <time>2013-07-06T14:52:17Z</time>
      </trkpt>
      <trkpt lat="40.063667" lon="-5.014867">
        <ele>1251.0</ele>
        <time>2013-07-06T14:52:18Z</time>
      </trkpt>
      <trkpt lat="40.063733" lon="-5.014883">
        <ele>1249.0</ele>
        <time>2013-07-06T14:52:19Z</time>
      </trkpt>
      <trkpt lat="40.063783" lon="-5.014883">
        <ele>1248.0</ele>
        <time>2013-07-06T14:52:20Z</time>
      </trkpt>
      <trkpt lat="40.063833" lon="-5.014900">
        <ele>1245.0</ele>
        <time>2013-07-06T14:52:21Z</time>
      </trkpt>
      <trkpt lat="40.063900" lon="-5.014917">
        <ele>1243.0</ele>
        <time>2013-07-06T14:52:22Z</time>
      </trkpt>
      <trkpt lat="40.063950" lon="-5.014900">
        <ele>1240.0</ele>
        <time>2013-07-06T14:52:23Z</time>
      </trkpt>
      <trkpt lat="40.064017" lon="-5.014883">
        <ele>1237.0</ele>
        <time>2013-07-06T14:52:24Z</time>
      </trkpt>
      <trkpt lat="40.064067" lon="-5.014883">
        <ele>1234.0</ele>
        <time>2013-07-06T14:52:25Z</time>
      </trkpt>
      <trkpt lat="40.064117" lon="-5.014883">
        <ele>1232.0</ele>
        <time>2013-07-06T14:52:26Z</time>
      </trkpt>
      <trkpt lat="40.064167" lon="-5.014900">
        <ele>1229.0</ele>
        <time>2013-07-06T14:52:27Z</time>
      </trkpt>
      <trkpt lat="40.064233" lon="-5.014917">
        <ele>1227.0</ele>
        <time>2013-07-06T14:52:28Z</time>
      </trkpt>
      <trkpt lat="40.064283" lon="-5.014950">
        <ele>1223.0</ele>
        <time>2013-07-06T14:52:29Z</time>
      </trkpt>
      <trkpt lat="40.064350" lon="-5.014967">
        <ele>1220.0</ele>
        <time>2013-07-06T14:52:30Z</time>
      </trkpt>
      <trkpt lat="40.064417" lon="-5.015000">
        <ele>1217.0</ele>
        <time>2013-07-06T14:52:31Z</time>
      </trkpt>
      <trkpt lat="40.064467" lon="-5.015017">
        <ele>1215.0</ele>
        <time>2013-07-06T14:52:32Z</time>
      </trkpt>
      <trkpt lat="40.064533" lon="-5.015033">
        <ele>1213.0</ele>
        <time>2013-07-06T14:52:33Z</time>
      </trkpt>
      <trkpt lat="40.064583" lon="-5.015050">
        <ele>1211.0</ele>
        <time>2013-07-06T14:52:34Z</time>
      </trkpt>
      <trkpt lat="40.064633" lon="-5.015067">
        <ele>1208.0</ele>
        <time>2013-07-06T14:52:35Z</time>
      </trkpt>
      <trkpt lat="40.064683" lon="-5.015083">
        <ele>1205.0</ele>
        <time>2013-07-06T14:52:36Z</time>
      </trkpt>
      <trkpt lat="40.064800" lon="-5.015083">
        <ele>1201.0</ele>
        <time>2013-07-06T14:52:38Z</time>
      </trkpt>
      <trkpt lat="40.064850" lon="-5.015083">
        <ele>1199.0</ele>
        <time>2013-07-06T14:52:39Z</time>
      </trkpt>
      <trkpt lat="40.064900" lon="-5.015100">
        <ele>1198.0</ele>
        <time>2013-07-06T14:52:40Z</time>
      </trkpt>
      <trkpt lat="40.064967" lon="-5.015117">
        <ele>1196.0</ele>
        <time>2013-07-06T14:52:41Z</time>
      </trkpt>
      <trkpt lat="40.065017" lon="-5.015150">
        <ele>1194.0</ele>
        <time>2013-07-06T14:52:42Z</time>
      </trkpt>
      <trkpt lat="40.065100" lon="-5.015167">
        <ele>1191.0</ele>
        <time>2013-07-06T14:52:43Z</time>
      </trkpt>
      <trkpt lat="40.065167" lon="-5.015200">
        <ele>1190.0</ele>
        <time>2013-07-06T14:52:44Z</time>
      </trkpt>
      <trkpt lat="40.065250" lon="-5.015250">
        <ele>1188.0</ele>
        <time>2013-07-06T14:52:45Z</time>
      </trkpt>
      <trkpt lat="40.065300" lon="-5.015283">
        <ele>1187.0</ele>
        <time>2013-07-06T14:52:46Z</time>
      </trkpt>
      <trkpt lat="40.065383" lon="-5.015350">
        <ele>1185.0</ele>
        <time>2013-07-06T14:52:47Z</time>
      </trkpt>
      <trkpt lat="40.065450" lon="-5.015400">
        <ele>1184.0</ele>
        <time>2013-07-06T14:52:48Z</time>
      </trkpt>
      <trkpt lat="40.065517" lon="-5.015450">
        <ele>1183.0</ele>
        <time>2013-07-06T14:52:49Z</time>
      </trkpt>
      <trkpt lat="40.065600" lon="-5.015500">
        <ele>1183.0</ele>
        <time>2013-07-06T14:52:50Z</time>
      </trkpt>
      <trkpt lat="40.065667" lon="-5.015550">
        <ele>1182.0</ele>
        <time>2013-07-06T14:52:51Z</time>
      </trkpt>
      <trkpt lat="40.065750" lon="-5.015600">
        <ele>1181.0</ele>
        <time>2013-07-06T14:52:52Z</time>
      </trkpt>
      <trkpt lat="40.065817" lon="-5.015633">
        <ele>1180.0</ele>
        <time>2013-07-06T14:52:53Z</time>
      </trkpt>
      <trkpt lat="40.065883" lon="-5.015683">
        <ele>1178.0</ele>
        <time>2013-07-06T14:52:54Z</time>
      </trkpt>
      <trkpt lat="40.065967" lon="-5.015717">
        <ele>1176.0</ele>
        <time>2013-07-06T14:52:55Z</time>
      </trkpt>
      <trkpt lat="40.066017" lon="-5.015750">
        <ele>1174.0</ele>
        <time>2013-07-06T14:52:56Z</time>
      </trkpt>
      <trkpt lat="40.066067" lon="-5.015783">
        <ele>1171.0</ele>
        <time>2013-07-06T14:52:57Z</time>
      </trkpt>
      <trkpt lat="40.066133" lon="-5.015817">
        <ele>1170.0</ele>
        <time>2013-07-06T14:52:58Z</time>
      </trkpt>
      <trkpt lat="40.066200" lon="-5.015850">
        <ele>1168.0</ele>
        <time>2013-07-06T14:52:59Z</time>
      </trkpt>
      <trkpt lat="40.066267" lon="-5.015867">
        <ele>1166.0</ele>
        <time>2013-07-06T14:53:00Z</time>
      </trkpt>
      <trkpt lat="40.066350" lon="-5.015900">
        <ele>1164.0</ele>
        <time>2013-07-06T14:53:01Z</time>
      </trkpt>
      <trkpt lat="40.066400" lon="-5.015917">
        <ele>1160.0</ele>
        <time>2013-07-06T14:53:02Z</time>
      </trkpt>
      <trkpt lat="40.066467" lon="-5.015933">
        <ele>1157.0</ele>
        <time>2013-07-06T14:53:03Z</time>
      </trkpt>
      <trkpt lat="40.066517" lon="-5.015933">
        <ele>1153.0</ele>
        <time>2013-07-06T14:53:04Z</time>
      </trkpt>
      <trkpt lat="40.066567" lon="-5.015950">
        <ele>1148.0</ele>
        <time>2013-07-06T14:53:05Z</time>
      </trkpt>
      <trkpt lat="40.066650" lon="-5.015967">
        <ele>1147.0</ele>
        <time>2013-07-06T14:53:06Z</time>
      </trkpt>
      <trkpt lat="40.066717" lon="-5.016000">
        <ele>1144.0</ele>
        <time>2013-07-06T14:53:07Z</time>
      </trkpt>
      <trkpt lat="40.066800" lon="-5.016017">
        <ele>1141.0</ele>
        <time>2013-07-06T14:53:08Z</time>
      </trkpt>
      <trkpt lat="40.066867" lon="-5.016050">
        <ele>1138.0</ele>
        <time>2013-07-06T14:53:09Z</time>
      </trkpt>
      <trkpt lat="40.066950" lon="-5.016067">
        <ele>1134.0</ele>
        <time>2013-07-06T14:53:10Z</time>
      </trkpt>
      <trkpt lat="40.067017" lon="-5.016117">
        <ele>1131.0</ele>
        <time>2013-07-06T14:53:11Z</time>
      </trkpt>
      <trkpt lat="40.067083" lon="-5.016150">
        <ele>1127.0</ele>
        <time>2013-07-06T14:53:12Z</time>
      </trkpt>
      <trkpt lat="40.067150" lon="-5.016200">
        <ele>1124.0</ele>
        <time>2013-07-06T14:53:13Z</time>
      </trkpt>
      <trkpt lat="40.067233" lon="-5.016250">
        <ele>1119.0</ele>
        <time>2013-07-06T14:53:14Z</time>
      </trkpt>
      <trkpt lat="40.067317" lon="-5.016283">
        <ele>1119.0</ele>
        <time>2013-07-06T14:53:15Z</time>
      </trkpt>
      <trkpt lat="40.067383" lon="-5.016333">
        <ele>1115.0</ele>
        <time>2013-07-06T14:53:16Z</time>
      </trkpt>
      <trkpt lat="40.067450" lon="-5.016383">
        <ele>1112.0</ele>
        <time>2013-07-06T14:53:17Z</time>
      </trkpt>
      <trkpt lat="40.067517" lon="-5.016450">
        <ele>1108.0</ele>
        <time>2013-07-06T14:53:18Z</time>
      </trkpt>
      <trkpt lat="40.067583" lon="-5.016500">
        <ele>1104.0</ele>
        <time>2013-07-06T14:53:19Z</time>
      </trkpt>
      <trkpt lat="40.067650" lon="-5.016567">
        <ele>1099.0</ele>
        <time>2013-07-06T14:53:20Z</time>
      </trkpt>
      <trkpt lat="40.067717" lon="-5.016617">
        <ele>1094.0</ele>
        <time>2013-07-06T14:53:21Z</time>
      </trkpt>
      <trkpt lat="40.067817" lon="-5.016667">
        <ele>1089.0</ele>
        <time>2013-07-06T14:53:22Z</time>
      </trkpt>
      <trkpt lat="40.067883" lon="-5.016717">
        <ele>1091.0</ele>
        <time>2013-07-06T14:53:23Z</time>
      </trkpt>
      <trkpt lat="40.067967" lon="-5.016800">
        <ele>1087.0</ele>
        <time>2013-07-06T14:53:24Z</time>
      </trkpt>
      <trkpt lat="40.068033" lon="-5.016867">
        <ele>1083.0</ele>
        <time>2013-07-06T14:53:25Z</time>
      </trkpt>
      <trkpt lat="40.068100" lon="-5.016950">
        <ele>1079.0</ele>
        <time>2013-07-06T14:53:26Z</time>
      </trkpt>
      <trkpt lat="40.068167" lon="-5.017017">
        <ele>1076.0</ele>
        <time>2013-07-06T14:53:27Z</time>
      </trkpt>
      <trkpt lat="40.068250" lon="-5.017083">
        <ele>1071.0</ele>
        <time>2013-07-06T14:53:28Z</time>
      </trkpt>
      <trkpt lat="40.068317" lon="-5.017167">
        <ele>1067.0</ele>
        <time>2013-07-06T14:53:29Z</time>
      </trkpt>
      <trkpt lat="40.068383" lon="-5.017250">
        <ele>1062.0</ele>
        <time>2013-07-06T14:53:30Z</time>
      </trkpt>
      <trkpt lat="40.068467" lon="-5.017333">
        <ele>1058.0</ele>
        <time>2013-07-06T14:53:31Z</time>
      </trkpt>
      <trkpt lat="40.068533" lon="-5.017417">
        <ele>1055.0</ele>
        <time>2013-07-06T14:53:32Z</time>
      </trkpt>
      <trkpt lat="40.068583" lon="-5.017483">
        <ele>1053.0</ele>
        <time>2013-07-06T14:53:33Z</time>
      </trkpt>
      <trkpt lat="40.068650" lon="-5.017567">
        <ele>1049.0</ele>
        <time>2013-07-06T14:53:34Z</time>
      </trkpt>
      <trkpt lat="40.068717" lon="-5.017667">
        <ele>1046.0</ele>
        <time>2013-07-06T14:53:35Z</time>
      </trkpt>
      <trkpt lat="40.068783" lon="-5.017783">
        <ele>1042.0</ele>
        <time>2013-07-06T14:53:36Z</time>
      </trkpt>
      <trkpt lat="40.068850" lon="-5.017900">
        <ele>1039.0</ele>
        <time>2013-07-06T14:53:37Z</time>
      </trkpt>
      <trkpt lat="40.068917" lon="-5.018017">
        <ele>1036.0</ele>
        <time>2013-07-06T14:53:38Z</time>
      </trkpt>
      <trkpt lat="40.068967" lon="-5.018133">
        <ele>1035.0</ele>
        <time>2013-07-06T14:53:39Z</time>
      </trkpt>
      <trkpt lat="40.069033" lon="-5.018250">
        <ele>1034.0</ele>
        <time>2013-07-06T14:53:40Z</time>
      </trkpt>
      <trkpt lat="40.069067" lon="-5.018383">
        <ele>1033.0</ele>
        <time>2013-07-06T14:53:41Z</time>
      </trkpt>
      <trkpt lat="40.069117" lon="-5.018500">
        <ele>1032.0</ele>
        <time>2013-07-06T14:53:42Z</time>
      </trkpt>
      <trkpt lat="40.069183" lon="-5.018617">
        <ele>1032.0</ele>
        <time>2013-07-06T14:53:43Z</time>
      </trkpt>
      <trkpt lat="40.069233" lon="-5.018733">
        <ele>1032.0</ele>
        <time>2013-07-06T14:53:44Z</time>
      </trkpt>
      <trkpt lat="40.069283" lon="-5.018850">
        <ele>1032.0</ele>
        <time>2013-07-06T14:53:45Z</time>
      </trkpt>
      <trkpt lat="40.069333" lon="-5.018967">
        <ele>1031.0</ele>
        <time>2013-07-06T14:53:46Z</time>
      </trkpt>
      <trkpt lat="40.069383" lon="-5.019100">
        <ele>1030.0</ele>
        <time>2013-07-06T14:53:47Z</time>
      </trkpt>
      <trkpt lat="40.069433" lon="-5.019233">
        <ele>1030.0</ele>
        <time>2013-07-06T14:53:48Z</time>
      </trkpt>
      <trkpt lat="40.069467" lon="-5.019367">
        <ele>1029.0</ele>
        <time>2013-07-06T14:53:49Z</time>
      </trkpt>
      <trkpt lat="40.069517" lon="-5.019517">
        <ele>1029.0</ele>
        <time>2013-07-06T14:53:50Z</time>
      </trkpt>
      <trkpt lat="40.069567" lon="-5.019650">
        <ele>1029.0</ele>
        <time>2013-07-06T14:53:51Z</time>
      </trkpt>
      <trkpt lat="40.069617" lon="-5.019783">
        <ele>1029.0</ele>
        <time>2013-07-06T14:53:52Z</time>
      </trkpt>
      <trkpt lat="40.069667" lon="-5.019917">
        <ele>1029.0</ele>
        <time>2013-07-06T14:53:53Z</time>
      </trkpt>
      <trkpt lat="40.069700" lon="-5.020033">
        <ele>1028.0</ele>
        <time>2013-07-06T14:53:54Z</time>
      </trkpt>
      <trkpt lat="40.069750" lon="-5.020167">
        <ele>1026.0</ele>
        <time>2013-07-06T14:53:55Z</time>
      </trkpt>
      <trkpt lat="40.069783" lon="-5.020283">
        <ele>1023.0</ele>
        <time>2013-07-06T14:53:56Z</time>
      </trkpt>
      <trkpt lat="40.069833" lon="-5.020417">
        <ele>1020.0</ele>
        <time>2013-07-06T14:53:57Z</time>
      </trkpt>
      <trkpt lat="40.069883" lon="-5.020533">
        <ele>1017.0</ele>
        <time>2013-07-06T14:53:58Z</time>
      </trkpt>
      <trkpt lat="40.069917" lon="-5.020633">
        <ele>1014.0</ele>
        <time>2013-07-06T14:53:59Z</time>
      </trkpt>
      <trkpt lat="40.069967" lon="-5.020733">
        <ele>1011.0</ele>
        <time>2013-07-06T14:54:00Z</time>
      </trkpt>
      <trkpt lat="40.070000" lon="-5.020850">
        <ele>1007.0</ele>
        <time>2013-07-06T14:54:01Z</time>
      </trkpt>
      <trkpt lat="40.070050" lon="-5.020967">
        <ele>1003.0</ele>
        <time>2013-07-06T14:54:02Z</time>
      </trkpt>
      <trkpt lat="40.070100" lon="-5.021067">
        <ele>1001.0</ele>
        <time>2013-07-06T14:54:03Z</time>
      </trkpt>
      <trkpt lat="40.070133" lon="-5.021167">
        <ele>999.0</ele>
        <time>2013-07-06T14:54:04Z</time>
      </trkpt>
      <trkpt lat="40.070167" lon="-5.021250">
        <ele>996.0</ele>
        <time>2013-07-06T14:54:05Z</time>
      </trkpt>
      <trkpt lat="40.070200" lon="-5.021350">
        <ele>993.0</ele>
        <time>2013-07-06T14:54:06Z</time>
      </trkpt>
      <trkpt lat="40.070233" lon="-5.021450">
        <ele>989.0</ele>
        <time>2013-07-06T14:54:07Z</time>
      </trkpt>
      <trkpt lat="40.070283" lon="-5.021567">
        <ele>985.0</ele>
        <time>2013-07-06T14:54:08Z</time>
      </trkpt>
      <trkpt lat="40.070350" lon="-5.021667">
        <ele>982.0</ele>
        <time>2013-07-06T14:54:09Z</time>
      </trkpt>
      <trkpt lat="40.070400" lon="-5.021783">
        <ele>979.0</ele>
        <time>2013-07-06T14:54:10Z</time>
      </trkpt>
      <trkpt lat="40.070450" lon="-5.021883">
        <ele>977.0</ele>
        <time>2013-07-06T14:54:11Z</time>
      </trkpt>
      <trkpt lat="40.070500" lon="-5.021983">
        <ele>975.0</ele>
        <time>2013-07-06T14:54:12Z</time>
      </trkpt>
      <trkpt lat="40.070550" lon="-5.022117">
        <ele>973.0</ele>
        <time>2013-07-06T14:54:13Z</time>
      </trkpt>
      <trkpt lat="40.070600" lon="-5.022233">
        <ele>971.0</ele>
        <time>2013-07-06T14:54:14Z</time>
      </trkpt>
      <trkpt lat="40.070733" lon="-5.022600">
        <ele>966.0</ele>
        <time>2013-07-06T14:54:17Z</time>
      </trkpt>
      <trkpt lat="40.070800" lon="-5.022850">
        <ele>963.0</ele>
        <time>2013-07-06T14:54:19Z</time>
      </trkpt>
      <trkpt lat="40.070850" lon="-5.022983">
        <ele>963.0</ele>
        <time>2013-07-06T14:54:20Z</time>
      </trkpt>
      <trkpt lat="40.070900" lon="-5.023100">
        <ele>964.0</ele>
        <time>2013-07-06T14:54:21Z</time>
      </trkpt>
      <trkpt lat="40.070967" lon="-5.023317">
        <ele>968.0</ele>
        <time>2013-07-06T14:54:23Z</time>
      </trkpt>
      <trkpt lat="40.070983" lon="-5.023450">
        <ele>969.0</ele>
        <time>2013-07-06T14:54:24Z</time>
      </trkpt>
      <trkpt lat="40.071017" lon="-5.023567">
        <ele>971.0</ele>
        <time>2013-07-06T14:54:25Z</time>
      </trkpt>
      <trkpt lat="40.071050" lon="-5.023667">
        <ele>973.0</ele>
        <time>2013-07-06T14:54:26Z</time>
      </trkpt>
      <trkpt lat="40.071083" lon="-5.023783">
        <ele>975.0</ele>
        <time>2013-07-06T14:54:27Z</time>
      </trkpt>
      <trkpt lat="40.071117" lon="-5.023883">
        <ele>975.0</ele>
        <time>2013-07-06T14:54:28Z</time>
      </trkpt>
      <trkpt lat="40.071167" lon="-5.024017">
        <ele>976.0</ele>
        <time>2013-07-06T14:54:29Z</time>
      </trkpt>
      <trkpt lat="40.071233" lon="-5.024133">
        <ele>978.0</ele>
        <time>2013-07-06T14:54:30Z</time>
      </trkpt>
      <trkpt lat="40.071300" lon="-5.024217">
        <ele>981.0</ele>
        <time>2013-07-06T14:54:31Z</time>
      </trkpt>
      <trkpt lat="40.071383" lon="-5.024250">
        <ele>985.0</ele>
        <time>2013-07-06T14:54:32Z</time>
      </trkpt>
      <trkpt lat="40.071467" lon="-5.024267">
        <ele>988.0</ele>
        <time>2013-07-06T14:54:33Z</time>
      </trkpt>
      <trkpt lat="40.071533" lon="-5.024267">
        <ele>990.0</ele>
        <time>2013-07-06T14:54:34Z</time>
      </trkpt>
      <trkpt lat="40.071733" lon="-5.024250">
        <ele>992.0</ele>
        <time>2013-07-06T14:54:36Z</time>
      </trkpt>
      <trkpt lat="40.071817" lon="-5.024183">
        <ele>994.0</ele>
        <time>2013-07-06T14:54:37Z</time>
      </trkpt>
      <trkpt lat="40.071900" lon="-5.024017">
        <ele>997.0</ele>
        <time>2013-07-06T14:54:39Z</time>
      </trkpt>
      <trkpt lat="40.071917" lon="-5.023900">
        <ele>1000.0</ele>
        <time>2013-07-06T14:54:40Z</time>
      </trkpt>
      <trkpt lat="40.071917" lon="-5.023800">
        <ele>1002.0</ele>
        <time>2013-07-06T14:54:41Z</time>
      </trkpt>
      <trkpt lat="40.071917" lon="-5.023717">
        <ele>1005.0</ele>
        <time>2013-07-06T14:54:42Z</time>
      </trkpt>
      <trkpt lat="40.071900" lon="-5.023633">
        <ele>1007.0</ele>
        <time>2013-07-06T14:54:43Z</time>
      </trkpt>
      <trkpt lat="40.071867" lon="-5.023567">
        <ele>1009.0</ele>
        <time>2013-07-06T14:54:44Z</time>
      </trkpt>
      <trkpt lat="40.071817" lon="-5.023517">
        <ele>1011.0</ele>
        <time>2013-07-06T14:54:45Z</time>
      </trkpt>
      <trkpt lat="40.071750" lon="-5.023483">
        <ele>1012.0</ele>
        <time>2013-07-06T14:54:46Z</time>
      </trkpt>
      <trkpt lat="40.071683" lon="-5.023467">
        <ele>1014.0</ele>
        <time>2013-07-06T14:54:47Z</time>
      </trkpt>
      <trkpt lat="40.071633" lon="-5.023483">
        <ele>1016.0</ele>
        <time>2013-07-06T14:54:48Z</time>
      </trkpt>
      <trkpt lat="40.071583" lon="-5.023500">
        <ele>1019.0</ele>
        <time>2013-07-06T14:54:49Z</time>
      </trkpt>
      <trkpt lat="40.071533" lon="-5.023517">
        <ele>1021.0</ele>
        <time>2013-07-06T14:54:50Z</time>
      </trkpt>
      <trkpt lat="40.071467" lon="-5.023550">
        <ele>1022.0</ele>
        <time>2013-07-06T14:54:51Z</time>
      </trkpt>
      <trkpt lat="40.071417" lon="-5.023583">
        <ele>1023.0</ele>
        <time>2013-07-06T14:54:52Z</time>
      </trkpt>
      <trkpt lat="40.071350" lon="-5.023633">
        <ele>1024.0</ele>
        <time>2013-07-06T14:54:53Z</time>
      </trkpt>
      <trkpt lat="40.071283" lon="-5.023683">
        <ele>1026.0</ele>
        <time>2013-07-06T14:54:54Z</time>
      </trkpt>
      <trkpt lat="40.071233" lon="-5.023733">
        <ele>1027.0</ele>
        <time>2013-07-06T14:54:55Z</time>
      </trkpt>
      <trkpt lat="40.071200" lon="-5.023783">
        <ele>1029.0</ele>
        <time>2013-07-06T14:54:56Z</time>
      </trkpt>
      <trkpt lat="40.071150" lon="-5.023817">
        <ele>1031.0</ele>
        <time>2013-07-06T14:54:57Z</time>
      </trkpt>
      <trkpt lat="40.071117" lon="-5.023850">
        <ele>1032.0</ele>
        <time>2013-07-06T14:54:58Z</time>
      </trkpt>
      <trkpt lat="40.071050" lon="-5.023900">
        <ele>1034.0</ele>
        <time>2013-07-06T14:54:59Z</time>
      </trkpt>
      <trkpt lat="40.071000" lon="-5.023950">
        <ele>1034.0</ele>
        <time>2013-07-06T14:55:00Z</time>
      </trkpt>
      <trkpt lat="40.070950" lon="-5.024033">
        <ele>1035.0</ele>
        <time>2013-07-06T14:55:01Z</time>
      </trkpt>
      <trkpt lat="40.070900" lon="-5.024100">
        <ele>1038.0</ele>
        <time>2013-07-06T14:55:02Z</time>
      </trkpt>
      <trkpt lat="40.070867" lon="-5.024183">
        <ele>1039.0</ele>
        <time>2013-07-06T14:55:03Z</time>
      </trkpt>
      <trkpt lat="40.070850" lon="-5.024283">
        <ele>1039.0</ele>
        <time>2013-07-06T14:55:04Z</time>
      </trkpt>
      <trkpt lat="40.070817" lon="-5.024400">
        <ele>1039.0</ele>
        <time>2013-07-06T14:55:05Z</time>
      </trkpt>
      <trkpt lat="40.070783" lon="-5.024517">
        <ele>1040.0</ele>
        <time>2013-07-06T14:55:06Z</time>
      </trkpt>
      <trkpt lat="40.070783" lon="-5.024650">
        <ele>1038.0</ele>
        <time>2013-07-06T14:55:07Z</time>
      </trkpt>
      <trkpt lat="40.070800" lon="-5.024783">
        <ele>1038.0</ele>
        <time>2013-07-06T14:55:08Z</time>
      </trkpt>
      <trkpt lat="40.070817" lon="-5.024900">
        <ele>1039.0</ele>
        <time>2013-07-06T14:55:09Z</time>
      </trkpt>
      <trkpt lat="40.070850" lon="-5.025017">
        <ele>1040.0</ele>
        <time>2013-07-06T14:55:10Z</time>
      </trkpt>
      <trkpt lat="40.070867" lon="-5.025133">
        <ele>1041.0</ele>
        <time>2013-07-06T14:55:11Z</time>
      </trkpt>
      <trkpt lat="40.070900" lon="-5.025250">
        <ele>1043.0</ele>
        <time>2013-07-06T14:55:12Z</time>
      </trkpt>
      <trkpt lat="40.070933" lon="-5.025350">
        <ele>1045.0</ele>
        <time>2013-07-06T14:55:13Z</time>
      </trkpt>
      <trkpt lat="40.071000" lon="-5.025450">
        <ele>1047.0</ele>
        <time>2013-07-06T14:55:14Z</time>
      </trkpt>
      <trkpt lat="40.071067" lon="-5.025550">
        <ele>1049.0</ele>
        <time>2013-07-06T14:55:15Z</time>
      </trkpt>
      <trkpt lat="40.071150" lon="-5.025633">
        <ele>1051.0</ele>
        <time>2013-07-06T14:55:16Z</time>
      </trkpt>
      <trkpt lat="40.071250" lon="-5.025700">
        <ele>1053.0</ele>
        <time>2013-07-06T14:55:17Z</time>
      </trkpt>
      <trkpt lat="40.071333" lon="-5.025750">
        <ele>1056.0</ele>
        <time>2013-07-06T14:55:18Z</time>
      </trkpt>
      <trkpt lat="40.071400" lon="-5.025800">
        <ele>1059.0</ele>
        <time>2013-07-06T14:55:19Z</time>
      </trkpt>
      <trkpt lat="40.071483" lon="-5.025817">
        <ele>1062.0</ele>
        <time>2013-07-06T14:55:20Z</time>
      </trkpt>
      <trkpt lat="40.071567" lon="-5.025833">
        <ele>1065.0</ele>
        <time>2013-07-06T14:55:21Z</time>
      </trkpt>
      <trkpt lat="40.071650" lon="-5.025817">
        <ele>1067.0</ele>
        <time>2013-07-06T14:55:22Z</time>
      </trkpt>
      <trkpt lat="40.071733" lon="-5.025800">
        <ele>1069.0</ele>
        <time>2013-07-06T14:55:23Z</time>
      </trkpt>
      <trkpt lat="40.071800" lon="-5.025750">
        <ele>1072.0</ele>
        <time>2013-07-06T14:55:24Z</time>
      </trkpt>
      <trkpt lat="40.071867" lon="-5.025667">
        <ele>1075.0</ele>
        <time>2013-07-06T14:55:25Z</time>
      </trkpt>
      <trkpt lat="40.071917" lon="-5.025617">
        <ele>1067.0</ele>
        <time>2013-07-06T14:55:26Z</time>
      </trkpt>
      <trkpt lat="40.071967" lon="-5.025533">
        <ele>1068.0</ele>
        <time>2013-07-06T14:55:27Z</time>
      </trkpt>
      <trkpt lat="40.071983" lon="-5.025450">
        <ele>1069.0</ele>
        <time>2013-07-06T14:55:28Z</time>
      </trkpt>
      <trkpt lat="40.071967" lon="-5.025383">
        <ele>1070.0</ele>
        <time>2013-07-06T14:55:29Z</time>
      </trkpt>
      <trkpt lat="40.071967" lon="-5.025317">
        <ele>1071.0</ele>
        <time>2013-07-06T14:55:30Z</time>
      </trkpt>
      <trkpt lat="40.071933" lon="-5.025250">
        <ele>1073.0</ele>
        <time>2013-07-06T14:55:31Z</time>
      </trkpt>
      <trkpt lat="40.071900" lon="-5.025183">
        <ele>1075.0</ele>
        <time>2013-07-06T14:55:32Z</time>
      </trkpt>
      <trkpt lat="40.071867" lon="-5.025133">
        <ele>1078.0</ele>
        <time>2013-07-06T14:55:33Z</time>
      </trkpt>
      <trkpt lat="40.071783" lon="-5.025083">
        <ele>1079.0</ele>
        <time>2013-07-06T14:55:34Z</time>
      </trkpt>
      <trkpt lat="40.071717" lon="-5.025033">
        <ele>1081.0</ele>
        <time>2013-07-06T14:55:35Z</time>
      </trkpt>
      <trkpt lat="40.071633" lon="-5.025033">
        <ele>1085.0</ele>
        <time>2013-07-06T14:55:36Z</time>
      </trkpt>
      <trkpt lat="40.071550" lon="-5.025067">
        <ele>1090.0</ele>
        <time>2013-07-06T14:55:37Z</time>
      </trkpt>
      <trkpt lat="40.071500" lon="-5.025117">
        <ele>1095.0</ele>
        <time>2013-07-06T14:55:38Z</time>
      </trkpt>
      <trkpt lat="40.071467" lon="-5.025167">
        <ele>1098.0</ele>
        <time>2013-07-06T14:55:39Z</time>
      </trkpt>
      <trkpt lat="40.071433" lon="-5.025217">
        <ele>1099.0</ele>
        <time>2013-07-06T14:55:40Z</time>
      </trkpt>
      <trkpt lat="40.071383" lon="-5.025267">
        <ele>1097.0</ele>
        <time>2013-07-06T14:55:41Z</time>
      </trkpt>
      <trkpt lat="40.071333" lon="-5.025350">
        <ele>1097.0</ele>
        <time>2013-07-06T14:55:42Z</time>
      </trkpt>
      <trkpt lat="40.071283" lon="-5.025433">
        <ele>1098.0</ele>
        <time>2013-07-06T14:55:43Z</time>
      </trkpt>
      <trkpt lat="40.071250" lon="-5.025550">
        <ele>1099.0</ele>
        <time>2013-07-06T14:55:44Z</time>
      </trkpt>
      <trkpt lat="40.071250" lon="-5.025683">
        <ele>1098.0</ele>
        <time>2013-07-06T14:55:45Z</time>
      </trkpt>
      <trkpt lat="40.071267" lon="-5.025800">
        <ele>1098.0</ele>
        <time>2013-07-06T14:55:46Z</time>
      </trkpt>
      <trkpt lat="40.071333" lon="-5.025900">
        <ele>1099.0</ele>
        <time>2013-07-06T14:55:47Z</time>
      </trkpt>
      <trkpt lat="40.071400" lon="-5.025967">
        <ele>1101.0</ele>
        <time>2013-07-06T14:55:48Z</time>
      </trkpt>
      <trkpt lat="40.071483" lon="-5.026017">
        <ele>1103.0</ele>
        <time>2013-07-06T14:55:49Z</time>
      </trkpt>
      <trkpt lat="40.071550" lon="-5.026033">
        <ele>1105.0</ele>
        <time>2013-07-06T14:55:50Z</time>
      </trkpt>
      <trkpt lat="40.071633" lon="-5.026100">
        <ele>1104.0</ele>
        <time>2013-07-06T14:55:51Z</time>
      </trkpt>
      <trkpt lat="40.071717" lon="-5.026183">
        <ele>1105.0</ele>
        <time>2013-07-06T14:55:52Z</time>
      </trkpt>
      <trkpt lat="40.071817" lon="-5.026217">
        <ele>1107.0</ele>
        <time>2013-07-06T14:55:53Z</time>
      </trkpt>
      <trkpt lat="40.071900" lon="-5.026217">
        <ele>1109.0</ele>
        <time>2013-07-06T14:55:54Z</time>
      </trkpt>
      <trkpt lat="40.071983" lon="-5.026217">
        <ele>1111.0</ele>
        <time>2013-07-06T14:55:55Z</time>
      </trkpt>
      <trkpt lat="40.072067" lon="-5.026217">
        <ele>1114.0</ele>
        <time>2013-07-06T14:55:56Z</time>
      </trkpt>
      <trkpt lat="40.072150" lon="-5.026200">
        <ele>1117.0</ele>
        <time>2013-07-06T14:55:57Z</time>
      </trkpt>
      <trkpt lat="40.072217" lon="-5.026183">
        <ele>1120.0</ele>
        <time>2013-07-06T14:55:58Z</time>
      </trkpt>
      <trkpt lat="40.072283" lon="-5.026167">
        <ele>1123.0</ele>
        <time>2013-07-06T14:55:59Z</time>
      </trkpt>
      <trkpt lat="40.072350" lon="-5.026133">
        <ele>1126.0</ele>
        <time>2013-07-06T14:56:00Z</time>
      </trkpt>
      <trkpt lat="40.072417" lon="-5.026100">
        <ele>1129.0</ele>
        <time>2013-07-06T14:56:01Z</time>
      </trkpt>
      <trkpt lat="40.072483" lon="-5.026050">
        <ele>1131.0</ele>
        <time>2013-07-06T14:56:02Z</time>
      </trkpt>
      <trkpt lat="40.072533" lon="-5.026000">
        <ele>1134.0</ele>
        <time>2013-07-06T14:56:03Z</time>
      </trkpt>
      <trkpt lat="40.072583" lon="-5.025933">
        <ele>1137.0</ele>
        <time>2013-07-06T14:56:04Z</time>
      </trkpt>
      <trkpt lat="40.072633" lon="-5.025867">
        <ele>1139.0</ele>
        <time>2013-07-06T14:56:05Z</time>
      </trkpt>
      <trkpt lat="40.072683" lon="-5.025800">
        <ele>1142.0</ele>
        <time>2013-07-06T14:56:06Z</time>
      </trkpt>
      <trkpt lat="40.072717" lon="-5.025733">
        <ele>1145.0</ele>
        <time>2013-07-06T14:56:07Z</time>
      </trkpt>
      <trkpt lat="40.072767" lon="-5.025667">
        <ele>1147.0</ele>
        <time>2013-07-06T14:56:08Z</time>
      </trkpt>
      <trkpt lat="40.072800" lon="-5.025583">
        <ele>1149.0</ele>
        <time>2013-07-06T14:56:09Z</time>
      </trkpt>
      <trkpt lat="40.072850" lon="-5.025517">
        <ele>1152.0</ele>
        <time>2013-07-06T14:56:10Z</time>
      </trkpt>
      <trkpt lat="40.072883" lon="-5.025433">
        <ele>1154.0</ele>
        <time>2013-07-06T14:56:11Z</time>
      </trkpt>
      <trkpt lat="40.072917" lon="-5.025333">
        <ele>1157.0</ele>
        <time>2013-07-06T14:56:12Z</time>
      </trkpt>
      <trkpt lat="40.072933" lon="-5.025233">
        <ele>1160.0</ele>
        <time>2013-07-06T14:56:13Z</time>
      </trkpt>
      <trkpt lat="40.072933" lon="-5.025150">
        <ele>1163.0</ele>
        <time>2013-07-06T14:56:14Z</time>
      </trkpt>
      <trkpt lat="40.072917" lon="-5.025083">
        <ele>1167.0</ele>
        <time>2013-07-06T14:56:15Z</time>
      </trkpt>
      <trkpt lat="40.072883" lon="-5.025017">
        <ele>1170.0</ele>
        <time>2013-07-06T14:56:16Z</time>
      </trkpt>
      <trkpt lat="40.072850" lon="-5.024950">
        <ele>1174.0</ele>
        <time>2013-07-06T14:56:17Z</time>
      </trkpt>
      <trkpt lat="40.072817" lon="-5.024900">
        <ele>1177.0</ele>
        <time>2013-07-06T14:56:18Z</time>
      </trkpt>
      <trkpt lat="40.072783" lon="-5.024867">
        <ele>1180.0</ele>
        <time>2013-07-06T14:56:19Z</time>
      </trkpt>
      <trkpt lat="40.072733" lon="-5.024850">
        <ele>1183.0</ele>
        <time>2013-07-06T14:56:20Z</time>
      </trkpt>
      <trkpt lat="40.072683" lon="-5.024850">
        <ele>1186.0</ele>
        <time>2013-07-06T14:56:21Z</time>
      </trkpt>
      <trkpt lat="40.072650" lon="-5.024867">
        <ele>1186.0</ele>
        <time>2013-07-06T14:56:22Z</time>
      </trkpt>
      <trkpt lat="40.072583" lon="-5.024917">
        <ele>1187.0</ele>
        <time>2013-07-06T14:56:23Z</time>
      </trkpt>
      <trkpt lat="40.072517" lon="-5.024950">
        <ele>1188.0</ele>
        <time>2013-07-06T14:56:24Z</time>
      </trkpt>
      <trkpt lat="40.072433" lon="-5.025000">
        <ele>1189.0</ele>
        <time>2013-07-06T14:56:25Z</time>
      </trkpt>
      <trkpt lat="40.072367" lon="-5.025050">
        <ele>1190.0</ele>
        <time>2013-07-06T14:56:26Z</time>
      </trkpt>
      <trkpt lat="40.072300" lon="-5.025083">
        <ele>1192.0</ele>
        <time>2013-07-06T14:56:27Z</time>
      </trkpt>
      <trkpt lat="40.072233" lon="-5.025133">
        <ele>1195.0</ele>
        <time>2013-07-06T14:56:28Z</time>
      </trkpt>
      <trkpt lat="40.072167" lon="-5.025167">
        <ele>1198.0</ele>
        <time>2013-07-06T14:56:29Z</time>
      </trkpt>
      <trkpt lat="40.072083" lon="-5.025217">
        <ele>1199.0</ele>
        <time>2013-07-06T14:56:30Z</time>
      </trkpt>
      <trkpt lat="40.072017" lon="-5.025250">
        <ele>1200.0</ele>
        <time>2013-07-06T14:56:31Z</time>
      </trkpt>
      <trkpt lat="40.071950" lon="-5.025300">
        <ele>1200.0</ele>
        <time>2013-07-06T14:56:32Z</time>
      </trkpt>
      <trkpt lat="40.071900" lon="-5.025383">
        <ele>1198.0</ele>
        <time>2013-07-06T14:56:33Z</time>
      </trkpt>
      <trkpt lat="40.071850" lon="-5.025500">
        <ele>1196.0</ele>
        <time>2013-07-06T14:56:34Z</time>
      </trkpt>
      <trkpt lat="40.071817" lon="-5.025633">
        <ele>1196.0</ele>
        <time>2013-07-06T14:56:35Z</time>
      </trkpt>
      <trkpt lat="40.071800" lon="-5.025750">
        <ele>1197.0</ele>
        <time>2013-07-06T14:56:36Z</time>
      </trkpt>
      <trkpt lat="40.071817" lon="-5.025850">
        <ele>1198.0</ele>
        <time>2013-07-06T14:56:37Z</time>
      </trkpt>
      <trkpt lat="40.071850" lon="-5.025950">
        <ele>1198.0</ele>
        <time>2013-07-06T14:56:38Z</time>
      </trkpt>
      <trkpt lat="40.071900" lon="-5.026067">
        <ele>1198.0</ele>
        <time>2013-07-06T14:56:39Z</time>
      </trkpt>
      <trkpt lat="40.071967" lon="-5.026167">
        <ele>1198.0</ele>
        <time>2013-07-06T14:56:40Z</time>
      </trkpt>
      <trkpt lat="40.072033" lon="-5.026283">
        <ele>1197.0</ele>
        <time>2013-07-06T14:56:41Z</time>
      </trkpt>
      <trkpt lat="40.072117" lon="-5.026367">
        <ele>1197.0</ele>
        <time>2013-07-06T14:56:42Z</time>
      </trkpt>
      <trkpt lat="40.072200" lon="-5.026433">
        <ele>1197.0</ele>
        <time>2013-07-06T14:56:43Z</time>
      </trkpt>
      <trkpt lat="40.072317" lon="-5.026467">
        <ele>1196.0</ele>
        <time>2013-07-06T14:56:44Z</time>
      </trkpt>
      <trkpt lat="40.072450" lon="-5.026483">
        <ele>1196.0</ele>
        <time>2013-07-06T14:56:45Z</time>
      </trkpt>
      <trkpt lat="40.072567" lon="-5.026483">
        <ele>1196.0</ele>
        <time>2013-07-06T14:56:46Z</time>
      </trkpt>
      <trkpt lat="40.072783" lon="-5.026450">
        <ele>1200.0</ele>
        <time>2013-07-06T14:56:48Z</time>
      </trkpt>
      <trkpt lat="40.072883" lon="-5.026433">
        <ele>1200.0</ele>
        <time>2013-07-06T14:56:49Z</time>
      </trkpt>
      <trkpt lat="40.072983" lon="-5.026417">
        <ele>1201.0</ele>
        <time>2013-07-06T14:56:50Z</time>
      </trkpt>
      <trkpt lat="40.073083" lon="-5.026400">
        <ele>1202.0</ele>
        <time>2013-07-06T14:56:51Z</time>
      </trkpt>
      <trkpt lat="40.073167" lon="-5.026367">
        <ele>1202.0</ele>
        <time>2013-07-06T14:56:52Z</time>
      </trkpt>
      <trkpt lat="40.073250" lon="-5.026333">
        <ele>1202.0</ele>
        <time>2013-07-06T14:56:53Z</time>
      </trkpt>
      <trkpt lat="40.073333" lon="-5.026283">
        <ele>1202.0</ele>
        <time>2013-07-06T14:56:54Z</time>
      </trkpt>
      <trkpt lat="40.073417" lon="-5.026217">
        <ele>1202.0</ele>
        <time>2013-07-06T14:56:55Z</time>
      </trkpt>
      <trkpt lat="40.073483" lon="-5.026150">
        <ele>1203.0</ele>
        <time>2013-07-06T14:56:56Z</time>
      </trkpt>
      <trkpt lat="40.073550" lon="-5.026067">
        <ele>1204.0</ele>
        <time>2013-07-06T14:56:57Z</time>
      </trkpt>
      <trkpt lat="40.073583" lon="-5.025983">
        <ele>1205.0</ele>
        <time>2013-07-06T14:56:58Z</time>
      </trkpt>
      <trkpt lat="40.073617" lon="-5.025917">
        <ele>1207.0</ele>
        <time>2013-07-06T14:56:59Z</time>
      </trkpt>
      <trkpt lat="40.073617" lon="-5.025867">
        <ele>1209.0</ele>
        <time>2013-07-06T14:57:00Z</time>
      </trkpt>
      <trkpt lat="40.073617" lon="-5.025800">
        <ele>1211.0</ele>
        <time>2013-07-06T14:57:01Z</time>
      </trkpt>
      <trkpt lat="40.073600" lon="-5.025733">
        <ele>1212.0</ele>
        <time>2013-07-06T14:57:02Z</time>
      </trkpt>
      <trkpt lat="40.073583" lon="-5.025667">
        <ele>1212.0</ele>
        <time>2013-07-06T14:57:03Z</time>
      </trkpt>
      <trkpt lat="40.073550" lon="-5.025600">
        <ele>1213.0</ele>
        <time>2013-07-06T14:57:04Z</time>
      </trkpt>
      <trkpt lat="40.073517" lon="-5.025533">
        <ele>1215.0</ele>
        <time>2013-07-06T14:57:05Z</time>
      </trkpt>
      <trkpt lat="40.073467" lon="-5.025483">
        <ele>1216.0</ele>
        <time>2013-07-06T14:57:06Z</time>
      </trkpt>
      <trkpt lat="40.073417" lon="-5.025450">
        <ele>1218.0</ele>
        <time>2013-07-06T14:57:07Z</time>
      </trkpt>
      <trkpt lat="40.073350" lon="-5.025433">
        <ele>1220.0</ele>
        <time>2013-07-06T14:57:08Z</time>
      </trkpt>
      <trkpt lat="40.073283" lon="-5.025433">
        <ele>1221.0</ele>
        <time>2013-07-06T14:57:09Z</time>
      </trkpt>
      <trkpt lat="40.073217" lon="-5.025433">
        <ele>1221.0</ele>
        <time>2013-07-06T14:57:10Z</time>
      </trkpt>
      <trkpt lat="40.073133" lon="-5.025433">
        <ele>1222.0</ele>
        <time>2013-07-06T14:57:11Z</time>
      </trkpt>
      <trkpt lat="40.073050" lon="-5.025467">
        <ele>1221.0</ele>
        <time>2013-07-06T14:57:12Z</time>
      </trkpt>
      <trkpt lat="40.072950" lon="-5.025500">
        <ele>1221.0</ele>
        <time>2013-07-06T14:57:13Z</time>
      </trkpt>
      <trkpt lat="40.072883" lon="-5.025533">
        <ele>1220.0</ele>
        <time>2013-07-06T14:57:14Z</time>
      </trkpt>
      <trkpt lat="40.072800" lon="-5.025583">
        <ele>1220.0</ele>
        <time>2013-07-06T14:57:15Z</time>
      </trkpt>
      <trkpt lat="40.072733" lon="-5.025650">
        <ele>1221.0</ele>
        <time>2013-07-06T14:57:16Z</time>
      </trkpt>
      <trkpt lat="40.072667" lon="-5.025717">
        <ele>1223.0</ele>
        <time>2013-07-06T14:57:17Z</time>
      </trkpt>
      <trkpt lat="40.072600" lon="-5.025800">
        <ele>1224.0</ele>
        <time>2013-07-06T14:57:18Z</time>
      </trkpt>
      <trkpt lat="40.072550" lon="-5.025917">
        <ele>1224.0</ele>
        <time>2013-07-06T14:57:19Z</time>
      </trkpt>
      <trkpt lat="40.072517" lon="-5.026033">
        <ele>1224.0</ele>
        <time>2013-07-06T14:57:20Z</time>
      </trkpt>
      <trkpt lat="40.072500" lon="-5.026167">
        <ele>1224.0</ele>
        <time>2013-07-06T14:57:21Z</time>
      </trkpt>
      <trkpt lat="40.072517" lon="-5.026300">
        <ele>1225.0</ele>
        <time>2013-07-06T14:57:22Z</time>
      </trkpt>
      <trkpt lat="40.072550" lon="-5.026417">
        <ele>1226.0</ele>
        <time>2013-07-06T14:57:23Z</time>
      </trkpt>
      <trkpt lat="40.072600" lon="-5.026517">
        <ele>1226.0</ele>
        <time>2013-07-06T14:57:24Z</time>
      </trkpt>
      <trkpt lat="40.072667" lon="-5.026600">
        <ele>1227.0</ele>
        <time>2013-07-06T14:57:25Z</time>
      </trkpt>
      <trkpt lat="40.072750" lon="-5.026700">
        <ele>1226.0</ele>
        <time>2013-07-06T14:57:26Z</time>
      </trkpt>
      <trkpt lat="40.072833" lon="-5.026783">
        <ele>1226.0</ele>
        <time>2013-07-06T14:57:27Z</time>
      </trkpt>
      <trkpt lat="40.072933" lon="-5.026850">
        <ele>1226.0</ele>
        <time>2013-07-06T14:57:28Z</time>
      </trkpt>
      <trkpt lat="40.073033" lon="-5.026883">
        <ele>1226.0</ele>
        <time>2013-07-06T14:57:29Z</time>
      </trkpt>
      <trkpt lat="40.073117" lon="-5.026900">
        <ele>1227.0</ele>
        <time>2013-07-06T14:57:30Z</time>
      </trkpt>
      <trkpt lat="40.073217" lon="-5.026900">
        <ele>1227.0</ele>
        <time>2013-07-06T14:57:31Z</time>
      </trkpt>
      <trkpt lat="40.073317" lon="-5.026883">
        <ele>1226.0</ele>
        <time>2013-07-06T14:57:32Z</time>
      </trkpt>
      <trkpt lat="40.073417" lon="-5.026867">
        <ele>1224.0</ele>
        <time>2013-07-06T14:57:33Z</time>
      </trkpt>
      <trkpt lat="40.073517" lon="-5.026833">
        <ele>1224.0</ele>
        <time>2013-07-06T14:57:34Z</time>
      </trkpt>
      <trkpt lat="40.073617" lon="-5.026783">
        <ele>1224.0</ele>
        <time>2013-07-06T14:57:35Z</time>
      </trkpt>
      <trkpt lat="40.073683" lon="-5.026750">
        <ele>1224.0</ele>
        <time>2013-07-06T14:57:36Z</time>
      </trkpt>
      <trkpt lat="40.073733" lon="-5.026683">
        <ele>1224.0</ele>
        <time>2013-07-06T14:57:37Z</time>
      </trkpt>
      <trkpt lat="40.073800" lon="-5.026583">
        <ele>1224.0</ele>
        <time>2013-07-06T14:57:38Z</time>
      </trkpt>
      <trkpt lat="40.073850" lon="-5.026483">
        <ele>1224.0</ele>
        <time>2013-07-06T14:57:39Z</time>
      </trkpt>
      <trkpt lat="40.073883" lon="-5.026400">
        <ele>1224.0</ele>
        <time>2013-07-06T14:57:40Z</time>
      </trkpt>
      <trkpt lat="40.073900" lon="-5.026267">
        <ele>1225.0</ele>
        <time>2013-07-06T14:57:42Z</time>
      </trkpt>
      <trkpt lat="40.073883" lon="-5.026183">
        <ele>1226.0</ele>
        <time>2013-07-06T14:57:43Z</time>
      </trkpt>
      <trkpt lat="40.073783" lon="-5.025983">
        <ele>1228.0</ele>
        <time>2013-07-06T14:57:46Z</time>
      </trkpt>
      <trkpt lat="40.073733" lon="-5.025950">
        <ele>1229.0</ele>
        <time>2013-07-06T14:57:47Z</time>
      </trkpt>
      <trkpt lat="40.073650" lon="-5.025917">
        <ele>1230.0</ele>
        <time>2013-07-06T14:57:48Z</time>
      </trkpt>
      <trkpt lat="40.073583" lon="-5.025900">
        <ele>1231.0</ele>
        <time>2013-07-06T14:57:49Z</time>
      </trkpt>
      <trkpt lat="40.073500" lon="-5.025900">
        <ele>1232.0</ele>
        <time>2013-07-06T14:57:50Z</time>
      </trkpt>
      <trkpt lat="40.073417" lon="-5.025917">
        <ele>1233.0</ele>
        <time>2013-07-06T14:57:51Z</time>
      </trkpt>
      <trkpt lat="40.073333" lon="-5.025950">
        <ele>1234.0</ele>
        <time>2013-07-06T14:57:52Z</time>
      </trkpt>
      <trkpt lat="40.073250" lon="-5.026000">
        <ele>1235.0</ele>
        <time>2013-07-06T14:57:53Z</time>
      </trkpt>
      <trkpt lat="40.073167" lon="-5.026067">
        <ele>1236.0</ele>
        <time>2013-07-06T14:57:54Z</time>
      </trkpt>
      <trkpt lat="40.073100" lon="-5.026133">
        <ele>1238.0</ele>
        <time>2013-07-06T14:57:55Z</time>
      </trkpt>
      <trkpt lat="40.073033" lon="-5.026200">
        <ele>1239.0</ele>
        <time>2013-07-06T14:57:56Z</time>
      </trkpt>
      <trkpt lat="40.072983" lon="-5.026267">
        <ele>1240.0</ele>
        <time>2013-07-06T14:57:57Z</time>
      </trkpt>
      <trkpt lat="40.072917" lon="-5.026367">
        <ele>1240.0</ele>
        <time>2013-07-06T14:57:58Z</time>
      </trkpt>
      <trkpt lat="40.072850" lon="-5.026467">
        <ele>1240.0</ele>
        <time>2013-07-06T14:57:59Z</time>
      </trkpt>
      <trkpt lat="40.072783" lon="-5.026583">
        <ele>1239.0</ele>
        <time>2013-07-06T14:58:00Z</time>
      </trkpt>
      <trkpt lat="40.072750" lon="-5.026700">
        <ele>1240.0</ele>
        <time>2013-07-06T14:58:01Z</time>
      </trkpt>
      <trkpt lat="40.072733" lon="-5.026833">
        <ele>1242.0</ele>
        <time>2013-07-06T14:58:02Z</time>
      </trkpt>
      <trkpt lat="40.072767" lon="-5.026967">
        <ele>1242.0</ele>
        <time>2013-07-06T14:58:03Z</time>
      </trkpt>
      <trkpt lat="40.072800" lon="-5.027083">
        <ele>1241.0</ele>
        <time>2013-07-06T14:58:04Z</time>
      </trkpt>
      <trkpt lat="40.072867" lon="-5.027200">
        <ele>1241.0</ele>
        <time>2013-07-06T14:58:05Z</time>
      </trkpt>
      <trkpt lat="40.072933" lon="-5.027300">
        <ele>1242.0</ele>
        <time>2013-07-06T14:58:06Z</time>
      </trkpt>
      <trkpt lat="40.073000" lon="-5.027383">
        <ele>1243.0</ele>
        <time>2013-07-06T14:58:07Z</time>
      </trkpt>
      <trkpt lat="40.073067" lon="-5.027450">
        <ele>1243.0</ele>
        <time>2013-07-06T14:58:08Z</time>
      </trkpt>
      <trkpt lat="40.073133" lon="-5.027483">
        <ele>1243.0</ele>
        <time>2013-07-06T14:58:09Z</time>
      </trkpt>
      <trkpt lat="40.073200" lon="-5.027483">
        <ele>1243.0</ele>
        <time>2013-07-06T14:58:10Z</time>
      </trkpt>
      <trkpt lat="40.073267" lon="-5.027483">
        <ele>1241.0</ele>
        <time>2013-07-06T14:58:11Z</time>
      </trkpt>
      <trkpt lat="40.073333" lon="-5.027450">
        <ele>1239.0</ele>
        <time>2013-07-06T14:58:12Z</time>
      </trkpt>
      <trkpt lat="40.073417" lon="-5.027400">
        <ele>1238.0</ele>
        <time>2013-07-06T14:58:13Z</time>
      </trkpt>
      <trkpt lat="40.073483" lon="-5.027333">
        <ele>1237.0</ele>
        <time>2013-07-06T14:58:14Z</time>
      </trkpt>
      <trkpt lat="40.073533" lon="-5.027283">
        <ele>1237.0</ele>
        <time>2013-07-06T14:58:15Z</time>
      </trkpt>
      <trkpt lat="40.073583" lon="-5.027233">
        <ele>1237.0</ele>
        <time>2013-07-06T14:58:16Z</time>
      </trkpt>
      <trkpt lat="40.073633" lon="-5.027100">
        <ele>1238.0</ele>
        <time>2013-07-06T14:58:18Z</time>
      </trkpt>
      <trkpt lat="40.073633" lon="-5.027000">
        <ele>1238.0</ele>
        <time>2013-07-06T14:58:19Z</time>
      </trkpt>
      <trkpt lat="40.073617" lon="-5.026917">
        <ele>1238.0</ele>
        <time>2013-07-06T14:58:20Z</time>
      </trkpt>
      <trkpt lat="40.073600" lon="-5.026817">
        <ele>1239.0</ele>
        <time>2013-07-06T14:58:21Z</time>
      </trkpt>
      <trkpt lat="40.073550" lon="-5.026750">
        <ele>1240.0</ele>
        <time>2013-07-06T14:58:22Z</time>
      </trkpt>
      <trkpt lat="40.073517" lon="-5.026700">
        <ele>1242.0</ele>
        <time>2013-07-06T14:58:23Z</time>
      </trkpt>
      <trkpt lat="40.073450" lon="-5.026667">
        <ele>1242.0</ele>
        <time>2013-07-06T14:58:24Z</time>
      </trkpt>
      <trkpt lat="40.073367" lon="-5.026633">
        <ele>1242.0</ele>
        <time>2013-07-06T14:58:25Z</time>
      </trkpt>
      <trkpt lat="40.073283" lon="-5.026617">
        <ele>1242.0</ele>
        <time>2013-07-06T14:58:26Z</time>
      </trkpt>
      <trkpt lat="40.073200" lon="-5.026617">
        <ele>1242.0</ele>
        <time>2013-07-06T14:58:27Z</time>
      </trkpt>
      <trkpt lat="40.073100" lon="-5.026617">
        <ele>1243.0</ele>
        <time>2013-07-06T14:58:28Z</time>
      </trkpt>
      <trkpt lat="40.073033" lon="-5.026650">
        <ele>1245.0</ele>
        <time>2013-07-06T14:58:29Z</time>
      </trkpt>
      <trkpt lat="40.072967" lon="-5.026683">
        <ele>1247.0</ele>
        <time>2013-07-06T14:58:30Z</time>
      </trkpt>
      <trkpt lat="40.072900" lon="-5.026750">
        <ele>1248.0</ele>
        <time>2013-07-06T14:58:31Z</time>
      </trkpt>
      <trkpt lat="40.072817" lon="-5.026817">
        <ele>1248.0</ele>
        <time>2013-07-06T14:58:32Z</time>
      </trkpt>
      <trkpt lat="40.072733" lon="-5.026917">
        <ele>1248.0</ele>
        <time>2013-07-06T14:58:33Z</time>
      </trkpt>
      <trkpt lat="40.072667" lon="-5.027000">
        <ele>1248.0</ele>
        <time>2013-07-06T14:58:34Z</time>
      </trkpt>
      <trkpt lat="40.072617" lon="-5.027117">
        <ele>1248.0</ele>
        <time>2013-07-06T14:58:35Z</time>
      </trkpt>
      <trkpt lat="40.072567" lon="-5.027233">
        <ele>1246.0</ele>
        <time>2013-07-06T14:58:36Z</time>
      </trkpt>
      <trkpt lat="40.072550" lon="-5.027350">
        <ele>1245.0</ele>
        <time>2013-07-06T14:58:37Z</time>
      </trkpt>
      <trkpt lat="40.072533" lon="-5.027483">
        <ele>1244.0</ele>
        <time>2013-07-06T14:58:38Z</time>
      </trkpt>
      <trkpt lat="40.072533" lon="-5.027650">
        <ele>1242.0</ele>
        <time>2013-07-06T14:58:39Z</time>
      </trkpt>
      <trkpt lat="40.072533" lon="-5.027783">
        <ele>1241.0</ele>
        <time>2013-07-06T14:58:40Z</time>
      </trkpt>
      <trkpt lat="40.072567" lon="-5.027933">
        <ele>1240.0</ele>
        <time>2013-07-06T14:58:41Z</time>
      </trkpt>
      <trkpt lat="40.072600" lon="-5.028067">
        <ele>1239.0</ele>
        <time>2013-07-06T14:58:42Z</time>
      </trkpt>
      <trkpt lat="40.072667" lon="-5.028183">
        <ele>1239.0</ele>
        <time>2013-07-06T14:58:43Z</time>
      </trkpt>
      <trkpt lat="40.072733" lon="-5.028300">
        <ele>1240.0</ele>
        <time>2013-07-06T14:58:44Z</time>
      </trkpt>
      <trkpt lat="40.072817" lon="-5.028383">
        <ele>1240.0</ele>
        <time>2013-07-06T14:58:45Z</time>
      </trkpt>
      <trkpt lat="40.072900" lon="-5.028450">
        <ele>1241.0</ele>
        <time>2013-07-06T14:58:46Z</time>
      </trkpt>
      <trkpt lat="40.072967" lon="-5.028500">
        <ele>1241.0</ele>
        <time>2013-07-06T14:58:47Z</time>
      </trkpt>
      <trkpt lat="40.073050" lon="-5.028550">
        <ele>1241.0</ele>
        <time>2013-07-06T14:58:48Z</time>
      </trkpt>
      <trkpt lat="40.073133" lon="-5.028567">
        <ele>1241.0</ele>
        <time>2013-07-06T14:58:49Z</time>
      </trkpt>
      <trkpt lat="40.073233" lon="-5.028583">
        <ele>1239.0</ele>
        <time>2013-07-06T14:58:50Z</time>
      </trkpt>
      <trkpt lat="40.073317" lon="-5.028567">
        <ele>1237.0</ele>
        <time>2013-07-06T14:58:51Z</time>
      </trkpt>
      <trkpt lat="40.073483" lon="-5.028567">
        <ele>1236.0</ele>
        <time>2013-07-06T14:58:53Z</time>
      </trkpt>
      <trkpt lat="40.073567" lon="-5.028533">
        <ele>1235.0</ele>
        <time>2013-07-06T14:58:54Z</time>
      </trkpt>
      <trkpt lat="40.073767" lon="-5.028367">
        <ele>1233.0</ele>
        <time>2013-07-06T14:58:57Z</time>
      </trkpt>
      <trkpt lat="40.073800" lon="-5.028300">
        <ele>1232.0</ele>
        <time>2013-07-06T14:58:58Z</time>
      </trkpt>
      <trkpt lat="40.073833" lon="-5.028233">
        <ele>1232.0</ele>
        <time>2013-07-06T14:58:59Z</time>
      </trkpt>
      <trkpt lat="40.073850" lon="-5.028150">
        <ele>1232.0</ele>
        <time>2013-07-06T14:59:00Z</time>
      </trkpt>
      <trkpt lat="40.073883" lon="-5.028067">
        <ele>1231.0</ele>
        <time>2013-07-06T14:59:01Z</time>
      </trkpt>
      <trkpt lat="40.073933" lon="-5.027967">
        <ele>1230.0</ele>
        <time>2013-07-06T14:59:02Z</time>
      </trkpt>
      <trkpt lat="40.073983" lon="-5.027883">
        <ele>1231.0</ele>
        <time>2013-07-06T14:59:03Z</time>
      </trkpt>
      <trkpt lat="40.074017" lon="-5.027800">
        <ele>1232.0</ele>
        <time>2013-07-06T14:59:04Z</time>
      </trkpt>
      <trkpt lat="40.074050" lon="-5.027733">
        <ele>1233.0</ele>
        <time>2013-07-06T14:59:05Z</time>
      </trkpt>
      <trkpt lat="40.074083" lon="-5.027667">
        <ele>1233.0</ele>
        <time>2013-07-06T14:59:06Z</time>
      </trkpt>
      <trkpt lat="40.074117" lon="-5.027600">
        <ele>1234.0</ele>
        <time>2013-07-06T14:59:07Z</time>
      </trkpt>
      <trkpt lat="40.074150" lon="-5.027533">
        <ele>1235.0</ele>
        <time>2013-07-06T14:59:08Z</time>
      </trkpt>
      <trkpt lat="40.074200" lon="-5.027450">
        <ele>1235.0</ele>
        <time>2013-07-06T14:59:09Z</time>
      </trkpt>
      <trkpt lat="40.074233" lon="-5.027367">
        <ele>1236.0</ele>
        <time>2013-07-06T14:59:10Z</time>
      </trkpt>
      <trkpt lat="40.074250" lon="-5.027283">
        <ele>1237.0</ele>
        <time>2013-07-06T14:59:11Z</time>
      </trkpt>
      <trkpt lat="40.074250" lon="-5.027200">
        <ele>1238.0</ele>
        <time>2013-07-06T14:59:12Z</time>
      </trkpt>
      <trkpt lat="40.074233" lon="-5.027117">
        <ele>1239.0</ele>
        <time>2013-07-06T14:59:13Z</time>
      </trkpt>
      <trkpt lat="40.074217" lon="-5.027033">
        <ele>1240.0</ele>
        <time>2013-07-06T14:59:14Z</time>
      </trkpt>
      <trkpt lat="40.074167" lon="-5.026967">
        <ele>1240.0</ele>
        <time>2013-07-06T14:59:15Z</time>
      </trkpt>
      <trkpt lat="40.074117" lon="-5.026917">
        <ele>1240.0</ele>
        <time>2013-07-06T14:59:16Z</time>
      </trkpt>
      <trkpt lat="40.074050" lon="-5.026883">
        <ele>1239.0</ele>
        <time>2013-07-06T14:59:17Z</time>
      </trkpt>
      <trkpt lat="40.073983" lon="-5.026867">
        <ele>1237.0</ele>
        <time>2013-07-06T14:59:18Z</time>
      </trkpt>
      <trkpt lat="40.073900" lon="-5.026850">
        <ele>1235.0</ele>
        <time>2013-07-06T14:59:19Z</time>
      </trkpt>
      <trkpt lat="40.073817" lon="-5.026850">
        <ele>1233.0</ele>
        <time>2013-07-06T14:59:20Z</time>
      </trkpt>
      <trkpt lat="40.073733" lon="-5.026867">
        <ele>1232.0</ele>
        <time>2013-07-06T14:59:21Z</time>
      </trkpt>
      <trkpt lat="40.073650" lon="-5.026933">
        <ele>1232.0</ele>
        <time>2013-07-06T14:59:22Z</time>
      </trkpt>
      <trkpt lat="40.073583" lon="-5.027017">
        <ele>1231.0</ele>
        <time>2013-07-06T14:59:23Z</time>
      </trkpt>
      <trkpt lat="40.073533" lon="-5.027133">
        <ele>1230.0</ele>
        <time>2013-07-06T14:59:24Z</time>
      </trkpt>
      <trkpt lat="40.073483" lon="-5.027250">
        <ele>1228.0</ele>
        <time>2013-07-06T14:59:25Z</time>
      </trkpt>
      <trkpt lat="40.073467" lon="-5.027383">
        <ele>1228.0</ele>
        <time>2013-07-06T14:59:26Z</time>
      </trkpt>
      <trkpt lat="40.073433" lon="-5.027500">
        <ele>1228.0</ele>
        <time>2013-07-06T14:59:27Z</time>
      </trkpt>
      <trkpt lat="40.073433" lon="-5.027617">
        <ele>1228.0</ele>
        <time>2013-07-06T14:59:28Z</time>
      </trkpt>
      <trkpt lat="40.073433" lon="-5.027733">
        <ele>1227.0</ele>
        <time>2013-07-06T14:59:29Z</time>
      </trkpt>
      <trkpt lat="40.073433" lon="-5.027883">
        <ele>1226.0</ele>
        <time>2013-07-06T14:59:30Z</time>
      </trkpt>
      <trkpt lat="40.073450" lon="-5.028017">
        <ele>1224.0</ele>
        <time>2013-07-06T14:59:31Z</time>
      </trkpt>
      <trkpt lat="40.073483" lon="-5.028167">
        <ele>1222.0</ele>
        <time>2013-07-06T14:59:32Z</time>
      </trkpt>
      <trkpt lat="40.073533" lon="-5.028283">
        <ele>1221.0</ele>
        <time>2013-07-06T14:59:33Z</time>
      </trkpt>
      <trkpt lat="40.073600" lon="-5.028383">
        <ele>1220.0</ele>
        <time>2013-07-06T14:59:34Z</time>
      </trkpt>
      <trkpt lat="40.073683" lon="-5.028450">
        <ele>1219.0</ele>
        <time>2013-07-06T14:59:35Z</time>
      </trkpt>
      <trkpt lat="40.073767" lon="-5.028517">
        <ele>1218.0</ele>
        <time>2013-07-06T14:59:36Z</time>
      </trkpt>
      <trkpt lat="40.073850" lon="-5.028567">
        <ele>1217.0</ele>
        <time>2013-07-06T14:59:37Z</time>
      </trkpt>
      <trkpt lat="40.073917" lon="-5.028600">
        <ele>1217.0</ele>
        <time>2013-07-06T14:59:38Z</time>
      </trkpt>
      <trkpt lat="40.074000" lon="-5.028633">
        <ele>1216.0</ele>
        <time>2013-07-06T14:59:39Z</time>
      </trkpt>
      <trkpt lat="40.074067" lon="-5.028650">
        <ele>1217.0</ele>
        <time>2013-07-06T14:59:40Z</time>
      </trkpt>
      <trkpt lat="40.074150" lon="-5.028650">
        <ele>1218.0</ele>
        <time>2013-07-06T14:59:41Z</time>
      </trkpt>
      <trkpt lat="40.074233" lon="-5.028650">
        <ele>1218.0</ele>
        <time>2013-07-06T14:59:42Z</time>
      </trkpt>
      <trkpt lat="40.074300" lon="-5.028650">
        <ele>1218.0</ele>
        <time>2013-07-06T14:59:43Z</time>
      </trkpt>
      <trkpt lat="40.074383" lon="-5.028650">
        <ele>1220.0</ele>
        <time>2013-07-06T14:59:44Z</time>
      </trkpt>
      <trkpt lat="40.074450" lon="-5.028633">
        <ele>1221.0</ele>
        <time>2013-07-06T14:59:45Z</time>
      </trkpt>
      <trkpt lat="40.074533" lon="-5.028617">
        <ele>1222.0</ele>
        <time>2013-07-06T14:59:46Z</time>
      </trkpt>
      <trkpt lat="40.074600" lon="-5.028583">
        <ele>1222.0</ele>
        <time>2013-07-06T14:59:47Z</time>
      </trkpt>
      <trkpt lat="40.074667" lon="-5.028550">
        <ele>1222.0</ele>
        <time>2013-07-06T14:59:48Z</time>
      </trkpt>
      <trkpt lat="40.074750" lon="-5.028517">
        <ele>1222.0</ele>
        <time>2013-07-06T14:59:49Z</time>
      </trkpt>
      <trkpt lat="40.074817" lon="-5.028467">
        <ele>1223.0</ele>
        <time>2013-07-06T14:59:50Z</time>
      </trkpt>
      <trkpt lat="40.074883" lon="-5.028433">
        <ele>1223.0</ele>
        <time>2013-07-06T14:59:51Z</time>
      </trkpt>
      <trkpt lat="40.074933" lon="-5.028383">
        <ele>1224.0</ele>
        <time>2013-07-06T14:59:52Z</time>
      </trkpt>
      <trkpt lat="40.075000" lon="-5.028350">
        <ele>1225.0</ele>
        <time>2013-07-06T14:59:53Z</time>
      </trkpt>
      <trkpt lat="40.075067" lon="-5.028300">
        <ele>1225.0</ele>
        <time>2013-07-06T14:59:54Z</time>
      </trkpt>
      <trkpt lat="40.075133" lon="-5.028233">
        <ele>1224.0</ele>
        <time>2013-07-06T14:59:55Z</time>
      </trkpt>
      <trkpt lat="40.075183" lon="-5.028167">
        <ele>1224.0</ele>
        <time>2013-07-06T14:59:56Z</time>
      </trkpt>
      <trkpt lat="40.075233" lon="-5.028083">
        <ele>1225.0</ele>
        <time>2013-07-06T14:59:57Z</time>
      </trkpt>
      <trkpt lat="40.075283" lon="-5.028017">
        <ele>1225.0</ele>
        <time>2013-07-06T14:59:58Z</time>
      </trkpt>
      <trkpt lat="40.075333" lon="-5.027933">
        <ele>1226.0</ele>
        <time>2013-07-06T14:59:59Z</time>
      </trkpt>
      <trkpt lat="40.075383" lon="-5.027867">
        <ele>1226.0</ele>
        <time>2013-07-06T15:00:00Z</time>
      </trkpt>
      <trkpt lat="40.075433" lon="-5.027800">
        <ele>1226.0</ele>
        <time>2013-07-06T15:00:01Z</time>
      </trkpt>
      <trkpt lat="40.075483" lon="-5.027733">
        <ele>1226.0</ele>
        <time>2013-07-06T15:00:02Z</time>
      </trkpt>
      <trkpt lat="40.075550" lon="-5.027667">
        <ele>1226.0</ele>
        <time>2013-07-06T15:00:03Z</time>
      </trkpt>
      <trkpt lat="40.075617" lon="-5.027600">
        <ele>1226.0</ele>
        <time>2013-07-06T15:00:04Z</time>
      </trkpt>
      <trkpt lat="40.075667" lon="-5.027550">
        <ele>1226.0</ele>
        <time>2013-07-06T15:00:05Z</time>
      </trkpt>
      <trkpt lat="40.075733" lon="-5.027500">
        <ele>1225.0</ele>
        <time>2013-07-06T15:00:06Z</time>
      </trkpt>
      <trkpt lat="40.075800" lon="-5.027450">
        <ele>1224.0</ele>
        <time>2013-07-06T15:00:07Z</time>
      </trkpt>
      <trkpt lat="40.075883" lon="-5.027383">
        <ele>1223.0</ele>
        <time>2013-07-06T15:00:08Z</time>
      </trkpt>
      <trkpt lat="40.075950" lon="-5.027333">
        <ele>1222.0</ele>
        <time>2013-07-06T15:00:09Z</time>
      </trkpt>
      <trkpt lat="40.076100" lon="-5.027250">
        <ele>1222.0</ele>
        <time>2013-07-06T15:00:11Z</time>
      </trkpt>
      <trkpt lat="40.076150" lon="-5.027217">
        <ele>1222.0</ele>
        <time>2013-07-06T15:00:12Z</time>
      </trkpt>
      <trkpt lat="40.076217" lon="-5.027200">
        <ele>1222.0</ele>
        <time>2013-07-06T15:00:13Z</time>
      </trkpt>
      <trkpt lat="40.076283" lon="-5.027183">
        <ele>1221.0</ele>
        <time>2013-07-06T15:00:14Z</time>
      </trkpt>
      <trkpt lat="40.076367" lon="-5.027150">
        <ele>1220.0</ele>
        <time>2013-07-06T15:00:15Z</time>
      </trkpt>
      <trkpt lat="40.076433" lon="-5.027133">
        <ele>1219.0</ele>
        <time>2013-07-06T15:00:16Z</time>
      </trkpt>
      <trkpt lat="40.076500" lon="-5.027117">
        <ele>1218.0</ele>
        <time>2013-07-06T15:00:17Z</time>
      </trkpt>
      <trkpt lat="40.076567" lon="-5.027083">
        <ele>1217.0</ele>
        <time>2013-07-06T15:00:18Z</time>
      </trkpt>
      <trkpt lat="40.076717" lon="-5.027050">
        <ele>1215.0</ele>
        <time>2013-07-06T15:00:20Z</time>
      </trkpt>
      <trkpt lat="40.076800" lon="-5.027017">
        <ele>1214.0</ele>
        <time>2013-07-06T15:00:21Z</time>
      </trkpt>
      <trkpt lat="40.076883" lon="-5.027000">
        <ele>1212.0</ele>
        <time>2013-07-06T15:00:22Z</time>
      </trkpt>
      <trkpt lat="40.076967" lon="-5.026967">
        <ele>1212.0</ele>
        <time>2013-07-06T15:00:23Z</time>
      </trkpt>
      <trkpt lat="40.077117" lon="-5.026933">
        <ele>1212.0</ele>
        <time>2013-07-06T15:00:25Z</time>
      </trkpt>
      <trkpt lat="40.077200" lon="-5.026917">
        <ele>1212.0</ele>
        <time>2013-07-06T15:00:26Z</time>
      </trkpt>
      <trkpt lat="40.077283" lon="-5.026883">
        <ele>1211.0</ele>
        <time>2013-07-06T15:00:27Z</time>
      </trkpt>
      <trkpt lat="40.077383" lon="-5.026850">
        <ele>1210.0</ele>
        <time>2013-07-06T15:00:28Z</time>
      </trkpt>
      <trkpt lat="40.077467" lon="-5.026833">
        <ele>1210.0</ele>
        <time>2013-07-06T15:00:29Z</time>
      </trkpt>
      <trkpt lat="40.077550" lon="-5.026817">
        <ele>1209.0</ele>
        <time>2013-07-06T15:00:30Z</time>
      </trkpt>
      <trkpt lat="40.077650" lon="-5.026800">
        <ele>1209.0</ele>
        <time>2013-07-06T15:00:31Z</time>
      </trkpt>
      <trkpt lat="40.077733" lon="-5.026767">
        <ele>1210.0</ele>
        <time>2013-07-06T15:00:32Z</time>
      </trkpt>
      <trkpt lat="40.077833" lon="-5.026767">
        <ele>1210.0</ele>
        <time>2013-07-06T15:00:33Z</time>
      </trkpt>
      <trkpt lat="40.077933" lon="-5.026750">
        <ele>1210.0</ele>
        <time>2013-07-06T15:00:34Z</time>
      </trkpt>
      <trkpt lat="40.078033" lon="-5.026750">
        <ele>1210.0</ele>
        <time>2013-07-06T15:00:35Z</time>
      </trkpt>
      <trkpt lat="40.078133" lon="-5.026733">
        <ele>1210.0</ele>
        <time>2013-07-06T15:00:36Z</time>
      </trkpt>
      <trkpt lat="40.078217" lon="-5.026733">
        <ele>1212.0</ele>
        <time>2013-07-06T15:00:37Z</time>
      </trkpt>
      <trkpt lat="40.078300" lon="-5.026717">
        <ele>1213.0</ele>
        <time>2013-07-06T15:00:38Z</time>
      </trkpt>
      <trkpt lat="40.078383" lon="-5.026717">
        <ele>1215.0</ele>
        <time>2013-07-06T15:00:39Z</time>
      </trkpt>
      <trkpt lat="40.078467" lon="-5.026717">
        <ele>1215.0</ele>
        <time>2013-07-06T15:00:40Z</time>
      </trkpt>
      <trkpt lat="40.078550" lon="-5.026700">
        <ele>1216.0</ele>
        <time>2013-07-06T15:00:41Z</time>
      </trkpt>
      <trkpt lat="40.078617" lon="-5.026683">
        <ele>1215.0</ele>
        <time>2013-07-06T15:00:42Z</time>
      </trkpt>
      <trkpt lat="40.078700" lon="-5.026650">
        <ele>1216.0</ele>
        <time>2013-07-06T15:00:43Z</time>
      </trkpt>
      <trkpt lat="40.078767" lon="-5.026617">
        <ele>1216.0</ele>
        <time>2013-07-06T15:00:44Z</time>
      </trkpt>
      <trkpt lat="40.078850" lon="-5.026567">
        <ele>1216.0</ele>
        <time>2013-07-06T15:00:45Z</time>
      </trkpt>
      <trkpt lat="40.078933" lon="-5.026533">
        <ele>1217.0</ele>
        <time>2013-07-06T15:00:46Z</time>
      </trkpt>
      <trkpt lat="40.079000" lon="-5.026500">
        <ele>1217.0</ele>
        <time>2013-07-06T15:00:47Z</time>
      </trkpt>
      <trkpt lat="40.079067" lon="-5.026467">
        <ele>1218.0</ele>
        <time>2013-07-06T15:00:48Z</time>
      </trkpt>
      <trkpt lat="40.079117" lon="-5.026417">
        <ele>1219.0</ele>
        <time>2013-07-06T15:00:49Z</time>
      </trkpt>
      <trkpt lat="40.079183" lon="-5.026367">
        <ele>1220.0</ele>
        <time>2013-07-06T15:00:50Z</time>
      </trkpt>
      <trkpt lat="40.079267" lon="-5.026333">
        <ele>1220.0</ele>
        <time>2013-07-06T15:00:51Z</time>
      </trkpt>
      <trkpt lat="40.079350" lon="-5.026317">
        <ele>1220.0</ele>
        <time>2013-07-06T15:00:52Z</time>
      </trkpt>
      <trkpt lat="40.079417" lon="-5.026283">
        <ele>1220.0</ele>
        <time>2013-07-06T15:00:53Z</time>
      </trkpt>
      <trkpt lat="40.079500" lon="-5.026267">
        <ele>1220.0</ele>
        <time>2013-07-06T15:00:54Z</time>
      </trkpt>
      <trkpt lat="40.079583" lon="-5.026233">
        <ele>1220.0</ele>
        <time>2013-07-06T15:00:55Z</time>
      </trkpt>
      <trkpt lat="40.079733" lon="-5.026217">
        <ele>1220.0</ele>
        <time>2013-07-06T15:00:57Z</time>
      </trkpt>
      <trkpt lat="40.079833" lon="-5.026217">
        <ele>1219.0</ele>
        <time>2013-07-06T15:00:58Z</time>
      </trkpt>
      <trkpt lat="40.079917" lon="-5.026233">
        <ele>1218.0</ele>
        <time>2013-07-06T15:00:59Z</time>
      </trkpt>
      <trkpt lat="40.080000" lon="-5.026233">
        <ele>1216.0</ele>
        <time>2013-07-06T15:01:00Z</time>
      </trkpt>
      <trkpt lat="40.080083" lon="-5.026233">
        <ele>1215.0</ele>
        <time>2013-07-06T15:01:01Z</time>
      </trkpt>
      <trkpt lat="40.080183" lon="-5.026217">
        <ele>1213.0</ele>
        <time>2013-07-06T15:01:02Z</time>
      </trkpt>
      <trkpt lat="40.080283" lon="-5.026217">
        <ele>1212.0</ele>
        <time>2013-07-06T15:01:03Z</time>
      </trkpt>
      <trkpt lat="40.080383" lon="-5.026217">
        <ele>1211.0</ele>
        <time>2013-07-06T15:01:04Z</time>
      </trkpt>
      <trkpt lat="40.080467" lon="-5.026233">
        <ele>1211.0</ele>
        <time>2013-07-06T15:01:05Z</time>
      </trkpt>
      <trkpt lat="40.080550" lon="-5.026267">
        <ele>1214.0</ele>
        <time>2013-07-06T15:01:06Z</time>
      </trkpt>
      <trkpt lat="40.080617" lon="-5.026283">
        <ele>1216.0</ele>
        <time>2013-07-06T15:01:07Z</time>
      </trkpt>
      <trkpt lat="40.080700" lon="-5.026333">
        <ele>1218.0</ele>
        <time>2013-07-06T15:01:08Z</time>
      </trkpt>
      <trkpt lat="40.080767" lon="-5.026383">
        <ele>1218.0</ele>
        <time>2013-07-06T15:01:09Z</time>
      </trkpt>
      <trkpt lat="40.080833" lon="-5.026433">
        <ele>1218.0</ele>
        <time>2013-07-06T15:01:10Z</time>
      </trkpt>
      <trkpt lat="40.080933" lon="-5.026467">
        <ele>1217.0</ele>
        <time>2013-07-06T15:01:11Z</time>
      </trkpt>
      <trkpt lat="40.081017" lon="-5.026500">
        <ele>1216.0</ele>
        <time>2013-07-06T15:01:12Z</time>
      </trkpt>
      <trkpt lat="40.081100" lon="-5.026500">
        <ele>1215.0</ele>
        <time>2013-07-06T15:01:13Z</time>
      </trkpt>
      <trkpt lat="40.081183" lon="-5.026500">
        <ele>1214.0</ele>
        <time>2013-07-06T15:01:14Z</time>
      </trkpt>
      <trkpt lat="40.081250" lon="-5.026483">
        <ele>1214.0</ele>
        <time>2013-07-06T15:01:15Z</time>
      </trkpt>
      <trkpt lat="40.081317" lon="-5.026483">
        <ele>1213.0</ele>
        <time>2013-07-06T15:01:16Z</time>
      </trkpt>
      <trkpt lat="40.081383" lon="-5.026467">
        <ele>1211.0</ele>
        <time>2013-07-06T15:01:17Z</time>
      </trkpt>
      <trkpt lat="40.081467" lon="-5.026450">
        <ele>1209.0</ele>
        <time>2013-07-06T15:01:18Z</time>
      </trkpt>
      <trkpt lat="40.081533" lon="-5.026433">
        <ele>1207.0</ele>
        <time>2013-07-06T15:01:19Z</time>
      </trkpt>
      <trkpt lat="40.081617" lon="-5.026417">
        <ele>1206.0</ele>
        <time>2013-07-06T15:01:20Z</time>
      </trkpt>
      <trkpt lat="40.081667" lon="-5.026400">
        <ele>1205.0</ele>
        <time>2013-07-06T15:01:21Z</time>
      </trkpt>
      <trkpt lat="40.081733" lon="-5.026400">
        <ele>1204.0</ele>
        <time>2013-07-06T15:01:22Z</time>
      </trkpt>
      <trkpt lat="40.081800" lon="-5.026400">
        <ele>1203.0</ele>
        <time>2013-07-06T15:01:23Z</time>
      </trkpt>
      <trkpt lat="40.081883" lon="-5.026400">
        <ele>1201.0</ele>
        <time>2013-07-06T15:01:24Z</time>
      </trkpt>
      <trkpt lat="40.081950" lon="-5.026383">
        <ele>1198.0</ele>
        <time>2013-07-06T15:01:25Z</time>
      </trkpt>
      <trkpt lat="40.082033" lon="-5.026367">
        <ele>1196.0</ele>
        <time>2013-07-06T15:01:26Z</time>
      </trkpt>
      <trkpt lat="40.082100" lon="-5.026350">
        <ele>1194.0</ele>
        <time>2013-07-06T15:01:27Z</time>
      </trkpt>
      <trkpt lat="40.082167" lon="-5.026350">
        <ele>1193.0</ele>
        <time>2013-07-06T15:01:28Z</time>
      </trkpt>
      <trkpt lat="40.082250" lon="-5.026350">
        <ele>1191.0</ele>
        <time>2013-07-06T15:01:29Z</time>
      </trkpt>
      <trkpt lat="40.082317" lon="-5.026350">
        <ele>1189.0</ele>
        <time>2013-07-06T15:01:30Z</time>
      </trkpt>
      <trkpt lat="40.082400" lon="-5.026350">
        <ele>1187.0</ele>
        <time>2013-07-06T15:01:31Z</time>
      </trkpt>
      <trkpt lat="40.082483" lon="-5.026333">
        <ele>1185.0</ele>
        <time>2013-07-06T15:01:32Z</time>
      </trkpt>
      <trkpt lat="40.082567" lon="-5.026317">
        <ele>1184.0</ele>
        <time>2013-07-06T15:01:33Z</time>
      </trkpt>
      <trkpt lat="40.082633" lon="-5.026300">
        <ele>1185.0</ele>
        <time>2013-07-06T15:01:34Z</time>
      </trkpt>
      <trkpt lat="40.082700" lon="-5.026283">
        <ele>1187.0</ele>
        <time>2013-07-06T15:01:35Z</time>
      </trkpt>
      <trkpt lat="40.082750" lon="-5.026283">
        <ele>1189.0</ele>
        <time>2013-07-06T15:01:36Z</time>
      </trkpt>
      <trkpt lat="40.082817" lon="-5.026283">
        <ele>1190.0</ele>
        <time>2013-07-06T15:01:37Z</time>
      </trkpt>
      <trkpt lat="40.082883" lon="-5.026267">
        <ele>1191.0</ele>
        <time>2013-07-06T15:01:38Z</time>
      </trkpt>
      <trkpt lat="40.082950" lon="-5.026233">
        <ele>1191.0</ele>
        <time>2013-07-06T15:01:39Z</time>
      </trkpt>
      <trkpt lat="40.083000" lon="-5.026217">
        <ele>1193.0</ele>
        <time>2013-07-06T15:01:40Z</time>
      </trkpt>
      <trkpt lat="40.083050" lon="-5.026200">
        <ele>1195.0</ele>
        <time>2013-07-06T15:01:41Z</time>
      </trkpt>
      <trkpt lat="40.083100" lon="-5.026183">
        <ele>1196.0</ele>
        <time>2013-07-06T15:01:42Z</time>
      </trkpt>
      <trkpt lat="40.083167" lon="-5.026183">
        <ele>1198.0</ele>
        <time>2013-07-06T15:01:43Z</time>
      </trkpt>
      <trkpt lat="40.083217" lon="-5.026167">
        <ele>1199.0</ele>
        <time>2013-07-06T15:01:44Z</time>
      </trkpt>
      <trkpt lat="40.083283" lon="-5.026150">
        <ele>1200.0</ele>
        <time>2013-07-06T15:01:45Z</time>
      </trkpt>
      <trkpt lat="40.083333" lon="-5.026133">
        <ele>1201.0</ele>
        <time>2013-07-06T15:01:46Z</time>
      </trkpt>
      <trkpt lat="40.083400" lon="-5.026100">
        <ele>1202.0</ele>
        <time>2013-07-06T15:01:47Z</time>
      </trkpt>
      <trkpt lat="40.083450" lon="-5.026050">
        <ele>1203.0</ele>
        <time>2013-07-06T15:01:48Z</time>
      </trkpt>
      <trkpt lat="40.083483" lon="-5.025967">
        <ele>1204.0</ele>
        <time>2013-07-06T15:01:49Z</time>
      </trkpt>
      <trkpt lat="40.083467" lon="-5.025867">
        <ele>1205.0</ele>
        <time>2013-07-06T15:01:50Z</time>
      </trkpt>
      <trkpt lat="40.083433" lon="-5.025767">
        <ele>1207.0</ele>
        <time>2013-07-06T15:01:51Z</time>
      </trkpt>
      <trkpt lat="40.083350" lon="-5.025700">
        <ele>1208.0</ele>
        <time>2013-07-06T15:01:52Z</time>
      </trkpt>
      <trkpt lat="40.083250" lon="-5.025700">
        <ele>1209.0</ele>
        <time>2013-07-06T15:01:53Z</time>
      </trkpt>
      <trkpt lat="40.083167" lon="-5.025717">
        <ele>1210.0</ele>
        <time>2013-07-06T15:01:54Z</time>
      </trkpt>
      <trkpt lat="40.083083" lon="-5.025750">
        <ele>1212.0</ele>
        <time>2013-07-06T15:01:55Z</time>
      </trkpt>
      <trkpt lat="40.083000" lon="-5.025800">
        <ele>1214.0</ele>
        <time>2013-07-06T15:01:56Z</time>
      </trkpt>
      <trkpt lat="40.082933" lon="-5.025867">
        <ele>1215.0</ele>
        <time>2013-07-06T15:01:57Z</time>
      </trkpt>
      <trkpt lat="40.082850" lon="-5.025917">
        <ele>1215.0</ele>
        <time>2013-07-06T15:01:58Z</time>
      </trkpt>
      <trkpt lat="40.082783" lon="-5.026000">
        <ele>1215.0</ele>
        <time>2013-07-06T15:01:59Z</time>
      </trkpt>
      <trkpt lat="40.082750" lon="-5.026100">
        <ele>1216.0</ele>
        <time>2013-07-06T15:02:00Z</time>
      </trkpt>
      <trkpt lat="40.082717" lon="-5.026217">
        <ele>1217.0</ele>
        <time>2013-07-06T15:02:01Z</time>
      </trkpt>
      <trkpt lat="40.082717" lon="-5.026333">
        <ele>1217.0</ele>
        <time>2013-07-06T15:02:02Z</time>
      </trkpt>
      <trkpt lat="40.082717" lon="-5.026433">
        <ele>1217.0</ele>
        <time>2013-07-06T15:02:03Z</time>
      </trkpt>
      <trkpt lat="40.082717" lon="-5.026533">
        <ele>1219.0</ele>
        <time>2013-07-06T15:02:04Z</time>
      </trkpt>
      <trkpt lat="40.082733" lon="-5.026617">
        <ele>1220.0</ele>
        <time>2013-07-06T15:02:05Z</time>
      </trkpt>
      <trkpt lat="40.082767" lon="-5.026700">
        <ele>1221.0</ele>
        <time>2013-07-06T15:02:06Z</time>
      </trkpt>
      <trkpt lat="40.082817" lon="-5.026767">
        <ele>1221.0</ele>
        <time>2013-07-06T15:02:07Z</time>
      </trkpt>
      <trkpt lat="40.082867" lon="-5.026800">
        <ele>1222.0</ele>
        <time>2013-07-06T15:02:08Z</time>
      </trkpt>
      <trkpt lat="40.082933" lon="-5.026833">
        <ele>1223.0</ele>
        <time>2013-07-06T15:02:09Z</time>
      </trkpt>
      <trkpt lat="40.083000" lon="-5.026833">
        <ele>1225.0</ele>
        <time>2013-07-06T15:02:10Z</time>
      </trkpt>
      <trkpt lat="40.083050" lon="-5.026817">
        <ele>1228.0</ele>
        <time>2013-07-06T15:02:11Z</time>
      </trkpt>
      <trkpt lat="40.083100" lon="-5.026783">
        <ele>1230.0</ele>
        <time>2013-07-06T15:02:12Z</time>
      </trkpt>
      <trkpt lat="40.083150" lon="-5.026733">
        <ele>1232.0</ele>
        <time>2013-07-06T15:02:13Z</time>
      </trkpt>
      <trkpt lat="40.083183" lon="-5.026667">
        <ele>1234.0</ele>
        <time>2013-07-06T15:02:14Z</time>
      </trkpt>
      <trkpt lat="40.083217" lon="-5.026600">
        <ele>1236.0</ele>
        <time>2013-07-06T15:02:15Z</time>
      </trkpt>
      <trkpt lat="40.083217" lon="-5.026500">
        <ele>1238.0</ele>
        <time>2013-07-06T15:02:16Z</time>
      </trkpt>
      <trkpt lat="40.083183" lon="-5.026400">
        <ele>1240.0</ele>
        <time>2013-07-06T15:02:17Z</time>
      </trkpt>
      <trkpt lat="40.083150" lon="-5.026300">
        <ele>1241.0</ele>
        <time>2013-07-06T15:02:18Z</time>
      </trkpt>
      <trkpt lat="40.083083" lon="-5.026200">
        <ele>1243.0</ele>
        <time>2013-07-06T15:02:19Z</time>
      </trkpt>
      <trkpt lat="40.083000" lon="-5.026150">
        <ele>1245.0</ele>
        <time>2013-07-06T15:02:20Z</time>
      </trkpt>
      <trkpt lat="40.082917" lon="-5.026133">
        <ele>1248.0</ele>
        <time>2013-07-06T15:02:21Z</time>
      </trkpt>
      <trkpt lat="40.082833" lon="-5.026150">
        <ele>1250.0</ele>
        <time>2013-07-06T15:02:22Z</time>
      </trkpt>
      <trkpt lat="40.082750" lon="-5.026167">
        <ele>1252.0</ele>
        <time>2013-07-06T15:02:23Z</time>
      </trkpt>
      <trkpt lat="40.082683" lon="-5.026200">
        <ele>1253.0</ele>
        <time>2013-07-06T15:02:24Z</time>
      </trkpt>
      <trkpt lat="40.082583" lon="-5.026250">
        <ele>1254.0</ele>
        <time>2013-07-06T15:02:25Z</time>
      </trkpt>
      <trkpt lat="40.082517" lon="-5.026333">
        <ele>1255.0</ele>
        <time>2013-07-06T15:02:26Z</time>
      </trkpt>
      <trkpt lat="40.082450" lon="-5.026417">
        <ele>1255.0</ele>
        <time>2013-07-06T15:02:27Z</time>
      </trkpt>
      <trkpt lat="40.082400" lon="-5.026533">
        <ele>1255.0</ele>
        <time>2013-07-06T15:02:28Z</time>
      </trkpt>
      <trkpt lat="40.082367" lon="-5.026633">
        <ele>1256.0</ele>
        <time>2013-07-06T15:02:29Z</time>
      </trkpt>
      <trkpt lat="40.082333" lon="-5.026733">
        <ele>1256.0</ele>
        <time>2013-07-06T15:02:30Z</time>
      </trkpt>
      <trkpt lat="40.082317" lon="-5.026833">
        <ele>1257.0</ele>
        <time>2013-07-06T15:02:31Z</time>
      </trkpt>
      <trkpt lat="40.082317" lon="-5.026933">
        <ele>1257.0</ele>
        <time>2013-07-06T15:02:32Z</time>
      </trkpt>
      <trkpt lat="40.082317" lon="-5.027033">
        <ele>1258.0</ele>
        <time>2013-07-06T15:02:33Z</time>
      </trkpt>
      <trkpt lat="40.082350" lon="-5.027117">
        <ele>1258.0</ele>
        <time>2013-07-06T15:02:34Z</time>
      </trkpt>
      <trkpt lat="40.082367" lon="-5.027217">
        <ele>1258.0</ele>
        <time>2013-07-06T15:02:35Z</time>
      </trkpt>
      <trkpt lat="40.082400" lon="-5.027300">
        <ele>1259.0</ele>
        <time>2013-07-06T15:02:36Z</time>
      </trkpt>
      <trkpt lat="40.082433" lon="-5.027367">
        <ele>1259.0</ele>
        <time>2013-07-06T15:02:37Z</time>
      </trkpt>
      <trkpt lat="40.082500" lon="-5.027417">
        <ele>1260.0</ele>
        <time>2013-07-06T15:02:38Z</time>
      </trkpt>
      <trkpt lat="40.082567" lon="-5.027450">
        <ele>1260.0</ele>
        <time>2013-07-06T15:02:39Z</time>
      </trkpt>
      <trkpt lat="40.082617" lon="-5.027483">
        <ele>1260.0</ele>
        <time>2013-07-06T15:02:40Z</time>
      </trkpt>
      <trkpt lat="40.082667" lon="-5.027517">
        <ele>1262.0</ele>
        <time>2013-07-06T15:02:41Z</time>
      </trkpt>
      <trkpt lat="40.082717" lon="-5.027517">
        <ele>1264.0</ele>
        <time>2013-07-06T15:02:42Z</time>
      </trkpt>
      <trkpt lat="40.082767" lon="-5.027517">
        <ele>1266.0</ele>
        <time>2013-07-06T15:02:43Z</time>
      </trkpt>
      <trkpt lat="40.082817" lon="-5.027500">
        <ele>1268.0</ele>
        <time>2013-07-06T15:02:44Z</time>
      </trkpt>
      <trkpt lat="40.082867" lon="-5.027433">
        <ele>1270.0</ele>
        <time>2013-07-06T15:02:45Z</time>
      </trkpt>
      <trkpt lat="40.082900" lon="-5.027367">
        <ele>1271.0</ele>
        <time>2013-07-06T15:02:46Z</time>
      </trkpt>
      <trkpt lat="40.082950" lon="-5.027283">
        <ele>1274.0</ele>
        <time>2013-07-06T15:02:47Z</time>
      </trkpt>
      <trkpt lat="40.082950" lon="-5.027217">
        <ele>1269.0</ele>
        <time>2013-07-06T15:02:48Z</time>
      </trkpt>
      <trkpt lat="40.082917" lon="-5.027133">
        <ele>1269.0</ele>
        <time>2013-07-06T15:02:49Z</time>
      </trkpt>
      <trkpt lat="40.082867" lon="-5.027050">
        <ele>1270.0</ele>
        <time>2013-07-06T15:02:50Z</time>
      </trkpt>
      <trkpt lat="40.082800" lon="-5.026967">
        <ele>1270.0</ele>
        <time>2013-07-06T15:02:51Z</time>
      </trkpt>
      <trkpt lat="40.082733" lon="-5.026900">
        <ele>1271.0</ele>
        <time>2013-07-06T15:02:52Z</time>
      </trkpt>
      <trkpt lat="40.082650" lon="-5.026883">
        <ele>1272.0</ele>
        <time>2013-07-06T15:02:53Z</time>
      </trkpt>
      <trkpt lat="40.082550" lon="-5.026883">
        <ele>1274.0</ele>
        <time>2013-07-06T15:02:54Z</time>
      </trkpt>
      <trkpt lat="40.082450" lon="-5.026917">
        <ele>1277.0</ele>
        <time>2013-07-06T15:02:55Z</time>
      </trkpt>
      <trkpt lat="40.082367" lon="-5.026967">
        <ele>1279.0</ele>
        <time>2013-07-06T15:02:56Z</time>
      </trkpt>
      <trkpt lat="40.082300" lon="-5.027033">
        <ele>1282.0</ele>
        <time>2013-07-06T15:02:57Z</time>
      </trkpt>
      <trkpt lat="40.082233" lon="-5.027133">
        <ele>1284.0</ele>
        <time>2013-07-06T15:02:58Z</time>
      </trkpt>
      <trkpt lat="40.082150" lon="-5.027233">
        <ele>1284.0</ele>
        <time>2013-07-06T15:02:59Z</time>
      </trkpt>
      <trkpt lat="40.082083" lon="-5.027367">
        <ele>1285.0</ele>
        <time>2013-07-06T15:03:00Z</time>
      </trkpt>
      <trkpt lat="40.082017" lon="-5.027483">
        <ele>1286.0</ele>
        <time>2013-07-06T15:03:01Z</time>
      </trkpt>
      <trkpt lat="40.081983" lon="-5.027600">
        <ele>1288.0</ele>
        <time>2013-07-06T15:03:02Z</time>
      </trkpt>
      <trkpt lat="40.081967" lon="-5.027700">
        <ele>1289.0</ele>
        <time>2013-07-06T15:03:03Z</time>
      </trkpt>
      <trkpt lat="40.081983" lon="-5.027817">
        <ele>1289.0</ele>
        <time>2013-07-06T15:03:04Z</time>
      </trkpt>
      <trkpt lat="40.081983" lon="-5.027917">
        <ele>1289.0</ele>
        <time>2013-07-06T15:03:05Z</time>
      </trkpt>
      <trkpt lat="40.082000" lon="-5.028017">
        <ele>1290.0</ele>
        <time>2013-07-06T15:03:06Z</time>
      </trkpt>
      <trkpt lat="40.082033" lon="-5.028100">
        <ele>1290.0</ele>
        <time>2013-07-06T15:03:07Z</time>
      </trkpt>
      <trkpt lat="40.082050" lon="-5.028167">
        <ele>1290.0</ele>
        <time>2013-07-06T15:03:08Z</time>
      </trkpt>
      <trkpt lat="40.082100" lon="-5.028233">
        <ele>1291.0</ele>
        <time>2013-07-06T15:03:09Z</time>
      </trkpt>
      <trkpt lat="40.082200" lon="-5.028333">
        <ele>1292.0</ele>
        <time>2013-07-06T15:03:11Z</time>
      </trkpt>
      <trkpt lat="40.082267" lon="-5.028367">
        <ele>1292.0</ele>
        <time>2013-07-06T15:03:12Z</time>
      </trkpt>
      <trkpt lat="40.082400" lon="-5.028367">
        <ele>1295.0</ele>
        <time>2013-07-06T15:03:14Z</time>
      </trkpt>
      <trkpt lat="40.082450" lon="-5.028350">
        <ele>1298.0</ele>
        <time>2013-07-06T15:03:15Z</time>
      </trkpt>
      <trkpt lat="40.082500" lon="-5.028333">
        <ele>1300.0</ele>
        <time>2013-07-06T15:03:16Z</time>
      </trkpt>
      <trkpt lat="40.082550" lon="-5.028333">
        <ele>1303.0</ele>
        <time>2013-07-06T15:03:17Z</time>
      </trkpt>
      <trkpt lat="40.082583" lon="-5.028300">
        <ele>1304.0</ele>
        <time>2013-07-06T15:03:18Z</time>
      </trkpt>
      <trkpt lat="40.082600" lon="-5.028267">
        <ele>1305.0</ele>
        <time>2013-07-06T15:03:19Z</time>
      </trkpt>
      <trkpt lat="40.082617" lon="-5.028200">
        <ele>1305.0</ele>
        <time>2013-07-06T15:03:20Z</time>
      </trkpt>
      <trkpt lat="40.082633" lon="-5.028117">
        <ele>1306.0</ele>
        <time>2013-07-06T15:03:21Z</time>
      </trkpt>
      <trkpt lat="40.082600" lon="-5.028017">
        <ele>1307.0</ele>
        <time>2013-07-06T15:03:22Z</time>
      </trkpt>
      <trkpt lat="40.082567" lon="-5.027917">
        <ele>1308.0</ele>
        <time>2013-07-06T15:03:23Z</time>
      </trkpt>
      <trkpt lat="40.082517" lon="-5.027817">
        <ele>1308.0</ele>
        <time>2013-07-06T15:03:24Z</time>
      </trkpt>
      <trkpt lat="40.082450" lon="-5.027733">
        <ele>1309.0</ele>
        <time>2013-07-06T15:03:25Z</time>
      </trkpt>
      <trkpt lat="40.082383" lon="-5.027667">
        <ele>1310.0</ele>
        <time>2013-07-06T15:03:26Z</time>
      </trkpt>
      <trkpt lat="40.082300" lon="-5.027600">
        <ele>1309.0</ele>
        <time>2013-07-06T15:03:27Z</time>
      </trkpt>
      <trkpt lat="40.082200" lon="-5.027583">
        <ele>1309.0</ele>
        <time>2013-07-06T15:03:28Z</time>
      </trkpt>
      <trkpt lat="40.082083" lon="-5.027583">
        <ele>1308.0</ele>
        <time>2013-07-06T15:03:29Z</time>
      </trkpt>
      <trkpt lat="40.081983" lon="-5.027617">
        <ele>1309.0</ele>
        <time>2013-07-06T15:03:30Z</time>
      </trkpt>
      <trkpt lat="40.081900" lon="-5.027667">
        <ele>1309.0</ele>
        <time>2013-07-06T15:03:31Z</time>
      </trkpt>
      <trkpt lat="40.081833" lon="-5.027767">
        <ele>1310.0</ele>
        <time>2013-07-06T15:03:32Z</time>
      </trkpt>
      <trkpt lat="40.081783" lon="-5.027883">
        <ele>1310.0</ele>
        <time>2013-07-06T15:03:33Z</time>
      </trkpt>
      <trkpt lat="40.081733" lon="-5.028000">
        <ele>1309.0</ele>
        <time>2013-07-06T15:03:34Z</time>
      </trkpt>
      <trkpt lat="40.081717" lon="-5.028133">
        <ele>1309.0</ele>
        <time>2013-07-06T15:03:35Z</time>
      </trkpt>
      <trkpt lat="40.081683" lon="-5.028250">
        <ele>1310.0</ele>
        <time>2013-07-06T15:03:36Z</time>
      </trkpt>
      <trkpt lat="40.081683" lon="-5.028367">
        <ele>1310.0</ele>
        <time>2013-07-06T15:03:37Z</time>
      </trkpt>
      <trkpt lat="40.081683" lon="-5.028467">
        <ele>1311.0</ele>
        <time>2013-07-06T15:03:38Z</time>
      </trkpt>
      <trkpt lat="40.081717" lon="-5.028683">
        <ele>1310.0</ele>
        <time>2013-07-06T15:03:40Z</time>
      </trkpt>
      <trkpt lat="40.081750" lon="-5.028800">
        <ele>1309.0</ele>
        <time>2013-07-06T15:03:41Z</time>
      </trkpt>
      <trkpt lat="40.081833" lon="-5.028967">
        <ele>1308.0</ele>
        <time>2013-07-06T15:03:43Z</time>
      </trkpt>
      <trkpt lat="40.081883" lon="-5.029050">
        <ele>1307.0</ele>
        <time>2013-07-06T15:03:44Z</time>
      </trkpt>
      <trkpt lat="40.081950" lon="-5.029117">
        <ele>1306.0</ele>
        <time>2013-07-06T15:03:45Z</time>
      </trkpt>
      <trkpt lat="40.082017" lon="-5.029150">
        <ele>1305.0</ele>
        <time>2013-07-06T15:03:46Z</time>
      </trkpt>
      <trkpt lat="40.082100" lon="-5.029183">
        <ele>1304.0</ele>
        <time>2013-07-06T15:03:47Z</time>
      </trkpt>
      <trkpt lat="40.082250" lon="-5.029150">
        <ele>1303.0</ele>
        <time>2013-07-06T15:03:49Z</time>
      </trkpt>
      <trkpt lat="40.082317" lon="-5.029133">
        <ele>1303.0</ele>
        <time>2013-07-06T15:03:50Z</time>
      </trkpt>
      <trkpt lat="40.082367" lon="-5.029117">
        <ele>1305.0</ele>
        <time>2013-07-06T15:03:51Z</time>
      </trkpt>
      <trkpt lat="40.082383" lon="-5.029100">
        <ele>1307.0</ele>
        <time>2013-07-06T15:03:52Z</time>
      </trkpt>
      <trkpt lat="40.082417" lon="-5.029083">
        <ele>1308.0</ele>
        <time>2013-07-06T15:03:53Z</time>
      </trkpt>
      <trkpt lat="40.082450" lon="-5.029067">
        <ele>1308.0</ele>
        <time>2013-07-06T15:03:54Z</time>
      </trkpt>
      <trkpt lat="40.082500" lon="-5.029033">
        <ele>1308.0</ele>
        <time>2013-07-06T15:03:55Z</time>
      </trkpt>
      <trkpt lat="40.082583" lon="-5.029000">
        <ele>1306.0</ele>
        <time>2013-07-06T15:03:56Z</time>
      </trkpt>
      <trkpt lat="40.082633" lon="-5.028983">
        <ele>1307.0</ele>
        <time>2013-07-06T15:03:57Z</time>
      </trkpt>
      <trkpt lat="40.082700" lon="-5.028967">
        <ele>1308.0</ele>
        <time>2013-07-06T15:03:58Z</time>
      </trkpt>
      <trkpt lat="40.082733" lon="-5.028950">
        <ele>1309.0</ele>
        <time>2013-07-06T15:03:59Z</time>
      </trkpt>
      <trkpt lat="40.082783" lon="-5.028900">
        <ele>1309.0</ele>
        <time>2013-07-06T15:04:00Z</time>
      </trkpt>
      <trkpt lat="40.082800" lon="-5.028833">
        <ele>1310.0</ele>
        <time>2013-07-06T15:04:01Z</time>
      </trkpt>
      <trkpt lat="40.082817" lon="-5.028733">
        <ele>1310.0</ele>
        <time>2013-07-06T15:04:02Z</time>
      </trkpt>
      <trkpt lat="40.082817" lon="-5.028633">
        <ele>1311.0</ele>
        <time>2013-07-06T15:04:03Z</time>
      </trkpt>
      <trkpt lat="40.082767" lon="-5.028533">
        <ele>1312.0</ele>
        <time>2013-07-06T15:04:04Z</time>
      </trkpt>
      <trkpt lat="40.082717" lon="-5.028467">
        <ele>1313.0</ele>
        <time>2013-07-06T15:04:05Z</time>
      </trkpt>
      <trkpt lat="40.082633" lon="-5.028433">
        <ele>1315.0</ele>
        <time>2013-07-06T15:04:06Z</time>
      </trkpt>
      <trkpt lat="40.082567" lon="-5.028433">
        <ele>1317.0</ele>
        <time>2013-07-06T15:04:07Z</time>
      </trkpt>
      <trkpt lat="40.082500" lon="-5.028450">
        <ele>1317.0</ele>
        <time>2013-07-06T15:04:08Z</time>
      </trkpt>
      <trkpt lat="40.082417" lon="-5.028467">
        <ele>1316.0</ele>
        <time>2013-07-06T15:04:09Z</time>
      </trkpt>
      <trkpt lat="40.082317" lon="-5.028517">
        <ele>1316.0</ele>
        <time>2013-07-06T15:04:10Z</time>
      </trkpt>
      <trkpt lat="40.082217" lon="-5.028567">
        <ele>1315.0</ele>
        <time>2013-07-06T15:04:11Z</time>
      </trkpt>
      <trkpt lat="40.082117" lon="-5.028633">
        <ele>1314.0</ele>
        <time>2013-07-06T15:04:12Z</time>
      </trkpt>
      <trkpt lat="40.082033" lon="-5.028717">
        <ele>1315.0</ele>
        <time>2013-07-06T15:04:13Z</time>
      </trkpt>
      <trkpt lat="40.081967" lon="-5.028800">
        <ele>1315.0</ele>
        <time>2013-07-06T15:04:14Z</time>
      </trkpt>
      <trkpt lat="40.081917" lon="-5.028900">
        <ele>1316.0</ele>
        <time>2013-07-06T15:04:15Z</time>
      </trkpt>
      <trkpt lat="40.081867" lon="-5.029017">
        <ele>1316.0</ele>
        <time>2013-07-06T15:04:16Z</time>
      </trkpt>
      <trkpt lat="40.081850" lon="-5.029133">
        <ele>1315.0</ele>
        <time>2013-07-06T15:04:17Z</time>
      </trkpt>
      <trkpt lat="40.081850" lon="-5.029267">
        <ele>1314.0</ele>
        <time>2013-07-06T15:04:18Z</time>
      </trkpt>
      <trkpt lat="40.081850" lon="-5.029383">
        <ele>1313.0</ele>
        <time>2013-07-06T15:04:19Z</time>
      </trkpt>
      <trkpt lat="40.081867" lon="-5.029500">
        <ele>1314.0</ele>
        <time>2013-07-06T15:04:20Z</time>
      </trkpt>
      <trkpt lat="40.081883" lon="-5.029583">
        <ele>1314.0</ele>
        <time>2013-07-06T15:04:21Z</time>
      </trkpt>
      <trkpt lat="40.081900" lon="-5.029700">
        <ele>1313.0</ele>
        <time>2013-07-06T15:04:22Z</time>
      </trkpt>
      <trkpt lat="40.081933" lon="-5.029800">
        <ele>1312.0</ele>
        <time>2013-07-06T15:04:23Z</time>
      </trkpt>
      <trkpt lat="40.081967" lon="-5.029917">
        <ele>1310.0</ele>
        <time>2013-07-06T15:04:24Z</time>
      </trkpt>
      <trkpt lat="40.082017" lon="-5.030000">
        <ele>1309.0</ele>
        <time>2013-07-06T15:04:25Z</time>
      </trkpt>
      <trkpt lat="40.082083" lon="-5.030083">
        <ele>1309.0</ele>
        <time>2013-07-06T15:04:26Z</time>
      </trkpt>
      <trkpt lat="40.082117" lon="-5.030150">
        <ele>1309.0</ele>
        <time>2013-07-06T15:04:27Z</time>
      </trkpt>
      <trkpt lat="40.082167" lon="-5.030217">
        <ele>1309.0</ele>
        <time>2013-07-06T15:04:28Z</time>
      </trkpt>
      <trkpt lat="40.082233" lon="-5.030267">
        <ele>1309.0</ele>
        <time>2013-07-06T15:04:29Z</time>
      </trkpt>
      <trkpt lat="40.082283" lon="-5.030300">
        <ele>1308.0</ele>
        <time>2013-07-06T15:04:30Z</time>
      </trkpt>
      <trkpt lat="40.082350" lon="-5.030317">
        <ele>1307.0</ele>
        <time>2013-07-06T15:04:31Z</time>
      </trkpt>
      <trkpt lat="40.082417" lon="-5.030317">
        <ele>1306.0</ele>
        <time>2013-07-06T15:04:32Z</time>
      </trkpt>
      <trkpt lat="40.082483" lon="-5.030317">
        <ele>1307.0</ele>
        <time>2013-07-06T15:04:33Z</time>
      </trkpt>
      <trkpt lat="40.082533" lon="-5.030300">
        <ele>1308.0</ele>
        <time>2013-07-06T15:04:34Z</time>
      </trkpt>
      <trkpt lat="40.082600" lon="-5.030233">
        <ele>1308.0</ele>
        <time>2013-07-06T15:04:36Z</time>
      </trkpt>
      <trkpt lat="40.082650" lon="-5.030183">
        <ele>1308.0</ele>
        <time>2013-07-06T15:04:37Z</time>
      </trkpt>
      <trkpt lat="40.082700" lon="-5.030133">
        <ele>1308.0</ele>
        <time>2013-07-06T15:04:38Z</time>
      </trkpt>
      <trkpt lat="40.082733" lon="-5.030117">
        <ele>1309.0</ele>
        <time>2013-07-06T15:04:39Z</time>
      </trkpt>
      <trkpt lat="40.082767" lon="-5.030083">
        <ele>1310.0</ele>
        <time>2013-07-06T15:04:40Z</time>
      </trkpt>
      <trkpt lat="40.082800" lon="-5.030050">
        <ele>1312.0</ele>
        <time>2013-07-06T15:04:41Z</time>
      </trkpt>
      <trkpt lat="40.082833" lon="-5.030017">
        <ele>1313.0</ele>
        <time>2013-07-06T15:04:42Z</time>
      </trkpt>
      <trkpt lat="40.082867" lon="-5.029967">
        <ele>1313.0</ele>
        <time>2013-07-06T15:04:43Z</time>
      </trkpt>
      <trkpt lat="40.082917" lon="-5.029917">
        <ele>1314.0</ele>
        <time>2013-07-06T15:04:44Z</time>
      </trkpt>
      <trkpt lat="40.082950" lon="-5.029867">
        <ele>1314.0</ele>
        <time>2013-07-06T15:04:45Z</time>
      </trkpt>
      <trkpt lat="40.083000" lon="-5.029833">
        <ele>1315.0</ele>
        <time>2013-07-06T15:04:46Z</time>
      </trkpt>
      <trkpt lat="40.083033" lon="-5.029800">
        <ele>1316.0</ele>
        <time>2013-07-06T15:04:47Z</time>
      </trkpt>
      <trkpt lat="40.083133" lon="-5.029700">
        <ele>1316.0</ele>
        <time>2013-07-06T15:04:49Z</time>
      </trkpt>
      <trkpt lat="40.083167" lon="-5.029650">
        <ele>1318.0</ele>
        <time>2013-07-06T15:04:50Z</time>
      </trkpt>
      <trkpt lat="40.083200" lon="-5.029617">
        <ele>1321.0</ele>
        <time>2013-07-06T15:04:51Z</time>
      </trkpt>
      <trkpt lat="40.083267" lon="-5.029567">
        <ele>1326.0</ele>
        <time>2013-07-06T15:04:53Z</time>
      </trkpt>
      <trkpt lat="40.083317" lon="-5.029533">
        <ele>1327.0</ele>
        <time>2013-07-06T15:04:54Z</time>
      </trkpt>
      <trkpt lat="40.083383" lon="-5.029517">
        <ele>1328.0</ele>
        <time>2013-07-06T15:04:55Z</time>
      </trkpt>
      <trkpt lat="40.083433" lon="-5.029483">
        <ele>1328.0</ele>
        <time>2013-07-06T15:04:56Z</time>
      </trkpt>
      <trkpt lat="40.083483" lon="-5.029433">
        <ele>1331.0</ele>
        <time>2013-07-06T15:04:57Z</time>
      </trkpt>
      <trkpt lat="40.083533" lon="-5.029383">
        <ele>1334.0</ele>
        <time>2013-07-06T15:04:58Z</time>
      </trkpt>
      <trkpt lat="40.083550" lon="-5.029283">
        <ele>1338.0</ele>
        <time>2013-07-06T15:05:00Z</time>
      </trkpt>
      <trkpt lat="40.083550" lon="-5.029200">
        <ele>1339.0</ele>
        <time>2013-07-06T15:05:01Z</time>
      </trkpt>
      <trkpt lat="40.083533" lon="-5.029100">
        <ele>1341.0</ele>
        <time>2013-07-06T15:05:02Z</time>
      </trkpt>
      <trkpt lat="40.083467" lon="-5.029000">
        <ele>1342.0</ele>
        <time>2013-07-06T15:05:03Z</time>
      </trkpt>
      <trkpt lat="40.083383" lon="-5.028917">
        <ele>1342.0</ele>
        <time>2013-07-06T15:05:04Z</time>
      </trkpt>
      <trkpt lat="40.083283" lon="-5.028900">
        <ele>1341.0</ele>
        <time>2013-07-06T15:05:05Z</time>
      </trkpt>
      <trkpt lat="40.083167" lon="-5.028917">
        <ele>1341.0</ele>
        <time>2013-07-06T15:05:06Z</time>
      </trkpt>
      <trkpt lat="40.083067" lon="-5.028967">
        <ele>1342.0</ele>
        <time>2013-07-06T15:05:07Z</time>
      </trkpt>
      <trkpt lat="40.082967" lon="-5.029067">
        <ele>1343.0</ele>
        <time>2013-07-06T15:05:08Z</time>
      </trkpt>
      <trkpt lat="40.082900" lon="-5.029167">
        <ele>1346.0</ele>
        <time>2013-07-06T15:05:09Z</time>
      </trkpt>
      <trkpt lat="40.082850" lon="-5.029283">
        <ele>1349.0</ele>
        <time>2013-07-06T15:05:10Z</time>
      </trkpt>
      <trkpt lat="40.082817" lon="-5.029400">
        <ele>1350.0</ele>
        <time>2013-07-06T15:05:11Z</time>
      </trkpt>
      <trkpt lat="40.082800" lon="-5.029533">
        <ele>1351.0</ele>
        <time>2013-07-06T15:05:12Z</time>
      </trkpt>
      <trkpt lat="40.082783" lon="-5.029667">
        <ele>1352.0</ele>
        <time>2013-07-06T15:05:13Z</time>
      </trkpt>
      <trkpt lat="40.082783" lon="-5.029817">
        <ele>1353.0</ele>
        <time>2013-07-06T15:05:14Z</time>
      </trkpt>
      <trkpt lat="40.082817" lon="-5.029933">
        <ele>1354.0</ele>
        <time>2013-07-06T15:05:15Z</time>
      </trkpt>
      <trkpt lat="40.082850" lon="-5.030050">
        <ele>1355.0</ele>
        <time>2013-07-06T15:05:16Z</time>
      </trkpt>
      <trkpt lat="40.082900" lon="-5.030117">
        <ele>1357.0</ele>
        <time>2013-07-06T15:05:17Z</time>
      </trkpt>
      <trkpt lat="40.082950" lon="-5.030167">
        <ele>1359.0</ele>
        <time>2013-07-06T15:05:18Z</time>
      </trkpt>
      <trkpt lat="40.083017" lon="-5.030217">
        <ele>1360.0</ele>
        <time>2013-07-06T15:05:19Z</time>
      </trkpt>
      <trkpt lat="40.083083" lon="-5.030267">
        <ele>1361.0</ele>
        <time>2013-07-06T15:05:20Z</time>
      </trkpt>
      <trkpt lat="40.083150" lon="-5.030300">
        <ele>1363.0</ele>
        <time>2013-07-06T15:05:21Z</time>
      </trkpt>
      <trkpt lat="40.083217" lon="-5.030317">
        <ele>1365.0</ele>
        <time>2013-07-06T15:05:22Z</time>
      </trkpt>
      <trkpt lat="40.083283" lon="-5.030333">
        <ele>1367.0</ele>
        <time>2013-07-06T15:05:23Z</time>
      </trkpt>
      <trkpt lat="40.083350" lon="-5.030333">
        <ele>1370.0</ele>
        <time>2013-07-06T15:05:24Z</time>
      </trkpt>
      <trkpt lat="40.083417" lon="-5.030333">
        <ele>1372.0</ele>
        <time>2013-07-06T15:05:25Z</time>
      </trkpt>
      <trkpt lat="40.083483" lon="-5.030317">
        <ele>1373.0</ele>
        <time>2013-07-06T15:05:26Z</time>
      </trkpt>
      <trkpt lat="40.083550" lon="-5.030283">
        <ele>1375.0</ele>
        <time>2013-07-06T15:05:27Z</time>
      </trkpt>
      <trkpt lat="40.083617" lon="-5.030250">
        <ele>1378.0</ele>
        <time>2013-07-06T15:05:28Z</time>
      </trkpt>
      <trkpt lat="40.083683" lon="-5.030233">
        <ele>1380.0</ele>
        <time>2013-07-06T15:05:29Z</time>
      </trkpt>
      <trkpt lat="40.083733" lon="-5.030217">
        <ele>1383.0</ele>
        <time>2013-07-06T15:05:30Z</time>
      </trkpt>
      <trkpt lat="40.083783" lon="-5.030183">
        <ele>1386.0</ele>
        <time>2013-07-06T15:05:31Z</time>
      </trkpt>
      <trkpt lat="40.083850" lon="-5.030150">
        <ele>1388.0</ele>
        <time>2013-07-06T15:05:32Z</time>
      </trkpt>
      <trkpt lat="40.083950" lon="-5.030050">
        <ele>1393.0</ele>
        <time>2013-07-06T15:05:34Z</time>
      </trkpt>
      <trkpt lat="40.083983" lon="-5.029983">
        <ele>1395.0</ele>
        <time>2013-07-06T15:05:35Z</time>
      </trkpt>
      <trkpt lat="40.084000" lon="-5.029883">
        <ele>1398.0</ele>
        <time>2013-07-06T15:05:36Z</time>
      </trkpt>
      <trkpt lat="40.083983" lon="-5.029783">
        <ele>1400.0</ele>
        <time>2013-07-06T15:05:37Z</time>
      </trkpt>
      <trkpt lat="40.083950" lon="-5.029683">
        <ele>1403.0</ele>
        <time>2013-07-06T15:05:38Z</time>
      </trkpt>
      <trkpt lat="40.083883" lon="-5.029617">
        <ele>1406.0</ele>
        <time>2013-07-06T15:05:39Z</time>
      </trkpt>
      <trkpt lat="40.083800" lon="-5.029550">
        <ele>1408.0</ele>
        <time>2013-07-06T15:05:40Z</time>
      </trkpt>
      <trkpt lat="40.083700" lon="-5.029533">
        <ele>1410.0</ele>
        <time>2013-07-06T15:05:41Z</time>
      </trkpt>
      <trkpt lat="40.083600" lon="-5.029567">
        <ele>1412.0</ele>
        <time>2013-07-06T15:05:42Z</time>
      </trkpt>
      <trkpt lat="40.083500" lon="-5.029617">
        <ele>1414.0</ele>
        <time>2013-07-06T15:05:43Z</time>
      </trkpt>
      <trkpt lat="40.083417" lon="-5.029700">
        <ele>1416.0</ele>
        <time>2013-07-06T15:05:44Z</time>
      </trkpt>
      <trkpt lat="40.083367" lon="-5.029817">
        <ele>1418.0</ele>
        <time>2013-07-06T15:05:45Z</time>
      </trkpt>
      <trkpt lat="40.083333" lon="-5.029917">
        <ele>1421.0</ele>
        <time>2013-07-06T15:05:46Z</time>
      </trkpt>
      <trkpt lat="40.083333" lon="-5.030017">
        <ele>1424.0</ele>
        <time>2013-07-06T15:05:47Z</time>
      </trkpt>
      <trkpt lat="40.083350" lon="-5.030117">
        <ele>1427.0</ele>
        <time>2013-07-06T15:05:48Z</time>
      </trkpt>
      <trkpt lat="40.083367" lon="-5.030217">
        <ele>1430.0</ele>
        <time>2013-07-06T15:05:49Z</time>
      </trkpt>
      <trkpt lat="40.083400" lon="-5.030317">
        <ele>1432.0</ele>
        <time>2013-07-06T15:05:50Z</time>
      </trkpt>
      <trkpt lat="40.083450" lon="-5.030400">
        <ele>1435.0</ele>
        <time>2013-07-06T15:05:51Z</time>
      </trkpt>
      <trkpt lat="40.083517" lon="-5.030450">
        <ele>1437.0</ele>
        <time>2013-07-06T15:05:52Z</time>
      </trkpt>
      <trkpt lat="40.083583" lon="-5.030467">
        <ele>1439.0</ele>
        <time>2013-07-06T15:05:53Z</time>
      </trkpt>
      <trkpt lat="40.083650" lon="-5.030483">
        <ele>1442.0</ele>
        <time>2013-07-06T15:05:54Z</time>
      </trkpt>
      <trkpt lat="40.083700" lon="-5.030467">
        <ele>1445.0</ele>
        <time>2013-07-06T15:05:55Z</time>
      </trkpt>
      <trkpt lat="40.083750" lon="-5.030433">
        <ele>1448.0</ele>
        <time>2013-07-06T15:05:56Z</time>
      </trkpt>
      <trkpt lat="40.083817" lon="-5.030383">
        <ele>1450.0</ele>
        <time>2013-07-06T15:05:57Z</time>
      </trkpt>
      <trkpt lat="40.083883" lon="-5.030217">
        <ele>1455.0</ele>
        <time>2013-07-06T15:05:59Z</time>
      </trkpt>
      <trkpt lat="40.083883" lon="-5.030133">
        <ele>1459.0</ele>
        <time>2013-07-06T15:06:00Z</time>
      </trkpt>
      <trkpt lat="40.083850" lon="-5.030050">
        <ele>1462.0</ele>
        <time>2013-07-06T15:06:01Z</time>
      </trkpt>
      <trkpt lat="40.083817" lon="-5.029983">
        <ele>1465.0</ele>
        <time>2013-07-06T15:06:02Z</time>
      </trkpt>
      <trkpt lat="40.083783" lon="-5.029900">
        <ele>1467.0</ele>
        <time>2013-07-06T15:06:03Z</time>
      </trkpt>
      <trkpt lat="40.083717" lon="-5.029817">
        <ele>1470.0</ele>
        <time>2013-07-06T15:06:04Z</time>
      </trkpt>
      <trkpt lat="40.083650" lon="-5.029750">
        <ele>1472.0</ele>
        <time>2013-07-06T15:06:05Z</time>
      </trkpt>
      <trkpt lat="40.083550" lon="-5.029683">
        <ele>1473.0</ele>
        <time>2013-07-06T15:06:06Z</time>
      </trkpt>
      <trkpt lat="40.083433" lon="-5.029667">
        <ele>1475.0</ele>
        <time>2013-07-06T15:06:07Z</time>
      </trkpt>
      <trkpt lat="40.083317" lon="-5.029667">
        <ele>1478.0</ele>
        <time>2013-07-06T15:06:08Z</time>
      </trkpt>
      <trkpt lat="40.083217" lon="-5.029700">
        <ele>1482.0</ele>
        <time>2013-07-06T15:06:09Z</time>
      </trkpt>
      <trkpt lat="40.083133" lon="-5.029750">
        <ele>1486.0</ele>
        <time>2013-07-06T15:06:10Z</time>
      </trkpt>
      <trkpt lat="40.083050" lon="-5.029833">
        <ele>1488.0</ele>
        <time>2013-07-06T15:06:11Z</time>
      </trkpt>
      <trkpt lat="40.083000" lon="-5.029933">
        <ele>1490.0</ele>
        <time>2013-07-06T15:06:12Z</time>
      </trkpt>
      <trkpt lat="40.082933" lon="-5.030033">
        <ele>1492.0</ele>
        <time>2013-07-06T15:06:13Z</time>
      </trkpt>
      <trkpt lat="40.082900" lon="-5.030133">
        <ele>1495.0</ele>
        <time>2013-07-06T15:06:14Z</time>
      </trkpt>
      <trkpt lat="40.082867" lon="-5.030250">
        <ele>1497.0</ele>
        <time>2013-07-06T15:06:15Z</time>
      </trkpt>
      <trkpt lat="40.082867" lon="-5.030367">
        <ele>1499.0</ele>
        <time>2013-07-06T15:06:16Z</time>
      </trkpt>
      <trkpt lat="40.082867" lon="-5.030483">
        <ele>1502.0</ele>
        <time>2013-07-06T15:06:17Z</time>
      </trkpt>
      <trkpt lat="40.082883" lon="-5.030583">
        <ele>1504.0</ele>
        <time>2013-07-06T15:06:18Z</time>
      </trkpt>
      <trkpt lat="40.082917" lon="-5.030683">
        <ele>1506.0</ele>
        <time>2013-07-06T15:06:19Z</time>
      </trkpt>
      <trkpt lat="40.082967" lon="-5.030783">
        <ele>1509.0</ele>
        <time>2013-07-06T15:06:20Z</time>
      </trkpt>
      <trkpt lat="40.083017" lon="-5.030833">
        <ele>1512.0</ele>
        <time>2013-07-06T15:06:21Z</time>
      </trkpt>
      <trkpt lat="40.083083" lon="-5.030883">
        <ele>1515.0</ele>
        <time>2013-07-06T15:06:22Z</time>
      </trkpt>
      <trkpt lat="40.083167" lon="-5.030900">
        <ele>1517.0</ele>
        <time>2013-07-06T15:06:23Z</time>
      </trkpt>
      <trkpt lat="40.083233" lon="-5.030900">
        <ele>1520.0</ele>
        <time>2013-07-06T15:06:24Z</time>
      </trkpt>
      <trkpt lat="40.083317" lon="-5.030867">
        <ele>1523.0</ele>
        <time>2013-07-06T15:06:25Z</time>
      </trkpt>
      <trkpt lat="40.083367" lon="-5.030817">
        <ele>1526.0</ele>
        <time>2013-07-06T15:06:26Z</time>
      </trkpt>
      <trkpt lat="40.083417" lon="-5.030667">
        <ele>1531.0</ele>
        <time>2013-07-06T15:06:28Z</time>
      </trkpt>
      <trkpt lat="40.083417" lon="-5.030567">
        <ele>1534.0</ele>
        <time>2013-07-06T15:06:29Z</time>
      </trkpt>
      <trkpt lat="40.083417" lon="-5.030483">
        <ele>1536.0</ele>
        <time>2013-07-06T15:06:30Z</time>
      </trkpt>
      <trkpt lat="40.083383" lon="-5.030400">
        <ele>1539.0</ele>
        <time>2013-07-06T15:06:31Z</time>
      </trkpt>
      <trkpt lat="40.083333" lon="-5.030317">
        <ele>1541.0</ele>
        <time>2013-07-06T15:06:32Z</time>
      </trkpt>
      <trkpt lat="40.083250" lon="-5.030250">
        <ele>1542.0</ele>
        <time>2013-07-06T15:06:33Z</time>
      </trkpt>
      <trkpt lat="40.083167" lon="-5.030200">
        <ele>1544.0</ele>
        <time>2013-07-06T15:06:34Z</time>
      </trkpt>
      <trkpt lat="40.083083" lon="-5.030150">
        <ele>1545.0</ele>
        <time>2013-07-06T15:06:35Z</time>
      </trkpt>
      <trkpt lat="40.082967" lon="-5.030117">
        <ele>1545.0</ele>
        <time>2013-07-06T15:06:36Z</time>
      </trkpt>
      <trkpt lat="40.082850" lon="-5.030117">
        <ele>1546.0</ele>
        <time>2013-07-06T15:06:37Z</time>
      </trkpt>
      <trkpt lat="40.082750" lon="-5.030150">
        <ele>1548.0</ele>
        <time>2013-07-06T15:06:38Z</time>
      </trkpt>
      <trkpt lat="40.082650" lon="-5.030200">
        <ele>1550.0</ele>
        <time>2013-07-06T15:06:39Z</time>
      </trkpt>
      <trkpt lat="40.082567" lon="-5.030283">
        <ele>1552.0</ele>
        <time>2013-07-06T15:06:40Z</time>
      </trkpt>
      <trkpt lat="40.082500" lon="-5.030400">
        <ele>1554.0</ele>
        <time>2013-07-06T15:06:41Z</time>
      </trkpt>
      <trkpt lat="40.082467" lon="-5.030500">
        <ele>1556.0</ele>
        <time>2013-07-06T15:06:42Z</time>
      </trkpt>
      <trkpt lat="40.082450" lon="-5.030617">
        <ele>1558.0</ele>
        <time>2013-07-06T15:06:43Z</time>
      </trkpt>
      <trkpt lat="40.082450" lon="-5.030733">
        <ele>1561.0</ele>
        <time>2013-07-06T15:06:44Z</time>
      </trkpt>
      <trkpt lat="40.082467" lon="-5.030833">
        <ele>1563.0</ele>
        <time>2013-07-06T15:06:45Z</time>
      </trkpt>
      <trkpt lat="40.082483" lon="-5.030950">
        <ele>1565.0</ele>
        <time>2013-07-06T15:06:46Z</time>
      </trkpt>
      <trkpt lat="40.082533" lon="-5.031033">
        <ele>1567.0</ele>
        <time>2013-07-06T15:06:47Z</time>
      </trkpt>
      <trkpt lat="40.082600" lon="-5.031100">
        <ele>1569.0</ele>
        <time>2013-07-06T15:06:48Z</time>
      </trkpt>
      <trkpt lat="40.082650" lon="-5.031150">
        <ele>1572.0</ele>
        <time>2013-07-06T15:06:49Z</time>
      </trkpt>
      <trkpt lat="40.082717" lon="-5.031167">
        <ele>1575.0</ele>
        <time>2013-07-06T15:06:50Z</time>
      </trkpt>
      <trkpt lat="40.082767" lon="-5.031167">
        <ele>1578.0</ele>
        <time>2013-07-06T15:06:51Z</time>
      </trkpt>
      <trkpt lat="40.082833" lon="-5.031150">
        <ele>1580.0</ele>
        <time>2013-07-06T15:06:52Z</time>
      </trkpt>
      <trkpt lat="40.082867" lon="-5.031100">
        <ele>1583.0</ele>
        <time>2013-07-06T15:06:53Z</time>
      </trkpt>
      <trkpt lat="40.082917" lon="-5.031033">
        <ele>1585.0</ele>
        <time>2013-07-06T15:06:54Z</time>
      </trkpt>
      <trkpt lat="40.082917" lon="-5.030933">
        <ele>1587.0</ele>
        <time>2013-07-06T15:06:55Z</time>
      </trkpt>
      <trkpt lat="40.082917" lon="-5.030833">
        <ele>1590.0</ele>
        <time>2013-07-06T15:06:56Z</time>
      </trkpt>
      <trkpt lat="40.082883" lon="-5.030733">
        <ele>1592.0</ele>
        <time>2013-07-06T15:06:57Z</time>
      </trkpt>
      <trkpt lat="40.082833" lon="-5.030650">
        <ele>1594.0</ele>
        <time>2013-07-06T15:06:58Z</time>
      </trkpt>
      <trkpt lat="40.082767" lon="-5.030583">
        <ele>1596.0</ele>
        <time>2013-07-06T15:06:59Z</time>
      </trkpt>
      <trkpt lat="40.082683" lon="-5.030533">
        <ele>1598.0</ele>
        <time>2013-07-06T15:07:00Z</time>
      </trkpt>
      <trkpt lat="40.082583" lon="-5.030483">
        <ele>1600.0</ele>
        <time>2013-07-06T15:07:01Z</time>
      </trkpt>
      <trkpt lat="40.082483" lon="-5.030467">
        <ele>1602.0</ele>
        <time>2013-07-06T15:07:02Z</time>
      </trkpt>
      <trkpt lat="40.082383" lon="-5.030467">
        <ele>1604.0</ele>
        <time>2013-07-06T15:07:03Z</time>
      </trkpt>
      <trkpt lat="40.082300" lon="-5.030483">
        <ele>1605.0</ele>
        <time>2013-07-06T15:07:04Z</time>
      </trkpt>
      <trkpt lat="40.082200" lon="-5.030533">
        <ele>1607.0</ele>
        <time>2013-07-06T15:07:05Z</time>
      </trkpt>
      <trkpt lat="40.082100" lon="-5.030600">
        <ele>1608.0</ele>
        <time>2013-07-06T15:07:06Z</time>
      </trkpt>
      <trkpt lat="40.082033" lon="-5.030700">
        <ele>1609.0</ele>
        <time>2013-07-06T15:07:07Z</time>
      </trkpt>
      <trkpt lat="40.081983" lon="-5.030800">
        <ele>1611.0</ele>
        <time>2013-07-06T15:07:08Z</time>
      </trkpt>
      <trkpt lat="40.081933" lon="-5.030917">
        <ele>1613.0</ele>
        <time>2013-07-06T15:07:09Z</time>
      </trkpt>
      <trkpt lat="40.081917" lon="-5.031050">
        <ele>1615.0</ele>
        <time>2013-07-06T15:07:10Z</time>
      </trkpt>
      <trkpt lat="40.081917" lon="-5.031167">
        <ele>1617.0</ele>
        <time>2013-07-06T15:07:11Z</time>
      </trkpt>
      <trkpt lat="40.081933" lon="-5.031283">
        <ele>1620.0</ele>
        <time>2013-07-06T15:07:12Z</time>
      </trkpt>
      <trkpt lat="40.081950" lon="-5.031383">
        <ele>1622.0</ele>
        <time>2013-07-06T15:07:13Z</time>
      </trkpt>
      <trkpt lat="40.081967" lon="-5.031467">
        <ele>1625.0</ele>
        <time>2013-07-06T15:07:14Z</time>
      </trkpt>
      <trkpt lat="40.082000" lon="-5.031567">
        <ele>1627.0</ele>
        <time>2013-07-06T15:07:15Z</time>
      </trkpt>
      <trkpt lat="40.082050" lon="-5.031650">
        <ele>1630.0</ele>
        <time>2013-07-06T15:07:16Z</time>
      </trkpt>
      <trkpt lat="40.082100" lon="-5.031717">
        <ele>1632.0</ele>
        <time>2013-07-06T15:07:17Z</time>
      </trkpt>
      <trkpt lat="40.082150" lon="-5.031783">
        <ele>1635.0</ele>
        <time>2013-07-06T15:07:18Z</time>
      </trkpt>
      <trkpt lat="40.082200" lon="-5.031833">
        <ele>1638.0</ele>
        <time>2013-07-06T15:07:19Z</time>
      </trkpt>
      <trkpt lat="40.082267" lon="-5.031850">
        <ele>1641.0</ele>
        <time>2013-07-06T15:07:20Z</time>
      </trkpt>
      <trkpt lat="40.082333" lon="-5.031867">
        <ele>1643.0</ele>
        <time>2013-07-06T15:07:21Z</time>
      </trkpt>
      <trkpt lat="40.082383" lon="-5.031850">
        <ele>1645.0</ele>
        <time>2013-07-06T15:07:22Z</time>
      </trkpt>
      <trkpt lat="40.082450" lon="-5.031817">
        <ele>1647.0</ele>
        <time>2013-07-06T15:07:23Z</time>
      </trkpt>
      <trkpt lat="40.082533" lon="-5.031783">
        <ele>1649.0</ele>
        <time>2013-07-06T15:07:24Z</time>
      </trkpt>
      <trkpt lat="40.082583" lon="-5.031717">
        <ele>1651.0</ele>
        <time>2013-07-06T15:07:25Z</time>
      </trkpt>
      <trkpt lat="40.082633" lon="-5.031650">
        <ele>1653.0</ele>
        <time>2013-07-06T15:07:26Z</time>
      </trkpt>
      <trkpt lat="40.082667" lon="-5.031567">
        <ele>1656.0</ele>
        <time>2013-07-06T15:07:27Z</time>
      </trkpt>
      <trkpt lat="40.082667" lon="-5.031467">
        <ele>1658.0</ele>
        <time>2013-07-06T15:07:28Z</time>
      </trkpt>
      <trkpt lat="40.082650" lon="-5.031383">
        <ele>1660.0</ele>
        <time>2013-07-06T15:07:29Z</time>
      </trkpt>
      <trkpt lat="40.082617" lon="-5.031283">
        <ele>1663.0</ele>
        <time>2013-07-06T15:07:30Z</time>
      </trkpt>
      <trkpt lat="40.082567" lon="-5.031183">
        <ele>1665.0</ele>
        <time>2013-07-06T15:07:31Z</time>
      </trkpt>
      <trkpt lat="40.082500" lon="-5.031100">
        <ele>1667.0</ele>
        <time>2013-07-06T15:07:32Z</time>
      </trkpt>
      <trkpt lat="40.082417" lon="-5.031033">
        <ele>1670.0</ele>
        <time>2013-07-06T15:07:33Z</time>
      </trkpt>
      <trkpt lat="40.082317" lon="-5.031017">
        <ele>1673.0</ele>
        <time>2013-07-06T15:07:34Z</time>
      </trkpt>
      <trkpt lat="40.082217" lon="-5.031033">
        <ele>1674.0</ele>
        <time>2013-07-06T15:07:35Z</time>
      </trkpt>
      <trkpt lat="40.082100" lon="-5.031083">
        <ele>1676.0</ele>
        <time>2013-07-06T15:07:36Z</time>
      </trkpt>
      <trkpt lat="40.082017" lon="-5.031150">
        <ele>1680.0</ele>
        <time>2013-07-06T15:07:37Z</time>
      </trkpt>
      <trkpt lat="40.081950" lon="-5.031233">
        <ele>1683.0</ele>
        <time>2013-07-06T15:07:38Z</time>
      </trkpt>
      <trkpt lat="40.081883" lon="-5.031317">
        <ele>1686.0</ele>
        <time>2013-07-06T15:07:39Z</time>
      </trkpt>
      <trkpt lat="40.081850" lon="-5.031417">
        <ele>1690.0</ele>
        <time>2013-07-06T15:07:40Z</time>
      </trkpt>
      <trkpt lat="40.081833" lon="-5.031533">
        <ele>1692.0</ele>
        <time>2013-07-06T15:07:41Z</time>
      </trkpt>
      <trkpt lat="40.081833" lon="-5.031650">
        <ele>1694.0</ele>
        <time>2013-07-06T15:07:42Z</time>
      </trkpt>
      <trkpt lat="40.081833" lon="-5.031767">
        <ele>1696.0</ele>
        <time>2013-07-06T15:07:43Z</time>
      </trkpt>
      <trkpt lat="40.081867" lon="-5.031867">
        <ele>1699.0</ele>
        <time>2013-07-06T15:07:44Z</time>
      </trkpt>
      <trkpt lat="40.081900" lon="-5.031950">
        <ele>1703.0</ele>
        <time>2013-07-06T15:07:45Z</time>
      </trkpt>
      <trkpt lat="40.081950" lon="-5.032033">
        <ele>1706.0</ele>
        <time>2013-07-06T15:07:46Z</time>
      </trkpt>
      <trkpt lat="40.081983" lon="-5.032100">
        <ele>1710.0</ele>
        <time>2013-07-06T15:07:47Z</time>
      </trkpt>
      <trkpt lat="40.082050" lon="-5.032150">
        <ele>1713.0</ele>
        <time>2013-07-06T15:07:48Z</time>
      </trkpt>
      <trkpt lat="40.082117" lon="-5.032183">
        <ele>1716.0</ele>
        <time>2013-07-06T15:07:49Z</time>
      </trkpt>
      <trkpt lat="40.082250" lon="-5.032167">
        <ele>1722.0</ele>
        <time>2013-07-06T15:07:51Z</time>
      </trkpt>
      <trkpt lat="40.082317" lon="-5.032050">
        <ele>1727.0</ele>
        <time>2013-07-06T15:07:53Z</time>
      </trkpt>
      <trkpt lat="40.082300" lon="-5.031967">
        <ele>1730.0</ele>
        <time>2013-07-06T15:07:54Z</time>
      </trkpt>
      <trkpt lat="40.082267" lon="-5.031867">
        <ele>1733.0</ele>
        <time>2013-07-06T15:07:55Z</time>
      </trkpt>
      <trkpt lat="40.082217" lon="-5.031767">
        <ele>1735.0</ele>
        <time>2013-07-06T15:07:56Z</time>
      </trkpt>
      <trkpt lat="40.082150" lon="-5.031667">
        <ele>1737.0</ele>
        <time>2013-07-06T15:07:57Z</time>
      </trkpt>
      <trkpt lat="40.082083" lon="-5.031583">
        <ele>1740.0</ele>
        <time>2013-07-06T15:07:58Z</time>
      </trkpt>
      <trkpt lat="40.081983" lon="-5.031550">
        <ele>1744.0</ele>
        <time>2013-07-06T15:07:59Z</time>
      </trkpt>
      <trkpt lat="40.081883" lon="-5.031533">
        <ele>1746.0</ele>
        <time>2013-07-06T15:08:00Z</time>
      </trkpt>
      <trkpt lat="40.081783" lon="-5.031550">
        <ele>1748.0</ele>
        <time>2013-07-06T15:08:01Z</time>
      </trkpt>
      <trkpt lat="40.081683" lon="-5.031583">
        <ele>1751.0</ele>
        <time>2013-07-06T15:08:02Z</time>
      </trkpt>
      <trkpt lat="40.081583" lon="-5.031650">
        <ele>1755.0</ele>
        <time>2013-07-06T15:08:03Z</time>
      </trkpt>
      <trkpt lat="40.081517" lon="-5.031717">
        <ele>1760.0</ele>
        <time>2013-07-06T15:08:04Z</time>
      </trkpt>
      <trkpt lat="40.081450" lon="-5.031800">
        <ele>1763.0</ele>
        <time>2013-07-06T15:08:05Z</time>
      </trkpt>
      <trkpt lat="40.081400" lon="-5.031917">
        <ele>1766.0</ele>
        <time>2013-07-06T15:08:06Z</time>
      </trkpt>
      <trkpt lat="40.081350" lon="-5.032033">
        <ele>1769.0</ele>
        <time>2013-07-06T15:08:07Z</time>
      </trkpt>
      <trkpt lat="40.081350" lon="-5.032150">
        <ele>1771.0</ele>
        <time>2013-07-06T15:08:08Z</time>
      </trkpt>
      <trkpt lat="40.081367" lon="-5.032267">
        <ele>1773.0</ele>
        <time>2013-07-06T15:08:09Z</time>
      </trkpt>
      <trkpt lat="40.081383" lon="-5.032367">
        <ele>1775.0</ele>
        <time>2013-07-06T15:08:10Z</time>
      </trkpt>
      <trkpt lat="40.081433" lon="-5.032450">
        <ele>1778.0</ele>
        <time>2013-07-06T15:08:11Z</time>
      </trkpt>
      <trkpt lat="40.081467" lon="-5.032517">
        <ele>1780.0</ele>
        <time>2013-07-06T15:08:12Z</time>
      </trkpt>
      <trkpt lat="40.081533" lon="-5.032567">
        <ele>1783.0</ele>
        <time>2013-07-06T15:08:13Z</time>
      </trkpt>
      <trkpt lat="40.081600" lon="-5.032617">
        <ele>1785.0</ele>
        <time>2013-07-06T15:08:14Z</time>
      </trkpt>
      <trkpt lat="40.081650" lon="-5.032650">
        <ele>1787.0</ele>
        <time>2013-07-06T15:08:15Z</time>
      </trkpt>
      <trkpt lat="40.081717" lon="-5.032650">
        <ele>1789.0</ele>
        <time>2013-07-06T15:08:16Z</time>
      </trkpt>
      <trkpt lat="40.081767" lon="-5.032650">
        <ele>1792.0</ele>
        <time>2013-07-06T15:08:17Z</time>
      </trkpt>
      <trkpt lat="40.081817" lon="-5.032617">
        <ele>1794.0</ele>
        <time>2013-07-06T15:08:18Z</time>
      </trkpt>
      <trkpt lat="40.081867" lon="-5.032567">
        <ele>1797.0</ele>
        <time>2013-07-06T15:08:19Z</time>
      </trkpt>
      <trkpt lat="40.081933" lon="-5.032417">
        <ele>1801.0</ele>
        <time>2013-07-06T15:08:21Z</time>
      </trkpt>
      <trkpt lat="40.081950" lon="-5.032333">
        <ele>1796.0</ele>
        <time>2013-07-06T15:08:22Z</time>
      </trkpt>
      <trkpt lat="40.081950" lon="-5.032267">
        <ele>1795.0</ele>
        <time>2013-07-06T15:08:23Z</time>
      </trkpt>
      <trkpt lat="40.081933" lon="-5.032167">
        <ele>1796.0</ele>
        <time>2013-07-06T15:08:24Z</time>
      </trkpt>
      <trkpt lat="40.081917" lon="-5.032083">
        <ele>1797.0</ele>
        <time>2013-07-06T15:08:25Z</time>
      </trkpt>
      <trkpt lat="40.081867" lon="-5.032000">
        <ele>1798.0</ele>
        <time>2013-07-06T15:08:26Z</time>
      </trkpt>
      <trkpt lat="40.081800" lon="-5.031933">
        <ele>1800.0</ele>
        <time>2013-07-06T15:08:27Z</time>
      </trkpt>
      <trkpt lat="40.081717" lon="-5.031883">
        <ele>1803.0</ele>
        <time>2013-07-06T15:08:28Z</time>
      </trkpt>
      <trkpt lat="40.081617" lon="-5.031867">
        <ele>1807.0</ele>
        <time>2013-07-06T15:08:29Z</time>
      </trkpt>
      <trkpt lat="40.081517" lon="-5.031883">
        <ele>1811.0</ele>
        <time>2013-07-06T15:08:30Z</time>
      </trkpt>
      <trkpt lat="40.081417" lon="-5.031917">
        <ele>1815.0</ele>
        <time>2013-07-06T15:08:31Z</time>
      </trkpt>
      <trkpt lat="40.081317" lon="-5.031983">
        <ele>1820.0</ele>
        <time>2013-07-06T15:08:32Z</time>
      </trkpt>
      <trkpt lat="40.081250" lon="-5.032067">
        <ele>1824.0</ele>
        <time>2013-07-06T15:08:33Z</time>
      </trkpt>
      <trkpt lat="40.081183" lon="-5.032167">
        <ele>1828.0</ele>
        <time>2013-07-06T15:08:34Z</time>
      </trkpt>
      <trkpt lat="40.081133" lon="-5.032283">
        <ele>1831.0</ele>
        <time>2013-07-06T15:08:35Z</time>
      </trkpt>
      <trkpt lat="40.081117" lon="-5.032417">
        <ele>1834.0</ele>
        <time>2013-07-06T15:08:36Z</time>
      </trkpt>
      <trkpt lat="40.081117" lon="-5.032533">
        <ele>1836.0</ele>
        <time>2013-07-06T15:08:37Z</time>
      </trkpt>
      <trkpt lat="40.081133" lon="-5.032650">
        <ele>1838.0</ele>
        <time>2013-07-06T15:08:38Z</time>
      </trkpt>
      <trkpt lat="40.081167" lon="-5.032733">
        <ele>1841.0</ele>
        <time>2013-07-06T15:08:39Z</time>
      </trkpt>
      <trkpt lat="40.081217" lon="-5.032817">
        <ele>1843.0</ele>
        <time>2013-07-06T15:08:40Z</time>
      </trkpt>
      <trkpt lat="40.081267" lon="-5.032883">
        <ele>1846.0</ele>
        <time>2013-07-06T15:08:41Z</time>
      </trkpt>
      <trkpt lat="40.081317" lon="-5.032917">
        <ele>1849.0</ele>
        <time>2013-07-06T15:08:42Z</time>
      </trkpt>
      <trkpt lat="40.081383" lon="-5.032950">
        <ele>1851.0</ele>
        <time>2013-07-06T15:08:43Z</time>
      </trkpt>
      <trkpt lat="40.081450" lon="-5.032983">
        <ele>1854.0</ele>
        <time>2013-07-06T15:08:44Z</time>
      </trkpt>
      <trkpt lat="40.081517" lon="-5.033000">
        <ele>1856.0</ele>
        <time>2013-07-06T15:08:45Z</time>
      </trkpt>
      <trkpt lat="40.081600" lon="-5.033017">
        <ele>1859.0</ele>
        <time>2013-07-06T15:08:46Z</time>
      </trkpt>
      <trkpt lat="40.081667" lon="-5.033017">
        <ele>1864.0</ele>
        <time>2013-07-06T15:08:47Z</time>
      </trkpt>
      <trkpt lat="40.081717" lon="-5.032983">
        <ele>1868.0</ele>
        <time>2013-07-06T15:08:48Z</time>
      </trkpt>
      <trkpt lat="40.081767" lon="-5.032933">
        <ele>1872.0</ele>
        <time>2013-07-06T15:08:49Z</time>
      </trkpt>
      <trkpt lat="40.081817" lon="-5.032867">
        <ele>1875.0</ele>
        <time>2013-07-06T15:08:50Z</time>
      </trkpt>
      <trkpt lat="40.081833" lon="-5.032783">
        <ele>1871.0</ele>
        <time>2013-07-06T15:08:51Z</time>
      </trkpt>
      <trkpt lat="40.081850" lon="-5.032700">
        <ele>1870.0</ele>
        <time>2013-07-06T15:08:52Z</time>
      </trkpt>
      <trkpt lat="40.081833" lon="-5.032600">
        <ele>1870.0</ele>
        <time>2013-07-06T15:08:53Z</time>
      </trkpt>
      <trkpt lat="40.081783" lon="-5.032517">
        <ele>1871.0</ele>
        <time>2013-07-06T15:08:54Z</time>
      </trkpt>
      <trkpt lat="40.081733" lon="-5.032433">
        <ele>1872.0</ele>
        <time>2013-07-06T15:08:55Z</time>
      </trkpt>
      <trkpt lat="40.081650" lon="-5.032367">
        <ele>1874.0</ele>
        <time>2013-07-06T15:08:56Z</time>
      </trkpt>
      <trkpt lat="40.081533" lon="-5.032333">
        <ele>1877.0</ele>
        <time>2013-07-06T15:08:57Z</time>
      </trkpt>
      <trkpt lat="40.081417" lon="-5.032317">
        <ele>1883.0</ele>
        <time>2013-07-06T15:08:58Z</time>
      </trkpt>
      <trkpt lat="40.081317" lon="-5.032350">
        <ele>1889.0</ele>
        <time>2013-07-06T15:08:59Z</time>
      </trkpt>
      <trkpt lat="40.081217" lon="-5.032400">
        <ele>1894.0</ele>
        <time>2013-07-06T15:09:00Z</time>
      </trkpt>
      <trkpt lat="40.081133" lon="-5.032483">
        <ele>1897.0</ele>
        <time>2013-07-06T15:09:01Z</time>
      </trkpt>
      <trkpt lat="40.081050" lon="-5.032583">
        <ele>1901.0</ele>
        <time>2013-07-06T15:09:02Z</time>
      </trkpt>
      <trkpt lat="40.081000" lon="-5.032683">
        <ele>1905.0</ele>
        <time>2013-07-06T15:09:03Z</time>
      </trkpt>
      <trkpt lat="40.080950" lon="-5.032800">
        <ele>1910.0</ele>
        <time>2013-07-06T15:09:04Z</time>
      </trkpt>
      <trkpt lat="40.080933" lon="-5.032900">
        <ele>1914.0</ele>
        <time>2013-07-06T15:09:05Z</time>
      </trkpt>
      <trkpt lat="40.080933" lon="-5.033000">
        <ele>1918.0</ele>
        <time>2013-07-06T15:09:06Z</time>
      </trkpt>
      <trkpt lat="40.080950" lon="-5.033100">
        <ele>1922.0</ele>
        <time>2013-07-06T15:09:07Z</time>
      </trkpt>
      <trkpt lat="40.080967" lon="-5.033183">
        <ele>1924.0</ele>
        <time>2013-07-06T15:09:08Z</time>
      </trkpt>
      <trkpt lat="40.081017" lon="-5.033267">
        <ele>1926.0</ele>
        <time>2013-07-06T15:09:09Z</time>
      </trkpt>
      <trkpt lat="40.081067" lon="-5.033350">
        <ele>1928.0</ele>
        <time>2013-07-06T15:09:10Z</time>
      </trkpt>
      <trkpt lat="40.081133" lon="-5.033417">
        <ele>1930.0</ele>
        <time>2013-07-06T15:09:11Z</time>
      </trkpt>
      <trkpt lat="40.081200" lon="-5.033467">
        <ele>1933.0</ele>
        <time>2013-07-06T15:09:12Z</time>
      </trkpt>
      <trkpt lat="40.081267" lon="-5.033500">
        <ele>1937.0</ele>
        <time>2013-07-06T15:09:13Z</time>
      </trkpt>
      <trkpt lat="40.081317" lon="-5.033500">
        <ele>1941.0</ele>
        <time>2013-07-06T15:09:14Z</time>
      </trkpt>
      <trkpt lat="40.081383" lon="-5.033467">
        <ele>1945.0</ele>
        <time>2013-07-06T15:09:15Z</time>
      </trkpt>
      <trkpt lat="40.081433" lon="-5.033433">
        <ele>1949.0</ele>
        <time>2013-07-06T15:09:16Z</time>
      </trkpt>
      <trkpt lat="40.081467" lon="-5.033367">
        <ele>1952.0</ele>
        <time>2013-07-06T15:09:17Z</time>
      </trkpt>
      <trkpt lat="40.081533" lon="-5.033250">
        <ele>1955.0</ele>
        <time>2013-07-06T15:09:18Z</time>
      </trkpt>
      <trkpt lat="40.081533" lon="-5.033167">
        <ele>1949.0</ele>
        <time>2013-07-06T15:09:19Z</time>
      </trkpt>
      <trkpt lat="40.081517" lon="-5.033083">
        <ele>1949.0</ele>
        <time>2013-07-06T15:09:20Z</time>
      </trkpt>
      <trkpt lat="40.081467" lon="-5.033000">
        <ele>1950.0</ele>
        <time>2013-07-06T15:09:21Z</time>
      </trkpt>
      <trkpt lat="40.081417" lon="-5.032917">
        <ele>1951.0</ele>
        <time>2013-07-06T15:09:22Z</time>
      </trkpt>
      <trkpt lat="40.081333" lon="-5.032867">
        <ele>1954.0</ele>
        <time>2013-07-06T15:09:23Z</time>
      </trkpt>
      <trkpt lat="40.081267" lon="-5.032817">
        <ele>1957.0</ele>
        <time>2013-07-06T15:09:24Z</time>
      </trkpt>
      <trkpt lat="40.081150" lon="-5.032783">
        <ele>1961.0</ele>
        <time>2013-07-06T15:09:25Z</time>
      </trkpt>
      <trkpt lat="40.081033" lon="-5.032800">
        <ele>1966.0</ele>
        <time>2013-07-06T15:09:26Z</time>
      </trkpt>
      <trkpt lat="40.080917" lon="-5.032850">
        <ele>1971.0</ele>
        <time>2013-07-06T15:09:27Z</time>
      </trkpt>
      <trkpt lat="40.080817" lon="-5.032917">
        <ele>1976.0</ele>
        <time>2013-07-06T15:09:28Z</time>
      </trkpt>
      <trkpt lat="40.080750" lon="-5.033017">
        <ele>1981.0</ele>
        <time>2013-07-06T15:09:29Z</time>
      </trkpt>
      <trkpt lat="40.080683" lon="-5.033133">
        <ele>1984.0</ele>
        <time>2013-07-06T15:09:30Z</time>
      </trkpt>
      <trkpt lat="40.080650" lon="-5.033250">
        <ele>1988.0</ele>
        <time>2013-07-06T15:09:31Z</time>
      </trkpt>
      <trkpt lat="40.080633" lon="-5.033367">
        <ele>1991.0</ele>
        <time>2013-07-06T15:09:32Z</time>
      </trkpt>
      <trkpt lat="40.080650" lon="-5.033483">
        <ele>1994.0</ele>
        <time>2013-07-06T15:09:33Z</time>
      </trkpt>
      <trkpt lat="40.080700" lon="-5.033567">
        <ele>1997.0</ele>
        <time>2013-07-06T15:09:34Z</time>
      </trkpt>
      <trkpt lat="40.080750" lon="-5.033650">
        <ele>2000.0</ele>
        <time>2013-07-06T15:09:35Z</time>
      </trkpt>
      <trkpt lat="40.080817" lon="-5.033700">
        <ele>2004.0</ele>
        <time>2013-07-06T15:09:36Z</time>
      </trkpt>
      <trkpt lat="40.080867" lon="-5.033733">
        <ele>2007.0</ele>
        <time>2013-07-06T15:09:37Z</time>
      </trkpt>
      <trkpt lat="40.080933" lon="-5.033750">
        <ele>2010.0</ele>
        <time>2013-07-06T15:09:38Z</time>
      </trkpt>
      <trkpt lat="40.081000" lon="-5.033767">
        <ele>2014.0</ele>
        <time>2013-07-06T15:09:39Z</time>
      </trkpt>
      <trkpt lat="40.081067" lon="-5.033783">
        <ele>2018.0</ele>
        <time>2013-07-06T15:09:40Z</time>
      </trkpt>
      <trkpt lat="40.081133" lon="-5.033800">
        <ele>2022.0</ele>
        <time>2013-07-06T15:09:41Z</time>
      </trkpt>
      <trkpt lat="40.081183" lon="-5.033817">
        <ele>2027.0</ele>
        <time>2013-07-06T15:09:42Z</time>
      </trkpt>
      <trkpt lat="40.081233" lon="-5.033817">
        <ele>2031.0</ele>
        <time>2013-07-06T15:09:43Z</time>
      </trkpt>
      <trkpt lat="40.081283" lon="-5.033817">
        <ele>2034.0</ele>
        <time>2013-07-06T15:09:44Z</time>
      </trkpt>
      <trkpt lat="40.081333" lon="-5.033817">
        <ele>2037.0</ele>
        <time>2013-07-06T15:09:45Z</time>
      </trkpt>
      <trkpt lat="40.081383" lon="-5.033767">
        <ele>2039.0</ele>
        <time>2013-07-06T15:09:46Z</time>
      </trkpt>
      <trkpt lat="40.081417" lon="-5.033700">
        <ele>2042.0</ele>
        <time>2013-07-06T15:09:47Z</time>
      </trkpt>
      <trkpt lat="40.081417" lon="-5.033617">
        <ele>2044.0</ele>
        <time>2013-07-06T15:09:48Z</time>
      </trkpt>
      <trkpt lat="40.081383" lon="-5.033517">
        <ele>2046.0</ele>
        <time>2013-07-06T15:09:49Z</time>
      </trkpt>
      <trkpt lat="40.081333" lon="-5.033450">
        <ele>2048.0</ele>
        <time>2013-07-06T15:09:50Z</time>
      </trkpt>
      <trkpt lat="40.081250" lon="-5.033383">
        <ele>2050.0</ele>
        <time>2013-07-06T15:09:51Z</time>
      </trkpt>
      <trkpt lat="40.081150" lon="-5.033350">
        <ele>2051.0</ele>
        <time>2013-07-06T15:09:52Z</time>
      </trkpt>
      <trkpt lat="40.081050" lon="-5.033333">
        <ele>2053.0</ele>
        <time>2013-07-06T15:09:53Z</time>
      </trkpt>
      <trkpt lat="40.080933" lon="-5.033333">
        <ele>2054.0</ele>
        <time>2013-07-06T15:09:54Z</time>
      </trkpt>
      <trkpt lat="40.080817" lon="-5.033350">
        <ele>2056.0</ele>
        <time>2013-07-06T15:09:55Z</time>
      </trkpt>
      <trkpt lat="40.080717" lon="-5.033400">
        <ele>2058.0</ele>
        <time>2013-07-06T15:09:56Z</time>
      </trkpt>
      <trkpt lat="40.080617" lon="-5.033500">
        <ele>2059.0</ele>
        <time>2013-07-06T15:09:57Z</time>
      </trkpt>
      <trkpt lat="40.080550" lon="-5.033617">
        <ele>2061.0</ele>
        <time>2013-07-06T15:09:58Z</time>
      </trkpt>
      <trkpt lat="40.080500" lon="-5.033750">
        <ele>2062.0</ele>
        <time>2013-07-06T15:09:59Z</time>
      </trkpt>
      <trkpt lat="40.080467" lon="-5.033883">
        <ele>2064.0</ele>
        <time>2013-07-06T15:10:00Z</time>
      </trkpt>
      <trkpt lat="40.080450" lon="-5.034017">
        <ele>2067.0</ele>
        <time>2013-07-06T15:10:01Z</time>
      </trkpt>
      <trkpt lat="40.080467" lon="-5.034117">
        <ele>2070.0</ele>
        <time>2013-07-06T15:10:02Z</time>
      </trkpt>
      <trkpt lat="40.080500" lon="-5.034200">
        <ele>2073.0</ele>
        <time>2013-07-06T15:10:03Z</time>
      </trkpt>
      <trkpt lat="40.080533" lon="-5.034300">
        <ele>2070.0</ele>
        <time>2013-07-06T15:10:04Z</time>
      </trkpt>
      <trkpt lat="40.080567" lon="-5.034367">
        <ele>2071.0</ele>
        <time>2013-07-06T15:10:05Z</time>
      </trkpt>
      <trkpt lat="40.080633" lon="-5.034450">
        <ele>2072.0</ele>
        <time>2013-07-06T15:10:06Z</time>
      </trkpt>
      <trkpt lat="40.080667" lon="-5.034517">
        <ele>2074.0</ele>
        <time>2013-07-06T15:10:07Z</time>
      </trkpt>
      <trkpt lat="40.080717" lon="-5.034567">
        <ele>2077.0</ele>
        <time>2013-07-06T15:10:08Z</time>
      </trkpt>
      <trkpt lat="40.080767" lon="-5.034617">
        <ele>2080.0</ele>
        <time>2013-07-06T15:10:09Z</time>
      </trkpt>
      <trkpt lat="40.080817" lon="-5.034683">
        <ele>2083.0</ele>
        <time>2013-07-06T15:10:10Z</time>
      </trkpt>
      <trkpt lat="40.080867" lon="-5.034767">
        <ele>2087.0</ele>
        <time>2013-07-06T15:10:11Z</time>
      </trkpt>
      <trkpt lat="40.080917" lon="-5.034817">
        <ele>2089.0</ele>
        <time>2013-07-06T15:10:12Z</time>
      </trkpt>
      <trkpt lat="40.080967" lon="-5.034850">
        <ele>2092.0</ele>
        <time>2013-07-06T15:10:13Z</time>
      </trkpt>
      <trkpt lat="40.081017" lon="-5.034833">
        <ele>2095.0</ele>
        <time>2013-07-06T15:10:14Z</time>
      </trkpt>
      <trkpt lat="40.081067" lon="-5.034767">
        <ele>2097.0</ele>
        <time>2013-07-06T15:10:15Z</time>
      </trkpt>
      <trkpt lat="40.081017" lon="-5.034633">
        <ele>2092.0</ele>
        <time>2013-07-06T15:10:17Z</time>
      </trkpt>
      <trkpt lat="40.080967" lon="-5.034567">
        <ele>2094.0</ele>
        <time>2013-07-06T15:10:18Z</time>
      </trkpt>
      <trkpt lat="40.080917" lon="-5.034517">
        <ele>2094.0</ele>
        <time>2013-07-06T15:10:19Z</time>
      </trkpt>
      <trkpt lat="40.080850" lon="-5.034483">
        <ele>2095.0</ele>
        <time>2013-07-06T15:10:20Z</time>
      </trkpt>
      <trkpt lat="40.080750" lon="-5.034450">
        <ele>2096.0</ele>
        <time>2013-07-06T15:10:21Z</time>
      </trkpt>
      <trkpt lat="40.080650" lon="-5.034450">
        <ele>2098.0</ele>
        <time>2013-07-06T15:10:22Z</time>
      </trkpt>
      <trkpt lat="40.080533" lon="-5.034450">
        <ele>2100.0</ele>
        <time>2013-07-06T15:10:23Z</time>
      </trkpt>
      <trkpt lat="40.080400" lon="-5.034467">
        <ele>2102.0</ele>
        <time>2013-07-06T15:10:24Z</time>
      </trkpt>
      <trkpt lat="40.080283" lon="-5.034517">
        <ele>2106.0</ele>
        <time>2013-07-06T15:10:25Z</time>
      </trkpt>
      <trkpt lat="40.080183" lon="-5.034617">
        <ele>2109.0</ele>
        <time>2013-07-06T15:10:26Z</time>
      </trkpt>
      <trkpt lat="40.080117" lon="-5.034733">
        <ele>2112.0</ele>
        <time>2013-07-06T15:10:27Z</time>
      </trkpt>
      <trkpt lat="40.080067" lon="-5.034867">
        <ele>2114.0</ele>
        <time>2013-07-06T15:10:28Z</time>
      </trkpt>
      <trkpt lat="40.080033" lon="-5.034983">
        <ele>2117.0</ele>
        <time>2013-07-06T15:10:29Z</time>
      </trkpt>
      <trkpt lat="40.080017" lon="-5.035100">
        <ele>2120.0</ele>
        <time>2013-07-06T15:10:30Z</time>
      </trkpt>
      <trkpt lat="40.080000" lon="-5.035217">
        <ele>2123.0</ele>
        <time>2013-07-06T15:10:31Z</time>
      </trkpt>
      <trkpt lat="40.080017" lon="-5.035317">
        <ele>2125.0</ele>
        <time>2013-07-06T15:10:32Z</time>
      </trkpt>
      <trkpt lat="40.080050" lon="-5.035417">
        <ele>2127.0</ele>
        <time>2013-07-06T15:10:33Z</time>
      </trkpt>
      <trkpt lat="40.080083" lon="-5.035500">
        <ele>2128.0</ele>
        <time>2013-07-06T15:10:34Z</time>
      </trkpt>
      <trkpt lat="40.080133" lon="-5.035567">
        <ele>2130.0</ele>
        <time>2013-07-06T15:10:35Z</time>
      </trkpt>
      <trkpt lat="40.080200" lon="-5.035583">
        <ele>2131.0</ele>
        <time>2013-07-06T15:10:36Z</time>
      </trkpt>
      <trkpt lat="40.080250" lon="-5.035600">
        <ele>2133.0</ele>
        <time>2013-07-06T15:10:37Z</time>
      </trkpt>
      <trkpt lat="40.080367" lon="-5.035583">
        <ele>2137.0</ele>
        <time>2013-07-06T15:10:39Z</time>
      </trkpt>
      <trkpt lat="40.080417" lon="-5.035550">
        <ele>2140.0</ele>
        <time>2013-07-06T15:10:40Z</time>
      </trkpt>
      <trkpt lat="40.080467" lon="-5.035533">
        <ele>2142.0</ele>
        <time>2013-07-06T15:10:41Z</time>
      </trkpt>
      <trkpt lat="40.080517" lon="-5.035517">
        <ele>2143.0</ele>
        <time>2013-07-06T15:10:42Z</time>
      </trkpt>
      <trkpt lat="40.080567" lon="-5.035483">
        <ele>2145.0</ele>
        <time>2013-07-06T15:10:43Z</time>
      </trkpt>
      <trkpt lat="40.080617" lon="-5.035450">
        <ele>2147.0</ele>
        <time>2013-07-06T15:10:44Z</time>
      </trkpt>
      <trkpt lat="40.080667" lon="-5.035400">
        <ele>2149.0</ele>
        <time>2013-07-06T15:10:45Z</time>
      </trkpt>
      <trkpt lat="40.080717" lon="-5.035317">
        <ele>2150.0</ele>
        <time>2013-07-06T15:10:46Z</time>
      </trkpt>
      <trkpt lat="40.080733" lon="-5.035233">
        <ele>2151.0</ele>
        <time>2013-07-06T15:10:47Z</time>
      </trkpt>
      <trkpt lat="40.080733" lon="-5.035100">
        <ele>2153.0</ele>
        <time>2013-07-06T15:10:48Z</time>
      </trkpt>
      <trkpt lat="40.080683" lon="-5.035000">
        <ele>2154.0</ele>
        <time>2013-07-06T15:10:49Z</time>
      </trkpt>
      <trkpt lat="40.080617" lon="-5.034900">
        <ele>2156.0</ele>
        <time>2013-07-06T15:10:50Z</time>
      </trkpt>
      <trkpt lat="40.080533" lon="-5.034850">
        <ele>2158.0</ele>
        <time>2013-07-06T15:10:51Z</time>
      </trkpt>
      <trkpt lat="40.080433" lon="-5.034833">
        <ele>2161.0</ele>
        <time>2013-07-06T15:10:52Z</time>
      </trkpt>
      <trkpt lat="40.080333" lon="-5.034850">
        <ele>2165.0</ele>
        <time>2013-07-06T15:10:53Z</time>
      </trkpt>
      <trkpt lat="40.080233" lon="-5.034883">
        <ele>2167.0</ele>
        <time>2013-07-06T15:10:54Z</time>
      </trkpt>
      <trkpt lat="40.080150" lon="-5.034967">
        <ele>2169.0</ele>
        <time>2013-07-06T15:10:55Z</time>
      </trkpt>
      <trkpt lat="40.080083" lon="-5.035067">
        <ele>2171.0</ele>
        <time>2013-07-06T15:10:56Z</time>
      </trkpt>
      <trkpt lat="40.080050" lon="-5.035183">
        <ele>2173.0</ele>
        <time>2013-07-06T15:10:57Z</time>
      </trkpt>
      <trkpt lat="40.080033" lon="-5.035283">
        <ele>2175.0</ele>
        <time>2013-07-06T15:10:58Z</time>
      </trkpt>
      <trkpt lat="40.080033" lon="-5.035400">
        <ele>2178.0</ele>
        <time>2013-07-06T15:10:59Z</time>
      </trkpt>
      <trkpt lat="40.080050" lon="-5.035483">
        <ele>2181.0</ele>
        <time>2013-07-06T15:11:00Z</time>
      </trkpt>
      <trkpt lat="40.080067" lon="-5.035567">
        <ele>2183.0</ele>
        <time>2013-07-06T15:11:01Z</time>
      </trkpt>
      <trkpt lat="40.080083" lon="-5.035617">
        <ele>2185.0</ele>
        <time>2013-07-06T15:11:02Z</time>
      </trkpt>
      <trkpt lat="40.080133" lon="-5.035683">
        <ele>2186.0</ele>
        <time>2013-07-06T15:11:03Z</time>
      </trkpt>
      <trkpt lat="40.080183" lon="-5.035733">
        <ele>2186.0</ele>
        <time>2013-07-06T15:11:04Z</time>
      </trkpt>
      <trkpt lat="40.080250" lon="-5.035767">
        <ele>2187.0</ele>
        <time>2013-07-06T15:11:05Z</time>
      </trkpt>
      <trkpt lat="40.080317" lon="-5.035800">
        <ele>2188.0</ele>
        <time>2013-07-06T15:11:06Z</time>
      </trkpt>
      <trkpt lat="40.080383" lon="-5.035817">
        <ele>2190.0</ele>
        <time>2013-07-06T15:11:07Z</time>
      </trkpt>
      <trkpt lat="40.080433" lon="-5.035833">
        <ele>2191.0</ele>
        <time>2013-07-06T15:11:08Z</time>
      </trkpt>
      <trkpt lat="40.080500" lon="-5.035833">
        <ele>2193.0</ele>
        <time>2013-07-06T15:11:09Z</time>
      </trkpt>
      <trkpt lat="40.080567" lon="-5.035850">
        <ele>2195.0</ele>
        <time>2013-07-06T15:11:10Z</time>
      </trkpt>
      <trkpt lat="40.080733" lon="-5.035817">
        <ele>2197.0</ele>
        <time>2013-07-06T15:11:12Z</time>
      </trkpt>
      <trkpt lat="40.080800" lon="-5.035800">
        <ele>2199.0</ele>
        <time>2013-07-06T15:11:13Z</time>
      </trkpt>
      <trkpt lat="40.080883" lon="-5.035783">
        <ele>2201.0</ele>
        <time>2013-07-06T15:11:14Z</time>
      </trkpt>
      <trkpt lat="40.080933" lon="-5.035750">
        <ele>2204.0</ele>
        <time>2013-07-06T15:11:15Z</time>
      </trkpt>
      <trkpt lat="40.081000" lon="-5.035717">
        <ele>2207.0</ele>
        <time>2013-07-06T15:11:16Z</time>
      </trkpt>
      <trkpt lat="40.081050" lon="-5.035683">
        <ele>2209.0</ele>
        <time>2013-07-06T15:11:17Z</time>
      </trkpt>
      <trkpt lat="40.081117" lon="-5.035650">
        <ele>2211.0</ele>
        <time>2013-07-06T15:11:18Z</time>
      </trkpt>
      <trkpt lat="40.081183" lon="-5.035617">
        <ele>2212.0</ele>
        <time>2013-07-06T15:11:19Z</time>
      </trkpt>
      <trkpt lat="40.081250" lon="-5.035550">
        <ele>2213.0</ele>
        <time>2013-07-06T15:11:20Z</time>
      </trkpt>
      <trkpt lat="40.081300" lon="-5.035483">
        <ele>2214.0</ele>
        <time>2013-07-06T15:11:21Z</time>
      </trkpt>
      <trkpt lat="40.081333" lon="-5.035383">
        <ele>2215.0</ele>
        <time>2013-07-06T15:11:22Z</time>
      </trkpt>
      <trkpt lat="40.081333" lon="-5.035250">
        <ele>2216.0</ele>
        <time>2013-07-06T15:11:23Z</time>
      </trkpt>
      <trkpt lat="40.081300" lon="-5.035117">
        <ele>2215.0</ele>
        <time>2013-07-06T15:11:24Z</time>
      </trkpt>
      <trkpt lat="40.081250" lon="-5.035017">
        <ele>2215.0</ele>
        <time>2013-07-06T15:11:25Z</time>
      </trkpt>
      <trkpt lat="40.081183" lon="-5.034950">
        <ele>2215.0</ele>
        <time>2013-07-06T15:11:26Z</time>
      </trkpt>
      <trkpt lat="40.081117" lon="-5.034917">
        <ele>2214.0</ele>
        <time>2013-07-06T15:11:27Z</time>
      </trkpt>
      <trkpt lat="40.081050" lon="-5.034867">
        <ele>2212.0</ele>
        <time>2013-07-06T15:11:28Z</time>
      </trkpt>
      <trkpt lat="40.080950" lon="-5.034833">
        <ele>2211.0</ele>
        <time>2013-07-06T15:11:29Z</time>
      </trkpt>
      <trkpt lat="40.080867" lon="-5.034850">
        <ele>2209.0</ele>
        <time>2013-07-06T15:11:30Z</time>
      </trkpt>
      <trkpt lat="40.080800" lon="-5.034900">
        <ele>2207.0</ele>
        <time>2013-07-06T15:11:31Z</time>
      </trkpt>
      <trkpt lat="40.080733" lon="-5.035017">
        <ele>2203.0</ele>
        <time>2013-07-06T15:11:32Z</time>
      </trkpt>
      <trkpt lat="40.080717" lon="-5.035150">
        <ele>2200.0</ele>
        <time>2013-07-06T15:11:33Z</time>
      </trkpt>
      <trkpt lat="40.080750" lon="-5.035267">
        <ele>2198.0</ele>
        <time>2013-07-06T15:11:34Z</time>
      </trkpt>
      <trkpt lat="40.080800" lon="-5.035350">
        <ele>2196.0</ele>
        <time>2013-07-06T15:11:35Z</time>
      </trkpt>
      <trkpt lat="40.080883" lon="-5.035417">
        <ele>2195.0</ele>
        <time>2013-07-06T15:11:36Z</time>
      </trkpt>
      <trkpt lat="40.080983" lon="-5.035450">
        <ele>2193.0</ele>
        <time>2013-07-06T15:11:37Z</time>
      </trkpt>
      <trkpt lat="40.081083" lon="-5.035450">
        <ele>2191.0</ele>
        <time>2013-07-06T15:11:38Z</time>
      </trkpt>
      <trkpt lat="40.081167" lon="-5.035450">
        <ele>2190.0</ele>
        <time>2013-07-06T15:11:39Z</time>
      </trkpt>
      <trkpt lat="40.081233" lon="-5.035433">
        <ele>2191.0</ele>
        <time>2013-07-06T15:11:40Z</time>
      </trkpt>
      <trkpt lat="40.081300" lon="-5.035417">
        <ele>2193.0</ele>
        <time>2013-07-06T15:11:41Z</time>
      </trkpt>
      <trkpt lat="40.081367" lon="-5.035383">
        <ele>2192.0</ele>
        <time>2013-07-06T15:11:42Z</time>
      </trkpt>
      <trkpt lat="40.081433" lon="-5.035350">
        <ele>2191.0</ele>
        <time>2013-07-06T15:11:43Z</time>
      </trkpt>
      <trkpt lat="40.081517" lon="-5.035317">
        <ele>2190.0</ele>
        <time>2013-07-06T15:11:44Z</time>
      </trkpt>
      <trkpt lat="40.081600" lon="-5.035283">
        <ele>2188.0</ele>
        <time>2013-07-06T15:11:45Z</time>
      </trkpt>
      <trkpt lat="40.081683" lon="-5.035250">
        <ele>2187.0</ele>
        <time>2013-07-06T15:11:46Z</time>
      </trkpt>
      <trkpt lat="40.081767" lon="-5.035217">
        <ele>2185.0</ele>
        <time>2013-07-06T15:11:47Z</time>
      </trkpt>
      <trkpt lat="40.081850" lon="-5.035167">
        <ele>2184.0</ele>
        <time>2013-07-06T15:11:48Z</time>
      </trkpt>
      <trkpt lat="40.081933" lon="-5.035133">
        <ele>2182.0</ele>
        <time>2013-07-06T15:11:49Z</time>
      </trkpt>
      <trkpt lat="40.082017" lon="-5.035083">
        <ele>2181.0</ele>
        <time>2013-07-06T15:11:50Z</time>
      </trkpt>
      <trkpt lat="40.082100" lon="-5.035050">
        <ele>2181.0</ele>
        <time>2013-07-06T15:11:51Z</time>
      </trkpt>
      <trkpt lat="40.082183" lon="-5.035017">
        <ele>2181.0</ele>
        <time>2013-07-06T15:11:52Z</time>
      </trkpt>
      <trkpt lat="40.082267" lon="-5.034983">
        <ele>2180.0</ele>
        <time>2013-07-06T15:11:53Z</time>
      </trkpt>
      <trkpt lat="40.082350" lon="-5.034967">
        <ele>2180.0</ele>
        <time>2013-07-06T15:11:54Z</time>
      </trkpt>
      <trkpt lat="40.082433" lon="-5.034933">
        <ele>2179.0</ele>
        <time>2013-07-06T15:11:55Z</time>
      </trkpt>
      <trkpt lat="40.082517" lon="-5.034900">
        <ele>2179.0</ele>
        <time>2013-07-06T15:11:56Z</time>
      </trkpt>
      <trkpt lat="40.082600" lon="-5.034867">
        <ele>2179.0</ele>
        <time>2013-07-06T15:11:57Z</time>
      </trkpt>
      <trkpt lat="40.082750" lon="-5.034783">
        <ele>2181.0</ele>
        <time>2013-07-06T15:11:59Z</time>
      </trkpt>
      <trkpt lat="40.082817" lon="-5.034750">
        <ele>2182.0</ele>
        <time>2013-07-06T15:12:00Z</time>
      </trkpt>
      <trkpt lat="40.082867" lon="-5.034700">
        <ele>2183.0</ele>
        <time>2013-07-06T15:12:01Z</time>
      </trkpt>
      <trkpt lat="40.082933" lon="-5.034650">
        <ele>2184.0</ele>
        <time>2013-07-06T15:12:02Z</time>
      </trkpt>
      <trkpt lat="40.083017" lon="-5.034583">
        <ele>2184.0</ele>
        <time>2013-07-06T15:12:03Z</time>
      </trkpt>
      <trkpt lat="40.083083" lon="-5.034533">
        <ele>2185.0</ele>
        <time>2013-07-06T15:12:04Z</time>
      </trkpt>
      <trkpt lat="40.083150" lon="-5.034483">
        <ele>2185.0</ele>
        <time>2013-07-06T15:12:05Z</time>
      </trkpt>
      <trkpt lat="40.083200" lon="-5.034433">
        <ele>2187.0</ele>
        <time>2013-07-06T15:12:06Z</time>
      </trkpt>
      <trkpt lat="40.083250" lon="-5.034383">
        <ele>2188.0</ele>
        <time>2013-07-06T15:12:07Z</time>
      </trkpt>
      <trkpt lat="40.083300" lon="-5.034333">
        <ele>2189.0</ele>
        <time>2013-07-06T15:12:08Z</time>
      </trkpt>
      <trkpt lat="40.083367" lon="-5.034267">
        <ele>2189.0</ele>
        <time>2013-07-06T15:12:09Z</time>
      </trkpt>
      <trkpt lat="40.083450" lon="-5.034217">
        <ele>2189.0</ele>
        <time>2013-07-06T15:12:10Z</time>
      </trkpt>
      <trkpt lat="40.083517" lon="-5.034167">
        <ele>2190.0</ele>
        <time>2013-07-06T15:12:11Z</time>
      </trkpt>
      <trkpt lat="40.083600" lon="-5.034100">
        <ele>2191.0</ele>
        <time>2013-07-06T15:12:12Z</time>
      </trkpt>
      <trkpt lat="40.083650" lon="-5.034050">
        <ele>2193.0</ele>
        <time>2013-07-06T15:12:13Z</time>
      </trkpt>
      <trkpt lat="40.083717" lon="-5.034000">
        <ele>2194.0</ele>
        <time>2013-07-06T15:12:14Z</time>
      </trkpt>
      <trkpt lat="40.083767" lon="-5.033950">
        <ele>2195.0</ele>
        <time>2013-07-06T15:12:15Z</time>
      </trkpt>
      <trkpt lat="40.083833" lon="-5.033900">
        <ele>2196.0</ele>
        <time>2013-07-06T15:12:16Z</time>
      </trkpt>
      <trkpt lat="40.083967" lon="-5.033783">
        <ele>2196.0</ele>
        <time>2013-07-06T15:12:18Z</time>
      </trkpt>
      <trkpt lat="40.084033" lon="-5.033717">
        <ele>2197.0</ele>
        <time>2013-07-06T15:12:19Z</time>
      </trkpt>
      <trkpt lat="40.084083" lon="-5.033667">
        <ele>2198.0</ele>
        <time>2013-07-06T15:12:20Z</time>
      </trkpt>
      <trkpt lat="40.084150" lon="-5.033633">
        <ele>2199.0</ele>
        <time>2013-07-06T15:12:21Z</time>
      </trkpt>
      <trkpt lat="40.084200" lon="-5.033583">
        <ele>2200.0</ele>
        <time>2013-07-06T15:12:22Z</time>
      </trkpt>
      <trkpt lat="40.084267" lon="-5.033533">
        <ele>2200.0</ele>
        <time>2013-07-06T15:12:23Z</time>
      </trkpt>
      <trkpt lat="40.084333" lon="-5.033483">
        <ele>2200.0</ele>
        <time>2013-07-06T15:12:24Z</time>
      </trkpt>
      <trkpt lat="40.084450" lon="-5.033383">
        <ele>2200.0</ele>
        <time>2013-07-06T15:12:26Z</time>
      </trkpt>
      <trkpt lat="40.084533" lon="-5.033333">
        <ele>2200.0</ele>
        <time>2013-07-06T15:12:27Z</time>
      </trkpt>
      <trkpt lat="40.084600" lon="-5.033283">
        <ele>2201.0</ele>
        <time>2013-07-06T15:12:28Z</time>
      </trkpt>
      <trkpt lat="40.084683" lon="-5.033233">
        <ele>2201.0</ele>
        <time>2013-07-06T15:12:29Z</time>
      </trkpt>
      <trkpt lat="40.084750" lon="-5.033167">
        <ele>2202.0</ele>
        <time>2013-07-06T15:12:30Z</time>
      </trkpt>
      <trkpt lat="40.084833" lon="-5.033100">
        <ele>2203.0</ele>
        <time>2013-07-06T15:12:31Z</time>
      </trkpt>
      <trkpt lat="40.084900" lon="-5.033033">
        <ele>2205.0</ele>
        <time>2013-07-06T15:12:32Z</time>
      </trkpt>
      <trkpt lat="40.084967" lon="-5.032983">
        <ele>2206.0</ele>
        <time>2013-07-06T15:12:33Z</time>
      </trkpt>
      <trkpt lat="40.085050" lon="-5.032950">
        <ele>2208.0</ele>
        <time>2013-07-06T15:12:34Z</time>
      </trkpt>
      <trkpt lat="40.085117" lon="-5.032900">
        <ele>2209.0</ele>
        <time>2013-07-06T15:12:35Z</time>
      </trkpt>
      <trkpt lat="40.085200" lon="-5.032850">
        <ele>2210.0</ele>
        <time>2013-07-06T15:12:36Z</time>
      </trkpt>
      <trkpt lat="40.085283" lon="-5.032800">
        <ele>2211.0</ele>
        <time>2013-07-06T15:12:37Z</time>
      </trkpt>
      <trkpt lat="40.085350" lon="-5.032733">
        <ele>2213.0</ele>
        <time>2013-07-06T15:12:38Z</time>
      </trkpt>
      <trkpt lat="40.085417" lon="-5.032683">
        <ele>2216.0</ele>
        <time>2013-07-06T15:12:39Z</time>
      </trkpt>
      <trkpt lat="40.085467" lon="-5.032650">
        <ele>2219.0</ele>
        <time>2013-07-06T15:12:40Z</time>
      </trkpt>
      <trkpt lat="40.085500" lon="-5.032617">
        <ele>2221.0</ele>
        <time>2013-07-06T15:12:41Z</time>
      </trkpt>
      <trkpt lat="40.085550" lon="-5.032567">
        <ele>2222.0</ele>
        <time>2013-07-06T15:12:42Z</time>
      </trkpt>
      <trkpt lat="40.085617" lon="-5.032517">
        <ele>2223.0</ele>
        <time>2013-07-06T15:12:43Z</time>
      </trkpt>
      <trkpt lat="40.085683" lon="-5.032467">
        <ele>2223.0</ele>
        <time>2013-07-06T15:12:44Z</time>
      </trkpt>
      <trkpt lat="40.085750" lon="-5.032417">
        <ele>2224.0</ele>
        <time>2013-07-06T15:12:45Z</time>
      </trkpt>
      <trkpt lat="40.085817" lon="-5.032383">
        <ele>2226.0</ele>
        <time>2013-07-06T15:12:46Z</time>
      </trkpt>
      <trkpt lat="40.085900" lon="-5.032333">
        <ele>2228.0</ele>
        <time>2013-07-06T15:12:47Z</time>
      </trkpt>
      <trkpt lat="40.085950" lon="-5.032267">
        <ele>2229.0</ele>
        <time>2013-07-06T15:12:48Z</time>
      </trkpt>
      <trkpt lat="40.086017" lon="-5.032217">
        <ele>2231.0</ele>
        <time>2013-07-06T15:12:49Z</time>
      </trkpt>
      <trkpt lat="40.086067" lon="-5.032167">
        <ele>2233.0</ele>
        <time>2013-07-06T15:12:50Z</time>
      </trkpt>
      <trkpt lat="40.086117" lon="-5.032117">
        <ele>2234.0</ele>
        <time>2013-07-06T15:12:51Z</time>
      </trkpt>
      <trkpt lat="40.086183" lon="-5.032067">
        <ele>2234.0</ele>
        <time>2013-07-06T15:12:52Z</time>
      </trkpt>
      <trkpt lat="40.086250" lon="-5.032000">
        <ele>2232.0</ele>
        <time>2013-07-06T15:12:53Z</time>
      </trkpt>
      <trkpt lat="40.086333" lon="-5.031933">
        <ele>2231.0</ele>
        <time>2013-07-06T15:12:54Z</time>
      </trkpt>
      <trkpt lat="40.086400" lon="-5.031867">
        <ele>2230.0</ele>
        <time>2013-07-06T15:12:55Z</time>
      </trkpt>
      <trkpt lat="40.086483" lon="-5.031800">
        <ele>2230.0</ele>
        <time>2013-07-06T15:12:56Z</time>
      </trkpt>
      <trkpt lat="40.086567" lon="-5.031750">
        <ele>2231.0</ele>
        <time>2013-07-06T15:12:57Z</time>
      </trkpt>
      <trkpt lat="40.086633" lon="-5.031717">
        <ele>2231.0</ele>
        <time>2013-07-06T15:12:58Z</time>
      </trkpt>
      <trkpt lat="40.086717" lon="-5.031683">
        <ele>2230.0</ele>
        <time>2013-07-06T15:12:59Z</time>
      </trkpt>
      <trkpt lat="40.086800" lon="-5.031633">
        <ele>2229.0</ele>
        <time>2013-07-06T15:13:00Z</time>
      </trkpt>
      <trkpt lat="40.086900" lon="-5.031583">
        <ele>2228.0</ele>
        <time>2013-07-06T15:13:01Z</time>
      </trkpt>
      <trkpt lat="40.086983" lon="-5.031533">
        <ele>2228.0</ele>
        <time>2013-07-06T15:13:02Z</time>
      </trkpt>
      <trkpt lat="40.087067" lon="-5.031483">
        <ele>2228.0</ele>
        <time>2013-07-06T15:13:03Z</time>
      </trkpt>
      <trkpt lat="40.087133" lon="-5.031467">
        <ele>2227.0</ele>
        <time>2013-07-06T15:13:04Z</time>
      </trkpt>
      <trkpt lat="40.087217" lon="-5.031450">
        <ele>2226.0</ele>
        <time>2013-07-06T15:13:05Z</time>
      </trkpt>
      <trkpt lat="40.087300" lon="-5.031417">
        <ele>2224.0</ele>
        <time>2013-07-06T15:13:06Z</time>
      </trkpt>
      <trkpt lat="40.087383" lon="-5.031383">
        <ele>2222.0</ele>
        <time>2013-07-06T15:13:07Z</time>
      </trkpt>
      <trkpt lat="40.087483" lon="-5.031333">
        <ele>2220.0</ele>
        <time>2013-07-06T15:13:08Z</time>
      </trkpt>
      <trkpt lat="40.087583" lon="-5.031300">
        <ele>2219.0</ele>
        <time>2013-07-06T15:13:09Z</time>
      </trkpt>
      <trkpt lat="40.087683" lon="-5.031267">
        <ele>2219.0</ele>
        <time>2013-07-06T15:13:10Z</time>
      </trkpt>
      <trkpt lat="40.087783" lon="-5.031217">
        <ele>2219.0</ele>
        <time>2013-07-06T15:13:11Z</time>
      </trkpt>
      <trkpt lat="40.087867" lon="-5.031167">
        <ele>2219.0</ele>
        <time>2013-07-06T15:13:12Z</time>
      </trkpt>
      <trkpt lat="40.087967" lon="-5.031117">
        <ele>2218.0</ele>
        <time>2013-07-06T15:13:13Z</time>
      </trkpt>
      <trkpt lat="40.088050" lon="-5.031050">
        <ele>2218.0</ele>
        <time>2013-07-06T15:13:14Z</time>
      </trkpt>
      <trkpt lat="40.088133" lon="-5.031000">
        <ele>2217.0</ele>
        <time>2013-07-06T15:13:15Z</time>
      </trkpt>
      <trkpt lat="40.088217" lon="-5.030950">
        <ele>2216.0</ele>
        <time>2013-07-06T15:13:16Z</time>
      </trkpt>
      <trkpt lat="40.088300" lon="-5.030900">
        <ele>2214.0</ele>
        <time>2013-07-06T15:13:17Z</time>
      </trkpt>
      <trkpt lat="40.088383" lon="-5.030850">
        <ele>2212.0</ele>
        <time>2013-07-06T15:13:18Z</time>
      </trkpt>
      <trkpt lat="40.088483" lon="-5.030800">
        <ele>2209.0</ele>
        <time>2013-07-06T15:13:19Z</time>
      </trkpt>
      <trkpt lat="40.088583" lon="-5.030767">
        <ele>2207.0</ele>
        <time>2013-07-06T15:13:20Z</time>
      </trkpt>
      <trkpt lat="40.088683" lon="-5.030717">
        <ele>2205.0</ele>
        <time>2013-07-06T15:13:21Z</time>
      </trkpt>
      <trkpt lat="40.088767" lon="-5.030683">
        <ele>2204.0</ele>
        <time>2013-07-06T15:13:22Z</time>
      </trkpt>
      <trkpt lat="40.088867" lon="-5.030633">
        <ele>2202.0</ele>
        <time>2013-07-06T15:13:23Z</time>
      </trkpt>
      <trkpt lat="40.088950" lon="-5.030583">
        <ele>2200.0</ele>
        <time>2013-07-06T15:13:24Z</time>
      </trkpt>
      <trkpt lat="40.089050" lon="-5.030550">
        <ele>2199.0</ele>
        <time>2013-07-06T15:13:25Z</time>
      </trkpt>
      <trkpt lat="40.089133" lon="-5.030517">
        <ele>2197.0</ele>
        <time>2013-07-06T15:13:26Z</time>
      </trkpt>
      <trkpt lat="40.089200" lon="-5.030483">
        <ele>2195.0</ele>
        <time>2013-07-06T15:13:27Z</time>
      </trkpt>
      <trkpt lat="40.089283" lon="-5.030450">
        <ele>2193.0</ele>
        <time>2013-07-06T15:13:28Z</time>
      </trkpt>
      <trkpt lat="40.089367" lon="-5.030417">
        <ele>2191.0</ele>
        <time>2013-07-06T15:13:29Z</time>
      </trkpt>
      <trkpt lat="40.089450" lon="-5.030383">
        <ele>2188.0</ele>
        <time>2013-07-06T15:13:30Z</time>
      </trkpt>
      <trkpt lat="40.089550" lon="-5.030350">
        <ele>2185.0</ele>
        <time>2013-07-06T15:13:31Z</time>
      </trkpt>
      <trkpt lat="40.089633" lon="-5.030317">
        <ele>2182.0</ele>
        <time>2013-07-06T15:13:32Z</time>
      </trkpt>
      <trkpt lat="40.089717" lon="-5.030300">
        <ele>2180.0</ele>
        <time>2013-07-06T15:13:33Z</time>
      </trkpt>
      <trkpt lat="40.089800" lon="-5.030283">
        <ele>2178.0</ele>
        <time>2013-07-06T15:13:34Z</time>
      </trkpt>
      <trkpt lat="40.089867" lon="-5.030267">
        <ele>2176.0</ele>
        <time>2013-07-06T15:13:35Z</time>
      </trkpt>
      <trkpt lat="40.089967" lon="-5.030250">
        <ele>2172.0</ele>
        <time>2013-07-06T15:13:36Z</time>
      </trkpt>
      <trkpt lat="40.090067" lon="-5.030233">
        <ele>2169.0</ele>
        <time>2013-07-06T15:13:37Z</time>
      </trkpt>
      <trkpt lat="40.090167" lon="-5.030233">
        <ele>2166.0</ele>
        <time>2013-07-06T15:13:38Z</time>
      </trkpt>
      <trkpt lat="40.090250" lon="-5.030217">
        <ele>2164.0</ele>
        <time>2013-07-06T15:13:39Z</time>
      </trkpt>
      <trkpt lat="40.090333" lon="-5.030217">
        <ele>2162.0</ele>
        <time>2013-07-06T15:13:40Z</time>
      </trkpt>
      <trkpt lat="40.090400" lon="-5.030200">
        <ele>2160.0</ele>
        <time>2013-07-06T15:13:41Z</time>
      </trkpt>
      <trkpt lat="40.090483" lon="-5.030200">
        <ele>2158.0</ele>
        <time>2013-07-06T15:13:42Z</time>
      </trkpt>
      <trkpt lat="40.090567" lon="-5.030183">
        <ele>2154.0</ele>
        <time>2013-07-06T15:13:43Z</time>
      </trkpt>
      <trkpt lat="40.090650" lon="-5.030167">
        <ele>2151.0</ele>
        <time>2013-07-06T15:13:44Z</time>
      </trkpt>
      <trkpt lat="40.090750" lon="-5.030150">
        <ele>2148.0</ele>
        <time>2013-07-06T15:13:45Z</time>
      </trkpt>
      <trkpt lat="40.090833" lon="-5.030117">
        <ele>2145.0</ele>
        <time>2013-07-06T15:13:46Z</time>
      </trkpt>
      <trkpt lat="40.090917" lon="-5.030067">
        <ele>2142.0</ele>
        <time>2013-07-06T15:13:47Z</time>
      </trkpt>
      <trkpt lat="40.091000" lon="-5.030033">
        <ele>2139.0</ele>
        <time>2013-07-06T15:13:48Z</time>
      </trkpt>
      <trkpt lat="40.091083" lon="-5.030000">
        <ele>2137.0</ele>
        <time>2013-07-06T15:13:49Z</time>
      </trkpt>
      <trkpt lat="40.091183" lon="-5.029983">
        <ele>2134.0</ele>
        <time>2013-07-06T15:13:50Z</time>
      </trkpt>
      <trkpt lat="40.091267" lon="-5.029967">
        <ele>2130.0</ele>
        <time>2013-07-06T15:13:51Z</time>
      </trkpt>
      <trkpt lat="40.091367" lon="-5.029933">
        <ele>2127.0</ele>
        <time>2013-07-06T15:13:52Z</time>
      </trkpt>
      <trkpt lat="40.091467" lon="-5.029917">
        <ele>2124.0</ele>
        <time>2013-07-06T15:13:53Z</time>
      </trkpt>
      <trkpt lat="40.091550" lon="-5.029883">
        <ele>2121.0</ele>
        <time>2013-07-06T15:13:54Z</time>
      </trkpt>
      <trkpt lat="40.091633" lon="-5.029867">
        <ele>2119.0</ele>
        <time>2013-07-06T15:13:55Z</time>
      </trkpt>
      <trkpt lat="40.091733" lon="-5.029833">
        <ele>2117.0</ele>
        <time>2013-07-06T15:13:56Z</time>
      </trkpt>
      <trkpt lat="40.091817" lon="-5.029817">
        <ele>2114.0</ele>
        <time>2013-07-06T15:13:57Z</time>
      </trkpt>
      <trkpt lat="40.091900" lon="-5.029800">
        <ele>2111.0</ele>
        <time>2013-07-06T15:13:58Z</time>
      </trkpt>
      <trkpt lat="40.092000" lon="-5.029783">
        <ele>2108.0</ele>
        <time>2013-07-06T15:13:59Z</time>
      </trkpt>
      <trkpt lat="40.092083" lon="-5.029767">
        <ele>2106.0</ele>
        <time>2013-07-06T15:14:00Z</time>
      </trkpt>
      <trkpt lat="40.092183" lon="-5.029767">
        <ele>2104.0</ele>
        <time>2013-07-06T15:14:01Z</time>
      </trkpt>
      <trkpt lat="40.092267" lon="-5.029750">
        <ele>2101.0</ele>
        <time>2013-07-06T15:14:02Z</time>
      </trkpt>
      <trkpt lat="40.092367" lon="-5.029733">
        <ele>2099.0</ele>
        <time>2013-07-06T15:14:03Z</time>
      </trkpt>
      <trkpt lat="40.092450" lon="-5.029700">
        <ele>2096.0</ele>
        <time>2013-07-06T15:14:04Z</time>
      </trkpt>
      <trkpt lat="40.092550" lon="-5.029683">
        <ele>2094.0</ele>
        <time>2013-07-06T15:14:05Z</time>
      </trkpt>
      <trkpt lat="40.092633" lon="-5.029650">
        <ele>2093.0</ele>
        <time>2013-07-06T15:14:06Z</time>
      </trkpt>
      <trkpt lat="40.092800" lon="-5.029617">
        <ele>2090.0</ele>
        <time>2013-07-06T15:14:08Z</time>
      </trkpt>
      <trkpt lat="40.092883" lon="-5.029600">
        <ele>2088.0</ele>
        <time>2013-07-06T15:14:09Z</time>
      </trkpt>
      <trkpt lat="40.092983" lon="-5.029583">
        <ele>2085.0</ele>
        <time>2013-07-06T15:14:10Z</time>
      </trkpt>
      <trkpt lat="40.093083" lon="-5.029550">
        <ele>2083.0</ele>
        <time>2013-07-06T15:14:11Z</time>
      </trkpt>
      <trkpt lat="40.093167" lon="-5.029533">
        <ele>2081.0</ele>
        <time>2013-07-06T15:14:12Z</time>
      </trkpt>
      <trkpt lat="40.093250" lon="-5.029517">
        <ele>2080.0</ele>
        <time>2013-07-06T15:14:13Z</time>
      </trkpt>
      <trkpt lat="40.093350" lon="-5.029500">
        <ele>2078.0</ele>
        <time>2013-07-06T15:14:14Z</time>
      </trkpt>
      <trkpt lat="40.093433" lon="-5.029483">
        <ele>2076.0</ele>
        <time>2013-07-06T15:14:15Z</time>
      </trkpt>
      <trkpt lat="40.093517" lon="-5.029467">
        <ele>2074.0</ele>
        <time>2013-07-06T15:14:16Z</time>
      </trkpt>
      <trkpt lat="40.093617" lon="-5.029450">
        <ele>2072.0</ele>
        <time>2013-07-06T15:14:17Z</time>
      </trkpt>
      <trkpt lat="40.093700" lon="-5.029417">
        <ele>2070.0</ele>
        <time>2013-07-06T15:14:18Z</time>
      </trkpt>
      <trkpt lat="40.093783" lon="-5.029417">
        <ele>2069.0</ele>
        <time>2013-07-06T15:14:19Z</time>
      </trkpt>
      <trkpt lat="40.093867" lon="-5.029400">
        <ele>2067.0</ele>
        <time>2013-07-06T15:14:20Z</time>
      </trkpt>
      <trkpt lat="40.093950" lon="-5.029383">
        <ele>2065.0</ele>
        <time>2013-07-06T15:14:21Z</time>
      </trkpt>
      <trkpt lat="40.094033" lon="-5.029367">
        <ele>2063.0</ele>
        <time>2013-07-06T15:14:22Z</time>
      </trkpt>
      <trkpt lat="40.094117" lon="-5.029367">
        <ele>2061.0</ele>
        <time>2013-07-06T15:14:23Z</time>
      </trkpt>
      <trkpt lat="40.094283" lon="-5.029333">
        <ele>2057.0</ele>
        <time>2013-07-06T15:14:25Z</time>
      </trkpt>
      <trkpt lat="40.094383" lon="-5.029317">
        <ele>2055.0</ele>
        <time>2013-07-06T15:14:26Z</time>
      </trkpt>
      <trkpt lat="40.094483" lon="-5.029300">
        <ele>2052.0</ele>
        <time>2013-07-06T15:14:27Z</time>
      </trkpt>
      <trkpt lat="40.094583" lon="-5.029267">
        <ele>2049.0</ele>
        <time>2013-07-06T15:14:28Z</time>
      </trkpt>
      <trkpt lat="40.094683" lon="-5.029250">
        <ele>2048.0</ele>
        <time>2013-07-06T15:14:29Z</time>
      </trkpt>
      <trkpt lat="40.094767" lon="-5.029233">
        <ele>2046.0</ele>
        <time>2013-07-06T15:14:30Z</time>
      </trkpt>
      <trkpt lat="40.094850" lon="-5.029217">
        <ele>2045.0</ele>
        <time>2013-07-06T15:14:31Z</time>
      </trkpt>
      <trkpt lat="40.094950" lon="-5.029200">
        <ele>2043.0</ele>
        <time>2013-07-06T15:14:32Z</time>
      </trkpt>
      <trkpt lat="40.095033" lon="-5.029167">
        <ele>2040.0</ele>
        <time>2013-07-06T15:14:33Z</time>
      </trkpt>
      <trkpt lat="40.095133" lon="-5.029150">
        <ele>2037.0</ele>
        <time>2013-07-06T15:14:34Z</time>
      </trkpt>
      <trkpt lat="40.095233" lon="-5.029133">
        <ele>2035.0</ele>
        <time>2013-07-06T15:14:35Z</time>
      </trkpt>
      <trkpt lat="40.095317" lon="-5.029117">
        <ele>2033.0</ele>
        <time>2013-07-06T15:14:36Z</time>
      </trkpt>
      <trkpt lat="40.095417" lon="-5.029117">
        <ele>2031.0</ele>
        <time>2013-07-06T15:14:37Z</time>
      </trkpt>
      <trkpt lat="40.095500" lon="-5.029117">
        <ele>2029.0</ele>
        <time>2013-07-06T15:14:38Z</time>
      </trkpt>
      <trkpt lat="40.095583" lon="-5.029100">
        <ele>2027.0</ele>
        <time>2013-07-06T15:14:39Z</time>
      </trkpt>
      <trkpt lat="40.095667" lon="-5.029100">
        <ele>2024.0</ele>
        <time>2013-07-06T15:14:40Z</time>
      </trkpt>
      <trkpt lat="40.095750" lon="-5.029100">
        <ele>2021.0</ele>
        <time>2013-07-06T15:14:41Z</time>
      </trkpt>
      <trkpt lat="40.095850" lon="-5.029083">
        <ele>2018.0</ele>
        <time>2013-07-06T15:14:42Z</time>
      </trkpt>
      <trkpt lat="40.095950" lon="-5.029083">
        <ele>2015.0</ele>
        <time>2013-07-06T15:14:43Z</time>
      </trkpt>
      <trkpt lat="40.096050" lon="-5.029083">
        <ele>2012.0</ele>
        <time>2013-07-06T15:14:44Z</time>
      </trkpt>
      <trkpt lat="40.096133" lon="-5.029067">
        <ele>2010.0</ele>
        <time>2013-07-06T15:14:45Z</time>
      </trkpt>
      <trkpt lat="40.096217" lon="-5.029050">
        <ele>2009.0</ele>
        <time>2013-07-06T15:14:46Z</time>
      </trkpt>
      <trkpt lat="40.096300" lon="-5.029033">
        <ele>2007.0</ele>
        <time>2013-07-06T15:14:47Z</time>
      </trkpt>
      <trkpt lat="40.096383" lon="-5.029033">
        <ele>2005.0</ele>
        <time>2013-07-06T15:14:48Z</time>
      </trkpt>
      <trkpt lat="40.096467" lon="-5.029017">
        <ele>2002.0</ele>
        <time>2013-07-06T15:14:49Z</time>
      </trkpt>
      <trkpt lat="40.096567" lon="-5.029000">
        <ele>2000.0</ele>
        <time>2013-07-06T15:14:50Z</time>
      </trkpt>
      <trkpt lat="40.096650" lon="-5.028967">
        <ele>1997.0</ele>
        <time>2013-07-06T15:14:51Z</time>
      </trkpt>
      <trkpt lat="40.096750" lon="-5.028950">
        <ele>1996.0</ele>
        <time>2013-07-06T15:14:52Z</time>
      </trkpt>
      <trkpt lat="40.096817" lon="-5.028950">
        <ele>1996.0</ele>
        <time>2013-07-06T15:14:53Z</time>
      </trkpt>
      <trkpt lat="40.096900" lon="-5.028967">
        <ele>1995.0</ele>
        <time>2013-07-06T15:14:54Z</time>
      </trkpt>
      <trkpt lat="40.096983" lon="-5.028967">
        <ele>1992.0</ele>
        <time>2013-07-06T15:14:55Z</time>
      </trkpt>
      <trkpt lat="40.097067" lon="-5.028983">
        <ele>1990.0</ele>
        <time>2013-07-06T15:14:56Z</time>
      </trkpt>
      <trkpt lat="40.097167" lon="-5.028983">
        <ele>1987.0</ele>
        <time>2013-07-06T15:14:57Z</time>
      </trkpt>
      <trkpt lat="40.097267" lon="-5.028983">
        <ele>1984.0</ele>
        <time>2013-07-06T15:14:58Z</time>
      </trkpt>
      <trkpt lat="40.097367" lon="-5.028967">
        <ele>1982.0</ele>
        <time>2013-07-06T15:14:59Z</time>
      </trkpt>
      <trkpt lat="40.097467" lon="-5.028983">
        <ele>1980.0</ele>
        <time>2013-07-06T15:15:00Z</time>
      </trkpt>
      <trkpt lat="40.097567" lon="-5.028983">
        <ele>1978.0</ele>
        <time>2013-07-06T15:15:01Z</time>
      </trkpt>
      <trkpt lat="40.097650" lon="-5.029000">
        <ele>1975.0</ele>
        <time>2013-07-06T15:15:02Z</time>
      </trkpt>
      <trkpt lat="40.097750" lon="-5.029017">
        <ele>1973.0</ele>
        <time>2013-07-06T15:15:03Z</time>
      </trkpt>
      <trkpt lat="40.097850" lon="-5.029017">
        <ele>1970.0</ele>
        <time>2013-07-06T15:15:04Z</time>
      </trkpt>
      <trkpt lat="40.097967" lon="-5.029033">
        <ele>1968.0</ele>
        <time>2013-07-06T15:15:05Z</time>
      </trkpt>
      <trkpt lat="40.098067" lon="-5.029033">
        <ele>1965.0</ele>
        <time>2013-07-06T15:15:06Z</time>
      </trkpt>
      <trkpt lat="40.098167" lon="-5.029050">
        <ele>1963.0</ele>
        <time>2013-07-06T15:15:07Z</time>
      </trkpt>
      <trkpt lat="40.098267" lon="-5.029050">
        <ele>1960.0</ele>
        <time>2013-07-06T15:15:08Z</time>
      </trkpt>
      <trkpt lat="40.098350" lon="-5.029050">
        <ele>1958.0</ele>
        <time>2013-07-06T15:15:09Z</time>
      </trkpt>
      <trkpt lat="40.098467" lon="-5.029050">
        <ele>1955.0</ele>
        <time>2013-07-06T15:15:10Z</time>
      </trkpt>
      <trkpt lat="40.098567" lon="-5.029050">
        <ele>1952.0</ele>
        <time>2013-07-06T15:15:11Z</time>
      </trkpt>
      <trkpt lat="40.098667" lon="-5.029050">
        <ele>1950.0</ele>
        <time>2013-07-06T15:15:12Z</time>
      </trkpt>
      <trkpt lat="40.098767" lon="-5.029050">
        <ele>1948.0</ele>
        <time>2013-07-06T15:15:13Z</time>
      </trkpt>
      <trkpt lat="40.098867" lon="-5.029067">
        <ele>1947.0</ele>
        <time>2013-07-06T15:15:14Z</time>
      </trkpt>
      <trkpt lat="40.099067" lon="-5.029050">
        <ele>1943.0</ele>
        <time>2013-07-06T15:15:16Z</time>
      </trkpt>
      <trkpt lat="40.099150" lon="-5.029033">
        <ele>1942.0</ele>
        <time>2013-07-06T15:15:17Z</time>
      </trkpt>
      <trkpt lat="40.099333" lon="-5.029050">
        <ele>1941.0</ele>
        <time>2013-07-06T15:15:19Z</time>
      </trkpt>
      <trkpt lat="40.099417" lon="-5.029050">
        <ele>1939.0</ele>
        <time>2013-07-06T15:15:20Z</time>
      </trkpt>
      <trkpt lat="40.099517" lon="-5.029033">
        <ele>1938.0</ele>
        <time>2013-07-06T15:15:21Z</time>
      </trkpt>
      <trkpt lat="40.099617" lon="-5.029033">
        <ele>1936.0</ele>
        <time>2013-07-06T15:15:22Z</time>
      </trkpt>
      <trkpt lat="40.099717" lon="-5.029017">
        <ele>1934.0</ele>
        <time>2013-07-06T15:15:23Z</time>
      </trkpt>
      <trkpt lat="40.099817" lon="-5.029000">
        <ele>1933.0</ele>
        <time>2013-07-06T15:15:24Z</time>
      </trkpt>
      <trkpt lat="40.099917" lon="-5.029000">
        <ele>1931.0</ele>
        <time>2013-07-06T15:15:25Z</time>
      </trkpt>
      <trkpt lat="40.100017" lon="-5.028983">
        <ele>1930.0</ele>
        <time>2013-07-06T15:15:26Z</time>
      </trkpt>
      <trkpt lat="40.100100" lon="-5.028983">
        <ele>1930.0</ele>
        <time>2013-07-06T15:15:27Z</time>
      </trkpt>
      <trkpt lat="40.100183" lon="-5.028967">
        <ele>1928.0</ele>
        <time>2013-07-06T15:15:28Z</time>
      </trkpt>
      <trkpt lat="40.100283" lon="-5.028950">
        <ele>1926.0</ele>
        <time>2013-07-06T15:15:29Z</time>
      </trkpt>
      <trkpt lat="40.100383" lon="-5.028950">
        <ele>1924.0</ele>
        <time>2013-07-06T15:15:30Z</time>
      </trkpt>
      <trkpt lat="40.100500" lon="-5.028933">
        <ele>1923.0</ele>
        <time>2013-07-06T15:15:31Z</time>
      </trkpt>
      <trkpt lat="40.100600" lon="-5.028917">
        <ele>1921.0</ele>
        <time>2013-07-06T15:15:32Z</time>
      </trkpt>
      <trkpt lat="40.100683" lon="-5.028917">
        <ele>1920.0</ele>
        <time>2013-07-06T15:15:33Z</time>
      </trkpt>
      <trkpt lat="40.100783" lon="-5.028900">
        <ele>1919.0</ele>
        <time>2013-07-06T15:15:34Z</time>
      </trkpt>
      <trkpt lat="40.100883" lon="-5.028883">
        <ele>1917.0</ele>
        <time>2013-07-06T15:15:35Z</time>
      </trkpt>
      <trkpt lat="40.101000" lon="-5.028883">
        <ele>1915.0</ele>
        <time>2013-07-06T15:15:36Z</time>
      </trkpt>
      <trkpt lat="40.101100" lon="-5.028867">
        <ele>1914.0</ele>
        <time>2013-07-06T15:15:37Z</time>
      </trkpt>
      <trkpt lat="40.101217" lon="-5.028850">
        <ele>1912.0</ele>
        <time>2013-07-06T15:15:38Z</time>
      </trkpt>
      <trkpt lat="40.101317" lon="-5.028850">
        <ele>1910.0</ele>
        <time>2013-07-06T15:15:39Z</time>
      </trkpt>
      <trkpt lat="40.101433" lon="-5.028833">
        <ele>1909.0</ele>
        <time>2013-07-06T15:15:40Z</time>
      </trkpt>
      <trkpt lat="40.101517" lon="-5.028817">
        <ele>1907.0</ele>
        <time>2013-07-06T15:15:41Z</time>
      </trkpt>
      <trkpt lat="40.101617" lon="-5.028800">
        <ele>1907.0</ele>
        <time>2013-07-06T15:15:42Z</time>
      </trkpt>
      <trkpt lat="40.101700" lon="-5.028783">
        <ele>1906.0</ele>
        <time>2013-07-06T15:15:43Z</time>
      </trkpt>
      <trkpt lat="40.101783" lon="-5.028783">
        <ele>1905.0</ele>
        <time>2013-07-06T15:15:44Z</time>
      </trkpt>
      <trkpt lat="40.101883" lon="-5.028783">
        <ele>1903.0</ele>
        <time>2013-07-06T15:15:45Z</time>
      </trkpt>
      <trkpt lat="40.101967" lon="-5.028783">
        <ele>1901.0</ele>
        <time>2013-07-06T15:15:46Z</time>
      </trkpt>
      <trkpt lat="40.102067" lon="-5.028767">
        <ele>1900.0</ele>
        <time>2013-07-06T15:15:47Z</time>
      </trkpt>
      <trkpt lat="40.102150" lon="-5.028767">
        <ele>1899.0</ele>
        <time>2013-07-06T15:15:48Z</time>
      </trkpt>
      <trkpt lat="40.102217" lon="-5.028783">
        <ele>1898.0</ele>
        <time>2013-07-06T15:15:49Z</time>
      </trkpt>
      <trkpt lat="40.102300" lon="-5.028783">
        <ele>1897.0</ele>
        <time>2013-07-06T15:15:50Z</time>
      </trkpt>
      <trkpt lat="40.102383" lon="-5.028783">
        <ele>1895.0</ele>
        <time>2013-07-06T15:15:51Z</time>
      </trkpt>
      <trkpt lat="40.102467" lon="-5.028783">
        <ele>1893.0</ele>
        <time>2013-07-06T15:15:52Z</time>
      </trkpt>
      <trkpt lat="40.102567" lon="-5.028783">
        <ele>1891.0</ele>
        <time>2013-07-06T15:15:53Z</time>
      </trkpt>
      <trkpt lat="40.102650" lon="-5.028783">
        <ele>1889.0</ele>
        <time>2013-07-06T15:15:54Z</time>
      </trkpt>
      <trkpt lat="40.102717" lon="-5.028800">
        <ele>1887.0</ele>
        <time>2013-07-06T15:15:55Z</time>
      </trkpt>
      <trkpt lat="40.102800" lon="-5.028817">
        <ele>1885.0</ele>
        <time>2013-07-06T15:15:56Z</time>
      </trkpt>
      <trkpt lat="40.102883" lon="-5.028817">
        <ele>1882.0</ele>
        <time>2013-07-06T15:15:57Z</time>
      </trkpt>
      <trkpt lat="40.102983" lon="-5.028817">
        <ele>1879.0</ele>
        <time>2013-07-06T15:15:58Z</time>
      </trkpt>
      <trkpt lat="40.103067" lon="-5.028817">
        <ele>1876.0</ele>
        <time>2013-07-06T15:15:59Z</time>
      </trkpt>
      <trkpt lat="40.103150" lon="-5.028800">
        <ele>1874.0</ele>
        <time>2013-07-06T15:16:00Z</time>
      </trkpt>
      <trkpt lat="40.103233" lon="-5.028800">
        <ele>1872.0</ele>
        <time>2013-07-06T15:16:01Z</time>
      </trkpt>
      <trkpt lat="40.103317" lon="-5.028783">
        <ele>1870.0</ele>
        <time>2013-07-06T15:16:02Z</time>
      </trkpt>
      <trkpt lat="40.103400" lon="-5.028783">
        <ele>1868.0</ele>
        <time>2013-07-06T15:16:03Z</time>
      </trkpt>
      <trkpt lat="40.103483" lon="-5.028767">
        <ele>1865.0</ele>
        <time>2013-07-06T15:16:04Z</time>
      </trkpt>
      <trkpt lat="40.103567" lon="-5.028750">
        <ele>1863.0</ele>
        <time>2013-07-06T15:16:05Z</time>
      </trkpt>
      <trkpt lat="40.103733" lon="-5.028717">
        <ele>1858.0</ele>
        <time>2013-07-06T15:16:07Z</time>
      </trkpt>
      <trkpt lat="40.103800" lon="-5.028717">
        <ele>1856.0</ele>
        <time>2013-07-06T15:16:08Z</time>
      </trkpt>
      <trkpt lat="40.103867" lon="-5.028717">
        <ele>1853.0</ele>
        <time>2013-07-06T15:16:09Z</time>
      </trkpt>
      <trkpt lat="40.103950" lon="-5.028717">
        <ele>1850.0</ele>
        <time>2013-07-06T15:16:10Z</time>
      </trkpt>
      <trkpt lat="40.104033" lon="-5.028700">
        <ele>1846.0</ele>
        <time>2013-07-06T15:16:11Z</time>
      </trkpt>
      <trkpt lat="40.104117" lon="-5.028667">
        <ele>1843.0</ele>
        <time>2013-07-06T15:16:12Z</time>
      </trkpt>
      <trkpt lat="40.104200" lon="-5.028650">
        <ele>1839.0</ele>
        <time>2013-07-06T15:16:13Z</time>
      </trkpt>
      <trkpt lat="40.104283" lon="-5.028633">
        <ele>1836.0</ele>
        <time>2013-07-06T15:16:14Z</time>
      </trkpt>
      <trkpt lat="40.104383" lon="-5.028600">
        <ele>1833.0</ele>
        <time>2013-07-06T15:16:15Z</time>
      </trkpt>
      <trkpt lat="40.104467" lon="-5.028583">
        <ele>1830.0</ele>
        <time>2013-07-06T15:16:16Z</time>
      </trkpt>
      <trkpt lat="40.104550" lon="-5.028567">
        <ele>1828.0</ele>
        <time>2013-07-06T15:16:17Z</time>
      </trkpt>
      <trkpt lat="40.104633" lon="-5.028550">
        <ele>1825.0</ele>
        <time>2013-07-06T15:16:18Z</time>
      </trkpt>
      <trkpt lat="40.104717" lon="-5.028533">
        <ele>1822.0</ele>
        <time>2013-07-06T15:16:19Z</time>
      </trkpt>
      <trkpt lat="40.104817" lon="-5.028517">
        <ele>1819.0</ele>
        <time>2013-07-06T15:16:20Z</time>
      </trkpt>
      <trkpt lat="40.104900" lon="-5.028517">
        <ele>1816.0</ele>
        <time>2013-07-06T15:16:21Z</time>
      </trkpt>
      <trkpt lat="40.105000" lon="-5.028500">
        <ele>1813.0</ele>
        <time>2013-07-06T15:16:22Z</time>
      </trkpt>
      <trkpt lat="40.105083" lon="-5.028483">
        <ele>1811.0</ele>
        <time>2013-07-06T15:16:23Z</time>
      </trkpt>
      <trkpt lat="40.105167" lon="-5.028467">
        <ele>1808.0</ele>
        <time>2013-07-06T15:16:24Z</time>
      </trkpt>
      <trkpt lat="40.105233" lon="-5.028467">
        <ele>1806.0</ele>
        <time>2013-07-06T15:16:25Z</time>
      </trkpt>
      <trkpt lat="40.105317" lon="-5.028467">
        <ele>1803.0</ele>
        <time>2013-07-06T15:16:26Z</time>
      </trkpt>
      <trkpt lat="40.105400" lon="-5.028450">
        <ele>1800.0</ele>
        <time>2013-07-06T15:16:27Z</time>
      </trkpt>
      <trkpt lat="40.105483" lon="-5.028450">
        <ele>1797.0</ele>
        <time>2013-07-06T15:16:28Z</time>
      </trkpt>
      <trkpt lat="40.105567" lon="-5.028433">
        <ele>1795.0</ele>
        <time>2013-07-06T15:16:29Z</time>
      </trkpt>
      <trkpt lat="40.105650" lon="-5.028417">
        <ele>1794.0</ele>
        <time>2013-07-06T15:16:30Z</time>
      </trkpt>
      <trkpt lat="40.105733" lon="-5.028417">
        <ele>1792.0</ele>
        <time>2013-07-06T15:16:31Z</time>
      </trkpt>
      <trkpt lat="40.105800" lon="-5.028417">
        <ele>1790.0</ele>
        <time>2013-07-06T15:16:32Z</time>
      </trkpt>
      <trkpt lat="40.105883" lon="-5.028417">
        <ele>1789.0</ele>
        <time>2013-07-06T15:16:33Z</time>
      </trkpt>
      <trkpt lat="40.105950" lon="-5.028433">
        <ele>1787.0</ele>
        <time>2013-07-06T15:16:34Z</time>
      </trkpt>
      <trkpt lat="40.106033" lon="-5.028433">
        <ele>1785.0</ele>
        <time>2013-07-06T15:16:35Z</time>
      </trkpt>
      <trkpt lat="40.106100" lon="-5.028450">
        <ele>1783.0</ele>
        <time>2013-07-06T15:16:36Z</time>
      </trkpt>
      <trkpt lat="40.106183" lon="-5.028450">
        <ele>1780.0</ele>
        <time>2013-07-06T15:16:37Z</time>
      </trkpt>
      <trkpt lat="40.106267" lon="-5.028450">
        <ele>1778.0</ele>
        <time>2013-07-06T15:16:38Z</time>
      </trkpt>
      <trkpt lat="40.106350" lon="-5.028450">
        <ele>1775.0</ele>
        <time>2013-07-06T15:16:39Z</time>
      </trkpt>
      <trkpt lat="40.106417" lon="-5.028467">
        <ele>1773.0</ele>
        <time>2013-07-06T15:16:40Z</time>
      </trkpt>
      <trkpt lat="40.106500" lon="-5.028483">
        <ele>1771.0</ele>
        <time>2013-07-06T15:16:41Z</time>
      </trkpt>
      <trkpt lat="40.106567" lon="-5.028483">
        <ele>1768.0</ele>
        <time>2013-07-06T15:16:42Z</time>
      </trkpt>
      <trkpt lat="40.106650" lon="-5.028483">
        <ele>1767.0</ele>
        <time>2013-07-06T15:16:43Z</time>
      </trkpt>
      <trkpt lat="40.106717" lon="-5.028483">
        <ele>1765.0</ele>
        <time>2013-07-06T15:16:44Z</time>
      </trkpt>
      <trkpt lat="40.106783" lon="-5.028500">
        <ele>1763.0</ele>
        <time>2013-07-06T15:16:45Z</time>
      </trkpt>
      <trkpt lat="40.106850" lon="-5.028500">
        <ele>1761.0</ele>
        <time>2013-07-06T15:16:46Z</time>
      </trkpt>
      <trkpt lat="40.106917" lon="-5.028517">
        <ele>1759.0</ele>
        <time>2013-07-06T15:16:47Z</time>
      </trkpt>
      <trkpt lat="40.107000" lon="-5.028517">
        <ele>1757.0</ele>
        <time>2013-07-06T15:16:48Z</time>
      </trkpt>
      <trkpt lat="40.107067" lon="-5.028500">
        <ele>1755.0</ele>
        <time>2013-07-06T15:16:49Z</time>
      </trkpt>
      <trkpt lat="40.107133" lon="-5.028500">
        <ele>1753.0</ele>
        <time>2013-07-06T15:16:50Z</time>
      </trkpt>
      <trkpt lat="40.107217" lon="-5.028500">
        <ele>1751.0</ele>
        <time>2013-07-06T15:16:51Z</time>
      </trkpt>
      <trkpt lat="40.107283" lon="-5.028500">
        <ele>1749.0</ele>
        <time>2013-07-06T15:16:52Z</time>
      </trkpt>
      <trkpt lat="40.107367" lon="-5.028500">
        <ele>1747.0</ele>
        <time>2013-07-06T15:16:53Z</time>
      </trkpt>
      <trkpt lat="40.107450" lon="-5.028500">
        <ele>1744.0</ele>
        <time>2013-07-06T15:16:54Z</time>
      </trkpt>
      <trkpt lat="40.107533" lon="-5.028500">
        <ele>1743.0</ele>
        <time>2013-07-06T15:16:55Z</time>
      </trkpt>
      <trkpt lat="40.107600" lon="-5.028483">
        <ele>1742.0</ele>
        <time>2013-07-06T15:16:56Z</time>
      </trkpt>
      <trkpt lat="40.107667" lon="-5.028483">
        <ele>1741.0</ele>
        <time>2013-07-06T15:16:57Z</time>
      </trkpt>
      <trkpt lat="40.107733" lon="-5.028483">
        <ele>1739.0</ele>
        <time>2013-07-06T15:16:58Z</time>
      </trkpt>
      <trkpt lat="40.107800" lon="-5.028483">
        <ele>1738.0</ele>
        <time>2013-07-06T15:16:59Z</time>
      </trkpt>
      <trkpt lat="40.107867" lon="-5.028483">
        <ele>1736.0</ele>
        <time>2013-07-06T15:17:00Z</time>
      </trkpt>
      <trkpt lat="40.107950" lon="-5.028483">
        <ele>1734.0</ele>
        <time>2013-07-06T15:17:01Z</time>
      </trkpt>
      <trkpt lat="40.108017" lon="-5.028483">
        <ele>1731.0</ele>
        <time>2013-07-06T15:17:02Z</time>
      </trkpt>
      <trkpt lat="40.108100" lon="-5.028500">
        <ele>1729.0</ele>
        <time>2013-07-06T15:17:03Z</time>
      </trkpt>
      <trkpt lat="40.108167" lon="-5.028517">
        <ele>1727.0</ele>
        <time>2013-07-06T15:17:04Z</time>
      </trkpt>
      <trkpt lat="40.108250" lon="-5.028517">
        <ele>1724.0</ele>
        <time>2013-07-06T15:17:05Z</time>
      </trkpt>
      <trkpt lat="40.108333" lon="-5.028517">
        <ele>1721.0</ele>
        <time>2013-07-06T15:17:06Z</time>
      </trkpt>
      <trkpt lat="40.108417" lon="-5.028517">
        <ele>1719.0</ele>
        <time>2013-07-06T15:17:07Z</time>
      </trkpt>
      <trkpt lat="40.108500" lon="-5.028500">
        <ele>1717.0</ele>
        <time>2013-07-06T15:17:08Z</time>
      </trkpt>
      <trkpt lat="40.108583" lon="-5.028500">
        <ele>1715.0</ele>
        <time>2013-07-06T15:17:09Z</time>
      </trkpt>
      <trkpt lat="40.108667" lon="-5.028500">
        <ele>1714.0</ele>
        <time>2013-07-06T15:17:10Z</time>
      </trkpt>
      <trkpt lat="40.108733" lon="-5.028500">
        <ele>1714.0</ele>
        <time>2013-07-06T15:17:11Z</time>
      </trkpt>
      <trkpt lat="40.108817" lon="-5.028483">
        <ele>1714.0</ele>
        <time>2013-07-06T15:17:12Z</time>
      </trkpt>
      <trkpt lat="40.108883" lon="-5.028483">
        <ele>1713.0</ele>
        <time>2013-07-06T15:17:13Z</time>
      </trkpt>
      <trkpt lat="40.108967" lon="-5.028467">
        <ele>1712.0</ele>
        <time>2013-07-06T15:17:14Z</time>
      </trkpt>
      <trkpt lat="40.109050" lon="-5.028467">
        <ele>1710.0</ele>
        <time>2013-07-06T15:17:15Z</time>
      </trkpt>
      <trkpt lat="40.109133" lon="-5.028433">
        <ele>1709.0</ele>
        <time>2013-07-06T15:17:16Z</time>
      </trkpt>
      <trkpt lat="40.109217" lon="-5.028433">
        <ele>1708.0</ele>
        <time>2013-07-06T15:17:17Z</time>
      </trkpt>
      <trkpt lat="40.109283" lon="-5.028417">
        <ele>1708.0</ele>
        <time>2013-07-06T15:17:18Z</time>
      </trkpt>
      <trkpt lat="40.109350" lon="-5.028417">
        <ele>1707.0</ele>
        <time>2013-07-06T15:17:19Z</time>
      </trkpt>
      <trkpt lat="40.109417" lon="-5.028417">
        <ele>1706.0</ele>
        <time>2013-07-06T15:17:20Z</time>
      </trkpt>
      <trkpt lat="40.109500" lon="-5.028417">
        <ele>1704.0</ele>
        <time>2013-07-06T15:17:21Z</time>
      </trkpt>
      <trkpt lat="40.109583" lon="-5.028417">
        <ele>1701.0</ele>
        <time>2013-07-06T15:17:22Z</time>
      </trkpt>
      <trkpt lat="40.109750" lon="-5.028400">
        <ele>1697.0</ele>
        <time>2013-07-06T15:17:24Z</time>
      </trkpt>
      <trkpt lat="40.109833" lon="-5.028400">
        <ele>1694.0</ele>
        <time>2013-07-06T15:17:25Z</time>
      </trkpt>
      <trkpt lat="40.109917" lon="-5.028400">
        <ele>1690.0</ele>
        <time>2013-07-06T15:17:26Z</time>
      </trkpt>
      <trkpt lat="40.110017" lon="-5.028400">
        <ele>1687.0</ele>
        <time>2013-07-06T15:17:27Z</time>
      </trkpt>
      <trkpt lat="40.110117" lon="-5.028400">
        <ele>1685.0</ele>
        <time>2013-07-06T15:17:28Z</time>
      </trkpt>
      <trkpt lat="40.110200" lon="-5.028383">
        <ele>1683.0</ele>
        <time>2013-07-06T15:17:29Z</time>
      </trkpt>
      <trkpt lat="40.110267" lon="-5.028383">
        <ele>1683.0</ele>
        <time>2013-07-06T15:17:30Z</time>
      </trkpt>
      <trkpt lat="40.110333" lon="-5.028383">
        <ele>1682.0</ele>
        <time>2013-07-06T15:17:31Z</time>
      </trkpt>
      <trkpt lat="40.110400" lon="-5.028383">
        <ele>1680.0</ele>
        <time>2013-07-06T15:17:32Z</time>
      </trkpt>
      <trkpt lat="40.110483" lon="-5.028383">
        <ele>1677.0</ele>
        <time>2013-07-06T15:17:33Z</time>
      </trkpt>
      <trkpt lat="40.110567" lon="-5.028367">
        <ele>1674.0</ele>
        <time>2013-07-06T15:17:34Z</time>
      </trkpt>
      <trkpt lat="40.110650" lon="-5.028350">
        <ele>1671.0</ele>
        <time>2013-07-06T15:17:35Z</time>
      </trkpt>
      <trkpt lat="40.110750" lon="-5.028333">
        <ele>1668.0</ele>
        <time>2013-07-06T15:17:36Z</time>
      </trkpt>
      <trkpt lat="40.110817" lon="-5.028317">
        <ele>1666.0</ele>
        <time>2013-07-06T15:17:37Z</time>
      </trkpt>
      <trkpt lat="40.110883" lon="-5.028317">
        <ele>1663.0</ele>
        <time>2013-07-06T15:17:38Z</time>
      </trkpt>
      <trkpt lat="40.110967" lon="-5.028317">
        <ele>1661.0</ele>
        <time>2013-07-06T15:17:39Z</time>
      </trkpt>
      <trkpt lat="40.111050" lon="-5.028317">
        <ele>1658.0</ele>
        <time>2013-07-06T15:17:40Z</time>
      </trkpt>
      <trkpt lat="40.111150" lon="-5.028317">
        <ele>1655.0</ele>
        <time>2013-07-06T15:17:41Z</time>
      </trkpt>
      <trkpt lat="40.111233" lon="-5.028300">
        <ele>1653.0</ele>
        <time>2013-07-06T15:17:42Z</time>
      </trkpt>
      <trkpt lat="40.111317" lon="-5.028300">
        <ele>1651.0</ele>
        <time>2013-07-06T15:17:43Z</time>
      </trkpt>
      <trkpt lat="40.111383" lon="-5.028283">
        <ele>1648.0</ele>
        <time>2013-07-06T15:17:44Z</time>
      </trkpt>
      <trkpt lat="40.111467" lon="-5.028283">
        <ele>1646.0</ele>
        <time>2013-07-06T15:17:45Z</time>
      </trkpt>
      <trkpt lat="40.111550" lon="-5.028267">
        <ele>1642.0</ele>
        <time>2013-07-06T15:17:46Z</time>
      </trkpt>
      <trkpt lat="40.111650" lon="-5.028267">
        <ele>1639.0</ele>
        <time>2013-07-06T15:17:47Z</time>
      </trkpt>
      <trkpt lat="40.111733" lon="-5.028267">
        <ele>1637.0</ele>
        <time>2013-07-06T15:17:48Z</time>
      </trkpt>
      <trkpt lat="40.111817" lon="-5.028250">
        <ele>1635.0</ele>
        <time>2013-07-06T15:17:49Z</time>
      </trkpt>
      <trkpt lat="40.111900" lon="-5.028250">
        <ele>1633.0</ele>
        <time>2013-07-06T15:17:50Z</time>
      </trkpt>
      <trkpt lat="40.111983" lon="-5.028250">
        <ele>1631.0</ele>
        <time>2013-07-06T15:17:51Z</time>
      </trkpt>
      <trkpt lat="40.112067" lon="-5.028233">
        <ele>1629.0</ele>
        <time>2013-07-06T15:17:52Z</time>
      </trkpt>
      <trkpt lat="40.112150" lon="-5.028217">
        <ele>1627.0</ele>
        <time>2013-07-06T15:17:53Z</time>
      </trkpt>
      <trkpt lat="40.112233" lon="-5.028200">
        <ele>1625.0</ele>
        <time>2013-07-06T15:17:54Z</time>
      </trkpt>
      <trkpt lat="40.112317" lon="-5.028183">
        <ele>1624.0</ele>
        <time>2013-07-06T15:17:55Z</time>
      </trkpt>
      <trkpt lat="40.112400" lon="-5.028183">
        <ele>1622.0</ele>
        <time>2013-07-06T15:17:56Z</time>
      </trkpt>
      <trkpt lat="40.112483" lon="-5.028167">
        <ele>1620.0</ele>
        <time>2013-07-06T15:17:57Z</time>
      </trkpt>
      <trkpt lat="40.112583" lon="-5.028150">
        <ele>1618.0</ele>
        <time>2013-07-06T15:17:58Z</time>
      </trkpt>
      <trkpt lat="40.112667" lon="-5.028150">
        <ele>1617.0</ele>
        <time>2013-07-06T15:17:59Z</time>
      </trkpt>
      <trkpt lat="40.112750" lon="-5.028133">
        <ele>1615.0</ele>
        <time>2013-07-06T15:18:00Z</time>
      </trkpt>
      <trkpt lat="40.112817" lon="-5.028117">
        <ele>1613.0</ele>
        <time>2013-07-06T15:18:01Z</time>
      </trkpt>
      <trkpt lat="40.112900" lon="-5.028117">
        <ele>1611.0</ele>
        <time>2013-07-06T15:18:02Z</time>
      </trkpt>
      <trkpt lat="40.113000" lon="-5.028117">
        <ele>1609.0</ele>
        <time>2013-07-06T15:18:03Z</time>
      </trkpt>
      <trkpt lat="40.113083" lon="-5.028100">
        <ele>1607.0</ele>
        <time>2013-07-06T15:18:04Z</time>
      </trkpt>
      <trkpt lat="40.113167" lon="-5.028100">
        <ele>1605.0</ele>
        <time>2013-07-06T15:18:05Z</time>
      </trkpt>
      <trkpt lat="40.113250" lon="-5.028083">
        <ele>1603.0</ele>
        <time>2013-07-06T15:18:06Z</time>
      </trkpt>
      <trkpt lat="40.113333" lon="-5.028083">
        <ele>1602.0</ele>
        <time>2013-07-06T15:18:07Z</time>
      </trkpt>
      <trkpt lat="40.113417" lon="-5.028067">
        <ele>1600.0</ele>
        <time>2013-07-06T15:18:08Z</time>
      </trkpt>
      <trkpt lat="40.113500" lon="-5.028067">
        <ele>1598.0</ele>
        <time>2013-07-06T15:18:09Z</time>
      </trkpt>
      <trkpt lat="40.113600" lon="-5.028050">
        <ele>1596.0</ele>
        <time>2013-07-06T15:18:10Z</time>
      </trkpt>
      <trkpt lat="40.113683" lon="-5.028050">
        <ele>1594.0</ele>
        <time>2013-07-06T15:18:11Z</time>
      </trkpt>
      <trkpt lat="40.113767" lon="-5.028033">
        <ele>1592.0</ele>
        <time>2013-07-06T15:18:12Z</time>
      </trkpt>
      <trkpt lat="40.113850" lon="-5.028033">
        <ele>1590.0</ele>
        <time>2013-07-06T15:18:13Z</time>
      </trkpt>
      <trkpt lat="40.113950" lon="-5.028017">
        <ele>1588.0</ele>
        <time>2013-07-06T15:18:14Z</time>
      </trkpt>
      <trkpt lat="40.114033" lon="-5.028017">
        <ele>1586.0</ele>
        <time>2013-07-06T15:18:15Z</time>
      </trkpt>
      <trkpt lat="40.114117" lon="-5.028000">
        <ele>1584.0</ele>
        <time>2013-07-06T15:18:16Z</time>
      </trkpt>
      <trkpt lat="40.114200" lon="-5.028000">
        <ele>1582.0</ele>
        <time>2013-07-06T15:18:17Z</time>
      </trkpt>
      <trkpt lat="40.114300" lon="-5.027983">
        <ele>1580.0</ele>
        <time>2013-07-06T15:18:18Z</time>
      </trkpt>
      <trkpt lat="40.114383" lon="-5.027967">
        <ele>1578.0</ele>
        <time>2013-07-06T15:18:19Z</time>
      </trkpt>
      <trkpt lat="40.114467" lon="-5.027967">
        <ele>1577.0</ele>
        <time>2013-07-06T15:18:20Z</time>
      </trkpt>
      <trkpt lat="40.114550" lon="-5.027967">
        <ele>1576.0</ele>
        <time>2013-07-06T15:18:21Z</time>
      </trkpt>
      <trkpt lat="40.114617" lon="-5.027967">
        <ele>1575.0</ele>
        <time>2013-07-06T15:18:22Z</time>
      </trkpt>
      <trkpt lat="40.114700" lon="-5.027967">
        <ele>1572.0</ele>
        <time>2013-07-06T15:18:23Z</time>
      </trkpt>
      <trkpt lat="40.114800" lon="-5.027967">
        <ele>1569.0</ele>
        <time>2013-07-06T15:18:24Z</time>
      </trkpt>
      <trkpt lat="40.114883" lon="-5.027967">
        <ele>1566.0</ele>
        <time>2013-07-06T15:18:25Z</time>
      </trkpt>
      <trkpt lat="40.114983" lon="-5.027967">
        <ele>1564.0</ele>
        <time>2013-07-06T15:18:26Z</time>
      </trkpt>
      <trkpt lat="40.115067" lon="-5.027967">
        <ele>1563.0</ele>
        <time>2013-07-06T15:18:27Z</time>
      </trkpt>
      <trkpt lat="40.115150" lon="-5.027967">
        <ele>1561.0</ele>
        <time>2013-07-06T15:18:28Z</time>
      </trkpt>
      <trkpt lat="40.115217" lon="-5.027983">
        <ele>1559.0</ele>
        <time>2013-07-06T15:18:29Z</time>
      </trkpt>
      <trkpt lat="40.115300" lon="-5.027983">
        <ele>1557.0</ele>
        <time>2013-07-06T15:18:30Z</time>
      </trkpt>
      <trkpt lat="40.115367" lon="-5.027983">
        <ele>1554.0</ele>
        <time>2013-07-06T15:18:31Z</time>
      </trkpt>
      <trkpt lat="40.115450" lon="-5.028000">
        <ele>1552.0</ele>
        <time>2013-07-06T15:18:32Z</time>
      </trkpt>
      <trkpt lat="40.115550" lon="-5.028000">
        <ele>1549.0</ele>
        <time>2013-07-06T15:18:33Z</time>
      </trkpt>
      <trkpt lat="40.115633" lon="-5.027983">
        <ele>1546.0</ele>
        <time>2013-07-06T15:18:34Z</time>
      </trkpt>
      <trkpt lat="40.115733" lon="-5.027983">
        <ele>1543.0</ele>
        <time>2013-07-06T15:18:35Z</time>
      </trkpt>
      <trkpt lat="40.115817" lon="-5.027967">
        <ele>1540.0</ele>
        <time>2013-07-06T15:18:36Z</time>
      </trkpt>
      <trkpt lat="40.115900" lon="-5.027950">
        <ele>1538.0</ele>
        <time>2013-07-06T15:18:37Z</time>
      </trkpt>
      <trkpt lat="40.115983" lon="-5.027933">
        <ele>1536.0</ele>
        <time>2013-07-06T15:18:38Z</time>
      </trkpt>
      <trkpt lat="40.116067" lon="-5.027933">
        <ele>1534.0</ele>
        <time>2013-07-06T15:18:39Z</time>
      </trkpt>
      <trkpt lat="40.116150" lon="-5.027933">
        <ele>1532.0</ele>
        <time>2013-07-06T15:18:40Z</time>
      </trkpt>
      <trkpt lat="40.116233" lon="-5.027933">
        <ele>1531.0</ele>
        <time>2013-07-06T15:18:41Z</time>
      </trkpt>
      <trkpt lat="40.116300" lon="-5.027933">
        <ele>1529.0</ele>
        <time>2013-07-06T15:18:42Z</time>
      </trkpt>
      <trkpt lat="40.116383" lon="-5.027933">
        <ele>1527.0</ele>
        <time>2013-07-06T15:18:43Z</time>
      </trkpt>
      <trkpt lat="40.116450" lon="-5.027933">
        <ele>1524.0</ele>
        <time>2013-07-06T15:18:44Z</time>
      </trkpt>
      <trkpt lat="40.116533" lon="-5.027933">
        <ele>1523.0</ele>
        <time>2013-07-06T15:18:45Z</time>
      </trkpt>
      <trkpt lat="40.116617" lon="-5.027933">
        <ele>1521.0</ele>
        <time>2013-07-06T15:18:46Z</time>
      </trkpt>
      <trkpt lat="40.116717" lon="-5.027933">
        <ele>1519.0</ele>
        <time>2013-07-06T15:18:47Z</time>
      </trkpt>
      <trkpt lat="40.116800" lon="-5.027950">
        <ele>1517.0</ele>
        <time>2013-07-06T15:18:48Z</time>
      </trkpt>
      <trkpt lat="40.116867" lon="-5.027950">
        <ele>1516.0</ele>
        <time>2013-07-06T15:18:49Z</time>
      </trkpt>
      <trkpt lat="40.116950" lon="-5.027950">
        <ele>1514.0</ele>
        <time>2013-07-06T15:18:50Z</time>
      </trkpt>
      <trkpt lat="40.117033" lon="-5.027950">
        <ele>1513.0</ele>
        <time>2013-07-06T15:18:51Z</time>
      </trkpt>
      <trkpt lat="40.117133" lon="-5.027967">
        <ele>1510.0</ele>
        <time>2013-07-06T15:18:52Z</time>
      </trkpt>
      <trkpt lat="40.117217" lon="-5.027983">
        <ele>1508.0</ele>
        <time>2013-07-06T15:18:53Z</time>
      </trkpt>
      <trkpt lat="40.117300" lon="-5.028017">
        <ele>1507.0</ele>
        <time>2013-07-06T15:18:54Z</time>
      </trkpt>
      <trkpt lat="40.117383" lon="-5.028067">
        <ele>1506.0</ele>
        <time>2013-07-06T15:18:55Z</time>
      </trkpt>
      <trkpt lat="40.117450" lon="-5.028117">
        <ele>1505.0</ele>
        <time>2013-07-06T15:18:56Z</time>
      </trkpt>
      <trkpt lat="40.117533" lon="-5.028183">
        <ele>1503.0</ele>
        <time>2013-07-06T15:18:57Z</time>
      </trkpt>
      <trkpt lat="40.117633" lon="-5.028217">
        <ele>1501.0</ele>
        <time>2013-07-06T15:18:58Z</time>
      </trkpt>
      <trkpt lat="40.117717" lon="-5.028250">
        <ele>1499.0</ele>
        <time>2013-07-06T15:18:59Z</time>
      </trkpt>
      <trkpt lat="40.117817" lon="-5.028283">
        <ele>1498.0</ele>
        <time>2013-07-06T15:19:00Z</time>
      </trkpt>
      <trkpt lat="40.117883" lon="-5.028317">
        <ele>1497.0</ele>
        <time>2013-07-06T15:19:01Z</time>
      </trkpt>
      <trkpt lat="40.117967" lon="-5.028350">
        <ele>1497.0</ele>
        <time>2013-07-06T15:19:02Z</time>
      </trkpt>
      <trkpt lat="40.118033" lon="-5.028383">
        <ele>1495.0</ele>
        <time>2013-07-06T15:19:03Z</time>
      </trkpt>
      <trkpt lat="40.118117" lon="-5.028400">
        <ele>1493.0</ele>
        <time>2013-07-06T15:19:04Z</time>
      </trkpt>
      <trkpt lat="40.118217" lon="-5.028433">
        <ele>1492.0</ele>
        <time>2013-07-06T15:19:05Z</time>
      </trkpt>
      <trkpt lat="40.118300" lon="-5.028450">
        <ele>1490.0</ele>
        <time>2013-07-06T15:19:06Z</time>
      </trkpt>
      <trkpt lat="40.118383" lon="-5.028483">
        <ele>1489.0</ele>
        <time>2013-07-06T15:19:07Z</time>
      </trkpt>
      <trkpt lat="40.118467" lon="-5.028500">
        <ele>1488.0</ele>
        <time>2013-07-06T15:19:08Z</time>
      </trkpt>
      <trkpt lat="40.118550" lon="-5.028517">
        <ele>1487.0</ele>
        <time>2013-07-06T15:19:09Z</time>
      </trkpt>
      <trkpt lat="40.118633" lon="-5.028517">
        <ele>1485.0</ele>
        <time>2013-07-06T15:19:10Z</time>
      </trkpt>
      <trkpt lat="40.118717" lon="-5.028533">
        <ele>1484.0</ele>
        <time>2013-07-06T15:19:11Z</time>
      </trkpt>
      <trkpt lat="40.118800" lon="-5.028550">
        <ele>1482.0</ele>
        <time>2013-07-06T15:19:12Z</time>
      </trkpt>
      <trkpt lat="40.118883" lon="-5.028550">
        <ele>1481.0</ele>
        <time>2013-07-06T15:19:13Z</time>
      </trkpt>
      <trkpt lat="40.118967" lon="-5.028550">
        <ele>1480.0</ele>
        <time>2013-07-06T15:19:14Z</time>
      </trkpt>
      <trkpt lat="40.119050" lon="-5.028550">
        <ele>1479.0</ele>
        <time>2013-07-06T15:19:15Z</time>
      </trkpt>
      <trkpt lat="40.119217" lon="-5.028550">
        <ele>1477.0</ele>
        <time>2013-07-06T15:19:17Z</time>
      </trkpt>
      <trkpt lat="40.119300" lon="-5.028550">
        <ele>1476.0</ele>
        <time>2013-07-06T15:19:18Z</time>
      </trkpt>
      <trkpt lat="40.119383" lon="-5.028567">
        <ele>1475.0</ele>
        <time>2013-07-06T15:19:19Z</time>
      </trkpt>
      <trkpt lat="40.119467" lon="-5.028567">
        <ele>1474.0</ele>
        <time>2013-07-06T15:19:20Z</time>
      </trkpt>
      <trkpt lat="40.119550" lon="-5.028583">
        <ele>1473.0</ele>
        <time>2013-07-06T15:19:21Z</time>
      </trkpt>
      <trkpt lat="40.119633" lon="-5.028600">
        <ele>1472.0</ele>
        <time>2013-07-06T15:19:22Z</time>
      </trkpt>
      <trkpt lat="40.119733" lon="-5.028600">
        <ele>1471.0</ele>
        <time>2013-07-06T15:19:23Z</time>
      </trkpt>
      <trkpt lat="40.119817" lon="-5.028600">
        <ele>1470.0</ele>
        <time>2013-07-06T15:19:24Z</time>
      </trkpt>
      <trkpt lat="40.119883" lon="-5.028600">
        <ele>1469.0</ele>
        <time>2013-07-06T15:19:25Z</time>
      </trkpt>
      <trkpt lat="40.119967" lon="-5.028600">
        <ele>1469.0</ele>
        <time>2013-07-06T15:19:26Z</time>
      </trkpt>
      <trkpt lat="40.120033" lon="-5.028617">
        <ele>1468.0</ele>
        <time>2013-07-06T15:19:27Z</time>
      </trkpt>
      <trkpt lat="40.120133" lon="-5.028633">
        <ele>1466.0</ele>
        <time>2013-07-06T15:19:28Z</time>
      </trkpt>
      <trkpt lat="40.120217" lon="-5.028633">
        <ele>1465.0</ele>
        <time>2013-07-06T15:19:29Z</time>
      </trkpt>
      <trkpt lat="40.120317" lon="-5.028617">
        <ele>1463.0</ele>
        <time>2013-07-06T15:19:30Z</time>
      </trkpt>
      <trkpt lat="40.120417" lon="-5.028600">
        <ele>1461.0</ele>
        <time>2013-07-06T15:19:31Z</time>
      </trkpt>
      <trkpt lat="40.120650" lon="-5.028550">
        <ele>1460.0</ele>
        <time>2013-07-06T15:19:34Z</time>
      </trkpt>
      <trkpt lat="40.120717" lon="-5.028550">
        <ele>1459.0</ele>
        <time>2013-07-06T15:19:35Z</time>
      </trkpt>
      <trkpt lat="40.120817" lon="-5.028550">
        <ele>1458.0</ele>
        <time>2013-07-06T15:19:36Z</time>
      </trkpt>
      <trkpt lat="40.120900" lon="-5.028550">
        <ele>1455.0</ele>
        <time>2013-07-06T15:19:37Z</time>
      </trkpt>
      <trkpt lat="40.121000" lon="-5.028567">
        <ele>1454.0</ele>
        <time>2013-07-06T15:19:38Z</time>
      </trkpt>
      <trkpt lat="40.121083" lon="-5.028567">
        <ele>1453.0</ele>
        <time>2013-07-06T15:19:39Z</time>
      </trkpt>
      <trkpt lat="40.121150" lon="-5.028567">
        <ele>1452.0</ele>
        <time>2013-07-06T15:19:40Z</time>
      </trkpt>
      <trkpt lat="40.121233" lon="-5.028567">
        <ele>1451.0</ele>
        <time>2013-07-06T15:19:41Z</time>
      </trkpt>
      <trkpt lat="40.121517" lon="-5.028550">
        <ele>1445.0</ele>
        <time>2013-07-06T15:19:44Z</time>
      </trkpt>
      <trkpt lat="40.121617" lon="-5.028550">
        <ele>1445.0</ele>
        <time>2013-07-06T15:19:45Z</time>
      </trkpt>
      <trkpt lat="40.121717" lon="-5.028533">
        <ele>1444.0</ele>
        <time>2013-07-06T15:19:46Z</time>
      </trkpt>
      <trkpt lat="40.121800" lon="-5.028533">
        <ele>1444.0</ele>
        <time>2013-07-06T15:19:47Z</time>
      </trkpt>
      <trkpt lat="40.121900" lon="-5.028533">
        <ele>1443.0</ele>
        <time>2013-07-06T15:19:48Z</time>
      </trkpt>
      <trkpt lat="40.121983" lon="-5.028533">
        <ele>1443.0</ele>
        <time>2013-07-06T15:19:49Z</time>
      </trkpt>
      <trkpt lat="40.122067" lon="-5.028517">
        <ele>1442.0</ele>
        <time>2013-07-06T15:19:50Z</time>
      </trkpt>
      <trkpt lat="40.122150" lon="-5.028500">
        <ele>1442.0</ele>
        <time>2013-07-06T15:19:51Z</time>
      </trkpt>
      <trkpt lat="40.122233" lon="-5.028500">
        <ele>1442.0</ele>
        <time>2013-07-06T15:19:52Z</time>
      </trkpt>
      <trkpt lat="40.122317" lon="-5.028483">
        <ele>1442.0</ele>
        <time>2013-07-06T15:19:53Z</time>
      </trkpt>
      <trkpt lat="40.122400" lon="-5.028467">
        <ele>1441.0</ele>
        <time>2013-07-06T15:19:54Z</time>
      </trkpt>
      <trkpt lat="40.122483" lon="-5.028450">
        <ele>1441.0</ele>
        <time>2013-07-06T15:19:55Z</time>
      </trkpt>
      <trkpt lat="40.122567" lon="-5.028433">
        <ele>1440.0</ele>
        <time>2013-07-06T15:19:56Z</time>
      </trkpt>
      <trkpt lat="40.122650" lon="-5.028417">
        <ele>1440.0</ele>
        <time>2013-07-06T15:19:57Z</time>
      </trkpt>
      <trkpt lat="40.122733" lon="-5.028400">
        <ele>1441.0</ele>
        <time>2013-07-06T15:19:58Z</time>
      </trkpt>
      <trkpt lat="40.122900" lon="-5.028367">
        <ele>1443.0</ele>
        <time>2013-07-06T15:20:00Z</time>
      </trkpt>
      <trkpt lat="40.122983" lon="-5.028350">
        <ele>1444.0</ele>
        <time>2013-07-06T15:20:01Z</time>
      </trkpt>
      <trkpt lat="40.123067" lon="-5.028350">
        <ele>1444.0</ele>
        <time>2013-07-06T15:20:02Z</time>
      </trkpt>
      <trkpt lat="40.123233" lon="-5.028317">
        <ele>1445.0</ele>
        <time>2013-07-06T15:20:04Z</time>
      </trkpt>
      <trkpt lat="40.123317" lon="-5.028300">
        <ele>1447.0</ele>
        <time>2013-07-06T15:20:05Z</time>
      </trkpt>
      <trkpt lat="40.123383" lon="-5.028283">
        <ele>1449.0</ele>
        <time>2013-07-06T15:20:06Z</time>
      </trkpt>
      <trkpt lat="40.123450" lon="-5.028283">
        <ele>1450.0</ele>
        <time>2013-07-06T15:20:07Z</time>
      </trkpt>
      <trkpt lat="40.123517" lon="-5.028250">
        <ele>1451.0</ele>
        <time>2013-07-06T15:20:08Z</time>
      </trkpt>
      <trkpt lat="40.123583" lon="-5.028233">
        <ele>1453.0</ele>
        <time>2013-07-06T15:20:09Z</time>
      </trkpt>
      <trkpt lat="40.123650" lon="-5.028217">
        <ele>1455.0</ele>
        <time>2013-07-06T15:20:10Z</time>
      </trkpt>
      <trkpt lat="40.123733" lon="-5.028200">
        <ele>1457.0</ele>
        <time>2013-07-06T15:20:11Z</time>
      </trkpt>
      <trkpt lat="40.123800" lon="-5.028183">
        <ele>1459.0</ele>
        <time>2013-07-06T15:20:12Z</time>
      </trkpt>
      <trkpt lat="40.123867" lon="-5.028167">
        <ele>1462.0</ele>
        <time>2013-07-06T15:20:13Z</time>
      </trkpt>
      <trkpt lat="40.123950" lon="-5.028150">
        <ele>1464.0</ele>
        <time>2013-07-06T15:20:14Z</time>
      </trkpt>
      <trkpt lat="40.124017" lon="-5.028150">
        <ele>1467.0</ele>
        <time>2013-07-06T15:20:15Z</time>
      </trkpt>
      <trkpt lat="40.124100" lon="-5.028150">
        <ele>1469.0</ele>
        <time>2013-07-06T15:20:16Z</time>
      </trkpt>
      <trkpt lat="40.124167" lon="-5.028133">
        <ele>1471.0</ele>
        <time>2013-07-06T15:20:17Z</time>
      </trkpt>
      <trkpt lat="40.124250" lon="-5.028117">
        <ele>1473.0</ele>
        <time>2013-07-06T15:20:18Z</time>
      </trkpt>
      <trkpt lat="40.124317" lon="-5.028100">
        <ele>1474.0</ele>
        <time>2013-07-06T15:20:19Z</time>
      </trkpt>
      <trkpt lat="40.124367" lon="-5.028067">
        <ele>1475.0</ele>
        <time>2013-07-06T15:20:20Z</time>
      </trkpt>
      <trkpt lat="40.124433" lon="-5.028000">
        <ele>1478.0</ele>
        <time>2013-07-06T15:20:22Z</time>
      </trkpt>
      <trkpt lat="40.124467" lon="-5.027950">
        <ele>1479.0</ele>
        <time>2013-07-06T15:20:23Z</time>
      </trkpt>
      <trkpt lat="40.124500" lon="-5.027900">
        <ele>1480.0</ele>
        <time>2013-07-06T15:20:24Z</time>
      </trkpt>
      <trkpt lat="40.124550" lon="-5.027850">
        <ele>1480.0</ele>
        <time>2013-07-06T15:20:25Z</time>
      </trkpt>
      <trkpt lat="40.124600" lon="-5.027817">
        <ele>1481.0</ele>
        <time>2013-07-06T15:20:26Z</time>
      </trkpt>
      <trkpt lat="40.124667" lon="-5.027783">
        <ele>1482.0</ele>
        <time>2013-07-06T15:20:27Z</time>
      </trkpt>
      <trkpt lat="40.124750" lon="-5.027783">
        <ele>1482.0</ele>
        <time>2013-07-06T15:20:28Z</time>
      </trkpt>
      <trkpt lat="40.124817" lon="-5.027783">
        <ele>1481.0</ele>
        <time>2013-07-06T15:20:29Z</time>
      </trkpt>
      <trkpt lat="40.124883" lon="-5.027800">
        <ele>1480.0</ele>
        <time>2013-07-06T15:20:30Z</time>
      </trkpt>
      <trkpt lat="40.124967" lon="-5.027817">
        <ele>1481.0</ele>
        <time>2013-07-06T15:20:31Z</time>
      </trkpt>
      <trkpt lat="40.125033" lon="-5.027850">
        <ele>1481.0</ele>
        <time>2013-07-06T15:20:32Z</time>
      </trkpt>
      <trkpt lat="40.125117" lon="-5.027900">
        <ele>1482.0</ele>
        <time>2013-07-06T15:20:33Z</time>
      </trkpt>
      <trkpt lat="40.125183" lon="-5.027967">
        <ele>1483.0</ele>
        <time>2013-07-06T15:20:34Z</time>
      </trkpt>
      <trkpt lat="40.125267" lon="-5.028017">
        <ele>1483.0</ele>
        <time>2013-07-06T15:20:35Z</time>
      </trkpt>
      <trkpt lat="40.125333" lon="-5.028083">
        <ele>1483.0</ele>
        <time>2013-07-06T15:20:36Z</time>
      </trkpt>
      <trkpt lat="40.125417" lon="-5.028133">
        <ele>1482.0</ele>
        <time>2013-07-06T15:20:37Z</time>
      </trkpt>
      <trkpt lat="40.125500" lon="-5.028200">
        <ele>1481.0</ele>
        <time>2013-07-06T15:20:38Z</time>
      </trkpt>
      <trkpt lat="40.125583" lon="-5.028233">
        <ele>1481.0</ele>
        <time>2013-07-06T15:20:39Z</time>
      </trkpt>
      <trkpt lat="40.125667" lon="-5.028267">
        <ele>1481.0</ele>
        <time>2013-07-06T15:20:40Z</time>
      </trkpt>
      <trkpt lat="40.125750" lon="-5.028267">
        <ele>1481.0</ele>
        <time>2013-07-06T15:20:41Z</time>
      </trkpt>
      <trkpt lat="40.125800" lon="-5.028250">
        <ele>1481.0</ele>
        <time>2013-07-06T15:20:42Z</time>
      </trkpt>
      <trkpt lat="40.125867" lon="-5.028217">
        <ele>1481.0</ele>
        <time>2013-07-06T15:20:43Z</time>
      </trkpt>
      <trkpt lat="40.125917" lon="-5.028167">
        <ele>1481.0</ele>
        <time>2013-07-06T15:20:44Z</time>
      </trkpt>
      <trkpt lat="40.125950" lon="-5.028117">
        <ele>1481.0</ele>
        <time>2013-07-06T15:20:45Z</time>
      </trkpt>
      <trkpt lat="40.125967" lon="-5.028050">
        <ele>1481.0</ele>
        <time>2013-07-06T15:20:46Z</time>
      </trkpt>
      <trkpt lat="40.125950" lon="-5.027983">
        <ele>1481.0</ele>
        <time>2013-07-06T15:20:47Z</time>
      </trkpt>
      <trkpt lat="40.125917" lon="-5.027917">
        <ele>1480.0</ele>
        <time>2013-07-06T15:20:48Z</time>
      </trkpt>
      <trkpt lat="40.125850" lon="-5.027900">
        <ele>1479.0</ele>
        <time>2013-07-06T15:20:49Z</time>
      </trkpt>
      <trkpt lat="40.125767" lon="-5.027917">
        <ele>1478.0</ele>
        <time>2013-07-06T15:20:50Z</time>
      </trkpt>
      <trkpt lat="40.125700" lon="-5.027950">
        <ele>1477.0</ele>
        <time>2013-07-06T15:20:51Z</time>
      </trkpt>
      <trkpt lat="40.125633" lon="-5.027983">
        <ele>1478.0</ele>
        <time>2013-07-06T15:20:52Z</time>
      </trkpt>
      <trkpt lat="40.125567" lon="-5.028033">
        <ele>1478.0</ele>
        <time>2013-07-06T15:20:53Z</time>
      </trkpt>
      <trkpt lat="40.125500" lon="-5.028117">
        <ele>1479.0</ele>
        <time>2013-07-06T15:20:54Z</time>
      </trkpt>
      <trkpt lat="40.125433" lon="-5.028217">
        <ele>1480.0</ele>
        <time>2013-07-06T15:20:55Z</time>
      </trkpt>
      <trkpt lat="40.125383" lon="-5.028350">
        <ele>1481.0</ele>
        <time>2013-07-06T15:20:56Z</time>
      </trkpt>
      <trkpt lat="40.125367" lon="-5.028483">
        <ele>1483.0</ele>
        <time>2013-07-06T15:20:57Z</time>
      </trkpt>
      <trkpt lat="40.125350" lon="-5.028617">
        <ele>1485.0</ele>
        <time>2013-07-06T15:20:58Z</time>
      </trkpt>
      <trkpt lat="40.125367" lon="-5.028733">
        <ele>1488.0</ele>
        <time>2013-07-06T15:20:59Z</time>
      </trkpt>
      <trkpt lat="40.125367" lon="-5.028867">
        <ele>1490.0</ele>
        <time>2013-07-06T15:21:00Z</time>
      </trkpt>
      <trkpt lat="40.125383" lon="-5.029017">
        <ele>1491.0</ele>
        <time>2013-07-06T15:21:01Z</time>
      </trkpt>
      <trkpt lat="40.125433" lon="-5.029183">
        <ele>1493.0</ele>
        <time>2013-07-06T15:21:02Z</time>
      </trkpt>
      <trkpt lat="40.125500" lon="-5.029300">
        <ele>1494.0</ele>
        <time>2013-07-06T15:21:03Z</time>
      </trkpt>
      <trkpt lat="40.125550" lon="-5.029400">
        <ele>1495.0</ele>
        <time>2013-07-06T15:21:04Z</time>
      </trkpt>
      <trkpt lat="40.125617" lon="-5.029483">
        <ele>1496.0</ele>
        <time>2013-07-06T15:21:05Z</time>
      </trkpt>
      <trkpt lat="40.125683" lon="-5.029567">
        <ele>1497.0</ele>
        <time>2013-07-06T15:21:06Z</time>
      </trkpt>
      <trkpt lat="40.125750" lon="-5.029633">
        <ele>1497.0</ele>
        <time>2013-07-06T15:21:07Z</time>
      </trkpt>
      <trkpt lat="40.125833" lon="-5.029700">
        <ele>1496.0</ele>
        <time>2013-07-06T15:21:08Z</time>
      </trkpt>
      <trkpt lat="40.125900" lon="-5.029733">
        <ele>1495.0</ele>
        <time>2013-07-06T15:21:09Z</time>
      </trkpt>
      <trkpt lat="40.125983" lon="-5.029750">
        <ele>1495.0</ele>
        <time>2013-07-06T15:21:10Z</time>
      </trkpt>
      <trkpt lat="40.126050" lon="-5.029733">
        <ele>1495.0</ele>
        <time>2013-07-06T15:21:11Z</time>
      </trkpt>
      <trkpt lat="40.126117" lon="-5.029700">
        <ele>1494.0</ele>
        <time>2013-07-06T15:21:12Z</time>
      </trkpt>
      <trkpt lat="40.126150" lon="-5.029667">
        <ele>1494.0</ele>
        <time>2013-07-06T15:21:13Z</time>
      </trkpt>
      <trkpt lat="40.126183" lon="-5.029600">
        <ele>1493.0</ele>
        <time>2013-07-06T15:21:14Z</time>
      </trkpt>
      <trkpt lat="40.126217" lon="-5.029483">
        <ele>1493.0</ele>
        <time>2013-07-06T15:21:16Z</time>
      </trkpt>
      <trkpt lat="40.126217" lon="-5.029433">
        <ele>1493.0</ele>
        <time>2013-07-06T15:21:17Z</time>
      </trkpt>
      <trkpt lat="40.126200" lon="-5.029367">
        <ele>1493.0</ele>
        <time>2013-07-06T15:21:18Z</time>
      </trkpt>
      <trkpt lat="40.126183" lon="-5.029317">
        <ele>1494.0</ele>
        <time>2013-07-06T15:21:19Z</time>
      </trkpt>
      <trkpt lat="40.126167" lon="-5.029267">
        <ele>1494.0</ele>
        <time>2013-07-06T15:21:20Z</time>
      </trkpt>
      <trkpt lat="40.126133" lon="-5.029200">
        <ele>1494.0</ele>
        <time>2013-07-06T15:21:21Z</time>
      </trkpt>
      <trkpt lat="40.126117" lon="-5.029133">
        <ele>1495.0</ele>
        <time>2013-07-06T15:21:22Z</time>
      </trkpt>
      <trkpt lat="40.126100" lon="-5.029033">
        <ele>1496.0</ele>
        <time>2013-07-06T15:21:23Z</time>
      </trkpt>
      <trkpt lat="40.126100" lon="-5.028950">
        <ele>1498.0</ele>
        <time>2013-07-06T15:21:24Z</time>
      </trkpt>
      <trkpt lat="40.126117" lon="-5.028900">
        <ele>1500.0</ele>
        <time>2013-07-06T15:21:25Z</time>
      </trkpt>
      <trkpt lat="40.126133" lon="-5.028833">
        <ele>1501.0</ele>
        <time>2013-07-06T15:21:26Z</time>
      </trkpt>
      <trkpt lat="40.126167" lon="-5.028767">
        <ele>1502.0</ele>
        <time>2013-07-06T15:21:27Z</time>
      </trkpt>
      <trkpt lat="40.126200" lon="-5.028700">
        <ele>1504.0</ele>
        <time>2013-07-06T15:21:28Z</time>
      </trkpt>
      <trkpt lat="40.126233" lon="-5.028633">
        <ele>1505.0</ele>
        <time>2013-07-06T15:21:29Z</time>
      </trkpt>
      <trkpt lat="40.126283" lon="-5.028583">
        <ele>1508.0</ele>
        <time>2013-07-06T15:21:30Z</time>
      </trkpt>
      <trkpt lat="40.126333" lon="-5.028550">
        <ele>1511.0</ele>
        <time>2013-07-06T15:21:31Z</time>
      </trkpt>
      <trkpt lat="40.126400" lon="-5.028500">
        <ele>1514.0</ele>
        <time>2013-07-06T15:21:32Z</time>
      </trkpt>
      <trkpt lat="40.126483" lon="-5.028467">
        <ele>1516.0</ele>
        <time>2013-07-06T15:21:33Z</time>
      </trkpt>
      <trkpt lat="40.126550" lon="-5.028417">
        <ele>1516.0</ele>
        <time>2013-07-06T15:21:34Z</time>
      </trkpt>
      <trkpt lat="40.126600" lon="-5.028367">
        <ele>1517.0</ele>
        <time>2013-07-06T15:21:35Z</time>
      </trkpt>
      <trkpt lat="40.126650" lon="-5.028283">
        <ele>1518.0</ele>
        <time>2013-07-06T15:21:36Z</time>
      </trkpt>
      <trkpt lat="40.126667" lon="-5.028200">
        <ele>1519.0</ele>
        <time>2013-07-06T15:21:37Z</time>
      </trkpt>
      <trkpt lat="40.126667" lon="-5.028117">
        <ele>1520.0</ele>
        <time>2013-07-06T15:21:38Z</time>
      </trkpt>
      <trkpt lat="40.126633" lon="-5.028067">
        <ele>1522.0</ele>
        <time>2013-07-06T15:21:39Z</time>
      </trkpt>
      <trkpt lat="40.126617" lon="-5.028017">
        <ele>1525.0</ele>
        <time>2013-07-06T15:21:40Z</time>
      </trkpt>
      <trkpt lat="40.126567" lon="-5.027983">
        <ele>1527.0</ele>
        <time>2013-07-06T15:21:41Z</time>
      </trkpt>
      <trkpt lat="40.126517" lon="-5.027950">
        <ele>1529.0</ele>
        <time>2013-07-06T15:21:42Z</time>
      </trkpt>
      <trkpt lat="40.126450" lon="-5.027917">
        <ele>1531.0</ele>
        <time>2013-07-06T15:21:43Z</time>
      </trkpt>
      <trkpt lat="40.126367" lon="-5.027917">
        <ele>1534.0</ele>
        <time>2013-07-06T15:21:44Z</time>
      </trkpt>
      <trkpt lat="40.126283" lon="-5.027967">
        <ele>1537.0</ele>
        <time>2013-07-06T15:21:45Z</time>
      </trkpt>
      <trkpt lat="40.126233" lon="-5.028017">
        <ele>1540.0</ele>
        <time>2013-07-06T15:21:46Z</time>
      </trkpt>
      <trkpt lat="40.126183" lon="-5.028100">
        <ele>1544.0</ele>
        <time>2013-07-06T15:21:47Z</time>
      </trkpt>
      <trkpt lat="40.126150" lon="-5.028217">
        <ele>1548.0</ele>
        <time>2013-07-06T15:21:48Z</time>
      </trkpt>
      <trkpt lat="40.126150" lon="-5.028333">
        <ele>1551.0</ele>
        <time>2013-07-06T15:21:49Z</time>
      </trkpt>
      <trkpt lat="40.126150" lon="-5.028467">
        <ele>1553.0</ele>
        <time>2013-07-06T15:21:50Z</time>
      </trkpt>
      <trkpt lat="40.126150" lon="-5.028600">
        <ele>1556.0</ele>
        <time>2013-07-06T15:21:51Z</time>
      </trkpt>
      <trkpt lat="40.126183" lon="-5.028717">
        <ele>1560.0</ele>
        <time>2013-07-06T15:21:52Z</time>
      </trkpt>
      <trkpt lat="40.126233" lon="-5.028833">
        <ele>1563.0</ele>
        <time>2013-07-06T15:21:53Z</time>
      </trkpt>
      <trkpt lat="40.126300" lon="-5.028967">
        <ele>1566.0</ele>
        <time>2013-07-06T15:21:54Z</time>
      </trkpt>
      <trkpt lat="40.126367" lon="-5.029067">
        <ele>1569.0</ele>
        <time>2013-07-06T15:21:55Z</time>
      </trkpt>
      <trkpt lat="40.126433" lon="-5.029183">
        <ele>1573.0</ele>
        <time>2013-07-06T15:21:56Z</time>
      </trkpt>
      <trkpt lat="40.126500" lon="-5.029267">
        <ele>1576.0</ele>
        <time>2013-07-06T15:21:57Z</time>
      </trkpt>
      <trkpt lat="40.126567" lon="-5.029333">
        <ele>1579.0</ele>
        <time>2013-07-06T15:21:58Z</time>
      </trkpt>
      <trkpt lat="40.126633" lon="-5.029400">
        <ele>1582.0</ele>
        <time>2013-07-06T15:21:59Z</time>
      </trkpt>
      <trkpt lat="40.126717" lon="-5.029467">
        <ele>1583.0</ele>
        <time>2013-07-06T15:22:00Z</time>
      </trkpt>
      <trkpt lat="40.126817" lon="-5.029517">
        <ele>1584.0</ele>
        <time>2013-07-06T15:22:01Z</time>
      </trkpt>
      <trkpt lat="40.126917" lon="-5.029550">
        <ele>1585.0</ele>
        <time>2013-07-06T15:22:02Z</time>
      </trkpt>
      <trkpt lat="40.127000" lon="-5.029533">
        <ele>1586.0</ele>
        <time>2013-07-06T15:22:03Z</time>
      </trkpt>
      <trkpt lat="40.127067" lon="-5.029517">
        <ele>1588.0</ele>
        <time>2013-07-06T15:22:04Z</time>
      </trkpt>
      <trkpt lat="40.127133" lon="-5.029500">
        <ele>1591.0</ele>
        <time>2013-07-06T15:22:05Z</time>
      </trkpt>
      <trkpt lat="40.127200" lon="-5.029483">
        <ele>1594.0</ele>
        <time>2013-07-06T15:22:06Z</time>
      </trkpt>
      <trkpt lat="40.127267" lon="-5.029467">
        <ele>1596.0</ele>
        <time>2013-07-06T15:22:07Z</time>
      </trkpt>
      <trkpt lat="40.127350" lon="-5.029450">
        <ele>1596.0</ele>
        <time>2013-07-06T15:22:08Z</time>
      </trkpt>
      <trkpt lat="40.127433" lon="-5.029417">
        <ele>1597.0</ele>
        <time>2013-07-06T15:22:09Z</time>
      </trkpt>
      <trkpt lat="40.127500" lon="-5.029383">
        <ele>1599.0</ele>
        <time>2013-07-06T15:22:10Z</time>
      </trkpt>
      <trkpt lat="40.127550" lon="-5.029367">
        <ele>1601.0</ele>
        <time>2013-07-06T15:22:11Z</time>
      </trkpt>
      <trkpt lat="40.127600" lon="-5.029317">
        <ele>1603.0</ele>
        <time>2013-07-06T15:22:12Z</time>
      </trkpt>
      <trkpt lat="40.127650" lon="-5.029183">
        <ele>1606.0</ele>
        <time>2013-07-06T15:22:14Z</time>
      </trkpt>
      <trkpt lat="40.127633" lon="-5.029100">
        <ele>1608.0</ele>
        <time>2013-07-06T15:22:15Z</time>
      </trkpt>
      <trkpt lat="40.127583" lon="-5.029033">
        <ele>1610.0</ele>
        <time>2013-07-06T15:22:16Z</time>
      </trkpt>
      <trkpt lat="40.127517" lon="-5.029017">
        <ele>1612.0</ele>
        <time>2013-07-06T15:22:17Z</time>
      </trkpt>
      <trkpt lat="40.127450" lon="-5.029050">
        <ele>1615.0</ele>
        <time>2013-07-06T15:22:18Z</time>
      </trkpt>
      <trkpt lat="40.127383" lon="-5.029100">
        <ele>1618.0</ele>
        <time>2013-07-06T15:22:19Z</time>
      </trkpt>
      <trkpt lat="40.127333" lon="-5.029183">
        <ele>1621.0</ele>
        <time>2013-07-06T15:22:20Z</time>
      </trkpt>
      <trkpt lat="40.127283" lon="-5.029283">
        <ele>1624.0</ele>
        <time>2013-07-06T15:22:21Z</time>
      </trkpt>
      <trkpt lat="40.127250" lon="-5.029400">
        <ele>1626.0</ele>
        <time>2013-07-06T15:22:22Z</time>
      </trkpt>
      <trkpt lat="40.127217" lon="-5.029533">
        <ele>1628.0</ele>
        <time>2013-07-06T15:22:23Z</time>
      </trkpt>
      <trkpt lat="40.127217" lon="-5.029667">
        <ele>1631.0</ele>
        <time>2013-07-06T15:22:24Z</time>
      </trkpt>
      <trkpt lat="40.127233" lon="-5.029800">
        <ele>1633.0</ele>
        <time>2013-07-06T15:22:25Z</time>
      </trkpt>
      <trkpt lat="40.127267" lon="-5.029933">
        <ele>1636.0</ele>
        <time>2013-07-06T15:22:26Z</time>
      </trkpt>
      <trkpt lat="40.127317" lon="-5.030050">
        <ele>1638.0</ele>
        <time>2013-07-06T15:22:27Z</time>
      </trkpt>
      <trkpt lat="40.127367" lon="-5.030167">
        <ele>1641.0</ele>
        <time>2013-07-06T15:22:28Z</time>
      </trkpt>
      <trkpt lat="40.127433" lon="-5.030283">
        <ele>1643.0</ele>
        <time>2013-07-06T15:22:29Z</time>
      </trkpt>
      <trkpt lat="40.127500" lon="-5.030383">
        <ele>1645.0</ele>
        <time>2013-07-06T15:22:30Z</time>
      </trkpt>
      <trkpt lat="40.127583" lon="-5.030467">
        <ele>1646.0</ele>
        <time>2013-07-06T15:22:31Z</time>
      </trkpt>
      <trkpt lat="40.127667" lon="-5.030533">
        <ele>1647.0</ele>
        <time>2013-07-06T15:22:32Z</time>
      </trkpt>
      <trkpt lat="40.127767" lon="-5.030567">
        <ele>1649.0</ele>
        <time>2013-07-06T15:22:33Z</time>
      </trkpt>
      <trkpt lat="40.127867" lon="-5.030567">
        <ele>1650.0</ele>
        <time>2013-07-06T15:22:34Z</time>
      </trkpt>
      <trkpt lat="40.127967" lon="-5.030567">
        <ele>1652.0</ele>
        <time>2013-07-06T15:22:35Z</time>
      </trkpt>
      <trkpt lat="40.128033" lon="-5.030567">
        <ele>1654.0</ele>
        <time>2013-07-06T15:22:36Z</time>
      </trkpt>
      <trkpt lat="40.128183" lon="-5.030550">
        <ele>1659.0</ele>
        <time>2013-07-06T15:22:38Z</time>
      </trkpt>
      <trkpt lat="40.128300" lon="-5.030450">
        <ele>1660.0</ele>
        <time>2013-07-06T15:22:40Z</time>
      </trkpt>
      <trkpt lat="40.128350" lon="-5.030300">
        <ele>1663.0</ele>
        <time>2013-07-06T15:22:42Z</time>
      </trkpt>
      <trkpt lat="40.128350" lon="-5.030217">
        <ele>1665.0</ele>
        <time>2013-07-06T15:22:43Z</time>
      </trkpt>
      <trkpt lat="40.128317" lon="-5.030150">
        <ele>1667.0</ele>
        <time>2013-07-06T15:22:44Z</time>
      </trkpt>
      <trkpt lat="40.128283" lon="-5.030100">
        <ele>1669.0</ele>
        <time>2013-07-06T15:22:45Z</time>
      </trkpt>
      <trkpt lat="40.128233" lon="-5.030033">
        <ele>1670.0</ele>
        <time>2013-07-06T15:22:46Z</time>
      </trkpt>
      <trkpt lat="40.128167" lon="-5.030017">
        <ele>1672.0</ele>
        <time>2013-07-06T15:22:47Z</time>
      </trkpt>
      <trkpt lat="40.128100" lon="-5.030033">
        <ele>1674.0</ele>
        <time>2013-07-06T15:22:48Z</time>
      </trkpt>
      <trkpt lat="40.128017" lon="-5.030067">
        <ele>1677.0</ele>
        <time>2013-07-06T15:22:49Z</time>
      </trkpt>
      <trkpt lat="40.127950" lon="-5.030150">
        <ele>1680.0</ele>
        <time>2013-07-06T15:22:50Z</time>
      </trkpt>
      <trkpt lat="40.127900" lon="-5.030233">
        <ele>1683.0</ele>
        <time>2013-07-06T15:22:51Z</time>
      </trkpt>
      <trkpt lat="40.127867" lon="-5.030350">
        <ele>1686.0</ele>
        <time>2013-07-06T15:22:52Z</time>
      </trkpt>
      <trkpt lat="40.127867" lon="-5.030467">
        <ele>1688.0</ele>
        <time>2013-07-06T15:22:53Z</time>
      </trkpt>
      <trkpt lat="40.127850" lon="-5.030600">
        <ele>1691.0</ele>
        <time>2013-07-06T15:22:54Z</time>
      </trkpt>
      <trkpt lat="40.127883" lon="-5.030733">
        <ele>1694.0</ele>
        <time>2013-07-06T15:22:55Z</time>
      </trkpt>
      <trkpt lat="40.127917" lon="-5.030867">
        <ele>1697.0</ele>
        <time>2013-07-06T15:22:56Z</time>
      </trkpt>
      <trkpt lat="40.127967" lon="-5.031000">
        <ele>1699.0</ele>
        <time>2013-07-06T15:22:57Z</time>
      </trkpt>
      <trkpt lat="40.128033" lon="-5.031100">
        <ele>1701.0</ele>
        <time>2013-07-06T15:22:58Z</time>
      </trkpt>
      <trkpt lat="40.128117" lon="-5.031200">
        <ele>1702.0</ele>
        <time>2013-07-06T15:22:59Z</time>
      </trkpt>
      <trkpt lat="40.128200" lon="-5.031283">
        <ele>1704.0</ele>
        <time>2013-07-06T15:23:00Z</time>
      </trkpt>
      <trkpt lat="40.128283" lon="-5.031367">
        <ele>1706.0</ele>
        <time>2013-07-06T15:23:01Z</time>
      </trkpt>
      <trkpt lat="40.128383" lon="-5.031417">
        <ele>1708.0</ele>
        <time>2013-07-06T15:23:02Z</time>
      </trkpt>
      <trkpt lat="40.128467" lon="-5.031467">
        <ele>1711.0</ele>
        <time>2013-07-06T15:23:03Z</time>
      </trkpt>
      <trkpt lat="40.128550" lon="-5.031517">
        <ele>1714.0</ele>
        <time>2013-07-06T15:23:04Z</time>
      </trkpt>
      <trkpt lat="40.128633" lon="-5.031533">
        <ele>1716.0</ele>
        <time>2013-07-06T15:23:05Z</time>
      </trkpt>
      <trkpt lat="40.128717" lon="-5.031550">
        <ele>1718.0</ele>
        <time>2013-07-06T15:23:06Z</time>
      </trkpt>
      <trkpt lat="40.128800" lon="-5.031533">
        <ele>1719.0</ele>
        <time>2013-07-06T15:23:07Z</time>
      </trkpt>
      <trkpt lat="40.128883" lon="-5.031483">
        <ele>1721.0</ele>
        <time>2013-07-06T15:23:08Z</time>
      </trkpt>
      <trkpt lat="40.128950" lon="-5.031433">
        <ele>1724.0</ele>
        <time>2013-07-06T15:23:09Z</time>
      </trkpt>
      <trkpt lat="40.129050" lon="-5.031217">
        <ele>1731.0</ele>
        <time>2013-07-06T15:23:12Z</time>
      </trkpt>
      <trkpt lat="40.129017" lon="-5.031117">
        <ele>1733.0</ele>
        <time>2013-07-06T15:23:13Z</time>
      </trkpt>
      <trkpt lat="40.128967" lon="-5.031067">
        <ele>1735.0</ele>
        <time>2013-07-06T15:23:14Z</time>
      </trkpt>
      <trkpt lat="40.128900" lon="-5.031050">
        <ele>1737.0</ele>
        <time>2013-07-06T15:23:15Z</time>
      </trkpt>
      <trkpt lat="40.128833" lon="-5.031083">
        <ele>1739.0</ele>
        <time>2013-07-06T15:23:16Z</time>
      </trkpt>
      <trkpt lat="40.128767" lon="-5.031150">
        <ele>1740.0</ele>
        <time>2013-07-06T15:23:17Z</time>
      </trkpt>
      <trkpt lat="40.128700" lon="-5.031233">
        <ele>1743.0</ele>
        <time>2013-07-06T15:23:18Z</time>
      </trkpt>
      <trkpt lat="40.128650" lon="-5.031333">
        <ele>1745.0</ele>
        <time>2013-07-06T15:23:19Z</time>
      </trkpt>
      <trkpt lat="40.128633" lon="-5.031450">
        <ele>1747.0</ele>
        <time>2013-07-06T15:23:20Z</time>
      </trkpt>
      <trkpt lat="40.128617" lon="-5.031600">
        <ele>1749.0</ele>
        <time>2013-07-06T15:23:21Z</time>
      </trkpt>
      <trkpt lat="40.128617" lon="-5.031750">
        <ele>1750.0</ele>
        <time>2013-07-06T15:23:22Z</time>
      </trkpt>
      <trkpt lat="40.128650" lon="-5.031883">
        <ele>1752.0</ele>
        <time>2013-07-06T15:23:23Z</time>
      </trkpt>
      <trkpt lat="40.128683" lon="-5.032000">
        <ele>1754.0</ele>
        <time>2013-07-06T15:23:24Z</time>
      </trkpt>
      <trkpt lat="40.128733" lon="-5.032117">
        <ele>1756.0</ele>
        <time>2013-07-06T15:23:25Z</time>
      </trkpt>
      <trkpt lat="40.128800" lon="-5.032217">
        <ele>1758.0</ele>
        <time>2013-07-06T15:23:26Z</time>
      </trkpt>
      <trkpt lat="40.128883" lon="-5.032317">
        <ele>1759.0</ele>
        <time>2013-07-06T15:23:27Z</time>
      </trkpt>
      <trkpt lat="40.128967" lon="-5.032417">
        <ele>1762.0</ele>
        <time>2013-07-06T15:23:28Z</time>
      </trkpt>
      <trkpt lat="40.129033" lon="-5.032500">
        <ele>1764.0</ele>
        <time>2013-07-06T15:23:29Z</time>
      </trkpt>
      <trkpt lat="40.129100" lon="-5.032567">
        <ele>1767.0</ele>
        <time>2013-07-06T15:23:30Z</time>
      </trkpt>
      <trkpt lat="40.129183" lon="-5.032650">
        <ele>1770.0</ele>
        <time>2013-07-06T15:23:31Z</time>
      </trkpt>
      <trkpt lat="40.129267" lon="-5.032700">
        <ele>1771.0</ele>
        <time>2013-07-06T15:23:32Z</time>
      </trkpt>
      <trkpt lat="40.129367" lon="-5.032750">
        <ele>1773.0</ele>
        <time>2013-07-06T15:23:33Z</time>
      </trkpt>
      <trkpt lat="40.129467" lon="-5.032767">
        <ele>1774.0</ele>
        <time>2013-07-06T15:23:34Z</time>
      </trkpt>
      <trkpt lat="40.129567" lon="-5.032750">
        <ele>1775.0</ele>
        <time>2013-07-06T15:23:35Z</time>
      </trkpt>
      <trkpt lat="40.129650" lon="-5.032717">
        <ele>1777.0</ele>
        <time>2013-07-06T15:23:36Z</time>
      </trkpt>
      <trkpt lat="40.129717" lon="-5.032667">
        <ele>1779.0</ele>
        <time>2013-07-06T15:23:37Z</time>
      </trkpt>
      <trkpt lat="40.129767" lon="-5.032583">
        <ele>1780.0</ele>
        <time>2013-07-06T15:23:38Z</time>
      </trkpt>
      <trkpt lat="40.129817" lon="-5.032500">
        <ele>1781.0</ele>
        <time>2013-07-06T15:23:39Z</time>
      </trkpt>
      <trkpt lat="40.129850" lon="-5.032300">
        <ele>1784.0</ele>
        <time>2013-07-06T15:23:41Z</time>
      </trkpt>
      <trkpt lat="40.129833" lon="-5.032200">
        <ele>1785.0</ele>
        <time>2013-07-06T15:23:42Z</time>
      </trkpt>
      <trkpt lat="40.129800" lon="-5.032133">
        <ele>1786.0</ele>
        <time>2013-07-06T15:23:43Z</time>
      </trkpt>
      <trkpt lat="40.129750" lon="-5.032083">
        <ele>1786.0</ele>
        <time>2013-07-06T15:23:44Z</time>
      </trkpt>
      <trkpt lat="40.129683" lon="-5.032067">
        <ele>1786.0</ele>
        <time>2013-07-06T15:23:45Z</time>
      </trkpt>
      <trkpt lat="40.129617" lon="-5.032083">
        <ele>1786.0</ele>
        <time>2013-07-06T15:23:46Z</time>
      </trkpt>
      <trkpt lat="40.129550" lon="-5.032133">
        <ele>1787.0</ele>
        <time>2013-07-06T15:23:47Z</time>
      </trkpt>
      <trkpt lat="40.129500" lon="-5.032200">
        <ele>1788.0</ele>
        <time>2013-07-06T15:23:48Z</time>
      </trkpt>
      <trkpt lat="40.129450" lon="-5.032300">
        <ele>1789.0</ele>
        <time>2013-07-06T15:23:49Z</time>
      </trkpt>
      <trkpt lat="40.129417" lon="-5.032417">
        <ele>1790.0</ele>
        <time>2013-07-06T15:23:50Z</time>
      </trkpt>
      <trkpt lat="40.129400" lon="-5.032533">
        <ele>1792.0</ele>
        <time>2013-07-06T15:23:51Z</time>
      </trkpt>
      <trkpt lat="40.129417" lon="-5.032667">
        <ele>1793.0</ele>
        <time>2013-07-06T15:23:52Z</time>
      </trkpt>
      <trkpt lat="40.129433" lon="-5.032783">
        <ele>1795.0</ele>
        <time>2013-07-06T15:23:53Z</time>
      </trkpt>
      <trkpt lat="40.129467" lon="-5.032917">
        <ele>1797.0</ele>
        <time>2013-07-06T15:23:54Z</time>
      </trkpt>
      <trkpt lat="40.129517" lon="-5.033017">
        <ele>1799.0</ele>
        <time>2013-07-06T15:23:55Z</time>
      </trkpt>
      <trkpt lat="40.129567" lon="-5.033133">
        <ele>1800.0</ele>
        <time>2013-07-06T15:23:56Z</time>
      </trkpt>
      <trkpt lat="40.129733" lon="-5.033317">
        <ele>1803.0</ele>
        <time>2013-07-06T15:23:58Z</time>
      </trkpt>
      <trkpt lat="40.129817" lon="-5.033383">
        <ele>1804.0</ele>
        <time>2013-07-06T15:23:59Z</time>
      </trkpt>
      <trkpt lat="40.129917" lon="-5.033450">
        <ele>1806.0</ele>
        <time>2013-07-06T15:24:00Z</time>
      </trkpt>
      <trkpt lat="40.130017" lon="-5.033500">
        <ele>1808.0</ele>
        <time>2013-07-06T15:24:01Z</time>
      </trkpt>
      <trkpt lat="40.130117" lon="-5.033550">
        <ele>1810.0</ele>
        <time>2013-07-06T15:24:02Z</time>
      </trkpt>
      <trkpt lat="40.130200" lon="-5.033567">
        <ele>1812.0</ele>
        <time>2013-07-06T15:24:03Z</time>
      </trkpt>
      <trkpt lat="40.130367" lon="-5.033533">
        <ele>1815.0</ele>
        <time>2013-07-06T15:24:05Z</time>
      </trkpt>
      <trkpt lat="40.130450" lon="-5.033467">
        <ele>1816.0</ele>
        <time>2013-07-06T15:24:06Z</time>
      </trkpt>
      <trkpt lat="40.130500" lon="-5.033400">
        <ele>1817.0</ele>
        <time>2013-07-06T15:24:07Z</time>
      </trkpt>
      <trkpt lat="40.130550" lon="-5.033217">
        <ele>1822.0</ele>
        <time>2013-07-06T15:24:09Z</time>
      </trkpt>
      <trkpt lat="40.130533" lon="-5.033117">
        <ele>1824.0</ele>
        <time>2013-07-06T15:24:10Z</time>
      </trkpt>
      <trkpt lat="40.130500" lon="-5.033050">
        <ele>1826.0</ele>
        <time>2013-07-06T15:24:11Z</time>
      </trkpt>
      <trkpt lat="40.130450" lon="-5.033000">
        <ele>1828.0</ele>
        <time>2013-07-06T15:24:12Z</time>
      </trkpt>
      <trkpt lat="40.130383" lon="-5.032983">
        <ele>1830.0</ele>
        <time>2013-07-06T15:24:13Z</time>
      </trkpt>
      <trkpt lat="40.130300" lon="-5.032983">
        <ele>1831.0</ele>
        <time>2013-07-06T15:24:14Z</time>
      </trkpt>
      <trkpt lat="40.130233" lon="-5.033017">
        <ele>1834.0</ele>
        <time>2013-07-06T15:24:15Z</time>
      </trkpt>
      <trkpt lat="40.130167" lon="-5.033067">
        <ele>1836.0</ele>
        <time>2013-07-06T15:24:16Z</time>
      </trkpt>
      <trkpt lat="40.130117" lon="-5.033150">
        <ele>1838.0</ele>
        <time>2013-07-06T15:24:17Z</time>
      </trkpt>
      <trkpt lat="40.130083" lon="-5.033233">
        <ele>1841.0</ele>
        <time>2013-07-06T15:24:18Z</time>
      </trkpt>
      <trkpt lat="40.130067" lon="-5.033333">
        <ele>1843.0</ele>
        <time>2013-07-06T15:24:19Z</time>
      </trkpt>
      <trkpt lat="40.130067" lon="-5.033467">
        <ele>1845.0</ele>
        <time>2013-07-06T15:24:20Z</time>
      </trkpt>
      <trkpt lat="40.130083" lon="-5.033583">
        <ele>1846.0</ele>
        <time>2013-07-06T15:24:21Z</time>
      </trkpt>
      <trkpt lat="40.130133" lon="-5.033700">
        <ele>1848.0</ele>
        <time>2013-07-06T15:24:22Z</time>
      </trkpt>
      <trkpt lat="40.130183" lon="-5.033817">
        <ele>1850.0</ele>
        <time>2013-07-06T15:24:23Z</time>
      </trkpt>
      <trkpt lat="40.130250" lon="-5.033900">
        <ele>1852.0</ele>
        <time>2013-07-06T15:24:24Z</time>
      </trkpt>
      <trkpt lat="40.130317" lon="-5.033983">
        <ele>1854.0</ele>
        <time>2013-07-06T15:24:25Z</time>
      </trkpt>
      <trkpt lat="40.130417" lon="-5.034050">
        <ele>1856.0</ele>
        <time>2013-07-06T15:24:26Z</time>
      </trkpt>
      <trkpt lat="40.130517" lon="-5.034100">
        <ele>1857.0</ele>
        <time>2013-07-06T15:24:27Z</time>
      </trkpt>
      <trkpt lat="40.130617" lon="-5.034133">
        <ele>1859.0</ele>
        <time>2013-07-06T15:24:28Z</time>
      </trkpt>
      <trkpt lat="40.130800" lon="-5.034117">
        <ele>1862.0</ele>
        <time>2013-07-06T15:24:30Z</time>
      </trkpt>
      <trkpt lat="40.130883" lon="-5.034067">
        <ele>1863.0</ele>
        <time>2013-07-06T15:24:31Z</time>
      </trkpt>
      <trkpt lat="40.130967" lon="-5.034000">
        <ele>1864.0</ele>
        <time>2013-07-06T15:24:32Z</time>
      </trkpt>
      <trkpt lat="40.131033" lon="-5.033917">
        <ele>1865.0</ele>
        <time>2013-07-06T15:24:33Z</time>
      </trkpt>
      <trkpt lat="40.131067" lon="-5.033833">
        <ele>1867.0</ele>
        <time>2013-07-06T15:24:34Z</time>
      </trkpt>
      <trkpt lat="40.131067" lon="-5.033733">
        <ele>1868.0</ele>
        <time>2013-07-06T15:24:35Z</time>
      </trkpt>
      <trkpt lat="40.131033" lon="-5.033650">
        <ele>1869.0</ele>
        <time>2013-07-06T15:24:36Z</time>
      </trkpt>
      <trkpt lat="40.130967" lon="-5.033600">
        <ele>1870.0</ele>
        <time>2013-07-06T15:24:37Z</time>
      </trkpt>
      <trkpt lat="40.130883" lon="-5.033600">
        <ele>1872.0</ele>
        <time>2013-07-06T15:24:38Z</time>
      </trkpt>
      <trkpt lat="40.130800" lon="-5.033617">
        <ele>1875.0</ele>
        <time>2013-07-06T15:24:39Z</time>
      </trkpt>
      <trkpt lat="40.130733" lon="-5.033667">
        <ele>1881.0</ele>
        <time>2013-07-06T15:24:40Z</time>
      </trkpt>
      <trkpt lat="40.130700" lon="-5.033717">
        <ele>1884.0</ele>
        <time>2013-07-06T15:24:41Z</time>
      </trkpt>
      <trkpt lat="40.130650" lon="-5.033800">
        <ele>1887.0</ele>
        <time>2013-07-06T15:24:42Z</time>
      </trkpt>
      <trkpt lat="40.130617" lon="-5.033900">
        <ele>1888.0</ele>
        <time>2013-07-06T15:24:43Z</time>
      </trkpt>
      <trkpt lat="40.130567" lon="-5.034000">
        <ele>1889.0</ele>
        <time>2013-07-06T15:24:44Z</time>
      </trkpt>
      <trkpt lat="40.130533" lon="-5.034133">
        <ele>1890.0</ele>
        <time>2013-07-06T15:24:45Z</time>
      </trkpt>
      <trkpt lat="40.130533" lon="-5.034267">
        <ele>1891.0</ele>
        <time>2013-07-06T15:24:46Z</time>
      </trkpt>
      <trkpt lat="40.130567" lon="-5.034400">
        <ele>1893.0</ele>
        <time>2013-07-06T15:24:47Z</time>
      </trkpt>
      <trkpt lat="40.130633" lon="-5.034500">
        <ele>1894.0</ele>
        <time>2013-07-06T15:24:48Z</time>
      </trkpt>
      <trkpt lat="40.130700" lon="-5.034600">
        <ele>1896.0</ele>
        <time>2013-07-06T15:24:49Z</time>
      </trkpt>
      <trkpt lat="40.130783" lon="-5.034683">
        <ele>1898.0</ele>
        <time>2013-07-06T15:24:50Z</time>
      </trkpt>
      <trkpt lat="40.130850" lon="-5.034767">
        <ele>1900.0</ele>
        <time>2013-07-06T15:24:51Z</time>
      </trkpt>
      <trkpt lat="40.130933" lon="-5.034850">
        <ele>1902.0</ele>
        <time>2013-07-06T15:24:52Z</time>
      </trkpt>
      <trkpt lat="40.131017" lon="-5.034917">
        <ele>1904.0</ele>
        <time>2013-07-06T15:24:53Z</time>
      </trkpt>
      <trkpt lat="40.131117" lon="-5.034983">
        <ele>1904.0</ele>
        <time>2013-07-06T15:24:54Z</time>
      </trkpt>
      <trkpt lat="40.131217" lon="-5.035033">
        <ele>1905.0</ele>
        <time>2013-07-06T15:24:55Z</time>
      </trkpt>
      <trkpt lat="40.131317" lon="-5.035050">
        <ele>1906.0</ele>
        <time>2013-07-06T15:24:56Z</time>
      </trkpt>
      <trkpt lat="40.131567" lon="-5.034950">
        <ele>1906.0</ele>
        <time>2013-07-06T15:24:59Z</time>
      </trkpt>
      <trkpt lat="40.131633" lon="-5.034867">
        <ele>1905.0</ele>
        <time>2013-07-06T15:25:00Z</time>
      </trkpt>
      <trkpt lat="40.131667" lon="-5.034783">
        <ele>1904.0</ele>
        <time>2013-07-06T15:25:01Z</time>
      </trkpt>
      <trkpt lat="40.131683" lon="-5.034700">
        <ele>1904.0</ele>
        <time>2013-07-06T15:25:02Z</time>
      </trkpt>
      <trkpt lat="40.131700" lon="-5.034617">
        <ele>1904.0</ele>
        <time>2013-07-06T15:25:03Z</time>
      </trkpt>
      <trkpt lat="40.131683" lon="-5.034517">
        <ele>1904.0</ele>
        <time>2013-07-06T15:25:04Z</time>
      </trkpt>
      <trkpt lat="40.131650" lon="-5.034433">
        <ele>1904.0</ele>
        <time>2013-07-06T15:25:05Z</time>
      </trkpt>
      <trkpt lat="40.131600" lon="-5.034367">
        <ele>1903.0</ele>
        <time>2013-07-06T15:25:06Z</time>
      </trkpt>
      <trkpt lat="40.131517" lon="-5.034300">
        <ele>1902.0</ele>
        <time>2013-07-06T15:25:07Z</time>
      </trkpt>
      <trkpt lat="40.131433" lon="-5.034283">
        <ele>1902.0</ele>
        <time>2013-07-06T15:25:08Z</time>
      </trkpt>
      <trkpt lat="40.131367" lon="-5.034283">
        <ele>1904.0</ele>
        <time>2013-07-06T15:25:09Z</time>
      </trkpt>
      <trkpt lat="40.131283" lon="-5.034300">
        <ele>1905.0</ele>
        <time>2013-07-06T15:25:10Z</time>
      </trkpt>
      <trkpt lat="40.131200" lon="-5.034333">
        <ele>1905.0</ele>
        <time>2013-07-06T15:25:11Z</time>
      </trkpt>
      <trkpt lat="40.131117" lon="-5.034383">
        <ele>1907.0</ele>
        <time>2013-07-06T15:25:12Z</time>
      </trkpt>
      <trkpt lat="40.131033" lon="-5.034433">
        <ele>1909.0</ele>
        <time>2013-07-06T15:25:13Z</time>
      </trkpt>
      <trkpt lat="40.130967" lon="-5.034500">
        <ele>1911.0</ele>
        <time>2013-07-06T15:25:14Z</time>
      </trkpt>
      <trkpt lat="40.130917" lon="-5.034583">
        <ele>1914.0</ele>
        <time>2013-07-06T15:25:15Z</time>
      </trkpt>
      <trkpt lat="40.130867" lon="-5.034683">
        <ele>1915.0</ele>
        <time>2013-07-06T15:25:16Z</time>
      </trkpt>
      <trkpt lat="40.130850" lon="-5.034817">
        <ele>1916.0</ele>
        <time>2013-07-06T15:25:17Z</time>
      </trkpt>
      <trkpt lat="40.130867" lon="-5.034967">
        <ele>1917.0</ele>
        <time>2013-07-06T15:25:18Z</time>
      </trkpt>
      <trkpt lat="40.130900" lon="-5.035083">
        <ele>1918.0</ele>
        <time>2013-07-06T15:25:19Z</time>
      </trkpt>
      <trkpt lat="40.130933" lon="-5.035200">
        <ele>1920.0</ele>
        <time>2013-07-06T15:25:20Z</time>
      </trkpt>
      <trkpt lat="40.131000" lon="-5.035300">
        <ele>1922.0</ele>
        <time>2013-07-06T15:25:21Z</time>
      </trkpt>
      <trkpt lat="40.131067" lon="-5.035367">
        <ele>1924.0</ele>
        <time>2013-07-06T15:25:22Z</time>
      </trkpt>
      <trkpt lat="40.131150" lon="-5.035417">
        <ele>1925.0</ele>
        <time>2013-07-06T15:25:23Z</time>
      </trkpt>
      <trkpt lat="40.131250" lon="-5.035450">
        <ele>1927.0</ele>
        <time>2013-07-06T15:25:24Z</time>
      </trkpt>
      <trkpt lat="40.131333" lon="-5.035467">
        <ele>1928.0</ele>
        <time>2013-07-06T15:25:25Z</time>
      </trkpt>
      <trkpt lat="40.131400" lon="-5.035483">
        <ele>1931.0</ele>
        <time>2013-07-06T15:25:26Z</time>
      </trkpt>
      <trkpt lat="40.131450" lon="-5.035483">
        <ele>1935.0</ele>
        <time>2013-07-06T15:25:27Z</time>
      </trkpt>
      <trkpt lat="40.131500" lon="-5.035467">
        <ele>1937.0</ele>
        <time>2013-07-06T15:25:28Z</time>
      </trkpt>
      <trkpt lat="40.131533" lon="-5.035433">
        <ele>1938.0</ele>
        <time>2013-07-06T15:25:29Z</time>
      </trkpt>
      <trkpt lat="40.131600" lon="-5.035383">
        <ele>1936.0</ele>
        <time>2013-07-06T15:25:30Z</time>
      </trkpt>
      <trkpt lat="40.131667" lon="-5.035300">
        <ele>1935.0</ele>
        <time>2013-07-06T15:25:31Z</time>
      </trkpt>
      <trkpt lat="40.131700" lon="-5.035233">
        <ele>1936.0</ele>
        <time>2013-07-06T15:25:32Z</time>
      </trkpt>
      <trkpt lat="40.131717" lon="-5.035150">
        <ele>1937.0</ele>
        <time>2013-07-06T15:25:33Z</time>
      </trkpt>
      <trkpt lat="40.131700" lon="-5.035067">
        <ele>1938.0</ele>
        <time>2013-07-06T15:25:34Z</time>
      </trkpt>
      <trkpt lat="40.131683" lon="-5.034983">
        <ele>1939.0</ele>
        <time>2013-07-06T15:25:35Z</time>
      </trkpt>
      <trkpt lat="40.131650" lon="-5.034900">
        <ele>1940.0</ele>
        <time>2013-07-06T15:25:36Z</time>
      </trkpt>
      <trkpt lat="40.131600" lon="-5.034833">
        <ele>1940.0</ele>
        <time>2013-07-06T15:25:37Z</time>
      </trkpt>
      <trkpt lat="40.131533" lon="-5.034783">
        <ele>1941.0</ele>
        <time>2013-07-06T15:25:38Z</time>
      </trkpt>
      <trkpt lat="40.131450" lon="-5.034767">
        <ele>1941.0</ele>
        <time>2013-07-06T15:25:39Z</time>
      </trkpt>
      <trkpt lat="40.131367" lon="-5.034767">
        <ele>1943.0</ele>
        <time>2013-07-06T15:25:40Z</time>
      </trkpt>
      <trkpt lat="40.131283" lon="-5.034800">
        <ele>1947.0</ele>
        <time>2013-07-06T15:25:41Z</time>
      </trkpt>
      <trkpt lat="40.131217" lon="-5.034867">
        <ele>1951.0</ele>
        <time>2013-07-06T15:25:42Z</time>
      </trkpt>
      <trkpt lat="40.131167" lon="-5.034950">
        <ele>1953.0</ele>
        <time>2013-07-06T15:25:43Z</time>
      </trkpt>
      <trkpt lat="40.131117" lon="-5.035050">
        <ele>1955.0</ele>
        <time>2013-07-06T15:25:44Z</time>
      </trkpt>
      <trkpt lat="40.131067" lon="-5.035183">
        <ele>1956.0</ele>
        <time>2013-07-06T15:25:45Z</time>
      </trkpt>
      <trkpt lat="40.131033" lon="-5.035317">
        <ele>1958.0</ele>
        <time>2013-07-06T15:25:46Z</time>
      </trkpt>
      <trkpt lat="40.131017" lon="-5.035433">
        <ele>1960.0</ele>
        <time>2013-07-06T15:25:47Z</time>
      </trkpt>
      <trkpt lat="40.131033" lon="-5.035567">
        <ele>1961.0</ele>
        <time>2013-07-06T15:25:48Z</time>
      </trkpt>
      <trkpt lat="40.131067" lon="-5.035700">
        <ele>1962.0</ele>
        <time>2013-07-06T15:25:49Z</time>
      </trkpt>
      <trkpt lat="40.131117" lon="-5.035833">
        <ele>1963.0</ele>
        <time>2013-07-06T15:25:50Z</time>
      </trkpt>
      <trkpt lat="40.131167" lon="-5.035950">
        <ele>1964.0</ele>
        <time>2013-07-06T15:25:51Z</time>
      </trkpt>
      <trkpt lat="40.131233" lon="-5.036050">
        <ele>1966.0</ele>
        <time>2013-07-06T15:25:52Z</time>
      </trkpt>
      <trkpt lat="40.131300" lon="-5.036133">
        <ele>1968.0</ele>
        <time>2013-07-06T15:25:53Z</time>
      </trkpt>
      <trkpt lat="40.131383" lon="-5.036200">
        <ele>1970.0</ele>
        <time>2013-07-06T15:25:54Z</time>
      </trkpt>
      <trkpt lat="40.131467" lon="-5.036250">
        <ele>1972.0</ele>
        <time>2013-07-06T15:25:55Z</time>
      </trkpt>
      <trkpt lat="40.131550" lon="-5.036250">
        <ele>1973.0</ele>
        <time>2013-07-06T15:25:56Z</time>
      </trkpt>
      <trkpt lat="40.131617" lon="-5.036250">
        <ele>1974.0</ele>
        <time>2013-07-06T15:25:57Z</time>
      </trkpt>
      <trkpt lat="40.131683" lon="-5.036233">
        <ele>1976.0</ele>
        <time>2013-07-06T15:25:58Z</time>
      </trkpt>
      <trkpt lat="40.131750" lon="-5.036200">
        <ele>1977.0</ele>
        <time>2013-07-06T15:25:59Z</time>
      </trkpt>
      <trkpt lat="40.131817" lon="-5.036150">
        <ele>1978.0</ele>
        <time>2013-07-06T15:26:00Z</time>
      </trkpt>
      <trkpt lat="40.131867" lon="-5.036100">
        <ele>1978.0</ele>
        <time>2013-07-06T15:26:01Z</time>
      </trkpt>
      <trkpt lat="40.131900" lon="-5.036033">
        <ele>1979.0</ele>
        <time>2013-07-06T15:26:02Z</time>
      </trkpt>
      <trkpt lat="40.131933" lon="-5.035950">
        <ele>1980.0</ele>
        <time>2013-07-06T15:26:03Z</time>
      </trkpt>
      <trkpt lat="40.131917" lon="-5.035850">
        <ele>1980.0</ele>
        <time>2013-07-06T15:26:04Z</time>
      </trkpt>
      <trkpt lat="40.131883" lon="-5.035783">
        <ele>1981.0</ele>
        <time>2013-07-06T15:26:05Z</time>
      </trkpt>
      <trkpt lat="40.131833" lon="-5.035717">
        <ele>1982.0</ele>
        <time>2013-07-06T15:26:06Z</time>
      </trkpt>
      <trkpt lat="40.131767" lon="-5.035683">
        <ele>1982.0</ele>
        <time>2013-07-06T15:26:07Z</time>
      </trkpt>
      <trkpt lat="40.131667" lon="-5.035683">
        <ele>1983.0</ele>
        <time>2013-07-06T15:26:08Z</time>
      </trkpt>
      <trkpt lat="40.131583" lon="-5.035700">
        <ele>1984.0</ele>
        <time>2013-07-06T15:26:09Z</time>
      </trkpt>
      <trkpt lat="40.131500" lon="-5.035750">
        <ele>1988.0</ele>
        <time>2013-07-06T15:26:10Z</time>
      </trkpt>
      <trkpt lat="40.131417" lon="-5.035817">
        <ele>1991.0</ele>
        <time>2013-07-06T15:26:11Z</time>
      </trkpt>
      <trkpt lat="40.131350" lon="-5.035900">
        <ele>1994.0</ele>
        <time>2013-07-06T15:26:12Z</time>
      </trkpt>
      <trkpt lat="40.131300" lon="-5.036000">
        <ele>1996.0</ele>
        <time>2013-07-06T15:26:13Z</time>
      </trkpt>
      <trkpt lat="40.131267" lon="-5.036100">
        <ele>1998.0</ele>
        <time>2013-07-06T15:26:14Z</time>
      </trkpt>
      <trkpt lat="40.131217" lon="-5.036233">
        <ele>1999.0</ele>
        <time>2013-07-06T15:26:15Z</time>
      </trkpt>
      <trkpt lat="40.131200" lon="-5.036383">
        <ele>1999.0</ele>
        <time>2013-07-06T15:26:16Z</time>
      </trkpt>
      <trkpt lat="40.131183" lon="-5.036517">
        <ele>2000.0</ele>
        <time>2013-07-06T15:26:17Z</time>
      </trkpt>
      <trkpt lat="40.131200" lon="-5.036650">
        <ele>2001.0</ele>
        <time>2013-07-06T15:26:18Z</time>
      </trkpt>
      <trkpt lat="40.131250" lon="-5.036800">
        <ele>2001.0</ele>
        <time>2013-07-06T15:26:19Z</time>
      </trkpt>
      <trkpt lat="40.131317" lon="-5.036917">
        <ele>2002.0</ele>
        <time>2013-07-06T15:26:20Z</time>
      </trkpt>
      <trkpt lat="40.131383" lon="-5.037017">
        <ele>2004.0</ele>
        <time>2013-07-06T15:26:21Z</time>
      </trkpt>
      <trkpt lat="40.131450" lon="-5.037100">
        <ele>2006.0</ele>
        <time>2013-07-06T15:26:22Z</time>
      </trkpt>
      <trkpt lat="40.131517" lon="-5.037183">
        <ele>2008.0</ele>
        <time>2013-07-06T15:26:23Z</time>
      </trkpt>
      <trkpt lat="40.131583" lon="-5.037267">
        <ele>2010.0</ele>
        <time>2013-07-06T15:26:24Z</time>
      </trkpt>
      <trkpt lat="40.131667" lon="-5.037350">
        <ele>2011.0</ele>
        <time>2013-07-06T15:26:25Z</time>
      </trkpt>
      <trkpt lat="40.131750" lon="-5.037417">
        <ele>2013.0</ele>
        <time>2013-07-06T15:26:26Z</time>
      </trkpt>
      <trkpt lat="40.131833" lon="-5.037450">
        <ele>2014.0</ele>
        <time>2013-07-06T15:26:27Z</time>
      </trkpt>
      <trkpt lat="40.131917" lon="-5.037467">
        <ele>2016.0</ele>
        <time>2013-07-06T15:26:28Z</time>
      </trkpt>
      <trkpt lat="40.131983" lon="-5.037433">
        <ele>2017.0</ele>
        <time>2013-07-06T15:26:29Z</time>
      </trkpt>
      <trkpt lat="40.132033" lon="-5.037383">
        <ele>2018.0</ele>
        <time>2013-07-06T15:26:30Z</time>
      </trkpt>
      <trkpt lat="40.132083" lon="-5.037300">
        <ele>2018.0</ele>
        <time>2013-07-06T15:26:31Z</time>
      </trkpt>
      <trkpt lat="40.132100" lon="-5.037233">
        <ele>2019.0</ele>
        <time>2013-07-06T15:26:32Z</time>
      </trkpt>
      <trkpt lat="40.132083" lon="-5.037067">
        <ele>2020.0</ele>
        <time>2013-07-06T15:26:34Z</time>
      </trkpt>
      <trkpt lat="40.132033" lon="-5.036983">
        <ele>2020.0</ele>
        <time>2013-07-06T15:26:35Z</time>
      </trkpt>
      <trkpt lat="40.131967" lon="-5.036950">
        <ele>2021.0</ele>
        <time>2013-07-06T15:26:36Z</time>
      </trkpt>
      <trkpt lat="40.131883" lon="-5.036933">
        <ele>2021.0</ele>
        <time>2013-07-06T15:26:37Z</time>
      </trkpt>
      <trkpt lat="40.131800" lon="-5.036950">
        <ele>2023.0</ele>
        <time>2013-07-06T15:26:38Z</time>
      </trkpt>
      <trkpt lat="40.131717" lon="-5.037000">
        <ele>2024.0</ele>
        <time>2013-07-06T15:26:39Z</time>
      </trkpt>
      <trkpt lat="40.131633" lon="-5.037067">
        <ele>2026.0</ele>
        <time>2013-07-06T15:26:40Z</time>
      </trkpt>
      <trkpt lat="40.131567" lon="-5.037167">
        <ele>2027.0</ele>
        <time>2013-07-06T15:26:41Z</time>
      </trkpt>
      <trkpt lat="40.131500" lon="-5.037267">
        <ele>2028.0</ele>
        <time>2013-07-06T15:26:42Z</time>
      </trkpt>
      <trkpt lat="40.131483" lon="-5.037383">
        <ele>2030.0</ele>
        <time>2013-07-06T15:26:43Z</time>
      </trkpt>
      <trkpt lat="40.131467" lon="-5.037517">
        <ele>2031.0</ele>
        <time>2013-07-06T15:26:44Z</time>
      </trkpt>
      <trkpt lat="40.131483" lon="-5.037650">
        <ele>2032.0</ele>
        <time>2013-07-06T15:26:45Z</time>
      </trkpt>
      <trkpt lat="40.131500" lon="-5.037800">
        <ele>2032.0</ele>
        <time>2013-07-06T15:26:46Z</time>
      </trkpt>
      <trkpt lat="40.131550" lon="-5.037933">
        <ele>2033.0</ele>
        <time>2013-07-06T15:26:47Z</time>
      </trkpt>
      <trkpt lat="40.131600" lon="-5.038050">
        <ele>2034.0</ele>
        <time>2013-07-06T15:26:48Z</time>
      </trkpt>
      <trkpt lat="40.131650" lon="-5.038167">
        <ele>2035.0</ele>
        <time>2013-07-06T15:26:49Z</time>
      </trkpt>
      <trkpt lat="40.131733" lon="-5.038250">
        <ele>2037.0</ele>
        <time>2013-07-06T15:26:50Z</time>
      </trkpt>
      <trkpt lat="40.131800" lon="-5.038317">
        <ele>2039.0</ele>
        <time>2013-07-06T15:26:51Z</time>
      </trkpt>
      <trkpt lat="40.131900" lon="-5.038383">
        <ele>2041.0</ele>
        <time>2013-07-06T15:26:52Z</time>
      </trkpt>
      <trkpt lat="40.132000" lon="-5.038433">
        <ele>2042.0</ele>
        <time>2013-07-06T15:26:53Z</time>
      </trkpt>
      <trkpt lat="40.132083" lon="-5.038467">
        <ele>2043.0</ele>
        <time>2013-07-06T15:26:54Z</time>
      </trkpt>
      <trkpt lat="40.132167" lon="-5.038517">
        <ele>2045.0</ele>
        <time>2013-07-06T15:26:55Z</time>
      </trkpt>
      <trkpt lat="40.132250" lon="-5.038550">
        <ele>2047.0</ele>
        <time>2013-07-06T15:26:56Z</time>
      </trkpt>
      <trkpt lat="40.132317" lon="-5.038567">
        <ele>2048.0</ele>
        <time>2013-07-06T15:26:57Z</time>
      </trkpt>
      <trkpt lat="40.132400" lon="-5.038567">
        <ele>2049.0</ele>
        <time>2013-07-06T15:26:58Z</time>
      </trkpt>
      <trkpt lat="40.132467" lon="-5.038550">
        <ele>2049.0</ele>
        <time>2013-07-06T15:26:59Z</time>
      </trkpt>
      <trkpt lat="40.132550" lon="-5.038483">
        <ele>2048.0</ele>
        <time>2013-07-06T15:27:00Z</time>
      </trkpt>
      <trkpt lat="40.132617" lon="-5.038417">
        <ele>2046.0</ele>
        <time>2013-07-06T15:27:01Z</time>
      </trkpt>
      <trkpt lat="40.132667" lon="-5.038333">
        <ele>2044.0</ele>
        <time>2013-07-06T15:27:02Z</time>
      </trkpt>
      <trkpt lat="40.132683" lon="-5.038250">
        <ele>2043.0</ele>
        <time>2013-07-06T15:27:03Z</time>
      </trkpt>
      <trkpt lat="40.132683" lon="-5.038150">
        <ele>2042.0</ele>
        <time>2013-07-06T15:27:04Z</time>
      </trkpt>
      <trkpt lat="40.132667" lon="-5.038067">
        <ele>2041.0</ele>
        <time>2013-07-06T15:27:05Z</time>
      </trkpt>
      <trkpt lat="40.132633" lon="-5.037983">
        <ele>2040.0</ele>
        <time>2013-07-06T15:27:06Z</time>
      </trkpt>
      <trkpt lat="40.132583" lon="-5.037900">
        <ele>2039.0</ele>
        <time>2013-07-06T15:27:07Z</time>
      </trkpt>
      <trkpt lat="40.132500" lon="-5.037850">
        <ele>2038.0</ele>
        <time>2013-07-06T15:27:08Z</time>
      </trkpt>
      <trkpt lat="40.132417" lon="-5.037833">
        <ele>2038.0</ele>
        <time>2013-07-06T15:27:09Z</time>
      </trkpt>
      <trkpt lat="40.132333" lon="-5.037867">
        <ele>2038.0</ele>
        <time>2013-07-06T15:27:10Z</time>
      </trkpt>
      <trkpt lat="40.132233" lon="-5.037933">
        <ele>2038.0</ele>
        <time>2013-07-06T15:27:11Z</time>
      </trkpt>
      <trkpt lat="40.132167" lon="-5.038033">
        <ele>2037.0</ele>
        <time>2013-07-06T15:27:12Z</time>
      </trkpt>
      <trkpt lat="40.132117" lon="-5.038150">
        <ele>2038.0</ele>
        <time>2013-07-06T15:27:13Z</time>
      </trkpt>
      <trkpt lat="40.132100" lon="-5.038267">
        <ele>2038.0</ele>
        <time>2013-07-06T15:27:14Z</time>
      </trkpt>
      <trkpt lat="40.132100" lon="-5.038400">
        <ele>2039.0</ele>
        <time>2013-07-06T15:27:15Z</time>
      </trkpt>
      <trkpt lat="40.132133" lon="-5.038517">
        <ele>2039.0</ele>
        <time>2013-07-06T15:27:16Z</time>
      </trkpt>
      <trkpt lat="40.132167" lon="-5.038633">
        <ele>2039.0</ele>
        <time>2013-07-06T15:27:17Z</time>
      </trkpt>
      <trkpt lat="40.132233" lon="-5.038717">
        <ele>2039.0</ele>
        <time>2013-07-06T15:27:18Z</time>
      </trkpt>
      <trkpt lat="40.132300" lon="-5.038783">
        <ele>2039.0</ele>
        <time>2013-07-06T15:27:19Z</time>
      </trkpt>
      <trkpt lat="40.132383" lon="-5.038833">
        <ele>2039.0</ele>
        <time>2013-07-06T15:27:20Z</time>
      </trkpt>
      <trkpt lat="40.132467" lon="-5.038867">
        <ele>2039.0</ele>
        <time>2013-07-06T15:27:21Z</time>
      </trkpt>
      <trkpt lat="40.132550" lon="-5.038900">
        <ele>2039.0</ele>
        <time>2013-07-06T15:27:22Z</time>
      </trkpt>
      <trkpt lat="40.132617" lon="-5.038917">
        <ele>2039.0</ele>
        <time>2013-07-06T15:27:23Z</time>
      </trkpt>
      <trkpt lat="40.132700" lon="-5.038933">
        <ele>2039.0</ele>
        <time>2013-07-06T15:27:24Z</time>
      </trkpt>
      <trkpt lat="40.132783" lon="-5.038950">
        <ele>2038.0</ele>
        <time>2013-07-06T15:27:25Z</time>
      </trkpt>
      <trkpt lat="40.132883" lon="-5.038967">
        <ele>2037.0</ele>
        <time>2013-07-06T15:27:26Z</time>
      </trkpt>
      <trkpt lat="40.132967" lon="-5.038967">
        <ele>2036.0</ele>
        <time>2013-07-06T15:27:27Z</time>
      </trkpt>
      <trkpt lat="40.133050" lon="-5.038967">
        <ele>2035.0</ele>
        <time>2013-07-06T15:27:28Z</time>
      </trkpt>
      <trkpt lat="40.133133" lon="-5.038950">
        <ele>2035.0</ele>
        <time>2013-07-06T15:27:29Z</time>
      </trkpt>
      <trkpt lat="40.133217" lon="-5.038967">
        <ele>2036.0</ele>
        <time>2013-07-06T15:27:30Z</time>
      </trkpt>
      <trkpt lat="40.133300" lon="-5.038967">
        <ele>2035.0</ele>
        <time>2013-07-06T15:27:31Z</time>
      </trkpt>
      <trkpt lat="40.133383" lon="-5.038983">
        <ele>2035.0</ele>
        <time>2013-07-06T15:27:32Z</time>
      </trkpt>
      <trkpt lat="40.133467" lon="-5.038983">
        <ele>2034.0</ele>
        <time>2013-07-06T15:27:33Z</time>
      </trkpt>
      <trkpt lat="40.133550" lon="-5.038983">
        <ele>2033.0</ele>
        <time>2013-07-06T15:27:34Z</time>
      </trkpt>
      <trkpt lat="40.133650" lon="-5.038983">
        <ele>2032.0</ele>
        <time>2013-07-06T15:27:35Z</time>
      </trkpt>
      <trkpt lat="40.133733" lon="-5.038983">
        <ele>2031.0</ele>
        <time>2013-07-06T15:27:36Z</time>
      </trkpt>
      <trkpt lat="40.133817" lon="-5.038983">
        <ele>2030.0</ele>
        <time>2013-07-06T15:27:37Z</time>
      </trkpt>
      <trkpt lat="40.133900" lon="-5.038967">
        <ele>2029.0</ele>
        <time>2013-07-06T15:27:38Z</time>
      </trkpt>
      <trkpt lat="40.133967" lon="-5.038967">
        <ele>2029.0</ele>
        <time>2013-07-06T15:27:39Z</time>
      </trkpt>
      <trkpt lat="40.134050" lon="-5.038967">
        <ele>2028.0</ele>
        <time>2013-07-06T15:27:40Z</time>
      </trkpt>
      <trkpt lat="40.134133" lon="-5.038950">
        <ele>2027.0</ele>
        <time>2013-07-06T15:27:41Z</time>
      </trkpt>
      <trkpt lat="40.134217" lon="-5.038950">
        <ele>2026.0</ele>
        <time>2013-07-06T15:27:42Z</time>
      </trkpt>
      <trkpt lat="40.134300" lon="-5.038950">
        <ele>2025.0</ele>
        <time>2013-07-06T15:27:43Z</time>
      </trkpt>
      <trkpt lat="40.134383" lon="-5.038933">
        <ele>2025.0</ele>
        <time>2013-07-06T15:27:44Z</time>
      </trkpt>
      <trkpt lat="40.134483" lon="-5.038917">
        <ele>2024.0</ele>
        <time>2013-07-06T15:27:45Z</time>
      </trkpt>
      <trkpt lat="40.134567" lon="-5.038883">
        <ele>2024.0</ele>
        <time>2013-07-06T15:27:46Z</time>
      </trkpt>
      <trkpt lat="40.134650" lon="-5.038850">
        <ele>2024.0</ele>
        <time>2013-07-06T15:27:47Z</time>
      </trkpt>
      <trkpt lat="40.134750" lon="-5.038817">
        <ele>2024.0</ele>
        <time>2013-07-06T15:27:48Z</time>
      </trkpt>
      <trkpt lat="40.134833" lon="-5.038800">
        <ele>2024.0</ele>
        <time>2013-07-06T15:27:49Z</time>
      </trkpt>
      <trkpt lat="40.134900" lon="-5.038767">
        <ele>2024.0</ele>
        <time>2013-07-06T15:27:50Z</time>
      </trkpt>
      <trkpt lat="40.134983" lon="-5.038733">
        <ele>2024.0</ele>
        <time>2013-07-06T15:27:51Z</time>
      </trkpt>
      <trkpt lat="40.135083" lon="-5.038717">
        <ele>2023.0</ele>
        <time>2013-07-06T15:27:52Z</time>
      </trkpt>
      <trkpt lat="40.135350" lon="-5.038700">
        <ele>2023.0</ele>
        <time>2013-07-06T15:27:55Z</time>
      </trkpt>
      <trkpt lat="40.135433" lon="-5.038700">
        <ele>2023.0</ele>
        <time>2013-07-06T15:27:56Z</time>
      </trkpt>
      <trkpt lat="40.135517" lon="-5.038717">
        <ele>2022.0</ele>
        <time>2013-07-06T15:27:57Z</time>
      </trkpt>
      <trkpt lat="40.135600" lon="-5.038717">
        <ele>2022.0</ele>
        <time>2013-07-06T15:27:58Z</time>
      </trkpt>
      <trkpt lat="40.135683" lon="-5.038717">
        <ele>2021.0</ele>
        <time>2013-07-06T15:27:59Z</time>
      </trkpt>
      <trkpt lat="40.135850" lon="-5.038700">
        <ele>2019.0</ele>
        <time>2013-07-06T15:28:01Z</time>
      </trkpt>
      <trkpt lat="40.135950" lon="-5.038683">
        <ele>2019.0</ele>
        <time>2013-07-06T15:28:02Z</time>
      </trkpt>
      <trkpt lat="40.136100" lon="-5.038683">
        <ele>2019.0</ele>
        <time>2013-07-06T15:28:04Z</time>
      </trkpt>
      <trkpt lat="40.136183" lon="-5.038683">
        <ele>2019.0</ele>
        <time>2013-07-06T15:28:05Z</time>
      </trkpt>
      <trkpt lat="40.136267" lon="-5.038683">
        <ele>2018.0</ele>
        <time>2013-07-06T15:28:06Z</time>
      </trkpt>
      <trkpt lat="40.136350" lon="-5.038667">
        <ele>2017.0</ele>
        <time>2013-07-06T15:28:07Z</time>
      </trkpt>
      <trkpt lat="40.136433" lon="-5.038667">
        <ele>2016.0</ele>
        <time>2013-07-06T15:28:08Z</time>
      </trkpt>
      <trkpt lat="40.136533" lon="-5.038667">
        <ele>2016.0</ele>
        <time>2013-07-06T15:28:09Z</time>
      </trkpt>
      <trkpt lat="40.136600" lon="-5.038667">
        <ele>2017.0</ele>
        <time>2013-07-06T15:28:10Z</time>
      </trkpt>
      <trkpt lat="40.136683" lon="-5.038667">
        <ele>2016.0</ele>
        <time>2013-07-06T15:28:11Z</time>
      </trkpt>
      <trkpt lat="40.136767" lon="-5.038667">
        <ele>2016.0</ele>
        <time>2013-07-06T15:28:12Z</time>
      </trkpt>
      <trkpt lat="40.136867" lon="-5.038667">
        <ele>2015.0</ele>
        <time>2013-07-06T15:28:13Z</time>
      </trkpt>
      <trkpt lat="40.136950" lon="-5.038667">
        <ele>2014.0</ele>
        <time>2013-07-06T15:28:14Z</time>
      </trkpt>
      <trkpt lat="40.137050" lon="-5.038667">
        <ele>2013.0</ele>
        <time>2013-07-06T15:28:15Z</time>
      </trkpt>
      <trkpt lat="40.137150" lon="-5.038683">
        <ele>2013.0</ele>
        <time>2013-07-06T15:28:16Z</time>
      </trkpt>
      <trkpt lat="40.137233" lon="-5.038683">
        <ele>2013.0</ele>
        <time>2013-07-06T15:28:17Z</time>
      </trkpt>
      <trkpt lat="40.137317" lon="-5.038700">
        <ele>2013.0</ele>
        <time>2013-07-06T15:28:18Z</time>
      </trkpt>
      <trkpt lat="40.137400" lon="-5.038700">
        <ele>2013.0</ele>
        <time>2013-07-06T15:28:19Z</time>
      </trkpt>
      <trkpt lat="40.137483" lon="-5.038700">
        <ele>2012.0</ele>
        <time>2013-07-06T15:28:20Z</time>
      </trkpt>
      <trkpt lat="40.137567" lon="-5.038700">
        <ele>2012.0</ele>
        <time>2013-07-06T15:28:21Z</time>
      </trkpt>
      <trkpt lat="40.137650" lon="-5.038683">
        <ele>2011.0</ele>
        <time>2013-07-06T15:28:22Z</time>
      </trkpt>
      <trkpt lat="40.137833" lon="-5.038683">
        <ele>2009.0</ele>
        <time>2013-07-06T15:28:24Z</time>
      </trkpt>
      <trkpt lat="40.137917" lon="-5.038683">
        <ele>2007.0</ele>
        <time>2013-07-06T15:28:25Z</time>
      </trkpt>
      <trkpt lat="40.138000" lon="-5.038700">
        <ele>2006.0</ele>
        <time>2013-07-06T15:28:26Z</time>
      </trkpt>
      <trkpt lat="40.138083" lon="-5.038700">
        <ele>2005.0</ele>
        <time>2013-07-06T15:28:27Z</time>
      </trkpt>
      <trkpt lat="40.138167" lon="-5.038700">
        <ele>2004.0</ele>
        <time>2013-07-06T15:28:28Z</time>
      </trkpt>
      <trkpt lat="40.138250" lon="-5.038700">
        <ele>2003.0</ele>
        <time>2013-07-06T15:28:29Z</time>
      </trkpt>
      <trkpt lat="40.138350" lon="-5.038717">
        <ele>2002.0</ele>
        <time>2013-07-06T15:28:30Z</time>
      </trkpt>
      <trkpt lat="40.138433" lon="-5.038717">
        <ele>2002.0</ele>
        <time>2013-07-06T15:28:31Z</time>
      </trkpt>
      <trkpt lat="40.138500" lon="-5.038733">
        <ele>2001.0</ele>
        <time>2013-07-06T15:28:32Z</time>
      </trkpt>
      <trkpt lat="40.138583" lon="-5.038750">
        <ele>2001.0</ele>
        <time>2013-07-06T15:28:33Z</time>
      </trkpt>
      <trkpt lat="40.138667" lon="-5.038767">
        <ele>1999.0</ele>
        <time>2013-07-06T15:28:34Z</time>
      </trkpt>
      <trkpt lat="40.138750" lon="-5.038800">
        <ele>1998.0</ele>
        <time>2013-07-06T15:28:35Z</time>
      </trkpt>
      <trkpt lat="40.138850" lon="-5.038817">
        <ele>1996.0</ele>
        <time>2013-07-06T15:28:36Z</time>
      </trkpt>
      <trkpt lat="40.138933" lon="-5.038833">
        <ele>1994.0</ele>
        <time>2013-07-06T15:28:37Z</time>
      </trkpt>
      <trkpt lat="40.139017" lon="-5.038850">
        <ele>1992.0</ele>
        <time>2013-07-06T15:28:38Z</time>
      </trkpt>
      <trkpt lat="40.139100" lon="-5.038850">
        <ele>1991.0</ele>
        <time>2013-07-06T15:28:39Z</time>
      </trkpt>
      <trkpt lat="40.139183" lon="-5.038867">
        <ele>1989.0</ele>
        <time>2013-07-06T15:28:40Z</time>
      </trkpt>
      <trkpt lat="40.139283" lon="-5.038883">
        <ele>1987.0</ele>
        <time>2013-07-06T15:28:41Z</time>
      </trkpt>
      <trkpt lat="40.139367" lon="-5.038883">
        <ele>1985.0</ele>
        <time>2013-07-06T15:28:42Z</time>
      </trkpt>
      <trkpt lat="40.139450" lon="-5.038883">
        <ele>1984.0</ele>
        <time>2013-07-06T15:28:43Z</time>
      </trkpt>
      <trkpt lat="40.139533" lon="-5.038900">
        <ele>1983.0</ele>
        <time>2013-07-06T15:28:44Z</time>
      </trkpt>
      <trkpt lat="40.139600" lon="-5.038900">
        <ele>1982.0</ele>
        <time>2013-07-06T15:28:45Z</time>
      </trkpt>
      <trkpt lat="40.139683" lon="-5.038883">
        <ele>1981.0</ele>
        <time>2013-07-06T15:28:46Z</time>
      </trkpt>
      <trkpt lat="40.139767" lon="-5.038883">
        <ele>1979.0</ele>
        <time>2013-07-06T15:28:47Z</time>
      </trkpt>
      <trkpt lat="40.139850" lon="-5.038867">
        <ele>1978.0</ele>
        <time>2013-07-06T15:28:48Z</time>
      </trkpt>
      <trkpt lat="40.139933" lon="-5.038867">
        <ele>1976.0</ele>
        <time>2013-07-06T15:28:49Z</time>
      </trkpt>
      <trkpt lat="40.140017" lon="-5.038867">
        <ele>1975.0</ele>
        <time>2013-07-06T15:28:50Z</time>
      </trkpt>
      <trkpt lat="40.140100" lon="-5.038867">
        <ele>1975.0</ele>
        <time>2013-07-06T15:28:51Z</time>
      </trkpt>
      <trkpt lat="40.140167" lon="-5.038867">
        <ele>1974.0</ele>
        <time>2013-07-06T15:28:52Z</time>
      </trkpt>
      <trkpt lat="40.140250" lon="-5.038867">
        <ele>1973.0</ele>
        <time>2013-07-06T15:28:53Z</time>
      </trkpt>
      <trkpt lat="40.140333" lon="-5.038867">
        <ele>1972.0</ele>
        <time>2013-07-06T15:28:54Z</time>
      </trkpt>
      <trkpt lat="40.140417" lon="-5.038867">
        <ele>1970.0</ele>
        <time>2013-07-06T15:28:55Z</time>
      </trkpt>
      <trkpt lat="40.140483" lon="-5.038883">
        <ele>1969.0</ele>
        <time>2013-07-06T15:28:56Z</time>
      </trkpt>
      <trkpt lat="40.140567" lon="-5.038883">
        <ele>1968.0</ele>
        <time>2013-07-06T15:28:57Z</time>
      </trkpt>
      <trkpt lat="40.140633" lon="-5.038883">
        <ele>1967.0</ele>
        <time>2013-07-06T15:28:58Z</time>
      </trkpt>
      <trkpt lat="40.140717" lon="-5.038900">
        <ele>1966.0</ele>
        <time>2013-07-06T15:28:59Z</time>
      </trkpt>
      <trkpt lat="40.140800" lon="-5.038900">
        <ele>1964.0</ele>
        <time>2013-07-06T15:29:00Z</time>
      </trkpt>
      <trkpt lat="40.140883" lon="-5.038900">
        <ele>1963.0</ele>
        <time>2013-07-06T15:29:01Z</time>
      </trkpt>
      <trkpt lat="40.140967" lon="-5.038900">
        <ele>1961.0</ele>
        <time>2013-07-06T15:29:02Z</time>
      </trkpt>
      <trkpt lat="40.141050" lon="-5.038917">
        <ele>1960.0</ele>
        <time>2013-07-06T15:29:03Z</time>
      </trkpt>
      <trkpt lat="40.141133" lon="-5.038933">
        <ele>1958.0</ele>
        <time>2013-07-06T15:29:04Z</time>
      </trkpt>
      <trkpt lat="40.141200" lon="-5.038933">
        <ele>1956.0</ele>
        <time>2013-07-06T15:29:05Z</time>
      </trkpt>
      <trkpt lat="40.141300" lon="-5.038933">
        <ele>1955.0</ele>
        <time>2013-07-06T15:29:06Z</time>
      </trkpt>
      <trkpt lat="40.141383" lon="-5.038933">
        <ele>1953.0</ele>
        <time>2013-07-06T15:29:07Z</time>
      </trkpt>
      <trkpt lat="40.141467" lon="-5.038950">
        <ele>1951.0</ele>
        <time>2013-07-06T15:29:08Z</time>
      </trkpt>
      <trkpt lat="40.141550" lon="-5.038950">
        <ele>1950.0</ele>
        <time>2013-07-06T15:29:09Z</time>
      </trkpt>
      <trkpt lat="40.141633" lon="-5.038967">
        <ele>1948.0</ele>
        <time>2013-07-06T15:29:10Z</time>
      </trkpt>
      <trkpt lat="40.141717" lon="-5.038967">
        <ele>1947.0</ele>
        <time>2013-07-06T15:29:11Z</time>
      </trkpt>
      <trkpt lat="40.141800" lon="-5.038967">
        <ele>1945.0</ele>
        <time>2013-07-06T15:29:12Z</time>
      </trkpt>
      <trkpt lat="40.141883" lon="-5.038983">
        <ele>1943.0</ele>
        <time>2013-07-06T15:29:13Z</time>
      </trkpt>
      <trkpt lat="40.141950" lon="-5.038983">
        <ele>1940.0</ele>
        <time>2013-07-06T15:29:14Z</time>
      </trkpt>
      <trkpt lat="40.142050" lon="-5.038983">
        <ele>1938.0</ele>
        <time>2013-07-06T15:29:15Z</time>
      </trkpt>
      <trkpt lat="40.142133" lon="-5.038983">
        <ele>1936.0</ele>
        <time>2013-07-06T15:29:16Z</time>
      </trkpt>
      <trkpt lat="40.142200" lon="-5.039000">
        <ele>1934.0</ele>
        <time>2013-07-06T15:29:17Z</time>
      </trkpt>
      <trkpt lat="40.142283" lon="-5.039000">
        <ele>1934.0</ele>
        <time>2013-07-06T15:29:18Z</time>
      </trkpt>
      <trkpt lat="40.142350" lon="-5.039000">
        <ele>1933.0</ele>
        <time>2013-07-06T15:29:19Z</time>
      </trkpt>
      <trkpt lat="40.142433" lon="-5.039000">
        <ele>1932.0</ele>
        <time>2013-07-06T15:29:20Z</time>
      </trkpt>
      <trkpt lat="40.142517" lon="-5.039000">
        <ele>1930.0</ele>
        <time>2013-07-06T15:29:21Z</time>
      </trkpt>
      <trkpt lat="40.142617" lon="-5.039017">
        <ele>1929.0</ele>
        <time>2013-07-06T15:29:22Z</time>
      </trkpt>
      <trkpt lat="40.142700" lon="-5.039017">
        <ele>1927.0</ele>
        <time>2013-07-06T15:29:23Z</time>
      </trkpt>
      <trkpt lat="40.142783" lon="-5.039017">
        <ele>1926.0</ele>
        <time>2013-07-06T15:29:24Z</time>
      </trkpt>
      <trkpt lat="40.142867" lon="-5.039017">
        <ele>1925.0</ele>
        <time>2013-07-06T15:29:25Z</time>
      </trkpt>
      <trkpt lat="40.142967" lon="-5.039033">
        <ele>1923.0</ele>
        <time>2013-07-06T15:29:26Z</time>
      </trkpt>
      <trkpt lat="40.143050" lon="-5.039017">
        <ele>1922.0</ele>
        <time>2013-07-06T15:29:27Z</time>
      </trkpt>
      <trkpt lat="40.143117" lon="-5.039017">
        <ele>1922.0</ele>
        <time>2013-07-06T15:29:28Z</time>
      </trkpt>
      <trkpt lat="40.143183" lon="-5.039000">
        <ele>1923.0</ele>
        <time>2013-07-06T15:29:29Z</time>
      </trkpt>
      <trkpt lat="40.143250" lon="-5.039000">
        <ele>1923.0</ele>
        <time>2013-07-06T15:29:30Z</time>
      </trkpt>
      <trkpt lat="40.143417" lon="-5.039000">
        <ele>1922.0</ele>
        <time>2013-07-06T15:29:32Z</time>
      </trkpt>
      <trkpt lat="40.143500" lon="-5.039000">
        <ele>1922.0</ele>
        <time>2013-07-06T15:29:33Z</time>
      </trkpt>
      <trkpt lat="40.143583" lon="-5.039000">
        <ele>1922.0</ele>
        <time>2013-07-06T15:29:34Z</time>
      </trkpt>
      <trkpt lat="40.143667" lon="-5.038983">
        <ele>1922.0</ele>
        <time>2013-07-06T15:29:35Z</time>
      </trkpt>
      <trkpt lat="40.143733" lon="-5.038983">
        <ele>1922.0</ele>
        <time>2013-07-06T15:29:36Z</time>
      </trkpt>
      <trkpt lat="40.143817" lon="-5.038967">
        <ele>1922.0</ele>
        <time>2013-07-06T15:29:37Z</time>
      </trkpt>
      <trkpt lat="40.143900" lon="-5.038967">
        <ele>1922.0</ele>
        <time>2013-07-06T15:29:38Z</time>
      </trkpt>
      <trkpt lat="40.144050" lon="-5.038950">
        <ele>1924.0</ele>
        <time>2013-07-06T15:29:40Z</time>
      </trkpt>
      <trkpt lat="40.144117" lon="-5.038950">
        <ele>1924.0</ele>
        <time>2013-07-06T15:29:41Z</time>
      </trkpt>
      <trkpt lat="40.144183" lon="-5.038950">
        <ele>1924.0</ele>
        <time>2013-07-06T15:29:42Z</time>
      </trkpt>
      <trkpt lat="40.144250" lon="-5.038933">
        <ele>1924.0</ele>
        <time>2013-07-06T15:29:43Z</time>
      </trkpt>
      <trkpt lat="40.144333" lon="-5.038933">
        <ele>1923.0</ele>
        <time>2013-07-06T15:29:44Z</time>
      </trkpt>
      <trkpt lat="40.144433" lon="-5.038917">
        <ele>1923.0</ele>
        <time>2013-07-06T15:29:45Z</time>
      </trkpt>
      <trkpt lat="40.144517" lon="-5.038917">
        <ele>1923.0</ele>
        <time>2013-07-06T15:29:46Z</time>
      </trkpt>
      <trkpt lat="40.144600" lon="-5.038917">
        <ele>1925.0</ele>
        <time>2013-07-06T15:29:47Z</time>
      </trkpt>
      <trkpt lat="40.144667" lon="-5.038917">
        <ele>1926.0</ele>
        <time>2013-07-06T15:29:48Z</time>
      </trkpt>
      <trkpt lat="40.144733" lon="-5.038917">
        <ele>1928.0</ele>
        <time>2013-07-06T15:29:49Z</time>
      </trkpt>
      <trkpt lat="40.144800" lon="-5.038933">
        <ele>1928.0</ele>
        <time>2013-07-06T15:29:50Z</time>
      </trkpt>
      <trkpt lat="40.144883" lon="-5.038933">
        <ele>1928.0</ele>
        <time>2013-07-06T15:29:51Z</time>
      </trkpt>
      <trkpt lat="40.144967" lon="-5.038933">
        <ele>1928.0</ele>
        <time>2013-07-06T15:29:52Z</time>
      </trkpt>
      <trkpt lat="40.145050" lon="-5.038933">
        <ele>1929.0</ele>
        <time>2013-07-06T15:29:53Z</time>
      </trkpt>
      <trkpt lat="40.145117" lon="-5.038933">
        <ele>1929.0</ele>
        <time>2013-07-06T15:29:54Z</time>
      </trkpt>
      <trkpt lat="40.145183" lon="-5.038917">
        <ele>1930.0</ele>
        <time>2013-07-06T15:29:55Z</time>
      </trkpt>
      <trkpt lat="40.145250" lon="-5.038917">
        <ele>1930.0</ele>
        <time>2013-07-06T15:29:56Z</time>
      </trkpt>
      <trkpt lat="40.145333" lon="-5.038917">
        <ele>1929.0</ele>
        <time>2013-07-06T15:29:57Z</time>
      </trkpt>
      <trkpt lat="40.145433" lon="-5.038900">
        <ele>1928.0</ele>
        <time>2013-07-06T15:29:58Z</time>
      </trkpt>
      <trkpt lat="40.145517" lon="-5.038883">
        <ele>1928.0</ele>
        <time>2013-07-06T15:29:59Z</time>
      </trkpt>
      <trkpt lat="40.145600" lon="-5.038850">
        <ele>1927.0</ele>
        <time>2013-07-06T15:30:00Z</time>
      </trkpt>
      <trkpt lat="40.145683" lon="-5.038817">
        <ele>1926.0</ele>
        <time>2013-07-06T15:30:01Z</time>
      </trkpt>
      <trkpt lat="40.145750" lon="-5.038783">
        <ele>1924.0</ele>
        <time>2013-07-06T15:30:02Z</time>
      </trkpt>
      <trkpt lat="40.145833" lon="-5.038750">
        <ele>1923.0</ele>
        <time>2013-07-06T15:30:03Z</time>
      </trkpt>
      <trkpt lat="40.145917" lon="-5.038717">
        <ele>1921.0</ele>
        <time>2013-07-06T15:30:04Z</time>
      </trkpt>
      <trkpt lat="40.146000" lon="-5.038683">
        <ele>1920.0</ele>
        <time>2013-07-06T15:30:05Z</time>
      </trkpt>
      <trkpt lat="40.146150" lon="-5.038633">
        <ele>1919.0</ele>
        <time>2013-07-06T15:30:07Z</time>
      </trkpt>
      <trkpt lat="40.146200" lon="-5.038617">
        <ele>1917.0</ele>
        <time>2013-07-06T15:30:08Z</time>
      </trkpt>
      <trkpt lat="40.146267" lon="-5.038600">
        <ele>1915.0</ele>
        <time>2013-07-06T15:30:09Z</time>
      </trkpt>
      <trkpt lat="40.146350" lon="-5.038567">
        <ele>1912.0</ele>
        <time>2013-07-06T15:30:10Z</time>
      </trkpt>
      <trkpt lat="40.146433" lon="-5.038533">
        <ele>1909.0</ele>
        <time>2013-07-06T15:30:11Z</time>
      </trkpt>
      <trkpt lat="40.146517" lon="-5.038517">
        <ele>1907.0</ele>
        <time>2013-07-06T15:30:12Z</time>
      </trkpt>
      <trkpt lat="40.146583" lon="-5.038500">
        <ele>1906.0</ele>
        <time>2013-07-06T15:30:13Z</time>
      </trkpt>
      <trkpt lat="40.146717" lon="-5.038483">
        <ele>1902.0</ele>
        <time>2013-07-06T15:30:15Z</time>
      </trkpt>
      <trkpt lat="40.146800" lon="-5.038483">
        <ele>1900.0</ele>
        <time>2013-07-06T15:30:16Z</time>
      </trkpt>
      <trkpt lat="40.146967" lon="-5.038450">
        <ele>1894.0</ele>
        <time>2013-07-06T15:30:18Z</time>
      </trkpt>
      <trkpt lat="40.147050" lon="-5.038433">
        <ele>1892.0</ele>
        <time>2013-07-06T15:30:19Z</time>
      </trkpt>
      <trkpt lat="40.147133" lon="-5.038417">
        <ele>1891.0</ele>
        <time>2013-07-06T15:30:20Z</time>
      </trkpt>
      <trkpt lat="40.147200" lon="-5.038383">
        <ele>1889.0</ele>
        <time>2013-07-06T15:30:21Z</time>
      </trkpt>
      <trkpt lat="40.147350" lon="-5.038367">
        <ele>1883.0</ele>
        <time>2013-07-06T15:30:23Z</time>
      </trkpt>
      <trkpt lat="40.147433" lon="-5.038333">
        <ele>1880.0</ele>
        <time>2013-07-06T15:30:24Z</time>
      </trkpt>
      <trkpt lat="40.147517" lon="-5.038317">
        <ele>1878.0</ele>
        <time>2013-07-06T15:30:25Z</time>
      </trkpt>
      <trkpt lat="40.147600" lon="-5.038317">
        <ele>1875.0</ele>
        <time>2013-07-06T15:30:26Z</time>
      </trkpt>
      <trkpt lat="40.147683" lon="-5.038300">
        <ele>1872.0</ele>
        <time>2013-07-06T15:30:27Z</time>
      </trkpt>
      <trkpt lat="40.147767" lon="-5.038283">
        <ele>1869.0</ele>
        <time>2013-07-06T15:30:28Z</time>
      </trkpt>
      <trkpt lat="40.147850" lon="-5.038283">
        <ele>1866.0</ele>
        <time>2013-07-06T15:30:29Z</time>
      </trkpt>
      <trkpt lat="40.148033" lon="-5.038267">
        <ele>1862.0</ele>
        <time>2013-07-06T15:30:31Z</time>
      </trkpt>
      <trkpt lat="40.148117" lon="-5.038267">
        <ele>1860.0</ele>
        <time>2013-07-06T15:30:32Z</time>
      </trkpt>
      <trkpt lat="40.148200" lon="-5.038267">
        <ele>1858.0</ele>
        <time>2013-07-06T15:30:33Z</time>
      </trkpt>
      <trkpt lat="40.148283" lon="-5.038267">
        <ele>1855.0</ele>
        <time>2013-07-06T15:30:34Z</time>
      </trkpt>
      <trkpt lat="40.148367" lon="-5.038267">
        <ele>1853.0</ele>
        <time>2013-07-06T15:30:35Z</time>
      </trkpt>
      <trkpt lat="40.148450" lon="-5.038267">
        <ele>1851.0</ele>
        <time>2013-07-06T15:30:36Z</time>
      </trkpt>
      <trkpt lat="40.148533" lon="-5.038267">
        <ele>1849.0</ele>
        <time>2013-07-06T15:30:37Z</time>
      </trkpt>
      <trkpt lat="40.148617" lon="-5.038267">
        <ele>1846.0</ele>
        <time>2013-07-06T15:30:38Z</time>
      </trkpt>
      <trkpt lat="40.148800" lon="-5.038250">
        <ele>1842.0</ele>
        <time>2013-07-06T15:30:40Z</time>
      </trkpt>
      <trkpt lat="40.148983" lon="-5.038250">
        <ele>1838.0</ele>
        <time>2013-07-06T15:30:42Z</time>
      </trkpt>
      <trkpt lat="40.149067" lon="-5.038250">
        <ele>1837.0</ele>
        <time>2013-07-06T15:30:43Z</time>
      </trkpt>
      <trkpt lat="40.149133" lon="-5.038250">
        <ele>1834.0</ele>
        <time>2013-07-06T15:30:44Z</time>
      </trkpt>
      <trkpt lat="40.149233" lon="-5.038250">
        <ele>1832.0</ele>
        <time>2013-07-06T15:30:45Z</time>
      </trkpt>
      <trkpt lat="40.149333" lon="-5.038233">
        <ele>1828.0</ele>
        <time>2013-07-06T15:30:46Z</time>
      </trkpt>
      <trkpt lat="40.149433" lon="-5.038217">
        <ele>1826.0</ele>
        <time>2013-07-06T15:30:47Z</time>
      </trkpt>
      <trkpt lat="40.149517" lon="-5.038217">
        <ele>1824.0</ele>
        <time>2013-07-06T15:30:48Z</time>
      </trkpt>
      <trkpt lat="40.149583" lon="-5.038200">
        <ele>1822.0</ele>
        <time>2013-07-06T15:30:49Z</time>
      </trkpt>
      <trkpt lat="40.149667" lon="-5.038217">
        <ele>1820.0</ele>
        <time>2013-07-06T15:30:50Z</time>
      </trkpt>
      <trkpt lat="40.149750" lon="-5.038217">
        <ele>1817.0</ele>
        <time>2013-07-06T15:30:51Z</time>
      </trkpt>
      <trkpt lat="40.149850" lon="-5.038233">
        <ele>1814.0</ele>
        <time>2013-07-06T15:30:52Z</time>
      </trkpt>
      <trkpt lat="40.149950" lon="-5.038250">
        <ele>1810.0</ele>
        <time>2013-07-06T15:30:53Z</time>
      </trkpt>
      <trkpt lat="40.150133" lon="-5.038250">
        <ele>1806.0</ele>
        <time>2013-07-06T15:30:55Z</time>
      </trkpt>
      <trkpt lat="40.150200" lon="-5.038267">
        <ele>1807.0</ele>
        <time>2013-07-06T15:30:56Z</time>
      </trkpt>
      <trkpt lat="40.150267" lon="-5.038283">
        <ele>1807.0</ele>
        <time>2013-07-06T15:30:57Z</time>
      </trkpt>
      <trkpt lat="40.150317" lon="-5.038300">
        <ele>1806.0</ele>
        <time>2013-07-06T15:30:58Z</time>
      </trkpt>
      <trkpt lat="40.150400" lon="-5.038317">
        <ele>1804.0</ele>
        <time>2013-07-06T15:30:59Z</time>
      </trkpt>
      <trkpt lat="40.150483" lon="-5.038333">
        <ele>1802.0</ele>
        <time>2013-07-06T15:31:00Z</time>
      </trkpt>
      <trkpt lat="40.150583" lon="-5.038350">
        <ele>1798.0</ele>
        <time>2013-07-06T15:31:01Z</time>
      </trkpt>
      <trkpt lat="40.150683" lon="-5.038367">
        <ele>1796.0</ele>
        <time>2013-07-06T15:31:02Z</time>
      </trkpt>
      <trkpt lat="40.150750" lon="-5.038400">
        <ele>1795.0</ele>
        <time>2013-07-06T15:31:03Z</time>
      </trkpt>
      <trkpt lat="40.150833" lon="-5.038417">
        <ele>1795.0</ele>
        <time>2013-07-06T15:31:04Z</time>
      </trkpt>
      <trkpt lat="40.150900" lon="-5.038433">
        <ele>1794.0</ele>
        <time>2013-07-06T15:31:05Z</time>
      </trkpt>
      <trkpt lat="40.150983" lon="-5.038433">
        <ele>1793.0</ele>
        <time>2013-07-06T15:31:06Z</time>
      </trkpt>
      <trkpt lat="40.151050" lon="-5.038417">
        <ele>1791.0</ele>
        <time>2013-07-06T15:31:07Z</time>
      </trkpt>
      <trkpt lat="40.151133" lon="-5.038400">
        <ele>1790.0</ele>
        <time>2013-07-06T15:31:08Z</time>
      </trkpt>
      <trkpt lat="40.151217" lon="-5.038383">
        <ele>1788.0</ele>
        <time>2013-07-06T15:31:09Z</time>
      </trkpt>
      <trkpt lat="40.151367" lon="-5.038367">
        <ele>1786.0</ele>
        <time>2013-07-06T15:31:11Z</time>
      </trkpt>
      <trkpt lat="40.151450" lon="-5.038367">
        <ele>1785.0</ele>
        <time>2013-07-06T15:31:12Z</time>
      </trkpt>
      <trkpt lat="40.151533" lon="-5.038383">
        <ele>1784.0</ele>
        <time>2013-07-06T15:31:13Z</time>
      </trkpt>
      <trkpt lat="40.151617" lon="-5.038400">
        <ele>1782.0</ele>
        <time>2013-07-06T15:31:14Z</time>
      </trkpt>
      <trkpt lat="40.151700" lon="-5.038417">
        <ele>1781.0</ele>
        <time>2013-07-06T15:31:15Z</time>
      </trkpt>
      <trkpt lat="40.151800" lon="-5.038417">
        <ele>1780.0</ele>
        <time>2013-07-06T15:31:16Z</time>
      </trkpt>
      <trkpt lat="40.151883" lon="-5.038433">
        <ele>1780.0</ele>
        <time>2013-07-06T15:31:17Z</time>
      </trkpt>
      <trkpt lat="40.151950" lon="-5.038467">
        <ele>1780.0</ele>
        <time>2013-07-06T15:31:18Z</time>
      </trkpt>
      <trkpt lat="40.152033" lon="-5.038500">
        <ele>1780.0</ele>
        <time>2013-07-06T15:31:19Z</time>
      </trkpt>
      <trkpt lat="40.152100" lon="-5.038533">
        <ele>1780.0</ele>
        <time>2013-07-06T15:31:20Z</time>
      </trkpt>
      <trkpt lat="40.152183" lon="-5.038567">
        <ele>1780.0</ele>
        <time>2013-07-06T15:31:21Z</time>
      </trkpt>
      <trkpt lat="40.152267" lon="-5.038600">
        <ele>1780.0</ele>
        <time>2013-07-06T15:31:22Z</time>
      </trkpt>
      <trkpt lat="40.152350" lon="-5.038633">
        <ele>1781.0</ele>
        <time>2013-07-06T15:31:23Z</time>
      </trkpt>
      <trkpt lat="40.152417" lon="-5.038667">
        <ele>1782.0</ele>
        <time>2013-07-06T15:31:24Z</time>
      </trkpt>
      <trkpt lat="40.152483" lon="-5.038700">
        <ele>1782.0</ele>
        <time>2013-07-06T15:31:25Z</time>
      </trkpt>
      <trkpt lat="40.152550" lon="-5.038733">
        <ele>1783.0</ele>
        <time>2013-07-06T15:31:26Z</time>
      </trkpt>
      <trkpt lat="40.152617" lon="-5.038767">
        <ele>1782.0</ele>
        <time>2013-07-06T15:31:27Z</time>
      </trkpt>
      <trkpt lat="40.152683" lon="-5.038783">
        <ele>1782.0</ele>
        <time>2013-07-06T15:31:28Z</time>
      </trkpt>
      <trkpt lat="40.152767" lon="-5.038800">
        <ele>1781.0</ele>
        <time>2013-07-06T15:31:29Z</time>
      </trkpt>
      <trkpt lat="40.152850" lon="-5.038800">
        <ele>1781.0</ele>
        <time>2013-07-06T15:31:30Z</time>
      </trkpt>
      <trkpt lat="40.152933" lon="-5.038817">
        <ele>1780.0</ele>
        <time>2013-07-06T15:31:31Z</time>
      </trkpt>
      <trkpt lat="40.153017" lon="-5.038817">
        <ele>1779.0</ele>
        <time>2013-07-06T15:31:32Z</time>
      </trkpt>
      <trkpt lat="40.153100" lon="-5.038833">
        <ele>1779.0</ele>
        <time>2013-07-06T15:31:33Z</time>
      </trkpt>
      <trkpt lat="40.153183" lon="-5.038850">
        <ele>1778.0</ele>
        <time>2013-07-06T15:31:34Z</time>
      </trkpt>
      <trkpt lat="40.153267" lon="-5.038867">
        <ele>1778.0</ele>
        <time>2013-07-06T15:31:35Z</time>
      </trkpt>
      <trkpt lat="40.153350" lon="-5.038883">
        <ele>1777.0</ele>
        <time>2013-07-06T15:31:36Z</time>
      </trkpt>
      <trkpt lat="40.153433" lon="-5.038917">
        <ele>1777.0</ele>
        <time>2013-07-06T15:31:37Z</time>
      </trkpt>
      <trkpt lat="40.153500" lon="-5.038933">
        <ele>1776.0</ele>
        <time>2013-07-06T15:31:38Z</time>
      </trkpt>
      <trkpt lat="40.153583" lon="-5.038967">
        <ele>1775.0</ele>
        <time>2013-07-06T15:31:39Z</time>
      </trkpt>
      <trkpt lat="40.153667" lon="-5.039000">
        <ele>1773.0</ele>
        <time>2013-07-06T15:31:40Z</time>
      </trkpt>
      <trkpt lat="40.153750" lon="-5.039033">
        <ele>1772.0</ele>
        <time>2013-07-06T15:31:41Z</time>
      </trkpt>
      <trkpt lat="40.153850" lon="-5.039067">
        <ele>1771.0</ele>
        <time>2013-07-06T15:31:42Z</time>
      </trkpt>
      <trkpt lat="40.153933" lon="-5.039100">
        <ele>1770.0</ele>
        <time>2013-07-06T15:31:43Z</time>
      </trkpt>
      <trkpt lat="40.154017" lon="-5.039133">
        <ele>1770.0</ele>
        <time>2013-07-06T15:31:44Z</time>
      </trkpt>
      <trkpt lat="40.154100" lon="-5.039183">
        <ele>1769.0</ele>
        <time>2013-07-06T15:31:45Z</time>
      </trkpt>
      <trkpt lat="40.154183" lon="-5.039217">
        <ele>1768.0</ele>
        <time>2013-07-06T15:31:46Z</time>
      </trkpt>
      <trkpt lat="40.154267" lon="-5.039250">
        <ele>1766.0</ele>
        <time>2013-07-06T15:31:47Z</time>
      </trkpt>
      <trkpt lat="40.154350" lon="-5.039283">
        <ele>1764.0</ele>
        <time>2013-07-06T15:31:48Z</time>
      </trkpt>
      <trkpt lat="40.154450" lon="-5.039317">
        <ele>1763.0</ele>
        <time>2013-07-06T15:31:49Z</time>
      </trkpt>
      <trkpt lat="40.154533" lon="-5.039350">
        <ele>1762.0</ele>
        <time>2013-07-06T15:31:50Z</time>
      </trkpt>
      <trkpt lat="40.154617" lon="-5.039383">
        <ele>1761.0</ele>
        <time>2013-07-06T15:31:51Z</time>
      </trkpt>
      <trkpt lat="40.154700" lon="-5.039433">
        <ele>1760.0</ele>
        <time>2013-07-06T15:31:52Z</time>
      </trkpt>
      <trkpt lat="40.154783" lon="-5.039467">
        <ele>1759.0</ele>
        <time>2013-07-06T15:31:53Z</time>
      </trkpt>
      <trkpt lat="40.154867" lon="-5.039500">
        <ele>1759.0</ele>
        <time>2013-07-06T15:31:54Z</time>
      </trkpt>
      <trkpt lat="40.154950" lon="-5.039517">
        <ele>1759.0</ele>
        <time>2013-07-06T15:31:55Z</time>
      </trkpt>
      <trkpt lat="40.155017" lon="-5.039550">
        <ele>1760.0</ele>
        <time>2013-07-06T15:31:56Z</time>
      </trkpt>
      <trkpt lat="40.155083" lon="-5.039583">
        <ele>1762.0</ele>
        <time>2013-07-06T15:31:57Z</time>
      </trkpt>
      <trkpt lat="40.155150" lon="-5.039617">
        <ele>1763.0</ele>
        <time>2013-07-06T15:31:58Z</time>
      </trkpt>
      <trkpt lat="40.155217" lon="-5.039650">
        <ele>1762.0</ele>
        <time>2013-07-06T15:31:59Z</time>
      </trkpt>
      <trkpt lat="40.155283" lon="-5.039700">
        <ele>1761.0</ele>
        <time>2013-07-06T15:32:00Z</time>
      </trkpt>
      <trkpt lat="40.155367" lon="-5.039750">
        <ele>1760.0</ele>
        <time>2013-07-06T15:32:01Z</time>
      </trkpt>
      <trkpt lat="40.155450" lon="-5.039783">
        <ele>1759.0</ele>
        <time>2013-07-06T15:32:02Z</time>
      </trkpt>
      <trkpt lat="40.155517" lon="-5.039817">
        <ele>1759.0</ele>
        <time>2013-07-06T15:32:03Z</time>
      </trkpt>
      <trkpt lat="40.155583" lon="-5.039850">
        <ele>1758.0</ele>
        <time>2013-07-06T15:32:04Z</time>
      </trkpt>
      <trkpt lat="40.155667" lon="-5.039883">
        <ele>1757.0</ele>
        <time>2013-07-06T15:32:05Z</time>
      </trkpt>
      <trkpt lat="40.155750" lon="-5.039917">
        <ele>1756.0</ele>
        <time>2013-07-06T15:32:06Z</time>
      </trkpt>
      <trkpt lat="40.155833" lon="-5.039933">
        <ele>1755.0</ele>
        <time>2013-07-06T15:32:07Z</time>
      </trkpt>
      <trkpt lat="40.155917" lon="-5.039967">
        <ele>1754.0</ele>
        <time>2013-07-06T15:32:08Z</time>
      </trkpt>
      <trkpt lat="40.156000" lon="-5.039983">
        <ele>1753.0</ele>
        <time>2013-07-06T15:32:09Z</time>
      </trkpt>
      <trkpt lat="40.156083" lon="-5.040000">
        <ele>1752.0</ele>
        <time>2013-07-06T15:32:10Z</time>
      </trkpt>
      <trkpt lat="40.156167" lon="-5.040017">
        <ele>1751.0</ele>
        <time>2013-07-06T15:32:11Z</time>
      </trkpt>
      <trkpt lat="40.156250" lon="-5.040017">
        <ele>1749.0</ele>
        <time>2013-07-06T15:32:12Z</time>
      </trkpt>
      <trkpt lat="40.156350" lon="-5.040033">
        <ele>1747.0</ele>
        <time>2013-07-06T15:32:13Z</time>
      </trkpt>
      <trkpt lat="40.156433" lon="-5.040050">
        <ele>1745.0</ele>
        <time>2013-07-06T15:32:14Z</time>
      </trkpt>
      <trkpt lat="40.156533" lon="-5.040050">
        <ele>1743.0</ele>
        <time>2013-07-06T15:32:15Z</time>
      </trkpt>
      <trkpt lat="40.156617" lon="-5.040050">
        <ele>1742.0</ele>
        <time>2013-07-06T15:32:16Z</time>
      </trkpt>
      <trkpt lat="40.156717" lon="-5.040033">
        <ele>1740.0</ele>
        <time>2013-07-06T15:32:17Z</time>
      </trkpt>
      <trkpt lat="40.156817" lon="-5.040033">
        <ele>1738.0</ele>
        <time>2013-07-06T15:32:18Z</time>
      </trkpt>
      <trkpt lat="40.156900" lon="-5.040033">
        <ele>1736.0</ele>
        <time>2013-07-06T15:32:19Z</time>
      </trkpt>
      <trkpt lat="40.156983" lon="-5.040033">
        <ele>1734.0</ele>
        <time>2013-07-06T15:32:20Z</time>
      </trkpt>
      <trkpt lat="40.157067" lon="-5.040050">
        <ele>1732.0</ele>
        <time>2013-07-06T15:32:21Z</time>
      </trkpt>
      <trkpt lat="40.157150" lon="-5.040050">
        <ele>1730.0</ele>
        <time>2013-07-06T15:32:22Z</time>
      </trkpt>
      <trkpt lat="40.157250" lon="-5.040050">
        <ele>1728.0</ele>
        <time>2013-07-06T15:32:23Z</time>
      </trkpt>
      <trkpt lat="40.157350" lon="-5.040050">
        <ele>1725.0</ele>
        <time>2013-07-06T15:32:24Z</time>
      </trkpt>
      <trkpt lat="40.157450" lon="-5.040050">
        <ele>1722.0</ele>
        <time>2013-07-06T15:32:25Z</time>
      </trkpt>
      <trkpt lat="40.157550" lon="-5.040067">
        <ele>1720.0</ele>
        <time>2013-07-06T15:32:26Z</time>
      </trkpt>
      <trkpt lat="40.157633" lon="-5.040067">
        <ele>1718.0</ele>
        <time>2013-07-06T15:32:27Z</time>
      </trkpt>
      <trkpt lat="40.157717" lon="-5.040083">
        <ele>1717.0</ele>
        <time>2013-07-06T15:32:28Z</time>
      </trkpt>
      <trkpt lat="40.157800" lon="-5.040083">
        <ele>1715.0</ele>
        <time>2013-07-06T15:32:29Z</time>
      </trkpt>
      <trkpt lat="40.157900" lon="-5.040100">
        <ele>1713.0</ele>
        <time>2013-07-06T15:32:30Z</time>
      </trkpt>
      <trkpt lat="40.157983" lon="-5.040100">
        <ele>1711.0</ele>
        <time>2013-07-06T15:32:31Z</time>
      </trkpt>
      <trkpt lat="40.158083" lon="-5.040117">
        <ele>1708.0</ele>
        <time>2013-07-06T15:32:32Z</time>
      </trkpt>
      <trkpt lat="40.158183" lon="-5.040133">
        <ele>1706.0</ele>
        <time>2013-07-06T15:32:33Z</time>
      </trkpt>
      <trkpt lat="40.158283" lon="-5.040150">
        <ele>1705.0</ele>
        <time>2013-07-06T15:32:34Z</time>
      </trkpt>
      <trkpt lat="40.158367" lon="-5.040167">
        <ele>1704.0</ele>
        <time>2013-07-06T15:32:35Z</time>
      </trkpt>
      <trkpt lat="40.158433" lon="-5.040200">
        <ele>1703.0</ele>
        <time>2013-07-06T15:32:36Z</time>
      </trkpt>
      <trkpt lat="40.158517" lon="-5.040233">
        <ele>1701.0</ele>
        <time>2013-07-06T15:32:37Z</time>
      </trkpt>
      <trkpt lat="40.158600" lon="-5.040250">
        <ele>1699.0</ele>
        <time>2013-07-06T15:32:38Z</time>
      </trkpt>
      <trkpt lat="40.158700" lon="-5.040267">
        <ele>1696.0</ele>
        <time>2013-07-06T15:32:39Z</time>
      </trkpt>
      <trkpt lat="40.158783" lon="-5.040300">
        <ele>1695.0</ele>
        <time>2013-07-06T15:32:40Z</time>
      </trkpt>
      <trkpt lat="40.158850" lon="-5.040350">
        <ele>1694.0</ele>
        <time>2013-07-06T15:32:41Z</time>
      </trkpt>
      <trkpt lat="40.158933" lon="-5.040383">
        <ele>1693.0</ele>
        <time>2013-07-06T15:32:42Z</time>
      </trkpt>
      <trkpt lat="40.159100" lon="-5.040450">
        <ele>1690.0</ele>
        <time>2013-07-06T15:32:44Z</time>
      </trkpt>
      <trkpt lat="40.159200" lon="-5.040483">
        <ele>1688.0</ele>
        <time>2013-07-06T15:32:45Z</time>
      </trkpt>
      <trkpt lat="40.159300" lon="-5.040533">
        <ele>1686.0</ele>
        <time>2013-07-06T15:32:46Z</time>
      </trkpt>
      <trkpt lat="40.159400" lon="-5.040567">
        <ele>1684.0</ele>
        <time>2013-07-06T15:32:47Z</time>
      </trkpt>
      <trkpt lat="40.159500" lon="-5.040600">
        <ele>1683.0</ele>
        <time>2013-07-06T15:32:48Z</time>
      </trkpt>
      <trkpt lat="40.159583" lon="-5.040617">
        <ele>1681.0</ele>
        <time>2013-07-06T15:32:49Z</time>
      </trkpt>
      <trkpt lat="40.159667" lon="-5.040650">
        <ele>1679.0</ele>
        <time>2013-07-06T15:32:50Z</time>
      </trkpt>
      <trkpt lat="40.159750" lon="-5.040683">
        <ele>1677.0</ele>
        <time>2013-07-06T15:32:51Z</time>
      </trkpt>
      <trkpt lat="40.159850" lon="-5.040717">
        <ele>1673.0</ele>
        <time>2013-07-06T15:32:52Z</time>
      </trkpt>
      <trkpt lat="40.159950" lon="-5.040750">
        <ele>1670.0</ele>
        <time>2013-07-06T15:32:53Z</time>
      </trkpt>
      <trkpt lat="40.160050" lon="-5.040783">
        <ele>1667.0</ele>
        <time>2013-07-06T15:32:54Z</time>
      </trkpt>
      <trkpt lat="40.160133" lon="-5.040800">
        <ele>1666.0</ele>
        <time>2013-07-06T15:32:55Z</time>
      </trkpt>
      <trkpt lat="40.160217" lon="-5.040833">
        <ele>1664.0</ele>
        <time>2013-07-06T15:32:56Z</time>
      </trkpt>
      <trkpt lat="40.160300" lon="-5.040867">
        <ele>1661.0</ele>
        <time>2013-07-06T15:32:57Z</time>
      </trkpt>
      <trkpt lat="40.160400" lon="-5.040900">
        <ele>1658.0</ele>
        <time>2013-07-06T15:32:58Z</time>
      </trkpt>
      <trkpt lat="40.160483" lon="-5.040933">
        <ele>1655.0</ele>
        <time>2013-07-06T15:32:59Z</time>
      </trkpt>
      <trkpt lat="40.160583" lon="-5.040967">
        <ele>1652.0</ele>
        <time>2013-07-06T15:33:00Z</time>
      </trkpt>
      <trkpt lat="40.160667" lon="-5.041000">
        <ele>1650.0</ele>
        <time>2013-07-06T15:33:01Z</time>
      </trkpt>
      <trkpt lat="40.160750" lon="-5.041050">
        <ele>1647.0</ele>
        <time>2013-07-06T15:33:02Z</time>
      </trkpt>
      <trkpt lat="40.160850" lon="-5.041083">
        <ele>1645.0</ele>
        <time>2013-07-06T15:33:03Z</time>
      </trkpt>
      <trkpt lat="40.160933" lon="-5.041117">
        <ele>1642.0</ele>
        <time>2013-07-06T15:33:04Z</time>
      </trkpt>
      <trkpt lat="40.161033" lon="-5.041167">
        <ele>1639.0</ele>
        <time>2013-07-06T15:33:05Z</time>
      </trkpt>
      <trkpt lat="40.161133" lon="-5.041200">
        <ele>1637.0</ele>
        <time>2013-07-06T15:33:06Z</time>
      </trkpt>
      <trkpt lat="40.161217" lon="-5.041233">
        <ele>1634.0</ele>
        <time>2013-07-06T15:33:07Z</time>
      </trkpt>
      <trkpt lat="40.161317" lon="-5.041267">
        <ele>1632.0</ele>
        <time>2013-07-06T15:33:08Z</time>
      </trkpt>
      <trkpt lat="40.161417" lon="-5.041317">
        <ele>1630.0</ele>
        <time>2013-07-06T15:33:09Z</time>
      </trkpt>
      <trkpt lat="40.161500" lon="-5.041367">
        <ele>1628.0</ele>
        <time>2013-07-06T15:33:10Z</time>
      </trkpt>
      <trkpt lat="40.161600" lon="-5.041400">
        <ele>1626.0</ele>
        <time>2013-07-06T15:33:11Z</time>
      </trkpt>
      <trkpt lat="40.161700" lon="-5.041450">
        <ele>1623.0</ele>
        <time>2013-07-06T15:33:12Z</time>
      </trkpt>
      <trkpt lat="40.161800" lon="-5.041483">
        <ele>1621.0</ele>
        <time>2013-07-06T15:33:13Z</time>
      </trkpt>
      <trkpt lat="40.161900" lon="-5.041533">
        <ele>1618.0</ele>
        <time>2013-07-06T15:33:14Z</time>
      </trkpt>
      <trkpt lat="40.161983" lon="-5.041567">
        <ele>1617.0</ele>
        <time>2013-07-06T15:33:15Z</time>
      </trkpt>
      <trkpt lat="40.162083" lon="-5.041600">
        <ele>1615.0</ele>
        <time>2013-07-06T15:33:16Z</time>
      </trkpt>
      <trkpt lat="40.162150" lon="-5.041633">
        <ele>1614.0</ele>
        <time>2013-07-06T15:33:17Z</time>
      </trkpt>
      <trkpt lat="40.162233" lon="-5.041683">
        <ele>1612.0</ele>
        <time>2013-07-06T15:33:18Z</time>
      </trkpt>
      <trkpt lat="40.162317" lon="-5.041717">
        <ele>1610.0</ele>
        <time>2013-07-06T15:33:19Z</time>
      </trkpt>
      <trkpt lat="40.162400" lon="-5.041767">
        <ele>1608.0</ele>
        <time>2013-07-06T15:33:20Z</time>
      </trkpt>
      <trkpt lat="40.162483" lon="-5.041817">
        <ele>1605.0</ele>
        <time>2013-07-06T15:33:21Z</time>
      </trkpt>
      <trkpt lat="40.162583" lon="-5.041850">
        <ele>1603.0</ele>
        <time>2013-07-06T15:33:22Z</time>
      </trkpt>
      <trkpt lat="40.162683" lon="-5.041867">
        <ele>1601.0</ele>
        <time>2013-07-06T15:33:23Z</time>
      </trkpt>
      <trkpt lat="40.162783" lon="-5.041883">
        <ele>1599.0</ele>
        <time>2013-07-06T15:33:24Z</time>
      </trkpt>
      <trkpt lat="40.162867" lon="-5.041917">
        <ele>1599.0</ele>
        <time>2013-07-06T15:33:25Z</time>
      </trkpt>
      <trkpt lat="40.162933" lon="-5.041933">
        <ele>1601.0</ele>
        <time>2013-07-06T15:33:26Z</time>
      </trkpt>
      <trkpt lat="40.162983" lon="-5.041967">
        <ele>1601.0</ele>
        <time>2013-07-06T15:33:27Z</time>
      </trkpt>
      <trkpt lat="40.163067" lon="-5.042000">
        <ele>1600.0</ele>
        <time>2013-07-06T15:33:28Z</time>
      </trkpt>
      <trkpt lat="40.163150" lon="-5.042033">
        <ele>1599.0</ele>
        <time>2013-07-06T15:33:29Z</time>
      </trkpt>
      <trkpt lat="40.163233" lon="-5.042067">
        <ele>1597.0</ele>
        <time>2013-07-06T15:33:30Z</time>
      </trkpt>
      <trkpt lat="40.163317" lon="-5.042100">
        <ele>1596.0</ele>
        <time>2013-07-06T15:33:31Z</time>
      </trkpt>
      <trkpt lat="40.163400" lon="-5.042133">
        <ele>1595.0</ele>
        <time>2013-07-06T15:33:32Z</time>
      </trkpt>
      <trkpt lat="40.163467" lon="-5.042167">
        <ele>1593.0</ele>
        <time>2013-07-06T15:33:33Z</time>
      </trkpt>
      <trkpt lat="40.163533" lon="-5.042200">
        <ele>1591.0</ele>
        <time>2013-07-06T15:33:34Z</time>
      </trkpt>
      <trkpt lat="40.163617" lon="-5.042250">
        <ele>1588.0</ele>
        <time>2013-07-06T15:33:35Z</time>
      </trkpt>
      <trkpt lat="40.163717" lon="-5.042300">
        <ele>1585.0</ele>
        <time>2013-07-06T15:33:36Z</time>
      </trkpt>
      <trkpt lat="40.163900" lon="-5.042400">
        <ele>1580.0</ele>
        <time>2013-07-06T15:33:38Z</time>
      </trkpt>
      <trkpt lat="40.163983" lon="-5.042433">
        <ele>1579.0</ele>
        <time>2013-07-06T15:33:39Z</time>
      </trkpt>
      <trkpt lat="40.164050" lon="-5.042467">
        <ele>1577.0</ele>
        <time>2013-07-06T15:33:40Z</time>
      </trkpt>
      <trkpt lat="40.164133" lon="-5.042500">
        <ele>1575.0</ele>
        <time>2013-07-06T15:33:41Z</time>
      </trkpt>
      <trkpt lat="40.164200" lon="-5.042533">
        <ele>1573.0</ele>
        <time>2013-07-06T15:33:42Z</time>
      </trkpt>
      <trkpt lat="40.164283" lon="-5.042567">
        <ele>1570.0</ele>
        <time>2013-07-06T15:33:43Z</time>
      </trkpt>
      <trkpt lat="40.164383" lon="-5.042600">
        <ele>1567.0</ele>
        <time>2013-07-06T15:33:44Z</time>
      </trkpt>
      <trkpt lat="40.164467" lon="-5.042650">
        <ele>1565.0</ele>
        <time>2013-07-06T15:33:45Z</time>
      </trkpt>
      <trkpt lat="40.164617" lon="-5.042750">
        <ele>1561.0</ele>
        <time>2013-07-06T15:33:47Z</time>
      </trkpt>
      <trkpt lat="40.164767" lon="-5.042850">
        <ele>1557.0</ele>
        <time>2013-07-06T15:33:49Z</time>
      </trkpt>
      <trkpt lat="40.164833" lon="-5.042883">
        <ele>1555.0</ele>
        <time>2013-07-06T15:33:50Z</time>
      </trkpt>
      <trkpt lat="40.164917" lon="-5.042917">
        <ele>1552.0</ele>
        <time>2013-07-06T15:33:51Z</time>
      </trkpt>
      <trkpt lat="40.165000" lon="-5.042950">
        <ele>1550.0</ele>
        <time>2013-07-06T15:33:52Z</time>
      </trkpt>
      <trkpt lat="40.165083" lon="-5.042983">
        <ele>1548.0</ele>
        <time>2013-07-06T15:33:53Z</time>
      </trkpt>
      <trkpt lat="40.165150" lon="-5.043017">
        <ele>1546.0</ele>
        <time>2013-07-06T15:33:54Z</time>
      </trkpt>
      <trkpt lat="40.165217" lon="-5.043033">
        <ele>1544.0</ele>
        <time>2013-07-06T15:33:55Z</time>
      </trkpt>
      <trkpt lat="40.165300" lon="-5.043067">
        <ele>1542.0</ele>
        <time>2013-07-06T15:33:56Z</time>
      </trkpt>
      <trkpt lat="40.165383" lon="-5.043100">
        <ele>1539.0</ele>
        <time>2013-07-06T15:33:57Z</time>
      </trkpt>
      <trkpt lat="40.165467" lon="-5.043133">
        <ele>1535.0</ele>
        <time>2013-07-06T15:33:58Z</time>
      </trkpt>
      <trkpt lat="40.165567" lon="-5.043150">
        <ele>1532.0</ele>
        <time>2013-07-06T15:33:59Z</time>
      </trkpt>
      <trkpt lat="40.165650" lon="-5.043167">
        <ele>1530.0</ele>
        <time>2013-07-06T15:34:00Z</time>
      </trkpt>
      <trkpt lat="40.165717" lon="-5.043183">
        <ele>1528.0</ele>
        <time>2013-07-06T15:34:01Z</time>
      </trkpt>
      <trkpt lat="40.165783" lon="-5.043200">
        <ele>1525.0</ele>
        <time>2013-07-06T15:34:02Z</time>
      </trkpt>
      <trkpt lat="40.165850" lon="-5.043233">
        <ele>1523.0</ele>
        <time>2013-07-06T15:34:03Z</time>
      </trkpt>
      <trkpt lat="40.165933" lon="-5.043267">
        <ele>1520.0</ele>
        <time>2013-07-06T15:34:04Z</time>
      </trkpt>
      <trkpt lat="40.166017" lon="-5.043317">
        <ele>1516.0</ele>
        <time>2013-07-06T15:34:05Z</time>
      </trkpt>
      <trkpt lat="40.166117" lon="-5.043383">
        <ele>1513.0</ele>
        <time>2013-07-06T15:34:06Z</time>
      </trkpt>
      <trkpt lat="40.166217" lon="-5.043450">
        <ele>1510.0</ele>
        <time>2013-07-06T15:34:07Z</time>
      </trkpt>
      <trkpt lat="40.166300" lon="-5.043500">
        <ele>1510.0</ele>
        <time>2013-07-06T15:34:08Z</time>
      </trkpt>
      <trkpt lat="40.166400" lon="-5.043567">
        <ele>1510.0</ele>
        <time>2013-07-06T15:34:09Z</time>
      </trkpt>
      <trkpt lat="40.166483" lon="-5.043633">
        <ele>1511.0</ele>
        <time>2013-07-06T15:34:10Z</time>
      </trkpt>
      <trkpt lat="40.166567" lon="-5.043683">
        <ele>1511.0</ele>
        <time>2013-07-06T15:34:11Z</time>
      </trkpt>
      <trkpt lat="40.166717" lon="-5.043783">
        <ele>1511.0</ele>
        <time>2013-07-06T15:34:13Z</time>
      </trkpt>
      <trkpt lat="40.166800" lon="-5.043850">
        <ele>1510.0</ele>
        <time>2013-07-06T15:34:14Z</time>
      </trkpt>
      <trkpt lat="40.166967" lon="-5.043933">
        <ele>1507.0</ele>
        <time>2013-07-06T15:34:16Z</time>
      </trkpt>
      <trkpt lat="40.167050" lon="-5.043983">
        <ele>1506.0</ele>
        <time>2013-07-06T15:34:17Z</time>
      </trkpt>
      <trkpt lat="40.167117" lon="-5.044033">
        <ele>1505.0</ele>
        <time>2013-07-06T15:34:18Z</time>
      </trkpt>
      <trkpt lat="40.167200" lon="-5.044083">
        <ele>1504.0</ele>
        <time>2013-07-06T15:34:19Z</time>
      </trkpt>
      <trkpt lat="40.167283" lon="-5.044133">
        <ele>1502.0</ele>
        <time>2013-07-06T15:34:20Z</time>
      </trkpt>
      <trkpt lat="40.167367" lon="-5.044183">
        <ele>1500.0</ele>
        <time>2013-07-06T15:34:21Z</time>
      </trkpt>
      <trkpt lat="40.167550" lon="-5.044267">
        <ele>1497.0</ele>
        <time>2013-07-06T15:34:23Z</time>
      </trkpt>
      <trkpt lat="40.167717" lon="-5.044333">
        <ele>1494.0</ele>
        <time>2013-07-06T15:34:25Z</time>
      </trkpt>
      <trkpt lat="40.167800" lon="-5.044367">
        <ele>1493.0</ele>
        <time>2013-07-06T15:34:26Z</time>
      </trkpt>
      <trkpt lat="40.167883" lon="-5.044400">
        <ele>1490.0</ele>
        <time>2013-07-06T15:34:27Z</time>
      </trkpt>
      <trkpt lat="40.167983" lon="-5.044433">
        <ele>1488.0</ele>
        <time>2013-07-06T15:34:28Z</time>
      </trkpt>
      <trkpt lat="40.168083" lon="-5.044467">
        <ele>1487.0</ele>
        <time>2013-07-06T15:34:29Z</time>
      </trkpt>
      <trkpt lat="40.168167" lon="-5.044517">
        <ele>1486.0</ele>
        <time>2013-07-06T15:34:30Z</time>
      </trkpt>
      <trkpt lat="40.168250" lon="-5.044567">
        <ele>1485.0</ele>
        <time>2013-07-06T15:34:31Z</time>
      </trkpt>
      <trkpt lat="40.168350" lon="-5.044617">
        <ele>1483.0</ele>
        <time>2013-07-06T15:34:32Z</time>
      </trkpt>
      <trkpt lat="40.168433" lon="-5.044667">
        <ele>1482.0</ele>
        <time>2013-07-06T15:34:33Z</time>
      </trkpt>
      <trkpt lat="40.168533" lon="-5.044733">
        <ele>1480.0</ele>
        <time>2013-07-06T15:34:34Z</time>
      </trkpt>
      <trkpt lat="40.168633" lon="-5.044800">
        <ele>1479.0</ele>
        <time>2013-07-06T15:34:35Z</time>
      </trkpt>
      <trkpt lat="40.168717" lon="-5.044850">
        <ele>1478.0</ele>
        <time>2013-07-06T15:34:36Z</time>
      </trkpt>
      <trkpt lat="40.168800" lon="-5.044917">
        <ele>1478.0</ele>
        <time>2013-07-06T15:34:37Z</time>
      </trkpt>
      <trkpt lat="40.168883" lon="-5.044983">
        <ele>1477.0</ele>
        <time>2013-07-06T15:34:38Z</time>
      </trkpt>
      <trkpt lat="40.168983" lon="-5.045050">
        <ele>1475.0</ele>
        <time>2013-07-06T15:34:39Z</time>
      </trkpt>
      <trkpt lat="40.169067" lon="-5.045117">
        <ele>1474.0</ele>
        <time>2013-07-06T15:34:40Z</time>
      </trkpt>
      <trkpt lat="40.169150" lon="-5.045183">
        <ele>1471.0</ele>
        <time>2013-07-06T15:34:41Z</time>
      </trkpt>
      <trkpt lat="40.169250" lon="-5.045233">
        <ele>1470.0</ele>
        <time>2013-07-06T15:34:42Z</time>
      </trkpt>
      <trkpt lat="40.169350" lon="-5.045283">
        <ele>1468.0</ele>
        <time>2013-07-06T15:34:43Z</time>
      </trkpt>
      <trkpt lat="40.169433" lon="-5.045350">
        <ele>1467.0</ele>
        <time>2013-07-06T15:34:44Z</time>
      </trkpt>
      <trkpt lat="40.169617" lon="-5.045450">
        <ele>1463.0</ele>
        <time>2013-07-06T15:34:46Z</time>
      </trkpt>
      <trkpt lat="40.169700" lon="-5.045483">
        <ele>1461.0</ele>
        <time>2013-07-06T15:34:47Z</time>
      </trkpt>
      <trkpt lat="40.169883" lon="-5.045583">
        <ele>1457.0</ele>
        <time>2013-07-06T15:34:49Z</time>
      </trkpt>
      <trkpt lat="40.169967" lon="-5.045633">
        <ele>1454.0</ele>
        <time>2013-07-06T15:34:50Z</time>
      </trkpt>
      <trkpt lat="40.170067" lon="-5.045683">
        <ele>1452.0</ele>
        <time>2013-07-06T15:34:51Z</time>
      </trkpt>
      <trkpt lat="40.170167" lon="-5.045717">
        <ele>1449.0</ele>
        <time>2013-07-06T15:34:52Z</time>
      </trkpt>
      <trkpt lat="40.170267" lon="-5.045750">
        <ele>1447.0</ele>
        <time>2013-07-06T15:34:53Z</time>
      </trkpt>
      <trkpt lat="40.170350" lon="-5.045767">
        <ele>1446.0</ele>
        <time>2013-07-06T15:34:54Z</time>
      </trkpt>
      <trkpt lat="40.170450" lon="-5.045783">
        <ele>1444.0</ele>
        <time>2013-07-06T15:34:55Z</time>
      </trkpt>
      <trkpt lat="40.170533" lon="-5.045817">
        <ele>1443.0</ele>
        <time>2013-07-06T15:34:56Z</time>
      </trkpt>
      <trkpt lat="40.170617" lon="-5.045850">
        <ele>1441.0</ele>
        <time>2013-07-06T15:34:57Z</time>
      </trkpt>
      <trkpt lat="40.170700" lon="-5.045883">
        <ele>1440.0</ele>
        <time>2013-07-06T15:34:58Z</time>
      </trkpt>
      <trkpt lat="40.170800" lon="-5.045933">
        <ele>1438.0</ele>
        <time>2013-07-06T15:34:59Z</time>
      </trkpt>
      <trkpt lat="40.170883" lon="-5.045983">
        <ele>1436.0</ele>
        <time>2013-07-06T15:35:00Z</time>
      </trkpt>
      <trkpt lat="40.170967" lon="-5.046033">
        <ele>1434.0</ele>
        <time>2013-07-06T15:35:01Z</time>
      </trkpt>
      <trkpt lat="40.171067" lon="-5.046083">
        <ele>1431.0</ele>
        <time>2013-07-06T15:35:02Z</time>
      </trkpt>
      <trkpt lat="40.171167" lon="-5.046117">
        <ele>1430.0</ele>
        <time>2013-07-06T15:35:03Z</time>
      </trkpt>
      <trkpt lat="40.171250" lon="-5.046167">
        <ele>1428.0</ele>
        <time>2013-07-06T15:35:04Z</time>
      </trkpt>
      <trkpt lat="40.171417" lon="-5.046233">
        <ele>1425.0</ele>
        <time>2013-07-06T15:35:06Z</time>
      </trkpt>
      <trkpt lat="40.171500" lon="-5.046267">
        <ele>1422.0</ele>
        <time>2013-07-06T15:35:07Z</time>
      </trkpt>
      <trkpt lat="40.171600" lon="-5.046300">
        <ele>1420.0</ele>
        <time>2013-07-06T15:35:08Z</time>
      </trkpt>
      <trkpt lat="40.171683" lon="-5.046333">
        <ele>1418.0</ele>
        <time>2013-07-06T15:35:09Z</time>
      </trkpt>
      <trkpt lat="40.171867" lon="-5.046400">
        <ele>1413.0</ele>
        <time>2013-07-06T15:35:11Z</time>
      </trkpt>
      <trkpt lat="40.171950" lon="-5.046433">
        <ele>1411.0</ele>
        <time>2013-07-06T15:35:12Z</time>
      </trkpt>
      <trkpt lat="40.172050" lon="-5.046450">
        <ele>1408.0</ele>
        <time>2013-07-06T15:35:13Z</time>
      </trkpt>
      <trkpt lat="40.172150" lon="-5.046467">
        <ele>1405.0</ele>
        <time>2013-07-06T15:35:14Z</time>
      </trkpt>
      <trkpt lat="40.172250" lon="-5.046500">
        <ele>1402.0</ele>
        <time>2013-07-06T15:35:15Z</time>
      </trkpt>
      <trkpt lat="40.172333" lon="-5.046517">
        <ele>1399.0</ele>
        <time>2013-07-06T15:35:16Z</time>
      </trkpt>
      <trkpt lat="40.172433" lon="-5.046533">
        <ele>1397.0</ele>
        <time>2013-07-06T15:35:17Z</time>
      </trkpt>
      <trkpt lat="40.172533" lon="-5.046533">
        <ele>1395.0</ele>
        <time>2013-07-06T15:35:18Z</time>
      </trkpt>
      <trkpt lat="40.172800" lon="-5.046517">
        <ele>1387.0</ele>
        <time>2013-07-06T15:35:21Z</time>
      </trkpt>
      <trkpt lat="40.172883" lon="-5.046517">
        <ele>1385.0</ele>
        <time>2013-07-06T15:35:22Z</time>
      </trkpt>
      <trkpt lat="40.172983" lon="-5.046500">
        <ele>1382.0</ele>
        <time>2013-07-06T15:35:23Z</time>
      </trkpt>
      <trkpt lat="40.173083" lon="-5.046483">
        <ele>1380.0</ele>
        <time>2013-07-06T15:35:24Z</time>
      </trkpt>
      <trkpt lat="40.173250" lon="-5.046450">
        <ele>1376.0</ele>
        <time>2013-07-06T15:35:26Z</time>
      </trkpt>
      <trkpt lat="40.173350" lon="-5.046450">
        <ele>1373.0</ele>
        <time>2013-07-06T15:35:27Z</time>
      </trkpt>
      <trkpt lat="40.173433" lon="-5.046433">
        <ele>1372.0</ele>
        <time>2013-07-06T15:35:28Z</time>
      </trkpt>
      <trkpt lat="40.173533" lon="-5.046467">
        <ele>1370.0</ele>
        <time>2013-07-06T15:35:29Z</time>
      </trkpt>
      <trkpt lat="40.173617" lon="-5.046517">
        <ele>1368.0</ele>
        <time>2013-07-06T15:35:30Z</time>
      </trkpt>
      <trkpt lat="40.173683" lon="-5.046583">
        <ele>1366.0</ele>
        <time>2013-07-06T15:35:31Z</time>
      </trkpt>
      <trkpt lat="40.173767" lon="-5.046650">
        <ele>1365.0</ele>
        <time>2013-07-06T15:35:32Z</time>
      </trkpt>
      <trkpt lat="40.173850" lon="-5.046717">
        <ele>1364.0</ele>
        <time>2013-07-06T15:35:33Z</time>
      </trkpt>
      <trkpt lat="40.173917" lon="-5.046800">
        <ele>1362.0</ele>
        <time>2013-07-06T15:35:34Z</time>
      </trkpt>
      <trkpt lat="40.173983" lon="-5.046883">
        <ele>1360.0</ele>
        <time>2013-07-06T15:35:35Z</time>
      </trkpt>
      <trkpt lat="40.174033" lon="-5.046967">
        <ele>1358.0</ele>
        <time>2013-07-06T15:35:36Z</time>
      </trkpt>
      <trkpt lat="40.174100" lon="-5.047083">
        <ele>1356.0</ele>
        <time>2013-07-06T15:35:37Z</time>
      </trkpt>
      <trkpt lat="40.174150" lon="-5.047200">
        <ele>1353.0</ele>
        <time>2013-07-06T15:35:38Z</time>
      </trkpt>
      <trkpt lat="40.174183" lon="-5.047317">
        <ele>1351.0</ele>
        <time>2013-07-06T15:35:39Z</time>
      </trkpt>
      <trkpt lat="40.174217" lon="-5.047433">
        <ele>1348.0</ele>
        <time>2013-07-06T15:35:40Z</time>
      </trkpt>
      <trkpt lat="40.174250" lon="-5.047550">
        <ele>1346.0</ele>
        <time>2013-07-06T15:35:41Z</time>
      </trkpt>
      <trkpt lat="40.174283" lon="-5.047667">
        <ele>1343.0</ele>
        <time>2013-07-06T15:35:42Z</time>
      </trkpt>
      <trkpt lat="40.174300" lon="-5.047783">
        <ele>1340.0</ele>
        <time>2013-07-06T15:35:43Z</time>
      </trkpt>
      <trkpt lat="40.174333" lon="-5.047900">
        <ele>1338.0</ele>
        <time>2013-07-06T15:35:44Z</time>
      </trkpt>
      <trkpt lat="40.174350" lon="-5.048033">
        <ele>1334.0</ele>
        <time>2013-07-06T15:35:45Z</time>
      </trkpt>
      <trkpt lat="40.174367" lon="-5.048150">
        <ele>1331.0</ele>
        <time>2013-07-06T15:35:46Z</time>
      </trkpt>
      <trkpt lat="40.174400" lon="-5.048267">
        <ele>1328.0</ele>
        <time>2013-07-06T15:35:47Z</time>
      </trkpt>
      <trkpt lat="40.174417" lon="-5.048383">
        <ele>1325.0</ele>
        <time>2013-07-06T15:35:48Z</time>
      </trkpt>
      <trkpt lat="40.174433" lon="-5.048517">
        <ele>1322.0</ele>
        <time>2013-07-06T15:35:49Z</time>
      </trkpt>
      <trkpt lat="40.174450" lon="-5.048633">
        <ele>1318.0</ele>
        <time>2013-07-06T15:35:50Z</time>
      </trkpt>
      <trkpt lat="40.174467" lon="-5.048767">
        <ele>1316.0</ele>
        <time>2013-07-06T15:35:51Z</time>
      </trkpt>
      <trkpt lat="40.174483" lon="-5.048883">
        <ele>1313.0</ele>
        <time>2013-07-06T15:35:52Z</time>
      </trkpt>
      <trkpt lat="40.174500" lon="-5.049000">
        <ele>1310.0</ele>
        <time>2013-07-06T15:35:53Z</time>
      </trkpt>
      <trkpt lat="40.174533" lon="-5.049100">
        <ele>1308.0</ele>
        <time>2013-07-06T15:35:54Z</time>
      </trkpt>
      <trkpt lat="40.174550" lon="-5.049200">
        <ele>1306.0</ele>
        <time>2013-07-06T15:35:55Z</time>
      </trkpt>
      <trkpt lat="40.174567" lon="-5.049317">
        <ele>1303.0</ele>
        <time>2013-07-06T15:35:56Z</time>
      </trkpt>
      <trkpt lat="40.174583" lon="-5.049433">
        <ele>1300.0</ele>
        <time>2013-07-06T15:35:57Z</time>
      </trkpt>
      <trkpt lat="40.174600" lon="-5.049550">
        <ele>1296.0</ele>
        <time>2013-07-06T15:35:58Z</time>
      </trkpt>
      <trkpt lat="40.174617" lon="-5.049667">
        <ele>1293.0</ele>
        <time>2013-07-06T15:35:59Z</time>
      </trkpt>
      <trkpt lat="40.174617" lon="-5.049783">
        <ele>1290.0</ele>
        <time>2013-07-06T15:36:00Z</time>
      </trkpt>
      <trkpt lat="40.174617" lon="-5.049900">
        <ele>1288.0</ele>
        <time>2013-07-06T15:36:01Z</time>
      </trkpt>
      <trkpt lat="40.174617" lon="-5.050017">
        <ele>1286.0</ele>
        <time>2013-07-06T15:36:02Z</time>
      </trkpt>
      <trkpt lat="40.174617" lon="-5.050133">
        <ele>1284.0</ele>
        <time>2013-07-06T15:36:03Z</time>
      </trkpt>
      <trkpt lat="40.174617" lon="-5.050250">
        <ele>1281.0</ele>
        <time>2013-07-06T15:36:04Z</time>
      </trkpt>
      <trkpt lat="40.174617" lon="-5.050367">
        <ele>1278.0</ele>
        <time>2013-07-06T15:36:05Z</time>
      </trkpt>
      <trkpt lat="40.174600" lon="-5.050500">
        <ele>1275.0</ele>
        <time>2013-07-06T15:36:06Z</time>
      </trkpt>
      <trkpt lat="40.174583" lon="-5.050617">
        <ele>1273.0</ele>
        <time>2013-07-06T15:36:07Z</time>
      </trkpt>
      <trkpt lat="40.174567" lon="-5.050733">
        <ele>1271.0</ele>
        <time>2013-07-06T15:36:08Z</time>
      </trkpt>
      <trkpt lat="40.174567" lon="-5.050833">
        <ele>1270.0</ele>
        <time>2013-07-06T15:36:09Z</time>
      </trkpt>
      <trkpt lat="40.174550" lon="-5.050933">
        <ele>1269.0</ele>
        <time>2013-07-06T15:36:10Z</time>
      </trkpt>
      <trkpt lat="40.174550" lon="-5.051050">
        <ele>1266.0</ele>
        <time>2013-07-06T15:36:11Z</time>
      </trkpt>
      <trkpt lat="40.174550" lon="-5.051167">
        <ele>1263.0</ele>
        <time>2013-07-06T15:36:12Z</time>
      </trkpt>
      <trkpt lat="40.174533" lon="-5.051300">
        <ele>1261.0</ele>
        <time>2013-07-06T15:36:13Z</time>
      </trkpt>
      <trkpt lat="40.174533" lon="-5.051433">
        <ele>1258.0</ele>
        <time>2013-07-06T15:36:14Z</time>
      </trkpt>
      <trkpt lat="40.174517" lon="-5.051550">
        <ele>1256.0</ele>
        <time>2013-07-06T15:36:15Z</time>
      </trkpt>
      <trkpt lat="40.174517" lon="-5.051667">
        <ele>1253.0</ele>
        <time>2013-07-06T15:36:16Z</time>
      </trkpt>
      <trkpt lat="40.174500" lon="-5.051783">
        <ele>1251.0</ele>
        <time>2013-07-06T15:36:17Z</time>
      </trkpt>
      <trkpt lat="40.174483" lon="-5.051917">
        <ele>1248.0</ele>
        <time>2013-07-06T15:36:18Z</time>
      </trkpt>
      <trkpt lat="40.174483" lon="-5.052017">
        <ele>1246.0</ele>
        <time>2013-07-06T15:36:19Z</time>
      </trkpt>
      <trkpt lat="40.174467" lon="-5.052133">
        <ele>1244.0</ele>
        <time>2013-07-06T15:36:20Z</time>
      </trkpt>
      <trkpt lat="40.174467" lon="-5.052250">
        <ele>1242.0</ele>
        <time>2013-07-06T15:36:21Z</time>
      </trkpt>
      <trkpt lat="40.174450" lon="-5.052350">
        <ele>1239.0</ele>
        <time>2013-07-06T15:36:22Z</time>
      </trkpt>
      <trkpt lat="40.174450" lon="-5.052467">
        <ele>1237.0</ele>
        <time>2013-07-06T15:36:23Z</time>
      </trkpt>
      <trkpt lat="40.174433" lon="-5.052600">
        <ele>1234.0</ele>
        <time>2013-07-06T15:36:24Z</time>
      </trkpt>
      <trkpt lat="40.174417" lon="-5.052717">
        <ele>1232.0</ele>
        <time>2013-07-06T15:36:25Z</time>
      </trkpt>
      <trkpt lat="40.174400" lon="-5.052833">
        <ele>1229.0</ele>
        <time>2013-07-06T15:36:26Z</time>
      </trkpt>
      <trkpt lat="40.174400" lon="-5.052950">
        <ele>1228.0</ele>
        <time>2013-07-06T15:36:27Z</time>
      </trkpt>
      <trkpt lat="40.174383" lon="-5.053067">
        <ele>1225.0</ele>
        <time>2013-07-06T15:36:28Z</time>
      </trkpt>
      <trkpt lat="40.174383" lon="-5.053200">
        <ele>1223.0</ele>
        <time>2013-07-06T15:36:29Z</time>
      </trkpt>
      <trkpt lat="40.174367" lon="-5.053317">
        <ele>1221.0</ele>
        <time>2013-07-06T15:36:30Z</time>
      </trkpt>
      <trkpt lat="40.174350" lon="-5.053433">
        <ele>1220.0</ele>
        <time>2013-07-06T15:36:31Z</time>
      </trkpt>
      <trkpt lat="40.174333" lon="-5.053533">
        <ele>1219.0</ele>
        <time>2013-07-06T15:36:32Z</time>
      </trkpt>
      <trkpt lat="40.174317" lon="-5.053650">
        <ele>1217.0</ele>
        <time>2013-07-06T15:36:33Z</time>
      </trkpt>
      <trkpt lat="40.174317" lon="-5.053767">
        <ele>1214.0</ele>
        <time>2013-07-06T15:36:34Z</time>
      </trkpt>
      <trkpt lat="40.174300" lon="-5.053883">
        <ele>1212.0</ele>
        <time>2013-07-06T15:36:35Z</time>
      </trkpt>
      <trkpt lat="40.174283" lon="-5.054000">
        <ele>1210.0</ele>
        <time>2013-07-06T15:36:36Z</time>
      </trkpt>
      <trkpt lat="40.174283" lon="-5.054117">
        <ele>1208.0</ele>
        <time>2013-07-06T15:36:37Z</time>
      </trkpt>
      <trkpt lat="40.174283" lon="-5.054233">
        <ele>1206.0</ele>
        <time>2013-07-06T15:36:38Z</time>
      </trkpt>
      <trkpt lat="40.174283" lon="-5.054350">
        <ele>1204.0</ele>
        <time>2013-07-06T15:36:39Z</time>
      </trkpt>
      <trkpt lat="40.174283" lon="-5.054467">
        <ele>1201.0</ele>
        <time>2013-07-06T15:36:40Z</time>
      </trkpt>
      <trkpt lat="40.174300" lon="-5.054583">
        <ele>1199.0</ele>
        <time>2013-07-06T15:36:41Z</time>
      </trkpt>
      <trkpt lat="40.174317" lon="-5.054717">
        <ele>1197.0</ele>
        <time>2013-07-06T15:36:42Z</time>
      </trkpt>
      <trkpt lat="40.174333" lon="-5.054833">
        <ele>1195.0</ele>
        <time>2013-07-06T15:36:43Z</time>
      </trkpt>
      <trkpt lat="40.174333" lon="-5.054950">
        <ele>1194.0</ele>
        <time>2013-07-06T15:36:44Z</time>
      </trkpt>
      <trkpt lat="40.174350" lon="-5.055067">
        <ele>1193.0</ele>
        <time>2013-07-06T15:36:45Z</time>
      </trkpt>
      <trkpt lat="40.174350" lon="-5.055183">
        <ele>1192.0</ele>
        <time>2013-07-06T15:36:46Z</time>
      </trkpt>
      <trkpt lat="40.174350" lon="-5.055300">
        <ele>1191.0</ele>
        <time>2013-07-06T15:36:47Z</time>
      </trkpt>
      <trkpt lat="40.174350" lon="-5.055417">
        <ele>1189.0</ele>
        <time>2013-07-06T15:36:48Z</time>
      </trkpt>
      <trkpt lat="40.174350" lon="-5.055533">
        <ele>1189.0</ele>
        <time>2013-07-06T15:36:49Z</time>
      </trkpt>
      <trkpt lat="40.174350" lon="-5.055633">
        <ele>1188.0</ele>
        <time>2013-07-06T15:36:50Z</time>
      </trkpt>
      <trkpt lat="40.174350" lon="-5.055733">
        <ele>1188.0</ele>
        <time>2013-07-06T15:36:51Z</time>
      </trkpt>
      <trkpt lat="40.174350" lon="-5.055833">
        <ele>1188.0</ele>
        <time>2013-07-06T15:36:52Z</time>
      </trkpt>
      <trkpt lat="40.174350" lon="-5.055950">
        <ele>1187.0</ele>
        <time>2013-07-06T15:36:53Z</time>
      </trkpt>
      <trkpt lat="40.174350" lon="-5.056050">
        <ele>1186.0</ele>
        <time>2013-07-06T15:36:54Z</time>
      </trkpt>
      <trkpt lat="40.174350" lon="-5.056167">
        <ele>1185.0</ele>
        <time>2013-07-06T15:36:55Z</time>
      </trkpt>
      <trkpt lat="40.174350" lon="-5.056283">
        <ele>1184.0</ele>
        <time>2013-07-06T15:36:56Z</time>
      </trkpt>
      <trkpt lat="40.174350" lon="-5.056383">
        <ele>1183.0</ele>
        <time>2013-07-06T15:36:57Z</time>
      </trkpt>
      <trkpt lat="40.174350" lon="-5.056500">
        <ele>1182.0</ele>
        <time>2013-07-06T15:36:58Z</time>
      </trkpt>
      <trkpt lat="40.174350" lon="-5.056600">
        <ele>1181.0</ele>
        <time>2013-07-06T15:36:59Z</time>
      </trkpt>
      <trkpt lat="40.174350" lon="-5.056700">
        <ele>1180.0</ele>
        <time>2013-07-06T15:37:00Z</time>
      </trkpt>
      <trkpt lat="40.174350" lon="-5.056800">
        <ele>1180.0</ele>
        <time>2013-07-06T15:37:01Z</time>
      </trkpt>
      <trkpt lat="40.174350" lon="-5.056917">
        <ele>1178.0</ele>
        <time>2013-07-06T15:37:02Z</time>
      </trkpt>
      <trkpt lat="40.174350" lon="-5.057033">
        <ele>1177.0</ele>
        <time>2013-07-06T15:37:03Z</time>
      </trkpt>
      <trkpt lat="40.174350" lon="-5.057150">
        <ele>1175.0</ele>
        <time>2013-07-06T15:37:04Z</time>
      </trkpt>
      <trkpt lat="40.174333" lon="-5.057250">
        <ele>1174.0</ele>
        <time>2013-07-06T15:37:05Z</time>
      </trkpt>
      <trkpt lat="40.174333" lon="-5.057367">
        <ele>1174.0</ele>
        <time>2013-07-06T15:37:06Z</time>
      </trkpt>
      <trkpt lat="40.174317" lon="-5.057467">
        <ele>1173.0</ele>
        <time>2013-07-06T15:37:07Z</time>
      </trkpt>
      <trkpt lat="40.174317" lon="-5.057567">
        <ele>1172.0</ele>
        <time>2013-07-06T15:37:08Z</time>
      </trkpt>
      <trkpt lat="40.174300" lon="-5.057683">
        <ele>1170.0</ele>
        <time>2013-07-06T15:37:09Z</time>
      </trkpt>
      <trkpt lat="40.174300" lon="-5.057800">
        <ele>1168.0</ele>
        <time>2013-07-06T15:37:10Z</time>
      </trkpt>
      <trkpt lat="40.174283" lon="-5.057917">
        <ele>1167.0</ele>
        <time>2013-07-06T15:37:11Z</time>
      </trkpt>
      <trkpt lat="40.174267" lon="-5.058033">
        <ele>1166.0</ele>
        <time>2013-07-06T15:37:12Z</time>
      </trkpt>
      <trkpt lat="40.174250" lon="-5.058150">
        <ele>1165.0</ele>
        <time>2013-07-06T15:37:13Z</time>
      </trkpt>
      <trkpt lat="40.174233" lon="-5.058250">
        <ele>1165.0</ele>
        <time>2013-07-06T15:37:14Z</time>
      </trkpt>
      <trkpt lat="40.174217" lon="-5.058367">
        <ele>1164.0</ele>
        <time>2013-07-06T15:37:15Z</time>
      </trkpt>
      <trkpt lat="40.174200" lon="-5.058467">
        <ele>1163.0</ele>
        <time>2013-07-06T15:37:16Z</time>
      </trkpt>
      <trkpt lat="40.174183" lon="-5.058600">
        <ele>1162.0</ele>
        <time>2013-07-06T15:37:17Z</time>
      </trkpt>
      <trkpt lat="40.174167" lon="-5.058717">
        <ele>1160.0</ele>
        <time>2013-07-06T15:37:18Z</time>
      </trkpt>
      <trkpt lat="40.174150" lon="-5.058833">
        <ele>1160.0</ele>
        <time>2013-07-06T15:37:19Z</time>
      </trkpt>
      <trkpt lat="40.174133" lon="-5.058933">
        <ele>1160.0</ele>
        <time>2013-07-06T15:37:20Z</time>
      </trkpt>
      <trkpt lat="40.174133" lon="-5.059033">
        <ele>1159.0</ele>
        <time>2013-07-06T15:37:21Z</time>
      </trkpt>
      <trkpt lat="40.174117" lon="-5.059150">
        <ele>1158.0</ele>
        <time>2013-07-06T15:37:22Z</time>
      </trkpt>
      <trkpt lat="40.174100" lon="-5.059250">
        <ele>1157.0</ele>
        <time>2013-07-06T15:37:23Z</time>
      </trkpt>
      <trkpt lat="40.174067" lon="-5.059367">
        <ele>1157.0</ele>
        <time>2013-07-06T15:37:24Z</time>
      </trkpt>
      <trkpt lat="40.174017" lon="-5.059667">
        <ele>1164.0</ele>
        <time>2013-07-06T15:37:27Z</time>
      </trkpt>
      <trkpt lat="40.173967" lon="-5.059833">
        <ele>1167.0</ele>
        <time>2013-07-06T15:37:29Z</time>
      </trkpt>
      <trkpt lat="40.173917" lon="-5.060017">
        <ele>1167.0</ele>
        <time>2013-07-06T15:37:31Z</time>
      </trkpt>
      <trkpt lat="40.173933" lon="-5.060117">
        <ele>1167.0</ele>
        <time>2013-07-06T15:37:32Z</time>
      </trkpt>
      <trkpt lat="40.173967" lon="-5.060183">
        <ele>1167.0</ele>
        <time>2013-07-06T15:37:33Z</time>
      </trkpt>
      <trkpt lat="40.174033" lon="-5.060233">
        <ele>1167.0</ele>
        <time>2013-07-06T15:37:34Z</time>
      </trkpt>
      <trkpt lat="40.174283" lon="-5.060167">
        <ele>1167.0</ele>
        <time>2013-07-06T15:37:37Z</time>
      </trkpt>
      <trkpt lat="40.174333" lon="-5.060083">
        <ele>1168.0</ele>
        <time>2013-07-06T15:37:38Z</time>
      </trkpt>
      <trkpt lat="40.174367" lon="-5.060000">
        <ele>1170.0</ele>
        <time>2013-07-06T15:37:39Z</time>
      </trkpt>
      <trkpt lat="40.174367" lon="-5.059883">
        <ele>1170.0</ele>
        <time>2013-07-06T15:37:40Z</time>
      </trkpt>
      <trkpt lat="40.174350" lon="-5.059767">
        <ele>1170.0</ele>
        <time>2013-07-06T15:37:41Z</time>
      </trkpt>
      <trkpt lat="40.174267" lon="-5.059600">
        <ele>1171.0</ele>
        <time>2013-07-06T15:37:43Z</time>
      </trkpt>
      <trkpt lat="40.174217" lon="-5.059533">
        <ele>1172.0</ele>
        <time>2013-07-06T15:37:44Z</time>
      </trkpt>
      <trkpt lat="40.174150" lon="-5.059500">
        <ele>1172.0</ele>
        <time>2013-07-06T15:37:45Z</time>
      </trkpt>
      <trkpt lat="40.174083" lon="-5.059467">
        <ele>1174.0</ele>
        <time>2013-07-06T15:37:46Z</time>
      </trkpt>
      <trkpt lat="40.174017" lon="-5.059467">
        <ele>1175.0</ele>
        <time>2013-07-06T15:37:47Z</time>
      </trkpt>
      <trkpt lat="40.173967" lon="-5.059450">
        <ele>1176.0</ele>
        <time>2013-07-06T15:37:48Z</time>
      </trkpt>
      <trkpt lat="40.173900" lon="-5.059467">
        <ele>1176.0</ele>
        <time>2013-07-06T15:37:49Z</time>
      </trkpt>
      <trkpt lat="40.173817" lon="-5.059483">
        <ele>1176.0</ele>
        <time>2013-07-06T15:37:50Z</time>
      </trkpt>
      <trkpt lat="40.173750" lon="-5.059517">
        <ele>1176.0</ele>
        <time>2013-07-06T15:37:51Z</time>
      </trkpt>
      <trkpt lat="40.173667" lon="-5.059583">
        <ele>1176.0</ele>
        <time>2013-07-06T15:37:52Z</time>
      </trkpt>
      <trkpt lat="40.173617" lon="-5.059650">
        <ele>1176.0</ele>
        <time>2013-07-06T15:37:53Z</time>
      </trkpt>
      <trkpt lat="40.173550" lon="-5.059733">
        <ele>1175.0</ele>
        <time>2013-07-06T15:37:54Z</time>
      </trkpt>
      <trkpt lat="40.173483" lon="-5.059817">
        <ele>1175.0</ele>
        <time>2013-07-06T15:37:55Z</time>
      </trkpt>
      <trkpt lat="40.173433" lon="-5.059883">
        <ele>1176.0</ele>
        <time>2013-07-06T15:37:56Z</time>
      </trkpt>
      <trkpt lat="40.173367" lon="-5.059950">
        <ele>1177.0</ele>
        <time>2013-07-06T15:37:57Z</time>
      </trkpt>
      <trkpt lat="40.173317" lon="-5.060017">
        <ele>1177.0</ele>
        <time>2013-07-06T15:37:58Z</time>
      </trkpt>
      <trkpt lat="40.173283" lon="-5.060100">
        <ele>1178.0</ele>
        <time>2013-07-06T15:37:59Z</time>
      </trkpt>
      <trkpt lat="40.173217" lon="-5.060167">
        <ele>1178.0</ele>
        <time>2013-07-06T15:38:00Z</time>
      </trkpt>
      <trkpt lat="40.173167" lon="-5.060250">
        <ele>1177.0</ele>
        <time>2013-07-06T15:38:01Z</time>
      </trkpt>
      <trkpt lat="40.173100" lon="-5.060333">
        <ele>1177.0</ele>
        <time>2013-07-06T15:38:02Z</time>
      </trkpt>
      <trkpt lat="40.173033" lon="-5.060417">
        <ele>1178.0</ele>
        <time>2013-07-06T15:38:03Z</time>
      </trkpt>
      <trkpt lat="40.172983" lon="-5.060500">
        <ele>1179.0</ele>
        <time>2013-07-06T15:38:04Z</time>
      </trkpt>
      <trkpt lat="40.172933" lon="-5.060600">
        <ele>1180.0</ele>
        <time>2013-07-06T15:38:05Z</time>
      </trkpt>
      <trkpt lat="40.172883" lon="-5.060700">
        <ele>1181.0</ele>
        <time>2013-07-06T15:38:06Z</time>
      </trkpt>
      <trkpt lat="40.172867" lon="-5.060817">
        <ele>1181.0</ele>
        <time>2013-07-06T15:38:07Z</time>
      </trkpt>
      <trkpt lat="40.172883" lon="-5.060933">
        <ele>1182.0</ele>
        <time>2013-07-06T15:38:08Z</time>
      </trkpt>
      <trkpt lat="40.172933" lon="-5.061017">
        <ele>1182.0</ele>
        <time>2013-07-06T15:38:09Z</time>
      </trkpt>
      <trkpt lat="40.172983" lon="-5.061067">
        <ele>1183.0</ele>
        <time>2013-07-06T15:38:10Z</time>
      </trkpt>
      <trkpt lat="40.173050" lon="-5.061067">
        <ele>1184.0</ele>
        <time>2013-07-06T15:38:11Z</time>
      </trkpt>
      <trkpt lat="40.173117" lon="-5.061050">
        <ele>1184.0</ele>
        <time>2013-07-06T15:38:12Z</time>
      </trkpt>
      <trkpt lat="40.173200" lon="-5.061017">
        <ele>1185.0</ele>
        <time>2013-07-06T15:38:13Z</time>
      </trkpt>
      <trkpt lat="40.173267" lon="-5.060950">
        <ele>1185.0</ele>
        <time>2013-07-06T15:38:14Z</time>
      </trkpt>
      <trkpt lat="40.173333" lon="-5.060867">
        <ele>1183.0</ele>
        <time>2013-07-06T15:38:15Z</time>
      </trkpt>
      <trkpt lat="40.173383" lon="-5.060750">
        <ele>1182.0</ele>
        <time>2013-07-06T15:38:16Z</time>
      </trkpt>
      <trkpt lat="40.173417" lon="-5.060633">
        <ele>1182.0</ele>
        <time>2013-07-06T15:38:17Z</time>
      </trkpt>
      <trkpt lat="40.173417" lon="-5.060517">
        <ele>1181.0</ele>
        <time>2013-07-06T15:38:18Z</time>
      </trkpt>
      <trkpt lat="40.173383" lon="-5.060417">
        <ele>1182.0</ele>
        <time>2013-07-06T15:38:19Z</time>
      </trkpt>
      <trkpt lat="40.173350" lon="-5.060333">
        <ele>1182.0</ele>
        <time>2013-07-06T15:38:20Z</time>
      </trkpt>
      <trkpt lat="40.173300" lon="-5.060250">
        <ele>1183.0</ele>
        <time>2013-07-06T15:38:21Z</time>
      </trkpt>
      <trkpt lat="40.173267" lon="-5.060183">
        <ele>1183.0</ele>
        <time>2013-07-06T15:38:22Z</time>
      </trkpt>
      <trkpt lat="40.173200" lon="-5.060133">
        <ele>1183.0</ele>
        <time>2013-07-06T15:38:23Z</time>
      </trkpt>
      <trkpt lat="40.173150" lon="-5.060083">
        <ele>1181.0</ele>
        <time>2013-07-06T15:38:24Z</time>
      </trkpt>
      <trkpt lat="40.173067" lon="-5.060067">
        <ele>1180.0</ele>
        <time>2013-07-06T15:38:25Z</time>
      </trkpt>
      <trkpt lat="40.172983" lon="-5.060050">
        <ele>1178.0</ele>
        <time>2013-07-06T15:38:26Z</time>
      </trkpt>
      <trkpt lat="40.172900" lon="-5.060067">
        <ele>1177.0</ele>
        <time>2013-07-06T15:38:27Z</time>
      </trkpt>
      <trkpt lat="40.172817" lon="-5.060100">
        <ele>1177.0</ele>
        <time>2013-07-06T15:38:28Z</time>
      </trkpt>
      <trkpt lat="40.172750" lon="-5.060150">
        <ele>1177.0</ele>
        <time>2013-07-06T15:38:29Z</time>
      </trkpt>
      <trkpt lat="40.172683" lon="-5.060217">
        <ele>1176.0</ele>
        <time>2013-07-06T15:38:30Z</time>
      </trkpt>
      <trkpt lat="40.172617" lon="-5.060300">
        <ele>1175.0</ele>
        <time>2013-07-06T15:38:31Z</time>
      </trkpt>
      <trkpt lat="40.172550" lon="-5.060400">
        <ele>1174.0</ele>
        <time>2013-07-06T15:38:32Z</time>
      </trkpt>
      <trkpt lat="40.172500" lon="-5.060483">
        <ele>1174.0</ele>
        <time>2013-07-06T15:38:33Z</time>
      </trkpt>
      <trkpt lat="40.172450" lon="-5.060567">
        <ele>1175.0</ele>
        <time>2013-07-06T15:38:34Z</time>
      </trkpt>
      <trkpt lat="40.172400" lon="-5.060650">
        <ele>1176.0</ele>
        <time>2013-07-06T15:38:35Z</time>
      </trkpt>
      <trkpt lat="40.172367" lon="-5.060733">
        <ele>1177.0</ele>
        <time>2013-07-06T15:38:36Z</time>
      </trkpt>
      <trkpt lat="40.172333" lon="-5.060850">
        <ele>1177.0</ele>
        <time>2013-07-06T15:38:37Z</time>
      </trkpt>
      <trkpt lat="40.172283" lon="-5.060967">
        <ele>1177.0</ele>
        <time>2013-07-06T15:38:38Z</time>
      </trkpt>
      <trkpt lat="40.172250" lon="-5.061083">
        <ele>1178.0</ele>
        <time>2013-07-06T15:38:39Z</time>
      </trkpt>
      <trkpt lat="40.172217" lon="-5.061167">
        <ele>1180.0</ele>
        <time>2013-07-06T15:38:40Z</time>
      </trkpt>
      <trkpt lat="40.172200" lon="-5.061267">
        <ele>1183.0</ele>
        <time>2013-07-06T15:38:41Z</time>
      </trkpt>
      <trkpt lat="40.172167" lon="-5.061350">
        <ele>1184.0</ele>
        <time>2013-07-06T15:38:42Z</time>
      </trkpt>
      <trkpt lat="40.172167" lon="-5.061450">
        <ele>1184.0</ele>
        <time>2013-07-06T15:38:43Z</time>
      </trkpt>
      <trkpt lat="40.172183" lon="-5.061583">
        <ele>1184.0</ele>
        <time>2013-07-06T15:38:44Z</time>
      </trkpt>
      <trkpt lat="40.172233" lon="-5.061683">
        <ele>1184.0</ele>
        <time>2013-07-06T15:38:45Z</time>
      </trkpt>
      <trkpt lat="40.172300" lon="-5.061750">
        <ele>1184.0</ele>
        <time>2013-07-06T15:38:46Z</time>
      </trkpt>
      <trkpt lat="40.172383" lon="-5.061750">
        <ele>1184.0</ele>
        <time>2013-07-06T15:38:47Z</time>
      </trkpt>
      <trkpt lat="40.172450" lon="-5.061700">
        <ele>1184.0</ele>
        <time>2013-07-06T15:38:48Z</time>
      </trkpt>
      <trkpt lat="40.172483" lon="-5.061633">
        <ele>1184.0</ele>
        <time>2013-07-06T15:38:49Z</time>
      </trkpt>
      <trkpt lat="40.172500" lon="-5.061533">
        <ele>1183.0</ele>
        <time>2013-07-06T15:38:50Z</time>
      </trkpt>
      <trkpt lat="40.172483" lon="-5.061433">
        <ele>1183.0</ele>
        <time>2013-07-06T15:38:51Z</time>
      </trkpt>
      <trkpt lat="40.172450" lon="-5.061317">
        <ele>1183.0</ele>
        <time>2013-07-06T15:38:52Z</time>
      </trkpt>
      <trkpt lat="40.172383" lon="-5.061233">
        <ele>1182.0</ele>
        <time>2013-07-06T15:38:53Z</time>
      </trkpt>
      <trkpt lat="40.172300" lon="-5.061200">
        <ele>1182.0</ele>
        <time>2013-07-06T15:38:54Z</time>
      </trkpt>
      <trkpt lat="40.172217" lon="-5.061183">
        <ele>1182.0</ele>
        <time>2013-07-06T15:38:55Z</time>
      </trkpt>
      <trkpt lat="40.172117" lon="-5.061183">
        <ele>1184.0</ele>
        <time>2013-07-06T15:38:56Z</time>
      </trkpt>
      <trkpt lat="40.172033" lon="-5.061217">
        <ele>1185.0</ele>
        <time>2013-07-06T15:38:57Z</time>
      </trkpt>
      <trkpt lat="40.171950" lon="-5.061250">
        <ele>1186.0</ele>
        <time>2013-07-06T15:38:58Z</time>
      </trkpt>
      <trkpt lat="40.171867" lon="-5.061300">
        <ele>1186.0</ele>
        <time>2013-07-06T15:38:59Z</time>
      </trkpt>
      <trkpt lat="40.171800" lon="-5.061367">
        <ele>1187.0</ele>
        <time>2013-07-06T15:39:00Z</time>
      </trkpt>
      <trkpt lat="40.171733" lon="-5.061417">
        <ele>1188.0</ele>
        <time>2013-07-06T15:39:01Z</time>
      </trkpt>
      <trkpt lat="40.171667" lon="-5.061483">
        <ele>1190.0</ele>
        <time>2013-07-06T15:39:02Z</time>
      </trkpt>
      <trkpt lat="40.171600" lon="-5.061550">
        <ele>1191.0</ele>
        <time>2013-07-06T15:39:03Z</time>
      </trkpt>
      <trkpt lat="40.171533" lon="-5.061633">
        <ele>1192.0</ele>
        <time>2013-07-06T15:39:04Z</time>
      </trkpt>
      <trkpt lat="40.171500" lon="-5.061717">
        <ele>1193.0</ele>
        <time>2013-07-06T15:39:05Z</time>
      </trkpt>
      <trkpt lat="40.171483" lon="-5.061817">
        <ele>1192.0</ele>
        <time>2013-07-06T15:39:06Z</time>
      </trkpt>
      <trkpt lat="40.171483" lon="-5.061933">
        <ele>1192.0</ele>
        <time>2013-07-06T15:39:07Z</time>
      </trkpt>
      <trkpt lat="40.171517" lon="-5.062033">
        <ele>1192.0</ele>
        <time>2013-07-06T15:39:08Z</time>
      </trkpt>
      <trkpt lat="40.171567" lon="-5.062117">
        <ele>1192.0</ele>
        <time>2013-07-06T15:39:09Z</time>
      </trkpt>
      <trkpt lat="40.171633" lon="-5.062183">
        <ele>1192.0</ele>
        <time>2013-07-06T15:39:10Z</time>
      </trkpt>
      <trkpt lat="40.171700" lon="-5.062183">
        <ele>1192.0</ele>
        <time>2013-07-06T15:39:11Z</time>
      </trkpt>
      <trkpt lat="40.171783" lon="-5.062167">
        <ele>1192.0</ele>
        <time>2013-07-06T15:39:12Z</time>
      </trkpt>
      <trkpt lat="40.171850" lon="-5.062117">
        <ele>1192.0</ele>
        <time>2013-07-06T15:39:13Z</time>
      </trkpt>
      <trkpt lat="40.171900" lon="-5.062033">
        <ele>1193.0</ele>
        <time>2013-07-06T15:39:14Z</time>
      </trkpt>
      <trkpt lat="40.171933" lon="-5.061850">
        <ele>1193.0</ele>
        <time>2013-07-06T15:39:16Z</time>
      </trkpt>
      <trkpt lat="40.171883" lon="-5.061633">
        <ele>1192.0</ele>
        <time>2013-07-06T15:39:18Z</time>
      </trkpt>
      <trkpt lat="40.171833" lon="-5.061533">
        <ele>1192.0</ele>
        <time>2013-07-06T15:39:19Z</time>
      </trkpt>
      <trkpt lat="40.171750" lon="-5.061467">
        <ele>1192.0</ele>
        <time>2013-07-06T15:39:20Z</time>
      </trkpt>
      <trkpt lat="40.171650" lon="-5.061450">
        <ele>1192.0</ele>
        <time>2013-07-06T15:39:21Z</time>
      </trkpt>
      <trkpt lat="40.171550" lon="-5.061450">
        <ele>1193.0</ele>
        <time>2013-07-06T15:39:22Z</time>
      </trkpt>
      <trkpt lat="40.171467" lon="-5.061467">
        <ele>1195.0</ele>
        <time>2013-07-06T15:39:23Z</time>
      </trkpt>
      <trkpt lat="40.171400" lon="-5.061517">
        <ele>1197.0</ele>
        <time>2013-07-06T15:39:24Z</time>
      </trkpt>
      <trkpt lat="40.171317" lon="-5.061567">
        <ele>1198.0</ele>
        <time>2013-07-06T15:39:25Z</time>
      </trkpt>
      <trkpt lat="40.171250" lon="-5.061633">
        <ele>1199.0</ele>
        <time>2013-07-06T15:39:26Z</time>
      </trkpt>
      <trkpt lat="40.171183" lon="-5.061717">
        <ele>1200.0</ele>
        <time>2013-07-06T15:39:27Z</time>
      </trkpt>
      <trkpt lat="40.171117" lon="-5.061817">
        <ele>1201.0</ele>
        <time>2013-07-06T15:39:28Z</time>
      </trkpt>
      <trkpt lat="40.171050" lon="-5.061883">
        <ele>1202.0</ele>
        <time>2013-07-06T15:39:29Z</time>
      </trkpt>
      <trkpt lat="40.170983" lon="-5.061950">
        <ele>1204.0</ele>
        <time>2013-07-06T15:39:30Z</time>
      </trkpt>
      <trkpt lat="40.170950" lon="-5.062033">
        <ele>1205.0</ele>
        <time>2013-07-06T15:39:31Z</time>
      </trkpt>
      <trkpt lat="40.170917" lon="-5.062117">
        <ele>1206.0</ele>
        <time>2013-07-06T15:39:32Z</time>
      </trkpt>
      <trkpt lat="40.170883" lon="-5.062250">
        <ele>1205.0</ele>
        <time>2013-07-06T15:39:33Z</time>
      </trkpt>
      <trkpt lat="40.170883" lon="-5.062383">
        <ele>1205.0</ele>
        <time>2013-07-06T15:39:34Z</time>
      </trkpt>
      <trkpt lat="40.170900" lon="-5.062500">
        <ele>1205.0</ele>
        <time>2013-07-06T15:39:35Z</time>
      </trkpt>
      <trkpt lat="40.170950" lon="-5.062583">
        <ele>1206.0</ele>
        <time>2013-07-06T15:39:36Z</time>
      </trkpt>
      <trkpt lat="40.171000" lon="-5.062650">
        <ele>1207.0</ele>
        <time>2013-07-06T15:39:37Z</time>
      </trkpt>
      <trkpt lat="40.171067" lon="-5.062683">
        <ele>1208.0</ele>
        <time>2013-07-06T15:39:38Z</time>
      </trkpt>
      <trkpt lat="40.171133" lon="-5.062700">
        <ele>1208.0</ele>
        <time>2013-07-06T15:39:39Z</time>
      </trkpt>
      <trkpt lat="40.171217" lon="-5.062700">
        <ele>1208.0</ele>
        <time>2013-07-06T15:39:40Z</time>
      </trkpt>
      <trkpt lat="40.171300" lon="-5.062667">
        <ele>1207.0</ele>
        <time>2013-07-06T15:39:41Z</time>
      </trkpt>
      <trkpt lat="40.171383" lon="-5.062600">
        <ele>1207.0</ele>
        <time>2013-07-06T15:39:42Z</time>
      </trkpt>
      <trkpt lat="40.171433" lon="-5.062517">
        <ele>1207.0</ele>
        <time>2013-07-06T15:39:43Z</time>
      </trkpt>
      <trkpt lat="40.171450" lon="-5.062400">
        <ele>1206.0</ele>
        <time>2013-07-06T15:39:44Z</time>
      </trkpt>
      <trkpt lat="40.171450" lon="-5.062283">
        <ele>1206.0</ele>
        <time>2013-07-06T15:39:45Z</time>
      </trkpt>
      <trkpt lat="40.171400" lon="-5.062167">
        <ele>1206.0</ele>
        <time>2013-07-06T15:39:46Z</time>
      </trkpt>
      <trkpt lat="40.171350" lon="-5.062083">
        <ele>1206.0</ele>
        <time>2013-07-06T15:39:47Z</time>
      </trkpt>
      <trkpt lat="40.171267" lon="-5.062033">
        <ele>1206.0</ele>
        <time>2013-07-06T15:39:48Z</time>
      </trkpt>
      <trkpt lat="40.171183" lon="-5.062000">
        <ele>1205.0</ele>
        <time>2013-07-06T15:39:49Z</time>
      </trkpt>
      <trkpt lat="40.171100" lon="-5.062000">
        <ele>1207.0</ele>
        <time>2013-07-06T15:39:50Z</time>
      </trkpt>
      <trkpt lat="40.171000" lon="-5.062000">
        <ele>1207.0</ele>
        <time>2013-07-06T15:39:51Z</time>
      </trkpt>
      <trkpt lat="40.170917" lon="-5.062033">
        <ele>1207.0</ele>
        <time>2013-07-06T15:39:52Z</time>
      </trkpt>
      <trkpt lat="40.170833" lon="-5.062100">
        <ele>1208.0</ele>
        <time>2013-07-06T15:39:53Z</time>
      </trkpt>
      <trkpt lat="40.170767" lon="-5.062183">
        <ele>1208.0</ele>
        <time>2013-07-06T15:39:54Z</time>
      </trkpt>
      <trkpt lat="40.170700" lon="-5.062283">
        <ele>1208.0</ele>
        <time>2013-07-06T15:39:55Z</time>
      </trkpt>
      <trkpt lat="40.170667" lon="-5.062367">
        <ele>1209.0</ele>
        <time>2013-07-06T15:39:56Z</time>
      </trkpt>
      <trkpt lat="40.170633" lon="-5.062467">
        <ele>1211.0</ele>
        <time>2013-07-06T15:39:57Z</time>
      </trkpt>
      <trkpt lat="40.170633" lon="-5.062567">
        <ele>1212.0</ele>
        <time>2013-07-06T15:39:58Z</time>
      </trkpt>
      <trkpt lat="40.170633" lon="-5.062667">
        <ele>1213.0</ele>
        <time>2013-07-06T15:39:59Z</time>
      </trkpt>
      <trkpt lat="40.170633" lon="-5.062783">
        <ele>1214.0</ele>
        <time>2013-07-06T15:40:00Z</time>
      </trkpt>
      <trkpt lat="40.170650" lon="-5.062867">
        <ele>1215.0</ele>
        <time>2013-07-06T15:40:01Z</time>
      </trkpt>
      <trkpt lat="40.170650" lon="-5.062967">
        <ele>1215.0</ele>
        <time>2013-07-06T15:40:02Z</time>
      </trkpt>
      <trkpt lat="40.170683" lon="-5.063083">
        <ele>1215.0</ele>
        <time>2013-07-06T15:40:03Z</time>
      </trkpt>
      <trkpt lat="40.170733" lon="-5.063167">
        <ele>1215.0</ele>
        <time>2013-07-06T15:40:04Z</time>
      </trkpt>
      <trkpt lat="40.170800" lon="-5.063233">
        <ele>1214.0</ele>
        <time>2013-07-06T15:40:05Z</time>
      </trkpt>
      <trkpt lat="40.170867" lon="-5.063267">
        <ele>1214.0</ele>
        <time>2013-07-06T15:40:06Z</time>
      </trkpt>
      <trkpt lat="40.170933" lon="-5.063283">
        <ele>1214.0</ele>
        <time>2013-07-06T15:40:07Z</time>
      </trkpt>
      <trkpt lat="40.171000" lon="-5.063300">
        <ele>1214.0</ele>
        <time>2013-07-06T15:40:08Z</time>
      </trkpt>
      <trkpt lat="40.171067" lon="-5.063300">
        <ele>1213.0</ele>
        <time>2013-07-06T15:40:09Z</time>
      </trkpt>
      <trkpt lat="40.171150" lon="-5.063300">
        <ele>1213.0</ele>
        <time>2013-07-06T15:40:10Z</time>
      </trkpt>
      <trkpt lat="40.171233" lon="-5.063333">
        <ele>1213.0</ele>
        <time>2013-07-06T15:40:11Z</time>
      </trkpt>
      <trkpt lat="40.171300" lon="-5.063383">
        <ele>1212.0</ele>
        <time>2013-07-06T15:40:12Z</time>
      </trkpt>
      <trkpt lat="40.171350" lon="-5.063450">
        <ele>1212.0</ele>
        <time>2013-07-06T15:40:13Z</time>
      </trkpt>
      <trkpt lat="40.171383" lon="-5.063550">
        <ele>1211.0</ele>
        <time>2013-07-06T15:40:14Z</time>
      </trkpt>
      <trkpt lat="40.171400" lon="-5.063650">
        <ele>1211.0</ele>
        <time>2013-07-06T15:40:15Z</time>
      </trkpt>
      <trkpt lat="40.171417" lon="-5.063733">
        <ele>1210.0</ele>
        <time>2013-07-06T15:40:16Z</time>
      </trkpt>
      <trkpt lat="40.171417" lon="-5.063833">
        <ele>1210.0</ele>
        <time>2013-07-06T15:40:17Z</time>
      </trkpt>
      <trkpt lat="40.171400" lon="-5.063917">
        <ele>1209.0</ele>
        <time>2013-07-06T15:40:18Z</time>
      </trkpt>
      <trkpt lat="40.171367" lon="-5.063983">
        <ele>1209.0</ele>
        <time>2013-07-06T15:40:19Z</time>
      </trkpt>
      <trkpt lat="40.171333" lon="-5.064083">
        <ele>1207.0</ele>
        <time>2013-07-06T15:40:20Z</time>
      </trkpt>
      <trkpt lat="40.171300" lon="-5.064167">
        <ele>1205.0</ele>
        <time>2013-07-06T15:40:21Z</time>
      </trkpt>
      <trkpt lat="40.171283" lon="-5.064267">
        <ele>1205.0</ele>
        <time>2013-07-06T15:40:22Z</time>
      </trkpt>
      <trkpt lat="40.171250" lon="-5.064350">
        <ele>1203.0</ele>
        <time>2013-07-06T15:40:23Z</time>
      </trkpt>
      <trkpt lat="40.171200" lon="-5.064450">
        <ele>1202.0</ele>
        <time>2013-07-06T15:40:24Z</time>
      </trkpt>
      <trkpt lat="40.171167" lon="-5.064550">
        <ele>1201.0</ele>
        <time>2013-07-06T15:40:25Z</time>
      </trkpt>
      <trkpt lat="40.171133" lon="-5.064650">
        <ele>1202.0</ele>
        <time>2013-07-06T15:40:26Z</time>
      </trkpt>
      <trkpt lat="40.171100" lon="-5.064733">
        <ele>1202.0</ele>
        <time>2013-07-06T15:40:27Z</time>
      </trkpt>
      <trkpt lat="40.171067" lon="-5.064817">
        <ele>1202.0</ele>
        <time>2013-07-06T15:40:28Z</time>
      </trkpt>
      <trkpt lat="40.171000" lon="-5.064900">
        <ele>1203.0</ele>
        <time>2013-07-06T15:40:29Z</time>
      </trkpt>
      <trkpt lat="40.170933" lon="-5.064967">
        <ele>1203.0</ele>
        <time>2013-07-06T15:40:30Z</time>
      </trkpt>
      <trkpt lat="40.170850" lon="-5.065017">
        <ele>1203.0</ele>
        <time>2013-07-06T15:40:31Z</time>
      </trkpt>
      <trkpt lat="40.170783" lon="-5.065050">
        <ele>1204.0</ele>
        <time>2013-07-06T15:40:32Z</time>
      </trkpt>
      <trkpt lat="40.170700" lon="-5.065083">
        <ele>1205.0</ele>
        <time>2013-07-06T15:40:33Z</time>
      </trkpt>
      <trkpt lat="40.170617" lon="-5.065133">
        <ele>1205.0</ele>
        <time>2013-07-06T15:40:34Z</time>
      </trkpt>
      <trkpt lat="40.170533" lon="-5.065200">
        <ele>1205.0</ele>
        <time>2013-07-06T15:40:35Z</time>
      </trkpt>
      <trkpt lat="40.170467" lon="-5.065283">
        <ele>1206.0</ele>
        <time>2013-07-06T15:40:36Z</time>
      </trkpt>
      <trkpt lat="40.170450" lon="-5.065383">
        <ele>1207.0</ele>
        <time>2013-07-06T15:40:37Z</time>
      </trkpt>
      <trkpt lat="40.170467" lon="-5.065467">
        <ele>1208.0</ele>
        <time>2013-07-06T15:40:38Z</time>
      </trkpt>
      <trkpt lat="40.170517" lon="-5.065550">
        <ele>1208.0</ele>
        <time>2013-07-06T15:40:39Z</time>
      </trkpt>
      <trkpt lat="40.170567" lon="-5.065600">
        <ele>1208.0</ele>
        <time>2013-07-06T15:40:40Z</time>
      </trkpt>
      <trkpt lat="40.170633" lon="-5.065617">
        <ele>1209.0</ele>
        <time>2013-07-06T15:40:41Z</time>
      </trkpt>
      <trkpt lat="40.170717" lon="-5.065617">
        <ele>1210.0</ele>
        <time>2013-07-06T15:40:42Z</time>
      </trkpt>
      <trkpt lat="40.170833" lon="-5.065500">
        <ele>1210.0</ele>
        <time>2013-07-06T15:40:44Z</time>
      </trkpt>
      <trkpt lat="40.170883" lon="-5.065383">
        <ele>1210.0</ele>
        <time>2013-07-06T15:40:45Z</time>
      </trkpt>
      <trkpt lat="40.170850" lon="-5.065017">
        <ele>1211.0</ele>
        <time>2013-07-06T15:40:48Z</time>
      </trkpt>
      <trkpt lat="40.170783" lon="-5.064917">
        <ele>1210.0</ele>
        <time>2013-07-06T15:40:49Z</time>
      </trkpt>
      <trkpt lat="40.170700" lon="-5.064850">
        <ele>1211.0</ele>
        <time>2013-07-06T15:40:50Z</time>
      </trkpt>
      <trkpt lat="40.170600" lon="-5.064800">
        <ele>1211.0</ele>
        <time>2013-07-06T15:40:51Z</time>
      </trkpt>
      <trkpt lat="40.170517" lon="-5.064750">
        <ele>1212.0</ele>
        <time>2013-07-06T15:40:52Z</time>
      </trkpt>
      <trkpt lat="40.170433" lon="-5.064717">
        <ele>1213.0</ele>
        <time>2013-07-06T15:40:53Z</time>
      </trkpt>
      <trkpt lat="40.170333" lon="-5.064700">
        <ele>1212.0</ele>
        <time>2013-07-06T15:40:54Z</time>
      </trkpt>
      <trkpt lat="40.170233" lon="-5.064683">
        <ele>1211.0</ele>
        <time>2013-07-06T15:40:55Z</time>
      </trkpt>
      <trkpt lat="40.170133" lon="-5.064700">
        <ele>1212.0</ele>
        <time>2013-07-06T15:40:56Z</time>
      </trkpt>
      <trkpt lat="40.170033" lon="-5.064733">
        <ele>1213.0</ele>
        <time>2013-07-06T15:40:57Z</time>
      </trkpt>
      <trkpt lat="40.169967" lon="-5.064800">
        <ele>1214.0</ele>
        <time>2013-07-06T15:40:58Z</time>
      </trkpt>
      <trkpt lat="40.169917" lon="-5.064883">
        <ele>1215.0</ele>
        <time>2013-07-06T15:40:59Z</time>
      </trkpt>
      <trkpt lat="40.169883" lon="-5.064983">
        <ele>1216.0</ele>
        <time>2013-07-06T15:41:00Z</time>
      </trkpt>
      <trkpt lat="40.169867" lon="-5.065067">
        <ele>1216.0</ele>
        <time>2013-07-06T15:41:01Z</time>
      </trkpt>
      <trkpt lat="40.169883" lon="-5.065167">
        <ele>1217.0</ele>
        <time>2013-07-06T15:41:02Z</time>
      </trkpt>
      <trkpt lat="40.169900" lon="-5.065267">
        <ele>1218.0</ele>
        <time>2013-07-06T15:41:03Z</time>
      </trkpt>
      <trkpt lat="40.169933" lon="-5.065333">
        <ele>1219.0</ele>
        <time>2013-07-06T15:41:04Z</time>
      </trkpt>
      <trkpt lat="40.169983" lon="-5.065400">
        <ele>1220.0</ele>
        <time>2013-07-06T15:41:05Z</time>
      </trkpt>
      <trkpt lat="40.170033" lon="-5.065450">
        <ele>1221.0</ele>
        <time>2013-07-06T15:41:06Z</time>
      </trkpt>
      <trkpt lat="40.170100" lon="-5.065483">
        <ele>1221.0</ele>
        <time>2013-07-06T15:41:07Z</time>
      </trkpt>
      <trkpt lat="40.170183" lon="-5.065483">
        <ele>1222.0</ele>
        <time>2013-07-06T15:41:08Z</time>
      </trkpt>
      <trkpt lat="40.170250" lon="-5.065450">
        <ele>1222.0</ele>
        <time>2013-07-06T15:41:09Z</time>
      </trkpt>
      <trkpt lat="40.170317" lon="-5.065400">
        <ele>1224.0</ele>
        <time>2013-07-06T15:41:10Z</time>
      </trkpt>
      <trkpt lat="40.170350" lon="-5.065317">
        <ele>1225.0</ele>
        <time>2013-07-06T15:41:11Z</time>
      </trkpt>
      <trkpt lat="40.170367" lon="-5.065217">
        <ele>1225.0</ele>
        <time>2013-07-06T15:41:12Z</time>
      </trkpt>
      <trkpt lat="40.170350" lon="-5.065083">
        <ele>1226.0</ele>
        <time>2013-07-06T15:41:13Z</time>
      </trkpt>
      <trkpt lat="40.170317" lon="-5.064967">
        <ele>1225.0</ele>
        <time>2013-07-06T15:41:14Z</time>
      </trkpt>
      <trkpt lat="40.170267" lon="-5.064850">
        <ele>1226.0</ele>
        <time>2013-07-06T15:41:15Z</time>
      </trkpt>
      <trkpt lat="40.170200" lon="-5.064767">
        <ele>1226.0</ele>
        <time>2013-07-06T15:41:16Z</time>
      </trkpt>
      <trkpt lat="40.170117" lon="-5.064700">
        <ele>1227.0</ele>
        <time>2013-07-06T15:41:17Z</time>
      </trkpt>
      <trkpt lat="40.170017" lon="-5.064667">
        <ele>1228.0</ele>
        <time>2013-07-06T15:41:18Z</time>
      </trkpt>
      <trkpt lat="40.169933" lon="-5.064650">
        <ele>1227.0</ele>
        <time>2013-07-06T15:41:19Z</time>
      </trkpt>
      <trkpt lat="40.169850" lon="-5.064650">
        <ele>1227.0</ele>
        <time>2013-07-06T15:41:20Z</time>
      </trkpt>
      <trkpt lat="40.169767" lon="-5.064700">
        <ele>1227.0</ele>
        <time>2013-07-06T15:41:21Z</time>
      </trkpt>
      <trkpt lat="40.169683" lon="-5.064750">
        <ele>1227.0</ele>
        <time>2013-07-06T15:41:22Z</time>
      </trkpt>
      <trkpt lat="40.169617" lon="-5.064817">
        <ele>1228.0</ele>
        <time>2013-07-06T15:41:23Z</time>
      </trkpt>
      <trkpt lat="40.169567" lon="-5.064883">
        <ele>1229.0</ele>
        <time>2013-07-06T15:41:24Z</time>
      </trkpt>
      <trkpt lat="40.169500" lon="-5.064967">
        <ele>1230.0</ele>
        <time>2013-07-06T15:41:25Z</time>
      </trkpt>
      <trkpt lat="40.169450" lon="-5.065050">
        <ele>1230.0</ele>
        <time>2013-07-06T15:41:26Z</time>
      </trkpt>
      <trkpt lat="40.169417" lon="-5.065150">
        <ele>1231.0</ele>
        <time>2013-07-06T15:41:27Z</time>
      </trkpt>
      <trkpt lat="40.169383" lon="-5.065250">
        <ele>1231.0</ele>
        <time>2013-07-06T15:41:28Z</time>
      </trkpt>
      <trkpt lat="40.169367" lon="-5.065350">
        <ele>1232.0</ele>
        <time>2013-07-06T15:41:29Z</time>
      </trkpt>
      <trkpt lat="40.169367" lon="-5.065450">
        <ele>1233.0</ele>
        <time>2013-07-06T15:41:30Z</time>
      </trkpt>
      <trkpt lat="40.169383" lon="-5.065550">
        <ele>1234.0</ele>
        <time>2013-07-06T15:41:31Z</time>
      </trkpt>
      <trkpt lat="40.169417" lon="-5.065617">
        <ele>1234.0</ele>
        <time>2013-07-06T15:41:32Z</time>
      </trkpt>
      <trkpt lat="40.169483" lon="-5.065667">
        <ele>1235.0</ele>
        <time>2013-07-06T15:41:33Z</time>
      </trkpt>
      <trkpt lat="40.169550" lon="-5.065717">
        <ele>1235.0</ele>
        <time>2013-07-06T15:41:34Z</time>
      </trkpt>
      <trkpt lat="40.169617" lon="-5.065733">
        <ele>1236.0</ele>
        <time>2013-07-06T15:41:35Z</time>
      </trkpt>
      <trkpt lat="40.169750" lon="-5.065683">
        <ele>1237.0</ele>
        <time>2013-07-06T15:41:37Z</time>
      </trkpt>
      <trkpt lat="40.169817" lon="-5.065617">
        <ele>1237.0</ele>
        <time>2013-07-06T15:41:38Z</time>
      </trkpt>
      <trkpt lat="40.169850" lon="-5.065517">
        <ele>1236.0</ele>
        <time>2013-07-06T15:41:39Z</time>
      </trkpt>
      <trkpt lat="40.169867" lon="-5.065400">
        <ele>1237.0</ele>
        <time>2013-07-06T15:41:40Z</time>
      </trkpt>
      <trkpt lat="40.169850" lon="-5.065283">
        <ele>1238.0</ele>
        <time>2013-07-06T15:41:41Z</time>
      </trkpt>
      <trkpt lat="40.169800" lon="-5.065200">
        <ele>1238.0</ele>
        <time>2013-07-06T15:41:42Z</time>
      </trkpt>
      <trkpt lat="40.169717" lon="-5.065117">
        <ele>1239.0</ele>
        <time>2013-07-06T15:41:43Z</time>
      </trkpt>
      <trkpt lat="40.169633" lon="-5.065067">
        <ele>1239.0</ele>
        <time>2013-07-06T15:41:44Z</time>
      </trkpt>
      <trkpt lat="40.169550" lon="-5.065050">
        <ele>1239.0</ele>
        <time>2013-07-06T15:41:45Z</time>
      </trkpt>
      <trkpt lat="40.169450" lon="-5.065050">
        <ele>1239.0</ele>
        <time>2013-07-06T15:41:46Z</time>
      </trkpt>
      <trkpt lat="40.169367" lon="-5.065067">
        <ele>1239.0</ele>
        <time>2013-07-06T15:41:47Z</time>
      </trkpt>
      <trkpt lat="40.169267" lon="-5.065100">
        <ele>1240.0</ele>
        <time>2013-07-06T15:41:48Z</time>
      </trkpt>
      <trkpt lat="40.169183" lon="-5.065133">
        <ele>1241.0</ele>
        <time>2013-07-06T15:41:49Z</time>
      </trkpt>
      <trkpt lat="40.169100" lon="-5.065183">
        <ele>1241.0</ele>
        <time>2013-07-06T15:41:50Z</time>
      </trkpt>
      <trkpt lat="40.169017" lon="-5.065233">
        <ele>1241.0</ele>
        <time>2013-07-06T15:41:51Z</time>
      </trkpt>
      <trkpt lat="40.168950" lon="-5.065300">
        <ele>1241.0</ele>
        <time>2013-07-06T15:41:52Z</time>
      </trkpt>
      <trkpt lat="40.168867" lon="-5.065367">
        <ele>1242.0</ele>
        <time>2013-07-06T15:41:53Z</time>
      </trkpt>
      <trkpt lat="40.168800" lon="-5.065433">
        <ele>1242.0</ele>
        <time>2013-07-06T15:41:54Z</time>
      </trkpt>
      <trkpt lat="40.168733" lon="-5.065500">
        <ele>1242.0</ele>
        <time>2013-07-06T15:41:55Z</time>
      </trkpt>
      <trkpt lat="40.168683" lon="-5.065583">
        <ele>1242.0</ele>
        <time>2013-07-06T15:41:56Z</time>
      </trkpt>
      <trkpt lat="40.168617" lon="-5.065667">
        <ele>1242.0</ele>
        <time>2013-07-06T15:41:57Z</time>
      </trkpt>
      <trkpt lat="40.168567" lon="-5.065767">
        <ele>1241.0</ele>
        <time>2013-07-06T15:41:58Z</time>
      </trkpt>
      <trkpt lat="40.168533" lon="-5.065867">
        <ele>1241.0</ele>
        <time>2013-07-06T15:41:59Z</time>
      </trkpt>
      <trkpt lat="40.168533" lon="-5.065967">
        <ele>1240.0</ele>
        <time>2013-07-06T15:42:00Z</time>
      </trkpt>
      <trkpt lat="40.168550" lon="-5.066050">
        <ele>1239.0</ele>
        <time>2013-07-06T15:42:01Z</time>
      </trkpt>
      <trkpt lat="40.168583" lon="-5.066133">
        <ele>1239.0</ele>
        <time>2013-07-06T15:42:02Z</time>
      </trkpt>
      <trkpt lat="40.168617" lon="-5.066200">
        <ele>1238.0</ele>
        <time>2013-07-06T15:42:03Z</time>
      </trkpt>
      <trkpt lat="40.168650" lon="-5.066250">
        <ele>1237.0</ele>
        <time>2013-07-06T15:42:04Z</time>
      </trkpt>
      <trkpt lat="40.168700" lon="-5.066300">
        <ele>1236.0</ele>
        <time>2013-07-06T15:42:05Z</time>
      </trkpt>
      <trkpt lat="40.168733" lon="-5.066367">
        <ele>1234.0</ele>
        <time>2013-07-06T15:42:06Z</time>
      </trkpt>
      <trkpt lat="40.168767" lon="-5.066450">
        <ele>1232.0</ele>
        <time>2013-07-06T15:42:07Z</time>
      </trkpt>
      <trkpt lat="40.168767" lon="-5.066550">
        <ele>1231.0</ele>
        <time>2013-07-06T15:42:08Z</time>
      </trkpt>
      <trkpt lat="40.168767" lon="-5.066667">
        <ele>1230.0</ele>
        <time>2013-07-06T15:42:09Z</time>
      </trkpt>
      <trkpt lat="40.168767" lon="-5.066750">
        <ele>1229.0</ele>
        <time>2013-07-06T15:42:10Z</time>
      </trkpt>
      <trkpt lat="40.168767" lon="-5.066833">
        <ele>1229.0</ele>
        <time>2013-07-06T15:42:11Z</time>
      </trkpt>
      <trkpt lat="40.168750" lon="-5.066883">
        <ele>1230.0</ele>
        <time>2013-07-06T15:42:12Z</time>
      </trkpt>
      <trkpt lat="40.168733" lon="-5.066950">
        <ele>1229.0</ele>
        <time>2013-07-06T15:42:13Z</time>
      </trkpt>
      <trkpt lat="40.168717" lon="-5.067050">
        <ele>1227.0</ele>
        <time>2013-07-06T15:42:14Z</time>
      </trkpt>
      <trkpt lat="40.168717" lon="-5.067150">
        <ele>1224.0</ele>
        <time>2013-07-06T15:42:15Z</time>
      </trkpt>
      <trkpt lat="40.168700" lon="-5.067267">
        <ele>1222.0</ele>
        <time>2013-07-06T15:42:16Z</time>
      </trkpt>
      <trkpt lat="40.168700" lon="-5.067367">
        <ele>1220.0</ele>
        <time>2013-07-06T15:42:17Z</time>
      </trkpt>
      <trkpt lat="40.168700" lon="-5.067450">
        <ele>1220.0</ele>
        <time>2013-07-06T15:42:18Z</time>
      </trkpt>
      <trkpt lat="40.168700" lon="-5.067533">
        <ele>1219.0</ele>
        <time>2013-07-06T15:42:19Z</time>
      </trkpt>
      <trkpt lat="40.168717" lon="-5.067633">
        <ele>1218.0</ele>
        <time>2013-07-06T15:42:20Z</time>
      </trkpt>
      <trkpt lat="40.168733" lon="-5.067717">
        <ele>1215.0</ele>
        <time>2013-07-06T15:42:21Z</time>
      </trkpt>
      <trkpt lat="40.168733" lon="-5.067833">
        <ele>1213.0</ele>
        <time>2013-07-06T15:42:22Z</time>
      </trkpt>
      <trkpt lat="40.168750" lon="-5.067933">
        <ele>1212.0</ele>
        <time>2013-07-06T15:42:23Z</time>
      </trkpt>
      <trkpt lat="40.168750" lon="-5.068033">
        <ele>1211.0</ele>
        <time>2013-07-06T15:42:24Z</time>
      </trkpt>
      <trkpt lat="40.168750" lon="-5.068117">
        <ele>1210.0</ele>
        <time>2013-07-06T15:42:25Z</time>
      </trkpt>
      <trkpt lat="40.168750" lon="-5.068217">
        <ele>1209.0</ele>
        <time>2013-07-06T15:42:26Z</time>
      </trkpt>
      <trkpt lat="40.168733" lon="-5.068300">
        <ele>1208.0</ele>
        <time>2013-07-06T15:42:27Z</time>
      </trkpt>
      <trkpt lat="40.168733" lon="-5.068383">
        <ele>1207.0</ele>
        <time>2013-07-06T15:42:28Z</time>
      </trkpt>
      <trkpt lat="40.168733" lon="-5.068483">
        <ele>1206.0</ele>
        <time>2013-07-06T15:42:29Z</time>
      </trkpt>
      <trkpt lat="40.168733" lon="-5.068583">
        <ele>1205.0</ele>
        <time>2013-07-06T15:42:30Z</time>
      </trkpt>
      <trkpt lat="40.168717" lon="-5.068667">
        <ele>1203.0</ele>
        <time>2013-07-06T15:42:31Z</time>
      </trkpt>
      <trkpt lat="40.168717" lon="-5.068767">
        <ele>1202.0</ele>
        <time>2013-07-06T15:42:32Z</time>
      </trkpt>
      <trkpt lat="40.168717" lon="-5.068867">
        <ele>1201.0</ele>
        <time>2013-07-06T15:42:33Z</time>
      </trkpt>
      <trkpt lat="40.168700" lon="-5.068950">
        <ele>1201.0</ele>
        <time>2013-07-06T15:42:34Z</time>
      </trkpt>
      <trkpt lat="40.168700" lon="-5.069050">
        <ele>1200.0</ele>
        <time>2013-07-06T15:42:35Z</time>
      </trkpt>
      <trkpt lat="40.168683" lon="-5.069133">
        <ele>1200.0</ele>
        <time>2013-07-06T15:42:36Z</time>
      </trkpt>
      <trkpt lat="40.168683" lon="-5.069233">
        <ele>1199.0</ele>
        <time>2013-07-06T15:42:37Z</time>
      </trkpt>
      <trkpt lat="40.168683" lon="-5.069333">
        <ele>1199.0</ele>
        <time>2013-07-06T15:42:38Z</time>
      </trkpt>
      <trkpt lat="40.168683" lon="-5.069417">
        <ele>1198.0</ele>
        <time>2013-07-06T15:42:39Z</time>
      </trkpt>
      <trkpt lat="40.168683" lon="-5.069500">
        <ele>1197.0</ele>
        <time>2013-07-06T15:42:40Z</time>
      </trkpt>
      <trkpt lat="40.168667" lon="-5.069583">
        <ele>1197.0</ele>
        <time>2013-07-06T15:42:41Z</time>
      </trkpt>
      <trkpt lat="40.168667" lon="-5.069667">
        <ele>1196.0</ele>
        <time>2013-07-06T15:42:42Z</time>
      </trkpt>
      <trkpt lat="40.168650" lon="-5.069750">
        <ele>1195.0</ele>
        <time>2013-07-06T15:42:43Z</time>
      </trkpt>
      <trkpt lat="40.168650" lon="-5.069833">
        <ele>1193.0</ele>
        <time>2013-07-06T15:42:44Z</time>
      </trkpt>
      <trkpt lat="40.168650" lon="-5.069917">
        <ele>1192.0</ele>
        <time>2013-07-06T15:42:45Z</time>
      </trkpt>
      <trkpt lat="40.168633" lon="-5.069983">
        <ele>1191.0</ele>
        <time>2013-07-06T15:42:46Z</time>
      </trkpt>
      <trkpt lat="40.168633" lon="-5.070083">
        <ele>1189.0</ele>
        <time>2013-07-06T15:42:47Z</time>
      </trkpt>
      <trkpt lat="40.168633" lon="-5.070167">
        <ele>1187.0</ele>
        <time>2013-07-06T15:42:48Z</time>
      </trkpt>
      <trkpt lat="40.168633" lon="-5.070267">
        <ele>1184.0</ele>
        <time>2013-07-06T15:42:49Z</time>
      </trkpt>
      <trkpt lat="40.168633" lon="-5.070350">
        <ele>1183.0</ele>
        <time>2013-07-06T15:42:50Z</time>
      </trkpt>
      <trkpt lat="40.168617" lon="-5.070433">
        <ele>1181.0</ele>
        <time>2013-07-06T15:42:51Z</time>
      </trkpt>
      <trkpt lat="40.168617" lon="-5.070500">
        <ele>1179.0</ele>
        <time>2013-07-06T15:42:52Z</time>
      </trkpt>
      <trkpt lat="40.168633" lon="-5.070583">
        <ele>1177.0</ele>
        <time>2013-07-06T15:42:53Z</time>
      </trkpt>
      <trkpt lat="40.168633" lon="-5.070667">
        <ele>1175.0</ele>
        <time>2013-07-06T15:42:54Z</time>
      </trkpt>
      <trkpt lat="40.168633" lon="-5.070767">
        <ele>1173.0</ele>
        <time>2013-07-06T15:42:55Z</time>
      </trkpt>
      <trkpt lat="40.168633" lon="-5.070850">
        <ele>1172.0</ele>
        <time>2013-07-06T15:42:56Z</time>
      </trkpt>
      <trkpt lat="40.168633" lon="-5.070917">
        <ele>1171.0</ele>
        <time>2013-07-06T15:42:57Z</time>
      </trkpt>
      <trkpt lat="40.168633" lon="-5.071000">
        <ele>1170.0</ele>
        <time>2013-07-06T15:42:58Z</time>
      </trkpt>
      <trkpt lat="40.168617" lon="-5.071083">
        <ele>1168.0</ele>
        <time>2013-07-06T15:42:59Z</time>
      </trkpt>
      <trkpt lat="40.168633" lon="-5.071167">
        <ele>1166.0</ele>
        <time>2013-07-06T15:43:00Z</time>
      </trkpt>
      <trkpt lat="40.168650" lon="-5.071267">
        <ele>1164.0</ele>
        <time>2013-07-06T15:43:01Z</time>
      </trkpt>
      <trkpt lat="40.168650" lon="-5.071367">
        <ele>1163.0</ele>
        <time>2013-07-06T15:43:02Z</time>
      </trkpt>
      <trkpt lat="40.168650" lon="-5.071467">
        <ele>1161.0</ele>
        <time>2013-07-06T15:43:03Z</time>
      </trkpt>
      <trkpt lat="40.168650" lon="-5.071550">
        <ele>1161.0</ele>
        <time>2013-07-06T15:43:04Z</time>
      </trkpt>
      <trkpt lat="40.168650" lon="-5.071650">
        <ele>1160.0</ele>
        <time>2013-07-06T15:43:05Z</time>
      </trkpt>
      <trkpt lat="40.168650" lon="-5.071733">
        <ele>1159.0</ele>
        <time>2013-07-06T15:43:06Z</time>
      </trkpt>
      <trkpt lat="40.168650" lon="-5.071833">
        <ele>1157.0</ele>
        <time>2013-07-06T15:43:07Z</time>
      </trkpt>
      <trkpt lat="40.168650" lon="-5.071950">
        <ele>1155.0</ele>
        <time>2013-07-06T15:43:08Z</time>
      </trkpt>
      <trkpt lat="40.168650" lon="-5.072050">
        <ele>1154.0</ele>
        <time>2013-07-06T15:43:09Z</time>
      </trkpt>
      <trkpt lat="40.168650" lon="-5.072133">
        <ele>1153.0</ele>
        <time>2013-07-06T15:43:10Z</time>
      </trkpt>
      <trkpt lat="40.168650" lon="-5.072233">
        <ele>1152.0</ele>
        <time>2013-07-06T15:43:11Z</time>
      </trkpt>
      <trkpt lat="40.168650" lon="-5.072350">
        <ele>1151.0</ele>
        <time>2013-07-06T15:43:12Z</time>
      </trkpt>
      <trkpt lat="40.168650" lon="-5.072450">
        <ele>1149.0</ele>
        <time>2013-07-06T15:43:13Z</time>
      </trkpt>
      <trkpt lat="40.168667" lon="-5.072567">
        <ele>1148.0</ele>
        <time>2013-07-06T15:43:14Z</time>
      </trkpt>
      <trkpt lat="40.168667" lon="-5.072683">
        <ele>1147.0</ele>
        <time>2013-07-06T15:43:15Z</time>
      </trkpt>
      <trkpt lat="40.168667" lon="-5.072783">
        <ele>1145.0</ele>
        <time>2013-07-06T15:43:16Z</time>
      </trkpt>
      <trkpt lat="40.168667" lon="-5.072883">
        <ele>1144.0</ele>
        <time>2013-07-06T15:43:17Z</time>
      </trkpt>
      <trkpt lat="40.168667" lon="-5.073000">
        <ele>1142.0</ele>
        <time>2013-07-06T15:43:18Z</time>
      </trkpt>
      <trkpt lat="40.168667" lon="-5.073083">
        <ele>1141.0</ele>
        <time>2013-07-06T15:43:19Z</time>
      </trkpt>
      <trkpt lat="40.168683" lon="-5.073183">
        <ele>1138.0</ele>
        <time>2013-07-06T15:43:20Z</time>
      </trkpt>
      <trkpt lat="40.168683" lon="-5.073283">
        <ele>1136.0</ele>
        <time>2013-07-06T15:43:21Z</time>
      </trkpt>
      <trkpt lat="40.168683" lon="-5.073400">
        <ele>1133.0</ele>
        <time>2013-07-06T15:43:22Z</time>
      </trkpt>
      <trkpt lat="40.168683" lon="-5.073517">
        <ele>1130.0</ele>
        <time>2013-07-06T15:43:23Z</time>
      </trkpt>
      <trkpt lat="40.168683" lon="-5.073733">
        <ele>1125.0</ele>
        <time>2013-07-06T15:43:25Z</time>
      </trkpt>
      <trkpt lat="40.168683" lon="-5.073833">
        <ele>1123.0</ele>
        <time>2013-07-06T15:43:26Z</time>
      </trkpt>
      <trkpt lat="40.168650" lon="-5.074050">
        <ele>1117.0</ele>
        <time>2013-07-06T15:43:28Z</time>
      </trkpt>
      <trkpt lat="40.168633" lon="-5.074167">
        <ele>1115.0</ele>
        <time>2013-07-06T15:43:29Z</time>
      </trkpt>
      <trkpt lat="40.168600" lon="-5.074283">
        <ele>1112.0</ele>
        <time>2013-07-06T15:43:30Z</time>
      </trkpt>
      <trkpt lat="40.168600" lon="-5.074400">
        <ele>1111.0</ele>
        <time>2013-07-06T15:43:31Z</time>
      </trkpt>
      <trkpt lat="40.168567" lon="-5.074500">
        <ele>1110.0</ele>
        <time>2013-07-06T15:43:32Z</time>
      </trkpt>
      <trkpt lat="40.168550" lon="-5.074617">
        <ele>1109.0</ele>
        <time>2013-07-06T15:43:33Z</time>
      </trkpt>
      <trkpt lat="40.168533" lon="-5.074733">
        <ele>1107.0</ele>
        <time>2013-07-06T15:43:34Z</time>
      </trkpt>
      <trkpt lat="40.168533" lon="-5.074850">
        <ele>1105.0</ele>
        <time>2013-07-06T15:43:35Z</time>
      </trkpt>
      <trkpt lat="40.168517" lon="-5.074950">
        <ele>1104.0</ele>
        <time>2013-07-06T15:43:36Z</time>
      </trkpt>
      <trkpt lat="40.168500" lon="-5.075150">
        <ele>1103.0</ele>
        <time>2013-07-06T15:43:38Z</time>
      </trkpt>
      <trkpt lat="40.168483" lon="-5.075250">
        <ele>1102.0</ele>
        <time>2013-07-06T15:43:39Z</time>
      </trkpt>
      <trkpt lat="40.168467" lon="-5.075350">
        <ele>1100.0</ele>
        <time>2013-07-06T15:43:40Z</time>
      </trkpt>
      <trkpt lat="40.168450" lon="-5.075450">
        <ele>1098.0</ele>
        <time>2013-07-06T15:43:41Z</time>
      </trkpt>
      <trkpt lat="40.168417" lon="-5.075567">
        <ele>1096.0</ele>
        <time>2013-07-06T15:43:42Z</time>
      </trkpt>
      <trkpt lat="40.168400" lon="-5.075683">
        <ele>1094.0</ele>
        <time>2013-07-06T15:43:43Z</time>
      </trkpt>
      <trkpt lat="40.168367" lon="-5.075783">
        <ele>1093.0</ele>
        <time>2013-07-06T15:43:44Z</time>
      </trkpt>
      <trkpt lat="40.168333" lon="-5.075867">
        <ele>1091.0</ele>
        <time>2013-07-06T15:43:45Z</time>
      </trkpt>
      <trkpt lat="40.168283" lon="-5.075967">
        <ele>1089.0</ele>
        <time>2013-07-06T15:43:46Z</time>
      </trkpt>
      <trkpt lat="40.168233" lon="-5.076050">
        <ele>1086.0</ele>
        <time>2013-07-06T15:43:47Z</time>
      </trkpt>
      <trkpt lat="40.168183" lon="-5.076150">
        <ele>1083.0</ele>
        <time>2013-07-06T15:43:48Z</time>
      </trkpt>
      <trkpt lat="40.168133" lon="-5.076267">
        <ele>1080.0</ele>
        <time>2013-07-06T15:43:49Z</time>
      </trkpt>
      <trkpt lat="40.168117" lon="-5.076383">
        <ele>1076.0</ele>
        <time>2013-07-06T15:43:50Z</time>
      </trkpt>
      <trkpt lat="40.168083" lon="-5.076500">
        <ele>1074.0</ele>
        <time>2013-07-06T15:43:51Z</time>
      </trkpt>
      <trkpt lat="40.168067" lon="-5.076617">
        <ele>1071.0</ele>
        <time>2013-07-06T15:43:52Z</time>
      </trkpt>
      <trkpt lat="40.168033" lon="-5.076717">
        <ele>1069.0</ele>
        <time>2013-07-06T15:43:53Z</time>
      </trkpt>
      <trkpt lat="40.168017" lon="-5.076817">
        <ele>1067.0</ele>
        <time>2013-07-06T15:43:54Z</time>
      </trkpt>
      <trkpt lat="40.168000" lon="-5.076933">
        <ele>1063.0</ele>
        <time>2013-07-06T15:43:55Z</time>
      </trkpt>
      <trkpt lat="40.168000" lon="-5.077033">
        <ele>1060.0</ele>
        <time>2013-07-06T15:43:56Z</time>
      </trkpt>
      <trkpt lat="40.168000" lon="-5.077150">
        <ele>1056.0</ele>
        <time>2013-07-06T15:43:57Z</time>
      </trkpt>
      <trkpt lat="40.168000" lon="-5.077267">
        <ele>1053.0</ele>
        <time>2013-07-06T15:43:58Z</time>
      </trkpt>
      <trkpt lat="40.168000" lon="-5.077400">
        <ele>1050.0</ele>
        <time>2013-07-06T15:43:59Z</time>
      </trkpt>
      <trkpt lat="40.168000" lon="-5.077517">
        <ele>1046.0</ele>
        <time>2013-07-06T15:44:00Z</time>
      </trkpt>
      <trkpt lat="40.168000" lon="-5.077633">
        <ele>1042.0</ele>
        <time>2013-07-06T15:44:01Z</time>
      </trkpt>
      <trkpt lat="40.168000" lon="-5.077750">
        <ele>1039.0</ele>
        <time>2013-07-06T15:44:02Z</time>
      </trkpt>
      <trkpt lat="40.168000" lon="-5.077867">
        <ele>1035.0</ele>
        <time>2013-07-06T15:44:03Z</time>
      </trkpt>
      <trkpt lat="40.168000" lon="-5.077983">
        <ele>1032.0</ele>
        <time>2013-07-06T15:44:04Z</time>
      </trkpt>
      <trkpt lat="40.168000" lon="-5.078100">
        <ele>1028.0</ele>
        <time>2013-07-06T15:44:05Z</time>
      </trkpt>
      <trkpt lat="40.167983" lon="-5.078200">
        <ele>1025.0</ele>
        <time>2013-07-06T15:44:06Z</time>
      </trkpt>
      <trkpt lat="40.167983" lon="-5.078317">
        <ele>1022.0</ele>
        <time>2013-07-06T15:44:07Z</time>
      </trkpt>
      <trkpt lat="40.167967" lon="-5.078433">
        <ele>1019.0</ele>
        <time>2013-07-06T15:44:08Z</time>
      </trkpt>
      <trkpt lat="40.167950" lon="-5.078533">
        <ele>1016.0</ele>
        <time>2013-07-06T15:44:09Z</time>
      </trkpt>
      <trkpt lat="40.167933" lon="-5.078650">
        <ele>1013.0</ele>
        <time>2013-07-06T15:44:10Z</time>
      </trkpt>
      <trkpt lat="40.167917" lon="-5.078750">
        <ele>1011.0</ele>
        <time>2013-07-06T15:44:11Z</time>
      </trkpt>
      <trkpt lat="40.167917" lon="-5.078867">
        <ele>1009.0</ele>
        <time>2013-07-06T15:44:12Z</time>
      </trkpt>
      <trkpt lat="40.167900" lon="-5.078967">
        <ele>1006.0</ele>
        <time>2013-07-06T15:44:13Z</time>
      </trkpt>
      <trkpt lat="40.167883" lon="-5.079083">
        <ele>1004.0</ele>
        <time>2013-07-06T15:44:14Z</time>
      </trkpt>
      <trkpt lat="40.167883" lon="-5.079200">
        <ele>1001.0</ele>
        <time>2013-07-06T15:44:15Z</time>
      </trkpt>
      <trkpt lat="40.167867" lon="-5.079300">
        <ele>998.0</ele>
        <time>2013-07-06T15:44:16Z</time>
      </trkpt>
      <trkpt lat="40.167883" lon="-5.079400">
        <ele>996.0</ele>
        <time>2013-07-06T15:44:17Z</time>
      </trkpt>
      <trkpt lat="40.167883" lon="-5.079517">
        <ele>994.0</ele>
        <time>2013-07-06T15:44:18Z</time>
      </trkpt>
      <trkpt lat="40.167883" lon="-5.079633">
        <ele>991.0</ele>
        <time>2013-07-06T15:44:19Z</time>
      </trkpt>
      <trkpt lat="40.167900" lon="-5.079750">
        <ele>989.0</ele>
        <time>2013-07-06T15:44:20Z</time>
      </trkpt>
      <trkpt lat="40.167917" lon="-5.079867">
        <ele>987.0</ele>
        <time>2013-07-06T15:44:21Z</time>
      </trkpt>
      <trkpt lat="40.167933" lon="-5.079983">
        <ele>985.0</ele>
        <time>2013-07-06T15:44:22Z</time>
      </trkpt>
      <trkpt lat="40.167950" lon="-5.080100">
        <ele>983.0</ele>
        <time>2013-07-06T15:44:23Z</time>
      </trkpt>
      <trkpt lat="40.167950" lon="-5.080200">
        <ele>981.0</ele>
        <time>2013-07-06T15:44:24Z</time>
      </trkpt>
      <trkpt lat="40.167950" lon="-5.080317">
        <ele>980.0</ele>
        <time>2013-07-06T15:44:25Z</time>
      </trkpt>
      <trkpt lat="40.167967" lon="-5.080417">
        <ele>978.0</ele>
        <time>2013-07-06T15:44:26Z</time>
      </trkpt>
      <trkpt lat="40.167967" lon="-5.080533">
        <ele>975.0</ele>
        <time>2013-07-06T15:44:27Z</time>
      </trkpt>
      <trkpt lat="40.167983" lon="-5.080667">
        <ele>973.0</ele>
        <time>2013-07-06T15:44:28Z</time>
      </trkpt>
      <trkpt lat="40.168000" lon="-5.080783">
        <ele>970.0</ele>
        <time>2013-07-06T15:44:29Z</time>
      </trkpt>
      <trkpt lat="40.168017" lon="-5.080900">
        <ele>969.0</ele>
        <time>2013-07-06T15:44:30Z</time>
      </trkpt>
      <trkpt lat="40.168017" lon="-5.081017">
        <ele>967.0</ele>
        <time>2013-07-06T15:44:31Z</time>
      </trkpt>
      <trkpt lat="40.168033" lon="-5.081117">
        <ele>965.0</ele>
        <time>2013-07-06T15:44:32Z</time>
      </trkpt>
      <trkpt lat="40.168067" lon="-5.081233">
        <ele>963.0</ele>
        <time>2013-07-06T15:44:33Z</time>
      </trkpt>
      <trkpt lat="40.168083" lon="-5.081350">
        <ele>961.0</ele>
        <time>2013-07-06T15:44:34Z</time>
      </trkpt>
      <trkpt lat="40.168100" lon="-5.081467">
        <ele>958.0</ele>
        <time>2013-07-06T15:44:35Z</time>
      </trkpt>
      <trkpt lat="40.168100" lon="-5.081600">
        <ele>956.0</ele>
        <time>2013-07-06T15:44:36Z</time>
      </trkpt>
      <trkpt lat="40.168117" lon="-5.081717">
        <ele>955.0</ele>
        <time>2013-07-06T15:44:37Z</time>
      </trkpt>
      <trkpt lat="40.168117" lon="-5.081817">
        <ele>953.0</ele>
        <time>2013-07-06T15:44:38Z</time>
      </trkpt>
      <trkpt lat="40.168133" lon="-5.081933">
        <ele>951.0</ele>
        <time>2013-07-06T15:44:39Z</time>
      </trkpt>
      <trkpt lat="40.168150" lon="-5.082050">
        <ele>948.0</ele>
        <time>2013-07-06T15:44:40Z</time>
      </trkpt>
      <trkpt lat="40.168167" lon="-5.082167">
        <ele>944.0</ele>
        <time>2013-07-06T15:44:41Z</time>
      </trkpt>
      <trkpt lat="40.168183" lon="-5.082300">
        <ele>941.0</ele>
        <time>2013-07-06T15:44:42Z</time>
      </trkpt>
      <trkpt lat="40.168200" lon="-5.082417">
        <ele>938.0</ele>
        <time>2013-07-06T15:44:43Z</time>
      </trkpt>
      <trkpt lat="40.168217" lon="-5.082550">
        <ele>935.0</ele>
        <time>2013-07-06T15:44:44Z</time>
      </trkpt>
      <trkpt lat="40.168233" lon="-5.082667">
        <ele>932.0</ele>
        <time>2013-07-06T15:44:45Z</time>
      </trkpt>
      <trkpt lat="40.168250" lon="-5.082800">
        <ele>930.0</ele>
        <time>2013-07-06T15:44:46Z</time>
      </trkpt>
      <trkpt lat="40.168267" lon="-5.082917">
        <ele>928.0</ele>
        <time>2013-07-06T15:44:47Z</time>
      </trkpt>
      <trkpt lat="40.168283" lon="-5.083033">
        <ele>925.0</ele>
        <time>2013-07-06T15:44:48Z</time>
      </trkpt>
      <trkpt lat="40.168300" lon="-5.083167">
        <ele>922.0</ele>
        <time>2013-07-06T15:44:49Z</time>
      </trkpt>
      <trkpt lat="40.168333" lon="-5.083300">
        <ele>919.0</ele>
        <time>2013-07-06T15:44:50Z</time>
      </trkpt>
      <trkpt lat="40.168350" lon="-5.083417">
        <ele>917.0</ele>
        <time>2013-07-06T15:44:51Z</time>
      </trkpt>
      <trkpt lat="40.168367" lon="-5.083533">
        <ele>914.0</ele>
        <time>2013-07-06T15:44:52Z</time>
      </trkpt>
      <trkpt lat="40.168383" lon="-5.083650">
        <ele>912.0</ele>
        <time>2013-07-06T15:44:53Z</time>
      </trkpt>
      <trkpt lat="40.168400" lon="-5.083767">
        <ele>910.0</ele>
        <time>2013-07-06T15:44:54Z</time>
      </trkpt>
      <trkpt lat="40.168417" lon="-5.083883">
        <ele>907.0</ele>
        <time>2013-07-06T15:44:55Z</time>
      </trkpt>
      <trkpt lat="40.168433" lon="-5.084000">
        <ele>904.0</ele>
        <time>2013-07-06T15:44:56Z</time>
      </trkpt>
      <trkpt lat="40.168467" lon="-5.084133">
        <ele>901.0</ele>
        <time>2013-07-06T15:44:57Z</time>
      </trkpt>
      <trkpt lat="40.168483" lon="-5.084250">
        <ele>898.0</ele>
        <time>2013-07-06T15:44:58Z</time>
      </trkpt>
      <trkpt lat="40.168500" lon="-5.084367">
        <ele>896.0</ele>
        <time>2013-07-06T15:44:59Z</time>
      </trkpt>
      <trkpt lat="40.168517" lon="-5.084483">
        <ele>894.0</ele>
        <time>2013-07-06T15:45:00Z</time>
      </trkpt>
      <trkpt lat="40.168550" lon="-5.084600">
        <ele>892.0</ele>
        <time>2013-07-06T15:45:01Z</time>
      </trkpt>
      <trkpt lat="40.168583" lon="-5.084717">
        <ele>890.0</ele>
        <time>2013-07-06T15:45:02Z</time>
      </trkpt>
      <trkpt lat="40.168617" lon="-5.084833">
        <ele>887.0</ele>
        <time>2013-07-06T15:45:03Z</time>
      </trkpt>
      <trkpt lat="40.168633" lon="-5.084967">
        <ele>884.0</ele>
        <time>2013-07-06T15:45:04Z</time>
      </trkpt>
      <trkpt lat="40.168667" lon="-5.085083">
        <ele>882.0</ele>
        <time>2013-07-06T15:45:05Z</time>
      </trkpt>
      <trkpt lat="40.168700" lon="-5.085183">
        <ele>881.0</ele>
        <time>2013-07-06T15:45:06Z</time>
      </trkpt>
      <trkpt lat="40.168717" lon="-5.085283">
        <ele>879.0</ele>
        <time>2013-07-06T15:45:07Z</time>
      </trkpt>
      <trkpt lat="40.168733" lon="-5.085400">
        <ele>877.0</ele>
        <time>2013-07-06T15:45:08Z</time>
      </trkpt>
      <trkpt lat="40.168767" lon="-5.085533">
        <ele>875.0</ele>
        <time>2013-07-06T15:45:09Z</time>
      </trkpt>
      <trkpt lat="40.168783" lon="-5.085650">
        <ele>873.0</ele>
        <time>2013-07-06T15:45:10Z</time>
      </trkpt>
      <trkpt lat="40.168800" lon="-5.085783">
        <ele>872.0</ele>
        <time>2013-07-06T15:45:11Z</time>
      </trkpt>
      <trkpt lat="40.168817" lon="-5.085883">
        <ele>871.0</ele>
        <time>2013-07-06T15:45:12Z</time>
      </trkpt>
      <trkpt lat="40.168850" lon="-5.085983">
        <ele>870.0</ele>
        <time>2013-07-06T15:45:13Z</time>
      </trkpt>
      <trkpt lat="40.168867" lon="-5.086100">
        <ele>868.0</ele>
        <time>2013-07-06T15:45:14Z</time>
      </trkpt>
      <trkpt lat="40.168867" lon="-5.086217">
        <ele>866.0</ele>
        <time>2013-07-06T15:45:15Z</time>
      </trkpt>
      <trkpt lat="40.168883" lon="-5.086333">
        <ele>862.0</ele>
        <time>2013-07-06T15:45:16Z</time>
      </trkpt>
      <trkpt lat="40.168917" lon="-5.086467">
        <ele>860.0</ele>
        <time>2013-07-06T15:45:17Z</time>
      </trkpt>
      <trkpt lat="40.168933" lon="-5.086600">
        <ele>858.0</ele>
        <time>2013-07-06T15:45:18Z</time>
      </trkpt>
      <trkpt lat="40.168950" lon="-5.086700">
        <ele>857.0</ele>
        <time>2013-07-06T15:45:19Z</time>
      </trkpt>
      <trkpt lat="40.168967" lon="-5.086817">
        <ele>856.0</ele>
        <time>2013-07-06T15:45:20Z</time>
      </trkpt>
      <trkpt lat="40.168967" lon="-5.086933">
        <ele>853.0</ele>
        <time>2013-07-06T15:45:21Z</time>
      </trkpt>
      <trkpt lat="40.168967" lon="-5.087067">
        <ele>851.0</ele>
        <time>2013-07-06T15:45:22Z</time>
      </trkpt>
      <trkpt lat="40.168983" lon="-5.087200">
        <ele>849.0</ele>
        <time>2013-07-06T15:45:23Z</time>
      </trkpt>
      <trkpt lat="40.168983" lon="-5.087300">
        <ele>847.0</ele>
        <time>2013-07-06T15:45:24Z</time>
      </trkpt>
      <trkpt lat="40.168983" lon="-5.087417">
        <ele>845.0</ele>
        <time>2013-07-06T15:45:25Z</time>
      </trkpt>
      <trkpt lat="40.168983" lon="-5.087533">
        <ele>842.0</ele>
        <time>2013-07-06T15:45:26Z</time>
      </trkpt>
      <trkpt lat="40.169000" lon="-5.087650">
        <ele>840.0</ele>
        <time>2013-07-06T15:45:27Z</time>
      </trkpt>
      <trkpt lat="40.169017" lon="-5.087767">
        <ele>838.0</ele>
        <time>2013-07-06T15:45:28Z</time>
      </trkpt>
      <trkpt lat="40.169033" lon="-5.087900">
        <ele>837.0</ele>
        <time>2013-07-06T15:45:29Z</time>
      </trkpt>
      <trkpt lat="40.169050" lon="-5.088017">
        <ele>836.0</ele>
        <time>2013-07-06T15:45:30Z</time>
      </trkpt>
      <trkpt lat="40.169050" lon="-5.088133">
        <ele>835.0</ele>
        <time>2013-07-06T15:45:31Z</time>
      </trkpt>
      <trkpt lat="40.169067" lon="-5.088267">
        <ele>833.0</ele>
        <time>2013-07-06T15:45:32Z</time>
      </trkpt>
      <trkpt lat="40.169083" lon="-5.088383">
        <ele>832.0</ele>
        <time>2013-07-06T15:45:33Z</time>
      </trkpt>
      <trkpt lat="40.169100" lon="-5.088517">
        <ele>831.0</ele>
        <time>2013-07-06T15:45:34Z</time>
      </trkpt>
      <trkpt lat="40.169117" lon="-5.088633">
        <ele>830.0</ele>
        <time>2013-07-06T15:45:35Z</time>
      </trkpt>
      <trkpt lat="40.169133" lon="-5.088750">
        <ele>829.0</ele>
        <time>2013-07-06T15:45:36Z</time>
      </trkpt>
      <trkpt lat="40.169150" lon="-5.088883">
        <ele>827.0</ele>
        <time>2013-07-06T15:45:37Z</time>
      </trkpt>
      <trkpt lat="40.169150" lon="-5.089017">
        <ele>826.0</ele>
        <time>2013-07-06T15:45:38Z</time>
      </trkpt>
      <trkpt lat="40.169167" lon="-5.089150">
        <ele>824.0</ele>
        <time>2013-07-06T15:45:39Z</time>
      </trkpt>
      <trkpt lat="40.169183" lon="-5.089267">
        <ele>823.0</ele>
        <time>2013-07-06T15:45:40Z</time>
      </trkpt>
      <trkpt lat="40.169183" lon="-5.089383">
        <ele>822.0</ele>
        <time>2013-07-06T15:45:41Z</time>
      </trkpt>
      <trkpt lat="40.169200" lon="-5.089517">
        <ele>821.0</ele>
        <time>2013-07-06T15:45:42Z</time>
      </trkpt>
      <trkpt lat="40.169200" lon="-5.089633">
        <ele>820.0</ele>
        <time>2013-07-06T15:45:43Z</time>
      </trkpt>
      <trkpt lat="40.169217" lon="-5.089767">
        <ele>818.0</ele>
        <time>2013-07-06T15:45:44Z</time>
      </trkpt>
      <trkpt lat="40.169217" lon="-5.089900">
        <ele>815.0</ele>
        <time>2013-07-06T15:45:45Z</time>
      </trkpt>
      <trkpt lat="40.169233" lon="-5.090033">
        <ele>813.0</ele>
        <time>2013-07-06T15:45:46Z</time>
      </trkpt>
      <trkpt lat="40.169233" lon="-5.090167">
        <ele>812.0</ele>
        <time>2013-07-06T15:45:47Z</time>
      </trkpt>
      <trkpt lat="40.169250" lon="-5.090283">
        <ele>810.0</ele>
        <time>2013-07-06T15:45:48Z</time>
      </trkpt>
      <trkpt lat="40.169267" lon="-5.090417">
        <ele>808.0</ele>
        <time>2013-07-06T15:45:49Z</time>
      </trkpt>
      <trkpt lat="40.169283" lon="-5.090550">
        <ele>806.0</ele>
        <time>2013-07-06T15:45:50Z</time>
      </trkpt>
      <trkpt lat="40.169300" lon="-5.090683">
        <ele>803.0</ele>
        <time>2013-07-06T15:45:51Z</time>
      </trkpt>
      <trkpt lat="40.169317" lon="-5.090817">
        <ele>801.0</ele>
        <time>2013-07-06T15:45:52Z</time>
      </trkpt>
      <trkpt lat="40.169350" lon="-5.090950">
        <ele>799.0</ele>
        <time>2013-07-06T15:45:53Z</time>
      </trkpt>
      <trkpt lat="40.169367" lon="-5.091083">
        <ele>797.0</ele>
        <time>2013-07-06T15:45:54Z</time>
      </trkpt>
      <trkpt lat="40.169400" lon="-5.091200">
        <ele>796.0</ele>
        <time>2013-07-06T15:45:55Z</time>
      </trkpt>
      <trkpt lat="40.169417" lon="-5.091317">
        <ele>794.0</ele>
        <time>2013-07-06T15:45:56Z</time>
      </trkpt>
      <trkpt lat="40.169450" lon="-5.091450">
        <ele>791.0</ele>
        <time>2013-07-06T15:45:57Z</time>
      </trkpt>
      <trkpt lat="40.169467" lon="-5.091583">
        <ele>789.0</ele>
        <time>2013-07-06T15:45:58Z</time>
      </trkpt>
      <trkpt lat="40.169500" lon="-5.091700">
        <ele>786.0</ele>
        <time>2013-07-06T15:45:59Z</time>
      </trkpt>
      <trkpt lat="40.169533" lon="-5.091817">
        <ele>784.0</ele>
        <time>2013-07-06T15:46:00Z</time>
      </trkpt>
      <trkpt lat="40.169550" lon="-5.091933">
        <ele>782.0</ele>
        <time>2013-07-06T15:46:01Z</time>
      </trkpt>
      <trkpt lat="40.169567" lon="-5.092067">
        <ele>780.0</ele>
        <time>2013-07-06T15:46:02Z</time>
      </trkpt>
      <trkpt lat="40.169583" lon="-5.092183">
        <ele>777.0</ele>
        <time>2013-07-06T15:46:03Z</time>
      </trkpt>
      <trkpt lat="40.169617" lon="-5.092317">
        <ele>774.0</ele>
        <time>2013-07-06T15:46:04Z</time>
      </trkpt>
      <trkpt lat="40.169633" lon="-5.092450">
        <ele>772.0</ele>
        <time>2013-07-06T15:46:05Z</time>
      </trkpt>
      <trkpt lat="40.169650" lon="-5.092583">
        <ele>770.0</ele>
        <time>2013-07-06T15:46:06Z</time>
      </trkpt>
      <trkpt lat="40.169667" lon="-5.092700">
        <ele>768.0</ele>
        <time>2013-07-06T15:46:07Z</time>
      </trkpt>
      <trkpt lat="40.169700" lon="-5.092833">
        <ele>766.0</ele>
        <time>2013-07-06T15:46:08Z</time>
      </trkpt>
      <trkpt lat="40.169717" lon="-5.092967">
        <ele>764.0</ele>
        <time>2013-07-06T15:46:09Z</time>
      </trkpt>
      <trkpt lat="40.169733" lon="-5.093100">
        <ele>761.0</ele>
        <time>2013-07-06T15:46:10Z</time>
      </trkpt>
      <trkpt lat="40.169767" lon="-5.093233">
        <ele>759.0</ele>
        <time>2013-07-06T15:46:11Z</time>
      </trkpt>
      <trkpt lat="40.169783" lon="-5.093367">
        <ele>757.0</ele>
        <time>2013-07-06T15:46:12Z</time>
      </trkpt>
      <trkpt lat="40.169817" lon="-5.093500">
        <ele>755.0</ele>
        <time>2013-07-06T15:46:13Z</time>
      </trkpt>
      <trkpt lat="40.169833" lon="-5.093633">
        <ele>754.0</ele>
        <time>2013-07-06T15:46:14Z</time>
      </trkpt>
      <trkpt lat="40.169850" lon="-5.093750">
        <ele>752.0</ele>
        <time>2013-07-06T15:46:15Z</time>
      </trkpt>
      <trkpt lat="40.169883" lon="-5.093883">
        <ele>750.0</ele>
        <time>2013-07-06T15:46:16Z</time>
      </trkpt>
      <trkpt lat="40.169900" lon="-5.094017">
        <ele>747.0</ele>
        <time>2013-07-06T15:46:17Z</time>
      </trkpt>
      <trkpt lat="40.169933" lon="-5.094150">
        <ele>744.0</ele>
        <time>2013-07-06T15:46:18Z</time>
      </trkpt>
      <trkpt lat="40.169950" lon="-5.094267">
        <ele>741.0</ele>
        <time>2013-07-06T15:46:19Z</time>
      </trkpt>
      <trkpt lat="40.169967" lon="-5.094417">
        <ele>738.0</ele>
        <time>2013-07-06T15:46:20Z</time>
      </trkpt>
      <trkpt lat="40.169967" lon="-5.094550">
        <ele>735.0</ele>
        <time>2013-07-06T15:46:21Z</time>
      </trkpt>
      <trkpt lat="40.169983" lon="-5.094683">
        <ele>733.0</ele>
        <time>2013-07-06T15:46:22Z</time>
      </trkpt>
      <trkpt lat="40.169983" lon="-5.094817">
        <ele>731.0</ele>
        <time>2013-07-06T15:46:23Z</time>
      </trkpt>
      <trkpt lat="40.170000" lon="-5.094950">
        <ele>728.0</ele>
        <time>2013-07-06T15:46:24Z</time>
      </trkpt>
      <trkpt lat="40.170033" lon="-5.095100">
        <ele>726.0</ele>
        <time>2013-07-06T15:46:25Z</time>
      </trkpt>
      <trkpt lat="40.170050" lon="-5.095233">
        <ele>724.0</ele>
        <time>2013-07-06T15:46:26Z</time>
      </trkpt>
      <trkpt lat="40.170050" lon="-5.095367">
        <ele>722.0</ele>
        <time>2013-07-06T15:46:27Z</time>
      </trkpt>
      <trkpt lat="40.170067" lon="-5.095483">
        <ele>721.0</ele>
        <time>2013-07-06T15:46:28Z</time>
      </trkpt>
      <trkpt lat="40.170083" lon="-5.095617">
        <ele>719.0</ele>
        <time>2013-07-06T15:46:29Z</time>
      </trkpt>
      <trkpt lat="40.170100" lon="-5.095733">
        <ele>717.0</ele>
        <time>2013-07-06T15:46:30Z</time>
      </trkpt>
      <trkpt lat="40.170117" lon="-5.095867">
        <ele>715.0</ele>
        <time>2013-07-06T15:46:31Z</time>
      </trkpt>
      <trkpt lat="40.170133" lon="-5.096000">
        <ele>713.0</ele>
        <time>2013-07-06T15:46:32Z</time>
      </trkpt>
      <trkpt lat="40.170150" lon="-5.096133">
        <ele>712.0</ele>
        <time>2013-07-06T15:46:33Z</time>
      </trkpt>
      <trkpt lat="40.170183" lon="-5.096250">
        <ele>711.0</ele>
        <time>2013-07-06T15:46:34Z</time>
      </trkpt>
      <trkpt lat="40.170200" lon="-5.096383">
        <ele>710.0</ele>
        <time>2013-07-06T15:46:35Z</time>
      </trkpt>
      <trkpt lat="40.170217" lon="-5.096500">
        <ele>709.0</ele>
        <time>2013-07-06T15:46:36Z</time>
      </trkpt>
      <trkpt lat="40.170250" lon="-5.096633">
        <ele>707.0</ele>
        <time>2013-07-06T15:46:37Z</time>
      </trkpt>
      <trkpt lat="40.170267" lon="-5.096900">
        <ele>705.0</ele>
        <time>2013-07-06T15:46:39Z</time>
      </trkpt>
      <trkpt lat="40.170283" lon="-5.097033">
        <ele>704.0</ele>
        <time>2013-07-06T15:46:40Z</time>
      </trkpt>
      <trkpt lat="40.170300" lon="-5.097150">
        <ele>702.0</ele>
        <time>2013-07-06T15:46:41Z</time>
      </trkpt>
      <trkpt lat="40.170317" lon="-5.097283">
        <ele>701.0</ele>
        <time>2013-07-06T15:46:42Z</time>
      </trkpt>
      <trkpt lat="40.170317" lon="-5.097433">
        <ele>699.0</ele>
        <time>2013-07-06T15:46:43Z</time>
      </trkpt>
      <trkpt lat="40.170317" lon="-5.097567">
        <ele>697.0</ele>
        <time>2013-07-06T15:46:44Z</time>
      </trkpt>
      <trkpt lat="40.170317" lon="-5.097683">
        <ele>696.0</ele>
        <time>2013-07-06T15:46:45Z</time>
      </trkpt>
      <trkpt lat="40.170317" lon="-5.097817">
        <ele>695.0</ele>
        <time>2013-07-06T15:46:46Z</time>
      </trkpt>
      <trkpt lat="40.170317" lon="-5.097967">
        <ele>693.0</ele>
        <time>2013-07-06T15:46:47Z</time>
      </trkpt>
      <trkpt lat="40.170317" lon="-5.098100">
        <ele>692.0</ele>
        <time>2013-07-06T15:46:48Z</time>
      </trkpt>
      <trkpt lat="40.170317" lon="-5.098233">
        <ele>691.0</ele>
        <time>2013-07-06T15:46:49Z</time>
      </trkpt>
      <trkpt lat="40.170333" lon="-5.098617">
        <ele>689.0</ele>
        <time>2013-07-06T15:46:52Z</time>
      </trkpt>
      <trkpt lat="40.170350" lon="-5.099033">
        <ele>685.0</ele>
        <time>2013-07-06T15:46:55Z</time>
      </trkpt>
      <trkpt lat="40.170350" lon="-5.099167">
        <ele>684.0</ele>
        <time>2013-07-06T15:46:56Z</time>
      </trkpt>
      <trkpt lat="40.170367" lon="-5.099300">
        <ele>683.0</ele>
        <time>2013-07-06T15:46:57Z</time>
      </trkpt>
      <trkpt lat="40.170367" lon="-5.099433">
        <ele>682.0</ele>
        <time>2013-07-06T15:46:58Z</time>
      </trkpt>
      <trkpt lat="40.170350" lon="-5.099567">
        <ele>681.0</ele>
        <time>2013-07-06T15:46:59Z</time>
      </trkpt>
      <trkpt lat="40.170350" lon="-5.099700">
        <ele>680.0</ele>
        <time>2013-07-06T15:47:00Z</time>
      </trkpt>
      <trkpt lat="40.170333" lon="-5.099833">
        <ele>679.0</ele>
        <time>2013-07-06T15:47:01Z</time>
      </trkpt>
      <trkpt lat="40.170333" lon="-5.099950">
        <ele>679.0</ele>
        <time>2013-07-06T15:47:02Z</time>
      </trkpt>
      <trkpt lat="40.170317" lon="-5.100083">
        <ele>678.0</ele>
        <time>2013-07-06T15:47:03Z</time>
      </trkpt>
      <trkpt lat="40.170317" lon="-5.100217">
        <ele>677.0</ele>
        <time>2013-07-06T15:47:04Z</time>
      </trkpt>
      <trkpt lat="40.170300" lon="-5.100367">
        <ele>675.0</ele>
        <time>2013-07-06T15:47:05Z</time>
      </trkpt>
      <trkpt lat="40.170283" lon="-5.100500">
        <ele>674.0</ele>
        <time>2013-07-06T15:47:06Z</time>
      </trkpt>
      <trkpt lat="40.170267" lon="-5.100617">
        <ele>674.0</ele>
        <time>2013-07-06T15:47:07Z</time>
      </trkpt>
      <trkpt lat="40.170250" lon="-5.100733">
        <ele>674.0</ele>
        <time>2013-07-06T15:47:08Z</time>
      </trkpt>
      <trkpt lat="40.170217" lon="-5.100850">
        <ele>673.0</ele>
        <time>2013-07-06T15:47:09Z</time>
      </trkpt>
      <trkpt lat="40.170200" lon="-5.100967">
        <ele>673.0</ele>
        <time>2013-07-06T15:47:10Z</time>
      </trkpt>
      <trkpt lat="40.170183" lon="-5.101100">
        <ele>672.0</ele>
        <time>2013-07-06T15:47:11Z</time>
      </trkpt>
      <trkpt lat="40.170167" lon="-5.101250">
        <ele>671.0</ele>
        <time>2013-07-06T15:47:12Z</time>
      </trkpt>
      <trkpt lat="40.170150" lon="-5.101367">
        <ele>671.0</ele>
        <time>2013-07-06T15:47:13Z</time>
      </trkpt>
      <trkpt lat="40.170133" lon="-5.101500">
        <ele>670.0</ele>
        <time>2013-07-06T15:47:14Z</time>
      </trkpt>
      <trkpt lat="40.170117" lon="-5.101617">
        <ele>670.0</ele>
        <time>2013-07-06T15:47:15Z</time>
      </trkpt>
      <trkpt lat="40.170100" lon="-5.101750">
        <ele>669.0</ele>
        <time>2013-07-06T15:47:16Z</time>
      </trkpt>
      <trkpt lat="40.170083" lon="-5.101867">
        <ele>668.0</ele>
        <time>2013-07-06T15:47:17Z</time>
      </trkpt>
      <trkpt lat="40.170067" lon="-5.102000">
        <ele>667.0</ele>
        <time>2013-07-06T15:47:18Z</time>
      </trkpt>
      <trkpt lat="40.170033" lon="-5.102117">
        <ele>666.0</ele>
        <time>2013-07-06T15:47:19Z</time>
      </trkpt>
      <trkpt lat="40.170000" lon="-5.102233">
        <ele>664.0</ele>
        <time>2013-07-06T15:47:20Z</time>
      </trkpt>
      <trkpt lat="40.169967" lon="-5.102333">
        <ele>663.0</ele>
        <time>2013-07-06T15:47:21Z</time>
      </trkpt>
      <trkpt lat="40.169917" lon="-5.102450">
        <ele>661.0</ele>
        <time>2013-07-06T15:47:22Z</time>
      </trkpt>
      <trkpt lat="40.169867" lon="-5.102550">
        <ele>659.0</ele>
        <time>2013-07-06T15:47:23Z</time>
      </trkpt>
      <trkpt lat="40.169817" lon="-5.102667">
        <ele>658.0</ele>
        <time>2013-07-06T15:47:24Z</time>
      </trkpt>
      <trkpt lat="40.169767" lon="-5.102767">
        <ele>657.0</ele>
        <time>2013-07-06T15:47:25Z</time>
      </trkpt>
      <trkpt lat="40.169700" lon="-5.102867">
        <ele>656.0</ele>
        <time>2013-07-06T15:47:26Z</time>
      </trkpt>
      <trkpt lat="40.169650" lon="-5.102967">
        <ele>656.0</ele>
        <time>2013-07-06T15:47:27Z</time>
      </trkpt>
      <trkpt lat="40.169583" lon="-5.103067">
        <ele>656.0</ele>
        <time>2013-07-06T15:47:28Z</time>
      </trkpt>
      <trkpt lat="40.169467" lon="-5.103200">
        <ele>655.0</ele>
        <time>2013-07-06T15:47:30Z</time>
      </trkpt>
      <trkpt lat="40.169400" lon="-5.103283">
        <ele>655.0</ele>
        <time>2013-07-06T15:47:31Z</time>
      </trkpt>
      <trkpt lat="40.169333" lon="-5.103350">
        <ele>653.0</ele>
        <time>2013-07-06T15:47:32Z</time>
      </trkpt>
      <trkpt lat="40.169250" lon="-5.103433">
        <ele>651.0</ele>
        <time>2013-07-06T15:47:33Z</time>
      </trkpt>
      <trkpt lat="40.169167" lon="-5.103533">
        <ele>650.0</ele>
        <time>2013-07-06T15:47:34Z</time>
      </trkpt>
      <trkpt lat="40.169100" lon="-5.103633">
        <ele>649.0</ele>
        <time>2013-07-06T15:47:35Z</time>
      </trkpt>
      <trkpt lat="40.169050" lon="-5.103717">
        <ele>649.0</ele>
        <time>2013-07-06T15:47:36Z</time>
      </trkpt>
      <trkpt lat="40.168933" lon="-5.103850">
        <ele>647.0</ele>
        <time>2013-07-06T15:47:38Z</time>
      </trkpt>
      <trkpt lat="40.168867" lon="-5.103933">
        <ele>644.0</ele>
        <time>2013-07-06T15:47:39Z</time>
      </trkpt>
      <trkpt lat="40.168800" lon="-5.104000">
        <ele>641.0</ele>
        <time>2013-07-06T15:47:40Z</time>
      </trkpt>
      <trkpt lat="40.168650" lon="-5.104167">
        <ele>637.0</ele>
        <time>2013-07-06T15:47:42Z</time>
      </trkpt>
      <trkpt lat="40.168583" lon="-5.104233">
        <ele>636.0</ele>
        <time>2013-07-06T15:47:43Z</time>
      </trkpt>
      <trkpt lat="40.168533" lon="-5.104300">
        <ele>636.0</ele>
        <time>2013-07-06T15:47:44Z</time>
      </trkpt>
      <trkpt lat="40.168467" lon="-5.104367">
        <ele>636.0</ele>
        <time>2013-07-06T15:47:45Z</time>
      </trkpt>
      <trkpt lat="40.168350" lon="-5.104533">
        <ele>633.0</ele>
        <time>2013-07-06T15:47:47Z</time>
      </trkpt>
      <trkpt lat="40.168283" lon="-5.104633">
        <ele>632.0</ele>
        <time>2013-07-06T15:47:48Z</time>
      </trkpt>
      <trkpt lat="40.168233" lon="-5.104733">
        <ele>631.0</ele>
        <time>2013-07-06T15:47:49Z</time>
      </trkpt>
      <trkpt lat="40.168183" lon="-5.104833">
        <ele>631.0</ele>
        <time>2013-07-06T15:47:50Z</time>
      </trkpt>
      <trkpt lat="40.168133" lon="-5.104933">
        <ele>631.0</ele>
        <time>2013-07-06T15:47:51Z</time>
      </trkpt>
      <trkpt lat="40.168083" lon="-5.105033">
        <ele>630.0</ele>
        <time>2013-07-06T15:47:52Z</time>
      </trkpt>
      <trkpt lat="40.168033" lon="-5.105150">
        <ele>629.0</ele>
        <time>2013-07-06T15:47:53Z</time>
      </trkpt>
      <trkpt lat="40.167983" lon="-5.105267">
        <ele>628.0</ele>
        <time>2013-07-06T15:47:54Z</time>
      </trkpt>
      <trkpt lat="40.167917" lon="-5.105383">
        <ele>627.0</ele>
        <time>2013-07-06T15:47:55Z</time>
      </trkpt>
      <trkpt lat="40.167867" lon="-5.105483">
        <ele>626.0</ele>
        <time>2013-07-06T15:47:56Z</time>
      </trkpt>
      <trkpt lat="40.167800" lon="-5.105583">
        <ele>626.0</ele>
        <time>2013-07-06T15:47:57Z</time>
      </trkpt>
      <trkpt lat="40.167750" lon="-5.105667">
        <ele>626.0</ele>
        <time>2013-07-06T15:47:58Z</time>
      </trkpt>
      <trkpt lat="40.167700" lon="-5.105767">
        <ele>625.0</ele>
        <time>2013-07-06T15:47:59Z</time>
      </trkpt>
      <trkpt lat="40.167650" lon="-5.105867">
        <ele>624.0</ele>
        <time>2013-07-06T15:48:00Z</time>
      </trkpt>
      <trkpt lat="40.167583" lon="-5.105950">
        <ele>623.0</ele>
        <time>2013-07-06T15:48:01Z</time>
      </trkpt>
      <trkpt lat="40.167533" lon="-5.106050">
        <ele>622.0</ele>
        <time>2013-07-06T15:48:02Z</time>
      </trkpt>
      <trkpt lat="40.167483" lon="-5.106150">
        <ele>622.0</ele>
        <time>2013-07-06T15:48:03Z</time>
      </trkpt>
      <trkpt lat="40.167450" lon="-5.106250">
        <ele>621.0</ele>
        <time>2013-07-06T15:48:04Z</time>
      </trkpt>
      <trkpt lat="40.167400" lon="-5.106333">
        <ele>621.0</ele>
        <time>2013-07-06T15:48:05Z</time>
      </trkpt>
      <trkpt lat="40.167350" lon="-5.106433">
        <ele>620.0</ele>
        <time>2013-07-06T15:48:06Z</time>
      </trkpt>
      <trkpt lat="40.167300" lon="-5.106517">
        <ele>620.0</ele>
        <time>2013-07-06T15:48:07Z</time>
      </trkpt>
      <trkpt lat="40.167250" lon="-5.106600">
        <ele>620.0</ele>
        <time>2013-07-06T15:48:08Z</time>
      </trkpt>
      <trkpt lat="40.167200" lon="-5.106683">
        <ele>620.0</ele>
        <time>2013-07-06T15:48:09Z</time>
      </trkpt>
      <trkpt lat="40.167150" lon="-5.106750">
        <ele>620.0</ele>
        <time>2013-07-06T15:48:10Z</time>
      </trkpt>
      <trkpt lat="40.167083" lon="-5.106833">
        <ele>620.0</ele>
        <time>2013-07-06T15:48:11Z</time>
      </trkpt>
      <trkpt lat="40.167017" lon="-5.106917">
        <ele>620.0</ele>
        <time>2013-07-06T15:48:12Z</time>
      </trkpt>
      <trkpt lat="40.166967" lon="-5.107000">
        <ele>621.0</ele>
        <time>2013-07-06T15:48:13Z</time>
      </trkpt>
      <trkpt lat="40.166900" lon="-5.107067">
        <ele>621.0</ele>
        <time>2013-07-06T15:48:14Z</time>
      </trkpt>
      <trkpt lat="40.166850" lon="-5.107150">
        <ele>621.0</ele>
        <time>2013-07-06T15:48:15Z</time>
      </trkpt>
      <trkpt lat="40.166783" lon="-5.107233">
        <ele>621.0</ele>
        <time>2013-07-06T15:48:16Z</time>
      </trkpt>
      <trkpt lat="40.166717" lon="-5.107333">
        <ele>620.0</ele>
        <time>2013-07-06T15:48:17Z</time>
      </trkpt>
      <trkpt lat="40.166633" lon="-5.107450">
        <ele>618.0</ele>
        <time>2013-07-06T15:48:18Z</time>
      </trkpt>
      <trkpt lat="40.166567" lon="-5.107567">
        <ele>617.0</ele>
        <time>2013-07-06T15:48:19Z</time>
      </trkpt>
      <trkpt lat="40.166517" lon="-5.107683">
        <ele>616.0</ele>
        <time>2013-07-06T15:48:20Z</time>
      </trkpt>
      <trkpt lat="40.166467" lon="-5.107783">
        <ele>616.0</ele>
        <time>2013-07-06T15:48:21Z</time>
      </trkpt>
      <trkpt lat="40.166417" lon="-5.107883">
        <ele>615.0</ele>
        <time>2013-07-06T15:48:22Z</time>
      </trkpt>
      <trkpt lat="40.166350" lon="-5.108000">
        <ele>615.0</ele>
        <time>2013-07-06T15:48:23Z</time>
      </trkpt>
      <trkpt lat="40.166300" lon="-5.108117">
        <ele>614.0</ele>
        <time>2013-07-06T15:48:24Z</time>
      </trkpt>
      <trkpt lat="40.166233" lon="-5.108217">
        <ele>613.0</ele>
        <time>2013-07-06T15:48:25Z</time>
      </trkpt>
      <trkpt lat="40.166183" lon="-5.108317">
        <ele>613.0</ele>
        <time>2013-07-06T15:48:26Z</time>
      </trkpt>
      <trkpt lat="40.166117" lon="-5.108400">
        <ele>613.0</ele>
        <time>2013-07-06T15:48:27Z</time>
      </trkpt>
      <trkpt lat="40.166050" lon="-5.108483">
        <ele>613.0</ele>
        <time>2013-07-06T15:48:28Z</time>
      </trkpt>
      <trkpt lat="40.166000" lon="-5.108567">
        <ele>612.0</ele>
        <time>2013-07-06T15:48:29Z</time>
      </trkpt>
      <trkpt lat="40.165933" lon="-5.108667">
        <ele>611.0</ele>
        <time>2013-07-06T15:48:30Z</time>
      </trkpt>
      <trkpt lat="40.165867" lon="-5.108767">
        <ele>610.0</ele>
        <time>2013-07-06T15:48:31Z</time>
      </trkpt>
      <trkpt lat="40.165800" lon="-5.108867">
        <ele>609.0</ele>
        <time>2013-07-06T15:48:32Z</time>
      </trkpt>
      <trkpt lat="40.165717" lon="-5.108967">
        <ele>608.0</ele>
        <time>2013-07-06T15:48:33Z</time>
      </trkpt>
      <trkpt lat="40.165667" lon="-5.109050">
        <ele>607.0</ele>
        <time>2013-07-06T15:48:34Z</time>
      </trkpt>
      <trkpt lat="40.165617" lon="-5.109133">
        <ele>607.0</ele>
        <time>2013-07-06T15:48:35Z</time>
      </trkpt>
      <trkpt lat="40.165567" lon="-5.109217">
        <ele>606.0</ele>
        <time>2013-07-06T15:48:36Z</time>
      </trkpt>
      <trkpt lat="40.165533" lon="-5.109317">
        <ele>604.0</ele>
        <time>2013-07-06T15:48:37Z</time>
      </trkpt>
      <trkpt lat="40.165467" lon="-5.109417">
        <ele>602.0</ele>
        <time>2013-07-06T15:48:38Z</time>
      </trkpt>
      <trkpt lat="40.165400" lon="-5.109517">
        <ele>599.0</ele>
        <time>2013-07-06T15:48:39Z</time>
      </trkpt>
      <trkpt lat="40.165350" lon="-5.109600">
        <ele>597.0</ele>
        <time>2013-07-06T15:48:40Z</time>
      </trkpt>
      <trkpt lat="40.165300" lon="-5.109700">
        <ele>594.0</ele>
        <time>2013-07-06T15:48:41Z</time>
      </trkpt>
      <trkpt lat="40.165250" lon="-5.109783">
        <ele>591.0</ele>
        <time>2013-07-06T15:48:42Z</time>
      </trkpt>
      <trkpt lat="40.165200" lon="-5.109883">
        <ele>588.0</ele>
        <time>2013-07-06T15:48:43Z</time>
      </trkpt>
      <trkpt lat="40.165133" lon="-5.110000">
        <ele>585.0</ele>
        <time>2013-07-06T15:48:44Z</time>
      </trkpt>
      <trkpt lat="40.165083" lon="-5.110083">
        <ele>582.0</ele>
        <time>2013-07-06T15:48:45Z</time>
      </trkpt>
      <trkpt lat="40.165017" lon="-5.110183">
        <ele>580.0</ele>
        <time>2013-07-06T15:48:46Z</time>
      </trkpt>
      <trkpt lat="40.164967" lon="-5.110267">
        <ele>579.0</ele>
        <time>2013-07-06T15:48:47Z</time>
      </trkpt>
      <trkpt lat="40.164900" lon="-5.110333">
        <ele>577.0</ele>
        <time>2013-07-06T15:48:48Z</time>
      </trkpt>
      <trkpt lat="40.164850" lon="-5.110417">
        <ele>575.0</ele>
        <time>2013-07-06T15:48:49Z</time>
      </trkpt>
      <trkpt lat="40.164783" lon="-5.110500">
        <ele>573.0</ele>
        <time>2013-07-06T15:48:50Z</time>
      </trkpt>
      <trkpt lat="40.164717" lon="-5.110600">
        <ele>570.0</ele>
        <time>2013-07-06T15:48:51Z</time>
      </trkpt>
      <trkpt lat="40.164667" lon="-5.110700">
        <ele>568.0</ele>
        <time>2013-07-06T15:48:52Z</time>
      </trkpt>
      <trkpt lat="40.164617" lon="-5.110800">
        <ele>567.0</ele>
        <time>2013-07-06T15:48:53Z</time>
      </trkpt>
      <trkpt lat="40.164583" lon="-5.110917">
        <ele>565.0</ele>
        <time>2013-07-06T15:48:54Z</time>
      </trkpt>
      <trkpt lat="40.164550" lon="-5.111033">
        <ele>563.0</ele>
        <time>2013-07-06T15:48:55Z</time>
      </trkpt>
      <trkpt lat="40.164517" lon="-5.111150">
        <ele>562.0</ele>
        <time>2013-07-06T15:48:56Z</time>
      </trkpt>
      <trkpt lat="40.164483" lon="-5.111267">
        <ele>560.0</ele>
        <time>2013-07-06T15:48:57Z</time>
      </trkpt>
      <trkpt lat="40.164450" lon="-5.111383">
        <ele>558.0</ele>
        <time>2013-07-06T15:48:58Z</time>
      </trkpt>
      <trkpt lat="40.164400" lon="-5.111500">
        <ele>557.0</ele>
        <time>2013-07-06T15:48:59Z</time>
      </trkpt>
      <trkpt lat="40.164350" lon="-5.111600">
        <ele>556.0</ele>
        <time>2013-07-06T15:49:00Z</time>
      </trkpt>
      <trkpt lat="40.164300" lon="-5.111700">
        <ele>554.0</ele>
        <time>2013-07-06T15:49:01Z</time>
      </trkpt>
      <trkpt lat="40.164233" lon="-5.111783">
        <ele>553.0</ele>
        <time>2013-07-06T15:49:02Z</time>
      </trkpt>
      <trkpt lat="40.164167" lon="-5.111883">
        <ele>551.0</ele>
        <time>2013-07-06T15:49:03Z</time>
      </trkpt>
      <trkpt lat="40.164100" lon="-5.111967">
        <ele>550.0</ele>
        <time>2013-07-06T15:49:04Z</time>
      </trkpt>
      <trkpt lat="40.164033" lon="-5.112067">
        <ele>548.0</ele>
        <time>2013-07-06T15:49:05Z</time>
      </trkpt>
      <trkpt lat="40.163967" lon="-5.112167">
        <ele>546.0</ele>
        <time>2013-07-06T15:49:06Z</time>
      </trkpt>
      <trkpt lat="40.163917" lon="-5.112267">
        <ele>545.0</ele>
        <time>2013-07-06T15:49:07Z</time>
      </trkpt>
      <trkpt lat="40.163867" lon="-5.112350">
        <ele>544.0</ele>
        <time>2013-07-06T15:49:08Z</time>
      </trkpt>
      <trkpt lat="40.163800" lon="-5.112450">
        <ele>543.0</ele>
        <time>2013-07-06T15:49:09Z</time>
      </trkpt>
      <trkpt lat="40.163717" lon="-5.112550">
        <ele>541.0</ele>
        <time>2013-07-06T15:49:10Z</time>
      </trkpt>
      <trkpt lat="40.163650" lon="-5.112650">
        <ele>539.0</ele>
        <time>2013-07-06T15:49:11Z</time>
      </trkpt>
      <trkpt lat="40.163583" lon="-5.112750">
        <ele>538.0</ele>
        <time>2013-07-06T15:49:12Z</time>
      </trkpt>
      <trkpt lat="40.163533" lon="-5.112833">
        <ele>537.0</ele>
        <time>2013-07-06T15:49:13Z</time>
      </trkpt>
      <trkpt lat="40.163467" lon="-5.112933">
        <ele>536.0</ele>
        <time>2013-07-06T15:49:14Z</time>
      </trkpt>
      <trkpt lat="40.163417" lon="-5.113017">
        <ele>535.0</ele>
        <time>2013-07-06T15:49:15Z</time>
      </trkpt>
      <trkpt lat="40.163350" lon="-5.113133">
        <ele>533.0</ele>
        <time>2013-07-06T15:49:16Z</time>
      </trkpt>
      <trkpt lat="40.163283" lon="-5.113233">
        <ele>531.0</ele>
        <time>2013-07-06T15:49:17Z</time>
      </trkpt>
      <trkpt lat="40.163217" lon="-5.113333">
        <ele>529.0</ele>
        <time>2013-07-06T15:49:18Z</time>
      </trkpt>
      <trkpt lat="40.163167" lon="-5.113433">
        <ele>529.0</ele>
        <time>2013-07-06T15:49:19Z</time>
      </trkpt>
      <trkpt lat="40.163067" lon="-5.113667">
        <ele>527.0</ele>
        <time>2013-07-06T15:49:21Z</time>
      </trkpt>
      <trkpt lat="40.163033" lon="-5.113783">
        <ele>526.0</ele>
        <time>2013-07-06T15:49:22Z</time>
      </trkpt>
      <trkpt lat="40.163000" lon="-5.113900">
        <ele>525.0</ele>
        <time>2013-07-06T15:49:23Z</time>
      </trkpt>
      <trkpt lat="40.162967" lon="-5.114017">
        <ele>526.0</ele>
        <time>2013-07-06T15:49:24Z</time>
      </trkpt>
      <trkpt lat="40.162933" lon="-5.114117">
        <ele>526.0</ele>
        <time>2013-07-06T15:49:25Z</time>
      </trkpt>
      <trkpt lat="40.162917" lon="-5.114217">
        <ele>526.0</ele>
        <time>2013-07-06T15:49:26Z</time>
      </trkpt>
      <trkpt lat="40.162883" lon="-5.114317">
        <ele>525.0</ele>
        <time>2013-07-06T15:49:27Z</time>
      </trkpt>
      <trkpt lat="40.162867" lon="-5.114417">
        <ele>525.0</ele>
        <time>2013-07-06T15:49:28Z</time>
      </trkpt>
      <trkpt lat="40.162833" lon="-5.114533">
        <ele>525.0</ele>
        <time>2013-07-06T15:49:29Z</time>
      </trkpt>
      <trkpt lat="40.162800" lon="-5.114650">
        <ele>525.0</ele>
        <time>2013-07-06T15:49:30Z</time>
      </trkpt>
      <trkpt lat="40.162767" lon="-5.114733">
        <ele>525.0</ele>
        <time>2013-07-06T15:49:31Z</time>
      </trkpt>
      <trkpt lat="40.162767" lon="-5.114833">
        <ele>525.0</ele>
        <time>2013-07-06T15:49:32Z</time>
      </trkpt>
      <trkpt lat="40.162750" lon="-5.114917">
        <ele>526.0</ele>
        <time>2013-07-06T15:49:33Z</time>
      </trkpt>
      <trkpt lat="40.162733" lon="-5.115017">
        <ele>525.0</ele>
        <time>2013-07-06T15:49:34Z</time>
      </trkpt>
      <trkpt lat="40.162717" lon="-5.115117">
        <ele>525.0</ele>
        <time>2013-07-06T15:49:35Z</time>
      </trkpt>
      <trkpt lat="40.162717" lon="-5.115200">
        <ele>526.0</ele>
        <time>2013-07-06T15:49:36Z</time>
      </trkpt>
      <trkpt lat="40.162717" lon="-5.115283">
        <ele>526.0</ele>
        <time>2013-07-06T15:49:37Z</time>
      </trkpt>
      <trkpt lat="40.162717" lon="-5.115383">
        <ele>526.0</ele>
        <time>2013-07-06T15:49:38Z</time>
      </trkpt>
      <trkpt lat="40.162733" lon="-5.115483">
        <ele>525.0</ele>
        <time>2013-07-06T15:49:39Z</time>
      </trkpt>
      <trkpt lat="40.162733" lon="-5.115583">
        <ele>524.0</ele>
        <time>2013-07-06T15:49:40Z</time>
      </trkpt>
      <trkpt lat="40.162750" lon="-5.115683">
        <ele>524.0</ele>
        <time>2013-07-06T15:49:41Z</time>
      </trkpt>
      <trkpt lat="40.162750" lon="-5.115783">
        <ele>523.0</ele>
        <time>2013-07-06T15:49:42Z</time>
      </trkpt>
      <trkpt lat="40.162750" lon="-5.115867">
        <ele>523.0</ele>
        <time>2013-07-06T15:49:43Z</time>
      </trkpt>
      <trkpt lat="40.162750" lon="-5.115967">
        <ele>522.0</ele>
        <time>2013-07-06T15:49:44Z</time>
      </trkpt>
      <trkpt lat="40.162733" lon="-5.116050">
        <ele>521.0</ele>
        <time>2013-07-06T15:49:45Z</time>
      </trkpt>
      <trkpt lat="40.162733" lon="-5.116150">
        <ele>518.0</ele>
        <time>2013-07-06T15:49:46Z</time>
      </trkpt>
      <trkpt lat="40.162733" lon="-5.116233">
        <ele>517.0</ele>
        <time>2013-07-06T15:49:47Z</time>
      </trkpt>
      <trkpt lat="40.162733" lon="-5.116317">
        <ele>516.0</ele>
        <time>2013-07-06T15:49:48Z</time>
      </trkpt>
      <trkpt lat="40.162767" lon="-5.116417">
        <ele>515.0</ele>
        <time>2013-07-06T15:49:49Z</time>
      </trkpt>
      <trkpt lat="40.162783" lon="-5.116500">
        <ele>515.0</ele>
        <time>2013-07-06T15:49:50Z</time>
      </trkpt>
      <trkpt lat="40.162817" lon="-5.116600">
        <ele>513.0</ele>
        <time>2013-07-06T15:49:51Z</time>
      </trkpt>
      <trkpt lat="40.162833" lon="-5.116717">
        <ele>510.0</ele>
        <time>2013-07-06T15:49:52Z</time>
      </trkpt>
      <trkpt lat="40.162850" lon="-5.116817">
        <ele>508.0</ele>
        <time>2013-07-06T15:49:53Z</time>
      </trkpt>
      <trkpt lat="40.162850" lon="-5.116900">
        <ele>507.0</ele>
        <time>2013-07-06T15:49:54Z</time>
      </trkpt>
      <trkpt lat="40.162867" lon="-5.116983">
        <ele>506.0</ele>
        <time>2013-07-06T15:49:55Z</time>
      </trkpt>
      <trkpt lat="40.162883" lon="-5.117067">
        <ele>504.0</ele>
        <time>2013-07-06T15:49:56Z</time>
      </trkpt>
      <trkpt lat="40.162900" lon="-5.117133">
        <ele>505.0</ele>
        <time>2013-07-06T15:49:57Z</time>
      </trkpt>
      <trkpt lat="40.162917" lon="-5.117217">
        <ele>504.0</ele>
        <time>2013-07-06T15:49:58Z</time>
      </trkpt>
      <trkpt lat="40.162933" lon="-5.117300">
        <ele>503.0</ele>
        <time>2013-07-06T15:49:59Z</time>
      </trkpt>
      <trkpt lat="40.162933" lon="-5.117367">
        <ele>501.0</ele>
        <time>2013-07-06T15:50:00Z</time>
      </trkpt>
      <trkpt lat="40.162933" lon="-5.117450">
        <ele>498.0</ele>
        <time>2013-07-06T15:50:01Z</time>
      </trkpt>
      <trkpt lat="40.162917" lon="-5.117550">
        <ele>495.0</ele>
        <time>2013-07-06T15:50:02Z</time>
      </trkpt>
      <trkpt lat="40.162883" lon="-5.117633">
        <ele>493.0</ele>
        <time>2013-07-06T15:50:03Z</time>
      </trkpt>
      <trkpt lat="40.162833" lon="-5.117717">
        <ele>490.0</ele>
        <time>2013-07-06T15:50:04Z</time>
      </trkpt>
      <trkpt lat="40.162767" lon="-5.117767">
        <ele>486.0</ele>
        <time>2013-07-06T15:50:05Z</time>
      </trkpt>
      <trkpt lat="40.162700" lon="-5.117783">
        <ele>483.0</ele>
        <time>2013-07-06T15:50:06Z</time>
      </trkpt>
      <trkpt lat="40.162617" lon="-5.117817">
        <ele>479.0</ele>
        <time>2013-07-06T15:50:07Z</time>
      </trkpt>
      <trkpt lat="40.162533" lon="-5.117833">
        <ele>476.0</ele>
        <time>2013-07-06T15:50:08Z</time>
      </trkpt>
      <trkpt lat="40.162450" lon="-5.117850">
        <ele>472.0</ele>
        <time>2013-07-06T15:50:09Z</time>
      </trkpt>
      <trkpt lat="40.162367" lon="-5.117817">
        <ele>469.0</ele>
        <time>2013-07-06T15:50:10Z</time>
      </trkpt>
      <trkpt lat="40.162317" lon="-5.117750">
        <ele>466.0</ele>
        <time>2013-07-06T15:50:11Z</time>
      </trkpt>
      <trkpt lat="40.162267" lon="-5.117500">
        <ele>459.0</ele>
        <time>2013-07-06T15:50:13Z</time>
      </trkpt>
      <trkpt lat="40.162283" lon="-5.117417">
        <ele>456.0</ele>
        <time>2013-07-06T15:50:14Z</time>
      </trkpt>
      <trkpt lat="40.162267" lon="-5.117317">
        <ele>454.0</ele>
        <time>2013-07-06T15:50:15Z</time>
      </trkpt>
      <trkpt lat="40.162267" lon="-5.117217">
        <ele>452.0</ele>
        <time>2013-07-06T15:50:16Z</time>
      </trkpt>
      <trkpt lat="40.162217" lon="-5.117150">
        <ele>457.0</ele>
        <time>2013-07-06T15:50:17Z</time>
      </trkpt>
      <trkpt lat="40.162133" lon="-5.117067">
        <ele>456.0</ele>
        <time>2013-07-06T15:50:18Z</time>
      </trkpt>
      <trkpt lat="40.162067" lon="-5.117000">
        <ele>455.0</ele>
        <time>2013-07-06T15:50:19Z</time>
      </trkpt>
      <trkpt lat="40.162033" lon="-5.116917">
        <ele>454.0</ele>
        <time>2013-07-06T15:50:20Z</time>
      </trkpt>
      <trkpt lat="40.162000" lon="-5.116833">
        <ele>453.0</ele>
        <time>2013-07-06T15:50:21Z</time>
      </trkpt>
      <trkpt lat="40.161983" lon="-5.116733">
        <ele>452.0</ele>
        <time>2013-07-06T15:50:22Z</time>
      </trkpt>
      <trkpt lat="40.161983" lon="-5.116667">
        <ele>451.0</ele>
        <time>2013-07-06T15:50:25Z</time>
      </trkpt>
      <trkpt lat="40.161967" lon="-5.116650">
        <ele>451.0</ele>
        <time>2013-07-06T15:50:27Z</time>
      </trkpt>
      <trkpt lat="40.161967" lon="-5.116650">
        <ele>451.0</ele>
        <time>2013-07-06T15:50:28Z</time>
      </trkpt>
      <trkpt lat="40.161967" lon="-5.116650">
        <ele>451.0</ele>
        <time>2013-07-06T15:50:29Z</time>
      </trkpt>
      <trkpt lat="40.161967" lon="-5.116650">
        <ele>451.0</ele>
        <time>2013-07-06T15:50:30Z</time>
      </trkpt>
      <trkpt lat="40.161967" lon="-5.116650">
        <ele>450.0</ele>
        <time>2013-07-06T15:50:31Z</time>
      </trkpt>
      <trkpt lat="40.161950" lon="-5.116650">
        <ele>450.0</ele>
        <time>2013-07-06T15:50:32Z</time>
      </trkpt>
      <trkpt lat="40.161950" lon="-5.116667">
        <ele>450.0</ele>
        <time>2013-07-06T15:50:33Z</time>
      </trkpt>
      <trkpt lat="40.161950" lon="-5.116667">
        <ele>450.0</ele>
        <time>2013-07-06T15:50:34Z</time>
      </trkpt>
      <trkpt lat="40.161950" lon="-5.116667">
        <ele>449.0</ele>
        <time>2013-07-06T15:50:35Z</time>
      </trkpt>
      <trkpt lat="40.161950" lon="-5.116650">
        <ele>449.0</ele>
        <time>2013-07-06T15:50:36Z</time>
      </trkpt>
      <trkpt lat="40.161950" lon="-5.116667">
        <ele>449.0</ele>
        <time>2013-07-06T15:50:38Z</time>
      </trkpt>
      <trkpt lat="40.161950" lon="-5.116667">
        <ele>449.0</ele>
        <time>2013-07-06T15:50:39Z</time>
      </trkpt>
      <trkpt lat="40.161950" lon="-5.116667">
        <ele>449.0</ele>
        <time>2013-07-06T15:50:40Z</time>
      </trkpt>
    </trkseg>
  </trk>
</gpx>
